<?xml version="1.0" encoding="UTF-8" standalone="no" ?>
<gpx xmlns="http://www.topografix.com/GPX/1/1" xmlns:xsi="http://www.w3.org/2001/XMLSchema-instance" xsi:schemaLocation="http://www.topografix.com/GPX/1/1 http://www.topografix.com/GPX/1/1/gpx.xsd" version="1.1" creator="VisuGPX - https://www.visugpx.com">
  <metadata>
    <name>Col Saint Jean depuis Laborel</name>
    <desc><![CDATA[Départ de Laragne en direction de Saléon, Lagrand, Orpierre, Laborel. A Laborel nous prenons la direction du col St Jean (5 km de côte, 330 m  de dénivelé). Puis c'est la descente vers Eygalayes jusqu'au croisement de la D542. A cette intersection nous prenons la direction de Laragne via Lachau, Barret, les gorges de la Méouge puis Châteauneuf de Châbre (route légèrement descendante pratiquement jusqu'à Laragne).]]></desc>
  </metadata>
  <trk>
    <name><![CDATA[Col St Jean]]></name>
    <trkseg>
      <trkpt lat="44.31605" lon="5.82959">
        <ele>569</ele>
        <time>2019-03-19T12:55:47Z</time>
      </trkpt>
      <trkpt lat="44.31582" lon="5.82934">
        <ele>572</ele>
        <time>2019-03-19T12:56:26Z</time>
      </trkpt>
      <trkpt lat="44.31578" lon="5.82931">
        <ele>572</ele>
        <time>2019-03-19T12:56:27Z</time>
      </trkpt>
      <trkpt lat="44.31575" lon="5.82928">
        <ele>572</ele>
        <time>2019-03-19T12:56:28Z</time>
      </trkpt>
      <trkpt lat="44.31571" lon="5.82925">
        <ele>572</ele>
        <time>2019-03-19T12:56:29Z</time>
      </trkpt>
      <trkpt lat="44.31568" lon="5.82923">
        <ele>572</ele>
        <time>2019-03-19T12:56:30Z</time>
      </trkpt>
      <trkpt lat="44.31563" lon="5.82921">
        <ele>571</ele>
        <time>2019-03-19T12:56:32Z</time>
      </trkpt>
      <trkpt lat="44.31559" lon="5.82919">
        <ele>571</ele>
        <time>2019-03-19T12:56:32Z</time>
      </trkpt>
      <trkpt lat="44.31555" lon="5.82917">
        <ele>571</ele>
        <time>2019-03-19T12:56:33Z</time>
      </trkpt>
      <trkpt lat="44.31552" lon="5.82914">
        <ele>571</ele>
        <time>2019-03-19T12:56:34Z</time>
      </trkpt>
      <trkpt lat="44.31551" lon="5.82912">
        <ele>571</ele>
        <time>2019-03-19T12:56:35Z</time>
      </trkpt>
      <trkpt lat="44.31549" lon="5.8291">
        <ele>571</ele>
        <time>2019-03-19T12:56:37Z</time>
      </trkpt>
      <trkpt lat="44.31547" lon="5.82909">
        <ele>571</ele>
        <time>2019-03-19T12:56:37Z</time>
      </trkpt>
      <trkpt lat="44.31544" lon="5.82907">
        <ele>571</ele>
        <time>2019-03-19T12:56:38Z</time>
      </trkpt>
      <trkpt lat="44.31541" lon="5.82904">
        <ele>571</ele>
        <time>2019-03-19T12:56:40Z</time>
      </trkpt>
      <trkpt lat="44.31538" lon="5.82901">
        <ele>571</ele>
        <time>2019-03-19T12:56:41Z</time>
      </trkpt>
      <trkpt lat="44.31535" lon="5.82899">
        <ele>571</ele>
        <time>2019-03-19T12:56:42Z</time>
      </trkpt>
      <trkpt lat="44.31532" lon="5.82896">
        <ele>571</ele>
        <time>2019-03-19T12:56:42Z</time>
      </trkpt>
      <trkpt lat="44.31529" lon="5.82892">
        <ele>571</ele>
        <time>2019-03-19T12:56:43Z</time>
      </trkpt>
      <trkpt lat="44.31526" lon="5.82888">
        <ele>571</ele>
        <time>2019-03-19T12:56:44Z</time>
      </trkpt>
      <trkpt lat="44.31524" lon="5.82886">
        <ele>571</ele>
        <time>2019-03-19T12:56:45Z</time>
      </trkpt>
      <trkpt lat="44.31521" lon="5.82883">
        <ele>571</ele>
        <time>2019-03-19T12:56:47Z</time>
      </trkpt>
      <trkpt lat="44.31518" lon="5.8288">
        <ele>571</ele>
        <time>2019-03-19T12:56:48Z</time>
      </trkpt>
      <trkpt lat="44.31515" lon="5.82877">
        <ele>571</ele>
        <time>2019-03-19T12:56:48Z</time>
      </trkpt>
      <trkpt lat="44.31512" lon="5.82874">
        <ele>571</ele>
        <time>2019-03-19T12:56:49Z</time>
      </trkpt>
      <trkpt lat="44.31509" lon="5.82873">
        <ele>571</ele>
        <time>2019-03-19T12:56:50Z</time>
      </trkpt>
      <trkpt lat="44.31505" lon="5.82873">
        <ele>570</ele>
        <time>2019-03-19T12:56:52Z</time>
      </trkpt>
      <trkpt lat="44.31501" lon="5.82874">
        <ele>570</ele>
        <time>2019-03-19T12:56:52Z</time>
      </trkpt>
      <trkpt lat="44.31498" lon="5.82876">
        <ele>570</ele>
        <time>2019-03-19T12:56:53Z</time>
      </trkpt>
      <trkpt lat="44.31495" lon="5.82879">
        <ele>570</ele>
        <time>2019-03-19T12:56:54Z</time>
      </trkpt>
      <trkpt lat="44.31492" lon="5.82883">
        <ele>570</ele>
        <time>2019-03-19T12:56:55Z</time>
      </trkpt>
      <trkpt lat="44.31489" lon="5.82887">
        <ele>570</ele>
        <time>2019-03-19T12:56:57Z</time>
      </trkpt>
      <trkpt lat="44.31486" lon="5.82891">
        <ele>570</ele>
        <time>2019-03-19T12:56:57Z</time>
      </trkpt>
      <trkpt lat="44.31483" lon="5.82895">
        <ele>570</ele>
        <time>2019-03-19T12:56:58Z</time>
      </trkpt>
      <trkpt lat="44.31481" lon="5.82899">
        <ele>570</ele>
        <time>2019-03-19T12:56:59Z</time>
      </trkpt>
      <trkpt lat="44.31478" lon="5.82904">
        <ele>570</ele>
        <time>2019-03-19T12:57:00Z</time>
      </trkpt>
      <trkpt lat="44.31475" lon="5.82908">
        <ele>570</ele>
        <time>2019-03-19T12:57:02Z</time>
      </trkpt>
      <trkpt lat="44.31472" lon="5.82912">
        <ele>570</ele>
        <time>2019-03-19T12:57:02Z</time>
      </trkpt>
      <trkpt lat="44.31469" lon="5.82916">
        <ele>570</ele>
        <time>2019-03-19T12:57:03Z</time>
      </trkpt>
      <trkpt lat="44.31466" lon="5.8292">
        <ele>570</ele>
        <time>2019-03-19T12:57:04Z</time>
      </trkpt>
      <trkpt lat="44.31462" lon="5.82925">
        <ele>570</ele>
        <time>2019-03-19T12:57:05Z</time>
      </trkpt>
      <trkpt lat="44.31459" lon="5.82929">
        <ele>570</ele>
        <time>2019-03-19T12:57:07Z</time>
      </trkpt>
      <trkpt lat="44.31456" lon="5.82934">
        <ele>570</ele>
        <time>2019-03-19T12:57:07Z</time>
      </trkpt>
      <trkpt lat="44.31452" lon="5.82938">
        <ele>570</ele>
        <time>2019-03-19T12:57:08Z</time>
      </trkpt>
      <trkpt lat="44.31449" lon="5.82943">
        <ele>570</ele>
        <time>2019-03-19T12:57:09Z</time>
      </trkpt>
      <trkpt lat="44.31445" lon="5.82948">
        <ele>570</ele>
        <time>2019-03-19T12:57:10Z</time>
      </trkpt>
      <trkpt lat="44.31442" lon="5.82952">
        <ele>570</ele>
        <time>2019-03-19T12:57:12Z</time>
      </trkpt>
      <trkpt lat="44.31438" lon="5.82957">
        <ele>570</ele>
        <time>2019-03-19T12:57:12Z</time>
      </trkpt>
      <trkpt lat="44.31435" lon="5.82962">
        <ele>570</ele>
        <time>2019-03-19T12:57:13Z</time>
      </trkpt>
      <trkpt lat="44.31431" lon="5.82967">
        <ele>570</ele>
        <time>2019-03-19T12:57:14Z</time>
      </trkpt>
      <trkpt lat="44.31428" lon="5.82972">
        <ele>570</ele>
        <time>2019-03-19T12:57:15Z</time>
      </trkpt>
      <trkpt lat="44.31425" lon="5.82976">
        <ele>570</ele>
        <time>2019-03-19T12:57:17Z</time>
      </trkpt>
      <trkpt lat="44.31422" lon="5.82981">
        <ele>570</ele>
        <time>2019-03-19T12:57:17Z</time>
      </trkpt>
      <trkpt lat="44.31418" lon="5.82985">
        <ele>570</ele>
        <time>2019-03-19T12:57:18Z</time>
      </trkpt>
      <trkpt lat="44.31415" lon="5.8299">
        <ele>570</ele>
        <time>2019-03-19T12:57:20Z</time>
      </trkpt>
      <trkpt lat="44.31412" lon="5.82994">
        <ele>570</ele>
        <time>2019-03-19T12:57:20Z</time>
      </trkpt>
      <trkpt lat="44.31408" lon="5.82999">
        <ele>570</ele>
        <time>2019-03-19T12:57:22Z</time>
      </trkpt>
      <trkpt lat="44.31405" lon="5.83004">
        <ele>570</ele>
        <time>2019-03-19T12:57:22Z</time>
      </trkpt>
      <trkpt lat="44.31402" lon="5.83009">
        <ele>570</ele>
        <time>2019-03-19T12:57:23Z</time>
      </trkpt>
      <trkpt lat="44.31398" lon="5.83014">
        <ele>570</ele>
        <time>2019-03-19T12:57:24Z</time>
      </trkpt>
      <trkpt lat="44.31395" lon="5.83019">
        <ele>570</ele>
        <time>2019-03-19T12:57:25Z</time>
      </trkpt>
      <trkpt lat="44.31392" lon="5.83024">
        <ele>570</ele>
        <time>2019-03-19T12:57:27Z</time>
      </trkpt>
      <trkpt lat="44.31388" lon="5.83029">
        <ele>570</ele>
        <time>2019-03-19T12:57:27Z</time>
      </trkpt>
      <trkpt lat="44.31385" lon="5.83033">
        <ele>570</ele>
        <time>2019-03-19T12:57:28Z</time>
      </trkpt>
      <trkpt lat="44.31382" lon="5.83037">
        <ele>570</ele>
        <time>2019-03-19T12:57:29Z</time>
      </trkpt>
      <trkpt lat="44.31379" lon="5.83042">
        <ele>570</ele>
        <time>2019-03-19T12:57:30Z</time>
      </trkpt>
      <trkpt lat="44.31377" lon="5.83047">
        <ele>570</ele>
        <time>2019-03-19T12:57:32Z</time>
      </trkpt>
      <trkpt lat="44.31374" lon="5.83051">
        <ele>570</ele>
        <time>2019-03-19T12:57:32Z</time>
      </trkpt>
      <trkpt lat="44.31372" lon="5.83055">
        <ele>570</ele>
        <time>2019-03-19T12:57:33Z</time>
      </trkpt>
      <trkpt lat="44.31369" lon="5.8306">
        <ele>570</ele>
        <time>2019-03-19T12:57:34Z</time>
      </trkpt>
      <trkpt lat="44.31367" lon="5.83064">
        <ele>570</ele>
        <time>2019-03-19T12:57:35Z</time>
      </trkpt>
      <trkpt lat="44.31365" lon="5.83068">
        <ele>570</ele>
        <time>2019-03-19T12:57:37Z</time>
      </trkpt>
      <trkpt lat="44.31363" lon="5.83072">
        <ele>570</ele>
        <time>2019-03-19T12:57:37Z</time>
      </trkpt>
      <trkpt lat="44.31361" lon="5.83076">
        <ele>570</ele>
        <time>2019-03-19T12:57:38Z</time>
      </trkpt>
      <trkpt lat="44.31359" lon="5.8308">
        <ele>570</ele>
        <time>2019-03-19T12:57:39Z</time>
      </trkpt>
      <trkpt lat="44.31357" lon="5.83084">
        <ele>570</ele>
        <time>2019-03-19T12:57:40Z</time>
      </trkpt>
      <trkpt lat="44.31356" lon="5.83089">
        <ele>570</ele>
        <time>2019-03-19T12:57:42Z</time>
      </trkpt>
      <trkpt lat="44.31354" lon="5.83094">
        <ele>570</ele>
        <time>2019-03-19T12:57:42Z</time>
      </trkpt>
      <trkpt lat="44.31351" lon="5.83097">
        <ele>570</ele>
        <time>2019-03-19T12:57:43Z</time>
      </trkpt>
      <trkpt lat="44.31349" lon="5.831">
        <ele>570</ele>
        <time>2019-03-19T12:57:44Z</time>
      </trkpt>
      <trkpt lat="44.31347" lon="5.83101">
        <ele>570</ele>
        <time>2019-03-19T12:57:45Z</time>
      </trkpt>
      <trkpt lat="44.31344" lon="5.83101">
        <ele>570</ele>
        <time>2019-03-19T12:57:47Z</time>
      </trkpt>
      <trkpt lat="44.31342" lon="5.83099">
        <ele>570</ele>
        <time>2019-03-19T12:57:48Z</time>
      </trkpt>
      <trkpt lat="44.31341" lon="5.83096">
        <ele>570</ele>
        <time>2019-03-19T12:57:48Z</time>
      </trkpt>
      <trkpt lat="44.31341" lon="5.83092">
        <ele>570</ele>
        <time>2019-03-19T12:57:49Z</time>
      </trkpt>
      <trkpt lat="44.3134" lon="5.83088">
        <ele>570</ele>
        <time>2019-03-19T12:57:50Z</time>
      </trkpt>
      <trkpt lat="44.31341" lon="5.83083">
        <ele>569</ele>
        <time>2019-03-19T12:57:52Z</time>
      </trkpt>
      <trkpt lat="44.31342" lon="5.83078">
        <ele>569</ele>
        <time>2019-03-19T12:57:52Z</time>
      </trkpt>
      <trkpt lat="44.31342" lon="5.83074">
        <ele>569</ele>
        <time>2019-03-19T12:57:53Z</time>
      </trkpt>
      <trkpt lat="44.31343" lon="5.8307">
        <ele>568</ele>
        <time>2019-03-19T12:57:54Z</time>
      </trkpt>
      <trkpt lat="44.31344" lon="5.83065">
        <ele>568</ele>
        <time>2019-03-19T12:57:55Z</time>
      </trkpt>
      <trkpt lat="44.31345" lon="5.83059">
        <ele>567</ele>
        <time>2019-03-19T12:57:57Z</time>
      </trkpt>
      <trkpt lat="44.31347" lon="5.83054">
        <ele>567</ele>
        <time>2019-03-19T12:57:57Z</time>
      </trkpt>
      <trkpt lat="44.31349" lon="5.83048">
        <ele>567</ele>
        <time>2019-03-19T12:57:58Z</time>
      </trkpt>
      <trkpt lat="44.31351" lon="5.83042">
        <ele>566</ele>
        <time>2019-03-19T12:57:59Z</time>
      </trkpt>
      <trkpt lat="44.31352" lon="5.83036">
        <ele>566</ele>
        <time>2019-03-19T12:58:00Z</time>
      </trkpt>
      <trkpt lat="44.31353" lon="5.8303">
        <ele>565</ele>
        <time>2019-03-19T12:58:02Z</time>
      </trkpt>
      <trkpt lat="44.31355" lon="5.83023">
        <ele>565</ele>
        <time>2019-03-19T12:58:02Z</time>
      </trkpt>
      <trkpt lat="44.31356" lon="5.83016">
        <ele>565</ele>
        <time>2019-03-19T12:58:03Z</time>
      </trkpt>
      <trkpt lat="44.31357" lon="5.83009">
        <ele>565</ele>
        <time>2019-03-19T12:58:05Z</time>
      </trkpt>
      <trkpt lat="44.31358" lon="5.83001">
        <ele>565</ele>
        <time>2019-03-19T12:58:05Z</time>
      </trkpt>
      <trkpt lat="44.31359" lon="5.82994">
        <ele>565</ele>
        <time>2019-03-19T12:58:07Z</time>
      </trkpt>
      <trkpt lat="44.3136" lon="5.82987">
        <ele>565</ele>
        <time>2019-03-19T12:58:07Z</time>
      </trkpt>
      <trkpt lat="44.31361" lon="5.82979">
        <ele>565</ele>
        <time>2019-03-19T12:58:08Z</time>
      </trkpt>
      <trkpt lat="44.31362" lon="5.82971">
        <ele>565</ele>
        <time>2019-03-19T12:58:09Z</time>
      </trkpt>
      <trkpt lat="44.31363" lon="5.82963">
        <ele>564</ele>
        <time>2019-03-19T12:58:10Z</time>
      </trkpt>
      <trkpt lat="44.31364" lon="5.82955">
        <ele>564</ele>
        <time>2019-03-19T12:58:12Z</time>
      </trkpt>
      <trkpt lat="44.31366" lon="5.82947">
        <ele>564</ele>
        <time>2019-03-19T12:58:13Z</time>
      </trkpt>
      <trkpt lat="44.31366" lon="5.82938">
        <ele>564</ele>
        <time>2019-03-19T12:58:13Z</time>
      </trkpt>
      <trkpt lat="44.31367" lon="5.8293">
        <ele>564</ele>
        <time>2019-03-19T12:58:14Z</time>
      </trkpt>
      <trkpt lat="44.31368" lon="5.82922">
        <ele>564</ele>
        <time>2019-03-19T12:58:15Z</time>
      </trkpt>
      <trkpt lat="44.31369" lon="5.82914">
        <ele>564</ele>
        <time>2019-03-19T12:58:17Z</time>
      </trkpt>
      <trkpt lat="44.3137" lon="5.82905">
        <ele>564</ele>
        <time>2019-03-19T12:58:17Z</time>
      </trkpt>
      <trkpt lat="44.31371" lon="5.82898">
        <ele>564</ele>
        <time>2019-03-19T12:58:18Z</time>
      </trkpt>
      <trkpt lat="44.31372" lon="5.8289">
        <ele>564</ele>
        <time>2019-03-19T12:58:19Z</time>
      </trkpt>
      <trkpt lat="44.31373" lon="5.82882">
        <ele>563</ele>
        <time>2019-03-19T12:58:20Z</time>
      </trkpt>
      <trkpt lat="44.31374" lon="5.82874">
        <ele>563</ele>
        <time>2019-03-19T12:58:22Z</time>
      </trkpt>
      <trkpt lat="44.31375" lon="5.82866">
        <ele>563</ele>
        <time>2019-03-19T12:58:22Z</time>
      </trkpt>
      <trkpt lat="44.31376" lon="5.82858">
        <ele>563</ele>
        <time>2019-03-19T12:58:23Z</time>
      </trkpt>
      <trkpt lat="44.31377" lon="5.8285">
        <ele>562</ele>
        <time>2019-03-19T12:58:24Z</time>
      </trkpt>
      <trkpt lat="44.31378" lon="5.82842">
        <ele>562</ele>
        <time>2019-03-19T12:58:25Z</time>
      </trkpt>
      <trkpt lat="44.31379" lon="5.82834">
        <ele>562</ele>
        <time>2019-03-19T12:58:27Z</time>
      </trkpt>
      <trkpt lat="44.31379" lon="5.82826">
        <ele>562</ele>
        <time>2019-03-19T12:58:27Z</time>
      </trkpt>
      <trkpt lat="44.3138" lon="5.82818">
        <ele>562</ele>
        <time>2019-03-19T12:58:28Z</time>
      </trkpt>
      <trkpt lat="44.3138" lon="5.8281">
        <ele>562</ele>
        <time>2019-03-19T12:58:29Z</time>
      </trkpt>
      <trkpt lat="44.31381" lon="5.82802">
        <ele>561</ele>
        <time>2019-03-19T12:58:30Z</time>
      </trkpt>
      <trkpt lat="44.31382" lon="5.82794">
        <ele>561</ele>
        <time>2019-03-19T12:58:32Z</time>
      </trkpt>
      <trkpt lat="44.31382" lon="5.82786">
        <ele>561</ele>
        <time>2019-03-19T12:58:32Z</time>
      </trkpt>
      <trkpt lat="44.31382" lon="5.82778">
        <ele>561</ele>
        <time>2019-03-19T12:58:33Z</time>
      </trkpt>
      <trkpt lat="44.31382" lon="5.8277">
        <ele>561</ele>
        <time>2019-03-19T12:58:34Z</time>
      </trkpt>
      <trkpt lat="44.31382" lon="5.82762">
        <ele>561</ele>
        <time>2019-03-19T12:58:35Z</time>
      </trkpt>
      <trkpt lat="44.31382" lon="5.82755">
        <ele>561</ele>
        <time>2019-03-19T12:58:37Z</time>
      </trkpt>
      <trkpt lat="44.31381" lon="5.82748">
        <ele>560</ele>
        <time>2019-03-19T12:58:37Z</time>
      </trkpt>
      <trkpt lat="44.31381" lon="5.8274">
        <ele>560</ele>
        <time>2019-03-19T12:58:38Z</time>
      </trkpt>
      <trkpt lat="44.3138" lon="5.82733">
        <ele>560</ele>
        <time>2019-03-19T12:58:39Z</time>
      </trkpt>
      <trkpt lat="44.31379" lon="5.82725">
        <ele>560</ele>
        <time>2019-03-19T12:58:40Z</time>
      </trkpt>
      <trkpt lat="44.31378" lon="5.82719">
        <ele>560</ele>
        <time>2019-03-19T12:58:42Z</time>
      </trkpt>
      <trkpt lat="44.31377" lon="5.82712">
        <ele>560</ele>
        <time>2019-03-19T12:58:42Z</time>
      </trkpt>
      <trkpt lat="44.31377" lon="5.82706">
        <ele>560</ele>
        <time>2019-03-19T12:58:43Z</time>
      </trkpt>
      <trkpt lat="44.31377" lon="5.82701">
        <ele>560</ele>
        <time>2019-03-19T12:58:44Z</time>
      </trkpt>
      <trkpt lat="44.31375" lon="5.82696">
        <ele>560</ele>
        <time>2019-03-19T12:58:45Z</time>
      </trkpt>
      <trkpt lat="44.31373" lon="5.82691">
        <ele>560</ele>
        <time>2019-03-19T12:58:47Z</time>
      </trkpt>
      <trkpt lat="44.3137" lon="5.82688">
        <ele>560</ele>
        <time>2019-03-19T12:58:48Z</time>
      </trkpt>
      <trkpt lat="44.31367" lon="5.82685">
        <ele>560</ele>
        <time>2019-03-19T12:58:48Z</time>
      </trkpt>
      <trkpt lat="44.31363" lon="5.82683">
        <ele>560</ele>
        <time>2019-03-19T12:58:49Z</time>
      </trkpt>
      <trkpt lat="44.31359" lon="5.8268">
        <ele>560</ele>
        <time>2019-03-19T12:58:50Z</time>
      </trkpt>
      <trkpt lat="44.31355" lon="5.82678">
        <ele>560</ele>
        <time>2019-03-19T12:58:52Z</time>
      </trkpt>
      <trkpt lat="44.31351" lon="5.82675">
        <ele>560</ele>
        <time>2019-03-19T12:58:52Z</time>
      </trkpt>
      <trkpt lat="44.31347" lon="5.82673">
        <ele>560</ele>
        <time>2019-03-19T12:58:53Z</time>
      </trkpt>
      <trkpt lat="44.31342" lon="5.82671">
        <ele>560</ele>
        <time>2019-03-19T12:58:54Z</time>
      </trkpt>
      <trkpt lat="44.31337" lon="5.82669">
        <ele>560</ele>
        <time>2019-03-19T12:58:55Z</time>
      </trkpt>
      <trkpt lat="44.31333" lon="5.82667">
        <ele>560</ele>
        <time>2019-03-19T12:58:57Z</time>
      </trkpt>
      <trkpt lat="44.31328" lon="5.82664">
        <ele>560</ele>
        <time>2019-03-19T12:58:57Z</time>
      </trkpt>
      <trkpt lat="44.31323" lon="5.82661">
        <ele>560</ele>
        <time>2019-03-19T12:58:58Z</time>
      </trkpt>
      <trkpt lat="44.31318" lon="5.82658">
        <ele>560</ele>
        <time>2019-03-19T12:58:59Z</time>
      </trkpt>
      <trkpt lat="44.31312" lon="5.82654">
        <ele>560</ele>
        <time>2019-03-19T12:59:00Z</time>
      </trkpt>
      <trkpt lat="44.31305" lon="5.8265">
        <ele>560</ele>
        <time>2019-03-19T12:59:02Z</time>
      </trkpt>
      <trkpt lat="44.31298" lon="5.82645">
        <ele>559</ele>
        <time>2019-03-19T12:59:02Z</time>
      </trkpt>
      <trkpt lat="44.31291" lon="5.8264">
        <ele>558</ele>
        <time>2019-03-19T12:59:03Z</time>
      </trkpt>
      <trkpt lat="44.31284" lon="5.82635">
        <ele>558</ele>
        <time>2019-03-19T12:59:04Z</time>
      </trkpt>
      <trkpt lat="44.31276" lon="5.8263">
        <ele>557</ele>
        <time>2019-03-19T12:59:05Z</time>
      </trkpt>
      <trkpt lat="44.31268" lon="5.82625">
        <ele>556</ele>
        <time>2019-03-19T12:59:07Z</time>
      </trkpt>
      <trkpt lat="44.3126" lon="5.82621">
        <ele>556</ele>
        <time>2019-03-19T12:59:08Z</time>
      </trkpt>
      <trkpt lat="44.31252" lon="5.82616">
        <ele>555</ele>
        <time>2019-03-19T12:59:08Z</time>
      </trkpt>
      <trkpt lat="44.31244" lon="5.82612">
        <ele>555</ele>
        <time>2019-03-19T12:59:09Z</time>
      </trkpt>
      <trkpt lat="44.31237" lon="5.82607">
        <ele>554</ele>
        <time>2019-03-19T12:59:10Z</time>
      </trkpt>
      <trkpt lat="44.31229" lon="5.82603">
        <ele>554</ele>
        <time>2019-03-19T12:59:12Z</time>
      </trkpt>
      <trkpt lat="44.31221" lon="5.82598">
        <ele>554</ele>
        <time>2019-03-19T12:59:12Z</time>
      </trkpt>
      <trkpt lat="44.31214" lon="5.82594">
        <ele>554</ele>
        <time>2019-03-19T12:59:13Z</time>
      </trkpt>
      <trkpt lat="44.31207" lon="5.8259">
        <ele>554</ele>
        <time>2019-03-19T12:59:14Z</time>
      </trkpt>
      <trkpt lat="44.31201" lon="5.82587">
        <ele>554</ele>
        <time>2019-03-19T12:59:15Z</time>
      </trkpt>
      <trkpt lat="44.31194" lon="5.82583">
        <ele>554</ele>
        <time>2019-03-19T12:59:17Z</time>
      </trkpt>
      <trkpt lat="44.31188" lon="5.8258">
        <ele>554</ele>
        <time>2019-03-19T12:59:17Z</time>
      </trkpt>
      <trkpt lat="44.31182" lon="5.82576">
        <ele>554</ele>
        <time>2019-03-19T12:59:18Z</time>
      </trkpt>
      <trkpt lat="44.31176" lon="5.82573">
        <ele>553</ele>
        <time>2019-03-19T12:59:19Z</time>
      </trkpt>
      <trkpt lat="44.3117" lon="5.8257">
        <ele>553</ele>
        <time>2019-03-19T12:59:20Z</time>
      </trkpt>
      <trkpt lat="44.31164" lon="5.82567">
        <ele>553</ele>
        <time>2019-03-19T12:59:21Z</time>
      </trkpt>
      <trkpt lat="44.31158" lon="5.82564">
        <ele>553</ele>
        <time>2019-03-19T12:59:22Z</time>
      </trkpt>
      <trkpt lat="44.31153" lon="5.8256">
        <ele>553</ele>
        <time>2019-03-19T12:59:23Z</time>
      </trkpt>
      <trkpt lat="44.31148" lon="5.82557">
        <ele>553</ele>
        <time>2019-03-19T12:59:24Z</time>
      </trkpt>
      <trkpt lat="44.31142" lon="5.82554">
        <ele>553</ele>
        <time>2019-03-19T12:59:25Z</time>
      </trkpt>
      <trkpt lat="44.31137" lon="5.82551">
        <ele>553</ele>
        <time>2019-03-19T12:59:27Z</time>
      </trkpt>
      <trkpt lat="44.31131" lon="5.82548">
        <ele>553</ele>
        <time>2019-03-19T12:59:27Z</time>
      </trkpt>
      <trkpt lat="44.31126" lon="5.82545">
        <ele>553</ele>
        <time>2019-03-19T12:59:28Z</time>
      </trkpt>
      <trkpt lat="44.31121" lon="5.82542">
        <ele>553</ele>
        <time>2019-03-19T12:59:29Z</time>
      </trkpt>
      <trkpt lat="44.31115" lon="5.82539">
        <ele>553</ele>
        <time>2019-03-19T12:59:30Z</time>
      </trkpt>
      <trkpt lat="44.3111" lon="5.82537">
        <ele>553</ele>
        <time>2019-03-19T12:59:31Z</time>
      </trkpt>
      <trkpt lat="44.31105" lon="5.82534">
        <ele>553</ele>
        <time>2019-03-19T12:59:32Z</time>
      </trkpt>
      <trkpt lat="44.311" lon="5.82531">
        <ele>553</ele>
        <time>2019-03-19T12:59:33Z</time>
      </trkpt>
      <trkpt lat="44.31095" lon="5.82528">
        <ele>553</ele>
        <time>2019-03-19T12:59:34Z</time>
      </trkpt>
      <trkpt lat="44.3109" lon="5.82525">
        <ele>553</ele>
        <time>2019-03-19T12:59:35Z</time>
      </trkpt>
      <trkpt lat="44.31086" lon="5.82521">
        <ele>553</ele>
        <time>2019-03-19T12:59:37Z</time>
      </trkpt>
      <trkpt lat="44.31081" lon="5.82516">
        <ele>553</ele>
        <time>2019-03-19T12:59:37Z</time>
      </trkpt>
      <trkpt lat="44.31078" lon="5.82511">
        <ele>553</ele>
        <time>2019-03-19T12:59:38Z</time>
      </trkpt>
      <trkpt lat="44.31076" lon="5.82505">
        <ele>553</ele>
        <time>2019-03-19T12:59:39Z</time>
      </trkpt>
      <trkpt lat="44.31076" lon="5.82498">
        <ele>553</ele>
        <time>2019-03-19T12:59:40Z</time>
      </trkpt>
      <trkpt lat="44.31076" lon="5.82491">
        <ele>553</ele>
        <time>2019-03-19T12:59:42Z</time>
      </trkpt>
      <trkpt lat="44.31076" lon="5.82484">
        <ele>553</ele>
        <time>2019-03-19T12:59:42Z</time>
      </trkpt>
      <trkpt lat="44.31078" lon="5.82478">
        <ele>553</ele>
        <time>2019-03-19T12:59:43Z</time>
      </trkpt>
      <trkpt lat="44.31081" lon="5.82472">
        <ele>553</ele>
        <time>2019-03-19T12:59:44Z</time>
      </trkpt>
      <trkpt lat="44.31083" lon="5.82466">
        <ele>553</ele>
        <time>2019-03-19T12:59:45Z</time>
      </trkpt>
      <trkpt lat="44.31085" lon="5.8246">
        <ele>553</ele>
        <time>2019-03-19T12:59:47Z</time>
      </trkpt>
      <trkpt lat="44.31087" lon="5.82455">
        <ele>553</ele>
        <time>2019-03-19T12:59:48Z</time>
      </trkpt>
      <trkpt lat="44.31089" lon="5.8245">
        <ele>553</ele>
        <time>2019-03-19T12:59:48Z</time>
      </trkpt>
      <trkpt lat="44.31091" lon="5.82445">
        <ele>554</ele>
        <time>2019-03-19T12:59:49Z</time>
      </trkpt>
      <trkpt lat="44.31093" lon="5.82441">
        <ele>554</ele>
        <time>2019-03-19T12:59:50Z</time>
      </trkpt>
      <trkpt lat="44.31095" lon="5.82436">
        <ele>554</ele>
        <time>2019-03-19T12:59:51Z</time>
      </trkpt>
      <trkpt lat="44.31097" lon="5.82431">
        <ele>555</ele>
        <time>2019-03-19T12:59:52Z</time>
      </trkpt>
      <trkpt lat="44.31099" lon="5.82426">
        <ele>556</ele>
        <time>2019-03-19T12:59:53Z</time>
      </trkpt>
      <trkpt lat="44.31102" lon="5.82419">
        <ele>556</ele>
        <time>2019-03-19T12:59:54Z</time>
      </trkpt>
      <trkpt lat="44.31105" lon="5.82412">
        <ele>557</ele>
        <time>2019-03-19T12:59:55Z</time>
      </trkpt>
      <trkpt lat="44.31107" lon="5.82404">
        <ele>557</ele>
        <time>2019-03-19T12:59:56Z</time>
      </trkpt>
      <trkpt lat="44.31109" lon="5.82396">
        <ele>557</ele>
        <time>2019-03-19T12:59:57Z</time>
      </trkpt>
      <trkpt lat="44.31109" lon="5.82387">
        <ele>557</ele>
        <time>2019-03-19T12:59:59Z</time>
      </trkpt>
      <trkpt lat="44.31109" lon="5.82379">
        <ele>557</ele>
        <time>2019-03-19T12:59:59Z</time>
      </trkpt>
      <trkpt lat="44.3111" lon="5.82371">
        <ele>557</ele>
        <time>2019-03-19T13:00:00Z</time>
      </trkpt>
      <trkpt lat="44.31111" lon="5.82363">
        <ele>557</ele>
        <time>2019-03-19T13:00:01Z</time>
      </trkpt>
      <trkpt lat="44.31113" lon="5.82356">
        <ele>557</ele>
        <time>2019-03-19T13:00:02Z</time>
      </trkpt>
      <trkpt lat="44.31117" lon="5.82349">
        <ele>557</ele>
        <time>2019-03-19T13:00:03Z</time>
      </trkpt>
      <trkpt lat="44.31121" lon="5.82343">
        <ele>557</ele>
        <time>2019-03-19T13:00:04Z</time>
      </trkpt>
      <trkpt lat="44.31125" lon="5.82337">
        <ele>557</ele>
        <time>2019-03-19T13:00:05Z</time>
      </trkpt>
      <trkpt lat="44.31128" lon="5.82331">
        <ele>557</ele>
        <time>2019-03-19T13:00:06Z</time>
      </trkpt>
      <trkpt lat="44.31132" lon="5.82325">
        <ele>557</ele>
        <time>2019-03-19T13:00:07Z</time>
      </trkpt>
      <trkpt lat="44.31136" lon="5.8232">
        <ele>557</ele>
        <time>2019-03-19T13:00:08Z</time>
      </trkpt>
      <trkpt lat="44.31139" lon="5.82315">
        <ele>557</ele>
        <time>2019-03-19T13:00:09Z</time>
      </trkpt>
      <trkpt lat="44.31142" lon="5.8231">
        <ele>557</ele>
        <time>2019-03-19T13:00:10Z</time>
      </trkpt>
      <trkpt lat="44.31145" lon="5.82305">
        <ele>557</ele>
        <time>2019-03-19T13:00:11Z</time>
      </trkpt>
      <trkpt lat="44.31148" lon="5.82301">
        <ele>557</ele>
        <time>2019-03-19T13:00:12Z</time>
      </trkpt>
      <trkpt lat="44.31149" lon="5.82297">
        <ele>557</ele>
        <time>2019-03-19T13:00:13Z</time>
      </trkpt>
      <trkpt lat="44.3115" lon="5.82293">
        <ele>557</ele>
        <time>2019-03-19T13:00:14Z</time>
      </trkpt>
      <trkpt lat="44.3115" lon="5.8229">
        <ele>557</ele>
        <time>2019-03-19T13:00:15Z</time>
      </trkpt>
      <trkpt lat="44.3115" lon="5.82288">
        <ele>557</ele>
        <time>2019-03-19T13:00:16Z</time>
      </trkpt>
      <trkpt lat="44.3115" lon="5.82286">
        <ele>557</ele>
        <time>2019-03-19T13:00:17Z</time>
      </trkpt>
      <trkpt lat="44.31149" lon="5.82284">
        <ele>557</ele>
        <time>2019-03-19T13:00:25Z</time>
      </trkpt>
      <trkpt lat="44.3115" lon="5.82285">
        <ele>557</ele>
        <time>2019-03-19T13:00:29Z</time>
      </trkpt>
      <trkpt lat="44.31149" lon="5.82285">
        <ele>563</ele>
        <time>2019-03-19T13:00:42Z</time>
      </trkpt>
      <trkpt lat="44.31147" lon="5.82282">
        <ele>573</ele>
        <time>2019-03-19T13:00:53Z</time>
      </trkpt>
      <trkpt lat="44.31148" lon="5.82283">
        <ele>573</ele>
        <time>2019-03-19T13:00:55Z</time>
      </trkpt>
      <trkpt lat="44.31149" lon="5.82281">
        <ele>566</ele>
        <time>2019-03-19T13:01:08Z</time>
      </trkpt>
      <trkpt lat="44.31149" lon="5.8228">
        <ele>564</ele>
        <time>2019-03-19T13:01:13Z</time>
      </trkpt>
      <trkpt lat="44.3115" lon="5.8228">
        <ele>563</ele>
        <time>2019-03-19T13:01:23Z</time>
      </trkpt>
      <trkpt lat="44.3115" lon="5.82278">
        <ele>563</ele>
        <time>2019-03-19T13:01:26Z</time>
      </trkpt>
      <trkpt lat="44.31151" lon="5.82277">
        <ele>563</ele>
        <time>2019-03-19T13:01:29Z</time>
      </trkpt>
      <trkpt lat="44.31151" lon="5.82274">
        <ele>563</ele>
        <time>2019-03-19T13:01:31Z</time>
      </trkpt>
      <trkpt lat="44.3115" lon="5.82272">
        <ele>563</ele>
        <time>2019-03-19T13:01:32Z</time>
      </trkpt>
      <trkpt lat="44.31149" lon="5.8227">
        <ele>563</ele>
        <time>2019-03-19T13:01:33Z</time>
      </trkpt>
      <trkpt lat="44.31147" lon="5.82267">
        <ele>563</ele>
        <time>2019-03-19T13:01:34Z</time>
      </trkpt>
      <trkpt lat="44.31145" lon="5.82265">
        <ele>563</ele>
        <time>2019-03-19T13:01:35Z</time>
      </trkpt>
      <trkpt lat="44.31143" lon="5.82262">
        <ele>562</ele>
        <time>2019-03-19T13:01:36Z</time>
      </trkpt>
      <trkpt lat="44.31141" lon="5.82259">
        <ele>562</ele>
        <time>2019-03-19T13:01:37Z</time>
      </trkpt>
      <trkpt lat="44.31139" lon="5.82256">
        <ele>562</ele>
        <time>2019-03-19T13:01:38Z</time>
      </trkpt>
      <trkpt lat="44.31136" lon="5.82253">
        <ele>562</ele>
        <time>2019-03-19T13:01:39Z</time>
      </trkpt>
      <trkpt lat="44.31133" lon="5.8225">
        <ele>562</ele>
        <time>2019-03-19T13:01:40Z</time>
      </trkpt>
      <trkpt lat="44.3113" lon="5.82247">
        <ele>562</ele>
        <time>2019-03-19T13:01:41Z</time>
      </trkpt>
      <trkpt lat="44.31127" lon="5.82244">
        <ele>562</ele>
        <time>2019-03-19T13:01:42Z</time>
      </trkpt>
      <trkpt lat="44.31124" lon="5.8224">
        <ele>562</ele>
        <time>2019-03-19T13:01:43Z</time>
      </trkpt>
      <trkpt lat="44.31122" lon="5.82237">
        <ele>562</ele>
        <time>2019-03-19T13:01:44Z</time>
      </trkpt>
      <trkpt lat="44.31118" lon="5.82233">
        <ele>562</ele>
        <time>2019-03-19T13:01:45Z</time>
      </trkpt>
      <trkpt lat="44.31115" lon="5.82229">
        <ele>562</ele>
        <time>2019-03-19T13:01:46Z</time>
      </trkpt>
      <trkpt lat="44.31113" lon="5.82225">
        <ele>562</ele>
        <time>2019-03-19T13:01:48Z</time>
      </trkpt>
      <trkpt lat="44.31109" lon="5.82221">
        <ele>562</ele>
        <time>2019-03-19T13:01:48Z</time>
      </trkpt>
      <trkpt lat="44.31106" lon="5.82218">
        <ele>562</ele>
        <time>2019-03-19T13:01:49Z</time>
      </trkpt>
      <trkpt lat="44.31103" lon="5.82214">
        <ele>562</ele>
        <time>2019-03-19T13:01:50Z</time>
      </trkpt>
      <trkpt lat="44.311" lon="5.8221">
        <ele>562</ele>
        <time>2019-03-19T13:01:51Z</time>
      </trkpt>
      <trkpt lat="44.31097" lon="5.82207">
        <ele>562</ele>
        <time>2019-03-19T13:01:52Z</time>
      </trkpt>
      <trkpt lat="44.31094" lon="5.82203">
        <ele>562</ele>
        <time>2019-03-19T13:01:53Z</time>
      </trkpt>
      <trkpt lat="44.31091" lon="5.822">
        <ele>562</ele>
        <time>2019-03-19T13:01:54Z</time>
      </trkpt>
      <trkpt lat="44.31088" lon="5.82196">
        <ele>562</ele>
        <time>2019-03-19T13:01:55Z</time>
      </trkpt>
      <trkpt lat="44.31085" lon="5.82193">
        <ele>562</ele>
        <time>2019-03-19T13:01:56Z</time>
      </trkpt>
      <trkpt lat="44.31082" lon="5.82188">
        <ele>562</ele>
        <time>2019-03-19T13:01:57Z</time>
      </trkpt>
      <trkpt lat="44.31079" lon="5.82185">
        <ele>562</ele>
        <time>2019-03-19T13:01:58Z</time>
      </trkpt>
      <trkpt lat="44.31076" lon="5.82181">
        <ele>562</ele>
        <time>2019-03-19T13:01:59Z</time>
      </trkpt>
      <trkpt lat="44.31073" lon="5.82177">
        <ele>562</ele>
        <time>2019-03-19T13:02:00Z</time>
      </trkpt>
      <trkpt lat="44.3107" lon="5.82173">
        <ele>562</ele>
        <time>2019-03-19T13:02:01Z</time>
      </trkpt>
      <trkpt lat="44.31067" lon="5.82169">
        <ele>562</ele>
        <time>2019-03-19T13:02:02Z</time>
      </trkpt>
      <trkpt lat="44.31065" lon="5.82164">
        <ele>562</ele>
        <time>2019-03-19T13:02:03Z</time>
      </trkpt>
      <trkpt lat="44.31062" lon="5.8216">
        <ele>562</ele>
        <time>2019-03-19T13:02:04Z</time>
      </trkpt>
      <trkpt lat="44.31059" lon="5.82155">
        <ele>562</ele>
        <time>2019-03-19T13:02:05Z</time>
      </trkpt>
      <trkpt lat="44.31056" lon="5.82151">
        <ele>562</ele>
        <time>2019-03-19T13:02:06Z</time>
      </trkpt>
      <trkpt lat="44.31052" lon="5.82147">
        <ele>562</ele>
        <time>2019-03-19T13:02:08Z</time>
      </trkpt>
      <trkpt lat="44.31049" lon="5.82143">
        <ele>562</ele>
        <time>2019-03-19T13:02:08Z</time>
      </trkpt>
      <trkpt lat="44.31046" lon="5.82139">
        <ele>562</ele>
        <time>2019-03-19T13:02:09Z</time>
      </trkpt>
      <trkpt lat="44.31042" lon="5.82135">
        <ele>562</ele>
        <time>2019-03-19T13:02:10Z</time>
      </trkpt>
      <trkpt lat="44.3104" lon="5.82131">
        <ele>562</ele>
        <time>2019-03-19T13:02:11Z</time>
      </trkpt>
      <trkpt lat="44.31037" lon="5.82127">
        <ele>562</ele>
        <time>2019-03-19T13:02:12Z</time>
      </trkpt>
      <trkpt lat="44.31034" lon="5.82123">
        <ele>562</ele>
        <time>2019-03-19T13:02:13Z</time>
      </trkpt>
      <trkpt lat="44.31031" lon="5.82118">
        <ele>562</ele>
        <time>2019-03-19T13:02:14Z</time>
      </trkpt>
      <trkpt lat="44.31028" lon="5.82114">
        <ele>562</ele>
        <time>2019-03-19T13:02:15Z</time>
      </trkpt>
      <trkpt lat="44.31025" lon="5.82109">
        <ele>562</ele>
        <time>2019-03-19T13:02:16Z</time>
      </trkpt>
      <trkpt lat="44.31021" lon="5.82105">
        <ele>562</ele>
        <time>2019-03-19T13:02:17Z</time>
      </trkpt>
      <trkpt lat="44.31018" lon="5.82101">
        <ele>562</ele>
        <time>2019-03-19T13:02:18Z</time>
      </trkpt>
      <trkpt lat="44.31015" lon="5.82097">
        <ele>562</ele>
        <time>2019-03-19T13:02:19Z</time>
      </trkpt>
      <trkpt lat="44.31012" lon="5.82093">
        <ele>562</ele>
        <time>2019-03-19T13:02:20Z</time>
      </trkpt>
      <trkpt lat="44.31008" lon="5.82089">
        <ele>562</ele>
        <time>2019-03-19T13:02:21Z</time>
      </trkpt>
      <trkpt lat="44.31005" lon="5.82085">
        <ele>562</ele>
        <time>2019-03-19T13:02:22Z</time>
      </trkpt>
      <trkpt lat="44.31001" lon="5.82081">
        <ele>562</ele>
        <time>2019-03-19T13:02:23Z</time>
      </trkpt>
      <trkpt lat="44.30998" lon="5.82077">
        <ele>562</ele>
        <time>2019-03-19T13:02:24Z</time>
      </trkpt>
      <trkpt lat="44.30994" lon="5.82073">
        <ele>562</ele>
        <time>2019-03-19T13:02:25Z</time>
      </trkpt>
      <trkpt lat="44.30991" lon="5.82069">
        <ele>562</ele>
        <time>2019-03-19T13:02:26Z</time>
      </trkpt>
      <trkpt lat="44.30987" lon="5.82066">
        <ele>562</ele>
        <time>2019-03-19T13:02:27Z</time>
      </trkpt>
      <trkpt lat="44.30983" lon="5.82062">
        <ele>562</ele>
        <time>2019-03-19T13:02:28Z</time>
      </trkpt>
      <trkpt lat="44.30979" lon="5.82059">
        <ele>562</ele>
        <time>2019-03-19T13:02:29Z</time>
      </trkpt>
      <trkpt lat="44.30975" lon="5.82056">
        <ele>562</ele>
        <time>2019-03-19T13:02:30Z</time>
      </trkpt>
      <trkpt lat="44.30971" lon="5.82053">
        <ele>562</ele>
        <time>2019-03-19T13:02:31Z</time>
      </trkpt>
      <trkpt lat="44.30967" lon="5.8205">
        <ele>562</ele>
        <time>2019-03-19T13:02:32Z</time>
      </trkpt>
      <trkpt lat="44.30963" lon="5.82048">
        <ele>561</ele>
        <time>2019-03-19T13:02:33Z</time>
      </trkpt>
      <trkpt lat="44.30959" lon="5.82045">
        <ele>561</ele>
        <time>2019-03-19T13:02:34Z</time>
      </trkpt>
      <trkpt lat="44.30954" lon="5.82043">
        <ele>561</ele>
        <time>2019-03-19T13:02:35Z</time>
      </trkpt>
      <trkpt lat="44.3095" lon="5.82041">
        <ele>561</ele>
        <time>2019-03-19T13:02:36Z</time>
      </trkpt>
      <trkpt lat="44.30946" lon="5.82039">
        <ele>561</ele>
        <time>2019-03-19T13:02:37Z</time>
      </trkpt>
      <trkpt lat="44.30941" lon="5.82037">
        <ele>561</ele>
        <time>2019-03-19T13:02:38Z</time>
      </trkpt>
      <trkpt lat="44.30936" lon="5.82036">
        <ele>561</ele>
        <time>2019-03-19T13:02:39Z</time>
      </trkpt>
      <trkpt lat="44.30932" lon="5.82035">
        <ele>560</ele>
        <time>2019-03-19T13:02:40Z</time>
      </trkpt>
      <trkpt lat="44.30928" lon="5.82035">
        <ele>560</ele>
        <time>2019-03-19T13:02:41Z</time>
      </trkpt>
      <trkpt lat="44.30923" lon="5.82035">
        <ele>560</ele>
        <time>2019-03-19T13:02:42Z</time>
      </trkpt>
      <trkpt lat="44.30919" lon="5.82035">
        <ele>560</ele>
        <time>2019-03-19T13:02:43Z</time>
      </trkpt>
      <trkpt lat="44.30915" lon="5.82035">
        <ele>559</ele>
        <time>2019-03-19T13:02:44Z</time>
      </trkpt>
      <trkpt lat="44.30911" lon="5.82035">
        <ele>559</ele>
        <time>2019-03-19T13:02:45Z</time>
      </trkpt>
      <trkpt lat="44.30907" lon="5.82036">
        <ele>559</ele>
        <time>2019-03-19T13:02:46Z</time>
      </trkpt>
      <trkpt lat="44.30903" lon="5.82037">
        <ele>558</ele>
        <time>2019-03-19T13:02:48Z</time>
      </trkpt>
      <trkpt lat="44.30899" lon="5.82038">
        <ele>558</ele>
        <time>2019-03-19T13:02:48Z</time>
      </trkpt>
      <trkpt lat="44.30895" lon="5.82039">
        <ele>558</ele>
        <time>2019-03-19T13:02:49Z</time>
      </trkpt>
      <trkpt lat="44.30891" lon="5.82041">
        <ele>558</ele>
        <time>2019-03-19T13:02:50Z</time>
      </trkpt>
      <trkpt lat="44.30887" lon="5.82042">
        <ele>557</ele>
        <time>2019-03-19T13:02:51Z</time>
      </trkpt>
      <trkpt lat="44.30883" lon="5.82044">
        <ele>557</ele>
        <time>2019-03-19T13:02:52Z</time>
      </trkpt>
      <trkpt lat="44.3088" lon="5.82045">
        <ele>557</ele>
        <time>2019-03-19T13:02:53Z</time>
      </trkpt>
      <trkpt lat="44.30876" lon="5.82046">
        <ele>557</ele>
        <time>2019-03-19T13:02:54Z</time>
      </trkpt>
      <trkpt lat="44.30872" lon="5.82048">
        <ele>557</ele>
        <time>2019-03-19T13:02:55Z</time>
      </trkpt>
      <trkpt lat="44.30868" lon="5.82049">
        <ele>557</ele>
        <time>2019-03-19T13:02:56Z</time>
      </trkpt>
      <trkpt lat="44.30864" lon="5.8205">
        <ele>557</ele>
        <time>2019-03-19T13:02:57Z</time>
      </trkpt>
      <trkpt lat="44.30861" lon="5.82052">
        <ele>556</ele>
        <time>2019-03-19T13:02:58Z</time>
      </trkpt>
      <trkpt lat="44.30857" lon="5.82053">
        <ele>556</ele>
        <time>2019-03-19T13:02:59Z</time>
      </trkpt>
      <trkpt lat="44.30853" lon="5.82053">
        <ele>556</ele>
        <time>2019-03-19T13:03:00Z</time>
      </trkpt>
      <trkpt lat="44.30849" lon="5.82054">
        <ele>555</ele>
        <time>2019-03-19T13:03:01Z</time>
      </trkpt>
      <trkpt lat="44.30846" lon="5.82055">
        <ele>555</ele>
        <time>2019-03-19T13:03:02Z</time>
      </trkpt>
      <trkpt lat="44.30842" lon="5.82056">
        <ele>555</ele>
        <time>2019-03-19T13:03:03Z</time>
      </trkpt>
      <trkpt lat="44.30838" lon="5.82057">
        <ele>554</ele>
        <time>2019-03-19T13:03:04Z</time>
      </trkpt>
      <trkpt lat="44.30834" lon="5.82058">
        <ele>554</ele>
        <time>2019-03-19T13:03:05Z</time>
      </trkpt>
      <trkpt lat="44.3083" lon="5.82058">
        <ele>554</ele>
        <time>2019-03-19T13:03:06Z</time>
      </trkpt>
      <trkpt lat="44.30826" lon="5.82059">
        <ele>553</ele>
        <time>2019-03-19T13:03:07Z</time>
      </trkpt>
      <trkpt lat="44.30822" lon="5.8206">
        <ele>553</ele>
        <time>2019-03-19T13:03:08Z</time>
      </trkpt>
      <trkpt lat="44.30817" lon="5.82061">
        <ele>553</ele>
        <time>2019-03-19T13:03:09Z</time>
      </trkpt>
      <trkpt lat="44.30813" lon="5.82062">
        <ele>552</ele>
        <time>2019-03-19T13:03:10Z</time>
      </trkpt>
      <trkpt lat="44.30809" lon="5.82062">
        <ele>552</ele>
        <time>2019-03-19T13:03:11Z</time>
      </trkpt>
      <trkpt lat="44.30805" lon="5.82063">
        <ele>552</ele>
        <time>2019-03-19T13:03:12Z</time>
      </trkpt>
      <trkpt lat="44.30801" lon="5.82064">
        <ele>551</ele>
        <time>2019-03-19T13:03:13Z</time>
      </trkpt>
      <trkpt lat="44.30796" lon="5.82065">
        <ele>551</ele>
        <time>2019-03-19T13:03:14Z</time>
      </trkpt>
      <trkpt lat="44.30791" lon="5.82066">
        <ele>551</ele>
        <time>2019-03-19T13:03:15Z</time>
      </trkpt>
      <trkpt lat="44.30787" lon="5.82067">
        <ele>551</ele>
        <time>2019-03-19T13:03:16Z</time>
      </trkpt>
      <trkpt lat="44.30782" lon="5.82069">
        <ele>551</ele>
        <time>2019-03-19T13:03:17Z</time>
      </trkpt>
      <trkpt lat="44.30778" lon="5.8207">
        <ele>551</ele>
        <time>2019-03-19T13:03:18Z</time>
      </trkpt>
      <trkpt lat="44.30774" lon="5.82072">
        <ele>550</ele>
        <time>2019-03-19T13:03:19Z</time>
      </trkpt>
      <trkpt lat="44.30769" lon="5.82074">
        <ele>550</ele>
        <time>2019-03-19T13:03:20Z</time>
      </trkpt>
      <trkpt lat="44.30766" lon="5.82077">
        <ele>550</ele>
        <time>2019-03-19T13:03:21Z</time>
      </trkpt>
      <trkpt lat="44.30762" lon="5.82081">
        <ele>550</ele>
        <time>2019-03-19T13:03:22Z</time>
      </trkpt>
      <trkpt lat="44.30758" lon="5.82085">
        <ele>550</ele>
        <time>2019-03-19T13:03:23Z</time>
      </trkpt>
      <trkpt lat="44.30755" lon="5.82089">
        <ele>550</ele>
        <time>2019-03-19T13:03:24Z</time>
      </trkpt>
      <trkpt lat="44.30752" lon="5.82094">
        <ele>550</ele>
        <time>2019-03-19T13:03:25Z</time>
      </trkpt>
      <trkpt lat="44.30749" lon="5.82099">
        <ele>550</ele>
        <time>2019-03-19T13:03:26Z</time>
      </trkpt>
      <trkpt lat="44.30746" lon="5.82104">
        <ele>550</ele>
        <time>2019-03-19T13:03:27Z</time>
      </trkpt>
      <trkpt lat="44.30744" lon="5.8211">
        <ele>550</ele>
        <time>2019-03-19T13:03:28Z</time>
      </trkpt>
      <trkpt lat="44.30741" lon="5.82116">
        <ele>550</ele>
        <time>2019-03-19T13:03:29Z</time>
      </trkpt>
      <trkpt lat="44.30739" lon="5.82122">
        <ele>550</ele>
        <time>2019-03-19T13:03:30Z</time>
      </trkpt>
      <trkpt lat="44.30737" lon="5.82128">
        <ele>550</ele>
        <time>2019-03-19T13:03:31Z</time>
      </trkpt>
      <trkpt lat="44.30735" lon="5.82134">
        <ele>550</ele>
        <time>2019-03-19T13:03:32Z</time>
      </trkpt>
      <trkpt lat="44.30732" lon="5.8214">
        <ele>550</ele>
        <time>2019-03-19T13:03:33Z</time>
      </trkpt>
      <trkpt lat="44.3073" lon="5.82146">
        <ele>550</ele>
        <time>2019-03-19T13:03:34Z</time>
      </trkpt>
      <trkpt lat="44.30728" lon="5.82152">
        <ele>550</ele>
        <time>2019-03-19T13:03:35Z</time>
      </trkpt>
      <trkpt lat="44.30726" lon="5.82158">
        <ele>550</ele>
        <time>2019-03-19T13:03:36Z</time>
      </trkpt>
      <trkpt lat="44.30724" lon="5.82163">
        <ele>550</ele>
        <time>2019-03-19T13:03:37Z</time>
      </trkpt>
      <trkpt lat="44.30722" lon="5.82169">
        <ele>550</ele>
        <time>2019-03-19T13:03:38Z</time>
      </trkpt>
      <trkpt lat="44.30719" lon="5.82174">
        <ele>550</ele>
        <time>2019-03-19T13:03:39Z</time>
      </trkpt>
      <trkpt lat="44.30717" lon="5.82179">
        <ele>550</ele>
        <time>2019-03-19T13:03:40Z</time>
      </trkpt>
      <trkpt lat="44.30715" lon="5.82184">
        <ele>550</ele>
        <time>2019-03-19T13:03:41Z</time>
      </trkpt>
      <trkpt lat="44.30713" lon="5.82189">
        <ele>550</ele>
        <time>2019-03-19T13:03:42Z</time>
      </trkpt>
      <trkpt lat="44.30711" lon="5.82194">
        <ele>550</ele>
        <time>2019-03-19T13:03:43Z</time>
      </trkpt>
      <trkpt lat="44.30708" lon="5.82198">
        <ele>550</ele>
        <time>2019-03-19T13:03:44Z</time>
      </trkpt>
      <trkpt lat="44.30706" lon="5.82203">
        <ele>550</ele>
        <time>2019-03-19T13:03:45Z</time>
      </trkpt>
      <trkpt lat="44.30704" lon="5.82207">
        <ele>550</ele>
        <time>2019-03-19T13:03:46Z</time>
      </trkpt>
      <trkpt lat="44.30702" lon="5.82211">
        <ele>550</ele>
        <time>2019-03-19T13:03:48Z</time>
      </trkpt>
      <trkpt lat="44.307" lon="5.82215">
        <ele>550</ele>
        <time>2019-03-19T13:03:48Z</time>
      </trkpt>
      <trkpt lat="44.30698" lon="5.82218">
        <ele>550</ele>
        <time>2019-03-19T13:03:49Z</time>
      </trkpt>
      <trkpt lat="44.30695" lon="5.82221">
        <ele>550</ele>
        <time>2019-03-19T13:03:50Z</time>
      </trkpt>
      <trkpt lat="44.30692" lon="5.82223">
        <ele>550</ele>
        <time>2019-03-19T13:03:51Z</time>
      </trkpt>
      <trkpt lat="44.30689" lon="5.82222">
        <ele>550</ele>
        <time>2019-03-19T13:03:52Z</time>
      </trkpt>
      <trkpt lat="44.30687" lon="5.82219">
        <ele>550</ele>
        <time>2019-03-19T13:03:53Z</time>
      </trkpt>
      <trkpt lat="44.30687" lon="5.82216">
        <ele>550</ele>
        <time>2019-03-19T13:03:54Z</time>
      </trkpt>
      <trkpt lat="44.30688" lon="5.82211">
        <ele>550</ele>
        <time>2019-03-19T13:03:55Z</time>
      </trkpt>
      <trkpt lat="44.30689" lon="5.82208">
        <ele>550</ele>
        <time>2019-03-19T13:03:56Z</time>
      </trkpt>
      <trkpt lat="44.30691" lon="5.82204">
        <ele>550</ele>
        <time>2019-03-19T13:03:57Z</time>
      </trkpt>
      <trkpt lat="44.30693" lon="5.82201">
        <ele>550</ele>
        <time>2019-03-19T13:03:58Z</time>
      </trkpt>
      <trkpt lat="44.30695" lon="5.82198">
        <ele>550</ele>
        <time>2019-03-19T13:03:59Z</time>
      </trkpt>
      <trkpt lat="44.30697" lon="5.82195">
        <ele>550</ele>
        <time>2019-03-19T13:04:00Z</time>
      </trkpt>
      <trkpt lat="44.30698" lon="5.82192">
        <ele>550</ele>
        <time>2019-03-19T13:04:01Z</time>
      </trkpt>
      <trkpt lat="44.307" lon="5.82189">
        <ele>550</ele>
        <time>2019-03-19T13:04:02Z</time>
      </trkpt>
      <trkpt lat="44.30702" lon="5.82186">
        <ele>551</ele>
        <time>2019-03-19T13:04:03Z</time>
      </trkpt>
      <trkpt lat="44.30704" lon="5.82182">
        <ele>551</ele>
        <time>2019-03-19T13:04:04Z</time>
      </trkpt>
      <trkpt lat="44.30706" lon="5.82178">
        <ele>551</ele>
        <time>2019-03-19T13:04:05Z</time>
      </trkpt>
      <trkpt lat="44.30707" lon="5.82175">
        <ele>552</ele>
        <time>2019-03-19T13:04:06Z</time>
      </trkpt>
      <trkpt lat="44.30708" lon="5.82171">
        <ele>552</ele>
        <time>2019-03-19T13:04:07Z</time>
      </trkpt>
      <trkpt lat="44.3071" lon="5.82167">
        <ele>552</ele>
        <time>2019-03-19T13:04:08Z</time>
      </trkpt>
      <trkpt lat="44.30711" lon="5.82163">
        <ele>553</ele>
        <time>2019-03-19T13:04:09Z</time>
      </trkpt>
      <trkpt lat="44.30712" lon="5.82159">
        <ele>553</ele>
        <time>2019-03-19T13:04:10Z</time>
      </trkpt>
      <trkpt lat="44.30714" lon="5.82155">
        <ele>553</ele>
        <time>2019-03-19T13:04:11Z</time>
      </trkpt>
      <trkpt lat="44.30715" lon="5.82151">
        <ele>553</ele>
        <time>2019-03-19T13:04:12Z</time>
      </trkpt>
      <trkpt lat="44.30716" lon="5.82148">
        <ele>554</ele>
        <time>2019-03-19T13:04:13Z</time>
      </trkpt>
      <trkpt lat="44.30716" lon="5.82144">
        <ele>554</ele>
        <time>2019-03-19T13:04:14Z</time>
      </trkpt>
      <trkpt lat="44.30717" lon="5.8214">
        <ele>554</ele>
        <time>2019-03-19T13:04:15Z</time>
      </trkpt>
      <trkpt lat="44.30717" lon="5.82136">
        <ele>555</ele>
        <time>2019-03-19T13:04:16Z</time>
      </trkpt>
      <trkpt lat="44.30718" lon="5.82132">
        <ele>555</ele>
        <time>2019-03-19T13:04:17Z</time>
      </trkpt>
      <trkpt lat="44.30718" lon="5.82129">
        <ele>555</ele>
        <time>2019-03-19T13:04:18Z</time>
      </trkpt>
      <trkpt lat="44.30719" lon="5.82125">
        <ele>556</ele>
        <time>2019-03-19T13:04:19Z</time>
      </trkpt>
      <trkpt lat="44.30719" lon="5.82121">
        <ele>556</ele>
        <time>2019-03-19T13:04:20Z</time>
      </trkpt>
      <trkpt lat="44.30719" lon="5.82117">
        <ele>556</ele>
        <time>2019-03-19T13:04:21Z</time>
      </trkpt>
      <trkpt lat="44.30719" lon="5.82114">
        <ele>556</ele>
        <time>2019-03-19T13:04:22Z</time>
      </trkpt>
      <trkpt lat="44.30719" lon="5.8211">
        <ele>557</ele>
        <time>2019-03-19T13:04:23Z</time>
      </trkpt>
      <trkpt lat="44.30718" lon="5.82107">
        <ele>557</ele>
        <time>2019-03-19T13:04:24Z</time>
      </trkpt>
      <trkpt lat="44.30718" lon="5.82103">
        <ele>557</ele>
        <time>2019-03-19T13:04:25Z</time>
      </trkpt>
      <trkpt lat="44.30717" lon="5.82099">
        <ele>557</ele>
        <time>2019-03-19T13:04:26Z</time>
      </trkpt>
      <trkpt lat="44.30717" lon="5.82095">
        <ele>557</ele>
        <time>2019-03-19T13:04:27Z</time>
      </trkpt>
      <trkpt lat="44.30716" lon="5.82091">
        <ele>558</ele>
        <time>2019-03-19T13:04:28Z</time>
      </trkpt>
      <trkpt lat="44.30715" lon="5.82087">
        <ele>558</ele>
        <time>2019-03-19T13:04:29Z</time>
      </trkpt>
      <trkpt lat="44.30714" lon="5.82083">
        <ele>558</ele>
        <time>2019-03-19T13:04:30Z</time>
      </trkpt>
      <trkpt lat="44.30713" lon="5.82079">
        <ele>558</ele>
        <time>2019-03-19T13:04:31Z</time>
      </trkpt>
      <trkpt lat="44.30712" lon="5.82076">
        <ele>559</ele>
        <time>2019-03-19T13:04:32Z</time>
      </trkpt>
      <trkpt lat="44.30711" lon="5.82072">
        <ele>559</ele>
        <time>2019-03-19T13:04:33Z</time>
      </trkpt>
      <trkpt lat="44.3071" lon="5.82068">
        <ele>560</ele>
        <time>2019-03-19T13:04:34Z</time>
      </trkpt>
      <trkpt lat="44.3071" lon="5.82064">
        <ele>560</ele>
        <time>2019-03-19T13:04:35Z</time>
      </trkpt>
      <trkpt lat="44.30709" lon="5.8206">
        <ele>561</ele>
        <time>2019-03-19T13:04:36Z</time>
      </trkpt>
      <trkpt lat="44.30708" lon="5.82057">
        <ele>562</ele>
        <time>2019-03-19T13:04:37Z</time>
      </trkpt>
      <trkpt lat="44.30707" lon="5.82054">
        <ele>563</ele>
        <time>2019-03-19T13:04:38Z</time>
      </trkpt>
      <trkpt lat="44.30707" lon="5.8205">
        <ele>563</ele>
        <time>2019-03-19T13:04:39Z</time>
      </trkpt>
      <trkpt lat="44.30706" lon="5.82046">
        <ele>563</ele>
        <time>2019-03-19T13:04:40Z</time>
      </trkpt>
      <trkpt lat="44.30706" lon="5.82042">
        <ele>564</ele>
        <time>2019-03-19T13:04:41Z</time>
      </trkpt>
      <trkpt lat="44.30706" lon="5.82039">
        <ele>564</ele>
        <time>2019-03-19T13:04:42Z</time>
      </trkpt>
      <trkpt lat="44.30706" lon="5.82035">
        <ele>564</ele>
        <time>2019-03-19T13:04:43Z</time>
      </trkpt>
      <trkpt lat="44.30706" lon="5.82032">
        <ele>564</ele>
        <time>2019-03-19T13:04:44Z</time>
      </trkpt>
      <trkpt lat="44.30706" lon="5.82028">
        <ele>564</ele>
        <time>2019-03-19T13:04:45Z</time>
      </trkpt>
      <trkpt lat="44.30706" lon="5.82025">
        <ele>565</ele>
        <time>2019-03-19T13:04:46Z</time>
      </trkpt>
      <trkpt lat="44.30706" lon="5.82022">
        <ele>565</ele>
        <time>2019-03-19T13:04:48Z</time>
      </trkpt>
      <trkpt lat="44.30706" lon="5.82018">
        <ele>566</ele>
        <time>2019-03-19T13:04:48Z</time>
      </trkpt>
      <trkpt lat="44.30707" lon="5.82015">
        <ele>566</ele>
        <time>2019-03-19T13:04:49Z</time>
      </trkpt>
      <trkpt lat="44.30707" lon="5.82011">
        <ele>566</ele>
        <time>2019-03-19T13:04:50Z</time>
      </trkpt>
      <trkpt lat="44.30708" lon="5.82007">
        <ele>566</ele>
        <time>2019-03-19T13:04:51Z</time>
      </trkpt>
      <trkpt lat="44.30708" lon="5.82003">
        <ele>566</ele>
        <time>2019-03-19T13:04:52Z</time>
      </trkpt>
      <trkpt lat="44.30709" lon="5.81999">
        <ele>566</ele>
        <time>2019-03-19T13:04:53Z</time>
      </trkpt>
      <trkpt lat="44.30709" lon="5.81996">
        <ele>566</ele>
        <time>2019-03-19T13:04:54Z</time>
      </trkpt>
      <trkpt lat="44.3071" lon="5.81993">
        <ele>566</ele>
        <time>2019-03-19T13:04:55Z</time>
      </trkpt>
      <trkpt lat="44.3071" lon="5.8199">
        <ele>566</ele>
        <time>2019-03-19T13:04:56Z</time>
      </trkpt>
      <trkpt lat="44.30711" lon="5.81987">
        <ele>566</ele>
        <time>2019-03-19T13:04:57Z</time>
      </trkpt>
      <trkpt lat="44.30712" lon="5.81983">
        <ele>566</ele>
        <time>2019-03-19T13:04:58Z</time>
      </trkpt>
      <trkpt lat="44.30713" lon="5.8198">
        <ele>566</ele>
        <time>2019-03-19T13:04:59Z</time>
      </trkpt>
      <trkpt lat="44.30713" lon="5.81976">
        <ele>566</ele>
        <time>2019-03-19T13:05:00Z</time>
      </trkpt>
      <trkpt lat="44.30714" lon="5.81972">
        <ele>566</ele>
        <time>2019-03-19T13:05:01Z</time>
      </trkpt>
      <trkpt lat="44.30715" lon="5.81969">
        <ele>566</ele>
        <time>2019-03-19T13:05:02Z</time>
      </trkpt>
      <trkpt lat="44.30716" lon="5.81965">
        <ele>566</ele>
        <time>2019-03-19T13:05:03Z</time>
      </trkpt>
      <trkpt lat="44.30717" lon="5.81961">
        <ele>566</ele>
        <time>2019-03-19T13:05:04Z</time>
      </trkpt>
      <trkpt lat="44.30717" lon="5.81958">
        <ele>566</ele>
        <time>2019-03-19T13:05:05Z</time>
      </trkpt>
      <trkpt lat="44.30718" lon="5.81954">
        <ele>566</ele>
        <time>2019-03-19T13:05:06Z</time>
      </trkpt>
      <trkpt lat="44.30719" lon="5.81951">
        <ele>566</ele>
        <time>2019-03-19T13:05:07Z</time>
      </trkpt>
      <trkpt lat="44.30719" lon="5.81948">
        <ele>566</ele>
        <time>2019-03-19T13:05:08Z</time>
      </trkpt>
      <trkpt lat="44.3072" lon="5.81945">
        <ele>566</ele>
        <time>2019-03-19T13:05:09Z</time>
      </trkpt>
      <trkpt lat="44.30721" lon="5.81941">
        <ele>566</ele>
        <time>2019-03-19T13:05:10Z</time>
      </trkpt>
      <trkpt lat="44.30721" lon="5.81938">
        <ele>566</ele>
        <time>2019-03-19T13:05:11Z</time>
      </trkpt>
      <trkpt lat="44.30722" lon="5.81934">
        <ele>566</ele>
        <time>2019-03-19T13:05:12Z</time>
      </trkpt>
      <trkpt lat="44.30723" lon="5.8193">
        <ele>566</ele>
        <time>2019-03-19T13:05:13Z</time>
      </trkpt>
      <trkpt lat="44.30724" lon="5.81927">
        <ele>566</ele>
        <time>2019-03-19T13:05:14Z</time>
      </trkpt>
      <trkpt lat="44.30724" lon="5.81923">
        <ele>566</ele>
        <time>2019-03-19T13:05:15Z</time>
      </trkpt>
      <trkpt lat="44.30725" lon="5.8192">
        <ele>566</ele>
        <time>2019-03-19T13:05:16Z</time>
      </trkpt>
      <trkpt lat="44.30725" lon="5.81917">
        <ele>566</ele>
        <time>2019-03-19T13:05:17Z</time>
      </trkpt>
      <trkpt lat="44.30726" lon="5.81913">
        <ele>566</ele>
        <time>2019-03-19T13:05:18Z</time>
      </trkpt>
      <trkpt lat="44.30727" lon="5.81909">
        <ele>566</ele>
        <time>2019-03-19T13:05:19Z</time>
      </trkpt>
      <trkpt lat="44.30727" lon="5.81906">
        <ele>566</ele>
        <time>2019-03-19T13:05:20Z</time>
      </trkpt>
      <trkpt lat="44.30728" lon="5.81902">
        <ele>566</ele>
        <time>2019-03-19T13:05:21Z</time>
      </trkpt>
      <trkpt lat="44.30728" lon="5.81899">
        <ele>567</ele>
        <time>2019-03-19T13:05:22Z</time>
      </trkpt>
      <trkpt lat="44.30729" lon="5.81895">
        <ele>567</ele>
        <time>2019-03-19T13:05:23Z</time>
      </trkpt>
      <trkpt lat="44.3073" lon="5.81892">
        <ele>567</ele>
        <time>2019-03-19T13:05:24Z</time>
      </trkpt>
      <trkpt lat="44.3073" lon="5.81888">
        <ele>567</ele>
        <time>2019-03-19T13:05:25Z</time>
      </trkpt>
      <trkpt lat="44.30731" lon="5.81885">
        <ele>568</ele>
        <time>2019-03-19T13:05:26Z</time>
      </trkpt>
      <trkpt lat="44.30732" lon="5.81882">
        <ele>568</ele>
        <time>2019-03-19T13:05:27Z</time>
      </trkpt>
      <trkpt lat="44.30733" lon="5.81878">
        <ele>568</ele>
        <time>2019-03-19T13:05:28Z</time>
      </trkpt>
      <trkpt lat="44.30733" lon="5.81875">
        <ele>568</ele>
        <time>2019-03-19T13:05:29Z</time>
      </trkpt>
      <trkpt lat="44.30734" lon="5.81872">
        <ele>568</ele>
        <time>2019-03-19T13:05:30Z</time>
      </trkpt>
      <trkpt lat="44.30735" lon="5.81868">
        <ele>569</ele>
        <time>2019-03-19T13:05:31Z</time>
      </trkpt>
      <trkpt lat="44.30735" lon="5.81865">
        <ele>569</ele>
        <time>2019-03-19T13:05:32Z</time>
      </trkpt>
      <trkpt lat="44.30736" lon="5.81861">
        <ele>569</ele>
        <time>2019-03-19T13:05:33Z</time>
      </trkpt>
      <trkpt lat="44.30737" lon="5.81858">
        <ele>569</ele>
        <time>2019-03-19T13:05:34Z</time>
      </trkpt>
      <trkpt lat="44.30738" lon="5.81855">
        <ele>569</ele>
        <time>2019-03-19T13:05:35Z</time>
      </trkpt>
      <trkpt lat="44.30738" lon="5.81851">
        <ele>569</ele>
        <time>2019-03-19T13:05:36Z</time>
      </trkpt>
      <trkpt lat="44.30739" lon="5.81848">
        <ele>570</ele>
        <time>2019-03-19T13:05:37Z</time>
      </trkpt>
      <trkpt lat="44.3074" lon="5.81845">
        <ele>570</ele>
        <time>2019-03-19T13:05:38Z</time>
      </trkpt>
      <trkpt lat="44.30741" lon="5.81841">
        <ele>570</ele>
        <time>2019-03-19T13:05:39Z</time>
      </trkpt>
      <trkpt lat="44.30742" lon="5.81838">
        <ele>570</ele>
        <time>2019-03-19T13:05:40Z</time>
      </trkpt>
      <trkpt lat="44.30743" lon="5.81835">
        <ele>570</ele>
        <time>2019-03-19T13:05:41Z</time>
      </trkpt>
      <trkpt lat="44.30744" lon="5.81832">
        <ele>570</ele>
        <time>2019-03-19T13:05:42Z</time>
      </trkpt>
      <trkpt lat="44.30745" lon="5.81829">
        <ele>570</ele>
        <time>2019-03-19T13:05:43Z</time>
      </trkpt>
      <trkpt lat="44.30746" lon="5.81826">
        <ele>570</ele>
        <time>2019-03-19T13:05:44Z</time>
      </trkpt>
      <trkpt lat="44.30747" lon="5.81823">
        <ele>570</ele>
        <time>2019-03-19T13:05:45Z</time>
      </trkpt>
      <trkpt lat="44.30748" lon="5.8182">
        <ele>571</ele>
        <time>2019-03-19T13:05:46Z</time>
      </trkpt>
      <trkpt lat="44.30748" lon="5.81816">
        <ele>571</ele>
        <time>2019-03-19T13:05:48Z</time>
      </trkpt>
      <trkpt lat="44.3075" lon="5.81813">
        <ele>571</ele>
        <time>2019-03-19T13:05:48Z</time>
      </trkpt>
      <trkpt lat="44.3075" lon="5.8181">
        <ele>571</ele>
        <time>2019-03-19T13:05:49Z</time>
      </trkpt>
      <trkpt lat="44.30751" lon="5.81807">
        <ele>571</ele>
        <time>2019-03-19T13:05:50Z</time>
      </trkpt>
      <trkpt lat="44.30752" lon="5.81803">
        <ele>572</ele>
        <time>2019-03-19T13:05:51Z</time>
      </trkpt>
      <trkpt lat="44.30753" lon="5.818">
        <ele>572</ele>
        <time>2019-03-19T13:05:52Z</time>
      </trkpt>
      <trkpt lat="44.30754" lon="5.81797">
        <ele>572</ele>
        <time>2019-03-19T13:05:53Z</time>
      </trkpt>
      <trkpt lat="44.30755" lon="5.81794">
        <ele>572</ele>
        <time>2019-03-19T13:05:54Z</time>
      </trkpt>
      <trkpt lat="44.30756" lon="5.81791">
        <ele>573</ele>
        <time>2019-03-19T13:05:55Z</time>
      </trkpt>
      <trkpt lat="44.30757" lon="5.81788">
        <ele>573</ele>
        <time>2019-03-19T13:05:56Z</time>
      </trkpt>
      <trkpt lat="44.30758" lon="5.81784">
        <ele>573</ele>
        <time>2019-03-19T13:05:57Z</time>
      </trkpt>
      <trkpt lat="44.30759" lon="5.81781">
        <ele>573</ele>
        <time>2019-03-19T13:05:58Z</time>
      </trkpt>
      <trkpt lat="44.30759" lon="5.81777">
        <ele>573</ele>
        <time>2019-03-19T13:05:59Z</time>
      </trkpt>
      <trkpt lat="44.30761" lon="5.81774">
        <ele>574</ele>
        <time>2019-03-19T13:06:00Z</time>
      </trkpt>
      <trkpt lat="44.30761" lon="5.81771">
        <ele>574</ele>
        <time>2019-03-19T13:06:01Z</time>
      </trkpt>
      <trkpt lat="44.30762" lon="5.81768">
        <ele>574</ele>
        <time>2019-03-19T13:06:02Z</time>
      </trkpt>
      <trkpt lat="44.30763" lon="5.81764">
        <ele>575</ele>
        <time>2019-03-19T13:06:03Z</time>
      </trkpt>
      <trkpt lat="44.30764" lon="5.81761">
        <ele>575</ele>
        <time>2019-03-19T13:06:04Z</time>
      </trkpt>
      <trkpt lat="44.30766" lon="5.81758">
        <ele>575</ele>
        <time>2019-03-19T13:06:05Z</time>
      </trkpt>
      <trkpt lat="44.30767" lon="5.81755">
        <ele>575</ele>
        <time>2019-03-19T13:06:06Z</time>
      </trkpt>
      <trkpt lat="44.30767" lon="5.81752">
        <ele>575</ele>
        <time>2019-03-19T13:06:07Z</time>
      </trkpt>
      <trkpt lat="44.30768" lon="5.81749">
        <ele>575</ele>
        <time>2019-03-19T13:06:08Z</time>
      </trkpt>
      <trkpt lat="44.30769" lon="5.81746">
        <ele>575</ele>
        <time>2019-03-19T13:06:09Z</time>
      </trkpt>
      <trkpt lat="44.3077" lon="5.81743">
        <ele>576</ele>
        <time>2019-03-19T13:06:10Z</time>
      </trkpt>
      <trkpt lat="44.30772" lon="5.8174">
        <ele>576</ele>
        <time>2019-03-19T13:06:11Z</time>
      </trkpt>
      <trkpt lat="44.30772" lon="5.81737">
        <ele>576</ele>
        <time>2019-03-19T13:06:12Z</time>
      </trkpt>
      <trkpt lat="44.30774" lon="5.81734">
        <ele>576</ele>
        <time>2019-03-19T13:06:13Z</time>
      </trkpt>
      <trkpt lat="44.30775" lon="5.81731">
        <ele>576</ele>
        <time>2019-03-19T13:06:14Z</time>
      </trkpt>
      <trkpt lat="44.30776" lon="5.81728">
        <ele>576</ele>
        <time>2019-03-19T13:06:15Z</time>
      </trkpt>
      <trkpt lat="44.30777" lon="5.81725">
        <ele>576</ele>
        <time>2019-03-19T13:06:16Z</time>
      </trkpt>
      <trkpt lat="44.30778" lon="5.81722">
        <ele>576</ele>
        <time>2019-03-19T13:06:17Z</time>
      </trkpt>
      <trkpt lat="44.30779" lon="5.81719">
        <ele>577</ele>
        <time>2019-03-19T13:06:18Z</time>
      </trkpt>
      <trkpt lat="44.3078" lon="5.81716">
        <ele>577</ele>
        <time>2019-03-19T13:06:19Z</time>
      </trkpt>
      <trkpt lat="44.30781" lon="5.81713">
        <ele>577</ele>
        <time>2019-03-19T13:06:20Z</time>
      </trkpt>
      <trkpt lat="44.30782" lon="5.81709">
        <ele>578</ele>
        <time>2019-03-19T13:06:21Z</time>
      </trkpt>
      <trkpt lat="44.30783" lon="5.81706">
        <ele>578</ele>
        <time>2019-03-19T13:06:22Z</time>
      </trkpt>
      <trkpt lat="44.30784" lon="5.81704">
        <ele>578</ele>
        <time>2019-03-19T13:06:23Z</time>
      </trkpt>
      <trkpt lat="44.30785" lon="5.81701">
        <ele>578</ele>
        <time>2019-03-19T13:06:24Z</time>
      </trkpt>
      <trkpt lat="44.30786" lon="5.81698">
        <ele>579</ele>
        <time>2019-03-19T13:06:25Z</time>
      </trkpt>
      <trkpt lat="44.30788" lon="5.81695">
        <ele>579</ele>
        <time>2019-03-19T13:06:26Z</time>
      </trkpt>
      <trkpt lat="44.30789" lon="5.81692">
        <ele>579</ele>
        <time>2019-03-19T13:06:27Z</time>
      </trkpt>
      <trkpt lat="44.3079" lon="5.81689">
        <ele>579</ele>
        <time>2019-03-19T13:06:28Z</time>
      </trkpt>
      <trkpt lat="44.30791" lon="5.81686">
        <ele>579</ele>
        <time>2019-03-19T13:06:29Z</time>
      </trkpt>
      <trkpt lat="44.30791" lon="5.81683">
        <ele>579</ele>
        <time>2019-03-19T13:06:30Z</time>
      </trkpt>
      <trkpt lat="44.30792" lon="5.8168">
        <ele>579</ele>
        <time>2019-03-19T13:06:31Z</time>
      </trkpt>
      <trkpt lat="44.30793" lon="5.81677">
        <ele>579</ele>
        <time>2019-03-19T13:06:32Z</time>
      </trkpt>
      <trkpt lat="44.30794" lon="5.81674">
        <ele>579</ele>
        <time>2019-03-19T13:06:33Z</time>
      </trkpt>
      <trkpt lat="44.30795" lon="5.81671">
        <ele>579</ele>
        <time>2019-03-19T13:06:34Z</time>
      </trkpt>
      <trkpt lat="44.30796" lon="5.81668">
        <ele>579</ele>
        <time>2019-03-19T13:06:35Z</time>
      </trkpt>
      <trkpt lat="44.30796" lon="5.81664">
        <ele>579</ele>
        <time>2019-03-19T13:06:36Z</time>
      </trkpt>
      <trkpt lat="44.30797" lon="5.81661">
        <ele>579</ele>
        <time>2019-03-19T13:06:37Z</time>
      </trkpt>
      <trkpt lat="44.30798" lon="5.81657">
        <ele>579</ele>
        <time>2019-03-19T13:06:38Z</time>
      </trkpt>
      <trkpt lat="44.30798" lon="5.81654">
        <ele>580</ele>
        <time>2019-03-19T13:06:39Z</time>
      </trkpt>
      <trkpt lat="44.30799" lon="5.8165">
        <ele>580</ele>
        <time>2019-03-19T13:06:40Z</time>
      </trkpt>
      <trkpt lat="44.30799" lon="5.81647">
        <ele>580</ele>
        <time>2019-03-19T13:06:41Z</time>
      </trkpt>
      <trkpt lat="44.308" lon="5.81643">
        <ele>581</ele>
        <time>2019-03-19T13:06:42Z</time>
      </trkpt>
      <trkpt lat="44.308" lon="5.8164">
        <ele>581</ele>
        <time>2019-03-19T13:06:43Z</time>
      </trkpt>
      <trkpt lat="44.30801" lon="5.81637">
        <ele>581</ele>
        <time>2019-03-19T13:06:44Z</time>
      </trkpt>
      <trkpt lat="44.30801" lon="5.81634">
        <ele>581</ele>
        <time>2019-03-19T13:06:45Z</time>
      </trkpt>
      <trkpt lat="44.30801" lon="5.81631">
        <ele>581</ele>
        <time>2019-03-19T13:06:46Z</time>
      </trkpt>
      <trkpt lat="44.30802" lon="5.81627">
        <ele>581</ele>
        <time>2019-03-19T13:06:48Z</time>
      </trkpt>
      <trkpt lat="44.30802" lon="5.81624">
        <ele>582</ele>
        <time>2019-03-19T13:06:48Z</time>
      </trkpt>
      <trkpt lat="44.30803" lon="5.81621">
        <ele>582</ele>
        <time>2019-03-19T13:06:49Z</time>
      </trkpt>
      <trkpt lat="44.30803" lon="5.81617">
        <ele>582</ele>
        <time>2019-03-19T13:06:50Z</time>
      </trkpt>
      <trkpt lat="44.30804" lon="5.81614">
        <ele>582</ele>
        <time>2019-03-19T13:06:51Z</time>
      </trkpt>
      <trkpt lat="44.30804" lon="5.81611">
        <ele>582</ele>
        <time>2019-03-19T13:06:52Z</time>
      </trkpt>
      <trkpt lat="44.30805" lon="5.81608">
        <ele>583</ele>
        <time>2019-03-19T13:06:53Z</time>
      </trkpt>
      <trkpt lat="44.30805" lon="5.81604">
        <ele>583</ele>
        <time>2019-03-19T13:06:54Z</time>
      </trkpt>
      <trkpt lat="44.30806" lon="5.81601">
        <ele>583</ele>
        <time>2019-03-19T13:06:55Z</time>
      </trkpt>
      <trkpt lat="44.30806" lon="5.81598">
        <ele>584</ele>
        <time>2019-03-19T13:06:56Z</time>
      </trkpt>
      <trkpt lat="44.30807" lon="5.81595">
        <ele>584</ele>
        <time>2019-03-19T13:06:57Z</time>
      </trkpt>
      <trkpt lat="44.30807" lon="5.81592">
        <ele>584</ele>
        <time>2019-03-19T13:06:58Z</time>
      </trkpt>
      <trkpt lat="44.30808" lon="5.81588">
        <ele>584</ele>
        <time>2019-03-19T13:06:59Z</time>
      </trkpt>
      <trkpt lat="44.30809" lon="5.81585">
        <ele>585</ele>
        <time>2019-03-19T13:07:00Z</time>
      </trkpt>
      <trkpt lat="44.30809" lon="5.81581">
        <ele>585</ele>
        <time>2019-03-19T13:07:01Z</time>
      </trkpt>
      <trkpt lat="44.30809" lon="5.81578">
        <ele>585</ele>
        <time>2019-03-19T13:07:02Z</time>
      </trkpt>
      <trkpt lat="44.30809" lon="5.81575">
        <ele>586</ele>
        <time>2019-03-19T13:07:03Z</time>
      </trkpt>
      <trkpt lat="44.30809" lon="5.81571">
        <ele>586</ele>
        <time>2019-03-19T13:07:04Z</time>
      </trkpt>
      <trkpt lat="44.3081" lon="5.81567">
        <ele>586</ele>
        <time>2019-03-19T13:07:05Z</time>
      </trkpt>
      <trkpt lat="44.3081" lon="5.81564">
        <ele>587</ele>
        <time>2019-03-19T13:07:06Z</time>
      </trkpt>
      <trkpt lat="44.30811" lon="5.81561">
        <ele>587</ele>
        <time>2019-03-19T13:07:08Z</time>
      </trkpt>
      <trkpt lat="44.30811" lon="5.81557">
        <ele>587</ele>
        <time>2019-03-19T13:07:08Z</time>
      </trkpt>
      <trkpt lat="44.30812" lon="5.81554">
        <ele>588</ele>
        <time>2019-03-19T13:07:09Z</time>
      </trkpt>
      <trkpt lat="44.30812" lon="5.81551">
        <ele>588</ele>
        <time>2019-03-19T13:07:10Z</time>
      </trkpt>
      <trkpt lat="44.30813" lon="5.81547">
        <ele>588</ele>
        <time>2019-03-19T13:07:11Z</time>
      </trkpt>
      <trkpt lat="44.30813" lon="5.81544">
        <ele>589</ele>
        <time>2019-03-19T13:07:12Z</time>
      </trkpt>
      <trkpt lat="44.30814" lon="5.8154">
        <ele>589</ele>
        <time>2019-03-19T13:07:13Z</time>
      </trkpt>
      <trkpt lat="44.30814" lon="5.81537">
        <ele>589</ele>
        <time>2019-03-19T13:07:14Z</time>
      </trkpt>
      <trkpt lat="44.30814" lon="5.81534">
        <ele>590</ele>
        <time>2019-03-19T13:07:15Z</time>
      </trkpt>
      <trkpt lat="44.30815" lon="5.81531">
        <ele>590</ele>
        <time>2019-03-19T13:07:16Z</time>
      </trkpt>
      <trkpt lat="44.30816" lon="5.81527">
        <ele>590</ele>
        <time>2019-03-19T13:07:17Z</time>
      </trkpt>
      <trkpt lat="44.30816" lon="5.81524">
        <ele>590</ele>
        <time>2019-03-19T13:07:18Z</time>
      </trkpt>
      <trkpt lat="44.30817" lon="5.81521">
        <ele>591</ele>
        <time>2019-03-19T13:07:19Z</time>
      </trkpt>
      <trkpt lat="44.30817" lon="5.81518">
        <ele>591</ele>
        <time>2019-03-19T13:07:20Z</time>
      </trkpt>
      <trkpt lat="44.30818" lon="5.81515">
        <ele>591</ele>
        <time>2019-03-19T13:07:21Z</time>
      </trkpt>
      <trkpt lat="44.30819" lon="5.81512">
        <ele>592</ele>
        <time>2019-03-19T13:07:22Z</time>
      </trkpt>
      <trkpt lat="44.30819" lon="5.81508">
        <ele>592</ele>
        <time>2019-03-19T13:07:23Z</time>
      </trkpt>
      <trkpt lat="44.3082" lon="5.81505">
        <ele>592</ele>
        <time>2019-03-19T13:07:24Z</time>
      </trkpt>
      <trkpt lat="44.30821" lon="5.81502">
        <ele>592</ele>
        <time>2019-03-19T13:07:25Z</time>
      </trkpt>
      <trkpt lat="44.30822" lon="5.81498">
        <ele>593</ele>
        <time>2019-03-19T13:07:26Z</time>
      </trkpt>
      <trkpt lat="44.30823" lon="5.81495">
        <ele>593</ele>
        <time>2019-03-19T13:07:27Z</time>
      </trkpt>
      <trkpt lat="44.30823" lon="5.81492">
        <ele>593</ele>
        <time>2019-03-19T13:07:28Z</time>
      </trkpt>
      <trkpt lat="44.30824" lon="5.81489">
        <ele>593</ele>
        <time>2019-03-19T13:07:29Z</time>
      </trkpt>
      <trkpt lat="44.30825" lon="5.81486">
        <ele>594</ele>
        <time>2019-03-19T13:07:30Z</time>
      </trkpt>
      <trkpt lat="44.30826" lon="5.81483">
        <ele>594</ele>
        <time>2019-03-19T13:07:31Z</time>
      </trkpt>
      <trkpt lat="44.30826" lon="5.81479">
        <ele>594</ele>
        <time>2019-03-19T13:07:32Z</time>
      </trkpt>
      <trkpt lat="44.30827" lon="5.81475">
        <ele>594</ele>
        <time>2019-03-19T13:07:33Z</time>
      </trkpt>
      <trkpt lat="44.30828" lon="5.81472">
        <ele>595</ele>
        <time>2019-03-19T13:07:34Z</time>
      </trkpt>
      <trkpt lat="44.30828" lon="5.81468">
        <ele>595</ele>
        <time>2019-03-19T13:07:35Z</time>
      </trkpt>
      <trkpt lat="44.30829" lon="5.81465">
        <ele>595</ele>
        <time>2019-03-19T13:07:36Z</time>
      </trkpt>
      <trkpt lat="44.3083" lon="5.81462">
        <ele>596</ele>
        <time>2019-03-19T13:07:37Z</time>
      </trkpt>
      <trkpt lat="44.3083" lon="5.81459">
        <ele>596</ele>
        <time>2019-03-19T13:07:38Z</time>
      </trkpt>
      <trkpt lat="44.30831" lon="5.81456">
        <ele>597</ele>
        <time>2019-03-19T13:07:39Z</time>
      </trkpt>
      <trkpt lat="44.30831" lon="5.81453">
        <ele>597</ele>
        <time>2019-03-19T13:07:40Z</time>
      </trkpt>
      <trkpt lat="44.30832" lon="5.81449">
        <ele>597</ele>
        <time>2019-03-19T13:07:41Z</time>
      </trkpt>
      <trkpt lat="44.30833" lon="5.81446">
        <ele>598</ele>
        <time>2019-03-19T13:07:42Z</time>
      </trkpt>
      <trkpt lat="44.30833" lon="5.81443">
        <ele>598</ele>
        <time>2019-03-19T13:07:43Z</time>
      </trkpt>
      <trkpt lat="44.30834" lon="5.8144">
        <ele>598</ele>
        <time>2019-03-19T13:07:44Z</time>
      </trkpt>
      <trkpt lat="44.30834" lon="5.81437">
        <ele>599</ele>
        <time>2019-03-19T13:07:45Z</time>
      </trkpt>
      <trkpt lat="44.30835" lon="5.81433">
        <ele>599</ele>
        <time>2019-03-19T13:07:46Z</time>
      </trkpt>
      <trkpt lat="44.30835" lon="5.8143">
        <ele>599</ele>
        <time>2019-03-19T13:07:48Z</time>
      </trkpt>
      <trkpt lat="44.30836" lon="5.81427">
        <ele>599</ele>
        <time>2019-03-19T13:07:48Z</time>
      </trkpt>
      <trkpt lat="44.30836" lon="5.81424">
        <ele>600</ele>
        <time>2019-03-19T13:07:49Z</time>
      </trkpt>
      <trkpt lat="44.30836" lon="5.81421">
        <ele>600</ele>
        <time>2019-03-19T13:07:50Z</time>
      </trkpt>
      <trkpt lat="44.30837" lon="5.81418">
        <ele>600</ele>
        <time>2019-03-19T13:07:51Z</time>
      </trkpt>
      <trkpt lat="44.30837" lon="5.81415">
        <ele>600</ele>
        <time>2019-03-19T13:07:52Z</time>
      </trkpt>
      <trkpt lat="44.30838" lon="5.81412">
        <ele>601</ele>
        <time>2019-03-19T13:07:53Z</time>
      </trkpt>
      <trkpt lat="44.30838" lon="5.81408">
        <ele>601</ele>
        <time>2019-03-19T13:07:54Z</time>
      </trkpt>
      <trkpt lat="44.30838" lon="5.81405">
        <ele>601</ele>
        <time>2019-03-19T13:07:55Z</time>
      </trkpt>
      <trkpt lat="44.30838" lon="5.81402">
        <ele>601</ele>
        <time>2019-03-19T13:07:56Z</time>
      </trkpt>
      <trkpt lat="44.30839" lon="5.81398">
        <ele>601</ele>
        <time>2019-03-19T13:07:57Z</time>
      </trkpt>
      <trkpt lat="44.30839" lon="5.81395">
        <ele>601</ele>
        <time>2019-03-19T13:07:58Z</time>
      </trkpt>
      <trkpt lat="44.3084" lon="5.81392">
        <ele>602</ele>
        <time>2019-03-19T13:07:59Z</time>
      </trkpt>
      <trkpt lat="44.3084" lon="5.81389">
        <ele>602</ele>
        <time>2019-03-19T13:08:00Z</time>
      </trkpt>
      <trkpt lat="44.3084" lon="5.81386">
        <ele>602</ele>
        <time>2019-03-19T13:08:01Z</time>
      </trkpt>
      <trkpt lat="44.3084" lon="5.81383">
        <ele>602</ele>
        <time>2019-03-19T13:08:02Z</time>
      </trkpt>
      <trkpt lat="44.3084" lon="5.81379">
        <ele>602</ele>
        <time>2019-03-19T13:08:03Z</time>
      </trkpt>
      <trkpt lat="44.3084" lon="5.81376">
        <ele>602</ele>
        <time>2019-03-19T13:08:04Z</time>
      </trkpt>
      <trkpt lat="44.3084" lon="5.81372">
        <ele>602</ele>
        <time>2019-03-19T13:08:05Z</time>
      </trkpt>
      <trkpt lat="44.30841" lon="5.81369">
        <ele>602</ele>
        <time>2019-03-19T13:08:06Z</time>
      </trkpt>
      <trkpt lat="44.30841" lon="5.81365">
        <ele>603</ele>
        <time>2019-03-19T13:08:07Z</time>
      </trkpt>
      <trkpt lat="44.30841" lon="5.81362">
        <ele>603</ele>
        <time>2019-03-19T13:08:08Z</time>
      </trkpt>
      <trkpt lat="44.30842" lon="5.81359">
        <ele>603</ele>
        <time>2019-03-19T13:08:09Z</time>
      </trkpt>
      <trkpt lat="44.30843" lon="5.81356">
        <ele>603</ele>
        <time>2019-03-19T13:08:10Z</time>
      </trkpt>
      <trkpt lat="44.30844" lon="5.81353">
        <ele>604</ele>
        <time>2019-03-19T13:08:11Z</time>
      </trkpt>
      <trkpt lat="44.30845" lon="5.8135">
        <ele>604</ele>
        <time>2019-03-19T13:08:12Z</time>
      </trkpt>
      <trkpt lat="44.30846" lon="5.81346">
        <ele>604</ele>
        <time>2019-03-19T13:08:13Z</time>
      </trkpt>
      <trkpt lat="44.30848" lon="5.81343">
        <ele>604</ele>
        <time>2019-03-19T13:08:14Z</time>
      </trkpt>
      <trkpt lat="44.30849" lon="5.8134">
        <ele>604</ele>
        <time>2019-03-19T13:08:15Z</time>
      </trkpt>
      <trkpt lat="44.3085" lon="5.81336">
        <ele>604</ele>
        <time>2019-03-19T13:08:16Z</time>
      </trkpt>
      <trkpt lat="44.30851" lon="5.81334">
        <ele>604</ele>
        <time>2019-03-19T13:08:17Z</time>
      </trkpt>
      <trkpt lat="44.30852" lon="5.81331">
        <ele>604</ele>
        <time>2019-03-19T13:08:18Z</time>
      </trkpt>
      <trkpt lat="44.30853" lon="5.81327">
        <ele>604</ele>
        <time>2019-03-19T13:08:19Z</time>
      </trkpt>
      <trkpt lat="44.30854" lon="5.81324">
        <ele>604</ele>
        <time>2019-03-19T13:08:20Z</time>
      </trkpt>
      <trkpt lat="44.30856" lon="5.81321">
        <ele>604</ele>
        <time>2019-03-19T13:08:21Z</time>
      </trkpt>
      <trkpt lat="44.30857" lon="5.81318">
        <ele>604</ele>
        <time>2019-03-19T13:08:22Z</time>
      </trkpt>
      <trkpt lat="44.30859" lon="5.81315">
        <ele>605</ele>
        <time>2019-03-19T13:08:23Z</time>
      </trkpt>
      <trkpt lat="44.3086" lon="5.81312">
        <ele>605</ele>
        <time>2019-03-19T13:08:24Z</time>
      </trkpt>
      <trkpt lat="44.3086" lon="5.81308">
        <ele>605</ele>
        <time>2019-03-19T13:08:25Z</time>
      </trkpt>
      <trkpt lat="44.30861" lon="5.81304">
        <ele>606</ele>
        <time>2019-03-19T13:08:26Z</time>
      </trkpt>
      <trkpt lat="44.30862" lon="5.813">
        <ele>606</ele>
        <time>2019-03-19T13:08:27Z</time>
      </trkpt>
      <trkpt lat="44.30863" lon="5.81297">
        <ele>607</ele>
        <time>2019-03-19T13:08:28Z</time>
      </trkpt>
      <trkpt lat="44.30864" lon="5.81293">
        <ele>607</ele>
        <time>2019-03-19T13:08:29Z</time>
      </trkpt>
      <trkpt lat="44.30865" lon="5.8129">
        <ele>607</ele>
        <time>2019-03-19T13:08:30Z</time>
      </trkpt>
      <trkpt lat="44.30866" lon="5.81287">
        <ele>607</ele>
        <time>2019-03-19T13:08:31Z</time>
      </trkpt>
      <trkpt lat="44.30867" lon="5.81284">
        <ele>607</ele>
        <time>2019-03-19T13:08:32Z</time>
      </trkpt>
      <trkpt lat="44.30868" lon="5.8128">
        <ele>608</ele>
        <time>2019-03-19T13:08:33Z</time>
      </trkpt>
      <trkpt lat="44.30869" lon="5.81275">
        <ele>608</ele>
        <time>2019-03-19T13:08:34Z</time>
      </trkpt>
      <trkpt lat="44.3087" lon="5.81271">
        <ele>608</ele>
        <time>2019-03-19T13:08:35Z</time>
      </trkpt>
      <trkpt lat="44.30872" lon="5.81267">
        <ele>608</ele>
        <time>2019-03-19T13:08:36Z</time>
      </trkpt>
      <trkpt lat="44.30872" lon="5.81262">
        <ele>608</ele>
        <time>2019-03-19T13:08:37Z</time>
      </trkpt>
      <trkpt lat="44.30873" lon="5.81259">
        <ele>608</ele>
        <time>2019-03-19T13:08:38Z</time>
      </trkpt>
      <trkpt lat="44.30875" lon="5.81255">
        <ele>608</ele>
        <time>2019-03-19T13:08:39Z</time>
      </trkpt>
      <trkpt lat="44.30876" lon="5.81251">
        <ele>608</ele>
        <time>2019-03-19T13:08:40Z</time>
      </trkpt>
      <trkpt lat="44.30877" lon="5.81247">
        <ele>609</ele>
        <time>2019-03-19T13:08:41Z</time>
      </trkpt>
      <trkpt lat="44.30879" lon="5.81243">
        <ele>609</ele>
        <time>2019-03-19T13:08:42Z</time>
      </trkpt>
      <trkpt lat="44.3088" lon="5.81239">
        <ele>609</ele>
        <time>2019-03-19T13:08:43Z</time>
      </trkpt>
      <trkpt lat="44.30881" lon="5.81234">
        <ele>609</ele>
        <time>2019-03-19T13:08:44Z</time>
      </trkpt>
      <trkpt lat="44.30883" lon="5.8123">
        <ele>609</ele>
        <time>2019-03-19T13:08:45Z</time>
      </trkpt>
      <trkpt lat="44.30884" lon="5.81225">
        <ele>609</ele>
        <time>2019-03-19T13:08:46Z</time>
      </trkpt>
      <trkpt lat="44.30885" lon="5.8122">
        <ele>609</ele>
        <time>2019-03-19T13:08:48Z</time>
      </trkpt>
      <trkpt lat="44.30886" lon="5.81216">
        <ele>609</ele>
        <time>2019-03-19T13:08:48Z</time>
      </trkpt>
      <trkpt lat="44.30888" lon="5.81211">
        <ele>609</ele>
        <time>2019-03-19T13:08:49Z</time>
      </trkpt>
      <trkpt lat="44.30889" lon="5.81206">
        <ele>609</ele>
        <time>2019-03-19T13:08:50Z</time>
      </trkpt>
      <trkpt lat="44.3089" lon="5.81201">
        <ele>609</ele>
        <time>2019-03-19T13:08:51Z</time>
      </trkpt>
      <trkpt lat="44.30892" lon="5.81196">
        <ele>609</ele>
        <time>2019-03-19T13:08:52Z</time>
      </trkpt>
      <trkpt lat="44.30893" lon="5.81191">
        <ele>609</ele>
        <time>2019-03-19T13:08:53Z</time>
      </trkpt>
      <trkpt lat="44.30894" lon="5.81186">
        <ele>609</ele>
        <time>2019-03-19T13:08:54Z</time>
      </trkpt>
      <trkpt lat="44.30896" lon="5.81182">
        <ele>610</ele>
        <time>2019-03-19T13:08:55Z</time>
      </trkpt>
      <trkpt lat="44.30897" lon="5.81177">
        <ele>610</ele>
        <time>2019-03-19T13:08:56Z</time>
      </trkpt>
      <trkpt lat="44.30899" lon="5.81173">
        <ele>610</ele>
        <time>2019-03-19T13:08:57Z</time>
      </trkpt>
      <trkpt lat="44.309" lon="5.81168">
        <ele>610</ele>
        <time>2019-03-19T13:08:58Z</time>
      </trkpt>
      <trkpt lat="44.30902" lon="5.81164">
        <ele>610</ele>
        <time>2019-03-19T13:08:59Z</time>
      </trkpt>
      <trkpt lat="44.30903" lon="5.81159">
        <ele>610</ele>
        <time>2019-03-19T13:09:00Z</time>
      </trkpt>
      <trkpt lat="44.30904" lon="5.81154">
        <ele>611</ele>
        <time>2019-03-19T13:09:01Z</time>
      </trkpt>
      <trkpt lat="44.30906" lon="5.81149">
        <ele>611</ele>
        <time>2019-03-19T13:09:02Z</time>
      </trkpt>
      <trkpt lat="44.30907" lon="5.81143">
        <ele>611</ele>
        <time>2019-03-19T13:09:03Z</time>
      </trkpt>
      <trkpt lat="44.30909" lon="5.81138">
        <ele>611</ele>
        <time>2019-03-19T13:09:04Z</time>
      </trkpt>
      <trkpt lat="44.30911" lon="5.81132">
        <ele>611</ele>
        <time>2019-03-19T13:09:05Z</time>
      </trkpt>
      <trkpt lat="44.30912" lon="5.81126">
        <ele>611</ele>
        <time>2019-03-19T13:09:06Z</time>
      </trkpt>
      <trkpt lat="44.30914" lon="5.8112">
        <ele>611</ele>
        <time>2019-03-19T13:09:07Z</time>
      </trkpt>
      <trkpt lat="44.30915" lon="5.81113">
        <ele>611</ele>
        <time>2019-03-19T13:09:08Z</time>
      </trkpt>
      <trkpt lat="44.30916" lon="5.81107">
        <ele>611</ele>
        <time>2019-03-19T13:09:09Z</time>
      </trkpt>
      <trkpt lat="44.30917" lon="5.81101">
        <ele>611</ele>
        <time>2019-03-19T13:09:10Z</time>
      </trkpt>
      <trkpt lat="44.30918" lon="5.81094">
        <ele>611</ele>
        <time>2019-03-19T13:09:11Z</time>
      </trkpt>
      <trkpt lat="44.3092" lon="5.81088">
        <ele>611</ele>
        <time>2019-03-19T13:09:12Z</time>
      </trkpt>
      <trkpt lat="44.30921" lon="5.81082">
        <ele>611</ele>
        <time>2019-03-19T13:09:13Z</time>
      </trkpt>
      <trkpt lat="44.30923" lon="5.81076">
        <ele>611</ele>
        <time>2019-03-19T13:09:14Z</time>
      </trkpt>
      <trkpt lat="44.30924" lon="5.8107">
        <ele>611</ele>
        <time>2019-03-19T13:09:15Z</time>
      </trkpt>
      <trkpt lat="44.30926" lon="5.81064">
        <ele>611</ele>
        <time>2019-03-19T13:09:16Z</time>
      </trkpt>
      <trkpt lat="44.30928" lon="5.81058">
        <ele>611</ele>
        <time>2019-03-19T13:09:17Z</time>
      </trkpt>
      <trkpt lat="44.3093" lon="5.81052">
        <ele>611</ele>
        <time>2019-03-19T13:09:18Z</time>
      </trkpt>
      <trkpt lat="44.30933" lon="5.81046">
        <ele>611</ele>
        <time>2019-03-19T13:09:19Z</time>
      </trkpt>
      <trkpt lat="44.30935" lon="5.8104">
        <ele>611</ele>
        <time>2019-03-19T13:09:20Z</time>
      </trkpt>
      <trkpt lat="44.30937" lon="5.81035">
        <ele>611</ele>
        <time>2019-03-19T13:09:21Z</time>
      </trkpt>
      <trkpt lat="44.30939" lon="5.81029">
        <ele>611</ele>
        <time>2019-03-19T13:09:22Z</time>
      </trkpt>
      <trkpt lat="44.30942" lon="5.81023">
        <ele>611</ele>
        <time>2019-03-19T13:09:23Z</time>
      </trkpt>
      <trkpt lat="44.30944" lon="5.81018">
        <ele>611</ele>
        <time>2019-03-19T13:09:24Z</time>
      </trkpt>
      <trkpt lat="44.30947" lon="5.81012">
        <ele>611</ele>
        <time>2019-03-19T13:09:25Z</time>
      </trkpt>
      <trkpt lat="44.3095" lon="5.81007">
        <ele>611</ele>
        <time>2019-03-19T13:09:26Z</time>
      </trkpt>
      <trkpt lat="44.30952" lon="5.81003">
        <ele>611</ele>
        <time>2019-03-19T13:09:27Z</time>
      </trkpt>
      <trkpt lat="44.30955" lon="5.80998">
        <ele>611</ele>
        <time>2019-03-19T13:09:28Z</time>
      </trkpt>
      <trkpt lat="44.30957" lon="5.80994">
        <ele>612</ele>
        <time>2019-03-19T13:09:29Z</time>
      </trkpt>
      <trkpt lat="44.3096" lon="5.8099">
        <ele>612</ele>
        <time>2019-03-19T13:09:30Z</time>
      </trkpt>
      <trkpt lat="44.30962" lon="5.80985">
        <ele>613</ele>
        <time>2019-03-19T13:09:31Z</time>
      </trkpt>
      <trkpt lat="44.30965" lon="5.80981">
        <ele>613</ele>
        <time>2019-03-19T13:09:32Z</time>
      </trkpt>
      <trkpt lat="44.30967" lon="5.80977">
        <ele>613</ele>
        <time>2019-03-19T13:09:33Z</time>
      </trkpt>
      <trkpt lat="44.3097" lon="5.80972">
        <ele>613</ele>
        <time>2019-03-19T13:09:34Z</time>
      </trkpt>
      <trkpt lat="44.30972" lon="5.80968">
        <ele>614</ele>
        <time>2019-03-19T13:09:35Z</time>
      </trkpt>
      <trkpt lat="44.30975" lon="5.80965">
        <ele>614</ele>
        <time>2019-03-19T13:09:36Z</time>
      </trkpt>
      <trkpt lat="44.30976" lon="5.80961">
        <ele>614</ele>
        <time>2019-03-19T13:09:37Z</time>
      </trkpt>
      <trkpt lat="44.30978" lon="5.80957">
        <ele>614</ele>
        <time>2019-03-19T13:09:38Z</time>
      </trkpt>
      <trkpt lat="44.30979" lon="5.80954">
        <ele>615</ele>
        <time>2019-03-19T13:09:39Z</time>
      </trkpt>
      <trkpt lat="44.30981" lon="5.8095">
        <ele>616</ele>
        <time>2019-03-19T13:09:40Z</time>
      </trkpt>
      <trkpt lat="44.30982" lon="5.80946">
        <ele>617</ele>
        <time>2019-03-19T13:09:41Z</time>
      </trkpt>
      <trkpt lat="44.30984" lon="5.80942">
        <ele>617</ele>
        <time>2019-03-19T13:09:42Z</time>
      </trkpt>
      <trkpt lat="44.30985" lon="5.80937">
        <ele>618</ele>
        <time>2019-03-19T13:09:43Z</time>
      </trkpt>
      <trkpt lat="44.30987" lon="5.80933">
        <ele>618</ele>
        <time>2019-03-19T13:09:44Z</time>
      </trkpt>
      <trkpt lat="44.30988" lon="5.80929">
        <ele>619</ele>
        <time>2019-03-19T13:09:45Z</time>
      </trkpt>
      <trkpt lat="44.3099" lon="5.80925">
        <ele>619</ele>
        <time>2019-03-19T13:09:46Z</time>
      </trkpt>
      <trkpt lat="44.30992" lon="5.8092">
        <ele>619</ele>
        <time>2019-03-19T13:09:48Z</time>
      </trkpt>
      <trkpt lat="44.30993" lon="5.80915">
        <ele>619</ele>
        <time>2019-03-19T13:09:48Z</time>
      </trkpt>
      <trkpt lat="44.30995" lon="5.80911">
        <ele>619</ele>
        <time>2019-03-19T13:09:49Z</time>
      </trkpt>
      <trkpt lat="44.30996" lon="5.80907">
        <ele>619</ele>
        <time>2019-03-19T13:09:50Z</time>
      </trkpt>
      <trkpt lat="44.30997" lon="5.80903">
        <ele>619</ele>
        <time>2019-03-19T13:09:51Z</time>
      </trkpt>
      <trkpt lat="44.30999" lon="5.80899">
        <ele>619</ele>
        <time>2019-03-19T13:09:52Z</time>
      </trkpt>
      <trkpt lat="44.30999" lon="5.80895">
        <ele>619</ele>
        <time>2019-03-19T13:09:53Z</time>
      </trkpt>
      <trkpt lat="44.31" lon="5.80891">
        <ele>619</ele>
        <time>2019-03-19T13:09:54Z</time>
      </trkpt>
      <trkpt lat="44.31001" lon="5.80887">
        <ele>619</ele>
        <time>2019-03-19T13:09:55Z</time>
      </trkpt>
      <trkpt lat="44.31002" lon="5.80883">
        <ele>619</ele>
        <time>2019-03-19T13:09:56Z</time>
      </trkpt>
      <trkpt lat="44.31002" lon="5.80879">
        <ele>619</ele>
        <time>2019-03-19T13:09:57Z</time>
      </trkpt>
      <trkpt lat="44.31003" lon="5.80875">
        <ele>619</ele>
        <time>2019-03-19T13:09:58Z</time>
      </trkpt>
      <trkpt lat="44.31003" lon="5.8087">
        <ele>619</ele>
        <time>2019-03-19T13:09:59Z</time>
      </trkpt>
      <trkpt lat="44.31004" lon="5.80866">
        <ele>619</ele>
        <time>2019-03-19T13:10:00Z</time>
      </trkpt>
      <trkpt lat="44.31004" lon="5.80861">
        <ele>619</ele>
        <time>2019-03-19T13:10:01Z</time>
      </trkpt>
      <trkpt lat="44.31004" lon="5.80856">
        <ele>619</ele>
        <time>2019-03-19T13:10:02Z</time>
      </trkpt>
      <trkpt lat="44.31005" lon="5.80851">
        <ele>619</ele>
        <time>2019-03-19T13:10:03Z</time>
      </trkpt>
      <trkpt lat="44.31006" lon="5.80846">
        <ele>619</ele>
        <time>2019-03-19T13:10:04Z</time>
      </trkpt>
      <trkpt lat="44.31007" lon="5.80841">
        <ele>619</ele>
        <time>2019-03-19T13:10:05Z</time>
      </trkpt>
      <trkpt lat="44.31009" lon="5.80836">
        <ele>619</ele>
        <time>2019-03-19T13:10:06Z</time>
      </trkpt>
      <trkpt lat="44.31011" lon="5.8083">
        <ele>619</ele>
        <time>2019-03-19T13:10:07Z</time>
      </trkpt>
      <trkpt lat="44.31013" lon="5.80825">
        <ele>619</ele>
        <time>2019-03-19T13:10:08Z</time>
      </trkpt>
      <trkpt lat="44.31015" lon="5.8082">
        <ele>619</ele>
        <time>2019-03-19T13:10:09Z</time>
      </trkpt>
      <trkpt lat="44.31017" lon="5.80816">
        <ele>619</ele>
        <time>2019-03-19T13:10:10Z</time>
      </trkpt>
      <trkpt lat="44.31018" lon="5.80811">
        <ele>619</ele>
        <time>2019-03-19T13:10:11Z</time>
      </trkpt>
      <trkpt lat="44.3102" lon="5.80807">
        <ele>619</ele>
        <time>2019-03-19T13:10:12Z</time>
      </trkpt>
      <trkpt lat="44.31023" lon="5.80803">
        <ele>619</ele>
        <time>2019-03-19T13:10:13Z</time>
      </trkpt>
      <trkpt lat="44.31024" lon="5.80799">
        <ele>619</ele>
        <time>2019-03-19T13:10:14Z</time>
      </trkpt>
      <trkpt lat="44.31026" lon="5.80795">
        <ele>619</ele>
        <time>2019-03-19T13:10:15Z</time>
      </trkpt>
      <trkpt lat="44.31028" lon="5.80792">
        <ele>619</ele>
        <time>2019-03-19T13:10:16Z</time>
      </trkpt>
      <trkpt lat="44.31029" lon="5.80788">
        <ele>619</ele>
        <time>2019-03-19T13:10:17Z</time>
      </trkpt>
      <trkpt lat="44.31031" lon="5.80784">
        <ele>619</ele>
        <time>2019-03-19T13:10:18Z</time>
      </trkpt>
      <trkpt lat="44.31033" lon="5.8078">
        <ele>619</ele>
        <time>2019-03-19T13:10:19Z</time>
      </trkpt>
      <trkpt lat="44.31034" lon="5.80777">
        <ele>619</ele>
        <time>2019-03-19T13:10:20Z</time>
      </trkpt>
      <trkpt lat="44.31036" lon="5.80773">
        <ele>619</ele>
        <time>2019-03-19T13:10:21Z</time>
      </trkpt>
      <trkpt lat="44.31038" lon="5.80769">
        <ele>619</ele>
        <time>2019-03-19T13:10:22Z</time>
      </trkpt>
      <trkpt lat="44.31039" lon="5.80766">
        <ele>619</ele>
        <time>2019-03-19T13:10:23Z</time>
      </trkpt>
      <trkpt lat="44.31041" lon="5.80763">
        <ele>619</ele>
        <time>2019-03-19T13:10:24Z</time>
      </trkpt>
      <trkpt lat="44.31042" lon="5.80759">
        <ele>619</ele>
        <time>2019-03-19T13:10:25Z</time>
      </trkpt>
      <trkpt lat="44.31044" lon="5.80756">
        <ele>619</ele>
        <time>2019-03-19T13:10:26Z</time>
      </trkpt>
      <trkpt lat="44.31045" lon="5.80752">
        <ele>619</ele>
        <time>2019-03-19T13:10:27Z</time>
      </trkpt>
      <trkpt lat="44.31046" lon="5.80748">
        <ele>619</ele>
        <time>2019-03-19T13:10:28Z</time>
      </trkpt>
      <trkpt lat="44.31048" lon="5.80744">
        <ele>619</ele>
        <time>2019-03-19T13:10:29Z</time>
      </trkpt>
      <trkpt lat="44.31049" lon="5.8074">
        <ele>619</ele>
        <time>2019-03-19T13:10:30Z</time>
      </trkpt>
      <trkpt lat="44.3105" lon="5.80736">
        <ele>619</ele>
        <time>2019-03-19T13:10:31Z</time>
      </trkpt>
      <trkpt lat="44.31052" lon="5.80732">
        <ele>619</ele>
        <time>2019-03-19T13:10:32Z</time>
      </trkpt>
      <trkpt lat="44.31053" lon="5.80727">
        <ele>619</ele>
        <time>2019-03-19T13:10:33Z</time>
      </trkpt>
      <trkpt lat="44.31055" lon="5.80723">
        <ele>619</ele>
        <time>2019-03-19T13:10:34Z</time>
      </trkpt>
      <trkpt lat="44.31056" lon="5.80719">
        <ele>619</ele>
        <time>2019-03-19T13:10:35Z</time>
      </trkpt>
      <trkpt lat="44.31057" lon="5.80715">
        <ele>619</ele>
        <time>2019-03-19T13:10:36Z</time>
      </trkpt>
      <trkpt lat="44.31058" lon="5.80711">
        <ele>619</ele>
        <time>2019-03-19T13:10:37Z</time>
      </trkpt>
      <trkpt lat="44.31059" lon="5.80707">
        <ele>619</ele>
        <time>2019-03-19T13:10:38Z</time>
      </trkpt>
      <trkpt lat="44.3106" lon="5.80703">
        <ele>619</ele>
        <time>2019-03-19T13:10:39Z</time>
      </trkpt>
      <trkpt lat="44.31061" lon="5.80699">
        <ele>619</ele>
        <time>2019-03-19T13:10:40Z</time>
      </trkpt>
      <trkpt lat="44.31062" lon="5.80694">
        <ele>619</ele>
        <time>2019-03-19T13:10:41Z</time>
      </trkpt>
      <trkpt lat="44.31063" lon="5.8069">
        <ele>620</ele>
        <time>2019-03-19T13:10:42Z</time>
      </trkpt>
      <trkpt lat="44.31064" lon="5.80686">
        <ele>620</ele>
        <time>2019-03-19T13:10:43Z</time>
      </trkpt>
      <trkpt lat="44.31065" lon="5.80681">
        <ele>621</ele>
        <time>2019-03-19T13:10:44Z</time>
      </trkpt>
      <trkpt lat="44.31067" lon="5.80676">
        <ele>621</ele>
        <time>2019-03-19T13:10:45Z</time>
      </trkpt>
      <trkpt lat="44.31068" lon="5.80672">
        <ele>622</ele>
        <time>2019-03-19T13:10:46Z</time>
      </trkpt>
      <trkpt lat="44.31069" lon="5.80668">
        <ele>622</ele>
        <time>2019-03-19T13:10:48Z</time>
      </trkpt>
      <trkpt lat="44.3107" lon="5.80664">
        <ele>622</ele>
        <time>2019-03-19T13:10:48Z</time>
      </trkpt>
      <trkpt lat="44.31072" lon="5.80659">
        <ele>622</ele>
        <time>2019-03-19T13:10:49Z</time>
      </trkpt>
      <trkpt lat="44.31073" lon="5.80655">
        <ele>622</ele>
        <time>2019-03-19T13:10:50Z</time>
      </trkpt>
      <trkpt lat="44.31074" lon="5.8065">
        <ele>622</ele>
        <time>2019-03-19T13:10:51Z</time>
      </trkpt>
      <trkpt lat="44.31076" lon="5.80645">
        <ele>622</ele>
        <time>2019-03-19T13:10:52Z</time>
      </trkpt>
      <trkpt lat="44.31077" lon="5.80641">
        <ele>622</ele>
        <time>2019-03-19T13:10:53Z</time>
      </trkpt>
      <trkpt lat="44.31078" lon="5.80635">
        <ele>622</ele>
        <time>2019-03-19T13:10:54Z</time>
      </trkpt>
      <trkpt lat="44.31079" lon="5.8063">
        <ele>622</ele>
        <time>2019-03-19T13:10:55Z</time>
      </trkpt>
      <trkpt lat="44.31081" lon="5.80625">
        <ele>622</ele>
        <time>2019-03-19T13:10:56Z</time>
      </trkpt>
      <trkpt lat="44.31082" lon="5.80621">
        <ele>622</ele>
        <time>2019-03-19T13:10:57Z</time>
      </trkpt>
      <trkpt lat="44.31083" lon="5.80616">
        <ele>622</ele>
        <time>2019-03-19T13:10:58Z</time>
      </trkpt>
      <trkpt lat="44.31085" lon="5.80611">
        <ele>622</ele>
        <time>2019-03-19T13:10:59Z</time>
      </trkpt>
      <trkpt lat="44.31086" lon="5.80606">
        <ele>622</ele>
        <time>2019-03-19T13:11:00Z</time>
      </trkpt>
      <trkpt lat="44.31087" lon="5.806">
        <ele>622</ele>
        <time>2019-03-19T13:11:01Z</time>
      </trkpt>
      <trkpt lat="44.31089" lon="5.80594">
        <ele>622</ele>
        <time>2019-03-19T13:11:02Z</time>
      </trkpt>
      <trkpt lat="44.3109" lon="5.80587">
        <ele>622</ele>
        <time>2019-03-19T13:11:03Z</time>
      </trkpt>
      <trkpt lat="44.31092" lon="5.80581">
        <ele>622</ele>
        <time>2019-03-19T13:11:04Z</time>
      </trkpt>
      <trkpt lat="44.31094" lon="5.80573">
        <ele>622</ele>
        <time>2019-03-19T13:11:05Z</time>
      </trkpt>
      <trkpt lat="44.31095" lon="5.80566">
        <ele>622</ele>
        <time>2019-03-19T13:11:06Z</time>
      </trkpt>
      <trkpt lat="44.31097" lon="5.80559">
        <ele>622</ele>
        <time>2019-03-19T13:11:07Z</time>
      </trkpt>
      <trkpt lat="44.31099" lon="5.80551">
        <ele>622</ele>
        <time>2019-03-19T13:11:08Z</time>
      </trkpt>
      <trkpt lat="44.31101" lon="5.80543">
        <ele>622</ele>
        <time>2019-03-19T13:11:09Z</time>
      </trkpt>
      <trkpt lat="44.31103" lon="5.80535">
        <ele>622</ele>
        <time>2019-03-19T13:11:10Z</time>
      </trkpt>
      <trkpt lat="44.31105" lon="5.80527">
        <ele>622</ele>
        <time>2019-03-19T13:11:11Z</time>
      </trkpt>
      <trkpt lat="44.31107" lon="5.80519">
        <ele>622</ele>
        <time>2019-03-19T13:11:12Z</time>
      </trkpt>
      <trkpt lat="44.31109" lon="5.80512">
        <ele>622</ele>
        <time>2019-03-19T13:11:13Z</time>
      </trkpt>
      <trkpt lat="44.31111" lon="5.80504">
        <ele>622</ele>
        <time>2019-03-19T13:11:14Z</time>
      </trkpt>
      <trkpt lat="44.31113" lon="5.80497">
        <ele>622</ele>
        <time>2019-03-19T13:11:15Z</time>
      </trkpt>
      <trkpt lat="44.31115" lon="5.80491">
        <ele>622</ele>
        <time>2019-03-19T13:11:16Z</time>
      </trkpt>
      <trkpt lat="44.31117" lon="5.80485">
        <ele>622</ele>
        <time>2019-03-19T13:11:17Z</time>
      </trkpt>
      <trkpt lat="44.31119" lon="5.8048">
        <ele>622</ele>
        <time>2019-03-19T13:11:18Z</time>
      </trkpt>
      <trkpt lat="44.3112" lon="5.80475">
        <ele>622</ele>
        <time>2019-03-19T13:11:19Z</time>
      </trkpt>
      <trkpt lat="44.31121" lon="5.80469">
        <ele>622</ele>
        <time>2019-03-19T13:11:20Z</time>
      </trkpt>
      <trkpt lat="44.31122" lon="5.80464">
        <ele>622</ele>
        <time>2019-03-19T13:11:21Z</time>
      </trkpt>
      <trkpt lat="44.31123" lon="5.80457">
        <ele>622</ele>
        <time>2019-03-19T13:11:22Z</time>
      </trkpt>
      <trkpt lat="44.31123" lon="5.80451">
        <ele>622</ele>
        <time>2019-03-19T13:11:23Z</time>
      </trkpt>
      <trkpt lat="44.31123" lon="5.80445">
        <ele>622</ele>
        <time>2019-03-19T13:11:24Z</time>
      </trkpt>
      <trkpt lat="44.31122" lon="5.80439">
        <ele>622</ele>
        <time>2019-03-19T13:11:25Z</time>
      </trkpt>
      <trkpt lat="44.31121" lon="5.80433">
        <ele>622</ele>
        <time>2019-03-19T13:11:26Z</time>
      </trkpt>
      <trkpt lat="44.31121" lon="5.80427">
        <ele>622</ele>
        <time>2019-03-19T13:11:27Z</time>
      </trkpt>
      <trkpt lat="44.3112" lon="5.80421">
        <ele>622</ele>
        <time>2019-03-19T13:11:28Z</time>
      </trkpt>
      <trkpt lat="44.3112" lon="5.80415">
        <ele>622</ele>
        <time>2019-03-19T13:11:29Z</time>
      </trkpt>
      <trkpt lat="44.31119" lon="5.80408">
        <ele>622</ele>
        <time>2019-03-19T13:11:30Z</time>
      </trkpt>
      <trkpt lat="44.31118" lon="5.80402">
        <ele>622</ele>
        <time>2019-03-19T13:11:31Z</time>
      </trkpt>
      <trkpt lat="44.31118" lon="5.80395">
        <ele>622</ele>
        <time>2019-03-19T13:11:32Z</time>
      </trkpt>
      <trkpt lat="44.31118" lon="5.80388">
        <ele>622</ele>
        <time>2019-03-19T13:11:33Z</time>
      </trkpt>
      <trkpt lat="44.31118" lon="5.80382">
        <ele>622</ele>
        <time>2019-03-19T13:11:34Z</time>
      </trkpt>
      <trkpt lat="44.31118" lon="5.80376">
        <ele>622</ele>
        <time>2019-03-19T13:11:35Z</time>
      </trkpt>
      <trkpt lat="44.31118" lon="5.8037">
        <ele>622</ele>
        <time>2019-03-19T13:11:36Z</time>
      </trkpt>
      <trkpt lat="44.31118" lon="5.80363">
        <ele>622</ele>
        <time>2019-03-19T13:11:37Z</time>
      </trkpt>
      <trkpt lat="44.31117" lon="5.80357">
        <ele>622</ele>
        <time>2019-03-19T13:11:38Z</time>
      </trkpt>
      <trkpt lat="44.31117" lon="5.8035">
        <ele>622</ele>
        <time>2019-03-19T13:11:39Z</time>
      </trkpt>
      <trkpt lat="44.31116" lon="5.80343">
        <ele>622</ele>
        <time>2019-03-19T13:11:40Z</time>
      </trkpt>
      <trkpt lat="44.31116" lon="5.80337">
        <ele>622</ele>
        <time>2019-03-19T13:11:41Z</time>
      </trkpt>
      <trkpt lat="44.31116" lon="5.8033">
        <ele>622</ele>
        <time>2019-03-19T13:11:42Z</time>
      </trkpt>
      <trkpt lat="44.31116" lon="5.80323">
        <ele>622</ele>
        <time>2019-03-19T13:11:43Z</time>
      </trkpt>
      <trkpt lat="44.31117" lon="5.80316">
        <ele>622</ele>
        <time>2019-03-19T13:11:44Z</time>
      </trkpt>
      <trkpt lat="44.31118" lon="5.80309">
        <ele>622</ele>
        <time>2019-03-19T13:11:45Z</time>
      </trkpt>
      <trkpt lat="44.3112" lon="5.80302">
        <ele>622</ele>
        <time>2019-03-19T13:11:46Z</time>
      </trkpt>
      <trkpt lat="44.31121" lon="5.80295">
        <ele>622</ele>
        <time>2019-03-19T13:11:48Z</time>
      </trkpt>
      <trkpt lat="44.31123" lon="5.80288">
        <ele>622</ele>
        <time>2019-03-19T13:11:48Z</time>
      </trkpt>
      <trkpt lat="44.31125" lon="5.80281">
        <ele>622</ele>
        <time>2019-03-19T13:11:49Z</time>
      </trkpt>
      <trkpt lat="44.31128" lon="5.80275">
        <ele>622</ele>
        <time>2019-03-19T13:11:50Z</time>
      </trkpt>
      <trkpt lat="44.31131" lon="5.80268">
        <ele>622</ele>
        <time>2019-03-19T13:11:51Z</time>
      </trkpt>
      <trkpt lat="44.31134" lon="5.80262">
        <ele>622</ele>
        <time>2019-03-19T13:11:52Z</time>
      </trkpt>
      <trkpt lat="44.31137" lon="5.80256">
        <ele>622</ele>
        <time>2019-03-19T13:11:53Z</time>
      </trkpt>
      <trkpt lat="44.3114" lon="5.80249">
        <ele>622</ele>
        <time>2019-03-19T13:11:54Z</time>
      </trkpt>
      <trkpt lat="44.31144" lon="5.80243">
        <ele>622</ele>
        <time>2019-03-19T13:11:55Z</time>
      </trkpt>
      <trkpt lat="44.31147" lon="5.80237">
        <ele>622</ele>
        <time>2019-03-19T13:11:56Z</time>
      </trkpt>
      <trkpt lat="44.3115" lon="5.8023">
        <ele>622</ele>
        <time>2019-03-19T13:11:57Z</time>
      </trkpt>
      <trkpt lat="44.31153" lon="5.80223">
        <ele>622</ele>
        <time>2019-03-19T13:11:58Z</time>
      </trkpt>
      <trkpt lat="44.31157" lon="5.80216">
        <ele>622</ele>
        <time>2019-03-19T13:11:59Z</time>
      </trkpt>
      <trkpt lat="44.3116" lon="5.80208">
        <ele>622</ele>
        <time>2019-03-19T13:12:00Z</time>
      </trkpt>
      <trkpt lat="44.31163" lon="5.80201">
        <ele>622</ele>
        <time>2019-03-19T13:12:01Z</time>
      </trkpt>
      <trkpt lat="44.31166" lon="5.80194">
        <ele>621</ele>
        <time>2019-03-19T13:12:02Z</time>
      </trkpt>
      <trkpt lat="44.31168" lon="5.80186">
        <ele>621</ele>
        <time>2019-03-19T13:12:03Z</time>
      </trkpt>
      <trkpt lat="44.31171" lon="5.80178">
        <ele>620</ele>
        <time>2019-03-19T13:12:04Z</time>
      </trkpt>
      <trkpt lat="44.31174" lon="5.8017">
        <ele>620</ele>
        <time>2019-03-19T13:12:05Z</time>
      </trkpt>
      <trkpt lat="44.31176" lon="5.80162">
        <ele>620</ele>
        <time>2019-03-19T13:12:06Z</time>
      </trkpt>
      <trkpt lat="44.31178" lon="5.80154">
        <ele>619</ele>
        <time>2019-03-19T13:12:07Z</time>
      </trkpt>
      <trkpt lat="44.3118" lon="5.80146">
        <ele>619</ele>
        <time>2019-03-19T13:12:08Z</time>
      </trkpt>
      <trkpt lat="44.31182" lon="5.80137">
        <ele>619</ele>
        <time>2019-03-19T13:12:09Z</time>
      </trkpt>
      <trkpt lat="44.31184" lon="5.80129">
        <ele>618</ele>
        <time>2019-03-19T13:12:10Z</time>
      </trkpt>
      <trkpt lat="44.31187" lon="5.80121">
        <ele>618</ele>
        <time>2019-03-19T13:12:11Z</time>
      </trkpt>
      <trkpt lat="44.3119" lon="5.80113">
        <ele>618</ele>
        <time>2019-03-19T13:12:12Z</time>
      </trkpt>
      <trkpt lat="44.31194" lon="5.80105">
        <ele>618</ele>
        <time>2019-03-19T13:12:13Z</time>
      </trkpt>
      <trkpt lat="44.31198" lon="5.80099">
        <ele>618</ele>
        <time>2019-03-19T13:12:14Z</time>
      </trkpt>
      <trkpt lat="44.31202" lon="5.80093">
        <ele>617</ele>
        <time>2019-03-19T13:12:15Z</time>
      </trkpt>
      <trkpt lat="44.31207" lon="5.80088">
        <ele>617</ele>
        <time>2019-03-19T13:12:16Z</time>
      </trkpt>
      <trkpt lat="44.31211" lon="5.80082">
        <ele>617</ele>
        <time>2019-03-19T13:12:17Z</time>
      </trkpt>
      <trkpt lat="44.31215" lon="5.80076">
        <ele>617</ele>
        <time>2019-03-19T13:12:18Z</time>
      </trkpt>
      <trkpt lat="44.31218" lon="5.80069">
        <ele>617</ele>
        <time>2019-03-19T13:12:19Z</time>
      </trkpt>
      <trkpt lat="44.31221" lon="5.80063">
        <ele>617</ele>
        <time>2019-03-19T13:12:20Z</time>
      </trkpt>
      <trkpt lat="44.31224" lon="5.80056">
        <ele>617</ele>
        <time>2019-03-19T13:12:21Z</time>
      </trkpt>
      <trkpt lat="44.31226" lon="5.80048">
        <ele>617</ele>
        <time>2019-03-19T13:12:22Z</time>
      </trkpt>
      <trkpt lat="44.31228" lon="5.80041">
        <ele>617</ele>
        <time>2019-03-19T13:12:23Z</time>
      </trkpt>
      <trkpt lat="44.31229" lon="5.80033">
        <ele>617</ele>
        <time>2019-03-19T13:12:24Z</time>
      </trkpt>
      <trkpt lat="44.3123" lon="5.80026">
        <ele>617</ele>
        <time>2019-03-19T13:12:25Z</time>
      </trkpt>
      <trkpt lat="44.3123" lon="5.80018">
        <ele>617</ele>
        <time>2019-03-19T13:12:26Z</time>
      </trkpt>
      <trkpt lat="44.3123" lon="5.8001">
        <ele>617</ele>
        <time>2019-03-19T13:12:27Z</time>
      </trkpt>
      <trkpt lat="44.3123" lon="5.80001">
        <ele>617</ele>
        <time>2019-03-19T13:12:28Z</time>
      </trkpt>
      <trkpt lat="44.3123" lon="5.79993">
        <ele>617</ele>
        <time>2019-03-19T13:12:29Z</time>
      </trkpt>
      <trkpt lat="44.31231" lon="5.79984">
        <ele>617</ele>
        <time>2019-03-19T13:12:30Z</time>
      </trkpt>
      <trkpt lat="44.31232" lon="5.79976">
        <ele>617</ele>
        <time>2019-03-19T13:12:31Z</time>
      </trkpt>
      <trkpt lat="44.31234" lon="5.79967">
        <ele>616</ele>
        <time>2019-03-19T13:12:32Z</time>
      </trkpt>
      <trkpt lat="44.31237" lon="5.7996">
        <ele>616</ele>
        <time>2019-03-19T13:12:33Z</time>
      </trkpt>
      <trkpt lat="44.3124" lon="5.79954">
        <ele>616</ele>
        <time>2019-03-19T13:12:34Z</time>
      </trkpt>
      <trkpt lat="44.31243" lon="5.79948">
        <ele>616</ele>
        <time>2019-03-19T13:12:35Z</time>
      </trkpt>
      <trkpt lat="44.31246" lon="5.79943">
        <ele>616</ele>
        <time>2019-03-19T13:12:36Z</time>
      </trkpt>
      <trkpt lat="44.3125" lon="5.79938">
        <ele>616</ele>
        <time>2019-03-19T13:12:37Z</time>
      </trkpt>
      <trkpt lat="44.31253" lon="5.79934">
        <ele>616</ele>
        <time>2019-03-19T13:12:38Z</time>
      </trkpt>
      <trkpt lat="44.31256" lon="5.79929">
        <ele>616</ele>
        <time>2019-03-19T13:12:39Z</time>
      </trkpt>
      <trkpt lat="44.3126" lon="5.79924">
        <ele>616</ele>
        <time>2019-03-19T13:12:40Z</time>
      </trkpt>
      <trkpt lat="44.31264" lon="5.79919">
        <ele>616</ele>
        <time>2019-03-19T13:12:41Z</time>
      </trkpt>
      <trkpt lat="44.31268" lon="5.79914">
        <ele>616</ele>
        <time>2019-03-19T13:12:42Z</time>
      </trkpt>
      <trkpt lat="44.31272" lon="5.79909">
        <ele>616</ele>
        <time>2019-03-19T13:12:43Z</time>
      </trkpt>
      <trkpt lat="44.31276" lon="5.79903">
        <ele>616</ele>
        <time>2019-03-19T13:12:44Z</time>
      </trkpt>
      <trkpt lat="44.31281" lon="5.79897">
        <ele>616</ele>
        <time>2019-03-19T13:12:45Z</time>
      </trkpt>
      <trkpt lat="44.31285" lon="5.79892">
        <ele>616</ele>
        <time>2019-03-19T13:12:46Z</time>
      </trkpt>
      <trkpt lat="44.31289" lon="5.79886">
        <ele>616</ele>
        <time>2019-03-19T13:12:48Z</time>
      </trkpt>
      <trkpt lat="44.31293" lon="5.7988">
        <ele>616</ele>
        <time>2019-03-19T13:12:48Z</time>
      </trkpt>
      <trkpt lat="44.31298" lon="5.79874">
        <ele>616</ele>
        <time>2019-03-19T13:12:49Z</time>
      </trkpt>
      <trkpt lat="44.31302" lon="5.79868">
        <ele>616</ele>
        <time>2019-03-19T13:12:50Z</time>
      </trkpt>
      <trkpt lat="44.31306" lon="5.79862">
        <ele>616</ele>
        <time>2019-03-19T13:12:51Z</time>
      </trkpt>
      <trkpt lat="44.3131" lon="5.79856">
        <ele>615</ele>
        <time>2019-03-19T13:12:52Z</time>
      </trkpt>
      <trkpt lat="44.31313" lon="5.7985">
        <ele>615</ele>
        <time>2019-03-19T13:12:53Z</time>
      </trkpt>
      <trkpt lat="44.31317" lon="5.79844">
        <ele>615</ele>
        <time>2019-03-19T13:12:54Z</time>
      </trkpt>
      <trkpt lat="44.31321" lon="5.79838">
        <ele>615</ele>
        <time>2019-03-19T13:12:55Z</time>
      </trkpt>
      <trkpt lat="44.31325" lon="5.79833">
        <ele>615</ele>
        <time>2019-03-19T13:12:56Z</time>
      </trkpt>
      <trkpt lat="44.31329" lon="5.79827">
        <ele>615</ele>
        <time>2019-03-19T13:12:57Z</time>
      </trkpt>
      <trkpt lat="44.31333" lon="5.79822">
        <ele>615</ele>
        <time>2019-03-19T13:12:58Z</time>
      </trkpt>
      <trkpt lat="44.31337" lon="5.79816">
        <ele>615</ele>
        <time>2019-03-19T13:12:59Z</time>
      </trkpt>
      <trkpt lat="44.3134" lon="5.7981">
        <ele>615</ele>
        <time>2019-03-19T13:13:00Z</time>
      </trkpt>
      <trkpt lat="44.31344" lon="5.79805">
        <ele>615</ele>
        <time>2019-03-19T13:13:01Z</time>
      </trkpt>
      <trkpt lat="44.31347" lon="5.79799">
        <ele>615</ele>
        <time>2019-03-19T13:13:02Z</time>
      </trkpt>
      <trkpt lat="44.3135" lon="5.79794">
        <ele>615</ele>
        <time>2019-03-19T13:13:03Z</time>
      </trkpt>
      <trkpt lat="44.31354" lon="5.79788">
        <ele>615</ele>
        <time>2019-03-19T13:13:04Z</time>
      </trkpt>
      <trkpt lat="44.31357" lon="5.79783">
        <ele>615</ele>
        <time>2019-03-19T13:13:05Z</time>
      </trkpt>
      <trkpt lat="44.31361" lon="5.79777">
        <ele>615</ele>
        <time>2019-03-19T13:13:06Z</time>
      </trkpt>
      <trkpt lat="44.31364" lon="5.79772">
        <ele>615</ele>
        <time>2019-03-19T13:13:07Z</time>
      </trkpt>
      <trkpt lat="44.31367" lon="5.79766">
        <ele>615</ele>
        <time>2019-03-19T13:13:08Z</time>
      </trkpt>
      <trkpt lat="44.31371" lon="5.79761">
        <ele>615</ele>
        <time>2019-03-19T13:13:09Z</time>
      </trkpt>
      <trkpt lat="44.31374" lon="5.79755">
        <ele>615</ele>
        <time>2019-03-19T13:13:10Z</time>
      </trkpt>
      <trkpt lat="44.31377" lon="5.7975">
        <ele>615</ele>
        <time>2019-03-19T13:13:11Z</time>
      </trkpt>
      <trkpt lat="44.3138" lon="5.79745">
        <ele>615</ele>
        <time>2019-03-19T13:13:12Z</time>
      </trkpt>
      <trkpt lat="44.31384" lon="5.7974">
        <ele>615</ele>
        <time>2019-03-19T13:13:13Z</time>
      </trkpt>
      <trkpt lat="44.31386" lon="5.79735">
        <ele>615</ele>
        <time>2019-03-19T13:13:14Z</time>
      </trkpt>
      <trkpt lat="44.31389" lon="5.7973">
        <ele>615</ele>
        <time>2019-03-19T13:13:15Z</time>
      </trkpt>
      <trkpt lat="44.31392" lon="5.79725">
        <ele>615</ele>
        <time>2019-03-19T13:13:16Z</time>
      </trkpt>
      <trkpt lat="44.31394" lon="5.7972">
        <ele>615</ele>
        <time>2019-03-19T13:13:17Z</time>
      </trkpt>
      <trkpt lat="44.31396" lon="5.79715">
        <ele>615</ele>
        <time>2019-03-19T13:13:18Z</time>
      </trkpt>
      <trkpt lat="44.31398" lon="5.79709">
        <ele>615</ele>
        <time>2019-03-19T13:13:19Z</time>
      </trkpt>
      <trkpt lat="44.314" lon="5.79704">
        <ele>615</ele>
        <time>2019-03-19T13:13:20Z</time>
      </trkpt>
      <trkpt lat="44.31402" lon="5.79699">
        <ele>615</ele>
        <time>2019-03-19T13:13:21Z</time>
      </trkpt>
      <trkpt lat="44.31403" lon="5.79693">
        <ele>615</ele>
        <time>2019-03-19T13:13:22Z</time>
      </trkpt>
      <trkpt lat="44.31405" lon="5.79687">
        <ele>615</ele>
        <time>2019-03-19T13:13:23Z</time>
      </trkpt>
      <trkpt lat="44.31406" lon="5.7968">
        <ele>615</ele>
        <time>2019-03-19T13:13:24Z</time>
      </trkpt>
      <trkpt lat="44.31408" lon="5.79674">
        <ele>615</ele>
        <time>2019-03-19T13:13:25Z</time>
      </trkpt>
      <trkpt lat="44.3141" lon="5.79667">
        <ele>615</ele>
        <time>2019-03-19T13:13:26Z</time>
      </trkpt>
      <trkpt lat="44.31411" lon="5.7966">
        <ele>615</ele>
        <time>2019-03-19T13:13:27Z</time>
      </trkpt>
      <trkpt lat="44.31413" lon="5.79653">
        <ele>615</ele>
        <time>2019-03-19T13:13:28Z</time>
      </trkpt>
      <trkpt lat="44.31415" lon="5.79646">
        <ele>614</ele>
        <time>2019-03-19T13:13:29Z</time>
      </trkpt>
      <trkpt lat="44.31417" lon="5.79638">
        <ele>614</ele>
        <time>2019-03-19T13:13:30Z</time>
      </trkpt>
      <trkpt lat="44.31419" lon="5.79631">
        <ele>613</ele>
        <time>2019-03-19T13:13:31Z</time>
      </trkpt>
      <trkpt lat="44.31421" lon="5.79623">
        <ele>613</ele>
        <time>2019-03-19T13:13:32Z</time>
      </trkpt>
      <trkpt lat="44.31422" lon="5.79615">
        <ele>613</ele>
        <time>2019-03-19T13:13:33Z</time>
      </trkpt>
      <trkpt lat="44.31424" lon="5.79608">
        <ele>612</ele>
        <time>2019-03-19T13:13:34Z</time>
      </trkpt>
      <trkpt lat="44.31426" lon="5.79601">
        <ele>612</ele>
        <time>2019-03-19T13:13:35Z</time>
      </trkpt>
      <trkpt lat="44.31427" lon="5.79593">
        <ele>612</ele>
        <time>2019-03-19T13:13:36Z</time>
      </trkpt>
      <trkpt lat="44.3143" lon="5.79586">
        <ele>611</ele>
        <time>2019-03-19T13:13:37Z</time>
      </trkpt>
      <trkpt lat="44.31431" lon="5.79578">
        <ele>611</ele>
        <time>2019-03-19T13:13:38Z</time>
      </trkpt>
      <trkpt lat="44.31433" lon="5.79571">
        <ele>610</ele>
        <time>2019-03-19T13:13:39Z</time>
      </trkpt>
      <trkpt lat="44.31435" lon="5.79564">
        <ele>610</ele>
        <time>2019-03-19T13:13:40Z</time>
      </trkpt>
      <trkpt lat="44.31437" lon="5.79557">
        <ele>610</ele>
        <time>2019-03-19T13:13:41Z</time>
      </trkpt>
      <trkpt lat="44.31439" lon="5.7955">
        <ele>609</ele>
        <time>2019-03-19T13:13:42Z</time>
      </trkpt>
      <trkpt lat="44.31441" lon="5.79542">
        <ele>609</ele>
        <time>2019-03-19T13:13:43Z</time>
      </trkpt>
      <trkpt lat="44.31443" lon="5.79535">
        <ele>608</ele>
        <time>2019-03-19T13:13:44Z</time>
      </trkpt>
      <trkpt lat="44.31445" lon="5.79528">
        <ele>608</ele>
        <time>2019-03-19T13:13:45Z</time>
      </trkpt>
      <trkpt lat="44.31448" lon="5.79521">
        <ele>608</ele>
        <time>2019-03-19T13:13:46Z</time>
      </trkpt>
      <trkpt lat="44.3145" lon="5.79514">
        <ele>607</ele>
        <time>2019-03-19T13:13:48Z</time>
      </trkpt>
      <trkpt lat="44.31451" lon="5.79506">
        <ele>607</ele>
        <time>2019-03-19T13:13:48Z</time>
      </trkpt>
      <trkpt lat="44.31453" lon="5.79499">
        <ele>606</ele>
        <time>2019-03-19T13:13:49Z</time>
      </trkpt>
      <trkpt lat="44.31455" lon="5.79491">
        <ele>606</ele>
        <time>2019-03-19T13:13:50Z</time>
      </trkpt>
      <trkpt lat="44.31457" lon="5.79483">
        <ele>605</ele>
        <time>2019-03-19T13:13:51Z</time>
      </trkpt>
      <trkpt lat="44.31459" lon="5.79476">
        <ele>605</ele>
        <time>2019-03-19T13:13:52Z</time>
      </trkpt>
      <trkpt lat="44.3146" lon="5.79468">
        <ele>604</ele>
        <time>2019-03-19T13:13:53Z</time>
      </trkpt>
      <trkpt lat="44.31461" lon="5.7946">
        <ele>604</ele>
        <time>2019-03-19T13:13:54Z</time>
      </trkpt>
      <trkpt lat="44.31462" lon="5.79452">
        <ele>603</ele>
        <time>2019-03-19T13:13:55Z</time>
      </trkpt>
      <trkpt lat="44.31463" lon="5.79444">
        <ele>603</ele>
        <time>2019-03-19T13:13:56Z</time>
      </trkpt>
      <trkpt lat="44.31464" lon="5.79435">
        <ele>602</ele>
        <time>2019-03-19T13:13:57Z</time>
      </trkpt>
      <trkpt lat="44.31464" lon="5.79427">
        <ele>602</ele>
        <time>2019-03-19T13:13:58Z</time>
      </trkpt>
      <trkpt lat="44.31464" lon="5.79419">
        <ele>601</ele>
        <time>2019-03-19T13:13:59Z</time>
      </trkpt>
      <trkpt lat="44.31464" lon="5.79411">
        <ele>601</ele>
        <time>2019-03-19T13:14:00Z</time>
      </trkpt>
      <trkpt lat="44.31463" lon="5.79403">
        <ele>600</ele>
        <time>2019-03-19T13:14:01Z</time>
      </trkpt>
      <trkpt lat="44.31462" lon="5.79394">
        <ele>600</ele>
        <time>2019-03-19T13:14:02Z</time>
      </trkpt>
      <trkpt lat="44.31461" lon="5.79386">
        <ele>599</ele>
        <time>2019-03-19T13:14:03Z</time>
      </trkpt>
      <trkpt lat="44.31461" lon="5.79378">
        <ele>599</ele>
        <time>2019-03-19T13:14:04Z</time>
      </trkpt>
      <trkpt lat="44.3146" lon="5.7937">
        <ele>598</ele>
        <time>2019-03-19T13:14:05Z</time>
      </trkpt>
      <trkpt lat="44.31459" lon="5.79362">
        <ele>598</ele>
        <time>2019-03-19T13:14:06Z</time>
      </trkpt>
      <trkpt lat="44.31458" lon="5.79353">
        <ele>597</ele>
        <time>2019-03-19T13:14:07Z</time>
      </trkpt>
      <trkpt lat="44.31458" lon="5.79345">
        <ele>597</ele>
        <time>2019-03-19T13:14:08Z</time>
      </trkpt>
      <trkpt lat="44.31458" lon="5.79336">
        <ele>597</ele>
        <time>2019-03-19T13:14:09Z</time>
      </trkpt>
      <trkpt lat="44.31459" lon="5.79327">
        <ele>596</ele>
        <time>2019-03-19T13:14:10Z</time>
      </trkpt>
      <trkpt lat="44.3146" lon="5.79318">
        <ele>596</ele>
        <time>2019-03-19T13:14:11Z</time>
      </trkpt>
      <trkpt lat="44.31461" lon="5.79309">
        <ele>596</ele>
        <time>2019-03-19T13:14:12Z</time>
      </trkpt>
      <trkpt lat="44.31463" lon="5.793">
        <ele>595</ele>
        <time>2019-03-19T13:14:13Z</time>
      </trkpt>
      <trkpt lat="44.31464" lon="5.79291">
        <ele>595</ele>
        <time>2019-03-19T13:14:14Z</time>
      </trkpt>
      <trkpt lat="44.31466" lon="5.79282">
        <ele>595</ele>
        <time>2019-03-19T13:14:15Z</time>
      </trkpt>
      <trkpt lat="44.31468" lon="5.79273">
        <ele>594</ele>
        <time>2019-03-19T13:14:16Z</time>
      </trkpt>
      <trkpt lat="44.3147" lon="5.79265">
        <ele>594</ele>
        <time>2019-03-19T13:14:17Z</time>
      </trkpt>
      <trkpt lat="44.31471" lon="5.79256">
        <ele>594</ele>
        <time>2019-03-19T13:14:18Z</time>
      </trkpt>
      <trkpt lat="44.31473" lon="5.79247">
        <ele>594</ele>
        <time>2019-03-19T13:14:19Z</time>
      </trkpt>
      <trkpt lat="44.31475" lon="5.79238">
        <ele>593</ele>
        <time>2019-03-19T13:14:20Z</time>
      </trkpt>
      <trkpt lat="44.31478" lon="5.7923">
        <ele>593</ele>
        <time>2019-03-19T13:14:21Z</time>
      </trkpt>
      <trkpt lat="44.31481" lon="5.79222">
        <ele>593</ele>
        <time>2019-03-19T13:14:22Z</time>
      </trkpt>
      <trkpt lat="44.31485" lon="5.79214">
        <ele>593</ele>
        <time>2019-03-19T13:14:23Z</time>
      </trkpt>
      <trkpt lat="44.31489" lon="5.79207">
        <ele>592</ele>
        <time>2019-03-19T13:14:24Z</time>
      </trkpt>
      <trkpt lat="44.31493" lon="5.792">
        <ele>592</ele>
        <time>2019-03-19T13:14:25Z</time>
      </trkpt>
      <trkpt lat="44.31497" lon="5.79193">
        <ele>592</ele>
        <time>2019-03-19T13:14:26Z</time>
      </trkpt>
      <trkpt lat="44.31501" lon="5.79186">
        <ele>591</ele>
        <time>2019-03-19T13:14:27Z</time>
      </trkpt>
      <trkpt lat="44.31504" lon="5.79178">
        <ele>591</ele>
        <time>2019-03-19T13:14:28Z</time>
      </trkpt>
      <trkpt lat="44.31507" lon="5.7917">
        <ele>591</ele>
        <time>2019-03-19T13:14:29Z</time>
      </trkpt>
      <trkpt lat="44.3151" lon="5.79162">
        <ele>590</ele>
        <time>2019-03-19T13:14:30Z</time>
      </trkpt>
      <trkpt lat="44.31513" lon="5.79153">
        <ele>590</ele>
        <time>2019-03-19T13:14:31Z</time>
      </trkpt>
      <trkpt lat="44.31516" lon="5.79144">
        <ele>590</ele>
        <time>2019-03-19T13:14:32Z</time>
      </trkpt>
      <trkpt lat="44.31518" lon="5.79136">
        <ele>589</ele>
        <time>2019-03-19T13:14:33Z</time>
      </trkpt>
      <trkpt lat="44.31521" lon="5.79127">
        <ele>589</ele>
        <time>2019-03-19T13:14:35Z</time>
      </trkpt>
      <trkpt lat="44.31523" lon="5.79118">
        <ele>589</ele>
        <time>2019-03-19T13:14:35Z</time>
      </trkpt>
      <trkpt lat="44.31526" lon="5.7911">
        <ele>588</ele>
        <time>2019-03-19T13:14:36Z</time>
      </trkpt>
      <trkpt lat="44.31529" lon="5.79101">
        <ele>588</ele>
        <time>2019-03-19T13:14:37Z</time>
      </trkpt>
      <trkpt lat="44.31531" lon="5.79093">
        <ele>588</ele>
        <time>2019-03-19T13:14:38Z</time>
      </trkpt>
      <trkpt lat="44.31534" lon="5.79085">
        <ele>588</ele>
        <time>2019-03-19T13:14:39Z</time>
      </trkpt>
      <trkpt lat="44.31536" lon="5.79077">
        <ele>588</ele>
        <time>2019-03-19T13:14:40Z</time>
      </trkpt>
      <trkpt lat="44.31539" lon="5.7907">
        <ele>588</ele>
        <time>2019-03-19T13:14:41Z</time>
      </trkpt>
      <trkpt lat="44.31542" lon="5.79062">
        <ele>588</ele>
        <time>2019-03-19T13:14:42Z</time>
      </trkpt>
      <trkpt lat="44.31545" lon="5.79054">
        <ele>587</ele>
        <time>2019-03-19T13:14:43Z</time>
      </trkpt>
      <trkpt lat="44.31548" lon="5.79047">
        <ele>587</ele>
        <time>2019-03-19T13:14:44Z</time>
      </trkpt>
      <trkpt lat="44.31551" lon="5.7904">
        <ele>587</ele>
        <time>2019-03-19T13:14:45Z</time>
      </trkpt>
      <trkpt lat="44.31554" lon="5.79033">
        <ele>587</ele>
        <time>2019-03-19T13:14:46Z</time>
      </trkpt>
      <trkpt lat="44.31557" lon="5.79027">
        <ele>587</ele>
        <time>2019-03-19T13:14:47Z</time>
      </trkpt>
      <trkpt lat="44.3156" lon="5.7902">
        <ele>587</ele>
        <time>2019-03-19T13:14:48Z</time>
      </trkpt>
      <trkpt lat="44.31562" lon="5.79014">
        <ele>587</ele>
        <time>2019-03-19T13:14:49Z</time>
      </trkpt>
      <trkpt lat="44.31564" lon="5.79007">
        <ele>587</ele>
        <time>2019-03-19T13:14:50Z</time>
      </trkpt>
      <trkpt lat="44.31567" lon="5.79001">
        <ele>587</ele>
        <time>2019-03-19T13:14:51Z</time>
      </trkpt>
      <trkpt lat="44.31568" lon="5.78995">
        <ele>587</ele>
        <time>2019-03-19T13:14:52Z</time>
      </trkpt>
      <trkpt lat="44.3157" lon="5.78989">
        <ele>587</ele>
        <time>2019-03-19T13:14:53Z</time>
      </trkpt>
      <trkpt lat="44.31571" lon="5.78982">
        <ele>587</ele>
        <time>2019-03-19T13:14:54Z</time>
      </trkpt>
      <trkpt lat="44.31572" lon="5.78975">
        <ele>587</ele>
        <time>2019-03-19T13:14:55Z</time>
      </trkpt>
      <trkpt lat="44.31573" lon="5.78969">
        <ele>587</ele>
        <time>2019-03-19T13:14:56Z</time>
      </trkpt>
      <trkpt lat="44.31575" lon="5.78962">
        <ele>587</ele>
        <time>2019-03-19T13:14:57Z</time>
      </trkpt>
      <trkpt lat="44.31576" lon="5.78955">
        <ele>587</ele>
        <time>2019-03-19T13:14:58Z</time>
      </trkpt>
      <trkpt lat="44.31577" lon="5.78948">
        <ele>587</ele>
        <time>2019-03-19T13:14:59Z</time>
      </trkpt>
      <trkpt lat="44.31577" lon="5.78942">
        <ele>587</ele>
        <time>2019-03-19T13:15:00Z</time>
      </trkpt>
      <trkpt lat="44.31578" lon="5.78936">
        <ele>587</ele>
        <time>2019-03-19T13:15:01Z</time>
      </trkpt>
      <trkpt lat="44.31578" lon="5.78929">
        <ele>587</ele>
        <time>2019-03-19T13:15:02Z</time>
      </trkpt>
      <trkpt lat="44.31579" lon="5.78921">
        <ele>587</ele>
        <time>2019-03-19T13:15:03Z</time>
      </trkpt>
      <trkpt lat="44.3158" lon="5.78913">
        <ele>587</ele>
        <time>2019-03-19T13:15:04Z</time>
      </trkpt>
      <trkpt lat="44.31581" lon="5.78906">
        <ele>587</ele>
        <time>2019-03-19T13:15:05Z</time>
      </trkpt>
      <trkpt lat="44.31581" lon="5.78899">
        <ele>587</ele>
        <time>2019-03-19T13:15:06Z</time>
      </trkpt>
      <trkpt lat="44.31582" lon="5.78892">
        <ele>587</ele>
        <time>2019-03-19T13:15:07Z</time>
      </trkpt>
      <trkpt lat="44.31583" lon="5.78886">
        <ele>587</ele>
        <time>2019-03-19T13:15:08Z</time>
      </trkpt>
      <trkpt lat="44.31583" lon="5.7888">
        <ele>587</ele>
        <time>2019-03-19T13:15:09Z</time>
      </trkpt>
      <trkpt lat="44.31584" lon="5.78874">
        <ele>587</ele>
        <time>2019-03-19T13:15:10Z</time>
      </trkpt>
      <trkpt lat="44.31585" lon="5.78868">
        <ele>587</ele>
        <time>2019-03-19T13:15:11Z</time>
      </trkpt>
      <trkpt lat="44.31585" lon="5.78863">
        <ele>587</ele>
        <time>2019-03-19T13:15:12Z</time>
      </trkpt>
      <trkpt lat="44.31586" lon="5.78858">
        <ele>587</ele>
        <time>2019-03-19T13:15:13Z</time>
      </trkpt>
      <trkpt lat="44.31587" lon="5.78853">
        <ele>587</ele>
        <time>2019-03-19T13:15:14Z</time>
      </trkpt>
      <trkpt lat="44.31588" lon="5.78848">
        <ele>587</ele>
        <time>2019-03-19T13:15:15Z</time>
      </trkpt>
      <trkpt lat="44.31589" lon="5.78843">
        <ele>587</ele>
        <time>2019-03-19T13:15:16Z</time>
      </trkpt>
      <trkpt lat="44.3159" lon="5.78839">
        <ele>587</ele>
        <time>2019-03-19T13:15:17Z</time>
      </trkpt>
      <trkpt lat="44.3159" lon="5.78835">
        <ele>587</ele>
        <time>2019-03-19T13:15:18Z</time>
      </trkpt>
      <trkpt lat="44.31591" lon="5.7883">
        <ele>587</ele>
        <time>2019-03-19T13:15:19Z</time>
      </trkpt>
      <trkpt lat="44.31591" lon="5.78827">
        <ele>587</ele>
        <time>2019-03-19T13:15:20Z</time>
      </trkpt>
      <trkpt lat="44.31592" lon="5.78823">
        <ele>587</ele>
        <time>2019-03-19T13:15:21Z</time>
      </trkpt>
      <trkpt lat="44.31592" lon="5.78819">
        <ele>588</ele>
        <time>2019-03-19T13:15:22Z</time>
      </trkpt>
      <trkpt lat="44.31593" lon="5.78815">
        <ele>588</ele>
        <time>2019-03-19T13:15:23Z</time>
      </trkpt>
      <trkpt lat="44.31593" lon="5.78811">
        <ele>589</ele>
        <time>2019-03-19T13:15:24Z</time>
      </trkpt>
      <trkpt lat="44.31594" lon="5.78807">
        <ele>589</ele>
        <time>2019-03-19T13:15:25Z</time>
      </trkpt>
      <trkpt lat="44.31594" lon="5.78803">
        <ele>589</ele>
        <time>2019-03-19T13:15:26Z</time>
      </trkpt>
      <trkpt lat="44.31594" lon="5.78799">
        <ele>590</ele>
        <time>2019-03-19T13:15:27Z</time>
      </trkpt>
      <trkpt lat="44.31595" lon="5.78795">
        <ele>590</ele>
        <time>2019-03-19T13:15:28Z</time>
      </trkpt>
      <trkpt lat="44.31595" lon="5.78791">
        <ele>590</ele>
        <time>2019-03-19T13:15:29Z</time>
      </trkpt>
      <trkpt lat="44.31595" lon="5.78787">
        <ele>591</ele>
        <time>2019-03-19T13:15:30Z</time>
      </trkpt>
      <trkpt lat="44.31595" lon="5.78783">
        <ele>591</ele>
        <time>2019-03-19T13:15:31Z</time>
      </trkpt>
      <trkpt lat="44.31595" lon="5.78779">
        <ele>591</ele>
        <time>2019-03-19T13:15:32Z</time>
      </trkpt>
      <trkpt lat="44.31595" lon="5.78775">
        <ele>592</ele>
        <time>2019-03-19T13:15:33Z</time>
      </trkpt>
      <trkpt lat="44.31595" lon="5.78771">
        <ele>592</ele>
        <time>2019-03-19T13:15:34Z</time>
      </trkpt>
      <trkpt lat="44.31596" lon="5.78767">
        <ele>592</ele>
        <time>2019-03-19T13:15:35Z</time>
      </trkpt>
      <trkpt lat="44.31596" lon="5.78764">
        <ele>593</ele>
        <time>2019-03-19T13:15:36Z</time>
      </trkpt>
      <trkpt lat="44.31596" lon="5.7876">
        <ele>593</ele>
        <time>2019-03-19T13:15:37Z</time>
      </trkpt>
      <trkpt lat="44.31596" lon="5.78757">
        <ele>593</ele>
        <time>2019-03-19T13:15:38Z</time>
      </trkpt>
      <trkpt lat="44.31597" lon="5.78753">
        <ele>594</ele>
        <time>2019-03-19T13:15:39Z</time>
      </trkpt>
      <trkpt lat="44.31597" lon="5.78749">
        <ele>594</ele>
        <time>2019-03-19T13:15:40Z</time>
      </trkpt>
      <trkpt lat="44.31597" lon="5.78746">
        <ele>594</ele>
        <time>2019-03-19T13:15:41Z</time>
      </trkpt>
      <trkpt lat="44.31597" lon="5.78742">
        <ele>595</ele>
        <time>2019-03-19T13:15:42Z</time>
      </trkpt>
      <trkpt lat="44.31598" lon="5.78739">
        <ele>595</ele>
        <time>2019-03-19T13:15:43Z</time>
      </trkpt>
      <trkpt lat="44.31598" lon="5.78734">
        <ele>596</ele>
        <time>2019-03-19T13:15:44Z</time>
      </trkpt>
      <trkpt lat="44.31598" lon="5.78731">
        <ele>596</ele>
        <time>2019-03-19T13:15:45Z</time>
      </trkpt>
      <trkpt lat="44.31598" lon="5.78727">
        <ele>596</ele>
        <time>2019-03-19T13:15:46Z</time>
      </trkpt>
      <trkpt lat="44.31599" lon="5.78723">
        <ele>597</ele>
        <time>2019-03-19T13:15:48Z</time>
      </trkpt>
      <trkpt lat="44.31599" lon="5.78719">
        <ele>597</ele>
        <time>2019-03-19T13:15:48Z</time>
      </trkpt>
      <trkpt lat="44.316" lon="5.78715">
        <ele>597</ele>
        <time>2019-03-19T13:15:49Z</time>
      </trkpt>
      <trkpt lat="44.316" lon="5.78711">
        <ele>598</ele>
        <time>2019-03-19T13:15:50Z</time>
      </trkpt>
      <trkpt lat="44.316" lon="5.78707">
        <ele>598</ele>
        <time>2019-03-19T13:15:51Z</time>
      </trkpt>
      <trkpt lat="44.316" lon="5.78703">
        <ele>599</ele>
        <time>2019-03-19T13:15:52Z</time>
      </trkpt>
      <trkpt lat="44.316" lon="5.78699">
        <ele>599</ele>
        <time>2019-03-19T13:15:53Z</time>
      </trkpt>
      <trkpt lat="44.316" lon="5.78695">
        <ele>600</ele>
        <time>2019-03-19T13:15:54Z</time>
      </trkpt>
      <trkpt lat="44.316" lon="5.78691">
        <ele>600</ele>
        <time>2019-03-19T13:15:55Z</time>
      </trkpt>
      <trkpt lat="44.316" lon="5.78687">
        <ele>600</ele>
        <time>2019-03-19T13:15:56Z</time>
      </trkpt>
      <trkpt lat="44.316" lon="5.78683">
        <ele>600</ele>
        <time>2019-03-19T13:15:57Z</time>
      </trkpt>
      <trkpt lat="44.316" lon="5.78679">
        <ele>601</ele>
        <time>2019-03-19T13:15:58Z</time>
      </trkpt>
      <trkpt lat="44.31599" lon="5.78675">
        <ele>601</ele>
        <time>2019-03-19T13:15:59Z</time>
      </trkpt>
      <trkpt lat="44.31599" lon="5.78671">
        <ele>601</ele>
        <time>2019-03-19T13:16:00Z</time>
      </trkpt>
      <trkpt lat="44.31599" lon="5.78667">
        <ele>601</ele>
        <time>2019-03-19T13:16:01Z</time>
      </trkpt>
      <trkpt lat="44.31599" lon="5.78663">
        <ele>601</ele>
        <time>2019-03-19T13:16:02Z</time>
      </trkpt>
      <trkpt lat="44.316" lon="5.78658">
        <ele>601</ele>
        <time>2019-03-19T13:16:03Z</time>
      </trkpt>
      <trkpt lat="44.316" lon="5.78654">
        <ele>601</ele>
        <time>2019-03-19T13:16:04Z</time>
      </trkpt>
      <trkpt lat="44.316" lon="5.78649">
        <ele>601</ele>
        <time>2019-03-19T13:16:05Z</time>
      </trkpt>
      <trkpt lat="44.316" lon="5.78645">
        <ele>601</ele>
        <time>2019-03-19T13:16:06Z</time>
      </trkpt>
      <trkpt lat="44.316" lon="5.7864">
        <ele>601</ele>
        <time>2019-03-19T13:16:07Z</time>
      </trkpt>
      <trkpt lat="44.316" lon="5.78636">
        <ele>601</ele>
        <time>2019-03-19T13:16:08Z</time>
      </trkpt>
      <trkpt lat="44.31599" lon="5.78631">
        <ele>601</ele>
        <time>2019-03-19T13:16:09Z</time>
      </trkpt>
      <trkpt lat="44.31599" lon="5.78626">
        <ele>601</ele>
        <time>2019-03-19T13:16:10Z</time>
      </trkpt>
      <trkpt lat="44.31599" lon="5.78622">
        <ele>601</ele>
        <time>2019-03-19T13:16:11Z</time>
      </trkpt>
      <trkpt lat="44.31599" lon="5.78617">
        <ele>601</ele>
        <time>2019-03-19T13:16:12Z</time>
      </trkpt>
      <trkpt lat="44.31599" lon="5.78613">
        <ele>602</ele>
        <time>2019-03-19T13:16:13Z</time>
      </trkpt>
      <trkpt lat="44.31599" lon="5.78609">
        <ele>602</ele>
        <time>2019-03-19T13:16:14Z</time>
      </trkpt>
      <trkpt lat="44.31599" lon="5.78605">
        <ele>602</ele>
        <time>2019-03-19T13:16:15Z</time>
      </trkpt>
      <trkpt lat="44.316" lon="5.78601">
        <ele>602</ele>
        <time>2019-03-19T13:16:16Z</time>
      </trkpt>
      <trkpt lat="44.316" lon="5.78596">
        <ele>602</ele>
        <time>2019-03-19T13:16:17Z</time>
      </trkpt>
      <trkpt lat="44.31601" lon="5.78592">
        <ele>602</ele>
        <time>2019-03-19T13:16:18Z</time>
      </trkpt>
      <trkpt lat="44.31601" lon="5.78588">
        <ele>602</ele>
        <time>2019-03-19T13:16:19Z</time>
      </trkpt>
      <trkpt lat="44.31602" lon="5.78583">
        <ele>602</ele>
        <time>2019-03-19T13:16:20Z</time>
      </trkpt>
      <trkpt lat="44.31603" lon="5.78579">
        <ele>602</ele>
        <time>2019-03-19T13:16:21Z</time>
      </trkpt>
      <trkpt lat="44.31605" lon="5.78575">
        <ele>602</ele>
        <time>2019-03-19T13:16:22Z</time>
      </trkpt>
      <trkpt lat="44.31607" lon="5.7857">
        <ele>602</ele>
        <time>2019-03-19T13:16:23Z</time>
      </trkpt>
      <trkpt lat="44.3161" lon="5.78565">
        <ele>602</ele>
        <time>2019-03-19T13:16:24Z</time>
      </trkpt>
      <trkpt lat="44.31614" lon="5.78559">
        <ele>602</ele>
        <time>2019-03-19T13:16:25Z</time>
      </trkpt>
      <trkpt lat="44.31619" lon="5.78555">
        <ele>602</ele>
        <time>2019-03-19T13:16:26Z</time>
      </trkpt>
      <trkpt lat="44.31624" lon="5.78551">
        <ele>602</ele>
        <time>2019-03-19T13:16:27Z</time>
      </trkpt>
      <trkpt lat="44.3163" lon="5.78547">
        <ele>602</ele>
        <time>2019-03-19T13:16:28Z</time>
      </trkpt>
      <trkpt lat="44.31636" lon="5.78545">
        <ele>602</ele>
        <time>2019-03-19T13:16:29Z</time>
      </trkpt>
      <trkpt lat="44.31642" lon="5.78542">
        <ele>602</ele>
        <time>2019-03-19T13:16:30Z</time>
      </trkpt>
      <trkpt lat="44.31649" lon="5.78539">
        <ele>602</ele>
        <time>2019-03-19T13:16:31Z</time>
      </trkpt>
      <trkpt lat="44.31656" lon="5.78536">
        <ele>602</ele>
        <time>2019-03-19T13:16:32Z</time>
      </trkpt>
      <trkpt lat="44.31663" lon="5.78533">
        <ele>602</ele>
        <time>2019-03-19T13:16:33Z</time>
      </trkpt>
      <trkpt lat="44.3167" lon="5.7853">
        <ele>602</ele>
        <time>2019-03-19T13:16:34Z</time>
      </trkpt>
      <trkpt lat="44.31677" lon="5.78527">
        <ele>602</ele>
        <time>2019-03-19T13:16:35Z</time>
      </trkpt>
      <trkpt lat="44.31684" lon="5.78524">
        <ele>601</ele>
        <time>2019-03-19T13:16:36Z</time>
      </trkpt>
      <trkpt lat="44.31691" lon="5.7852">
        <ele>601</ele>
        <time>2019-03-19T13:16:37Z</time>
      </trkpt>
      <trkpt lat="44.31698" lon="5.78517">
        <ele>600</ele>
        <time>2019-03-19T13:16:38Z</time>
      </trkpt>
      <trkpt lat="44.31705" lon="5.78514">
        <ele>600</ele>
        <time>2019-03-19T13:16:39Z</time>
      </trkpt>
      <trkpt lat="44.31712" lon="5.78511">
        <ele>600</ele>
        <time>2019-03-19T13:16:40Z</time>
      </trkpt>
      <trkpt lat="44.31719" lon="5.78508">
        <ele>599</ele>
        <time>2019-03-19T13:16:41Z</time>
      </trkpt>
      <trkpt lat="44.31726" lon="5.78504">
        <ele>599</ele>
        <time>2019-03-19T13:16:42Z</time>
      </trkpt>
      <trkpt lat="44.31733" lon="5.78499">
        <ele>598</ele>
        <time>2019-03-19T13:16:43Z</time>
      </trkpt>
      <trkpt lat="44.31739" lon="5.78494">
        <ele>598</ele>
        <time>2019-03-19T13:16:44Z</time>
      </trkpt>
      <trkpt lat="44.31745" lon="5.78488">
        <ele>598</ele>
        <time>2019-03-19T13:16:45Z</time>
      </trkpt>
      <trkpt lat="44.3175" lon="5.78481">
        <ele>598</ele>
        <time>2019-03-19T13:16:46Z</time>
      </trkpt>
      <trkpt lat="44.31755" lon="5.78474">
        <ele>598</ele>
        <time>2019-03-19T13:16:48Z</time>
      </trkpt>
      <trkpt lat="44.31758" lon="5.78468">
        <ele>598</ele>
        <time>2019-03-19T13:16:48Z</time>
      </trkpt>
      <trkpt lat="44.31762" lon="5.78461">
        <ele>598</ele>
        <time>2019-03-19T13:16:49Z</time>
      </trkpt>
      <trkpt lat="44.31765" lon="5.78455">
        <ele>598</ele>
        <time>2019-03-19T13:16:50Z</time>
      </trkpt>
      <trkpt lat="44.31768" lon="5.7845">
        <ele>598</ele>
        <time>2019-03-19T13:16:51Z</time>
      </trkpt>
      <trkpt lat="44.31771" lon="5.78444">
        <ele>598</ele>
        <time>2019-03-19T13:16:52Z</time>
      </trkpt>
      <trkpt lat="44.31774" lon="5.78439">
        <ele>598</ele>
        <time>2019-03-19T13:16:53Z</time>
      </trkpt>
      <trkpt lat="44.31777" lon="5.78434">
        <ele>598</ele>
        <time>2019-03-19T13:16:54Z</time>
      </trkpt>
      <trkpt lat="44.31779" lon="5.78429">
        <ele>598</ele>
        <time>2019-03-19T13:16:55Z</time>
      </trkpt>
      <trkpt lat="44.31782" lon="5.78424">
        <ele>598</ele>
        <time>2019-03-19T13:16:56Z</time>
      </trkpt>
      <trkpt lat="44.31785" lon="5.78419">
        <ele>598</ele>
        <time>2019-03-19T13:16:57Z</time>
      </trkpt>
      <trkpt lat="44.31787" lon="5.78414">
        <ele>598</ele>
        <time>2019-03-19T13:16:58Z</time>
      </trkpt>
      <trkpt lat="44.3179" lon="5.78409">
        <ele>598</ele>
        <time>2019-03-19T13:16:59Z</time>
      </trkpt>
      <trkpt lat="44.31793" lon="5.78404">
        <ele>598</ele>
        <time>2019-03-19T13:17:00Z</time>
      </trkpt>
      <trkpt lat="44.31797" lon="5.78398">
        <ele>598</ele>
        <time>2019-03-19T13:17:01Z</time>
      </trkpt>
      <trkpt lat="44.318" lon="5.78392">
        <ele>598</ele>
        <time>2019-03-19T13:17:02Z</time>
      </trkpt>
      <trkpt lat="44.31803" lon="5.78385">
        <ele>598</ele>
        <time>2019-03-19T13:17:03Z</time>
      </trkpt>
      <trkpt lat="44.31807" lon="5.78378">
        <ele>598</ele>
        <time>2019-03-19T13:17:04Z</time>
      </trkpt>
      <trkpt lat="44.3181" lon="5.78371">
        <ele>598</ele>
        <time>2019-03-19T13:17:05Z</time>
      </trkpt>
      <trkpt lat="44.31813" lon="5.78363">
        <ele>598</ele>
        <time>2019-03-19T13:17:06Z</time>
      </trkpt>
      <trkpt lat="44.31816" lon="5.78355">
        <ele>598</ele>
        <time>2019-03-19T13:17:07Z</time>
      </trkpt>
      <trkpt lat="44.31818" lon="5.78346">
        <ele>597</ele>
        <time>2019-03-19T13:17:08Z</time>
      </trkpt>
      <trkpt lat="44.31818" lon="5.78337">
        <ele>597</ele>
        <time>2019-03-19T13:17:09Z</time>
      </trkpt>
      <trkpt lat="44.31818" lon="5.78328">
        <ele>596</ele>
        <time>2019-03-19T13:17:10Z</time>
      </trkpt>
      <trkpt lat="44.31817" lon="5.78319">
        <ele>596</ele>
        <time>2019-03-19T13:17:11Z</time>
      </trkpt>
      <trkpt lat="44.31816" lon="5.7831">
        <ele>595</ele>
        <time>2019-03-19T13:17:12Z</time>
      </trkpt>
      <trkpt lat="44.31815" lon="5.78301">
        <ele>595</ele>
        <time>2019-03-19T13:17:13Z</time>
      </trkpt>
      <trkpt lat="44.31815" lon="5.78291">
        <ele>594</ele>
        <time>2019-03-19T13:17:14Z</time>
      </trkpt>
      <trkpt lat="44.31817" lon="5.78283">
        <ele>593</ele>
        <time>2019-03-19T13:17:15Z</time>
      </trkpt>
      <trkpt lat="44.3182" lon="5.78274">
        <ele>593</ele>
        <time>2019-03-19T13:17:16Z</time>
      </trkpt>
      <trkpt lat="44.31824" lon="5.78266">
        <ele>592</ele>
        <time>2019-03-19T13:17:17Z</time>
      </trkpt>
      <trkpt lat="44.31829" lon="5.78264">
        <ele>592</ele>
        <time>2019-03-19T13:17:18Z</time>
      </trkpt>
      <trkpt lat="44.31836" lon="5.78264">
        <ele>591</ele>
        <time>2019-03-19T13:17:19Z</time>
      </trkpt>
      <trkpt lat="44.31842" lon="5.78265">
        <ele>591</ele>
        <time>2019-03-19T13:17:20Z</time>
      </trkpt>
      <trkpt lat="44.31847" lon="5.78268">
        <ele>591</ele>
        <time>2019-03-19T13:17:21Z</time>
      </trkpt>
      <trkpt lat="44.31853" lon="5.7827">
        <ele>591</ele>
        <time>2019-03-19T13:17:22Z</time>
      </trkpt>
      <trkpt lat="44.31858" lon="5.78271">
        <ele>591</ele>
        <time>2019-03-19T13:17:23Z</time>
      </trkpt>
      <trkpt lat="44.31861" lon="5.78273">
        <ele>591</ele>
        <time>2019-03-19T13:17:24Z</time>
      </trkpt>
      <trkpt lat="44.31863" lon="5.78276">
        <ele>591</ele>
        <time>2019-03-19T13:17:25Z</time>
      </trkpt>
      <trkpt lat="44.31866" lon="5.78278">
        <ele>591</ele>
        <time>2019-03-19T13:17:26Z</time>
      </trkpt>
      <trkpt lat="44.31869" lon="5.78278">
        <ele>591</ele>
        <time>2019-03-19T13:17:27Z</time>
      </trkpt>
      <trkpt lat="44.31872" lon="5.78279">
        <ele>591</ele>
        <time>2019-03-19T13:17:28Z</time>
      </trkpt>
      <trkpt lat="44.31876" lon="5.7828">
        <ele>591</ele>
        <time>2019-03-19T13:17:29Z</time>
      </trkpt>
      <trkpt lat="44.31879" lon="5.78281">
        <ele>591</ele>
        <time>2019-03-19T13:17:30Z</time>
      </trkpt>
      <trkpt lat="44.31882" lon="5.78281">
        <ele>591</ele>
        <time>2019-03-19T13:17:31Z</time>
      </trkpt>
      <trkpt lat="44.31886" lon="5.78282">
        <ele>591</ele>
        <time>2019-03-19T13:17:32Z</time>
      </trkpt>
      <trkpt lat="44.31889" lon="5.78284">
        <ele>591</ele>
        <time>2019-03-19T13:17:33Z</time>
      </trkpt>
      <trkpt lat="44.31892" lon="5.78286">
        <ele>591</ele>
        <time>2019-03-19T13:17:34Z</time>
      </trkpt>
      <trkpt lat="44.31895" lon="5.78288">
        <ele>591</ele>
        <time>2019-03-19T13:17:35Z</time>
      </trkpt>
      <trkpt lat="44.31898" lon="5.78292">
        <ele>591</ele>
        <time>2019-03-19T13:17:36Z</time>
      </trkpt>
      <trkpt lat="44.319" lon="5.78296">
        <ele>591</ele>
        <time>2019-03-19T13:17:37Z</time>
      </trkpt>
      <trkpt lat="44.31903" lon="5.78299">
        <ele>591</ele>
        <time>2019-03-19T13:17:38Z</time>
      </trkpt>
      <trkpt lat="44.31907" lon="5.78301">
        <ele>591</ele>
        <time>2019-03-19T13:17:39Z</time>
      </trkpt>
      <trkpt lat="44.31911" lon="5.78302">
        <ele>591</ele>
        <time>2019-03-19T13:17:40Z</time>
      </trkpt>
      <trkpt lat="44.31913" lon="5.78303">
        <ele>592</ele>
        <time>2019-03-19T13:17:41Z</time>
      </trkpt>
      <trkpt lat="44.31916" lon="5.78306">
        <ele>593</ele>
        <time>2019-03-19T13:17:42Z</time>
      </trkpt>
      <trkpt lat="44.31918" lon="5.78307">
        <ele>594</ele>
        <time>2019-03-19T13:17:43Z</time>
      </trkpt>
      <trkpt lat="44.31921" lon="5.78308">
        <ele>594</ele>
        <time>2019-03-19T13:17:44Z</time>
      </trkpt>
      <trkpt lat="44.31925" lon="5.78308">
        <ele>595</ele>
        <time>2019-03-19T13:17:45Z</time>
      </trkpt>
      <trkpt lat="44.31928" lon="5.78309">
        <ele>595</ele>
        <time>2019-03-19T13:17:46Z</time>
      </trkpt>
      <trkpt lat="44.31931" lon="5.78309">
        <ele>595</ele>
        <time>2019-03-19T13:17:48Z</time>
      </trkpt>
      <trkpt lat="44.31934" lon="5.78309">
        <ele>595</ele>
        <time>2019-03-19T13:17:48Z</time>
      </trkpt>
      <trkpt lat="44.31937" lon="5.78309">
        <ele>596</ele>
        <time>2019-03-19T13:17:49Z</time>
      </trkpt>
      <trkpt lat="44.3194" lon="5.78309">
        <ele>596</ele>
        <time>2019-03-19T13:17:50Z</time>
      </trkpt>
      <trkpt lat="44.31944" lon="5.78308">
        <ele>596</ele>
        <time>2019-03-19T13:17:51Z</time>
      </trkpt>
      <trkpt lat="44.31947" lon="5.78307">
        <ele>596</ele>
        <time>2019-03-19T13:17:52Z</time>
      </trkpt>
      <trkpt lat="44.3195" lon="5.78306">
        <ele>596</ele>
        <time>2019-03-19T13:17:53Z</time>
      </trkpt>
      <trkpt lat="44.31953" lon="5.78305">
        <ele>597</ele>
        <time>2019-03-19T13:17:54Z</time>
      </trkpt>
      <trkpt lat="44.31956" lon="5.78303">
        <ele>597</ele>
        <time>2019-03-19T13:17:55Z</time>
      </trkpt>
      <trkpt lat="44.31959" lon="5.78301">
        <ele>597</ele>
        <time>2019-03-19T13:17:56Z</time>
      </trkpt>
      <trkpt lat="44.31963" lon="5.78298">
        <ele>598</ele>
        <time>2019-03-19T13:17:57Z</time>
      </trkpt>
      <trkpt lat="44.31966" lon="5.78296">
        <ele>599</ele>
        <time>2019-03-19T13:17:58Z</time>
      </trkpt>
      <trkpt lat="44.31969" lon="5.78294">
        <ele>599</ele>
        <time>2019-03-19T13:17:59Z</time>
      </trkpt>
      <trkpt lat="44.31972" lon="5.78291">
        <ele>599</ele>
        <time>2019-03-19T13:18:00Z</time>
      </trkpt>
      <trkpt lat="44.31976" lon="5.78288">
        <ele>600</ele>
        <time>2019-03-19T13:18:01Z</time>
      </trkpt>
      <trkpt lat="44.31979" lon="5.78285">
        <ele>600</ele>
        <time>2019-03-19T13:18:02Z</time>
      </trkpt>
      <trkpt lat="44.31983" lon="5.78282">
        <ele>600</ele>
        <time>2019-03-19T13:18:03Z</time>
      </trkpt>
      <trkpt lat="44.31987" lon="5.78278">
        <ele>600</ele>
        <time>2019-03-19T13:18:04Z</time>
      </trkpt>
      <trkpt lat="44.31991" lon="5.78275">
        <ele>600</ele>
        <time>2019-03-19T13:18:05Z</time>
      </trkpt>
      <trkpt lat="44.31995" lon="5.78272">
        <ele>600</ele>
        <time>2019-03-19T13:18:06Z</time>
      </trkpt>
      <trkpt lat="44.31999" lon="5.78268">
        <ele>600</ele>
        <time>2019-03-19T13:18:07Z</time>
      </trkpt>
      <trkpt lat="44.32003" lon="5.78265">
        <ele>600</ele>
        <time>2019-03-19T13:18:08Z</time>
      </trkpt>
      <trkpt lat="44.32007" lon="5.78261">
        <ele>600</ele>
        <time>2019-03-19T13:18:09Z</time>
      </trkpt>
      <trkpt lat="44.32011" lon="5.78258">
        <ele>600</ele>
        <time>2019-03-19T13:18:10Z</time>
      </trkpt>
      <trkpt lat="44.32016" lon="5.78254">
        <ele>600</ele>
        <time>2019-03-19T13:18:11Z</time>
      </trkpt>
      <trkpt lat="44.3202" lon="5.7825">
        <ele>600</ele>
        <time>2019-03-19T13:18:12Z</time>
      </trkpt>
      <trkpt lat="44.32024" lon="5.78246">
        <ele>600</ele>
        <time>2019-03-19T13:18:13Z</time>
      </trkpt>
      <trkpt lat="44.32028" lon="5.78242">
        <ele>600</ele>
        <time>2019-03-19T13:18:14Z</time>
      </trkpt>
      <trkpt lat="44.32032" lon="5.78238">
        <ele>600</ele>
        <time>2019-03-19T13:18:15Z</time>
      </trkpt>
      <trkpt lat="44.32037" lon="5.78234">
        <ele>600</ele>
        <time>2019-03-19T13:18:16Z</time>
      </trkpt>
      <trkpt lat="44.32041" lon="5.78229">
        <ele>600</ele>
        <time>2019-03-19T13:18:17Z</time>
      </trkpt>
      <trkpt lat="44.32045" lon="5.78225">
        <ele>600</ele>
        <time>2019-03-19T13:18:18Z</time>
      </trkpt>
      <trkpt lat="44.32049" lon="5.78221">
        <ele>600</ele>
        <time>2019-03-19T13:18:19Z</time>
      </trkpt>
      <trkpt lat="44.32053" lon="5.78217">
        <ele>600</ele>
        <time>2019-03-19T13:18:20Z</time>
      </trkpt>
      <trkpt lat="44.32057" lon="5.78213">
        <ele>600</ele>
        <time>2019-03-19T13:18:21Z</time>
      </trkpt>
      <trkpt lat="44.32061" lon="5.78209">
        <ele>600</ele>
        <time>2019-03-19T13:18:22Z</time>
      </trkpt>
      <trkpt lat="44.32065" lon="5.78205">
        <ele>600</ele>
        <time>2019-03-19T13:18:23Z</time>
      </trkpt>
      <trkpt lat="44.32069" lon="5.78201">
        <ele>600</ele>
        <time>2019-03-19T13:18:24Z</time>
      </trkpt>
      <trkpt lat="44.32072" lon="5.78197">
        <ele>600</ele>
        <time>2019-03-19T13:18:25Z</time>
      </trkpt>
      <trkpt lat="44.32076" lon="5.78193">
        <ele>600</ele>
        <time>2019-03-19T13:18:26Z</time>
      </trkpt>
      <trkpt lat="44.3208" lon="5.78189">
        <ele>600</ele>
        <time>2019-03-19T13:18:27Z</time>
      </trkpt>
      <trkpt lat="44.32084" lon="5.78186">
        <ele>600</ele>
        <time>2019-03-19T13:18:28Z</time>
      </trkpt>
      <trkpt lat="44.32087" lon="5.78182">
        <ele>600</ele>
        <time>2019-03-19T13:18:29Z</time>
      </trkpt>
      <trkpt lat="44.32091" lon="5.78178">
        <ele>600</ele>
        <time>2019-03-19T13:18:30Z</time>
      </trkpt>
      <trkpt lat="44.32095" lon="5.78174">
        <ele>600</ele>
        <time>2019-03-19T13:18:31Z</time>
      </trkpt>
      <trkpt lat="44.32098" lon="5.7817">
        <ele>600</ele>
        <time>2019-03-19T13:18:32Z</time>
      </trkpt>
      <trkpt lat="44.32102" lon="5.78166">
        <ele>600</ele>
        <time>2019-03-19T13:18:33Z</time>
      </trkpt>
      <trkpt lat="44.32106" lon="5.78162">
        <ele>600</ele>
        <time>2019-03-19T13:18:34Z</time>
      </trkpt>
      <trkpt lat="44.3211" lon="5.78159">
        <ele>600</ele>
        <time>2019-03-19T13:18:35Z</time>
      </trkpt>
      <trkpt lat="44.32114" lon="5.78155">
        <ele>600</ele>
        <time>2019-03-19T13:18:36Z</time>
      </trkpt>
      <trkpt lat="44.32117" lon="5.78151">
        <ele>600</ele>
        <time>2019-03-19T13:18:37Z</time>
      </trkpt>
      <trkpt lat="44.32121" lon="5.78148">
        <ele>600</ele>
        <time>2019-03-19T13:18:38Z</time>
      </trkpt>
      <trkpt lat="44.32124" lon="5.78144">
        <ele>600</ele>
        <time>2019-03-19T13:18:39Z</time>
      </trkpt>
      <trkpt lat="44.32128" lon="5.7814">
        <ele>600</ele>
        <time>2019-03-19T13:18:40Z</time>
      </trkpt>
      <trkpt lat="44.32132" lon="5.78136">
        <ele>600</ele>
        <time>2019-03-19T13:18:41Z</time>
      </trkpt>
      <trkpt lat="44.32136" lon="5.78133">
        <ele>600</ele>
        <time>2019-03-19T13:18:42Z</time>
      </trkpt>
      <trkpt lat="44.3214" lon="5.78129">
        <ele>600</ele>
        <time>2019-03-19T13:18:43Z</time>
      </trkpt>
      <trkpt lat="44.32144" lon="5.78126">
        <ele>600</ele>
        <time>2019-03-19T13:18:44Z</time>
      </trkpt>
      <trkpt lat="44.32148" lon="5.78122">
        <ele>600</ele>
        <time>2019-03-19T13:18:45Z</time>
      </trkpt>
      <trkpt lat="44.32151" lon="5.78119">
        <ele>600</ele>
        <time>2019-03-19T13:18:46Z</time>
      </trkpt>
      <trkpt lat="44.32155" lon="5.78115">
        <ele>600</ele>
        <time>2019-03-19T13:18:48Z</time>
      </trkpt>
      <trkpt lat="44.32159" lon="5.78111">
        <ele>600</ele>
        <time>2019-03-19T13:18:48Z</time>
      </trkpt>
      <trkpt lat="44.32163" lon="5.78107">
        <ele>600</ele>
        <time>2019-03-19T13:18:49Z</time>
      </trkpt>
      <trkpt lat="44.32167" lon="5.78104">
        <ele>600</ele>
        <time>2019-03-19T13:18:50Z</time>
      </trkpt>
      <trkpt lat="44.3217" lon="5.781">
        <ele>600</ele>
        <time>2019-03-19T13:18:51Z</time>
      </trkpt>
      <trkpt lat="44.32174" lon="5.78097">
        <ele>600</ele>
        <time>2019-03-19T13:18:52Z</time>
      </trkpt>
      <trkpt lat="44.32178" lon="5.78094">
        <ele>600</ele>
        <time>2019-03-19T13:18:53Z</time>
      </trkpt>
      <trkpt lat="44.32182" lon="5.78091">
        <ele>600</ele>
        <time>2019-03-19T13:18:54Z</time>
      </trkpt>
      <trkpt lat="44.32186" lon="5.78088">
        <ele>600</ele>
        <time>2019-03-19T13:18:55Z</time>
      </trkpt>
      <trkpt lat="44.3219" lon="5.78085">
        <ele>600</ele>
        <time>2019-03-19T13:18:56Z</time>
      </trkpt>
      <trkpt lat="44.32194" lon="5.78082">
        <ele>600</ele>
        <time>2019-03-19T13:18:57Z</time>
      </trkpt>
      <trkpt lat="44.32199" lon="5.78079">
        <ele>600</ele>
        <time>2019-03-19T13:18:58Z</time>
      </trkpt>
      <trkpt lat="44.32203" lon="5.78077">
        <ele>600</ele>
        <time>2019-03-19T13:18:59Z</time>
      </trkpt>
      <trkpt lat="44.32208" lon="5.78074">
        <ele>600</ele>
        <time>2019-03-19T13:19:00Z</time>
      </trkpt>
      <trkpt lat="44.32212" lon="5.78071">
        <ele>600</ele>
        <time>2019-03-19T13:19:01Z</time>
      </trkpt>
      <trkpt lat="44.32217" lon="5.78067">
        <ele>600</ele>
        <time>2019-03-19T13:19:02Z</time>
      </trkpt>
      <trkpt lat="44.32221" lon="5.78065">
        <ele>600</ele>
        <time>2019-03-19T13:19:03Z</time>
      </trkpt>
      <trkpt lat="44.32226" lon="5.78062">
        <ele>600</ele>
        <time>2019-03-19T13:19:04Z</time>
      </trkpt>
      <trkpt lat="44.3223" lon="5.78059">
        <ele>600</ele>
        <time>2019-03-19T13:19:05Z</time>
      </trkpt>
      <trkpt lat="44.32235" lon="5.78056">
        <ele>600</ele>
        <time>2019-03-19T13:19:06Z</time>
      </trkpt>
      <trkpt lat="44.3224" lon="5.78054">
        <ele>600</ele>
        <time>2019-03-19T13:19:07Z</time>
      </trkpt>
      <trkpt lat="44.32244" lon="5.78051">
        <ele>600</ele>
        <time>2019-03-19T13:19:08Z</time>
      </trkpt>
      <trkpt lat="44.32249" lon="5.78048">
        <ele>600</ele>
        <time>2019-03-19T13:19:09Z</time>
      </trkpt>
      <trkpt lat="44.32254" lon="5.78045">
        <ele>600</ele>
        <time>2019-03-19T13:19:10Z</time>
      </trkpt>
      <trkpt lat="44.32259" lon="5.78042">
        <ele>600</ele>
        <time>2019-03-19T13:19:11Z</time>
      </trkpt>
      <trkpt lat="44.32263" lon="5.78039">
        <ele>600</ele>
        <time>2019-03-19T13:19:12Z</time>
      </trkpt>
      <trkpt lat="44.32268" lon="5.78036">
        <ele>600</ele>
        <time>2019-03-19T13:19:13Z</time>
      </trkpt>
      <trkpt lat="44.32273" lon="5.78033">
        <ele>600</ele>
        <time>2019-03-19T13:19:14Z</time>
      </trkpt>
      <trkpt lat="44.32278" lon="5.7803">
        <ele>600</ele>
        <time>2019-03-19T13:19:15Z</time>
      </trkpt>
      <trkpt lat="44.32282" lon="5.78027">
        <ele>600</ele>
        <time>2019-03-19T13:19:16Z</time>
      </trkpt>
      <trkpt lat="44.32287" lon="5.78024">
        <ele>600</ele>
        <time>2019-03-19T13:19:17Z</time>
      </trkpt>
      <trkpt lat="44.32292" lon="5.78021">
        <ele>600</ele>
        <time>2019-03-19T13:19:18Z</time>
      </trkpt>
      <trkpt lat="44.32297" lon="5.78019">
        <ele>600</ele>
        <time>2019-03-19T13:19:19Z</time>
      </trkpt>
      <trkpt lat="44.32301" lon="5.78015">
        <ele>600</ele>
        <time>2019-03-19T13:19:20Z</time>
      </trkpt>
      <trkpt lat="44.32306" lon="5.78013">
        <ele>600</ele>
        <time>2019-03-19T13:19:21Z</time>
      </trkpt>
      <trkpt lat="44.32311" lon="5.7801">
        <ele>600</ele>
        <time>2019-03-19T13:19:22Z</time>
      </trkpt>
      <trkpt lat="44.32315" lon="5.78007">
        <ele>600</ele>
        <time>2019-03-19T13:19:23Z</time>
      </trkpt>
      <trkpt lat="44.3232" lon="5.78004">
        <ele>600</ele>
        <time>2019-03-19T13:19:24Z</time>
      </trkpt>
      <trkpt lat="44.32325" lon="5.78">
        <ele>600</ele>
        <time>2019-03-19T13:19:25Z</time>
      </trkpt>
      <trkpt lat="44.3233" lon="5.77997">
        <ele>600</ele>
        <time>2019-03-19T13:19:26Z</time>
      </trkpt>
      <trkpt lat="44.32335" lon="5.77994">
        <ele>600</ele>
        <time>2019-03-19T13:19:27Z</time>
      </trkpt>
      <trkpt lat="44.32339" lon="5.77991">
        <ele>600</ele>
        <time>2019-03-19T13:19:28Z</time>
      </trkpt>
      <trkpt lat="44.32344" lon="5.77988">
        <ele>600</ele>
        <time>2019-03-19T13:19:29Z</time>
      </trkpt>
      <trkpt lat="44.3235" lon="5.77985">
        <ele>600</ele>
        <time>2019-03-19T13:19:30Z</time>
      </trkpt>
      <trkpt lat="44.32355" lon="5.77982">
        <ele>600</ele>
        <time>2019-03-19T13:19:31Z</time>
      </trkpt>
      <trkpt lat="44.3236" lon="5.77979">
        <ele>600</ele>
        <time>2019-03-19T13:19:32Z</time>
      </trkpt>
      <trkpt lat="44.32365" lon="5.77976">
        <ele>600</ele>
        <time>2019-03-19T13:19:33Z</time>
      </trkpt>
      <trkpt lat="44.3237" lon="5.77973">
        <ele>600</ele>
        <time>2019-03-19T13:19:34Z</time>
      </trkpt>
      <trkpt lat="44.32375" lon="5.7797">
        <ele>600</ele>
        <time>2019-03-19T13:19:35Z</time>
      </trkpt>
      <trkpt lat="44.32381" lon="5.77967">
        <ele>600</ele>
        <time>2019-03-19T13:19:36Z</time>
      </trkpt>
      <trkpt lat="44.32386" lon="5.77964">
        <ele>600</ele>
        <time>2019-03-19T13:19:37Z</time>
      </trkpt>
      <trkpt lat="44.32391" lon="5.77961">
        <ele>600</ele>
        <time>2019-03-19T13:19:38Z</time>
      </trkpt>
      <trkpt lat="44.32396" lon="5.77958">
        <ele>600</ele>
        <time>2019-03-19T13:19:39Z</time>
      </trkpt>
      <trkpt lat="44.32401" lon="5.77955">
        <ele>600</ele>
        <time>2019-03-19T13:19:40Z</time>
      </trkpt>
      <trkpt lat="44.32406" lon="5.77952">
        <ele>600</ele>
        <time>2019-03-19T13:19:41Z</time>
      </trkpt>
      <trkpt lat="44.32412" lon="5.77949">
        <ele>600</ele>
        <time>2019-03-19T13:19:42Z</time>
      </trkpt>
      <trkpt lat="44.32417" lon="5.77946">
        <ele>600</ele>
        <time>2019-03-19T13:19:43Z</time>
      </trkpt>
      <trkpt lat="44.32422" lon="5.77943">
        <ele>600</ele>
        <time>2019-03-19T13:19:44Z</time>
      </trkpt>
      <trkpt lat="44.32427" lon="5.77939">
        <ele>600</ele>
        <time>2019-03-19T13:19:45Z</time>
      </trkpt>
      <trkpt lat="44.32432" lon="5.77936">
        <ele>600</ele>
        <time>2019-03-19T13:19:46Z</time>
      </trkpt>
      <trkpt lat="44.32437" lon="5.77933">
        <ele>600</ele>
        <time>2019-03-19T13:19:47Z</time>
      </trkpt>
      <trkpt lat="44.32442" lon="5.77929">
        <ele>600</ele>
        <time>2019-03-19T13:19:48Z</time>
      </trkpt>
      <trkpt lat="44.32448" lon="5.77926">
        <ele>600</ele>
        <time>2019-03-19T13:19:49Z</time>
      </trkpt>
      <trkpt lat="44.32453" lon="5.77922">
        <ele>600</ele>
        <time>2019-03-19T13:19:50Z</time>
      </trkpt>
      <trkpt lat="44.32458" lon="5.77919">
        <ele>600</ele>
        <time>2019-03-19T13:19:51Z</time>
      </trkpt>
      <trkpt lat="44.32463" lon="5.77915">
        <ele>600</ele>
        <time>2019-03-19T13:19:52Z</time>
      </trkpt>
      <trkpt lat="44.32468" lon="5.77912">
        <ele>600</ele>
        <time>2019-03-19T13:19:53Z</time>
      </trkpt>
      <trkpt lat="44.32473" lon="5.77908">
        <ele>600</ele>
        <time>2019-03-19T13:19:54Z</time>
      </trkpt>
      <trkpt lat="44.32478" lon="5.77904">
        <ele>600</ele>
        <time>2019-03-19T13:19:55Z</time>
      </trkpt>
      <trkpt lat="44.32483" lon="5.779">
        <ele>600</ele>
        <time>2019-03-19T13:19:56Z</time>
      </trkpt>
      <trkpt lat="44.32487" lon="5.77895">
        <ele>600</ele>
        <time>2019-03-19T13:19:57Z</time>
      </trkpt>
      <trkpt lat="44.32492" lon="5.77891">
        <ele>600</ele>
        <time>2019-03-19T13:19:58Z</time>
      </trkpt>
      <trkpt lat="44.32497" lon="5.77886">
        <ele>600</ele>
        <time>2019-03-19T13:19:59Z</time>
      </trkpt>
      <trkpt lat="44.32502" lon="5.77882">
        <ele>600</ele>
        <time>2019-03-19T13:20:00Z</time>
      </trkpt>
      <trkpt lat="44.32506" lon="5.77878">
        <ele>599</ele>
        <time>2019-03-19T13:20:01Z</time>
      </trkpt>
      <trkpt lat="44.32511" lon="5.77873">
        <ele>599</ele>
        <time>2019-03-19T13:20:02Z</time>
      </trkpt>
      <trkpt lat="44.32515" lon="5.77869">
        <ele>599</ele>
        <time>2019-03-19T13:20:03Z</time>
      </trkpt>
      <trkpt lat="44.3252" lon="5.77865">
        <ele>599</ele>
        <time>2019-03-19T13:20:04Z</time>
      </trkpt>
      <trkpt lat="44.32525" lon="5.7786">
        <ele>599</ele>
        <time>2019-03-19T13:20:05Z</time>
      </trkpt>
      <trkpt lat="44.32529" lon="5.77856">
        <ele>599</ele>
        <time>2019-03-19T13:20:06Z</time>
      </trkpt>
      <trkpt lat="44.32534" lon="5.77852">
        <ele>599</ele>
        <time>2019-03-19T13:20:07Z</time>
      </trkpt>
      <trkpt lat="44.32539" lon="5.77848">
        <ele>599</ele>
        <time>2019-03-19T13:20:08Z</time>
      </trkpt>
      <trkpt lat="44.32543" lon="5.77844">
        <ele>599</ele>
        <time>2019-03-19T13:20:09Z</time>
      </trkpt>
      <trkpt lat="44.32548" lon="5.7784">
        <ele>599</ele>
        <time>2019-03-19T13:20:10Z</time>
      </trkpt>
      <trkpt lat="44.32553" lon="5.77836">
        <ele>598</ele>
        <time>2019-03-19T13:20:11Z</time>
      </trkpt>
      <trkpt lat="44.32557" lon="5.77831">
        <ele>598</ele>
        <time>2019-03-19T13:20:12Z</time>
      </trkpt>
      <trkpt lat="44.32562" lon="5.77827">
        <ele>598</ele>
        <time>2019-03-19T13:20:13Z</time>
      </trkpt>
      <trkpt lat="44.32567" lon="5.77823">
        <ele>598</ele>
        <time>2019-03-19T13:20:14Z</time>
      </trkpt>
      <trkpt lat="44.32572" lon="5.77819">
        <ele>598</ele>
        <time>2019-03-19T13:20:15Z</time>
      </trkpt>
      <trkpt lat="44.32577" lon="5.77815">
        <ele>598</ele>
        <time>2019-03-19T13:20:16Z</time>
      </trkpt>
      <trkpt lat="44.32582" lon="5.77811">
        <ele>598</ele>
        <time>2019-03-19T13:20:17Z</time>
      </trkpt>
      <trkpt lat="44.32587" lon="5.77807">
        <ele>597</ele>
        <time>2019-03-19T13:20:18Z</time>
      </trkpt>
      <trkpt lat="44.32592" lon="5.77803">
        <ele>597</ele>
        <time>2019-03-19T13:20:19Z</time>
      </trkpt>
      <trkpt lat="44.32597" lon="5.778">
        <ele>597</ele>
        <time>2019-03-19T13:20:20Z</time>
      </trkpt>
      <trkpt lat="44.32602" lon="5.77796">
        <ele>597</ele>
        <time>2019-03-19T13:20:21Z</time>
      </trkpt>
      <trkpt lat="44.32607" lon="5.77791">
        <ele>597</ele>
        <time>2019-03-19T13:20:22Z</time>
      </trkpt>
      <trkpt lat="44.32612" lon="5.77787">
        <ele>597</ele>
        <time>2019-03-19T13:20:23Z</time>
      </trkpt>
      <trkpt lat="44.32617" lon="5.77782">
        <ele>597</ele>
        <time>2019-03-19T13:20:24Z</time>
      </trkpt>
      <trkpt lat="44.32621" lon="5.77777">
        <ele>597</ele>
        <time>2019-03-19T13:20:25Z</time>
      </trkpt>
      <trkpt lat="44.32626" lon="5.77771">
        <ele>597</ele>
        <time>2019-03-19T13:20:26Z</time>
      </trkpt>
      <trkpt lat="44.3263" lon="5.77765">
        <ele>597</ele>
        <time>2019-03-19T13:20:27Z</time>
      </trkpt>
      <trkpt lat="44.32634" lon="5.77758">
        <ele>597</ele>
        <time>2019-03-19T13:20:28Z</time>
      </trkpt>
      <trkpt lat="44.32638" lon="5.77751">
        <ele>597</ele>
        <time>2019-03-19T13:20:29Z</time>
      </trkpt>
      <trkpt lat="44.32642" lon="5.77745">
        <ele>597</ele>
        <time>2019-03-19T13:20:30Z</time>
      </trkpt>
      <trkpt lat="44.32645" lon="5.77739">
        <ele>597</ele>
        <time>2019-03-19T13:20:31Z</time>
      </trkpt>
      <trkpt lat="44.32649" lon="5.77732">
        <ele>597</ele>
        <time>2019-03-19T13:20:32Z</time>
      </trkpt>
      <trkpt lat="44.32652" lon="5.77726">
        <ele>597</ele>
        <time>2019-03-19T13:20:33Z</time>
      </trkpt>
      <trkpt lat="44.32655" lon="5.77719">
        <ele>597</ele>
        <time>2019-03-19T13:20:34Z</time>
      </trkpt>
      <trkpt lat="44.32658" lon="5.77712">
        <ele>597</ele>
        <time>2019-03-19T13:20:35Z</time>
      </trkpt>
      <trkpt lat="44.3266" lon="5.77705">
        <ele>597</ele>
        <time>2019-03-19T13:20:36Z</time>
      </trkpt>
      <trkpt lat="44.32662" lon="5.77699">
        <ele>597</ele>
        <time>2019-03-19T13:20:37Z</time>
      </trkpt>
      <trkpt lat="44.32664" lon="5.77692">
        <ele>597</ele>
        <time>2019-03-19T13:20:38Z</time>
      </trkpt>
      <trkpt lat="44.32666" lon="5.77685">
        <ele>597</ele>
        <time>2019-03-19T13:20:39Z</time>
      </trkpt>
      <trkpt lat="44.32668" lon="5.77678">
        <ele>597</ele>
        <time>2019-03-19T13:20:40Z</time>
      </trkpt>
      <trkpt lat="44.32669" lon="5.77671">
        <ele>597</ele>
        <time>2019-03-19T13:20:41Z</time>
      </trkpt>
      <trkpt lat="44.32671" lon="5.77665">
        <ele>597</ele>
        <time>2019-03-19T13:20:42Z</time>
      </trkpt>
      <trkpt lat="44.32673" lon="5.77658">
        <ele>597</ele>
        <time>2019-03-19T13:20:43Z</time>
      </trkpt>
      <trkpt lat="44.32674" lon="5.77651">
        <ele>597</ele>
        <time>2019-03-19T13:20:44Z</time>
      </trkpt>
      <trkpt lat="44.32676" lon="5.77644">
        <ele>597</ele>
        <time>2019-03-19T13:20:45Z</time>
      </trkpt>
      <trkpt lat="44.32677" lon="5.77636">
        <ele>597</ele>
        <time>2019-03-19T13:20:46Z</time>
      </trkpt>
      <trkpt lat="44.3268" lon="5.7763">
        <ele>597</ele>
        <time>2019-03-19T13:20:48Z</time>
      </trkpt>
      <trkpt lat="44.32682" lon="5.77623">
        <ele>597</ele>
        <time>2019-03-19T13:20:48Z</time>
      </trkpt>
      <trkpt lat="44.32685" lon="5.77617">
        <ele>597</ele>
        <time>2019-03-19T13:20:49Z</time>
      </trkpt>
      <trkpt lat="44.32688" lon="5.77611">
        <ele>597</ele>
        <time>2019-03-19T13:20:50Z</time>
      </trkpt>
      <trkpt lat="44.32692" lon="5.77606">
        <ele>597</ele>
        <time>2019-03-19T13:20:51Z</time>
      </trkpt>
      <trkpt lat="44.32698" lon="5.77603">
        <ele>597</ele>
        <time>2019-03-19T13:20:52Z</time>
      </trkpt>
      <trkpt lat="44.32703" lon="5.77601">
        <ele>597</ele>
        <time>2019-03-19T13:20:53Z</time>
      </trkpt>
      <trkpt lat="44.32708" lon="5.77599">
        <ele>597</ele>
        <time>2019-03-19T13:20:54Z</time>
      </trkpt>
      <trkpt lat="44.32713" lon="5.77598">
        <ele>597</ele>
        <time>2019-03-19T13:20:55Z</time>
      </trkpt>
      <trkpt lat="44.32718" lon="5.77596">
        <ele>597</ele>
        <time>2019-03-19T13:20:56Z</time>
      </trkpt>
      <trkpt lat="44.32723" lon="5.77595">
        <ele>597</ele>
        <time>2019-03-19T13:20:57Z</time>
      </trkpt>
      <trkpt lat="44.32729" lon="5.77593">
        <ele>597</ele>
        <time>2019-03-19T13:20:58Z</time>
      </trkpt>
      <trkpt lat="44.32734" lon="5.77592">
        <ele>597</ele>
        <time>2019-03-19T13:20:59Z</time>
      </trkpt>
      <trkpt lat="44.32739" lon="5.7759">
        <ele>597</ele>
        <time>2019-03-19T13:21:00Z</time>
      </trkpt>
      <trkpt lat="44.32743" lon="5.77588">
        <ele>597</ele>
        <time>2019-03-19T13:21:01Z</time>
      </trkpt>
      <trkpt lat="44.32748" lon="5.77586">
        <ele>597</ele>
        <time>2019-03-19T13:21:02Z</time>
      </trkpt>
      <trkpt lat="44.32753" lon="5.77585">
        <ele>597</ele>
        <time>2019-03-19T13:21:03Z</time>
      </trkpt>
      <trkpt lat="44.32758" lon="5.77583">
        <ele>597</ele>
        <time>2019-03-19T13:21:04Z</time>
      </trkpt>
      <trkpt lat="44.32763" lon="5.77582">
        <ele>597</ele>
        <time>2019-03-19T13:21:05Z</time>
      </trkpt>
      <trkpt lat="44.32768" lon="5.7758">
        <ele>597</ele>
        <time>2019-03-19T13:21:06Z</time>
      </trkpt>
      <trkpt lat="44.32773" lon="5.7758">
        <ele>597</ele>
        <time>2019-03-19T13:21:07Z</time>
      </trkpt>
      <trkpt lat="44.32778" lon="5.77579">
        <ele>597</ele>
        <time>2019-03-19T13:21:08Z</time>
      </trkpt>
      <trkpt lat="44.32783" lon="5.77579">
        <ele>597</ele>
        <time>2019-03-19T13:21:09Z</time>
      </trkpt>
      <trkpt lat="44.32788" lon="5.7758">
        <ele>597</ele>
        <time>2019-03-19T13:21:10Z</time>
      </trkpt>
      <trkpt lat="44.32794" lon="5.77581">
        <ele>597</ele>
        <time>2019-03-19T13:21:11Z</time>
      </trkpt>
      <trkpt lat="44.32799" lon="5.77583">
        <ele>597</ele>
        <time>2019-03-19T13:21:12Z</time>
      </trkpt>
      <trkpt lat="44.32805" lon="5.77585">
        <ele>597</ele>
        <time>2019-03-19T13:21:13Z</time>
      </trkpt>
      <trkpt lat="44.32811" lon="5.77587">
        <ele>597</ele>
        <time>2019-03-19T13:21:14Z</time>
      </trkpt>
      <trkpt lat="44.32817" lon="5.7759">
        <ele>597</ele>
        <time>2019-03-19T13:21:15Z</time>
      </trkpt>
      <trkpt lat="44.32823" lon="5.77592">
        <ele>597</ele>
        <time>2019-03-19T13:21:16Z</time>
      </trkpt>
      <trkpt lat="44.3283" lon="5.77593">
        <ele>597</ele>
        <time>2019-03-19T13:21:17Z</time>
      </trkpt>
      <trkpt lat="44.32836" lon="5.77594">
        <ele>597</ele>
        <time>2019-03-19T13:21:18Z</time>
      </trkpt>
      <trkpt lat="44.32842" lon="5.77594">
        <ele>596</ele>
        <time>2019-03-19T13:21:19Z</time>
      </trkpt>
      <trkpt lat="44.32848" lon="5.77595">
        <ele>596</ele>
        <time>2019-03-19T13:21:20Z</time>
      </trkpt>
      <trkpt lat="44.32855" lon="5.77595">
        <ele>596</ele>
        <time>2019-03-19T13:21:21Z</time>
      </trkpt>
      <trkpt lat="44.32861" lon="5.77595">
        <ele>596</ele>
        <time>2019-03-19T13:21:22Z</time>
      </trkpt>
      <trkpt lat="44.32867" lon="5.77596">
        <ele>596</ele>
        <time>2019-03-19T13:21:23Z</time>
      </trkpt>
      <trkpt lat="44.32873" lon="5.77596">
        <ele>596</ele>
        <time>2019-03-19T13:21:24Z</time>
      </trkpt>
      <trkpt lat="44.32879" lon="5.77597">
        <ele>596</ele>
        <time>2019-03-19T13:21:25Z</time>
      </trkpt>
      <trkpt lat="44.32885" lon="5.77597">
        <ele>596</ele>
        <time>2019-03-19T13:21:26Z</time>
      </trkpt>
      <trkpt lat="44.32892" lon="5.77598">
        <ele>595</ele>
        <time>2019-03-19T13:21:27Z</time>
      </trkpt>
      <trkpt lat="44.32898" lon="5.77598">
        <ele>595</ele>
        <time>2019-03-19T13:21:28Z</time>
      </trkpt>
      <trkpt lat="44.32904" lon="5.77598">
        <ele>595</ele>
        <time>2019-03-19T13:21:29Z</time>
      </trkpt>
      <trkpt lat="44.3291" lon="5.77598">
        <ele>595</ele>
        <time>2019-03-19T13:21:30Z</time>
      </trkpt>
      <trkpt lat="44.32916" lon="5.77599">
        <ele>595</ele>
        <time>2019-03-19T13:21:31Z</time>
      </trkpt>
      <trkpt lat="44.32922" lon="5.77599">
        <ele>595</ele>
        <time>2019-03-19T13:21:32Z</time>
      </trkpt>
      <trkpt lat="44.32927" lon="5.77599">
        <ele>595</ele>
        <time>2019-03-19T13:21:33Z</time>
      </trkpt>
      <trkpt lat="44.32933" lon="5.77599">
        <ele>595</ele>
        <time>2019-03-19T13:21:34Z</time>
      </trkpt>
      <trkpt lat="44.32939" lon="5.77599">
        <ele>595</ele>
        <time>2019-03-19T13:21:35Z</time>
      </trkpt>
      <trkpt lat="44.32945" lon="5.77599">
        <ele>595</ele>
        <time>2019-03-19T13:21:36Z</time>
      </trkpt>
      <trkpt lat="44.32951" lon="5.77599">
        <ele>595</ele>
        <time>2019-03-19T13:21:37Z</time>
      </trkpt>
      <trkpt lat="44.32957" lon="5.776">
        <ele>595</ele>
        <time>2019-03-19T13:21:38Z</time>
      </trkpt>
      <trkpt lat="44.32963" lon="5.776">
        <ele>595</ele>
        <time>2019-03-19T13:21:39Z</time>
      </trkpt>
      <trkpt lat="44.32969" lon="5.776">
        <ele>595</ele>
        <time>2019-03-19T13:21:40Z</time>
      </trkpt>
      <trkpt lat="44.32975" lon="5.776">
        <ele>594</ele>
        <time>2019-03-19T13:21:41Z</time>
      </trkpt>
      <trkpt lat="44.32981" lon="5.776">
        <ele>594</ele>
        <time>2019-03-19T13:21:42Z</time>
      </trkpt>
      <trkpt lat="44.32987" lon="5.776">
        <ele>594</ele>
        <time>2019-03-19T13:21:43Z</time>
      </trkpt>
      <trkpt lat="44.32993" lon="5.776">
        <ele>594</ele>
        <time>2019-03-19T13:21:44Z</time>
      </trkpt>
      <trkpt lat="44.32999" lon="5.776">
        <ele>594</ele>
        <time>2019-03-19T13:21:45Z</time>
      </trkpt>
      <trkpt lat="44.33006" lon="5.77599">
        <ele>594</ele>
        <time>2019-03-19T13:21:46Z</time>
      </trkpt>
      <trkpt lat="44.33012" lon="5.77599">
        <ele>593</ele>
        <time>2019-03-19T13:21:47Z</time>
      </trkpt>
      <trkpt lat="44.3302" lon="5.77599">
        <ele>593</ele>
        <time>2019-03-19T13:21:48Z</time>
      </trkpt>
      <trkpt lat="44.33027" lon="5.77598">
        <ele>593</ele>
        <time>2019-03-19T13:21:49Z</time>
      </trkpt>
      <trkpt lat="44.33034" lon="5.77598">
        <ele>593</ele>
        <time>2019-03-19T13:21:50Z</time>
      </trkpt>
      <trkpt lat="44.33041" lon="5.77598">
        <ele>592</ele>
        <time>2019-03-19T13:21:51Z</time>
      </trkpt>
      <trkpt lat="44.33048" lon="5.77597">
        <ele>592</ele>
        <time>2019-03-19T13:21:52Z</time>
      </trkpt>
      <trkpt lat="44.33055" lon="5.77598">
        <ele>592</ele>
        <time>2019-03-19T13:21:53Z</time>
      </trkpt>
      <trkpt lat="44.33062" lon="5.77598">
        <ele>592</ele>
        <time>2019-03-19T13:21:54Z</time>
      </trkpt>
      <trkpt lat="44.3307" lon="5.77598">
        <ele>591</ele>
        <time>2019-03-19T13:21:55Z</time>
      </trkpt>
      <trkpt lat="44.33076" lon="5.77598">
        <ele>591</ele>
        <time>2019-03-19T13:21:56Z</time>
      </trkpt>
      <trkpt lat="44.33083" lon="5.77599">
        <ele>591</ele>
        <time>2019-03-19T13:21:57Z</time>
      </trkpt>
      <trkpt lat="44.3309" lon="5.77599">
        <ele>591</ele>
        <time>2019-03-19T13:21:58Z</time>
      </trkpt>
      <trkpt lat="44.33096" lon="5.77598">
        <ele>591</ele>
        <time>2019-03-19T13:21:59Z</time>
      </trkpt>
      <trkpt lat="44.33103" lon="5.77598">
        <ele>591</ele>
        <time>2019-03-19T13:22:00Z</time>
      </trkpt>
      <trkpt lat="44.3311" lon="5.77597">
        <ele>591</ele>
        <time>2019-03-19T13:22:01Z</time>
      </trkpt>
      <trkpt lat="44.33116" lon="5.77596">
        <ele>591</ele>
        <time>2019-03-19T13:22:02Z</time>
      </trkpt>
      <trkpt lat="44.33122" lon="5.77595">
        <ele>591</ele>
        <time>2019-03-19T13:22:03Z</time>
      </trkpt>
      <trkpt lat="44.33128" lon="5.77592">
        <ele>591</ele>
        <time>2019-03-19T13:22:04Z</time>
      </trkpt>
      <trkpt lat="44.33133" lon="5.77589">
        <ele>591</ele>
        <time>2019-03-19T13:22:05Z</time>
      </trkpt>
      <trkpt lat="44.33139" lon="5.77586">
        <ele>591</ele>
        <time>2019-03-19T13:22:06Z</time>
      </trkpt>
      <trkpt lat="44.33144" lon="5.77583">
        <ele>591</ele>
        <time>2019-03-19T13:22:07Z</time>
      </trkpt>
      <trkpt lat="44.33149" lon="5.77579">
        <ele>591</ele>
        <time>2019-03-19T13:22:08Z</time>
      </trkpt>
      <trkpt lat="44.33154" lon="5.77576">
        <ele>591</ele>
        <time>2019-03-19T13:22:09Z</time>
      </trkpt>
      <trkpt lat="44.33159" lon="5.77572">
        <ele>591</ele>
        <time>2019-03-19T13:22:10Z</time>
      </trkpt>
      <trkpt lat="44.33164" lon="5.77568">
        <ele>591</ele>
        <time>2019-03-19T13:22:11Z</time>
      </trkpt>
      <trkpt lat="44.33168" lon="5.77565">
        <ele>591</ele>
        <time>2019-03-19T13:22:12Z</time>
      </trkpt>
      <trkpt lat="44.33173" lon="5.77562">
        <ele>591</ele>
        <time>2019-03-19T13:22:13Z</time>
      </trkpt>
      <trkpt lat="44.33178" lon="5.77559">
        <ele>591</ele>
        <time>2019-03-19T13:22:14Z</time>
      </trkpt>
      <trkpt lat="44.33183" lon="5.77555">
        <ele>591</ele>
        <time>2019-03-19T13:22:15Z</time>
      </trkpt>
      <trkpt lat="44.33187" lon="5.77551">
        <ele>591</ele>
        <time>2019-03-19T13:22:16Z</time>
      </trkpt>
      <trkpt lat="44.33192" lon="5.77547">
        <ele>591</ele>
        <time>2019-03-19T13:22:17Z</time>
      </trkpt>
      <trkpt lat="44.33196" lon="5.77542">
        <ele>591</ele>
        <time>2019-03-19T13:22:18Z</time>
      </trkpt>
      <trkpt lat="44.332" lon="5.77536">
        <ele>591</ele>
        <time>2019-03-19T13:22:19Z</time>
      </trkpt>
      <trkpt lat="44.33205" lon="5.77531">
        <ele>591</ele>
        <time>2019-03-19T13:22:20Z</time>
      </trkpt>
      <trkpt lat="44.33209" lon="5.77526">
        <ele>591</ele>
        <time>2019-03-19T13:22:21Z</time>
      </trkpt>
      <trkpt lat="44.33213" lon="5.77522">
        <ele>591</ele>
        <time>2019-03-19T13:22:22Z</time>
      </trkpt>
      <trkpt lat="44.33218" lon="5.77518">
        <ele>591</ele>
        <time>2019-03-19T13:22:23Z</time>
      </trkpt>
      <trkpt lat="44.33223" lon="5.77514">
        <ele>591</ele>
        <time>2019-03-19T13:22:24Z</time>
      </trkpt>
      <trkpt lat="44.33228" lon="5.77511">
        <ele>591</ele>
        <time>2019-03-19T13:22:25Z</time>
      </trkpt>
      <trkpt lat="44.33233" lon="5.77509">
        <ele>591</ele>
        <time>2019-03-19T13:22:26Z</time>
      </trkpt>
      <trkpt lat="44.33238" lon="5.77507">
        <ele>591</ele>
        <time>2019-03-19T13:22:27Z</time>
      </trkpt>
      <trkpt lat="44.33243" lon="5.77505">
        <ele>591</ele>
        <time>2019-03-19T13:22:28Z</time>
      </trkpt>
      <trkpt lat="44.33249" lon="5.77504">
        <ele>591</ele>
        <time>2019-03-19T13:22:29Z</time>
      </trkpt>
      <trkpt lat="44.33254" lon="5.77503">
        <ele>591</ele>
        <time>2019-03-19T13:22:30Z</time>
      </trkpt>
      <trkpt lat="44.3326" lon="5.77502">
        <ele>591</ele>
        <time>2019-03-19T13:22:31Z</time>
      </trkpt>
      <trkpt lat="44.33265" lon="5.77502">
        <ele>591</ele>
        <time>2019-03-19T13:22:32Z</time>
      </trkpt>
      <trkpt lat="44.3327" lon="5.77501">
        <ele>591</ele>
        <time>2019-03-19T13:22:33Z</time>
      </trkpt>
      <trkpt lat="44.33276" lon="5.77501">
        <ele>591</ele>
        <time>2019-03-19T13:22:34Z</time>
      </trkpt>
      <trkpt lat="44.33281" lon="5.775">
        <ele>591</ele>
        <time>2019-03-19T13:22:35Z</time>
      </trkpt>
      <trkpt lat="44.33286" lon="5.775">
        <ele>591</ele>
        <time>2019-03-19T13:22:36Z</time>
      </trkpt>
      <trkpt lat="44.33291" lon="5.77501">
        <ele>591</ele>
        <time>2019-03-19T13:22:37Z</time>
      </trkpt>
      <trkpt lat="44.33296" lon="5.77501">
        <ele>591</ele>
        <time>2019-03-19T13:22:38Z</time>
      </trkpt>
      <trkpt lat="44.333" lon="5.77501">
        <ele>591</ele>
        <time>2019-03-19T13:22:39Z</time>
      </trkpt>
      <trkpt lat="44.33305" lon="5.77501">
        <ele>591</ele>
        <time>2019-03-19T13:22:40Z</time>
      </trkpt>
      <trkpt lat="44.3331" lon="5.77501">
        <ele>591</ele>
        <time>2019-03-19T13:22:41Z</time>
      </trkpt>
      <trkpt lat="44.33314" lon="5.77502">
        <ele>591</ele>
        <time>2019-03-19T13:22:42Z</time>
      </trkpt>
      <trkpt lat="44.33318" lon="5.77502">
        <ele>591</ele>
        <time>2019-03-19T13:22:43Z</time>
      </trkpt>
      <trkpt lat="44.33323" lon="5.77502">
        <ele>591</ele>
        <time>2019-03-19T13:22:44Z</time>
      </trkpt>
      <trkpt lat="44.33327" lon="5.77502">
        <ele>591</ele>
        <time>2019-03-19T13:22:45Z</time>
      </trkpt>
      <trkpt lat="44.33331" lon="5.77503">
        <ele>591</ele>
        <time>2019-03-19T13:22:46Z</time>
      </trkpt>
      <trkpt lat="44.33335" lon="5.77503">
        <ele>591</ele>
        <time>2019-03-19T13:22:47Z</time>
      </trkpt>
      <trkpt lat="44.33339" lon="5.77503">
        <ele>591</ele>
        <time>2019-03-19T13:22:48Z</time>
      </trkpt>
      <trkpt lat="44.33343" lon="5.77504">
        <ele>591</ele>
        <time>2019-03-19T13:22:49Z</time>
      </trkpt>
      <trkpt lat="44.33347" lon="5.77504">
        <ele>591</ele>
        <time>2019-03-19T13:22:50Z</time>
      </trkpt>
      <trkpt lat="44.33351" lon="5.77505">
        <ele>591</ele>
        <time>2019-03-19T13:22:51Z</time>
      </trkpt>
      <trkpt lat="44.33355" lon="5.77505">
        <ele>591</ele>
        <time>2019-03-19T13:22:52Z</time>
      </trkpt>
      <trkpt lat="44.3336" lon="5.77505">
        <ele>591</ele>
        <time>2019-03-19T13:22:53Z</time>
      </trkpt>
      <trkpt lat="44.33364" lon="5.77506">
        <ele>591</ele>
        <time>2019-03-19T13:22:54Z</time>
      </trkpt>
      <trkpt lat="44.33368" lon="5.77506">
        <ele>591</ele>
        <time>2019-03-19T13:22:55Z</time>
      </trkpt>
      <trkpt lat="44.33372" lon="5.77507">
        <ele>591</ele>
        <time>2019-03-19T13:22:56Z</time>
      </trkpt>
      <trkpt lat="44.33376" lon="5.77507">
        <ele>591</ele>
        <time>2019-03-19T13:22:57Z</time>
      </trkpt>
      <trkpt lat="44.3338" lon="5.77507">
        <ele>591</ele>
        <time>2019-03-19T13:22:58Z</time>
      </trkpt>
      <trkpt lat="44.33383" lon="5.77507">
        <ele>591</ele>
        <time>2019-03-19T13:22:59Z</time>
      </trkpt>
      <trkpt lat="44.33387" lon="5.77507">
        <ele>591</ele>
        <time>2019-03-19T13:23:00Z</time>
      </trkpt>
      <trkpt lat="44.33391" lon="5.77507">
        <ele>591</ele>
        <time>2019-03-19T13:23:01Z</time>
      </trkpt>
      <trkpt lat="44.33395" lon="5.77507">
        <ele>591</ele>
        <time>2019-03-19T13:23:02Z</time>
      </trkpt>
      <trkpt lat="44.334" lon="5.77507">
        <ele>591</ele>
        <time>2019-03-19T13:23:03Z</time>
      </trkpt>
      <trkpt lat="44.33404" lon="5.77508">
        <ele>591</ele>
        <time>2019-03-19T13:23:04Z</time>
      </trkpt>
      <trkpt lat="44.33409" lon="5.77509">
        <ele>591</ele>
        <time>2019-03-19T13:23:05Z</time>
      </trkpt>
      <trkpt lat="44.33414" lon="5.7751">
        <ele>591</ele>
        <time>2019-03-19T13:23:06Z</time>
      </trkpt>
      <trkpt lat="44.33419" lon="5.77511">
        <ele>591</ele>
        <time>2019-03-19T13:23:07Z</time>
      </trkpt>
      <trkpt lat="44.33424" lon="5.77512">
        <ele>591</ele>
        <time>2019-03-19T13:23:08Z</time>
      </trkpt>
      <trkpt lat="44.33429" lon="5.77513">
        <ele>591</ele>
        <time>2019-03-19T13:23:09Z</time>
      </trkpt>
      <trkpt lat="44.33435" lon="5.77515">
        <ele>591</ele>
        <time>2019-03-19T13:23:10Z</time>
      </trkpt>
      <trkpt lat="44.3344" lon="5.77516">
        <ele>591</ele>
        <time>2019-03-19T13:23:11Z</time>
      </trkpt>
      <trkpt lat="44.33446" lon="5.77517">
        <ele>591</ele>
        <time>2019-03-19T13:23:12Z</time>
      </trkpt>
      <trkpt lat="44.33451" lon="5.77518">
        <ele>591</ele>
        <time>2019-03-19T13:23:13Z</time>
      </trkpt>
      <trkpt lat="44.33457" lon="5.77519">
        <ele>591</ele>
        <time>2019-03-19T13:23:14Z</time>
      </trkpt>
      <trkpt lat="44.33463" lon="5.7752">
        <ele>591</ele>
        <time>2019-03-19T13:23:15Z</time>
      </trkpt>
      <trkpt lat="44.33469" lon="5.77521">
        <ele>591</ele>
        <time>2019-03-19T13:23:16Z</time>
      </trkpt>
      <trkpt lat="44.33475" lon="5.77522">
        <ele>591</ele>
        <time>2019-03-19T13:23:17Z</time>
      </trkpt>
      <trkpt lat="44.33481" lon="5.77524">
        <ele>591</ele>
        <time>2019-03-19T13:23:18Z</time>
      </trkpt>
      <trkpt lat="44.33487" lon="5.77526">
        <ele>591</ele>
        <time>2019-03-19T13:23:19Z</time>
      </trkpt>
      <trkpt lat="44.33493" lon="5.77527">
        <ele>591</ele>
        <time>2019-03-19T13:23:20Z</time>
      </trkpt>
      <trkpt lat="44.33498" lon="5.77528">
        <ele>591</ele>
        <time>2019-03-19T13:23:21Z</time>
      </trkpt>
      <trkpt lat="44.33504" lon="5.77529">
        <ele>591</ele>
        <time>2019-03-19T13:23:22Z</time>
      </trkpt>
      <trkpt lat="44.3351" lon="5.7753">
        <ele>591</ele>
        <time>2019-03-19T13:23:23Z</time>
      </trkpt>
      <trkpt lat="44.33516" lon="5.7753">
        <ele>591</ele>
        <time>2019-03-19T13:23:24Z</time>
      </trkpt>
      <trkpt lat="44.33521" lon="5.7753">
        <ele>591</ele>
        <time>2019-03-19T13:23:25Z</time>
      </trkpt>
      <trkpt lat="44.33527" lon="5.77531">
        <ele>591</ele>
        <time>2019-03-19T13:23:26Z</time>
      </trkpt>
      <trkpt lat="44.33532" lon="5.77532">
        <ele>591</ele>
        <time>2019-03-19T13:23:27Z</time>
      </trkpt>
      <trkpt lat="44.33537" lon="5.77534">
        <ele>591</ele>
        <time>2019-03-19T13:23:28Z</time>
      </trkpt>
      <trkpt lat="44.33541" lon="5.77535">
        <ele>591</ele>
        <time>2019-03-19T13:23:29Z</time>
      </trkpt>
      <trkpt lat="44.33546" lon="5.77536">
        <ele>591</ele>
        <time>2019-03-19T13:23:30Z</time>
      </trkpt>
      <trkpt lat="44.33549" lon="5.77537">
        <ele>591</ele>
        <time>2019-03-19T13:23:31Z</time>
      </trkpt>
      <trkpt lat="44.33553" lon="5.77538">
        <ele>591</ele>
        <time>2019-03-19T13:23:32Z</time>
      </trkpt>
      <trkpt lat="44.33557" lon="5.77539">
        <ele>591</ele>
        <time>2019-03-19T13:23:33Z</time>
      </trkpt>
      <trkpt lat="44.3356" lon="5.7754">
        <ele>591</ele>
        <time>2019-03-19T13:23:34Z</time>
      </trkpt>
      <trkpt lat="44.33564" lon="5.77541">
        <ele>592</ele>
        <time>2019-03-19T13:23:35Z</time>
      </trkpt>
      <trkpt lat="44.33567" lon="5.77542">
        <ele>592</ele>
        <time>2019-03-19T13:23:36Z</time>
      </trkpt>
      <trkpt lat="44.3357" lon="5.77542">
        <ele>592</ele>
        <time>2019-03-19T13:23:37Z</time>
      </trkpt>
      <trkpt lat="44.33574" lon="5.77542">
        <ele>593</ele>
        <time>2019-03-19T13:23:38Z</time>
      </trkpt>
      <trkpt lat="44.33577" lon="5.77541">
        <ele>593</ele>
        <time>2019-03-19T13:23:39Z</time>
      </trkpt>
      <trkpt lat="44.3358" lon="5.7754">
        <ele>593</ele>
        <time>2019-03-19T13:23:40Z</time>
      </trkpt>
      <trkpt lat="44.33583" lon="5.77539">
        <ele>593</ele>
        <time>2019-03-19T13:23:41Z</time>
      </trkpt>
      <trkpt lat="44.33587" lon="5.77537">
        <ele>593</ele>
        <time>2019-03-19T13:23:42Z</time>
      </trkpt>
      <trkpt lat="44.3359" lon="5.77535">
        <ele>594</ele>
        <time>2019-03-19T13:23:43Z</time>
      </trkpt>
      <trkpt lat="44.33592" lon="5.77532">
        <ele>594</ele>
        <time>2019-03-19T13:23:44Z</time>
      </trkpt>
      <trkpt lat="44.33595" lon="5.77528">
        <ele>594</ele>
        <time>2019-03-19T13:23:45Z</time>
      </trkpt>
      <trkpt lat="44.33597" lon="5.77525">
        <ele>594</ele>
        <time>2019-03-19T13:23:46Z</time>
      </trkpt>
      <trkpt lat="44.33599" lon="5.77522">
        <ele>595</ele>
        <time>2019-03-19T13:23:47Z</time>
      </trkpt>
      <trkpt lat="44.33601" lon="5.77519">
        <ele>595</ele>
        <time>2019-03-19T13:23:48Z</time>
      </trkpt>
      <trkpt lat="44.33604" lon="5.77515">
        <ele>595</ele>
        <time>2019-03-19T13:23:49Z</time>
      </trkpt>
      <trkpt lat="44.33606" lon="5.77512">
        <ele>596</ele>
        <time>2019-03-19T13:23:50Z</time>
      </trkpt>
      <trkpt lat="44.33609" lon="5.7751">
        <ele>597</ele>
        <time>2019-03-19T13:23:51Z</time>
      </trkpt>
      <trkpt lat="44.33611" lon="5.77507">
        <ele>597</ele>
        <time>2019-03-19T13:23:52Z</time>
      </trkpt>
      <trkpt lat="44.33614" lon="5.77506">
        <ele>598</ele>
        <time>2019-03-19T13:23:53Z</time>
      </trkpt>
      <trkpt lat="44.33617" lon="5.77505">
        <ele>598</ele>
        <time>2019-03-19T13:23:54Z</time>
      </trkpt>
      <trkpt lat="44.3362" lon="5.77504">
        <ele>598</ele>
        <time>2019-03-19T13:23:55Z</time>
      </trkpt>
      <trkpt lat="44.33622" lon="5.77504">
        <ele>599</ele>
        <time>2019-03-19T13:23:56Z</time>
      </trkpt>
      <trkpt lat="44.33625" lon="5.77505">
        <ele>599</ele>
        <time>2019-03-19T13:23:57Z</time>
      </trkpt>
      <trkpt lat="44.33628" lon="5.77506">
        <ele>599</ele>
        <time>2019-03-19T13:23:58Z</time>
      </trkpt>
      <trkpt lat="44.33632" lon="5.77506">
        <ele>599</ele>
        <time>2019-03-19T13:23:59Z</time>
      </trkpt>
      <trkpt lat="44.33635" lon="5.77507">
        <ele>599</ele>
        <time>2019-03-19T13:24:00Z</time>
      </trkpt>
      <trkpt lat="44.33638" lon="5.77509">
        <ele>599</ele>
        <time>2019-03-19T13:24:01Z</time>
      </trkpt>
      <trkpt lat="44.33641" lon="5.7751">
        <ele>600</ele>
        <time>2019-03-19T13:24:02Z</time>
      </trkpt>
      <trkpt lat="44.33644" lon="5.77511">
        <ele>600</ele>
        <time>2019-03-19T13:24:03Z</time>
      </trkpt>
      <trkpt lat="44.33647" lon="5.77513">
        <ele>600</ele>
        <time>2019-03-19T13:24:04Z</time>
      </trkpt>
      <trkpt lat="44.3365" lon="5.77514">
        <ele>600</ele>
        <time>2019-03-19T13:24:05Z</time>
      </trkpt>
      <trkpt lat="44.33652" lon="5.77516">
        <ele>601</ele>
        <time>2019-03-19T13:24:06Z</time>
      </trkpt>
      <trkpt lat="44.33654" lon="5.77516">
        <ele>601</ele>
        <time>2019-03-19T13:24:07Z</time>
      </trkpt>
      <trkpt lat="44.33657" lon="5.77517">
        <ele>602</ele>
        <time>2019-03-19T13:24:08Z</time>
      </trkpt>
      <trkpt lat="44.33661" lon="5.77518">
        <ele>602</ele>
        <time>2019-03-19T13:24:09Z</time>
      </trkpt>
      <trkpt lat="44.33664" lon="5.7752">
        <ele>602</ele>
        <time>2019-03-19T13:24:10Z</time>
      </trkpt>
      <trkpt lat="44.33667" lon="5.77521">
        <ele>602</ele>
        <time>2019-03-19T13:24:11Z</time>
      </trkpt>
      <trkpt lat="44.3367" lon="5.77522">
        <ele>602</ele>
        <time>2019-03-19T13:24:12Z</time>
      </trkpt>
      <trkpt lat="44.33672" lon="5.77523">
        <ele>602</ele>
        <time>2019-03-19T13:24:13Z</time>
      </trkpt>
      <trkpt lat="44.33675" lon="5.77524">
        <ele>602</ele>
        <time>2019-03-19T13:24:14Z</time>
      </trkpt>
      <trkpt lat="44.33678" lon="5.77525">
        <ele>602</ele>
        <time>2019-03-19T13:24:15Z</time>
      </trkpt>
      <trkpt lat="44.33681" lon="5.77526">
        <ele>603</ele>
        <time>2019-03-19T13:24:16Z</time>
      </trkpt>
      <trkpt lat="44.33685" lon="5.77526">
        <ele>603</ele>
        <time>2019-03-19T13:24:17Z</time>
      </trkpt>
      <trkpt lat="44.33688" lon="5.77527">
        <ele>603</ele>
        <time>2019-03-19T13:24:18Z</time>
      </trkpt>
      <trkpt lat="44.33691" lon="5.77527">
        <ele>604</ele>
        <time>2019-03-19T13:24:19Z</time>
      </trkpt>
      <trkpt lat="44.33693" lon="5.77528">
        <ele>604</ele>
        <time>2019-03-19T13:24:20Z</time>
      </trkpt>
      <trkpt lat="44.33696" lon="5.77529">
        <ele>604</ele>
        <time>2019-03-19T13:24:21Z</time>
      </trkpt>
      <trkpt lat="44.33698" lon="5.77529">
        <ele>604</ele>
        <time>2019-03-19T13:24:22Z</time>
      </trkpt>
      <trkpt lat="44.337" lon="5.7753">
        <ele>605</ele>
        <time>2019-03-19T13:24:23Z</time>
      </trkpt>
      <trkpt lat="44.33703" lon="5.77532">
        <ele>605</ele>
        <time>2019-03-19T13:24:24Z</time>
      </trkpt>
      <trkpt lat="44.33706" lon="5.77533">
        <ele>605</ele>
        <time>2019-03-19T13:24:25Z</time>
      </trkpt>
      <trkpt lat="44.33709" lon="5.77534">
        <ele>605</ele>
        <time>2019-03-19T13:24:26Z</time>
      </trkpt>
      <trkpt lat="44.33712" lon="5.77535">
        <ele>605</ele>
        <time>2019-03-19T13:24:27Z</time>
      </trkpt>
      <trkpt lat="44.33715" lon="5.77535">
        <ele>606</ele>
        <time>2019-03-19T13:24:28Z</time>
      </trkpt>
      <trkpt lat="44.33717" lon="5.77537">
        <ele>606</ele>
        <time>2019-03-19T13:24:29Z</time>
      </trkpt>
      <trkpt lat="44.3372" lon="5.77538">
        <ele>606</ele>
        <time>2019-03-19T13:24:30Z</time>
      </trkpt>
      <trkpt lat="44.33723" lon="5.77539">
        <ele>606</ele>
        <time>2019-03-19T13:24:31Z</time>
      </trkpt>
      <trkpt lat="44.33725" lon="5.77541">
        <ele>607</ele>
        <time>2019-03-19T13:24:32Z</time>
      </trkpt>
      <trkpt lat="44.33728" lon="5.77542">
        <ele>607</ele>
        <time>2019-03-19T13:24:33Z</time>
      </trkpt>
      <trkpt lat="44.3373" lon="5.77543">
        <ele>607</ele>
        <time>2019-03-19T13:24:34Z</time>
      </trkpt>
      <trkpt lat="44.33733" lon="5.77545">
        <ele>607</ele>
        <time>2019-03-19T13:24:35Z</time>
      </trkpt>
      <trkpt lat="44.33735" lon="5.77546">
        <ele>608</ele>
        <time>2019-03-19T13:24:36Z</time>
      </trkpt>
      <trkpt lat="44.33737" lon="5.77548">
        <ele>608</ele>
        <time>2019-03-19T13:24:37Z</time>
      </trkpt>
      <trkpt lat="44.33739" lon="5.77549">
        <ele>608</ele>
        <time>2019-03-19T13:24:38Z</time>
      </trkpt>
      <trkpt lat="44.33742" lon="5.7755">
        <ele>609</ele>
        <time>2019-03-19T13:24:39Z</time>
      </trkpt>
      <trkpt lat="44.33744" lon="5.77551">
        <ele>609</ele>
        <time>2019-03-19T13:24:40Z</time>
      </trkpt>
      <trkpt lat="44.33746" lon="5.77553">
        <ele>610</ele>
        <time>2019-03-19T13:24:41Z</time>
      </trkpt>
      <trkpt lat="44.33749" lon="5.77555">
        <ele>610</ele>
        <time>2019-03-19T13:24:42Z</time>
      </trkpt>
      <trkpt lat="44.33751" lon="5.77557">
        <ele>610</ele>
        <time>2019-03-19T13:24:43Z</time>
      </trkpt>
      <trkpt lat="44.33753" lon="5.77558">
        <ele>610</ele>
        <time>2019-03-19T13:24:44Z</time>
      </trkpt>
      <trkpt lat="44.33756" lon="5.7756">
        <ele>611</ele>
        <time>2019-03-19T13:24:45Z</time>
      </trkpt>
      <trkpt lat="44.33758" lon="5.77562">
        <ele>611</ele>
        <time>2019-03-19T13:24:46Z</time>
      </trkpt>
      <trkpt lat="44.3376" lon="5.77563">
        <ele>611</ele>
        <time>2019-03-19T13:24:47Z</time>
      </trkpt>
      <trkpt lat="44.33763" lon="5.77565">
        <ele>611</ele>
        <time>2019-03-19T13:24:48Z</time>
      </trkpt>
      <trkpt lat="44.33765" lon="5.77567">
        <ele>611</ele>
        <time>2019-03-19T13:24:49Z</time>
      </trkpt>
      <trkpt lat="44.33768" lon="5.77568">
        <ele>611</ele>
        <time>2019-03-19T13:24:50Z</time>
      </trkpt>
      <trkpt lat="44.3377" lon="5.7757">
        <ele>611</ele>
        <time>2019-03-19T13:24:51Z</time>
      </trkpt>
      <trkpt lat="44.33772" lon="5.77571">
        <ele>612</ele>
        <time>2019-03-19T13:24:52Z</time>
      </trkpt>
      <trkpt lat="44.33775" lon="5.77573">
        <ele>612</ele>
        <time>2019-03-19T13:24:53Z</time>
      </trkpt>
      <trkpt lat="44.33776" lon="5.77575">
        <ele>612</ele>
        <time>2019-03-19T13:24:54Z</time>
      </trkpt>
      <trkpt lat="44.33779" lon="5.77576">
        <ele>612</ele>
        <time>2019-03-19T13:24:55Z</time>
      </trkpt>
      <trkpt lat="44.33781" lon="5.77577">
        <ele>612</ele>
        <time>2019-03-19T13:24:56Z</time>
      </trkpt>
      <trkpt lat="44.33783" lon="5.77578">
        <ele>613</ele>
        <time>2019-03-19T13:24:57Z</time>
      </trkpt>
      <trkpt lat="44.33786" lon="5.7758">
        <ele>613</ele>
        <time>2019-03-19T13:24:58Z</time>
      </trkpt>
      <trkpt lat="44.33788" lon="5.77581">
        <ele>613</ele>
        <time>2019-03-19T13:24:59Z</time>
      </trkpt>
      <trkpt lat="44.3379" lon="5.77583">
        <ele>613</ele>
        <time>2019-03-19T13:25:00Z</time>
      </trkpt>
      <trkpt lat="44.33792" lon="5.77585">
        <ele>614</ele>
        <time>2019-03-19T13:25:01Z</time>
      </trkpt>
      <trkpt lat="44.33796" lon="5.77586">
        <ele>614</ele>
        <time>2019-03-19T13:25:02Z</time>
      </trkpt>
      <trkpt lat="44.33799" lon="5.77588">
        <ele>614</ele>
        <time>2019-03-19T13:25:03Z</time>
      </trkpt>
      <trkpt lat="44.33801" lon="5.77589">
        <ele>614</ele>
        <time>2019-03-19T13:25:04Z</time>
      </trkpt>
      <trkpt lat="44.33804" lon="5.77591">
        <ele>614</ele>
        <time>2019-03-19T13:25:05Z</time>
      </trkpt>
      <trkpt lat="44.33807" lon="5.77593">
        <ele>614</ele>
        <time>2019-03-19T13:25:06Z</time>
      </trkpt>
      <trkpt lat="44.3381" lon="5.77595">
        <ele>614</ele>
        <time>2019-03-19T13:25:07Z</time>
      </trkpt>
      <trkpt lat="44.33812" lon="5.77596">
        <ele>614</ele>
        <time>2019-03-19T13:25:08Z</time>
      </trkpt>
      <trkpt lat="44.33815" lon="5.77599">
        <ele>614</ele>
        <time>2019-03-19T13:25:09Z</time>
      </trkpt>
      <trkpt lat="44.33817" lon="5.77601">
        <ele>614</ele>
        <time>2019-03-19T13:25:10Z</time>
      </trkpt>
      <trkpt lat="44.3382" lon="5.77603">
        <ele>614</ele>
        <time>2019-03-19T13:25:11Z</time>
      </trkpt>
      <trkpt lat="44.33822" lon="5.77606">
        <ele>614</ele>
        <time>2019-03-19T13:25:12Z</time>
      </trkpt>
      <trkpt lat="44.33824" lon="5.77608">
        <ele>614</ele>
        <time>2019-03-19T13:25:13Z</time>
      </trkpt>
      <trkpt lat="44.33827" lon="5.77611">
        <ele>614</ele>
        <time>2019-03-19T13:25:14Z</time>
      </trkpt>
      <trkpt lat="44.33829" lon="5.77614">
        <ele>614</ele>
        <time>2019-03-19T13:25:15Z</time>
      </trkpt>
      <trkpt lat="44.33831" lon="5.77617">
        <ele>614</ele>
        <time>2019-03-19T13:25:16Z</time>
      </trkpt>
      <trkpt lat="44.33833" lon="5.7762">
        <ele>614</ele>
        <time>2019-03-19T13:25:17Z</time>
      </trkpt>
      <trkpt lat="44.33836" lon="5.77623">
        <ele>614</ele>
        <time>2019-03-19T13:25:18Z</time>
      </trkpt>
      <trkpt lat="44.33838" lon="5.77626">
        <ele>614</ele>
        <time>2019-03-19T13:25:19Z</time>
      </trkpt>
      <trkpt lat="44.3384" lon="5.77629">
        <ele>614</ele>
        <time>2019-03-19T13:25:20Z</time>
      </trkpt>
      <trkpt lat="44.33843" lon="5.77632">
        <ele>615</ele>
        <time>2019-03-19T13:25:21Z</time>
      </trkpt>
      <trkpt lat="44.33845" lon="5.77635">
        <ele>615</ele>
        <time>2019-03-19T13:25:22Z</time>
      </trkpt>
      <trkpt lat="44.33848" lon="5.77638">
        <ele>615</ele>
        <time>2019-03-19T13:25:23Z</time>
      </trkpt>
      <trkpt lat="44.3385" lon="5.7764">
        <ele>615</ele>
        <time>2019-03-19T13:25:24Z</time>
      </trkpt>
      <trkpt lat="44.33853" lon="5.77643">
        <ele>615</ele>
        <time>2019-03-19T13:25:25Z</time>
      </trkpt>
      <trkpt lat="44.33856" lon="5.77645">
        <ele>615</ele>
        <time>2019-03-19T13:25:26Z</time>
      </trkpt>
      <trkpt lat="44.33859" lon="5.77648">
        <ele>615</ele>
        <time>2019-03-19T13:25:27Z</time>
      </trkpt>
      <trkpt lat="44.33862" lon="5.7765">
        <ele>615</ele>
        <time>2019-03-19T13:25:28Z</time>
      </trkpt>
      <trkpt lat="44.33865" lon="5.77653">
        <ele>615</ele>
        <time>2019-03-19T13:25:29Z</time>
      </trkpt>
      <trkpt lat="44.33868" lon="5.77655">
        <ele>615</ele>
        <time>2019-03-19T13:25:30Z</time>
      </trkpt>
      <trkpt lat="44.33871" lon="5.77657">
        <ele>615</ele>
        <time>2019-03-19T13:25:31Z</time>
      </trkpt>
      <trkpt lat="44.33874" lon="5.77658">
        <ele>615</ele>
        <time>2019-03-19T13:25:32Z</time>
      </trkpt>
      <trkpt lat="44.33877" lon="5.7766">
        <ele>615</ele>
        <time>2019-03-19T13:25:33Z</time>
      </trkpt>
      <trkpt lat="44.33879" lon="5.77662">
        <ele>615</ele>
        <time>2019-03-19T13:25:34Z</time>
      </trkpt>
      <trkpt lat="44.33881" lon="5.77664">
        <ele>615</ele>
        <time>2019-03-19T13:25:35Z</time>
      </trkpt>
      <trkpt lat="44.33885" lon="5.77665">
        <ele>615</ele>
        <time>2019-03-19T13:25:36Z</time>
      </trkpt>
      <trkpt lat="44.33888" lon="5.77665">
        <ele>615</ele>
        <time>2019-03-19T13:25:37Z</time>
      </trkpt>
      <trkpt lat="44.33892" lon="5.77665">
        <ele>615</ele>
        <time>2019-03-19T13:25:38Z</time>
      </trkpt>
      <trkpt lat="44.33896" lon="5.77666">
        <ele>615</ele>
        <time>2019-03-19T13:25:39Z</time>
      </trkpt>
      <trkpt lat="44.339" lon="5.77666">
        <ele>615</ele>
        <time>2019-03-19T13:25:40Z</time>
      </trkpt>
      <trkpt lat="44.33903" lon="5.77665">
        <ele>615</ele>
        <time>2019-03-19T13:25:41Z</time>
      </trkpt>
      <trkpt lat="44.33906" lon="5.77665">
        <ele>615</ele>
        <time>2019-03-19T13:25:42Z</time>
      </trkpt>
      <trkpt lat="44.33909" lon="5.77666">
        <ele>616</ele>
        <time>2019-03-19T13:25:43Z</time>
      </trkpt>
      <trkpt lat="44.33912" lon="5.77665">
        <ele>616</ele>
        <time>2019-03-19T13:25:44Z</time>
      </trkpt>
      <trkpt lat="44.33915" lon="5.77664">
        <ele>616</ele>
        <time>2019-03-19T13:25:45Z</time>
      </trkpt>
      <trkpt lat="44.33919" lon="5.77662">
        <ele>616</ele>
        <time>2019-03-19T13:25:46Z</time>
      </trkpt>
      <trkpt lat="44.33923" lon="5.7766">
        <ele>617</ele>
        <time>2019-03-19T13:25:47Z</time>
      </trkpt>
      <trkpt lat="44.33926" lon="5.77657">
        <ele>617</ele>
        <time>2019-03-19T13:25:48Z</time>
      </trkpt>
      <trkpt lat="44.3393" lon="5.77655">
        <ele>617</ele>
        <time>2019-03-19T13:25:49Z</time>
      </trkpt>
      <trkpt lat="44.33934" lon="5.77652">
        <ele>617</ele>
        <time>2019-03-19T13:25:50Z</time>
      </trkpt>
      <trkpt lat="44.33937" lon="5.7765">
        <ele>617</ele>
        <time>2019-03-19T13:25:51Z</time>
      </trkpt>
      <trkpt lat="44.3394" lon="5.77647">
        <ele>617</ele>
        <time>2019-03-19T13:25:52Z</time>
      </trkpt>
      <trkpt lat="44.33944" lon="5.77644">
        <ele>617</ele>
        <time>2019-03-19T13:25:53Z</time>
      </trkpt>
      <trkpt lat="44.33947" lon="5.77641">
        <ele>617</ele>
        <time>2019-03-19T13:25:54Z</time>
      </trkpt>
      <trkpt lat="44.3395" lon="5.77639">
        <ele>617</ele>
        <time>2019-03-19T13:25:55Z</time>
      </trkpt>
      <trkpt lat="44.33953" lon="5.77636">
        <ele>617</ele>
        <time>2019-03-19T13:25:56Z</time>
      </trkpt>
      <trkpt lat="44.33956" lon="5.77633">
        <ele>618</ele>
        <time>2019-03-19T13:25:57Z</time>
      </trkpt>
      <trkpt lat="44.33959" lon="5.7763">
        <ele>618</ele>
        <time>2019-03-19T13:25:58Z</time>
      </trkpt>
      <trkpt lat="44.33962" lon="5.77627">
        <ele>618</ele>
        <time>2019-03-19T13:25:59Z</time>
      </trkpt>
      <trkpt lat="44.33965" lon="5.77623">
        <ele>618</ele>
        <time>2019-03-19T13:26:00Z</time>
      </trkpt>
      <trkpt lat="44.33967" lon="5.7762">
        <ele>618</ele>
        <time>2019-03-19T13:26:01Z</time>
      </trkpt>
      <trkpt lat="44.3397" lon="5.77616">
        <ele>619</ele>
        <time>2019-03-19T13:26:02Z</time>
      </trkpt>
      <trkpt lat="44.33972" lon="5.77612">
        <ele>619</ele>
        <time>2019-03-19T13:26:03Z</time>
      </trkpt>
      <trkpt lat="44.33975" lon="5.77608">
        <ele>619</ele>
        <time>2019-03-19T13:26:04Z</time>
      </trkpt>
      <trkpt lat="44.33977" lon="5.77604">
        <ele>619</ele>
        <time>2019-03-19T13:26:05Z</time>
      </trkpt>
      <trkpt lat="44.33979" lon="5.776">
        <ele>619</ele>
        <time>2019-03-19T13:26:06Z</time>
      </trkpt>
      <trkpt lat="44.33981" lon="5.77596">
        <ele>620</ele>
        <time>2019-03-19T13:26:07Z</time>
      </trkpt>
      <trkpt lat="44.33983" lon="5.77592">
        <ele>620</ele>
        <time>2019-03-19T13:26:08Z</time>
      </trkpt>
      <trkpt lat="44.33984" lon="5.77588">
        <ele>620</ele>
        <time>2019-03-19T13:26:09Z</time>
      </trkpt>
      <trkpt lat="44.33986" lon="5.77584">
        <ele>620</ele>
        <time>2019-03-19T13:26:10Z</time>
      </trkpt>
      <trkpt lat="44.33987" lon="5.7758">
        <ele>621</ele>
        <time>2019-03-19T13:26:11Z</time>
      </trkpt>
      <trkpt lat="44.33989" lon="5.77576">
        <ele>621</ele>
        <time>2019-03-19T13:26:12Z</time>
      </trkpt>
      <trkpt lat="44.3399" lon="5.77573">
        <ele>621</ele>
        <time>2019-03-19T13:26:13Z</time>
      </trkpt>
      <trkpt lat="44.33992" lon="5.77569">
        <ele>621</ele>
        <time>2019-03-19T13:26:14Z</time>
      </trkpt>
      <trkpt lat="44.33994" lon="5.77565">
        <ele>622</ele>
        <time>2019-03-19T13:26:15Z</time>
      </trkpt>
      <trkpt lat="44.33995" lon="5.77561">
        <ele>622</ele>
        <time>2019-03-19T13:26:16Z</time>
      </trkpt>
      <trkpt lat="44.33997" lon="5.77556">
        <ele>622</ele>
        <time>2019-03-19T13:26:17Z</time>
      </trkpt>
      <trkpt lat="44.33998" lon="5.77552">
        <ele>622</ele>
        <time>2019-03-19T13:26:18Z</time>
      </trkpt>
      <trkpt lat="44.34" lon="5.77548">
        <ele>622</ele>
        <time>2019-03-19T13:26:19Z</time>
      </trkpt>
      <trkpt lat="44.34002" lon="5.77544">
        <ele>623</ele>
        <time>2019-03-19T13:26:20Z</time>
      </trkpt>
      <trkpt lat="44.34003" lon="5.7754">
        <ele>623</ele>
        <time>2019-03-19T13:26:21Z</time>
      </trkpt>
      <trkpt lat="44.34005" lon="5.77537">
        <ele>623</ele>
        <time>2019-03-19T13:26:22Z</time>
      </trkpt>
      <trkpt lat="44.34006" lon="5.77533">
        <ele>623</ele>
        <time>2019-03-19T13:26:23Z</time>
      </trkpt>
      <trkpt lat="44.34008" lon="5.77529">
        <ele>623</ele>
        <time>2019-03-19T13:26:24Z</time>
      </trkpt>
      <trkpt lat="44.34009" lon="5.77525">
        <ele>624</ele>
        <time>2019-03-19T13:26:25Z</time>
      </trkpt>
      <trkpt lat="44.3401" lon="5.77521">
        <ele>624</ele>
        <time>2019-03-19T13:26:26Z</time>
      </trkpt>
      <trkpt lat="44.34011" lon="5.77517">
        <ele>624</ele>
        <time>2019-03-19T13:26:27Z</time>
      </trkpt>
      <trkpt lat="44.34012" lon="5.77513">
        <ele>624</ele>
        <time>2019-03-19T13:26:28Z</time>
      </trkpt>
      <trkpt lat="44.34012" lon="5.77508">
        <ele>624</ele>
        <time>2019-03-19T13:26:29Z</time>
      </trkpt>
      <trkpt lat="44.34012" lon="5.77504">
        <ele>624</ele>
        <time>2019-03-19T13:26:30Z</time>
      </trkpt>
      <trkpt lat="44.34011" lon="5.77499">
        <ele>624</ele>
        <time>2019-03-19T13:26:31Z</time>
      </trkpt>
      <trkpt lat="44.3401" lon="5.77495">
        <ele>624</ele>
        <time>2019-03-19T13:26:32Z</time>
      </trkpt>
      <trkpt lat="44.34009" lon="5.7749">
        <ele>624</ele>
        <time>2019-03-19T13:26:33Z</time>
      </trkpt>
      <trkpt lat="44.34008" lon="5.77485">
        <ele>624</ele>
        <time>2019-03-19T13:26:34Z</time>
      </trkpt>
      <trkpt lat="44.34006" lon="5.7748">
        <ele>624</ele>
        <time>2019-03-19T13:26:35Z</time>
      </trkpt>
      <trkpt lat="44.34005" lon="5.77475">
        <ele>624</ele>
        <time>2019-03-19T13:26:36Z</time>
      </trkpt>
      <trkpt lat="44.34003" lon="5.77468">
        <ele>624</ele>
        <time>2019-03-19T13:26:37Z</time>
      </trkpt>
      <trkpt lat="44.34" lon="5.77461">
        <ele>624</ele>
        <time>2019-03-19T13:26:38Z</time>
      </trkpt>
      <trkpt lat="44.33998" lon="5.77454">
        <ele>624</ele>
        <time>2019-03-19T13:26:39Z</time>
      </trkpt>
      <trkpt lat="44.33995" lon="5.77446">
        <ele>624</ele>
        <time>2019-03-19T13:26:40Z</time>
      </trkpt>
      <trkpt lat="44.33991" lon="5.77438">
        <ele>624</ele>
        <time>2019-03-19T13:26:41Z</time>
      </trkpt>
      <trkpt lat="44.33988" lon="5.77428">
        <ele>624</ele>
        <time>2019-03-19T13:26:42Z</time>
      </trkpt>
      <trkpt lat="44.33984" lon="5.77419">
        <ele>624</ele>
        <time>2019-03-19T13:26:43Z</time>
      </trkpt>
      <trkpt lat="44.33982" lon="5.7741">
        <ele>624</ele>
        <time>2019-03-19T13:26:44Z</time>
      </trkpt>
      <trkpt lat="44.33981" lon="5.774">
        <ele>624</ele>
        <time>2019-03-19T13:26:45Z</time>
      </trkpt>
      <trkpt lat="44.33981" lon="5.77391">
        <ele>624</ele>
        <time>2019-03-19T13:26:46Z</time>
      </trkpt>
      <trkpt lat="44.33982" lon="5.77382">
        <ele>624</ele>
        <time>2019-03-19T13:26:47Z</time>
      </trkpt>
      <trkpt lat="44.33984" lon="5.77372">
        <ele>623</ele>
        <time>2019-03-19T13:26:48Z</time>
      </trkpt>
      <trkpt lat="44.33986" lon="5.77362">
        <ele>623</ele>
        <time>2019-03-19T13:26:49Z</time>
      </trkpt>
      <trkpt lat="44.33987" lon="5.77352">
        <ele>623</ele>
        <time>2019-03-19T13:26:50Z</time>
      </trkpt>
      <trkpt lat="44.33988" lon="5.77341">
        <ele>623</ele>
        <time>2019-03-19T13:26:51Z</time>
      </trkpt>
      <trkpt lat="44.33988" lon="5.7733">
        <ele>622</ele>
        <time>2019-03-19T13:26:52Z</time>
      </trkpt>
      <trkpt lat="44.33987" lon="5.77319">
        <ele>622</ele>
        <time>2019-03-19T13:26:53Z</time>
      </trkpt>
      <trkpt lat="44.33986" lon="5.77307">
        <ele>621</ele>
        <time>2019-03-19T13:26:54Z</time>
      </trkpt>
      <trkpt lat="44.33984" lon="5.77296">
        <ele>621</ele>
        <time>2019-03-19T13:26:55Z</time>
      </trkpt>
      <trkpt lat="44.33981" lon="5.77285">
        <ele>620</ele>
        <time>2019-03-19T13:26:56Z</time>
      </trkpt>
      <trkpt lat="44.33979" lon="5.77273">
        <ele>620</ele>
        <time>2019-03-19T13:26:57Z</time>
      </trkpt>
      <trkpt lat="44.33978" lon="5.77259">
        <ele>619</ele>
        <time>2019-03-19T13:26:58Z</time>
      </trkpt>
      <trkpt lat="44.33977" lon="5.77246">
        <ele>618</ele>
        <time>2019-03-19T13:26:59Z</time>
      </trkpt>
      <trkpt lat="44.33977" lon="5.77233">
        <ele>617</ele>
        <time>2019-03-19T13:27:00Z</time>
      </trkpt>
      <trkpt lat="44.33978" lon="5.77219">
        <ele>617</ele>
        <time>2019-03-19T13:27:01Z</time>
      </trkpt>
      <trkpt lat="44.33979" lon="5.77204">
        <ele>616</ele>
        <time>2019-03-19T13:27:02Z</time>
      </trkpt>
      <trkpt lat="44.33979" lon="5.77189">
        <ele>615</ele>
        <time>2019-03-19T13:27:03Z</time>
      </trkpt>
      <trkpt lat="44.33979" lon="5.77174">
        <ele>614</ele>
        <time>2019-03-19T13:27:04Z</time>
      </trkpt>
      <trkpt lat="44.33978" lon="5.77159">
        <ele>614</ele>
        <time>2019-03-19T13:27:05Z</time>
      </trkpt>
      <trkpt lat="44.33978" lon="5.77144">
        <ele>613</ele>
        <time>2019-03-19T13:27:06Z</time>
      </trkpt>
      <trkpt lat="44.33977" lon="5.77129">
        <ele>612</ele>
        <time>2019-03-19T13:27:07Z</time>
      </trkpt>
      <trkpt lat="44.33977" lon="5.77113">
        <ele>611</ele>
        <time>2019-03-19T13:27:08Z</time>
      </trkpt>
      <trkpt lat="44.33978" lon="5.77097">
        <ele>610</ele>
        <time>2019-03-19T13:27:09Z</time>
      </trkpt>
      <trkpt lat="44.33979" lon="5.77081">
        <ele>609</ele>
        <time>2019-03-19T13:27:10Z</time>
      </trkpt>
      <trkpt lat="44.33981" lon="5.77065">
        <ele>608</ele>
        <time>2019-03-19T13:27:11Z</time>
      </trkpt>
      <trkpt lat="44.33983" lon="5.77048">
        <ele>608</ele>
        <time>2019-03-19T13:27:12Z</time>
      </trkpt>
      <trkpt lat="44.33985" lon="5.77033">
        <ele>607</ele>
        <time>2019-03-19T13:27:13Z</time>
      </trkpt>
      <trkpt lat="44.33988" lon="5.77017">
        <ele>606</ele>
        <time>2019-03-19T13:27:14Z</time>
      </trkpt>
      <trkpt lat="44.3399" lon="5.77001">
        <ele>605</ele>
        <time>2019-03-19T13:27:15Z</time>
      </trkpt>
      <trkpt lat="44.33992" lon="5.76985">
        <ele>605</ele>
        <time>2019-03-19T13:27:16Z</time>
      </trkpt>
      <trkpt lat="44.33995" lon="5.76969">
        <ele>604</ele>
        <time>2019-03-19T13:27:17Z</time>
      </trkpt>
      <trkpt lat="44.33997" lon="5.76954">
        <ele>603</ele>
        <time>2019-03-19T13:27:18Z</time>
      </trkpt>
      <trkpt lat="44.33999" lon="5.76938">
        <ele>603</ele>
        <time>2019-03-19T13:27:19Z</time>
      </trkpt>
      <trkpt lat="44.34001" lon="5.76924">
        <ele>602</ele>
        <time>2019-03-19T13:27:20Z</time>
      </trkpt>
      <trkpt lat="44.34004" lon="5.76909">
        <ele>602</ele>
        <time>2019-03-19T13:27:21Z</time>
      </trkpt>
      <trkpt lat="44.34006" lon="5.76895">
        <ele>602</ele>
        <time>2019-03-19T13:27:22Z</time>
      </trkpt>
      <trkpt lat="44.34009" lon="5.76881">
        <ele>601</ele>
        <time>2019-03-19T13:27:23Z</time>
      </trkpt>
      <trkpt lat="44.34011" lon="5.76867">
        <ele>601</ele>
        <time>2019-03-19T13:27:24Z</time>
      </trkpt>
      <trkpt lat="44.34015" lon="5.76855">
        <ele>601</ele>
        <time>2019-03-19T13:27:25Z</time>
      </trkpt>
      <trkpt lat="44.34017" lon="5.76841">
        <ele>601</ele>
        <time>2019-03-19T13:27:27Z</time>
      </trkpt>
      <trkpt lat="44.3402" lon="5.76828">
        <ele>600</ele>
        <time>2019-03-19T13:27:27Z</time>
      </trkpt>
      <trkpt lat="44.34021" lon="5.76816">
        <ele>600</ele>
        <time>2019-03-19T13:27:28Z</time>
      </trkpt>
      <trkpt lat="44.34021" lon="5.76802">
        <ele>600</ele>
        <time>2019-03-19T13:27:29Z</time>
      </trkpt>
      <trkpt lat="44.34021" lon="5.7679">
        <ele>600</ele>
        <time>2019-03-19T13:27:30Z</time>
      </trkpt>
      <trkpt lat="44.34021" lon="5.76777">
        <ele>599</ele>
        <time>2019-03-19T13:27:31Z</time>
      </trkpt>
      <trkpt lat="44.34019" lon="5.76764">
        <ele>599</ele>
        <time>2019-03-19T13:27:32Z</time>
      </trkpt>
      <trkpt lat="44.34018" lon="5.76752">
        <ele>598</ele>
        <time>2019-03-19T13:27:33Z</time>
      </trkpt>
      <trkpt lat="44.34017" lon="5.7674">
        <ele>598</ele>
        <time>2019-03-19T13:27:34Z</time>
      </trkpt>
      <trkpt lat="44.34015" lon="5.76727">
        <ele>597</ele>
        <time>2019-03-19T13:27:35Z</time>
      </trkpt>
      <trkpt lat="44.34015" lon="5.76716">
        <ele>597</ele>
        <time>2019-03-19T13:27:36Z</time>
      </trkpt>
      <trkpt lat="44.34016" lon="5.76705">
        <ele>596</ele>
        <time>2019-03-19T13:27:37Z</time>
      </trkpt>
      <trkpt lat="44.34019" lon="5.76696">
        <ele>596</ele>
        <time>2019-03-19T13:27:38Z</time>
      </trkpt>
      <trkpt lat="44.34026" lon="5.76689">
        <ele>595</ele>
        <time>2019-03-19T13:27:39Z</time>
      </trkpt>
      <trkpt lat="44.34033" lon="5.76685">
        <ele>594</ele>
        <time>2019-03-19T13:27:40Z</time>
      </trkpt>
      <trkpt lat="44.3404" lon="5.7668">
        <ele>594</ele>
        <time>2019-03-19T13:27:41Z</time>
      </trkpt>
      <trkpt lat="44.34047" lon="5.76676">
        <ele>594</ele>
        <time>2019-03-19T13:27:42Z</time>
      </trkpt>
      <trkpt lat="44.34053" lon="5.76671">
        <ele>594</ele>
        <time>2019-03-19T13:27:43Z</time>
      </trkpt>
      <trkpt lat="44.34058" lon="5.76666">
        <ele>594</ele>
        <time>2019-03-19T13:27:44Z</time>
      </trkpt>
      <trkpt lat="44.34061" lon="5.76659">
        <ele>594</ele>
        <time>2019-03-19T13:27:45Z</time>
      </trkpt>
      <trkpt lat="44.34061" lon="5.76652">
        <ele>594</ele>
        <time>2019-03-19T13:27:46Z</time>
      </trkpt>
      <trkpt lat="44.3406" lon="5.76646">
        <ele>594</ele>
        <time>2019-03-19T13:27:47Z</time>
      </trkpt>
      <trkpt lat="44.34057" lon="5.76641">
        <ele>594</ele>
        <time>2019-03-19T13:27:48Z</time>
      </trkpt>
      <trkpt lat="44.34055" lon="5.76636">
        <ele>594</ele>
        <time>2019-03-19T13:27:49Z</time>
      </trkpt>
      <trkpt lat="44.34052" lon="5.76631">
        <ele>594</ele>
        <time>2019-03-19T13:27:50Z</time>
      </trkpt>
      <trkpt lat="44.34048" lon="5.76626">
        <ele>594</ele>
        <time>2019-03-19T13:27:51Z</time>
      </trkpt>
      <trkpt lat="44.34046" lon="5.76621">
        <ele>594</ele>
        <time>2019-03-19T13:27:52Z</time>
      </trkpt>
      <trkpt lat="44.34043" lon="5.76615">
        <ele>594</ele>
        <time>2019-03-19T13:27:53Z</time>
      </trkpt>
      <trkpt lat="44.34041" lon="5.7661">
        <ele>594</ele>
        <time>2019-03-19T13:27:54Z</time>
      </trkpt>
      <trkpt lat="44.3404" lon="5.76604">
        <ele>594</ele>
        <time>2019-03-19T13:27:55Z</time>
      </trkpt>
      <trkpt lat="44.34038" lon="5.76599">
        <ele>594</ele>
        <time>2019-03-19T13:27:56Z</time>
      </trkpt>
      <trkpt lat="44.34036" lon="5.76593">
        <ele>594</ele>
        <time>2019-03-19T13:27:57Z</time>
      </trkpt>
      <trkpt lat="44.34034" lon="5.76587">
        <ele>594</ele>
        <time>2019-03-19T13:27:58Z</time>
      </trkpt>
      <trkpt lat="44.34033" lon="5.76581">
        <ele>594</ele>
        <time>2019-03-19T13:27:59Z</time>
      </trkpt>
      <trkpt lat="44.34032" lon="5.76575">
        <ele>594</ele>
        <time>2019-03-19T13:28:00Z</time>
      </trkpt>
      <trkpt lat="44.34032" lon="5.76568">
        <ele>594</ele>
        <time>2019-03-19T13:28:01Z</time>
      </trkpt>
      <trkpt lat="44.34032" lon="5.76562">
        <ele>594</ele>
        <time>2019-03-19T13:28:02Z</time>
      </trkpt>
      <trkpt lat="44.34035" lon="5.76556">
        <ele>594</ele>
        <time>2019-03-19T13:28:03Z</time>
      </trkpt>
      <trkpt lat="44.34037" lon="5.76551">
        <ele>594</ele>
        <time>2019-03-19T13:28:04Z</time>
      </trkpt>
      <trkpt lat="44.3404" lon="5.76545">
        <ele>594</ele>
        <time>2019-03-19T13:28:05Z</time>
      </trkpt>
      <trkpt lat="44.34043" lon="5.7654">
        <ele>594</ele>
        <time>2019-03-19T13:28:06Z</time>
      </trkpt>
      <trkpt lat="44.34046" lon="5.76534">
        <ele>594</ele>
        <time>2019-03-19T13:28:07Z</time>
      </trkpt>
      <trkpt lat="44.34049" lon="5.76528">
        <ele>594</ele>
        <time>2019-03-19T13:28:08Z</time>
      </trkpt>
      <trkpt lat="44.34051" lon="5.76522">
        <ele>594</ele>
        <time>2019-03-19T13:28:09Z</time>
      </trkpt>
      <trkpt lat="44.34054" lon="5.76517">
        <ele>594</ele>
        <time>2019-03-19T13:28:10Z</time>
      </trkpt>
      <trkpt lat="44.34057" lon="5.76511">
        <ele>594</ele>
        <time>2019-03-19T13:28:11Z</time>
      </trkpt>
      <trkpt lat="44.3406" lon="5.76506">
        <ele>594</ele>
        <time>2019-03-19T13:28:12Z</time>
      </trkpt>
      <trkpt lat="44.34063" lon="5.765">
        <ele>594</ele>
        <time>2019-03-19T13:28:13Z</time>
      </trkpt>
      <trkpt lat="44.34066" lon="5.76495">
        <ele>594</ele>
        <time>2019-03-19T13:28:14Z</time>
      </trkpt>
      <trkpt lat="44.34069" lon="5.76488">
        <ele>594</ele>
        <time>2019-03-19T13:28:15Z</time>
      </trkpt>
      <trkpt lat="44.34072" lon="5.76483">
        <ele>594</ele>
        <time>2019-03-19T13:28:16Z</time>
      </trkpt>
      <trkpt lat="44.34074" lon="5.76477">
        <ele>594</ele>
        <time>2019-03-19T13:28:17Z</time>
      </trkpt>
      <trkpt lat="44.34078" lon="5.76471">
        <ele>594</ele>
        <time>2019-03-19T13:28:18Z</time>
      </trkpt>
      <trkpt lat="44.34081" lon="5.76465">
        <ele>594</ele>
        <time>2019-03-19T13:28:19Z</time>
      </trkpt>
      <trkpt lat="44.34084" lon="5.76459">
        <ele>594</ele>
        <time>2019-03-19T13:28:20Z</time>
      </trkpt>
      <trkpt lat="44.34087" lon="5.76454">
        <ele>594</ele>
        <time>2019-03-19T13:28:21Z</time>
      </trkpt>
      <trkpt lat="44.3409" lon="5.76448">
        <ele>594</ele>
        <time>2019-03-19T13:28:22Z</time>
      </trkpt>
      <trkpt lat="44.34093" lon="5.76442">
        <ele>594</ele>
        <time>2019-03-19T13:28:23Z</time>
      </trkpt>
      <trkpt lat="44.34096" lon="5.76437">
        <ele>594</ele>
        <time>2019-03-19T13:28:24Z</time>
      </trkpt>
      <trkpt lat="44.34099" lon="5.76431">
        <ele>594</ele>
        <time>2019-03-19T13:28:25Z</time>
      </trkpt>
      <trkpt lat="44.34102" lon="5.76425">
        <ele>594</ele>
        <time>2019-03-19T13:28:26Z</time>
      </trkpt>
      <trkpt lat="44.34105" lon="5.7642">
        <ele>594</ele>
        <time>2019-03-19T13:28:27Z</time>
      </trkpt>
      <trkpt lat="44.34108" lon="5.76414">
        <ele>594</ele>
        <time>2019-03-19T13:28:28Z</time>
      </trkpt>
      <trkpt lat="44.34111" lon="5.76408">
        <ele>594</ele>
        <time>2019-03-19T13:28:29Z</time>
      </trkpt>
      <trkpt lat="44.34113" lon="5.76402">
        <ele>594</ele>
        <time>2019-03-19T13:28:30Z</time>
      </trkpt>
      <trkpt lat="44.34114" lon="5.76396">
        <ele>594</ele>
        <time>2019-03-19T13:28:31Z</time>
      </trkpt>
      <trkpt lat="44.34116" lon="5.76391">
        <ele>594</ele>
        <time>2019-03-19T13:28:32Z</time>
      </trkpt>
      <trkpt lat="44.34119" lon="5.76385">
        <ele>594</ele>
        <time>2019-03-19T13:28:33Z</time>
      </trkpt>
      <trkpt lat="44.34122" lon="5.76382">
        <ele>594</ele>
        <time>2019-03-19T13:28:34Z</time>
      </trkpt>
      <trkpt lat="44.34126" lon="5.76379">
        <ele>594</ele>
        <time>2019-03-19T13:28:35Z</time>
      </trkpt>
      <trkpt lat="44.3413" lon="5.76377">
        <ele>594</ele>
        <time>2019-03-19T13:28:36Z</time>
      </trkpt>
      <trkpt lat="44.34133" lon="5.76373">
        <ele>594</ele>
        <time>2019-03-19T13:28:37Z</time>
      </trkpt>
      <trkpt lat="44.34135" lon="5.76368">
        <ele>594</ele>
        <time>2019-03-19T13:28:38Z</time>
      </trkpt>
      <trkpt lat="44.34136" lon="5.76362">
        <ele>594</ele>
        <time>2019-03-19T13:28:39Z</time>
      </trkpt>
      <trkpt lat="44.34135" lon="5.76357">
        <ele>594</ele>
        <time>2019-03-19T13:28:40Z</time>
      </trkpt>
      <trkpt lat="44.34133" lon="5.76353">
        <ele>594</ele>
        <time>2019-03-19T13:28:41Z</time>
      </trkpt>
      <trkpt lat="44.34129" lon="5.7635">
        <ele>594</ele>
        <time>2019-03-19T13:28:42Z</time>
      </trkpt>
      <trkpt lat="44.34126" lon="5.76347">
        <ele>594</ele>
        <time>2019-03-19T13:28:43Z</time>
      </trkpt>
      <trkpt lat="44.34121" lon="5.76344">
        <ele>594</ele>
        <time>2019-03-19T13:28:44Z</time>
      </trkpt>
      <trkpt lat="44.34118" lon="5.7634">
        <ele>594</ele>
        <time>2019-03-19T13:28:45Z</time>
      </trkpt>
      <trkpt lat="44.34114" lon="5.76334">
        <ele>594</ele>
        <time>2019-03-19T13:28:46Z</time>
      </trkpt>
      <trkpt lat="44.34112" lon="5.7633">
        <ele>594</ele>
        <time>2019-03-19T13:28:47Z</time>
      </trkpt>
      <trkpt lat="44.34109" lon="5.76324">
        <ele>594</ele>
        <time>2019-03-19T13:28:48Z</time>
      </trkpt>
      <trkpt lat="44.34106" lon="5.76319">
        <ele>594</ele>
        <time>2019-03-19T13:28:49Z</time>
      </trkpt>
      <trkpt lat="44.34103" lon="5.76313">
        <ele>594</ele>
        <time>2019-03-19T13:28:50Z</time>
      </trkpt>
      <trkpt lat="44.34101" lon="5.76308">
        <ele>594</ele>
        <time>2019-03-19T13:28:51Z</time>
      </trkpt>
      <trkpt lat="44.34098" lon="5.76302">
        <ele>594</ele>
        <time>2019-03-19T13:28:52Z</time>
      </trkpt>
      <trkpt lat="44.34095" lon="5.76297">
        <ele>594</ele>
        <time>2019-03-19T13:28:53Z</time>
      </trkpt>
      <trkpt lat="44.34093" lon="5.76292">
        <ele>595</ele>
        <time>2019-03-19T13:28:54Z</time>
      </trkpt>
      <trkpt lat="44.3409" lon="5.76286">
        <ele>595</ele>
        <time>2019-03-19T13:28:55Z</time>
      </trkpt>
      <trkpt lat="44.34087" lon="5.76281">
        <ele>595</ele>
        <time>2019-03-19T13:28:56Z</time>
      </trkpt>
      <trkpt lat="44.34085" lon="5.76275">
        <ele>595</ele>
        <time>2019-03-19T13:28:57Z</time>
      </trkpt>
      <trkpt lat="44.34082" lon="5.76269">
        <ele>595</ele>
        <time>2019-03-19T13:28:58Z</time>
      </trkpt>
      <trkpt lat="44.34079" lon="5.76264">
        <ele>595</ele>
        <time>2019-03-19T13:28:59Z</time>
      </trkpt>
      <trkpt lat="44.34076" lon="5.76259">
        <ele>595</ele>
        <time>2019-03-19T13:29:00Z</time>
      </trkpt>
      <trkpt lat="44.34074" lon="5.76253">
        <ele>596</ele>
        <time>2019-03-19T13:29:01Z</time>
      </trkpt>
      <trkpt lat="44.34071" lon="5.76248">
        <ele>596</ele>
        <time>2019-03-19T13:29:02Z</time>
      </trkpt>
      <trkpt lat="44.34069" lon="5.76243">
        <ele>596</ele>
        <time>2019-03-19T13:29:03Z</time>
      </trkpt>
      <trkpt lat="44.34066" lon="5.76237">
        <ele>596</ele>
        <time>2019-03-19T13:29:04Z</time>
      </trkpt>
      <trkpt lat="44.34064" lon="5.76232">
        <ele>596</ele>
        <time>2019-03-19T13:29:05Z</time>
      </trkpt>
      <trkpt lat="44.34061" lon="5.76227">
        <ele>596</ele>
        <time>2019-03-19T13:29:06Z</time>
      </trkpt>
      <trkpt lat="44.34058" lon="5.76221">
        <ele>596</ele>
        <time>2019-03-19T13:29:07Z</time>
      </trkpt>
      <trkpt lat="44.34055" lon="5.76216">
        <ele>597</ele>
        <time>2019-03-19T13:29:08Z</time>
      </trkpt>
      <trkpt lat="44.34053" lon="5.7621">
        <ele>597</ele>
        <time>2019-03-19T13:29:09Z</time>
      </trkpt>
      <trkpt lat="44.3405" lon="5.76205">
        <ele>597</ele>
        <time>2019-03-19T13:29:10Z</time>
      </trkpt>
      <trkpt lat="44.34047" lon="5.76199">
        <ele>597</ele>
        <time>2019-03-19T13:29:11Z</time>
      </trkpt>
      <trkpt lat="44.34044" lon="5.76194">
        <ele>597</ele>
        <time>2019-03-19T13:29:12Z</time>
      </trkpt>
      <trkpt lat="44.34042" lon="5.76189">
        <ele>598</ele>
        <time>2019-03-19T13:29:13Z</time>
      </trkpt>
      <trkpt lat="44.34039" lon="5.76183">
        <ele>598</ele>
        <time>2019-03-19T13:29:14Z</time>
      </trkpt>
      <trkpt lat="44.34036" lon="5.76177">
        <ele>598</ele>
        <time>2019-03-19T13:29:15Z</time>
      </trkpt>
      <trkpt lat="44.34034" lon="5.76172">
        <ele>598</ele>
        <time>2019-03-19T13:29:16Z</time>
      </trkpt>
      <trkpt lat="44.34031" lon="5.76166">
        <ele>598</ele>
        <time>2019-03-19T13:29:17Z</time>
      </trkpt>
      <trkpt lat="44.34028" lon="5.7616">
        <ele>598</ele>
        <time>2019-03-19T13:29:18Z</time>
      </trkpt>
      <trkpt lat="44.34025" lon="5.76155">
        <ele>598</ele>
        <time>2019-03-19T13:29:19Z</time>
      </trkpt>
      <trkpt lat="44.34022" lon="5.76149">
        <ele>598</ele>
        <time>2019-03-19T13:29:20Z</time>
      </trkpt>
      <trkpt lat="44.34019" lon="5.76143">
        <ele>599</ele>
        <time>2019-03-19T13:29:21Z</time>
      </trkpt>
      <trkpt lat="44.34016" lon="5.76137">
        <ele>599</ele>
        <time>2019-03-19T13:29:22Z</time>
      </trkpt>
      <trkpt lat="44.34013" lon="5.76131">
        <ele>599</ele>
        <time>2019-03-19T13:29:23Z</time>
      </trkpt>
      <trkpt lat="44.3401" lon="5.76126">
        <ele>599</ele>
        <time>2019-03-19T13:29:24Z</time>
      </trkpt>
      <trkpt lat="44.34008" lon="5.7612">
        <ele>599</ele>
        <time>2019-03-19T13:29:25Z</time>
      </trkpt>
      <trkpt lat="44.34005" lon="5.76114">
        <ele>599</ele>
        <time>2019-03-19T13:29:26Z</time>
      </trkpt>
      <trkpt lat="44.34002" lon="5.76109">
        <ele>599</ele>
        <time>2019-03-19T13:29:27Z</time>
      </trkpt>
      <trkpt lat="44.33999" lon="5.76102">
        <ele>599</ele>
        <time>2019-03-19T13:29:28Z</time>
      </trkpt>
      <trkpt lat="44.33996" lon="5.76096">
        <ele>599</ele>
        <time>2019-03-19T13:29:29Z</time>
      </trkpt>
      <trkpt lat="44.33993" lon="5.76091">
        <ele>599</ele>
        <time>2019-03-19T13:29:30Z</time>
      </trkpt>
      <trkpt lat="44.3399" lon="5.76085">
        <ele>599</ele>
        <time>2019-03-19T13:29:31Z</time>
      </trkpt>
      <trkpt lat="44.33987" lon="5.76079">
        <ele>599</ele>
        <time>2019-03-19T13:29:32Z</time>
      </trkpt>
      <trkpt lat="44.33984" lon="5.76073">
        <ele>599</ele>
        <time>2019-03-19T13:29:33Z</time>
      </trkpt>
      <trkpt lat="44.33981" lon="5.76066">
        <ele>599</ele>
        <time>2019-03-19T13:29:34Z</time>
      </trkpt>
      <trkpt lat="44.33978" lon="5.7606">
        <ele>599</ele>
        <time>2019-03-19T13:29:35Z</time>
      </trkpt>
      <trkpt lat="44.33975" lon="5.76054">
        <ele>599</ele>
        <time>2019-03-19T13:29:36Z</time>
      </trkpt>
      <trkpt lat="44.33972" lon="5.76048">
        <ele>599</ele>
        <time>2019-03-19T13:29:37Z</time>
      </trkpt>
      <trkpt lat="44.33969" lon="5.76041">
        <ele>599</ele>
        <time>2019-03-19T13:29:38Z</time>
      </trkpt>
      <trkpt lat="44.33966" lon="5.76035">
        <ele>599</ele>
        <time>2019-03-19T13:29:39Z</time>
      </trkpt>
      <trkpt lat="44.33963" lon="5.76029">
        <ele>599</ele>
        <time>2019-03-19T13:29:40Z</time>
      </trkpt>
      <trkpt lat="44.3396" lon="5.76023">
        <ele>599</ele>
        <time>2019-03-19T13:29:41Z</time>
      </trkpt>
      <trkpt lat="44.33957" lon="5.76017">
        <ele>599</ele>
        <time>2019-03-19T13:29:42Z</time>
      </trkpt>
      <trkpt lat="44.33954" lon="5.76011">
        <ele>599</ele>
        <time>2019-03-19T13:29:43Z</time>
      </trkpt>
      <trkpt lat="44.33951" lon="5.76004">
        <ele>599</ele>
        <time>2019-03-19T13:29:44Z</time>
      </trkpt>
      <trkpt lat="44.33948" lon="5.75998">
        <ele>599</ele>
        <time>2019-03-19T13:29:45Z</time>
      </trkpt>
      <trkpt lat="44.33945" lon="5.75992">
        <ele>599</ele>
        <time>2019-03-19T13:29:46Z</time>
      </trkpt>
      <trkpt lat="44.33942" lon="5.75986">
        <ele>599</ele>
        <time>2019-03-19T13:29:47Z</time>
      </trkpt>
      <trkpt lat="44.33939" lon="5.75979">
        <ele>599</ele>
        <time>2019-03-19T13:29:48Z</time>
      </trkpt>
      <trkpt lat="44.33936" lon="5.75973">
        <ele>599</ele>
        <time>2019-03-19T13:29:49Z</time>
      </trkpt>
      <trkpt lat="44.33933" lon="5.75967">
        <ele>599</ele>
        <time>2019-03-19T13:29:50Z</time>
      </trkpt>
      <trkpt lat="44.3393" lon="5.7596">
        <ele>599</ele>
        <time>2019-03-19T13:29:51Z</time>
      </trkpt>
      <trkpt lat="44.33927" lon="5.75954">
        <ele>599</ele>
        <time>2019-03-19T13:29:52Z</time>
      </trkpt>
      <trkpt lat="44.33924" lon="5.75948">
        <ele>600</ele>
        <time>2019-03-19T13:29:53Z</time>
      </trkpt>
      <trkpt lat="44.33921" lon="5.75941">
        <ele>600</ele>
        <time>2019-03-19T13:29:54Z</time>
      </trkpt>
      <trkpt lat="44.33918" lon="5.75935">
        <ele>600</ele>
        <time>2019-03-19T13:29:55Z</time>
      </trkpt>
      <trkpt lat="44.33915" lon="5.75929">
        <ele>600</ele>
        <time>2019-03-19T13:29:56Z</time>
      </trkpt>
      <trkpt lat="44.33912" lon="5.75923">
        <ele>600</ele>
        <time>2019-03-19T13:29:57Z</time>
      </trkpt>
      <trkpt lat="44.33909" lon="5.75916">
        <ele>600</ele>
        <time>2019-03-19T13:29:58Z</time>
      </trkpt>
      <trkpt lat="44.33906" lon="5.7591">
        <ele>600</ele>
        <time>2019-03-19T13:29:59Z</time>
      </trkpt>
      <trkpt lat="44.33903" lon="5.75904">
        <ele>601</ele>
        <time>2019-03-19T13:30:00Z</time>
      </trkpt>
      <trkpt lat="44.339" lon="5.75898">
        <ele>601</ele>
        <time>2019-03-19T13:30:01Z</time>
      </trkpt>
      <trkpt lat="44.33897" lon="5.75893">
        <ele>601</ele>
        <time>2019-03-19T13:30:02Z</time>
      </trkpt>
      <trkpt lat="44.33894" lon="5.75887">
        <ele>601</ele>
        <time>2019-03-19T13:30:03Z</time>
      </trkpt>
      <trkpt lat="44.33891" lon="5.75881">
        <ele>601</ele>
        <time>2019-03-19T13:30:04Z</time>
      </trkpt>
      <trkpt lat="44.33889" lon="5.75875">
        <ele>601</ele>
        <time>2019-03-19T13:30:05Z</time>
      </trkpt>
      <trkpt lat="44.33886" lon="5.7587">
        <ele>602</ele>
        <time>2019-03-19T13:30:06Z</time>
      </trkpt>
      <trkpt lat="44.33883" lon="5.75864">
        <ele>602</ele>
        <time>2019-03-19T13:30:07Z</time>
      </trkpt>
      <trkpt lat="44.3388" lon="5.75858">
        <ele>602</ele>
        <time>2019-03-19T13:30:08Z</time>
      </trkpt>
      <trkpt lat="44.33877" lon="5.75852">
        <ele>602</ele>
        <time>2019-03-19T13:30:09Z</time>
      </trkpt>
      <trkpt lat="44.33873" lon="5.75847">
        <ele>602</ele>
        <time>2019-03-19T13:30:10Z</time>
      </trkpt>
      <trkpt lat="44.3387" lon="5.75842">
        <ele>603</ele>
        <time>2019-03-19T13:30:11Z</time>
      </trkpt>
      <trkpt lat="44.33867" lon="5.75836">
        <ele>603</ele>
        <time>2019-03-19T13:30:12Z</time>
      </trkpt>
      <trkpt lat="44.33864" lon="5.75831">
        <ele>604</ele>
        <time>2019-03-19T13:30:13Z</time>
      </trkpt>
      <trkpt lat="44.3386" lon="5.75826">
        <ele>604</ele>
        <time>2019-03-19T13:30:14Z</time>
      </trkpt>
      <trkpt lat="44.33857" lon="5.7582">
        <ele>604</ele>
        <time>2019-03-19T13:30:15Z</time>
      </trkpt>
      <trkpt lat="44.33854" lon="5.75815">
        <ele>604</ele>
        <time>2019-03-19T13:30:16Z</time>
      </trkpt>
      <trkpt lat="44.33851" lon="5.7581">
        <ele>605</ele>
        <time>2019-03-19T13:30:17Z</time>
      </trkpt>
      <trkpt lat="44.33847" lon="5.75806">
        <ele>605</ele>
        <time>2019-03-19T13:30:18Z</time>
      </trkpt>
      <trkpt lat="44.33844" lon="5.75801">
        <ele>605</ele>
        <time>2019-03-19T13:30:19Z</time>
      </trkpt>
      <trkpt lat="44.3384" lon="5.75796">
        <ele>605</ele>
        <time>2019-03-19T13:30:20Z</time>
      </trkpt>
      <trkpt lat="44.33837" lon="5.75791">
        <ele>605</ele>
        <time>2019-03-19T13:30:21Z</time>
      </trkpt>
      <trkpt lat="44.33833" lon="5.75786">
        <ele>605</ele>
        <time>2019-03-19T13:30:22Z</time>
      </trkpt>
      <trkpt lat="44.33829" lon="5.75781">
        <ele>605</ele>
        <time>2019-03-19T13:30:23Z</time>
      </trkpt>
      <trkpt lat="44.33824" lon="5.75777">
        <ele>605</ele>
        <time>2019-03-19T13:30:24Z</time>
      </trkpt>
      <trkpt lat="44.3382" lon="5.75772">
        <ele>605</ele>
        <time>2019-03-19T13:30:25Z</time>
      </trkpt>
      <trkpt lat="44.33816" lon="5.75768">
        <ele>605</ele>
        <time>2019-03-19T13:30:26Z</time>
      </trkpt>
      <trkpt lat="44.33812" lon="5.75763">
        <ele>605</ele>
        <time>2019-03-19T13:30:27Z</time>
      </trkpt>
      <trkpt lat="44.33807" lon="5.75759">
        <ele>605</ele>
        <time>2019-03-19T13:30:28Z</time>
      </trkpt>
      <trkpt lat="44.33803" lon="5.75754">
        <ele>605</ele>
        <time>2019-03-19T13:30:29Z</time>
      </trkpt>
      <trkpt lat="44.33798" lon="5.75749">
        <ele>605</ele>
        <time>2019-03-19T13:30:30Z</time>
      </trkpt>
      <trkpt lat="44.33794" lon="5.75745">
        <ele>605</ele>
        <time>2019-03-19T13:30:31Z</time>
      </trkpt>
      <trkpt lat="44.3379" lon="5.7574">
        <ele>605</ele>
        <time>2019-03-19T13:30:32Z</time>
      </trkpt>
      <trkpt lat="44.33786" lon="5.75735">
        <ele>605</ele>
        <time>2019-03-19T13:30:33Z</time>
      </trkpt>
      <trkpt lat="44.33781" lon="5.75731">
        <ele>605</ele>
        <time>2019-03-19T13:30:34Z</time>
      </trkpt>
      <trkpt lat="44.33777" lon="5.75726">
        <ele>605</ele>
        <time>2019-03-19T13:30:35Z</time>
      </trkpt>
      <trkpt lat="44.33773" lon="5.75721">
        <ele>605</ele>
        <time>2019-03-19T13:30:36Z</time>
      </trkpt>
      <trkpt lat="44.33768" lon="5.75717">
        <ele>605</ele>
        <time>2019-03-19T13:30:37Z</time>
      </trkpt>
      <trkpt lat="44.33764" lon="5.75712">
        <ele>605</ele>
        <time>2019-03-19T13:30:38Z</time>
      </trkpt>
      <trkpt lat="44.3376" lon="5.75708">
        <ele>605</ele>
        <time>2019-03-19T13:30:39Z</time>
      </trkpt>
      <trkpt lat="44.33756" lon="5.75703">
        <ele>605</ele>
        <time>2019-03-19T13:30:40Z</time>
      </trkpt>
      <trkpt lat="44.33751" lon="5.75698">
        <ele>605</ele>
        <time>2019-03-19T13:30:41Z</time>
      </trkpt>
      <trkpt lat="44.33747" lon="5.75693">
        <ele>605</ele>
        <time>2019-03-19T13:30:42Z</time>
      </trkpt>
      <trkpt lat="44.33743" lon="5.75689">
        <ele>605</ele>
        <time>2019-03-19T13:30:43Z</time>
      </trkpt>
      <trkpt lat="44.33738" lon="5.75684">
        <ele>605</ele>
        <time>2019-03-19T13:30:44Z</time>
      </trkpt>
      <trkpt lat="44.33734" lon="5.75679">
        <ele>605</ele>
        <time>2019-03-19T13:30:45Z</time>
      </trkpt>
      <trkpt lat="44.3373" lon="5.75674">
        <ele>605</ele>
        <time>2019-03-19T13:30:46Z</time>
      </trkpt>
      <trkpt lat="44.33725" lon="5.75668">
        <ele>605</ele>
        <time>2019-03-19T13:30:47Z</time>
      </trkpt>
      <trkpt lat="44.33721" lon="5.75663">
        <ele>605</ele>
        <time>2019-03-19T13:30:48Z</time>
      </trkpt>
      <trkpt lat="44.33717" lon="5.75657">
        <ele>605</ele>
        <time>2019-03-19T13:30:49Z</time>
      </trkpt>
      <trkpt lat="44.33713" lon="5.75651">
        <ele>605</ele>
        <time>2019-03-19T13:30:50Z</time>
      </trkpt>
      <trkpt lat="44.3371" lon="5.75644">
        <ele>605</ele>
        <time>2019-03-19T13:30:51Z</time>
      </trkpt>
      <trkpt lat="44.33706" lon="5.75637">
        <ele>605</ele>
        <time>2019-03-19T13:30:52Z</time>
      </trkpt>
      <trkpt lat="44.33703" lon="5.7563">
        <ele>605</ele>
        <time>2019-03-19T13:30:53Z</time>
      </trkpt>
      <trkpt lat="44.337" lon="5.75622">
        <ele>605</ele>
        <time>2019-03-19T13:30:54Z</time>
      </trkpt>
      <trkpt lat="44.33697" lon="5.75615">
        <ele>605</ele>
        <time>2019-03-19T13:30:55Z</time>
      </trkpt>
      <trkpt lat="44.33694" lon="5.75607">
        <ele>605</ele>
        <time>2019-03-19T13:30:56Z</time>
      </trkpt>
      <trkpt lat="44.33691" lon="5.75599">
        <ele>605</ele>
        <time>2019-03-19T13:30:57Z</time>
      </trkpt>
      <trkpt lat="44.33688" lon="5.75592">
        <ele>605</ele>
        <time>2019-03-19T13:30:58Z</time>
      </trkpt>
      <trkpt lat="44.33685" lon="5.75584">
        <ele>605</ele>
        <time>2019-03-19T13:30:59Z</time>
      </trkpt>
      <trkpt lat="44.33682" lon="5.75576">
        <ele>605</ele>
        <time>2019-03-19T13:31:00Z</time>
      </trkpt>
      <trkpt lat="44.33679" lon="5.75569">
        <ele>605</ele>
        <time>2019-03-19T13:31:01Z</time>
      </trkpt>
      <trkpt lat="44.33676" lon="5.75561">
        <ele>605</ele>
        <time>2019-03-19T13:31:02Z</time>
      </trkpt>
      <trkpt lat="44.33673" lon="5.75554">
        <ele>605</ele>
        <time>2019-03-19T13:31:03Z</time>
      </trkpt>
      <trkpt lat="44.3367" lon="5.75546">
        <ele>605</ele>
        <time>2019-03-19T13:31:04Z</time>
      </trkpt>
      <trkpt lat="44.33667" lon="5.75539">
        <ele>605</ele>
        <time>2019-03-19T13:31:05Z</time>
      </trkpt>
      <trkpt lat="44.33665" lon="5.75532">
        <ele>605</ele>
        <time>2019-03-19T13:31:06Z</time>
      </trkpt>
      <trkpt lat="44.33662" lon="5.75525">
        <ele>605</ele>
        <time>2019-03-19T13:31:07Z</time>
      </trkpt>
      <trkpt lat="44.33659" lon="5.75518">
        <ele>605</ele>
        <time>2019-03-19T13:31:08Z</time>
      </trkpt>
      <trkpt lat="44.33656" lon="5.75511">
        <ele>605</ele>
        <time>2019-03-19T13:31:09Z</time>
      </trkpt>
      <trkpt lat="44.33652" lon="5.75505">
        <ele>605</ele>
        <time>2019-03-19T13:31:10Z</time>
      </trkpt>
      <trkpt lat="44.33649" lon="5.75499">
        <ele>605</ele>
        <time>2019-03-19T13:31:11Z</time>
      </trkpt>
      <trkpt lat="44.33644" lon="5.75493">
        <ele>605</ele>
        <time>2019-03-19T13:31:12Z</time>
      </trkpt>
      <trkpt lat="44.3364" lon="5.75488">
        <ele>605</ele>
        <time>2019-03-19T13:31:13Z</time>
      </trkpt>
      <trkpt lat="44.33635" lon="5.75484">
        <ele>605</ele>
        <time>2019-03-19T13:31:14Z</time>
      </trkpt>
      <trkpt lat="44.3363" lon="5.7548">
        <ele>605</ele>
        <time>2019-03-19T13:31:15Z</time>
      </trkpt>
      <trkpt lat="44.33625" lon="5.75476">
        <ele>605</ele>
        <time>2019-03-19T13:31:16Z</time>
      </trkpt>
      <trkpt lat="44.3362" lon="5.75472">
        <ele>605</ele>
        <time>2019-03-19T13:31:17Z</time>
      </trkpt>
      <trkpt lat="44.33615" lon="5.75468">
        <ele>605</ele>
        <time>2019-03-19T13:31:18Z</time>
      </trkpt>
      <trkpt lat="44.33609" lon="5.75465">
        <ele>605</ele>
        <time>2019-03-19T13:31:19Z</time>
      </trkpt>
      <trkpt lat="44.33604" lon="5.75461">
        <ele>605</ele>
        <time>2019-03-19T13:31:20Z</time>
      </trkpt>
      <trkpt lat="44.33599" lon="5.75457">
        <ele>605</ele>
        <time>2019-03-19T13:31:21Z</time>
      </trkpt>
      <trkpt lat="44.33594" lon="5.75453">
        <ele>605</ele>
        <time>2019-03-19T13:31:22Z</time>
      </trkpt>
      <trkpt lat="44.3359" lon="5.75448">
        <ele>605</ele>
        <time>2019-03-19T13:31:23Z</time>
      </trkpt>
      <trkpt lat="44.33585" lon="5.75444">
        <ele>605</ele>
        <time>2019-03-19T13:31:24Z</time>
      </trkpt>
      <trkpt lat="44.33581" lon="5.75439">
        <ele>605</ele>
        <time>2019-03-19T13:31:25Z</time>
      </trkpt>
      <trkpt lat="44.33577" lon="5.75434">
        <ele>605</ele>
        <time>2019-03-19T13:31:26Z</time>
      </trkpt>
      <trkpt lat="44.33573" lon="5.7543">
        <ele>605</ele>
        <time>2019-03-19T13:31:27Z</time>
      </trkpt>
      <trkpt lat="44.33569" lon="5.75426">
        <ele>605</ele>
        <time>2019-03-19T13:31:28Z</time>
      </trkpt>
      <trkpt lat="44.33565" lon="5.75421">
        <ele>606</ele>
        <time>2019-03-19T13:31:29Z</time>
      </trkpt>
      <trkpt lat="44.33561" lon="5.75417">
        <ele>606</ele>
        <time>2019-03-19T13:31:30Z</time>
      </trkpt>
      <trkpt lat="44.33557" lon="5.75413">
        <ele>606</ele>
        <time>2019-03-19T13:31:31Z</time>
      </trkpt>
      <trkpt lat="44.33554" lon="5.75409">
        <ele>606</ele>
        <time>2019-03-19T13:31:32Z</time>
      </trkpt>
      <trkpt lat="44.3355" lon="5.75404">
        <ele>606</ele>
        <time>2019-03-19T13:31:33Z</time>
      </trkpt>
      <trkpt lat="44.33546" lon="5.754">
        <ele>607</ele>
        <time>2019-03-19T13:31:34Z</time>
      </trkpt>
      <trkpt lat="44.33543" lon="5.75396">
        <ele>607</ele>
        <time>2019-03-19T13:31:35Z</time>
      </trkpt>
      <trkpt lat="44.3354" lon="5.75392">
        <ele>607</ele>
        <time>2019-03-19T13:31:36Z</time>
      </trkpt>
      <trkpt lat="44.33536" lon="5.75387">
        <ele>607</ele>
        <time>2019-03-19T13:31:37Z</time>
      </trkpt>
      <trkpt lat="44.33533" lon="5.75384">
        <ele>608</ele>
        <time>2019-03-19T13:31:38Z</time>
      </trkpt>
      <trkpt lat="44.3353" lon="5.7538">
        <ele>608</ele>
        <time>2019-03-19T13:31:39Z</time>
      </trkpt>
      <trkpt lat="44.33526" lon="5.75376">
        <ele>608</ele>
        <time>2019-03-19T13:31:40Z</time>
      </trkpt>
      <trkpt lat="44.33523" lon="5.75372">
        <ele>608</ele>
        <time>2019-03-19T13:31:41Z</time>
      </trkpt>
      <trkpt lat="44.33519" lon="5.75368">
        <ele>609</ele>
        <time>2019-03-19T13:31:42Z</time>
      </trkpt>
      <trkpt lat="44.33516" lon="5.75364">
        <ele>609</ele>
        <time>2019-03-19T13:31:43Z</time>
      </trkpt>
      <trkpt lat="44.33513" lon="5.7536">
        <ele>609</ele>
        <time>2019-03-19T13:31:44Z</time>
      </trkpt>
      <trkpt lat="44.3351" lon="5.75356">
        <ele>609</ele>
        <time>2019-03-19T13:31:45Z</time>
      </trkpt>
      <trkpt lat="44.33506" lon="5.75352">
        <ele>609</ele>
        <time>2019-03-19T13:31:46Z</time>
      </trkpt>
      <trkpt lat="44.33503" lon="5.75349">
        <ele>610</ele>
        <time>2019-03-19T13:31:47Z</time>
      </trkpt>
      <trkpt lat="44.335" lon="5.75345">
        <ele>610</ele>
        <time>2019-03-19T13:31:48Z</time>
      </trkpt>
      <trkpt lat="44.33496" lon="5.75341">
        <ele>610</ele>
        <time>2019-03-19T13:31:49Z</time>
      </trkpt>
      <trkpt lat="44.33493" lon="5.75337">
        <ele>610</ele>
        <time>2019-03-19T13:31:50Z</time>
      </trkpt>
      <trkpt lat="44.3349" lon="5.75333">
        <ele>611</ele>
        <time>2019-03-19T13:31:51Z</time>
      </trkpt>
      <trkpt lat="44.33487" lon="5.7533">
        <ele>611</ele>
        <time>2019-03-19T13:31:52Z</time>
      </trkpt>
      <trkpt lat="44.33484" lon="5.75326">
        <ele>611</ele>
        <time>2019-03-19T13:31:53Z</time>
      </trkpt>
      <trkpt lat="44.3348" lon="5.75323">
        <ele>611</ele>
        <time>2019-03-19T13:31:54Z</time>
      </trkpt>
      <trkpt lat="44.33477" lon="5.75319">
        <ele>611</ele>
        <time>2019-03-19T13:31:55Z</time>
      </trkpt>
      <trkpt lat="44.33474" lon="5.75316">
        <ele>611</ele>
        <time>2019-03-19T13:31:56Z</time>
      </trkpt>
      <trkpt lat="44.33471" lon="5.75313">
        <ele>611</ele>
        <time>2019-03-19T13:31:57Z</time>
      </trkpt>
      <trkpt lat="44.33468" lon="5.75309">
        <ele>612</ele>
        <time>2019-03-19T13:31:58Z</time>
      </trkpt>
      <trkpt lat="44.33465" lon="5.75306">
        <ele>612</ele>
        <time>2019-03-19T13:31:59Z</time>
      </trkpt>
      <trkpt lat="44.33462" lon="5.75302">
        <ele>612</ele>
        <time>2019-03-19T13:32:00Z</time>
      </trkpt>
      <trkpt lat="44.33459" lon="5.75299">
        <ele>612</ele>
        <time>2019-03-19T13:32:01Z</time>
      </trkpt>
      <trkpt lat="44.33456" lon="5.75295">
        <ele>612</ele>
        <time>2019-03-19T13:32:02Z</time>
      </trkpt>
      <trkpt lat="44.33453" lon="5.75292">
        <ele>613</ele>
        <time>2019-03-19T13:32:03Z</time>
      </trkpt>
      <trkpt lat="44.33449" lon="5.75289">
        <ele>613</ele>
        <time>2019-03-19T13:32:04Z</time>
      </trkpt>
      <trkpt lat="44.33446" lon="5.75285">
        <ele>613</ele>
        <time>2019-03-19T13:32:05Z</time>
      </trkpt>
      <trkpt lat="44.33443" lon="5.75282">
        <ele>613</ele>
        <time>2019-03-19T13:32:06Z</time>
      </trkpt>
      <trkpt lat="44.33439" lon="5.75278">
        <ele>613</ele>
        <time>2019-03-19T13:32:07Z</time>
      </trkpt>
      <trkpt lat="44.33435" lon="5.75275">
        <ele>613</ele>
        <time>2019-03-19T13:32:08Z</time>
      </trkpt>
      <trkpt lat="44.33432" lon="5.75271">
        <ele>613</ele>
        <time>2019-03-19T13:32:09Z</time>
      </trkpt>
      <trkpt lat="44.33428" lon="5.75267">
        <ele>613</ele>
        <time>2019-03-19T13:32:10Z</time>
      </trkpt>
      <trkpt lat="44.33424" lon="5.75264">
        <ele>613</ele>
        <time>2019-03-19T13:32:11Z</time>
      </trkpt>
      <trkpt lat="44.3342" lon="5.7526">
        <ele>613</ele>
        <time>2019-03-19T13:32:12Z</time>
      </trkpt>
      <trkpt lat="44.33416" lon="5.75256">
        <ele>613</ele>
        <time>2019-03-19T13:32:13Z</time>
      </trkpt>
      <trkpt lat="44.33412" lon="5.75252">
        <ele>613</ele>
        <time>2019-03-19T13:32:14Z</time>
      </trkpt>
      <trkpt lat="44.33408" lon="5.75249">
        <ele>614</ele>
        <time>2019-03-19T13:32:15Z</time>
      </trkpt>
      <trkpt lat="44.33404" lon="5.75245">
        <ele>614</ele>
        <time>2019-03-19T13:32:16Z</time>
      </trkpt>
      <trkpt lat="44.334" lon="5.75242">
        <ele>614</ele>
        <time>2019-03-19T13:32:17Z</time>
      </trkpt>
      <trkpt lat="44.33396" lon="5.75238">
        <ele>614</ele>
        <time>2019-03-19T13:32:18Z</time>
      </trkpt>
      <trkpt lat="44.33392" lon="5.75235">
        <ele>614</ele>
        <time>2019-03-19T13:32:19Z</time>
      </trkpt>
      <trkpt lat="44.33387" lon="5.75232">
        <ele>614</ele>
        <time>2019-03-19T13:32:20Z</time>
      </trkpt>
      <trkpt lat="44.33383" lon="5.75228">
        <ele>614</ele>
        <time>2019-03-19T13:32:21Z</time>
      </trkpt>
      <trkpt lat="44.33378" lon="5.75225">
        <ele>614</ele>
        <time>2019-03-19T13:32:22Z</time>
      </trkpt>
      <trkpt lat="44.33374" lon="5.75221">
        <ele>614</ele>
        <time>2019-03-19T13:32:23Z</time>
      </trkpt>
      <trkpt lat="44.33369" lon="5.75218">
        <ele>614</ele>
        <time>2019-03-19T13:32:24Z</time>
      </trkpt>
      <trkpt lat="44.33364" lon="5.75214">
        <ele>614</ele>
        <time>2019-03-19T13:32:25Z</time>
      </trkpt>
      <trkpt lat="44.33359" lon="5.75211">
        <ele>614</ele>
        <time>2019-03-19T13:32:26Z</time>
      </trkpt>
      <trkpt lat="44.33354" lon="5.75207">
        <ele>614</ele>
        <time>2019-03-19T13:32:27Z</time>
      </trkpt>
      <trkpt lat="44.33349" lon="5.75204">
        <ele>614</ele>
        <time>2019-03-19T13:32:28Z</time>
      </trkpt>
      <trkpt lat="44.33344" lon="5.752">
        <ele>614</ele>
        <time>2019-03-19T13:32:29Z</time>
      </trkpt>
      <trkpt lat="44.33339" lon="5.75196">
        <ele>614</ele>
        <time>2019-03-19T13:32:30Z</time>
      </trkpt>
      <trkpt lat="44.33333" lon="5.75192">
        <ele>614</ele>
        <time>2019-03-19T13:32:31Z</time>
      </trkpt>
      <trkpt lat="44.33328" lon="5.75188">
        <ele>614</ele>
        <time>2019-03-19T13:32:32Z</time>
      </trkpt>
      <trkpt lat="44.33322" lon="5.75185">
        <ele>614</ele>
        <time>2019-03-19T13:32:33Z</time>
      </trkpt>
      <trkpt lat="44.33316" lon="5.75181">
        <ele>614</ele>
        <time>2019-03-19T13:32:34Z</time>
      </trkpt>
      <trkpt lat="44.3331" lon="5.75177">
        <ele>614</ele>
        <time>2019-03-19T13:32:35Z</time>
      </trkpt>
      <trkpt lat="44.33305" lon="5.75173">
        <ele>614</ele>
        <time>2019-03-19T13:32:36Z</time>
      </trkpt>
      <trkpt lat="44.33299" lon="5.75168">
        <ele>614</ele>
        <time>2019-03-19T13:32:37Z</time>
      </trkpt>
      <trkpt lat="44.33293" lon="5.75164">
        <ele>614</ele>
        <time>2019-03-19T13:32:38Z</time>
      </trkpt>
      <trkpt lat="44.33287" lon="5.7516">
        <ele>614</ele>
        <time>2019-03-19T13:32:39Z</time>
      </trkpt>
      <trkpt lat="44.33281" lon="5.75155">
        <ele>614</ele>
        <time>2019-03-19T13:32:40Z</time>
      </trkpt>
      <trkpt lat="44.33275" lon="5.75151">
        <ele>614</ele>
        <time>2019-03-19T13:32:41Z</time>
      </trkpt>
      <trkpt lat="44.33269" lon="5.75147">
        <ele>614</ele>
        <time>2019-03-19T13:32:42Z</time>
      </trkpt>
      <trkpt lat="44.33263" lon="5.75143">
        <ele>614</ele>
        <time>2019-03-19T13:32:43Z</time>
      </trkpt>
      <trkpt lat="44.33257" lon="5.75139">
        <ele>614</ele>
        <time>2019-03-19T13:32:44Z</time>
      </trkpt>
      <trkpt lat="44.33251" lon="5.75135">
        <ele>614</ele>
        <time>2019-03-19T13:32:45Z</time>
      </trkpt>
      <trkpt lat="44.33245" lon="5.7513">
        <ele>614</ele>
        <time>2019-03-19T13:32:46Z</time>
      </trkpt>
      <trkpt lat="44.33239" lon="5.75126">
        <ele>614</ele>
        <time>2019-03-19T13:32:47Z</time>
      </trkpt>
      <trkpt lat="44.33234" lon="5.75122">
        <ele>614</ele>
        <time>2019-03-19T13:32:48Z</time>
      </trkpt>
      <trkpt lat="44.33228" lon="5.75118">
        <ele>614</ele>
        <time>2019-03-19T13:32:49Z</time>
      </trkpt>
      <trkpt lat="44.33223" lon="5.75114">
        <ele>614</ele>
        <time>2019-03-19T13:32:50Z</time>
      </trkpt>
      <trkpt lat="44.33218" lon="5.7511">
        <ele>614</ele>
        <time>2019-03-19T13:32:51Z</time>
      </trkpt>
      <trkpt lat="44.33213" lon="5.75107">
        <ele>614</ele>
        <time>2019-03-19T13:32:52Z</time>
      </trkpt>
      <trkpt lat="44.33208" lon="5.75103">
        <ele>614</ele>
        <time>2019-03-19T13:32:53Z</time>
      </trkpt>
      <trkpt lat="44.33203" lon="5.75099">
        <ele>614</ele>
        <time>2019-03-19T13:32:54Z</time>
      </trkpt>
      <trkpt lat="44.33198" lon="5.75096">
        <ele>614</ele>
        <time>2019-03-19T13:32:55Z</time>
      </trkpt>
      <trkpt lat="44.33193" lon="5.75092">
        <ele>614</ele>
        <time>2019-03-19T13:32:56Z</time>
      </trkpt>
      <trkpt lat="44.33188" lon="5.75089">
        <ele>614</ele>
        <time>2019-03-19T13:32:57Z</time>
      </trkpt>
      <trkpt lat="44.33183" lon="5.75086">
        <ele>615</ele>
        <time>2019-03-19T13:32:58Z</time>
      </trkpt>
      <trkpt lat="44.33178" lon="5.75082">
        <ele>615</ele>
        <time>2019-03-19T13:32:59Z</time>
      </trkpt>
      <trkpt lat="44.33174" lon="5.75079">
        <ele>615</ele>
        <time>2019-03-19T13:33:00Z</time>
      </trkpt>
      <trkpt lat="44.33169" lon="5.75076">
        <ele>615</ele>
        <time>2019-03-19T13:33:01Z</time>
      </trkpt>
      <trkpt lat="44.33165" lon="5.75073">
        <ele>616</ele>
        <time>2019-03-19T13:33:02Z</time>
      </trkpt>
      <trkpt lat="44.3316" lon="5.75069">
        <ele>616</ele>
        <time>2019-03-19T13:33:03Z</time>
      </trkpt>
      <trkpt lat="44.33155" lon="5.75066">
        <ele>616</ele>
        <time>2019-03-19T13:33:04Z</time>
      </trkpt>
      <trkpt lat="44.33151" lon="5.75062">
        <ele>616</ele>
        <time>2019-03-19T13:33:05Z</time>
      </trkpt>
      <trkpt lat="44.33147" lon="5.75058">
        <ele>616</ele>
        <time>2019-03-19T13:33:06Z</time>
      </trkpt>
      <trkpt lat="44.33142" lon="5.75054">
        <ele>617</ele>
        <time>2019-03-19T13:33:07Z</time>
      </trkpt>
      <trkpt lat="44.33139" lon="5.75049">
        <ele>617</ele>
        <time>2019-03-19T13:33:08Z</time>
      </trkpt>
      <trkpt lat="44.33135" lon="5.75044">
        <ele>617</ele>
        <time>2019-03-19T13:33:09Z</time>
      </trkpt>
      <trkpt lat="44.33131" lon="5.75039">
        <ele>617</ele>
        <time>2019-03-19T13:33:10Z</time>
      </trkpt>
      <trkpt lat="44.33128" lon="5.75034">
        <ele>618</ele>
        <time>2019-03-19T13:33:11Z</time>
      </trkpt>
      <trkpt lat="44.33124" lon="5.75029">
        <ele>618</ele>
        <time>2019-03-19T13:33:12Z</time>
      </trkpt>
      <trkpt lat="44.33121" lon="5.75023">
        <ele>618</ele>
        <time>2019-03-19T13:33:13Z</time>
      </trkpt>
      <trkpt lat="44.33118" lon="5.75017">
        <ele>618</ele>
        <time>2019-03-19T13:33:14Z</time>
      </trkpt>
      <trkpt lat="44.33115" lon="5.75011">
        <ele>619</ele>
        <time>2019-03-19T13:33:15Z</time>
      </trkpt>
      <trkpt lat="44.33112" lon="5.75005">
        <ele>619</ele>
        <time>2019-03-19T13:33:16Z</time>
      </trkpt>
      <trkpt lat="44.3311" lon="5.74999">
        <ele>619</ele>
        <time>2019-03-19T13:33:17Z</time>
      </trkpt>
      <trkpt lat="44.33107" lon="5.74992">
        <ele>619</ele>
        <time>2019-03-19T13:33:18Z</time>
      </trkpt>
      <trkpt lat="44.33105" lon="5.74986">
        <ele>620</ele>
        <time>2019-03-19T13:33:19Z</time>
      </trkpt>
      <trkpt lat="44.33102" lon="5.74979">
        <ele>620</ele>
        <time>2019-03-19T13:33:20Z</time>
      </trkpt>
      <trkpt lat="44.33099" lon="5.74973">
        <ele>620</ele>
        <time>2019-03-19T13:33:21Z</time>
      </trkpt>
      <trkpt lat="44.33096" lon="5.74966">
        <ele>620</ele>
        <time>2019-03-19T13:33:22Z</time>
      </trkpt>
      <trkpt lat="44.33094" lon="5.7496">
        <ele>620</ele>
        <time>2019-03-19T13:33:23Z</time>
      </trkpt>
      <trkpt lat="44.33091" lon="5.74953">
        <ele>620</ele>
        <time>2019-03-19T13:33:24Z</time>
      </trkpt>
      <trkpt lat="44.33089" lon="5.74946">
        <ele>620</ele>
        <time>2019-03-19T13:33:25Z</time>
      </trkpt>
      <trkpt lat="44.33086" lon="5.7494">
        <ele>620</ele>
        <time>2019-03-19T13:33:26Z</time>
      </trkpt>
      <trkpt lat="44.33083" lon="5.74933">
        <ele>620</ele>
        <time>2019-03-19T13:33:27Z</time>
      </trkpt>
      <trkpt lat="44.3308" lon="5.74926">
        <ele>620</ele>
        <time>2019-03-19T13:33:28Z</time>
      </trkpt>
      <trkpt lat="44.33077" lon="5.74919">
        <ele>621</ele>
        <time>2019-03-19T13:33:29Z</time>
      </trkpt>
      <trkpt lat="44.33074" lon="5.74912">
        <ele>621</ele>
        <time>2019-03-19T13:33:30Z</time>
      </trkpt>
      <trkpt lat="44.33071" lon="5.74905">
        <ele>621</ele>
        <time>2019-03-19T13:33:31Z</time>
      </trkpt>
      <trkpt lat="44.33068" lon="5.74899">
        <ele>621</ele>
        <time>2019-03-19T13:33:32Z</time>
      </trkpt>
      <trkpt lat="44.33066" lon="5.74892">
        <ele>621</ele>
        <time>2019-03-19T13:33:33Z</time>
      </trkpt>
      <trkpt lat="44.33063" lon="5.74885">
        <ele>621</ele>
        <time>2019-03-19T13:33:34Z</time>
      </trkpt>
      <trkpt lat="44.33059" lon="5.74879">
        <ele>621</ele>
        <time>2019-03-19T13:33:35Z</time>
      </trkpt>
      <trkpt lat="44.33056" lon="5.74872">
        <ele>621</ele>
        <time>2019-03-19T13:33:36Z</time>
      </trkpt>
      <trkpt lat="44.33053" lon="5.74866">
        <ele>621</ele>
        <time>2019-03-19T13:33:37Z</time>
      </trkpt>
      <trkpt lat="44.33049" lon="5.7486">
        <ele>621</ele>
        <time>2019-03-19T13:33:38Z</time>
      </trkpt>
      <trkpt lat="44.33044" lon="5.74855">
        <ele>621</ele>
        <time>2019-03-19T13:33:39Z</time>
      </trkpt>
      <trkpt lat="44.3304" lon="5.7485">
        <ele>621</ele>
        <time>2019-03-19T13:33:40Z</time>
      </trkpt>
      <trkpt lat="44.33036" lon="5.74844">
        <ele>621</ele>
        <time>2019-03-19T13:33:41Z</time>
      </trkpt>
      <trkpt lat="44.33031" lon="5.74839">
        <ele>621</ele>
        <time>2019-03-19T13:33:42Z</time>
      </trkpt>
      <trkpt lat="44.33026" lon="5.74834">
        <ele>621</ele>
        <time>2019-03-19T13:33:43Z</time>
      </trkpt>
      <trkpt lat="44.33022" lon="5.74829">
        <ele>621</ele>
        <time>2019-03-19T13:33:44Z</time>
      </trkpt>
      <trkpt lat="44.33017" lon="5.74824">
        <ele>621</ele>
        <time>2019-03-19T13:33:45Z</time>
      </trkpt>
      <trkpt lat="44.33012" lon="5.74819">
        <ele>621</ele>
        <time>2019-03-19T13:33:46Z</time>
      </trkpt>
      <trkpt lat="44.33007" lon="5.74813">
        <ele>621</ele>
        <time>2019-03-19T13:33:47Z</time>
      </trkpt>
      <trkpt lat="44.33002" lon="5.74809">
        <ele>621</ele>
        <time>2019-03-19T13:33:48Z</time>
      </trkpt>
      <trkpt lat="44.32998" lon="5.74804">
        <ele>621</ele>
        <time>2019-03-19T13:33:49Z</time>
      </trkpt>
      <trkpt lat="44.32993" lon="5.74799">
        <ele>621</ele>
        <time>2019-03-19T13:33:50Z</time>
      </trkpt>
      <trkpt lat="44.32988" lon="5.74794">
        <ele>621</ele>
        <time>2019-03-19T13:33:51Z</time>
      </trkpt>
      <trkpt lat="44.32984" lon="5.74789">
        <ele>621</ele>
        <time>2019-03-19T13:33:52Z</time>
      </trkpt>
      <trkpt lat="44.32979" lon="5.74784">
        <ele>621</ele>
        <time>2019-03-19T13:33:53Z</time>
      </trkpt>
      <trkpt lat="44.32974" lon="5.74779">
        <ele>621</ele>
        <time>2019-03-19T13:33:54Z</time>
      </trkpt>
      <trkpt lat="44.32969" lon="5.74774">
        <ele>621</ele>
        <time>2019-03-19T13:33:55Z</time>
      </trkpt>
      <trkpt lat="44.32964" lon="5.74769">
        <ele>621</ele>
        <time>2019-03-19T13:33:56Z</time>
      </trkpt>
      <trkpt lat="44.3296" lon="5.74764">
        <ele>621</ele>
        <time>2019-03-19T13:33:57Z</time>
      </trkpt>
      <trkpt lat="44.32955" lon="5.74758">
        <ele>621</ele>
        <time>2019-03-19T13:33:58Z</time>
      </trkpt>
      <trkpt lat="44.3295" lon="5.74753">
        <ele>621</ele>
        <time>2019-03-19T13:33:59Z</time>
      </trkpt>
      <trkpt lat="44.32945" lon="5.74748">
        <ele>621</ele>
        <time>2019-03-19T13:34:00Z</time>
      </trkpt>
      <trkpt lat="44.3294" lon="5.74743">
        <ele>621</ele>
        <time>2019-03-19T13:34:01Z</time>
      </trkpt>
      <trkpt lat="44.32935" lon="5.74737">
        <ele>621</ele>
        <time>2019-03-19T13:34:02Z</time>
      </trkpt>
      <trkpt lat="44.3293" lon="5.74732">
        <ele>621</ele>
        <time>2019-03-19T13:34:03Z</time>
      </trkpt>
      <trkpt lat="44.32925" lon="5.74727">
        <ele>621</ele>
        <time>2019-03-19T13:34:04Z</time>
      </trkpt>
      <trkpt lat="44.32919" lon="5.74721">
        <ele>621</ele>
        <time>2019-03-19T13:34:05Z</time>
      </trkpt>
      <trkpt lat="44.32915" lon="5.74716">
        <ele>621</ele>
        <time>2019-03-19T13:34:06Z</time>
      </trkpt>
      <trkpt lat="44.3291" lon="5.74711">
        <ele>622</ele>
        <time>2019-03-19T13:34:07Z</time>
      </trkpt>
      <trkpt lat="44.32905" lon="5.74706">
        <ele>622</ele>
        <time>2019-03-19T13:34:08Z</time>
      </trkpt>
      <trkpt lat="44.329" lon="5.74701">
        <ele>622</ele>
        <time>2019-03-19T13:34:09Z</time>
      </trkpt>
      <trkpt lat="44.32895" lon="5.74696">
        <ele>622</ele>
        <time>2019-03-19T13:34:10Z</time>
      </trkpt>
      <trkpt lat="44.32891" lon="5.74691">
        <ele>622</ele>
        <time>2019-03-19T13:34:11Z</time>
      </trkpt>
      <trkpt lat="44.32886" lon="5.74686">
        <ele>623</ele>
        <time>2019-03-19T13:34:12Z</time>
      </trkpt>
      <trkpt lat="44.32881" lon="5.74682">
        <ele>623</ele>
        <time>2019-03-19T13:34:13Z</time>
      </trkpt>
      <trkpt lat="44.32877" lon="5.74676">
        <ele>623</ele>
        <time>2019-03-19T13:34:14Z</time>
      </trkpt>
      <trkpt lat="44.32872" lon="5.74671">
        <ele>623</ele>
        <time>2019-03-19T13:34:15Z</time>
      </trkpt>
      <trkpt lat="44.32868" lon="5.74667">
        <ele>623</ele>
        <time>2019-03-19T13:34:16Z</time>
      </trkpt>
      <trkpt lat="44.32864" lon="5.74662">
        <ele>624</ele>
        <time>2019-03-19T13:34:17Z</time>
      </trkpt>
      <trkpt lat="44.32859" lon="5.74657">
        <ele>624</ele>
        <time>2019-03-19T13:34:18Z</time>
      </trkpt>
      <trkpt lat="44.32855" lon="5.74652">
        <ele>624</ele>
        <time>2019-03-19T13:34:19Z</time>
      </trkpt>
      <trkpt lat="44.32851" lon="5.74647">
        <ele>624</ele>
        <time>2019-03-19T13:34:20Z</time>
      </trkpt>
      <trkpt lat="44.32846" lon="5.74642">
        <ele>624</ele>
        <time>2019-03-19T13:34:21Z</time>
      </trkpt>
      <trkpt lat="44.32842" lon="5.74637">
        <ele>624</ele>
        <time>2019-03-19T13:34:22Z</time>
      </trkpt>
      <trkpt lat="44.32838" lon="5.74633">
        <ele>624</ele>
        <time>2019-03-19T13:34:23Z</time>
      </trkpt>
      <trkpt lat="44.32833" lon="5.74627">
        <ele>624</ele>
        <time>2019-03-19T13:34:24Z</time>
      </trkpt>
      <trkpt lat="44.32829" lon="5.74623">
        <ele>624</ele>
        <time>2019-03-19T13:34:25Z</time>
      </trkpt>
      <trkpt lat="44.32824" lon="5.74618">
        <ele>624</ele>
        <time>2019-03-19T13:34:26Z</time>
      </trkpt>
      <trkpt lat="44.32819" lon="5.74613">
        <ele>625</ele>
        <time>2019-03-19T13:34:27Z</time>
      </trkpt>
      <trkpt lat="44.32815" lon="5.74609">
        <ele>625</ele>
        <time>2019-03-19T13:34:28Z</time>
      </trkpt>
      <trkpt lat="44.3281" lon="5.74604">
        <ele>625</ele>
        <time>2019-03-19T13:34:29Z</time>
      </trkpt>
      <trkpt lat="44.32805" lon="5.74599">
        <ele>625</ele>
        <time>2019-03-19T13:34:30Z</time>
      </trkpt>
      <trkpt lat="44.328" lon="5.74595">
        <ele>625</ele>
        <time>2019-03-19T13:34:31Z</time>
      </trkpt>
      <trkpt lat="44.32795" lon="5.7459">
        <ele>625</ele>
        <time>2019-03-19T13:34:32Z</time>
      </trkpt>
      <trkpt lat="44.3279" lon="5.74586">
        <ele>625</ele>
        <time>2019-03-19T13:34:33Z</time>
      </trkpt>
      <trkpt lat="44.32784" lon="5.74582">
        <ele>625</ele>
        <time>2019-03-19T13:34:34Z</time>
      </trkpt>
      <trkpt lat="44.32779" lon="5.74578">
        <ele>625</ele>
        <time>2019-03-19T13:34:35Z</time>
      </trkpt>
      <trkpt lat="44.32773" lon="5.74574">
        <ele>625</ele>
        <time>2019-03-19T13:34:36Z</time>
      </trkpt>
      <trkpt lat="44.32767" lon="5.7457">
        <ele>625</ele>
        <time>2019-03-19T13:34:37Z</time>
      </trkpt>
      <trkpt lat="44.32761" lon="5.74566">
        <ele>625</ele>
        <time>2019-03-19T13:34:38Z</time>
      </trkpt>
      <trkpt lat="44.32755" lon="5.74562">
        <ele>625</ele>
        <time>2019-03-19T13:34:39Z</time>
      </trkpt>
      <trkpt lat="44.32749" lon="5.74559">
        <ele>625</ele>
        <time>2019-03-19T13:34:40Z</time>
      </trkpt>
      <trkpt lat="44.32743" lon="5.74555">
        <ele>625</ele>
        <time>2019-03-19T13:34:41Z</time>
      </trkpt>
      <trkpt lat="44.32737" lon="5.74552">
        <ele>625</ele>
        <time>2019-03-19T13:34:42Z</time>
      </trkpt>
      <trkpt lat="44.32732" lon="5.74548">
        <ele>625</ele>
        <time>2019-03-19T13:34:43Z</time>
      </trkpt>
      <trkpt lat="44.32726" lon="5.74544">
        <ele>625</ele>
        <time>2019-03-19T13:34:44Z</time>
      </trkpt>
      <trkpt lat="44.32721" lon="5.74541">
        <ele>625</ele>
        <time>2019-03-19T13:34:45Z</time>
      </trkpt>
      <trkpt lat="44.32715" lon="5.74538">
        <ele>625</ele>
        <time>2019-03-19T13:34:46Z</time>
      </trkpt>
      <trkpt lat="44.3271" lon="5.74534">
        <ele>625</ele>
        <time>2019-03-19T13:34:47Z</time>
      </trkpt>
      <trkpt lat="44.32704" lon="5.74531">
        <ele>625</ele>
        <time>2019-03-19T13:34:48Z</time>
      </trkpt>
      <trkpt lat="44.32699" lon="5.74527">
        <ele>625</ele>
        <time>2019-03-19T13:34:49Z</time>
      </trkpt>
      <trkpt lat="44.32694" lon="5.74523">
        <ele>626</ele>
        <time>2019-03-19T13:34:50Z</time>
      </trkpt>
      <trkpt lat="44.32689" lon="5.74518">
        <ele>626</ele>
        <time>2019-03-19T13:34:51Z</time>
      </trkpt>
      <trkpt lat="44.32685" lon="5.74513">
        <ele>626</ele>
        <time>2019-03-19T13:34:52Z</time>
      </trkpt>
      <trkpt lat="44.32681" lon="5.74509">
        <ele>626</ele>
        <time>2019-03-19T13:34:53Z</time>
      </trkpt>
      <trkpt lat="44.32677" lon="5.74504">
        <ele>627</ele>
        <time>2019-03-19T13:34:54Z</time>
      </trkpt>
      <trkpt lat="44.32673" lon="5.74499">
        <ele>627</ele>
        <time>2019-03-19T13:34:55Z</time>
      </trkpt>
      <trkpt lat="44.3267" lon="5.74494">
        <ele>627</ele>
        <time>2019-03-19T13:34:56Z</time>
      </trkpt>
      <trkpt lat="44.32666" lon="5.74489">
        <ele>627</ele>
        <time>2019-03-19T13:34:57Z</time>
      </trkpt>
      <trkpt lat="44.32663" lon="5.74484">
        <ele>628</ele>
        <time>2019-03-19T13:34:58Z</time>
      </trkpt>
      <trkpt lat="44.32659" lon="5.74479">
        <ele>628</ele>
        <time>2019-03-19T13:34:59Z</time>
      </trkpt>
      <trkpt lat="44.32655" lon="5.74473">
        <ele>628</ele>
        <time>2019-03-19T13:35:00Z</time>
      </trkpt>
      <trkpt lat="44.32652" lon="5.74468">
        <ele>628</ele>
        <time>2019-03-19T13:35:01Z</time>
      </trkpt>
      <trkpt lat="44.32648" lon="5.74463">
        <ele>628</ele>
        <time>2019-03-19T13:35:02Z</time>
      </trkpt>
      <trkpt lat="44.32645" lon="5.74458">
        <ele>628</ele>
        <time>2019-03-19T13:35:03Z</time>
      </trkpt>
      <trkpt lat="44.32641" lon="5.74453">
        <ele>629</ele>
        <time>2019-03-19T13:35:04Z</time>
      </trkpt>
      <trkpt lat="44.32637" lon="5.74447">
        <ele>629</ele>
        <time>2019-03-19T13:35:05Z</time>
      </trkpt>
      <trkpt lat="44.32634" lon="5.74442">
        <ele>629</ele>
        <time>2019-03-19T13:35:06Z</time>
      </trkpt>
      <trkpt lat="44.3263" lon="5.74437">
        <ele>629</ele>
        <time>2019-03-19T13:35:07Z</time>
      </trkpt>
      <trkpt lat="44.32626" lon="5.74431">
        <ele>629</ele>
        <time>2019-03-19T13:35:08Z</time>
      </trkpt>
      <trkpt lat="44.32623" lon="5.74426">
        <ele>629</ele>
        <time>2019-03-19T13:35:09Z</time>
      </trkpt>
      <trkpt lat="44.32619" lon="5.7442">
        <ele>629</ele>
        <time>2019-03-19T13:35:10Z</time>
      </trkpt>
      <trkpt lat="44.32615" lon="5.74415">
        <ele>629</ele>
        <time>2019-03-19T13:35:11Z</time>
      </trkpt>
      <trkpt lat="44.32611" lon="5.7441">
        <ele>629</ele>
        <time>2019-03-19T13:35:12Z</time>
      </trkpt>
      <trkpt lat="44.32608" lon="5.74405">
        <ele>629</ele>
        <time>2019-03-19T13:35:13Z</time>
      </trkpt>
      <trkpt lat="44.32604" lon="5.744">
        <ele>629</ele>
        <time>2019-03-19T13:35:14Z</time>
      </trkpt>
      <trkpt lat="44.326" lon="5.74395">
        <ele>629</ele>
        <time>2019-03-19T13:35:15Z</time>
      </trkpt>
      <trkpt lat="44.32597" lon="5.7439">
        <ele>630</ele>
        <time>2019-03-19T13:35:16Z</time>
      </trkpt>
      <trkpt lat="44.32593" lon="5.74384">
        <ele>630</ele>
        <time>2019-03-19T13:35:17Z</time>
      </trkpt>
      <trkpt lat="44.32589" lon="5.74379">
        <ele>630</ele>
        <time>2019-03-19T13:35:18Z</time>
      </trkpt>
      <trkpt lat="44.32586" lon="5.74374">
        <ele>630</ele>
        <time>2019-03-19T13:35:19Z</time>
      </trkpt>
      <trkpt lat="44.32582" lon="5.74368">
        <ele>630</ele>
        <time>2019-03-19T13:35:20Z</time>
      </trkpt>
      <trkpt lat="44.32579" lon="5.74363">
        <ele>630</ele>
        <time>2019-03-19T13:35:21Z</time>
      </trkpt>
      <trkpt lat="44.32575" lon="5.74358">
        <ele>630</ele>
        <time>2019-03-19T13:35:22Z</time>
      </trkpt>
      <trkpt lat="44.32571" lon="5.74352">
        <ele>630</ele>
        <time>2019-03-19T13:35:23Z</time>
      </trkpt>
      <trkpt lat="44.32567" lon="5.74346">
        <ele>630</ele>
        <time>2019-03-19T13:35:24Z</time>
      </trkpt>
      <trkpt lat="44.32563" lon="5.74341">
        <ele>630</ele>
        <time>2019-03-19T13:35:25Z</time>
      </trkpt>
      <trkpt lat="44.32559" lon="5.74335">
        <ele>630</ele>
        <time>2019-03-19T13:35:26Z</time>
      </trkpt>
      <trkpt lat="44.32555" lon="5.7433">
        <ele>630</ele>
        <time>2019-03-19T13:35:27Z</time>
      </trkpt>
      <trkpt lat="44.3255" lon="5.74325">
        <ele>630</ele>
        <time>2019-03-19T13:35:28Z</time>
      </trkpt>
      <trkpt lat="44.32546" lon="5.74319">
        <ele>630</ele>
        <time>2019-03-19T13:35:29Z</time>
      </trkpt>
      <trkpt lat="44.32542" lon="5.74313">
        <ele>630</ele>
        <time>2019-03-19T13:35:30Z</time>
      </trkpt>
      <trkpt lat="44.32537" lon="5.74308">
        <ele>630</ele>
        <time>2019-03-19T13:35:31Z</time>
      </trkpt>
      <trkpt lat="44.32533" lon="5.74303">
        <ele>630</ele>
        <time>2019-03-19T13:35:32Z</time>
      </trkpt>
      <trkpt lat="44.32528" lon="5.74298">
        <ele>630</ele>
        <time>2019-03-19T13:35:33Z</time>
      </trkpt>
      <trkpt lat="44.32524" lon="5.74293">
        <ele>630</ele>
        <time>2019-03-19T13:35:34Z</time>
      </trkpt>
      <trkpt lat="44.3252" lon="5.74287">
        <ele>630</ele>
        <time>2019-03-19T13:35:35Z</time>
      </trkpt>
      <trkpt lat="44.32515" lon="5.74282">
        <ele>630</ele>
        <time>2019-03-19T13:35:36Z</time>
      </trkpt>
      <trkpt lat="44.32511" lon="5.74277">
        <ele>630</ele>
        <time>2019-03-19T13:35:37Z</time>
      </trkpt>
      <trkpt lat="44.32506" lon="5.74272">
        <ele>630</ele>
        <time>2019-03-19T13:35:38Z</time>
      </trkpt>
      <trkpt lat="44.32502" lon="5.74267">
        <ele>630</ele>
        <time>2019-03-19T13:35:39Z</time>
      </trkpt>
      <trkpt lat="44.32498" lon="5.74262">
        <ele>630</ele>
        <time>2019-03-19T13:35:40Z</time>
      </trkpt>
      <trkpt lat="44.32494" lon="5.74257">
        <ele>630</ele>
        <time>2019-03-19T13:35:41Z</time>
      </trkpt>
      <trkpt lat="44.32489" lon="5.74251">
        <ele>630</ele>
        <time>2019-03-19T13:35:42Z</time>
      </trkpt>
      <trkpt lat="44.32485" lon="5.74246">
        <ele>630</ele>
        <time>2019-03-19T13:35:43Z</time>
      </trkpt>
      <trkpt lat="44.32481" lon="5.74241">
        <ele>630</ele>
        <time>2019-03-19T13:35:44Z</time>
      </trkpt>
      <trkpt lat="44.32477" lon="5.74235">
        <ele>631</ele>
        <time>2019-03-19T13:35:45Z</time>
      </trkpt>
      <trkpt lat="44.32473" lon="5.7423">
        <ele>631</ele>
        <time>2019-03-19T13:35:46Z</time>
      </trkpt>
      <trkpt lat="44.32469" lon="5.74224">
        <ele>631</ele>
        <time>2019-03-19T13:35:47Z</time>
      </trkpt>
      <trkpt lat="44.32465" lon="5.74217">
        <ele>631</ele>
        <time>2019-03-19T13:35:48Z</time>
      </trkpt>
      <trkpt lat="44.32461" lon="5.74211">
        <ele>631</ele>
        <time>2019-03-19T13:35:49Z</time>
      </trkpt>
      <trkpt lat="44.32457" lon="5.74204">
        <ele>631</ele>
        <time>2019-03-19T13:35:50Z</time>
      </trkpt>
      <trkpt lat="44.32453" lon="5.74197">
        <ele>631</ele>
        <time>2019-03-19T13:35:51Z</time>
      </trkpt>
      <trkpt lat="44.32449" lon="5.74189">
        <ele>631</ele>
        <time>2019-03-19T13:35:52Z</time>
      </trkpt>
      <trkpt lat="44.32444" lon="5.74181">
        <ele>631</ele>
        <time>2019-03-19T13:35:53Z</time>
      </trkpt>
      <trkpt lat="44.3244" lon="5.74173">
        <ele>631</ele>
        <time>2019-03-19T13:35:54Z</time>
      </trkpt>
      <trkpt lat="44.32436" lon="5.74165">
        <ele>631</ele>
        <time>2019-03-19T13:35:55Z</time>
      </trkpt>
      <trkpt lat="44.32431" lon="5.74156">
        <ele>631</ele>
        <time>2019-03-19T13:35:56Z</time>
      </trkpt>
      <trkpt lat="44.32426" lon="5.74148">
        <ele>631</ele>
        <time>2019-03-19T13:35:57Z</time>
      </trkpt>
      <trkpt lat="44.32422" lon="5.74138">
        <ele>631</ele>
        <time>2019-03-19T13:35:58Z</time>
      </trkpt>
      <trkpt lat="44.32417" lon="5.74129">
        <ele>631</ele>
        <time>2019-03-19T13:35:59Z</time>
      </trkpt>
      <trkpt lat="44.32412" lon="5.7412">
        <ele>631</ele>
        <time>2019-03-19T13:36:00Z</time>
      </trkpt>
      <trkpt lat="44.32407" lon="5.7411">
        <ele>631</ele>
        <time>2019-03-19T13:36:01Z</time>
      </trkpt>
      <trkpt lat="44.32403" lon="5.74101">
        <ele>631</ele>
        <time>2019-03-19T13:36:02Z</time>
      </trkpt>
      <trkpt lat="44.32398" lon="5.74092">
        <ele>631</ele>
        <time>2019-03-19T13:36:03Z</time>
      </trkpt>
      <trkpt lat="44.32393" lon="5.74084">
        <ele>631</ele>
        <time>2019-03-19T13:36:04Z</time>
      </trkpt>
      <trkpt lat="44.32389" lon="5.74075">
        <ele>631</ele>
        <time>2019-03-19T13:36:05Z</time>
      </trkpt>
      <trkpt lat="44.32384" lon="5.74067">
        <ele>631</ele>
        <time>2019-03-19T13:36:06Z</time>
      </trkpt>
      <trkpt lat="44.3238" lon="5.74059">
        <ele>631</ele>
        <time>2019-03-19T13:36:07Z</time>
      </trkpt>
      <trkpt lat="44.32376" lon="5.74051">
        <ele>631</ele>
        <time>2019-03-19T13:36:08Z</time>
      </trkpt>
      <trkpt lat="44.32372" lon="5.74043">
        <ele>631</ele>
        <time>2019-03-19T13:36:09Z</time>
      </trkpt>
      <trkpt lat="44.32367" lon="5.74035">
        <ele>631</ele>
        <time>2019-03-19T13:36:10Z</time>
      </trkpt>
      <trkpt lat="44.32364" lon="5.74027">
        <ele>631</ele>
        <time>2019-03-19T13:36:11Z</time>
      </trkpt>
      <trkpt lat="44.3236" lon="5.7402">
        <ele>631</ele>
        <time>2019-03-19T13:36:12Z</time>
      </trkpt>
      <trkpt lat="44.32356" lon="5.74013">
        <ele>631</ele>
        <time>2019-03-19T13:36:13Z</time>
      </trkpt>
      <trkpt lat="44.32352" lon="5.74007">
        <ele>631</ele>
        <time>2019-03-19T13:36:14Z</time>
      </trkpt>
      <trkpt lat="44.32349" lon="5.74">
        <ele>631</ele>
        <time>2019-03-19T13:36:15Z</time>
      </trkpt>
      <trkpt lat="44.32345" lon="5.73994">
        <ele>631</ele>
        <time>2019-03-19T13:36:16Z</time>
      </trkpt>
      <trkpt lat="44.32342" lon="5.73988">
        <ele>631</ele>
        <time>2019-03-19T13:36:17Z</time>
      </trkpt>
      <trkpt lat="44.32339" lon="5.73982">
        <ele>631</ele>
        <time>2019-03-19T13:36:18Z</time>
      </trkpt>
      <trkpt lat="44.32336" lon="5.73976">
        <ele>631</ele>
        <time>2019-03-19T13:36:19Z</time>
      </trkpt>
      <trkpt lat="44.32333" lon="5.7397">
        <ele>631</ele>
        <time>2019-03-19T13:36:20Z</time>
      </trkpt>
      <trkpt lat="44.32329" lon="5.73964">
        <ele>631</ele>
        <time>2019-03-19T13:36:21Z</time>
      </trkpt>
      <trkpt lat="44.32326" lon="5.73958">
        <ele>631</ele>
        <time>2019-03-19T13:36:22Z</time>
      </trkpt>
      <trkpt lat="44.32323" lon="5.73952">
        <ele>631</ele>
        <time>2019-03-19T13:36:23Z</time>
      </trkpt>
      <trkpt lat="44.3232" lon="5.73946">
        <ele>631</ele>
        <time>2019-03-19T13:36:24Z</time>
      </trkpt>
      <trkpt lat="44.32317" lon="5.7394">
        <ele>632</ele>
        <time>2019-03-19T13:36:25Z</time>
      </trkpt>
      <trkpt lat="44.32314" lon="5.73934">
        <ele>632</ele>
        <time>2019-03-19T13:36:26Z</time>
      </trkpt>
      <trkpt lat="44.32311" lon="5.73927">
        <ele>632</ele>
        <time>2019-03-19T13:36:27Z</time>
      </trkpt>
      <trkpt lat="44.32308" lon="5.73921">
        <ele>632</ele>
        <time>2019-03-19T13:36:28Z</time>
      </trkpt>
      <trkpt lat="44.32305" lon="5.73914">
        <ele>633</ele>
        <time>2019-03-19T13:36:29Z</time>
      </trkpt>
      <trkpt lat="44.32302" lon="5.73907">
        <ele>633</ele>
        <time>2019-03-19T13:36:30Z</time>
      </trkpt>
      <trkpt lat="44.32299" lon="5.739">
        <ele>633</ele>
        <time>2019-03-19T13:36:31Z</time>
      </trkpt>
      <trkpt lat="44.32296" lon="5.73893">
        <ele>633</ele>
        <time>2019-03-19T13:36:32Z</time>
      </trkpt>
      <trkpt lat="44.32294" lon="5.73886">
        <ele>634</ele>
        <time>2019-03-19T13:36:33Z</time>
      </trkpt>
      <trkpt lat="44.32291" lon="5.73878">
        <ele>634</ele>
        <time>2019-03-19T13:36:34Z</time>
      </trkpt>
      <trkpt lat="44.32288" lon="5.73871">
        <ele>634</ele>
        <time>2019-03-19T13:36:35Z</time>
      </trkpt>
      <trkpt lat="44.32286" lon="5.73864">
        <ele>634</ele>
        <time>2019-03-19T13:36:36Z</time>
      </trkpt>
      <trkpt lat="44.32283" lon="5.73857">
        <ele>634</ele>
        <time>2019-03-19T13:36:37Z</time>
      </trkpt>
      <trkpt lat="44.3228" lon="5.73849">
        <ele>634</ele>
        <time>2019-03-19T13:36:38Z</time>
      </trkpt>
      <trkpt lat="44.32278" lon="5.73842">
        <ele>634</ele>
        <time>2019-03-19T13:36:39Z</time>
      </trkpt>
      <trkpt lat="44.32275" lon="5.73835">
        <ele>634</ele>
        <time>2019-03-19T13:36:40Z</time>
      </trkpt>
      <trkpt lat="44.32272" lon="5.73828">
        <ele>634</ele>
        <time>2019-03-19T13:36:41Z</time>
      </trkpt>
      <trkpt lat="44.3227" lon="5.7382">
        <ele>634</ele>
        <time>2019-03-19T13:36:42Z</time>
      </trkpt>
      <trkpt lat="44.32267" lon="5.73813">
        <ele>634</ele>
        <time>2019-03-19T13:36:43Z</time>
      </trkpt>
      <trkpt lat="44.32264" lon="5.73806">
        <ele>634</ele>
        <time>2019-03-19T13:36:44Z</time>
      </trkpt>
      <trkpt lat="44.32262" lon="5.73798">
        <ele>634</ele>
        <time>2019-03-19T13:36:45Z</time>
      </trkpt>
      <trkpt lat="44.32259" lon="5.73791">
        <ele>634</ele>
        <time>2019-03-19T13:36:46Z</time>
      </trkpt>
      <trkpt lat="44.32256" lon="5.73783">
        <ele>634</ele>
        <time>2019-03-19T13:36:47Z</time>
      </trkpt>
      <trkpt lat="44.32254" lon="5.73775">
        <ele>634</ele>
        <time>2019-03-19T13:36:48Z</time>
      </trkpt>
      <trkpt lat="44.32251" lon="5.73768">
        <ele>635</ele>
        <time>2019-03-19T13:36:49Z</time>
      </trkpt>
      <trkpt lat="44.32249" lon="5.73761">
        <ele>635</ele>
        <time>2019-03-19T13:36:50Z</time>
      </trkpt>
      <trkpt lat="44.32246" lon="5.73753">
        <ele>635</ele>
        <time>2019-03-19T13:36:51Z</time>
      </trkpt>
      <trkpt lat="44.32243" lon="5.73745">
        <ele>635</ele>
        <time>2019-03-19T13:36:52Z</time>
      </trkpt>
      <trkpt lat="44.32241" lon="5.73738">
        <ele>636</ele>
        <time>2019-03-19T13:36:53Z</time>
      </trkpt>
      <trkpt lat="44.32238" lon="5.73731">
        <ele>636</ele>
        <time>2019-03-19T13:36:54Z</time>
      </trkpt>
      <trkpt lat="44.32236" lon="5.73723">
        <ele>636</ele>
        <time>2019-03-19T13:36:55Z</time>
      </trkpt>
      <trkpt lat="44.32233" lon="5.73716">
        <ele>636</ele>
        <time>2019-03-19T13:36:56Z</time>
      </trkpt>
      <trkpt lat="44.32231" lon="5.73708">
        <ele>636</ele>
        <time>2019-03-19T13:36:57Z</time>
      </trkpt>
      <trkpt lat="44.32228" lon="5.737">
        <ele>636</ele>
        <time>2019-03-19T13:36:58Z</time>
      </trkpt>
      <trkpt lat="44.32226" lon="5.73693">
        <ele>636</ele>
        <time>2019-03-19T13:36:59Z</time>
      </trkpt>
      <trkpt lat="44.32223" lon="5.73685">
        <ele>636</ele>
        <time>2019-03-19T13:37:00Z</time>
      </trkpt>
      <trkpt lat="44.32221" lon="5.73677">
        <ele>636</ele>
        <time>2019-03-19T13:37:01Z</time>
      </trkpt>
      <trkpt lat="44.32218" lon="5.73669">
        <ele>636</ele>
        <time>2019-03-19T13:37:02Z</time>
      </trkpt>
      <trkpt lat="44.32215" lon="5.73662">
        <ele>636</ele>
        <time>2019-03-19T13:37:03Z</time>
      </trkpt>
      <trkpt lat="44.32212" lon="5.73654">
        <ele>636</ele>
        <time>2019-03-19T13:37:04Z</time>
      </trkpt>
      <trkpt lat="44.3221" lon="5.73646">
        <ele>636</ele>
        <time>2019-03-19T13:37:05Z</time>
      </trkpt>
      <trkpt lat="44.32207" lon="5.73639">
        <ele>636</ele>
        <time>2019-03-19T13:37:06Z</time>
      </trkpt>
      <trkpt lat="44.32204" lon="5.73631">
        <ele>636</ele>
        <time>2019-03-19T13:37:07Z</time>
      </trkpt>
      <trkpt lat="44.32202" lon="5.73624">
        <ele>636</ele>
        <time>2019-03-19T13:37:08Z</time>
      </trkpt>
      <trkpt lat="44.32199" lon="5.73616">
        <ele>636</ele>
        <time>2019-03-19T13:37:09Z</time>
      </trkpt>
      <trkpt lat="44.32197" lon="5.73608">
        <ele>636</ele>
        <time>2019-03-19T13:37:10Z</time>
      </trkpt>
      <trkpt lat="44.32194" lon="5.73601">
        <ele>636</ele>
        <time>2019-03-19T13:37:11Z</time>
      </trkpt>
      <trkpt lat="44.32192" lon="5.73594">
        <ele>636</ele>
        <time>2019-03-19T13:37:12Z</time>
      </trkpt>
      <trkpt lat="44.32189" lon="5.73587">
        <ele>636</ele>
        <time>2019-03-19T13:37:13Z</time>
      </trkpt>
      <trkpt lat="44.32187" lon="5.73579">
        <ele>636</ele>
        <time>2019-03-19T13:37:14Z</time>
      </trkpt>
      <trkpt lat="44.32184" lon="5.73572">
        <ele>636</ele>
        <time>2019-03-19T13:37:15Z</time>
      </trkpt>
      <trkpt lat="44.32182" lon="5.73565">
        <ele>636</ele>
        <time>2019-03-19T13:37:16Z</time>
      </trkpt>
      <trkpt lat="44.32179" lon="5.73558">
        <ele>636</ele>
        <time>2019-03-19T13:37:17Z</time>
      </trkpt>
      <trkpt lat="44.32177" lon="5.73551">
        <ele>636</ele>
        <time>2019-03-19T13:37:18Z</time>
      </trkpt>
      <trkpt lat="44.32174" lon="5.73543">
        <ele>636</ele>
        <time>2019-03-19T13:37:19Z</time>
      </trkpt>
      <trkpt lat="44.32171" lon="5.73536">
        <ele>636</ele>
        <time>2019-03-19T13:37:20Z</time>
      </trkpt>
      <trkpt lat="44.32169" lon="5.73529">
        <ele>636</ele>
        <time>2019-03-19T13:37:21Z</time>
      </trkpt>
      <trkpt lat="44.32167" lon="5.73522">
        <ele>636</ele>
        <time>2019-03-19T13:37:22Z</time>
      </trkpt>
      <trkpt lat="44.32164" lon="5.73514">
        <ele>636</ele>
        <time>2019-03-19T13:37:23Z</time>
      </trkpt>
      <trkpt lat="44.32162" lon="5.73507">
        <ele>636</ele>
        <time>2019-03-19T13:37:24Z</time>
      </trkpt>
      <trkpt lat="44.32159" lon="5.735">
        <ele>636</ele>
        <time>2019-03-19T13:37:25Z</time>
      </trkpt>
      <trkpt lat="44.32156" lon="5.73493">
        <ele>636</ele>
        <time>2019-03-19T13:37:26Z</time>
      </trkpt>
      <trkpt lat="44.32154" lon="5.73486">
        <ele>636</ele>
        <time>2019-03-19T13:37:27Z</time>
      </trkpt>
      <trkpt lat="44.32151" lon="5.73479">
        <ele>636</ele>
        <time>2019-03-19T13:37:28Z</time>
      </trkpt>
      <trkpt lat="44.32148" lon="5.73471">
        <ele>636</ele>
        <time>2019-03-19T13:37:29Z</time>
      </trkpt>
      <trkpt lat="44.32146" lon="5.73464">
        <ele>636</ele>
        <time>2019-03-19T13:37:30Z</time>
      </trkpt>
      <trkpt lat="44.32143" lon="5.73456">
        <ele>636</ele>
        <time>2019-03-19T13:37:31Z</time>
      </trkpt>
      <trkpt lat="44.32141" lon="5.73449">
        <ele>636</ele>
        <time>2019-03-19T13:37:32Z</time>
      </trkpt>
      <trkpt lat="44.32138" lon="5.73442">
        <ele>636</ele>
        <time>2019-03-19T13:37:33Z</time>
      </trkpt>
      <trkpt lat="44.32136" lon="5.73434">
        <ele>636</ele>
        <time>2019-03-19T13:37:34Z</time>
      </trkpt>
      <trkpt lat="44.32133" lon="5.73427">
        <ele>637</ele>
        <time>2019-03-19T13:37:35Z</time>
      </trkpt>
      <trkpt lat="44.32131" lon="5.7342">
        <ele>637</ele>
        <time>2019-03-19T13:37:36Z</time>
      </trkpt>
      <trkpt lat="44.32128" lon="5.73412">
        <ele>637</ele>
        <time>2019-03-19T13:37:37Z</time>
      </trkpt>
      <trkpt lat="44.32125" lon="5.73405">
        <ele>637</ele>
        <time>2019-03-19T13:37:38Z</time>
      </trkpt>
      <trkpt lat="44.32122" lon="5.73397">
        <ele>637</ele>
        <time>2019-03-19T13:37:39Z</time>
      </trkpt>
      <trkpt lat="44.32119" lon="5.73389">
        <ele>637</ele>
        <time>2019-03-19T13:37:40Z</time>
      </trkpt>
      <trkpt lat="44.32117" lon="5.73382">
        <ele>637</ele>
        <time>2019-03-19T13:37:41Z</time>
      </trkpt>
      <trkpt lat="44.32115" lon="5.73374">
        <ele>637</ele>
        <time>2019-03-19T13:37:42Z</time>
      </trkpt>
      <trkpt lat="44.32112" lon="5.73366">
        <ele>637</ele>
        <time>2019-03-19T13:37:43Z</time>
      </trkpt>
      <trkpt lat="44.32109" lon="5.73359">
        <ele>637</ele>
        <time>2019-03-19T13:37:44Z</time>
      </trkpt>
      <trkpt lat="44.32107" lon="5.73351">
        <ele>637</ele>
        <time>2019-03-19T13:37:45Z</time>
      </trkpt>
      <trkpt lat="44.32104" lon="5.73343">
        <ele>637</ele>
        <time>2019-03-19T13:37:46Z</time>
      </trkpt>
      <trkpt lat="44.32101" lon="5.73335">
        <ele>637</ele>
        <time>2019-03-19T13:37:47Z</time>
      </trkpt>
      <trkpt lat="44.32099" lon="5.73327">
        <ele>637</ele>
        <time>2019-03-19T13:37:48Z</time>
      </trkpt>
      <trkpt lat="44.32096" lon="5.73319">
        <ele>637</ele>
        <time>2019-03-19T13:37:49Z</time>
      </trkpt>
      <trkpt lat="44.32093" lon="5.7331">
        <ele>637</ele>
        <time>2019-03-19T13:37:50Z</time>
      </trkpt>
      <trkpt lat="44.3209" lon="5.73302">
        <ele>637</ele>
        <time>2019-03-19T13:37:51Z</time>
      </trkpt>
      <trkpt lat="44.32087" lon="5.73293">
        <ele>637</ele>
        <time>2019-03-19T13:37:52Z</time>
      </trkpt>
      <trkpt lat="44.32084" lon="5.73284">
        <ele>637</ele>
        <time>2019-03-19T13:37:53Z</time>
      </trkpt>
      <trkpt lat="44.32081" lon="5.73275">
        <ele>637</ele>
        <time>2019-03-19T13:37:54Z</time>
      </trkpt>
      <trkpt lat="44.32079" lon="5.73266">
        <ele>637</ele>
        <time>2019-03-19T13:37:55Z</time>
      </trkpt>
      <trkpt lat="44.32077" lon="5.73257">
        <ele>637</ele>
        <time>2019-03-19T13:37:56Z</time>
      </trkpt>
      <trkpt lat="44.32075" lon="5.73248">
        <ele>637</ele>
        <time>2019-03-19T13:37:57Z</time>
      </trkpt>
      <trkpt lat="44.32074" lon="5.73239">
        <ele>637</ele>
        <time>2019-03-19T13:37:58Z</time>
      </trkpt>
      <trkpt lat="44.32072" lon="5.73229">
        <ele>637</ele>
        <time>2019-03-19T13:37:59Z</time>
      </trkpt>
      <trkpt lat="44.32071" lon="5.7322">
        <ele>637</ele>
        <time>2019-03-19T13:38:00Z</time>
      </trkpt>
      <trkpt lat="44.3207" lon="5.73211">
        <ele>637</ele>
        <time>2019-03-19T13:38:01Z</time>
      </trkpt>
      <trkpt lat="44.32068" lon="5.73203">
        <ele>637</ele>
        <time>2019-03-19T13:38:02Z</time>
      </trkpt>
      <trkpt lat="44.32067" lon="5.73194">
        <ele>637</ele>
        <time>2019-03-19T13:38:03Z</time>
      </trkpt>
      <trkpt lat="44.32066" lon="5.73186">
        <ele>637</ele>
        <time>2019-03-19T13:38:04Z</time>
      </trkpt>
      <trkpt lat="44.32065" lon="5.73177">
        <ele>637</ele>
        <time>2019-03-19T13:38:05Z</time>
      </trkpt>
      <trkpt lat="44.32064" lon="5.73169">
        <ele>637</ele>
        <time>2019-03-19T13:38:06Z</time>
      </trkpt>
      <trkpt lat="44.32063" lon="5.73161">
        <ele>638</ele>
        <time>2019-03-19T13:38:07Z</time>
      </trkpt>
      <trkpt lat="44.32062" lon="5.73152">
        <ele>638</ele>
        <time>2019-03-19T13:38:08Z</time>
      </trkpt>
      <trkpt lat="44.32061" lon="5.73144">
        <ele>638</ele>
        <time>2019-03-19T13:38:09Z</time>
      </trkpt>
      <trkpt lat="44.3206" lon="5.73135">
        <ele>638</ele>
        <time>2019-03-19T13:38:10Z</time>
      </trkpt>
      <trkpt lat="44.32058" lon="5.73127">
        <ele>638</ele>
        <time>2019-03-19T13:38:11Z</time>
      </trkpt>
      <trkpt lat="44.32057" lon="5.73118">
        <ele>638</ele>
        <time>2019-03-19T13:38:12Z</time>
      </trkpt>
      <trkpt lat="44.32056" lon="5.7311">
        <ele>638</ele>
        <time>2019-03-19T13:38:13Z</time>
      </trkpt>
      <trkpt lat="44.32055" lon="5.73101">
        <ele>638</ele>
        <time>2019-03-19T13:38:14Z</time>
      </trkpt>
      <trkpt lat="44.32054" lon="5.73093">
        <ele>638</ele>
        <time>2019-03-19T13:38:15Z</time>
      </trkpt>
      <trkpt lat="44.32053" lon="5.73084">
        <ele>638</ele>
        <time>2019-03-19T13:38:16Z</time>
      </trkpt>
      <trkpt lat="44.32052" lon="5.73075">
        <ele>638</ele>
        <time>2019-03-19T13:38:17Z</time>
      </trkpt>
      <trkpt lat="44.32051" lon="5.73067">
        <ele>639</ele>
        <time>2019-03-19T13:38:18Z</time>
      </trkpt>
      <trkpt lat="44.3205" lon="5.73058">
        <ele>639</ele>
        <time>2019-03-19T13:38:19Z</time>
      </trkpt>
      <trkpt lat="44.32048" lon="5.73049">
        <ele>639</ele>
        <time>2019-03-19T13:38:20Z</time>
      </trkpt>
      <trkpt lat="44.32047" lon="5.7304">
        <ele>639</ele>
        <time>2019-03-19T13:38:21Z</time>
      </trkpt>
      <trkpt lat="44.32046" lon="5.73031">
        <ele>639</ele>
        <time>2019-03-19T13:38:22Z</time>
      </trkpt>
      <trkpt lat="44.32045" lon="5.73021">
        <ele>639</ele>
        <time>2019-03-19T13:38:23Z</time>
      </trkpt>
      <trkpt lat="44.32044" lon="5.73012">
        <ele>639</ele>
        <time>2019-03-19T13:38:24Z</time>
      </trkpt>
      <trkpt lat="44.32042" lon="5.73002">
        <ele>639</ele>
        <time>2019-03-19T13:38:25Z</time>
      </trkpt>
      <trkpt lat="44.32041" lon="5.72993">
        <ele>639</ele>
        <time>2019-03-19T13:38:26Z</time>
      </trkpt>
      <trkpt lat="44.3204" lon="5.72984">
        <ele>639</ele>
        <time>2019-03-19T13:38:27Z</time>
      </trkpt>
      <trkpt lat="44.32039" lon="5.72975">
        <ele>639</ele>
        <time>2019-03-19T13:38:28Z</time>
      </trkpt>
      <trkpt lat="44.32037" lon="5.72966">
        <ele>639</ele>
        <time>2019-03-19T13:38:29Z</time>
      </trkpt>
      <trkpt lat="44.32036" lon="5.72958">
        <ele>639</ele>
        <time>2019-03-19T13:38:30Z</time>
      </trkpt>
      <trkpt lat="44.32035" lon="5.72949">
        <ele>639</ele>
        <time>2019-03-19T13:38:31Z</time>
      </trkpt>
      <trkpt lat="44.32034" lon="5.7294">
        <ele>639</ele>
        <time>2019-03-19T13:38:32Z</time>
      </trkpt>
      <trkpt lat="44.32033" lon="5.72931">
        <ele>640</ele>
        <time>2019-03-19T13:38:33Z</time>
      </trkpt>
      <trkpt lat="44.32032" lon="5.72923">
        <ele>640</ele>
        <time>2019-03-19T13:38:34Z</time>
      </trkpt>
      <trkpt lat="44.32031" lon="5.72914">
        <ele>640</ele>
        <time>2019-03-19T13:38:35Z</time>
      </trkpt>
      <trkpt lat="44.3203" lon="5.72905">
        <ele>640</ele>
        <time>2019-03-19T13:38:36Z</time>
      </trkpt>
      <trkpt lat="44.32029" lon="5.72896">
        <ele>640</ele>
        <time>2019-03-19T13:38:37Z</time>
      </trkpt>
      <trkpt lat="44.32028" lon="5.72887">
        <ele>640</ele>
        <time>2019-03-19T13:38:38Z</time>
      </trkpt>
      <trkpt lat="44.32027" lon="5.72878">
        <ele>640</ele>
        <time>2019-03-19T13:38:39Z</time>
      </trkpt>
      <trkpt lat="44.32026" lon="5.72869">
        <ele>640</ele>
        <time>2019-03-19T13:38:40Z</time>
      </trkpt>
      <trkpt lat="44.32024" lon="5.72861">
        <ele>640</ele>
        <time>2019-03-19T13:38:41Z</time>
      </trkpt>
      <trkpt lat="44.32023" lon="5.72852">
        <ele>640</ele>
        <time>2019-03-19T13:38:42Z</time>
      </trkpt>
      <trkpt lat="44.32022" lon="5.72844">
        <ele>640</ele>
        <time>2019-03-19T13:38:43Z</time>
      </trkpt>
      <trkpt lat="44.32021" lon="5.72835">
        <ele>640</ele>
        <time>2019-03-19T13:38:44Z</time>
      </trkpt>
      <trkpt lat="44.3202" lon="5.72827">
        <ele>641</ele>
        <time>2019-03-19T13:38:45Z</time>
      </trkpt>
      <trkpt lat="44.32019" lon="5.72819">
        <ele>641</ele>
        <time>2019-03-19T13:38:46Z</time>
      </trkpt>
      <trkpt lat="44.32018" lon="5.72811">
        <ele>641</ele>
        <time>2019-03-19T13:38:47Z</time>
      </trkpt>
      <trkpt lat="44.32017" lon="5.72803">
        <ele>641</ele>
        <time>2019-03-19T13:38:48Z</time>
      </trkpt>
      <trkpt lat="44.32016" lon="5.72795">
        <ele>641</ele>
        <time>2019-03-19T13:38:49Z</time>
      </trkpt>
      <trkpt lat="44.32015" lon="5.72787">
        <ele>642</ele>
        <time>2019-03-19T13:38:50Z</time>
      </trkpt>
      <trkpt lat="44.32014" lon="5.72779">
        <ele>642</ele>
        <time>2019-03-19T13:38:51Z</time>
      </trkpt>
      <trkpt lat="44.32013" lon="5.72772">
        <ele>642</ele>
        <time>2019-03-19T13:38:52Z</time>
      </trkpt>
      <trkpt lat="44.32011" lon="5.72764">
        <ele>642</ele>
        <time>2019-03-19T13:38:53Z</time>
      </trkpt>
      <trkpt lat="44.32011" lon="5.72757">
        <ele>642</ele>
        <time>2019-03-19T13:38:54Z</time>
      </trkpt>
      <trkpt lat="44.3201" lon="5.72749">
        <ele>642</ele>
        <time>2019-03-19T13:38:55Z</time>
      </trkpt>
      <trkpt lat="44.32009" lon="5.72742">
        <ele>643</ele>
        <time>2019-03-19T13:38:56Z</time>
      </trkpt>
      <trkpt lat="44.32008" lon="5.72734">
        <ele>643</ele>
        <time>2019-03-19T13:38:57Z</time>
      </trkpt>
      <trkpt lat="44.32006" lon="5.72727">
        <ele>643</ele>
        <time>2019-03-19T13:38:58Z</time>
      </trkpt>
      <trkpt lat="44.32005" lon="5.7272">
        <ele>643</ele>
        <time>2019-03-19T13:38:59Z</time>
      </trkpt>
      <trkpt lat="44.32005" lon="5.72713">
        <ele>643</ele>
        <time>2019-03-19T13:39:00Z</time>
      </trkpt>
      <trkpt lat="44.32004" lon="5.72705">
        <ele>644</ele>
        <time>2019-03-19T13:39:01Z</time>
      </trkpt>
      <trkpt lat="44.32003" lon="5.72698">
        <ele>644</ele>
        <time>2019-03-19T13:39:02Z</time>
      </trkpt>
      <trkpt lat="44.32002" lon="5.7269">
        <ele>644</ele>
        <time>2019-03-19T13:39:03Z</time>
      </trkpt>
      <trkpt lat="44.32" lon="5.72683">
        <ele>644</ele>
        <time>2019-03-19T13:39:04Z</time>
      </trkpt>
      <trkpt lat="44.31999" lon="5.72676">
        <ele>644</ele>
        <time>2019-03-19T13:39:05Z</time>
      </trkpt>
      <trkpt lat="44.31998" lon="5.72668">
        <ele>644</ele>
        <time>2019-03-19T13:39:06Z</time>
      </trkpt>
      <trkpt lat="44.31997" lon="5.7266">
        <ele>644</ele>
        <time>2019-03-19T13:39:07Z</time>
      </trkpt>
      <trkpt lat="44.31997" lon="5.72653">
        <ele>645</ele>
        <time>2019-03-19T13:39:08Z</time>
      </trkpt>
      <trkpt lat="44.31996" lon="5.72645">
        <ele>645</ele>
        <time>2019-03-19T13:39:09Z</time>
      </trkpt>
      <trkpt lat="44.31995" lon="5.72638">
        <ele>645</ele>
        <time>2019-03-19T13:39:10Z</time>
      </trkpt>
      <trkpt lat="44.31994" lon="5.7263">
        <ele>645</ele>
        <time>2019-03-19T13:39:11Z</time>
      </trkpt>
      <trkpt lat="44.31993" lon="5.72623">
        <ele>646</ele>
        <time>2019-03-19T13:39:12Z</time>
      </trkpt>
      <trkpt lat="44.31992" lon="5.72616">
        <ele>646</ele>
        <time>2019-03-19T13:39:13Z</time>
      </trkpt>
      <trkpt lat="44.31991" lon="5.72608">
        <ele>646</ele>
        <time>2019-03-19T13:39:14Z</time>
      </trkpt>
      <trkpt lat="44.3199" lon="5.72601">
        <ele>646</ele>
        <time>2019-03-19T13:39:15Z</time>
      </trkpt>
      <trkpt lat="44.31989" lon="5.72594">
        <ele>646</ele>
        <time>2019-03-19T13:39:16Z</time>
      </trkpt>
      <trkpt lat="44.31987" lon="5.72586">
        <ele>646</ele>
        <time>2019-03-19T13:39:17Z</time>
      </trkpt>
      <trkpt lat="44.31986" lon="5.72579">
        <ele>646</ele>
        <time>2019-03-19T13:39:18Z</time>
      </trkpt>
      <trkpt lat="44.31985" lon="5.72571">
        <ele>646</ele>
        <time>2019-03-19T13:39:19Z</time>
      </trkpt>
      <trkpt lat="44.31983" lon="5.72564">
        <ele>646</ele>
        <time>2019-03-19T13:39:20Z</time>
      </trkpt>
      <trkpt lat="44.31981" lon="5.72557">
        <ele>646</ele>
        <time>2019-03-19T13:39:21Z</time>
      </trkpt>
      <trkpt lat="44.31979" lon="5.7255">
        <ele>646</ele>
        <time>2019-03-19T13:39:22Z</time>
      </trkpt>
      <trkpt lat="44.31977" lon="5.72542">
        <ele>646</ele>
        <time>2019-03-19T13:39:23Z</time>
      </trkpt>
      <trkpt lat="44.31976" lon="5.72536">
        <ele>646</ele>
        <time>2019-03-19T13:39:24Z</time>
      </trkpt>
      <trkpt lat="44.31973" lon="5.72529">
        <ele>646</ele>
        <time>2019-03-19T13:39:25Z</time>
      </trkpt>
      <trkpt lat="44.31971" lon="5.72522">
        <ele>646</ele>
        <time>2019-03-19T13:39:26Z</time>
      </trkpt>
      <trkpt lat="44.31967" lon="5.72515">
        <ele>646</ele>
        <time>2019-03-19T13:39:27Z</time>
      </trkpt>
      <trkpt lat="44.31964" lon="5.72509">
        <ele>646</ele>
        <time>2019-03-19T13:39:28Z</time>
      </trkpt>
      <trkpt lat="44.31961" lon="5.72502">
        <ele>646</ele>
        <time>2019-03-19T13:39:29Z</time>
      </trkpt>
      <trkpt lat="44.31958" lon="5.72495">
        <ele>646</ele>
        <time>2019-03-19T13:39:30Z</time>
      </trkpt>
      <trkpt lat="44.31955" lon="5.72488">
        <ele>646</ele>
        <time>2019-03-19T13:39:31Z</time>
      </trkpt>
      <trkpt lat="44.31952" lon="5.72481">
        <ele>646</ele>
        <time>2019-03-19T13:39:32Z</time>
      </trkpt>
      <trkpt lat="44.31948" lon="5.72474">
        <ele>646</ele>
        <time>2019-03-19T13:39:33Z</time>
      </trkpt>
      <trkpt lat="44.31945" lon="5.72467">
        <ele>646</ele>
        <time>2019-03-19T13:39:34Z</time>
      </trkpt>
      <trkpt lat="44.31941" lon="5.72459">
        <ele>646</ele>
        <time>2019-03-19T13:39:35Z</time>
      </trkpt>
      <trkpt lat="44.31938" lon="5.72451">
        <ele>646</ele>
        <time>2019-03-19T13:39:36Z</time>
      </trkpt>
      <trkpt lat="44.31934" lon="5.72443">
        <ele>647</ele>
        <time>2019-03-19T13:39:37Z</time>
      </trkpt>
      <trkpt lat="44.31931" lon="5.72436">
        <ele>647</ele>
        <time>2019-03-19T13:39:38Z</time>
      </trkpt>
      <trkpt lat="44.31927" lon="5.72429">
        <ele>647</ele>
        <time>2019-03-19T13:39:39Z</time>
      </trkpt>
      <trkpt lat="44.31924" lon="5.72422">
        <ele>647</ele>
        <time>2019-03-19T13:39:40Z</time>
      </trkpt>
      <trkpt lat="44.31921" lon="5.72415">
        <ele>647</ele>
        <time>2019-03-19T13:39:41Z</time>
      </trkpt>
      <trkpt lat="44.31918" lon="5.72408">
        <ele>647</ele>
        <time>2019-03-19T13:39:42Z</time>
      </trkpt>
      <trkpt lat="44.31915" lon="5.72402">
        <ele>647</ele>
        <time>2019-03-19T13:39:43Z</time>
      </trkpt>
      <trkpt lat="44.31912" lon="5.72395">
        <ele>647</ele>
        <time>2019-03-19T13:39:44Z</time>
      </trkpt>
      <trkpt lat="44.31909" lon="5.72389">
        <ele>647</ele>
        <time>2019-03-19T13:39:45Z</time>
      </trkpt>
      <trkpt lat="44.31906" lon="5.72382">
        <ele>647</ele>
        <time>2019-03-19T13:39:46Z</time>
      </trkpt>
      <trkpt lat="44.31903" lon="5.72375">
        <ele>648</ele>
        <time>2019-03-19T13:39:47Z</time>
      </trkpt>
      <trkpt lat="44.319" lon="5.72369">
        <ele>648</ele>
        <time>2019-03-19T13:39:48Z</time>
      </trkpt>
      <trkpt lat="44.31897" lon="5.72362">
        <ele>648</ele>
        <time>2019-03-19T13:39:49Z</time>
      </trkpt>
      <trkpt lat="44.31894" lon="5.72355">
        <ele>648</ele>
        <time>2019-03-19T13:39:50Z</time>
      </trkpt>
      <trkpt lat="44.31891" lon="5.72348">
        <ele>648</ele>
        <time>2019-03-19T13:39:51Z</time>
      </trkpt>
      <trkpt lat="44.31888" lon="5.72341">
        <ele>649</ele>
        <time>2019-03-19T13:39:52Z</time>
      </trkpt>
      <trkpt lat="44.31886" lon="5.72334">
        <ele>649</ele>
        <time>2019-03-19T13:39:53Z</time>
      </trkpt>
      <trkpt lat="44.31884" lon="5.72327">
        <ele>649</ele>
        <time>2019-03-19T13:39:54Z</time>
      </trkpt>
      <trkpt lat="44.31882" lon="5.7232">
        <ele>649</ele>
        <time>2019-03-19T13:39:55Z</time>
      </trkpt>
      <trkpt lat="44.3188" lon="5.72313">
        <ele>649</ele>
        <time>2019-03-19T13:39:56Z</time>
      </trkpt>
      <trkpt lat="44.31878" lon="5.72305">
        <ele>650</ele>
        <time>2019-03-19T13:39:57Z</time>
      </trkpt>
      <trkpt lat="44.31876" lon="5.72298">
        <ele>650</ele>
        <time>2019-03-19T13:39:58Z</time>
      </trkpt>
      <trkpt lat="44.31874" lon="5.7229">
        <ele>650</ele>
        <time>2019-03-19T13:39:59Z</time>
      </trkpt>
      <trkpt lat="44.31873" lon="5.72282">
        <ele>650</ele>
        <time>2019-03-19T13:40:00Z</time>
      </trkpt>
      <trkpt lat="44.31871" lon="5.72275">
        <ele>650</ele>
        <time>2019-03-19T13:40:01Z</time>
      </trkpt>
      <trkpt lat="44.3187" lon="5.72267">
        <ele>650</ele>
        <time>2019-03-19T13:40:02Z</time>
      </trkpt>
      <trkpt lat="44.31868" lon="5.7226">
        <ele>650</ele>
        <time>2019-03-19T13:40:03Z</time>
      </trkpt>
      <trkpt lat="44.31867" lon="5.72253">
        <ele>650</ele>
        <time>2019-03-19T13:40:04Z</time>
      </trkpt>
      <trkpt lat="44.31865" lon="5.72245">
        <ele>650</ele>
        <time>2019-03-19T13:40:05Z</time>
      </trkpt>
      <trkpt lat="44.31864" lon="5.72238">
        <ele>650</ele>
        <time>2019-03-19T13:40:06Z</time>
      </trkpt>
      <trkpt lat="44.31863" lon="5.7223">
        <ele>650</ele>
        <time>2019-03-19T13:40:07Z</time>
      </trkpt>
      <trkpt lat="44.31861" lon="5.72223">
        <ele>650</ele>
        <time>2019-03-19T13:40:08Z</time>
      </trkpt>
      <trkpt lat="44.31859" lon="5.72215">
        <ele>650</ele>
        <time>2019-03-19T13:40:09Z</time>
      </trkpt>
      <trkpt lat="44.31858" lon="5.72207">
        <ele>650</ele>
        <time>2019-03-19T13:40:10Z</time>
      </trkpt>
      <trkpt lat="44.31856" lon="5.72199">
        <ele>650</ele>
        <time>2019-03-19T13:40:11Z</time>
      </trkpt>
      <trkpt lat="44.31854" lon="5.72192">
        <ele>650</ele>
        <time>2019-03-19T13:40:12Z</time>
      </trkpt>
      <trkpt lat="44.31853" lon="5.72184">
        <ele>650</ele>
        <time>2019-03-19T13:40:13Z</time>
      </trkpt>
      <trkpt lat="44.31851" lon="5.72176">
        <ele>650</ele>
        <time>2019-03-19T13:40:14Z</time>
      </trkpt>
      <trkpt lat="44.31849" lon="5.72168">
        <ele>650</ele>
        <time>2019-03-19T13:40:15Z</time>
      </trkpt>
      <trkpt lat="44.31847" lon="5.72161">
        <ele>650</ele>
        <time>2019-03-19T13:40:16Z</time>
      </trkpt>
      <trkpt lat="44.31845" lon="5.72153">
        <ele>650</ele>
        <time>2019-03-19T13:40:17Z</time>
      </trkpt>
      <trkpt lat="44.31843" lon="5.72146">
        <ele>650</ele>
        <time>2019-03-19T13:40:18Z</time>
      </trkpt>
      <trkpt lat="44.31841" lon="5.72138">
        <ele>650</ele>
        <time>2019-03-19T13:40:19Z</time>
      </trkpt>
      <trkpt lat="44.31839" lon="5.7213">
        <ele>650</ele>
        <time>2019-03-19T13:40:20Z</time>
      </trkpt>
      <trkpt lat="44.31837" lon="5.72123">
        <ele>650</ele>
        <time>2019-03-19T13:40:21Z</time>
      </trkpt>
      <trkpt lat="44.31834" lon="5.72116">
        <ele>650</ele>
        <time>2019-03-19T13:40:22Z</time>
      </trkpt>
      <trkpt lat="44.31832" lon="5.72108">
        <ele>650</ele>
        <time>2019-03-19T13:40:23Z</time>
      </trkpt>
      <trkpt lat="44.3183" lon="5.721">
        <ele>650</ele>
        <time>2019-03-19T13:40:24Z</time>
      </trkpt>
      <trkpt lat="44.31828" lon="5.72093">
        <ele>650</ele>
        <time>2019-03-19T13:40:25Z</time>
      </trkpt>
      <trkpt lat="44.31825" lon="5.72085">
        <ele>650</ele>
        <time>2019-03-19T13:40:26Z</time>
      </trkpt>
      <trkpt lat="44.31823" lon="5.72078">
        <ele>650</ele>
        <time>2019-03-19T13:40:27Z</time>
      </trkpt>
      <trkpt lat="44.31821" lon="5.72071">
        <ele>650</ele>
        <time>2019-03-19T13:40:28Z</time>
      </trkpt>
      <trkpt lat="44.31819" lon="5.72063">
        <ele>650</ele>
        <time>2019-03-19T13:40:29Z</time>
      </trkpt>
      <trkpt lat="44.31817" lon="5.72056">
        <ele>650</ele>
        <time>2019-03-19T13:40:30Z</time>
      </trkpt>
      <trkpt lat="44.31815" lon="5.72049">
        <ele>650</ele>
        <time>2019-03-19T13:40:31Z</time>
      </trkpt>
      <trkpt lat="44.31813" lon="5.72042">
        <ele>650</ele>
        <time>2019-03-19T13:40:32Z</time>
      </trkpt>
      <trkpt lat="44.31811" lon="5.72035">
        <ele>650</ele>
        <time>2019-03-19T13:40:33Z</time>
      </trkpt>
      <trkpt lat="44.31809" lon="5.72027">
        <ele>650</ele>
        <time>2019-03-19T13:40:34Z</time>
      </trkpt>
      <trkpt lat="44.31807" lon="5.7202">
        <ele>650</ele>
        <time>2019-03-19T13:40:35Z</time>
      </trkpt>
      <trkpt lat="44.31805" lon="5.72012">
        <ele>650</ele>
        <time>2019-03-19T13:40:36Z</time>
      </trkpt>
      <trkpt lat="44.31802" lon="5.72005">
        <ele>650</ele>
        <time>2019-03-19T13:40:37Z</time>
      </trkpt>
      <trkpt lat="44.31799" lon="5.71998">
        <ele>650</ele>
        <time>2019-03-19T13:40:38Z</time>
      </trkpt>
      <trkpt lat="44.31796" lon="5.71991">
        <ele>650</ele>
        <time>2019-03-19T13:40:39Z</time>
      </trkpt>
      <trkpt lat="44.31793" lon="5.71984">
        <ele>650</ele>
        <time>2019-03-19T13:40:40Z</time>
      </trkpt>
      <trkpt lat="44.3179" lon="5.71977">
        <ele>650</ele>
        <time>2019-03-19T13:40:41Z</time>
      </trkpt>
      <trkpt lat="44.31787" lon="5.7197">
        <ele>650</ele>
        <time>2019-03-19T13:40:42Z</time>
      </trkpt>
      <trkpt lat="44.31785" lon="5.71962">
        <ele>650</ele>
        <time>2019-03-19T13:40:43Z</time>
      </trkpt>
      <trkpt lat="44.31782" lon="5.71954">
        <ele>650</ele>
        <time>2019-03-19T13:40:44Z</time>
      </trkpt>
      <trkpt lat="44.31779" lon="5.71947">
        <ele>650</ele>
        <time>2019-03-19T13:40:45Z</time>
      </trkpt>
      <trkpt lat="44.31777" lon="5.71939">
        <ele>650</ele>
        <time>2019-03-19T13:40:46Z</time>
      </trkpt>
      <trkpt lat="44.31775" lon="5.7193">
        <ele>650</ele>
        <time>2019-03-19T13:40:47Z</time>
      </trkpt>
      <trkpt lat="44.31773" lon="5.71922">
        <ele>650</ele>
        <time>2019-03-19T13:40:48Z</time>
      </trkpt>
      <trkpt lat="44.31771" lon="5.71913">
        <ele>650</ele>
        <time>2019-03-19T13:40:49Z</time>
      </trkpt>
      <trkpt lat="44.3177" lon="5.71904">
        <ele>650</ele>
        <time>2019-03-19T13:40:50Z</time>
      </trkpt>
      <trkpt lat="44.31768" lon="5.71896">
        <ele>650</ele>
        <time>2019-03-19T13:40:51Z</time>
      </trkpt>
      <trkpt lat="44.31767" lon="5.71887">
        <ele>650</ele>
        <time>2019-03-19T13:40:52Z</time>
      </trkpt>
      <trkpt lat="44.31766" lon="5.71878">
        <ele>650</ele>
        <time>2019-03-19T13:40:53Z</time>
      </trkpt>
      <trkpt lat="44.31765" lon="5.71869">
        <ele>650</ele>
        <time>2019-03-19T13:40:54Z</time>
      </trkpt>
      <trkpt lat="44.31764" lon="5.71861">
        <ele>650</ele>
        <time>2019-03-19T13:40:55Z</time>
      </trkpt>
      <trkpt lat="44.31763" lon="5.71852">
        <ele>650</ele>
        <time>2019-03-19T13:40:56Z</time>
      </trkpt>
      <trkpt lat="44.31762" lon="5.71844">
        <ele>650</ele>
        <time>2019-03-19T13:40:57Z</time>
      </trkpt>
      <trkpt lat="44.31762" lon="5.71836">
        <ele>650</ele>
        <time>2019-03-19T13:40:58Z</time>
      </trkpt>
      <trkpt lat="44.31761" lon="5.71828">
        <ele>650</ele>
        <time>2019-03-19T13:40:59Z</time>
      </trkpt>
      <trkpt lat="44.3176" lon="5.71821">
        <ele>650</ele>
        <time>2019-03-19T13:41:00Z</time>
      </trkpt>
      <trkpt lat="44.3176" lon="5.71813">
        <ele>651</ele>
        <time>2019-03-19T13:41:01Z</time>
      </trkpt>
      <trkpt lat="44.31759" lon="5.71806">
        <ele>651</ele>
        <time>2019-03-19T13:41:02Z</time>
      </trkpt>
      <trkpt lat="44.31759" lon="5.71799">
        <ele>651</ele>
        <time>2019-03-19T13:41:03Z</time>
      </trkpt>
      <trkpt lat="44.31758" lon="5.71792">
        <ele>651</ele>
        <time>2019-03-19T13:41:04Z</time>
      </trkpt>
      <trkpt lat="44.31758" lon="5.71785">
        <ele>652</ele>
        <time>2019-03-19T13:41:05Z</time>
      </trkpt>
      <trkpt lat="44.31757" lon="5.71778">
        <ele>652</ele>
        <time>2019-03-19T13:41:06Z</time>
      </trkpt>
      <trkpt lat="44.31757" lon="5.71771">
        <ele>652</ele>
        <time>2019-03-19T13:41:07Z</time>
      </trkpt>
      <trkpt lat="44.31756" lon="5.71764">
        <ele>652</ele>
        <time>2019-03-19T13:41:08Z</time>
      </trkpt>
      <trkpt lat="44.31755" lon="5.71757">
        <ele>652</ele>
        <time>2019-03-19T13:41:09Z</time>
      </trkpt>
      <trkpt lat="44.31755" lon="5.7175">
        <ele>652</ele>
        <time>2019-03-19T13:41:10Z</time>
      </trkpt>
      <trkpt lat="44.31754" lon="5.71743">
        <ele>652</ele>
        <time>2019-03-19T13:41:11Z</time>
      </trkpt>
      <trkpt lat="44.31753" lon="5.71736">
        <ele>652</ele>
        <time>2019-03-19T13:41:12Z</time>
      </trkpt>
      <trkpt lat="44.31752" lon="5.71729">
        <ele>652</ele>
        <time>2019-03-19T13:41:13Z</time>
      </trkpt>
      <trkpt lat="44.31751" lon="5.71722">
        <ele>652</ele>
        <time>2019-03-19T13:41:14Z</time>
      </trkpt>
      <trkpt lat="44.3175" lon="5.71714">
        <ele>652</ele>
        <time>2019-03-19T13:41:15Z</time>
      </trkpt>
      <trkpt lat="44.31748" lon="5.71707">
        <ele>652</ele>
        <time>2019-03-19T13:41:16Z</time>
      </trkpt>
      <trkpt lat="44.31746" lon="5.717">
        <ele>652</ele>
        <time>2019-03-19T13:41:17Z</time>
      </trkpt>
      <trkpt lat="44.31744" lon="5.71693">
        <ele>652</ele>
        <time>2019-03-19T13:41:18Z</time>
      </trkpt>
      <trkpt lat="44.31741" lon="5.71686">
        <ele>652</ele>
        <time>2019-03-19T13:41:19Z</time>
      </trkpt>
      <trkpt lat="44.31738" lon="5.71679">
        <ele>652</ele>
        <time>2019-03-19T13:41:20Z</time>
      </trkpt>
      <trkpt lat="44.31735" lon="5.71673">
        <ele>652</ele>
        <time>2019-03-19T13:41:21Z</time>
      </trkpt>
      <trkpt lat="44.31731" lon="5.71666">
        <ele>652</ele>
        <time>2019-03-19T13:41:22Z</time>
      </trkpt>
      <trkpt lat="44.31728" lon="5.7166">
        <ele>652</ele>
        <time>2019-03-19T13:41:23Z</time>
      </trkpt>
      <trkpt lat="44.31723" lon="5.71654">
        <ele>652</ele>
        <time>2019-03-19T13:41:24Z</time>
      </trkpt>
      <trkpt lat="44.31719" lon="5.71648">
        <ele>652</ele>
        <time>2019-03-19T13:41:25Z</time>
      </trkpt>
      <trkpt lat="44.31715" lon="5.71641">
        <ele>652</ele>
        <time>2019-03-19T13:41:26Z</time>
      </trkpt>
      <trkpt lat="44.3171" lon="5.71634">
        <ele>652</ele>
        <time>2019-03-19T13:41:27Z</time>
      </trkpt>
      <trkpt lat="44.31706" lon="5.71627">
        <ele>652</ele>
        <time>2019-03-19T13:41:28Z</time>
      </trkpt>
      <trkpt lat="44.31702" lon="5.71619">
        <ele>652</ele>
        <time>2019-03-19T13:41:29Z</time>
      </trkpt>
      <trkpt lat="44.31698" lon="5.71612">
        <ele>652</ele>
        <time>2019-03-19T13:41:30Z</time>
      </trkpt>
      <trkpt lat="44.31694" lon="5.71604">
        <ele>652</ele>
        <time>2019-03-19T13:41:31Z</time>
      </trkpt>
      <trkpt lat="44.3169" lon="5.71596">
        <ele>652</ele>
        <time>2019-03-19T13:41:32Z</time>
      </trkpt>
      <trkpt lat="44.31686" lon="5.71588">
        <ele>652</ele>
        <time>2019-03-19T13:41:33Z</time>
      </trkpt>
      <trkpt lat="44.31683" lon="5.7158">
        <ele>652</ele>
        <time>2019-03-19T13:41:34Z</time>
      </trkpt>
      <trkpt lat="44.3168" lon="5.71572">
        <ele>652</ele>
        <time>2019-03-19T13:41:35Z</time>
      </trkpt>
      <trkpt lat="44.31677" lon="5.71564">
        <ele>652</ele>
        <time>2019-03-19T13:41:36Z</time>
      </trkpt>
      <trkpt lat="44.31673" lon="5.71556">
        <ele>652</ele>
        <time>2019-03-19T13:41:37Z</time>
      </trkpt>
      <trkpt lat="44.3167" lon="5.71547">
        <ele>652</ele>
        <time>2019-03-19T13:41:38Z</time>
      </trkpt>
      <trkpt lat="44.31666" lon="5.71539">
        <ele>652</ele>
        <time>2019-03-19T13:41:39Z</time>
      </trkpt>
      <trkpt lat="44.31663" lon="5.71531">
        <ele>652</ele>
        <time>2019-03-19T13:41:40Z</time>
      </trkpt>
      <trkpt lat="44.31659" lon="5.71522">
        <ele>652</ele>
        <time>2019-03-19T13:41:41Z</time>
      </trkpt>
      <trkpt lat="44.31656" lon="5.71514">
        <ele>652</ele>
        <time>2019-03-19T13:41:42Z</time>
      </trkpt>
      <trkpt lat="44.31653" lon="5.71505">
        <ele>652</ele>
        <time>2019-03-19T13:41:43Z</time>
      </trkpt>
      <trkpt lat="44.3165" lon="5.71496">
        <ele>652</ele>
        <time>2019-03-19T13:41:44Z</time>
      </trkpt>
      <trkpt lat="44.31646" lon="5.71488">
        <ele>652</ele>
        <time>2019-03-19T13:41:45Z</time>
      </trkpt>
      <trkpt lat="44.31643" lon="5.71479">
        <ele>652</ele>
        <time>2019-03-19T13:41:46Z</time>
      </trkpt>
      <trkpt lat="44.3164" lon="5.7147">
        <ele>652</ele>
        <time>2019-03-19T13:41:47Z</time>
      </trkpt>
      <trkpt lat="44.31637" lon="5.71462">
        <ele>652</ele>
        <time>2019-03-19T13:41:48Z</time>
      </trkpt>
      <trkpt lat="44.31633" lon="5.71453">
        <ele>652</ele>
        <time>2019-03-19T13:41:49Z</time>
      </trkpt>
      <trkpt lat="44.3163" lon="5.71444">
        <ele>652</ele>
        <time>2019-03-19T13:41:50Z</time>
      </trkpt>
      <trkpt lat="44.31627" lon="5.71435">
        <ele>652</ele>
        <time>2019-03-19T13:41:51Z</time>
      </trkpt>
      <trkpt lat="44.31624" lon="5.71426">
        <ele>652</ele>
        <time>2019-03-19T13:41:52Z</time>
      </trkpt>
      <trkpt lat="44.31622" lon="5.71418">
        <ele>652</ele>
        <time>2019-03-19T13:41:53Z</time>
      </trkpt>
      <trkpt lat="44.31619" lon="5.71409">
        <ele>652</ele>
        <time>2019-03-19T13:41:54Z</time>
      </trkpt>
      <trkpt lat="44.31616" lon="5.714">
        <ele>652</ele>
        <time>2019-03-19T13:41:55Z</time>
      </trkpt>
      <trkpt lat="44.31614" lon="5.71391">
        <ele>652</ele>
        <time>2019-03-19T13:41:56Z</time>
      </trkpt>
      <trkpt lat="44.31612" lon="5.71383">
        <ele>652</ele>
        <time>2019-03-19T13:41:57Z</time>
      </trkpt>
      <trkpt lat="44.31609" lon="5.71374">
        <ele>652</ele>
        <time>2019-03-19T13:41:58Z</time>
      </trkpt>
      <trkpt lat="44.31607" lon="5.71365">
        <ele>652</ele>
        <time>2019-03-19T13:41:59Z</time>
      </trkpt>
      <trkpt lat="44.31605" lon="5.71357">
        <ele>652</ele>
        <time>2019-03-19T13:42:00Z</time>
      </trkpt>
      <trkpt lat="44.31603" lon="5.71349">
        <ele>652</ele>
        <time>2019-03-19T13:42:01Z</time>
      </trkpt>
      <trkpt lat="44.31601" lon="5.71341">
        <ele>652</ele>
        <time>2019-03-19T13:42:02Z</time>
      </trkpt>
      <trkpt lat="44.316" lon="5.71333">
        <ele>652</ele>
        <time>2019-03-19T13:42:03Z</time>
      </trkpt>
      <trkpt lat="44.31598" lon="5.71325">
        <ele>652</ele>
        <time>2019-03-19T13:42:04Z</time>
      </trkpt>
      <trkpt lat="44.31597" lon="5.71317">
        <ele>652</ele>
        <time>2019-03-19T13:42:05Z</time>
      </trkpt>
      <trkpt lat="44.31596" lon="5.71309">
        <ele>652</ele>
        <time>2019-03-19T13:42:06Z</time>
      </trkpt>
      <trkpt lat="44.31594" lon="5.71302">
        <ele>652</ele>
        <time>2019-03-19T13:42:07Z</time>
      </trkpt>
      <trkpt lat="44.31593" lon="5.71294">
        <ele>652</ele>
        <time>2019-03-19T13:42:08Z</time>
      </trkpt>
      <trkpt lat="44.31592" lon="5.71286">
        <ele>652</ele>
        <time>2019-03-19T13:42:09Z</time>
      </trkpt>
      <trkpt lat="44.31591" lon="5.71279">
        <ele>652</ele>
        <time>2019-03-19T13:42:10Z</time>
      </trkpt>
      <trkpt lat="44.31589" lon="5.71271">
        <ele>653</ele>
        <time>2019-03-19T13:42:11Z</time>
      </trkpt>
      <trkpt lat="44.31588" lon="5.71264">
        <ele>653</ele>
        <time>2019-03-19T13:42:12Z</time>
      </trkpt>
      <trkpt lat="44.31587" lon="5.71256">
        <ele>653</ele>
        <time>2019-03-19T13:42:13Z</time>
      </trkpt>
      <trkpt lat="44.31585" lon="5.71249">
        <ele>653</ele>
        <time>2019-03-19T13:42:14Z</time>
      </trkpt>
      <trkpt lat="44.31584" lon="5.71241">
        <ele>654</ele>
        <time>2019-03-19T13:42:15Z</time>
      </trkpt>
      <trkpt lat="44.31583" lon="5.71234">
        <ele>654</ele>
        <time>2019-03-19T13:42:16Z</time>
      </trkpt>
      <trkpt lat="44.31581" lon="5.71227">
        <ele>654</ele>
        <time>2019-03-19T13:42:17Z</time>
      </trkpt>
      <trkpt lat="44.31579" lon="5.7122">
        <ele>654</ele>
        <time>2019-03-19T13:42:18Z</time>
      </trkpt>
      <trkpt lat="44.31578" lon="5.71213">
        <ele>655</ele>
        <time>2019-03-19T13:42:19Z</time>
      </trkpt>
      <trkpt lat="44.31576" lon="5.71206">
        <ele>655</ele>
        <time>2019-03-19T13:42:20Z</time>
      </trkpt>
      <trkpt lat="44.31575" lon="5.71198">
        <ele>655</ele>
        <time>2019-03-19T13:42:21Z</time>
      </trkpt>
      <trkpt lat="44.31573" lon="5.7119">
        <ele>655</ele>
        <time>2019-03-19T13:42:22Z</time>
      </trkpt>
      <trkpt lat="44.31572" lon="5.71182">
        <ele>655</ele>
        <time>2019-03-19T13:42:23Z</time>
      </trkpt>
      <trkpt lat="44.3157" lon="5.71174">
        <ele>655</ele>
        <time>2019-03-19T13:42:24Z</time>
      </trkpt>
      <trkpt lat="44.31569" lon="5.71166">
        <ele>655</ele>
        <time>2019-03-19T13:42:25Z</time>
      </trkpt>
      <trkpt lat="44.31567" lon="5.71158">
        <ele>656</ele>
        <time>2019-03-19T13:42:26Z</time>
      </trkpt>
      <trkpt lat="44.31566" lon="5.7115">
        <ele>656</ele>
        <time>2019-03-19T13:42:27Z</time>
      </trkpt>
      <trkpt lat="44.31564" lon="5.71143">
        <ele>656</ele>
        <time>2019-03-19T13:42:28Z</time>
      </trkpt>
      <trkpt lat="44.31562" lon="5.71136">
        <ele>656</ele>
        <time>2019-03-19T13:42:29Z</time>
      </trkpt>
      <trkpt lat="44.31561" lon="5.71129">
        <ele>656</ele>
        <time>2019-03-19T13:42:30Z</time>
      </trkpt>
      <trkpt lat="44.31559" lon="5.71121">
        <ele>656</ele>
        <time>2019-03-19T13:42:31Z</time>
      </trkpt>
      <trkpt lat="44.31557" lon="5.71114">
        <ele>656</ele>
        <time>2019-03-19T13:42:32Z</time>
      </trkpt>
      <trkpt lat="44.31555" lon="5.71107">
        <ele>656</ele>
        <time>2019-03-19T13:42:33Z</time>
      </trkpt>
      <trkpt lat="44.31553" lon="5.711">
        <ele>656</ele>
        <time>2019-03-19T13:42:34Z</time>
      </trkpt>
      <trkpt lat="44.31551" lon="5.71093">
        <ele>656</ele>
        <time>2019-03-19T13:42:35Z</time>
      </trkpt>
      <trkpt lat="44.31548" lon="5.71087">
        <ele>656</ele>
        <time>2019-03-19T13:42:36Z</time>
      </trkpt>
      <trkpt lat="44.31546" lon="5.7108">
        <ele>656</ele>
        <time>2019-03-19T13:42:37Z</time>
      </trkpt>
      <trkpt lat="44.31545" lon="5.71073">
        <ele>656</ele>
        <time>2019-03-19T13:42:38Z</time>
      </trkpt>
      <trkpt lat="44.31543" lon="5.71067">
        <ele>656</ele>
        <time>2019-03-19T13:42:39Z</time>
      </trkpt>
      <trkpt lat="44.31542" lon="5.7106">
        <ele>656</ele>
        <time>2019-03-19T13:42:40Z</time>
      </trkpt>
      <trkpt lat="44.3154" lon="5.71053">
        <ele>656</ele>
        <time>2019-03-19T13:42:41Z</time>
      </trkpt>
      <trkpt lat="44.31539" lon="5.71046">
        <ele>656</ele>
        <time>2019-03-19T13:42:42Z</time>
      </trkpt>
      <trkpt lat="44.31538" lon="5.71039">
        <ele>657</ele>
        <time>2019-03-19T13:42:43Z</time>
      </trkpt>
      <trkpt lat="44.31537" lon="5.71031">
        <ele>657</ele>
        <time>2019-03-19T13:42:44Z</time>
      </trkpt>
      <trkpt lat="44.31536" lon="5.71024">
        <ele>657</ele>
        <time>2019-03-19T13:42:45Z</time>
      </trkpt>
      <trkpt lat="44.31536" lon="5.71016">
        <ele>657</ele>
        <time>2019-03-19T13:42:46Z</time>
      </trkpt>
      <trkpt lat="44.31536" lon="5.71008">
        <ele>657</ele>
        <time>2019-03-19T13:42:47Z</time>
      </trkpt>
      <trkpt lat="44.31536" lon="5.71">
        <ele>658</ele>
        <time>2019-03-19T13:42:48Z</time>
      </trkpt>
      <trkpt lat="44.31536" lon="5.70993">
        <ele>658</ele>
        <time>2019-03-19T13:42:49Z</time>
      </trkpt>
      <trkpt lat="44.31536" lon="5.70986">
        <ele>658</ele>
        <time>2019-03-19T13:42:50Z</time>
      </trkpt>
      <trkpt lat="44.31537" lon="5.70978">
        <ele>659</ele>
        <time>2019-03-19T13:42:51Z</time>
      </trkpt>
      <trkpt lat="44.31538" lon="5.7097">
        <ele>659</ele>
        <time>2019-03-19T13:42:52Z</time>
      </trkpt>
      <trkpt lat="44.31539" lon="5.70963">
        <ele>659</ele>
        <time>2019-03-19T13:42:53Z</time>
      </trkpt>
      <trkpt lat="44.3154" lon="5.70955">
        <ele>659</ele>
        <time>2019-03-19T13:42:54Z</time>
      </trkpt>
      <trkpt lat="44.31541" lon="5.70947">
        <ele>660</ele>
        <time>2019-03-19T13:42:55Z</time>
      </trkpt>
      <trkpt lat="44.31543" lon="5.7094">
        <ele>660</ele>
        <time>2019-03-19T13:42:56Z</time>
      </trkpt>
      <trkpt lat="44.31544" lon="5.70932">
        <ele>660</ele>
        <time>2019-03-19T13:42:57Z</time>
      </trkpt>
      <trkpt lat="44.31545" lon="5.70924">
        <ele>660</ele>
        <time>2019-03-19T13:42:58Z</time>
      </trkpt>
      <trkpt lat="44.31546" lon="5.70916">
        <ele>660</ele>
        <time>2019-03-19T13:42:59Z</time>
      </trkpt>
      <trkpt lat="44.31548" lon="5.70908">
        <ele>661</ele>
        <time>2019-03-19T13:43:00Z</time>
      </trkpt>
      <trkpt lat="44.31549" lon="5.70901">
        <ele>661</ele>
        <time>2019-03-19T13:43:01Z</time>
      </trkpt>
      <trkpt lat="44.31551" lon="5.70893">
        <ele>661</ele>
        <time>2019-03-19T13:43:02Z</time>
      </trkpt>
      <trkpt lat="44.31552" lon="5.70886">
        <ele>661</ele>
        <time>2019-03-19T13:43:03Z</time>
      </trkpt>
      <trkpt lat="44.31553" lon="5.70878">
        <ele>661</ele>
        <time>2019-03-19T13:43:04Z</time>
      </trkpt>
      <trkpt lat="44.31554" lon="5.7087">
        <ele>662</ele>
        <time>2019-03-19T13:43:05Z</time>
      </trkpt>
      <trkpt lat="44.31555" lon="5.70863">
        <ele>662</ele>
        <time>2019-03-19T13:43:06Z</time>
      </trkpt>
      <trkpt lat="44.31556" lon="5.70855">
        <ele>662</ele>
        <time>2019-03-19T13:43:07Z</time>
      </trkpt>
      <trkpt lat="44.31558" lon="5.70848">
        <ele>662</ele>
        <time>2019-03-19T13:43:08Z</time>
      </trkpt>
      <trkpt lat="44.31559" lon="5.7084">
        <ele>663</ele>
        <time>2019-03-19T13:43:09Z</time>
      </trkpt>
      <trkpt lat="44.31559" lon="5.70833">
        <ele>663</ele>
        <time>2019-03-19T13:43:10Z</time>
      </trkpt>
      <trkpt lat="44.3156" lon="5.70825">
        <ele>663</ele>
        <time>2019-03-19T13:43:11Z</time>
      </trkpt>
      <trkpt lat="44.31561" lon="5.70818">
        <ele>663</ele>
        <time>2019-03-19T13:43:12Z</time>
      </trkpt>
      <trkpt lat="44.31562" lon="5.70811">
        <ele>664</ele>
        <time>2019-03-19T13:43:13Z</time>
      </trkpt>
      <trkpt lat="44.31562" lon="5.70803">
        <ele>664</ele>
        <time>2019-03-19T13:43:14Z</time>
      </trkpt>
      <trkpt lat="44.31562" lon="5.70796">
        <ele>664</ele>
        <time>2019-03-19T13:43:15Z</time>
      </trkpt>
      <trkpt lat="44.31563" lon="5.70789">
        <ele>664</ele>
        <time>2019-03-19T13:43:16Z</time>
      </trkpt>
      <trkpt lat="44.31563" lon="5.70782">
        <ele>665</ele>
        <time>2019-03-19T13:43:17Z</time>
      </trkpt>
      <trkpt lat="44.31563" lon="5.70776">
        <ele>665</ele>
        <time>2019-03-19T13:43:18Z</time>
      </trkpt>
      <trkpt lat="44.31563" lon="5.70769">
        <ele>665</ele>
        <time>2019-03-19T13:43:19Z</time>
      </trkpt>
      <trkpt lat="44.31563" lon="5.70762">
        <ele>665</ele>
        <time>2019-03-19T13:43:20Z</time>
      </trkpt>
      <trkpt lat="44.31562" lon="5.70755">
        <ele>666</ele>
        <time>2019-03-19T13:43:21Z</time>
      </trkpt>
      <trkpt lat="44.31562" lon="5.70749">
        <ele>666</ele>
        <time>2019-03-19T13:43:22Z</time>
      </trkpt>
      <trkpt lat="44.31562" lon="5.70743">
        <ele>666</ele>
        <time>2019-03-19T13:43:23Z</time>
      </trkpt>
      <trkpt lat="44.31562" lon="5.70737">
        <ele>666</ele>
        <time>2019-03-19T13:43:24Z</time>
      </trkpt>
      <trkpt lat="44.31561" lon="5.70731">
        <ele>666</ele>
        <time>2019-03-19T13:43:25Z</time>
      </trkpt>
      <trkpt lat="44.31561" lon="5.70724">
        <ele>666</ele>
        <time>2019-03-19T13:43:26Z</time>
      </trkpt>
      <trkpt lat="44.3156" lon="5.70718">
        <ele>666</ele>
        <time>2019-03-19T13:43:27Z</time>
      </trkpt>
      <trkpt lat="44.31559" lon="5.70713">
        <ele>667</ele>
        <time>2019-03-19T13:43:28Z</time>
      </trkpt>
      <trkpt lat="44.31559" lon="5.70707">
        <ele>667</ele>
        <time>2019-03-19T13:43:29Z</time>
      </trkpt>
      <trkpt lat="44.31558" lon="5.70701">
        <ele>667</ele>
        <time>2019-03-19T13:43:30Z</time>
      </trkpt>
      <trkpt lat="44.31557" lon="5.70694">
        <ele>668</ele>
        <time>2019-03-19T13:43:31Z</time>
      </trkpt>
      <trkpt lat="44.31557" lon="5.70687">
        <ele>668</ele>
        <time>2019-03-19T13:43:32Z</time>
      </trkpt>
      <trkpt lat="44.31556" lon="5.70681">
        <ele>668</ele>
        <time>2019-03-19T13:43:33Z</time>
      </trkpt>
      <trkpt lat="44.31555" lon="5.70675">
        <ele>668</ele>
        <time>2019-03-19T13:43:34Z</time>
      </trkpt>
      <trkpt lat="44.31554" lon="5.7067">
        <ele>669</ele>
        <time>2019-03-19T13:43:35Z</time>
      </trkpt>
      <trkpt lat="44.31553" lon="5.70664">
        <ele>669</ele>
        <time>2019-03-19T13:43:36Z</time>
      </trkpt>
      <trkpt lat="44.31552" lon="5.70658">
        <ele>669</ele>
        <time>2019-03-19T13:43:37Z</time>
      </trkpt>
      <trkpt lat="44.3155" lon="5.70653">
        <ele>669</ele>
        <time>2019-03-19T13:43:38Z</time>
      </trkpt>
      <trkpt lat="44.31548" lon="5.70648">
        <ele>669</ele>
        <time>2019-03-19T13:43:39Z</time>
      </trkpt>
      <trkpt lat="44.31546" lon="5.70643">
        <ele>669</ele>
        <time>2019-03-19T13:43:40Z</time>
      </trkpt>
      <trkpt lat="44.31544" lon="5.70638">
        <ele>669</ele>
        <time>2019-03-19T13:43:41Z</time>
      </trkpt>
      <trkpt lat="44.31542" lon="5.70633">
        <ele>670</ele>
        <time>2019-03-19T13:43:42Z</time>
      </trkpt>
      <trkpt lat="44.3154" lon="5.70628">
        <ele>670</ele>
        <time>2019-03-19T13:43:43Z</time>
      </trkpt>
      <trkpt lat="44.31538" lon="5.70623">
        <ele>670</ele>
        <time>2019-03-19T13:43:44Z</time>
      </trkpt>
      <trkpt lat="44.31536" lon="5.70619">
        <ele>670</ele>
        <time>2019-03-19T13:43:45Z</time>
      </trkpt>
      <trkpt lat="44.31533" lon="5.70614">
        <ele>670</ele>
        <time>2019-03-19T13:43:46Z</time>
      </trkpt>
      <trkpt lat="44.31531" lon="5.7061">
        <ele>670</ele>
        <time>2019-03-19T13:43:47Z</time>
      </trkpt>
      <trkpt lat="44.31528" lon="5.70605">
        <ele>670</ele>
        <time>2019-03-19T13:43:48Z</time>
      </trkpt>
      <trkpt lat="44.31526" lon="5.70601">
        <ele>670</ele>
        <time>2019-03-19T13:43:49Z</time>
      </trkpt>
      <trkpt lat="44.31524" lon="5.70597">
        <ele>670</ele>
        <time>2019-03-19T13:43:50Z</time>
      </trkpt>
      <trkpt lat="44.31521" lon="5.70592">
        <ele>670</ele>
        <time>2019-03-19T13:43:51Z</time>
      </trkpt>
      <trkpt lat="44.31519" lon="5.70588">
        <ele>670</ele>
        <time>2019-03-19T13:43:52Z</time>
      </trkpt>
      <trkpt lat="44.31516" lon="5.70583">
        <ele>670</ele>
        <time>2019-03-19T13:43:53Z</time>
      </trkpt>
      <trkpt lat="44.31514" lon="5.70578">
        <ele>671</ele>
        <time>2019-03-19T13:43:54Z</time>
      </trkpt>
      <trkpt lat="44.31511" lon="5.70574">
        <ele>671</ele>
        <time>2019-03-19T13:43:55Z</time>
      </trkpt>
      <trkpt lat="44.31509" lon="5.70568">
        <ele>671</ele>
        <time>2019-03-19T13:43:56Z</time>
      </trkpt>
      <trkpt lat="44.31507" lon="5.70563">
        <ele>671</ele>
        <time>2019-03-19T13:43:57Z</time>
      </trkpt>
      <trkpt lat="44.31505" lon="5.70558">
        <ele>671</ele>
        <time>2019-03-19T13:43:58Z</time>
      </trkpt>
      <trkpt lat="44.31503" lon="5.70552">
        <ele>671</ele>
        <time>2019-03-19T13:43:59Z</time>
      </trkpt>
      <trkpt lat="44.31501" lon="5.70546">
        <ele>672</ele>
        <time>2019-03-19T13:44:00Z</time>
      </trkpt>
      <trkpt lat="44.31499" lon="5.70541">
        <ele>672</ele>
        <time>2019-03-19T13:44:01Z</time>
      </trkpt>
      <trkpt lat="44.31498" lon="5.70534">
        <ele>672</ele>
        <time>2019-03-19T13:44:02Z</time>
      </trkpt>
      <trkpt lat="44.31496" lon="5.70528">
        <ele>672</ele>
        <time>2019-03-19T13:44:03Z</time>
      </trkpt>
      <trkpt lat="44.31495" lon="5.70522">
        <ele>672</ele>
        <time>2019-03-19T13:44:04Z</time>
      </trkpt>
      <trkpt lat="44.31493" lon="5.70515">
        <ele>672</ele>
        <time>2019-03-19T13:44:05Z</time>
      </trkpt>
      <trkpt lat="44.31493" lon="5.70509">
        <ele>672</ele>
        <time>2019-03-19T13:44:06Z</time>
      </trkpt>
      <trkpt lat="44.31491" lon="5.70502">
        <ele>672</ele>
        <time>2019-03-19T13:44:07Z</time>
      </trkpt>
      <trkpt lat="44.3149" lon="5.70496">
        <ele>672</ele>
        <time>2019-03-19T13:44:08Z</time>
      </trkpt>
      <trkpt lat="44.31489" lon="5.7049">
        <ele>672</ele>
        <time>2019-03-19T13:44:09Z</time>
      </trkpt>
      <trkpt lat="44.31488" lon="5.70483">
        <ele>672</ele>
        <time>2019-03-19T13:44:10Z</time>
      </trkpt>
      <trkpt lat="44.31487" lon="5.70477">
        <ele>672</ele>
        <time>2019-03-19T13:44:11Z</time>
      </trkpt>
      <trkpt lat="44.31486" lon="5.70471">
        <ele>672</ele>
        <time>2019-03-19T13:44:12Z</time>
      </trkpt>
      <trkpt lat="44.31485" lon="5.70464">
        <ele>672</ele>
        <time>2019-03-19T13:44:13Z</time>
      </trkpt>
      <trkpt lat="44.31483" lon="5.70458">
        <ele>672</ele>
        <time>2019-03-19T13:44:14Z</time>
      </trkpt>
      <trkpt lat="44.31482" lon="5.70451">
        <ele>672</ele>
        <time>2019-03-19T13:44:15Z</time>
      </trkpt>
      <trkpt lat="44.31481" lon="5.70445">
        <ele>672</ele>
        <time>2019-03-19T13:44:16Z</time>
      </trkpt>
      <trkpt lat="44.31479" lon="5.70438">
        <ele>672</ele>
        <time>2019-03-19T13:44:17Z</time>
      </trkpt>
      <trkpt lat="44.31477" lon="5.70432">
        <ele>672</ele>
        <time>2019-03-19T13:44:18Z</time>
      </trkpt>
      <trkpt lat="44.31475" lon="5.70426">
        <ele>672</ele>
        <time>2019-03-19T13:44:19Z</time>
      </trkpt>
      <trkpt lat="44.31472" lon="5.7042">
        <ele>672</ele>
        <time>2019-03-19T13:44:20Z</time>
      </trkpt>
      <trkpt lat="44.31469" lon="5.70414">
        <ele>672</ele>
        <time>2019-03-19T13:44:21Z</time>
      </trkpt>
      <trkpt lat="44.31467" lon="5.70408">
        <ele>672</ele>
        <time>2019-03-19T13:44:22Z</time>
      </trkpt>
      <trkpt lat="44.31464" lon="5.70403">
        <ele>672</ele>
        <time>2019-03-19T13:44:23Z</time>
      </trkpt>
      <trkpt lat="44.31461" lon="5.70397">
        <ele>672</ele>
        <time>2019-03-19T13:44:24Z</time>
      </trkpt>
      <trkpt lat="44.31459" lon="5.70391">
        <ele>672</ele>
        <time>2019-03-19T13:44:25Z</time>
      </trkpt>
      <trkpt lat="44.31456" lon="5.70385">
        <ele>672</ele>
        <time>2019-03-19T13:44:26Z</time>
      </trkpt>
      <trkpt lat="44.31453" lon="5.7038">
        <ele>672</ele>
        <time>2019-03-19T13:44:27Z</time>
      </trkpt>
      <trkpt lat="44.31451" lon="5.70374">
        <ele>672</ele>
        <time>2019-03-19T13:44:28Z</time>
      </trkpt>
      <trkpt lat="44.31448" lon="5.70368">
        <ele>672</ele>
        <time>2019-03-19T13:44:29Z</time>
      </trkpt>
      <trkpt lat="44.31446" lon="5.70363">
        <ele>672</ele>
        <time>2019-03-19T13:44:30Z</time>
      </trkpt>
      <trkpt lat="44.31443" lon="5.70357">
        <ele>672</ele>
        <time>2019-03-19T13:44:31Z</time>
      </trkpt>
      <trkpt lat="44.31441" lon="5.70351">
        <ele>672</ele>
        <time>2019-03-19T13:44:32Z</time>
      </trkpt>
      <trkpt lat="44.31439" lon="5.70344">
        <ele>672</ele>
        <time>2019-03-19T13:44:33Z</time>
      </trkpt>
      <trkpt lat="44.31437" lon="5.70337">
        <ele>673</ele>
        <time>2019-03-19T13:44:34Z</time>
      </trkpt>
      <trkpt lat="44.31435" lon="5.70331">
        <ele>673</ele>
        <time>2019-03-19T13:44:35Z</time>
      </trkpt>
      <trkpt lat="44.31434" lon="5.70325">
        <ele>673</ele>
        <time>2019-03-19T13:44:36Z</time>
      </trkpt>
      <trkpt lat="44.31433" lon="5.70319">
        <ele>674</ele>
        <time>2019-03-19T13:44:37Z</time>
      </trkpt>
      <trkpt lat="44.31432" lon="5.70312">
        <ele>674</ele>
        <time>2019-03-19T13:44:38Z</time>
      </trkpt>
      <trkpt lat="44.31431" lon="5.70306">
        <ele>674</ele>
        <time>2019-03-19T13:44:39Z</time>
      </trkpt>
      <trkpt lat="44.3143" lon="5.70299">
        <ele>675</ele>
        <time>2019-03-19T13:44:40Z</time>
      </trkpt>
      <trkpt lat="44.3143" lon="5.70293">
        <ele>675</ele>
        <time>2019-03-19T13:44:41Z</time>
      </trkpt>
      <trkpt lat="44.31429" lon="5.70287">
        <ele>675</ele>
        <time>2019-03-19T13:44:42Z</time>
      </trkpt>
      <trkpt lat="44.31428" lon="5.70281">
        <ele>676</ele>
        <time>2019-03-19T13:44:43Z</time>
      </trkpt>
      <trkpt lat="44.31428" lon="5.70274">
        <ele>676</ele>
        <time>2019-03-19T13:44:44Z</time>
      </trkpt>
      <trkpt lat="44.31428" lon="5.70268">
        <ele>676</ele>
        <time>2019-03-19T13:44:45Z</time>
      </trkpt>
      <trkpt lat="44.31428" lon="5.70261">
        <ele>677</ele>
        <time>2019-03-19T13:44:46Z</time>
      </trkpt>
      <trkpt lat="44.31427" lon="5.70255">
        <ele>677</ele>
        <time>2019-03-19T13:44:47Z</time>
      </trkpt>
      <trkpt lat="44.31427" lon="5.70249">
        <ele>677</ele>
        <time>2019-03-19T13:44:48Z</time>
      </trkpt>
      <trkpt lat="44.31427" lon="5.70243">
        <ele>678</ele>
        <time>2019-03-19T13:44:49Z</time>
      </trkpt>
      <trkpt lat="44.31426" lon="5.70236">
        <ele>678</ele>
        <time>2019-03-19T13:44:50Z</time>
      </trkpt>
      <trkpt lat="44.31425" lon="5.7023">
        <ele>679</ele>
        <time>2019-03-19T13:44:51Z</time>
      </trkpt>
      <trkpt lat="44.31425" lon="5.70224">
        <ele>679</ele>
        <time>2019-03-19T13:44:52Z</time>
      </trkpt>
      <trkpt lat="44.31424" lon="5.70218">
        <ele>679</ele>
        <time>2019-03-19T13:44:53Z</time>
      </trkpt>
      <trkpt lat="44.31423" lon="5.70212">
        <ele>679</ele>
        <time>2019-03-19T13:44:54Z</time>
      </trkpt>
      <trkpt lat="44.31423" lon="5.70206">
        <ele>680</ele>
        <time>2019-03-19T13:44:55Z</time>
      </trkpt>
      <trkpt lat="44.31422" lon="5.702">
        <ele>680</ele>
        <time>2019-03-19T13:44:56Z</time>
      </trkpt>
      <trkpt lat="44.31421" lon="5.70194">
        <ele>680</ele>
        <time>2019-03-19T13:44:57Z</time>
      </trkpt>
      <trkpt lat="44.3142" lon="5.70188">
        <ele>680</ele>
        <time>2019-03-19T13:44:58Z</time>
      </trkpt>
      <trkpt lat="44.31419" lon="5.70182">
        <ele>680</ele>
        <time>2019-03-19T13:44:59Z</time>
      </trkpt>
      <trkpt lat="44.31417" lon="5.70176">
        <ele>681</ele>
        <time>2019-03-19T13:45:00Z</time>
      </trkpt>
      <trkpt lat="44.31415" lon="5.70171">
        <ele>681</ele>
        <time>2019-03-19T13:45:01Z</time>
      </trkpt>
      <trkpt lat="44.31414" lon="5.70165">
        <ele>681</ele>
        <time>2019-03-19T13:45:02Z</time>
      </trkpt>
      <trkpt lat="44.31412" lon="5.70159">
        <ele>681</ele>
        <time>2019-03-19T13:45:03Z</time>
      </trkpt>
      <trkpt lat="44.3141" lon="5.70154">
        <ele>681</ele>
        <time>2019-03-19T13:45:04Z</time>
      </trkpt>
      <trkpt lat="44.31408" lon="5.70148">
        <ele>681</ele>
        <time>2019-03-19T13:45:05Z</time>
      </trkpt>
      <trkpt lat="44.31407" lon="5.70142">
        <ele>681</ele>
        <time>2019-03-19T13:45:06Z</time>
      </trkpt>
      <trkpt lat="44.31405" lon="5.70136">
        <ele>681</ele>
        <time>2019-03-19T13:45:07Z</time>
      </trkpt>
      <trkpt lat="44.31403" lon="5.7013">
        <ele>681</ele>
        <time>2019-03-19T13:45:08Z</time>
      </trkpt>
      <trkpt lat="44.31401" lon="5.70125">
        <ele>681</ele>
        <time>2019-03-19T13:45:09Z</time>
      </trkpt>
      <trkpt lat="44.31398" lon="5.70119">
        <ele>681</ele>
        <time>2019-03-19T13:45:10Z</time>
      </trkpt>
      <trkpt lat="44.31396" lon="5.70114">
        <ele>681</ele>
        <time>2019-03-19T13:45:11Z</time>
      </trkpt>
      <trkpt lat="44.31394" lon="5.70109">
        <ele>681</ele>
        <time>2019-03-19T13:45:12Z</time>
      </trkpt>
      <trkpt lat="44.31393" lon="5.70103">
        <ele>682</ele>
        <time>2019-03-19T13:45:13Z</time>
      </trkpt>
      <trkpt lat="44.3139" lon="5.70098">
        <ele>682</ele>
        <time>2019-03-19T13:45:14Z</time>
      </trkpt>
      <trkpt lat="44.31389" lon="5.70093">
        <ele>682</ele>
        <time>2019-03-19T13:45:15Z</time>
      </trkpt>
      <trkpt lat="44.31387" lon="5.70088">
        <ele>682</ele>
        <time>2019-03-19T13:45:16Z</time>
      </trkpt>
      <trkpt lat="44.31385" lon="5.70083">
        <ele>682</ele>
        <time>2019-03-19T13:45:17Z</time>
      </trkpt>
      <trkpt lat="44.31383" lon="5.70078">
        <ele>683</ele>
        <time>2019-03-19T13:45:18Z</time>
      </trkpt>
      <trkpt lat="44.31382" lon="5.70072">
        <ele>683</ele>
        <time>2019-03-19T13:45:19Z</time>
      </trkpt>
      <trkpt lat="44.3138" lon="5.70066">
        <ele>683</ele>
        <time>2019-03-19T13:45:20Z</time>
      </trkpt>
      <trkpt lat="44.31379" lon="5.70061">
        <ele>683</ele>
        <time>2019-03-19T13:45:21Z</time>
      </trkpt>
      <trkpt lat="44.31377" lon="5.70055">
        <ele>683</ele>
        <time>2019-03-19T13:45:22Z</time>
      </trkpt>
      <trkpt lat="44.31375" lon="5.70049">
        <ele>683</ele>
        <time>2019-03-19T13:45:23Z</time>
      </trkpt>
      <trkpt lat="44.31374" lon="5.70043">
        <ele>683</ele>
        <time>2019-03-19T13:45:24Z</time>
      </trkpt>
      <trkpt lat="44.31373" lon="5.70036">
        <ele>683</ele>
        <time>2019-03-19T13:45:25Z</time>
      </trkpt>
      <trkpt lat="44.31371" lon="5.7003">
        <ele>683</ele>
        <time>2019-03-19T13:45:26Z</time>
      </trkpt>
      <trkpt lat="44.3137" lon="5.70023">
        <ele>684</ele>
        <time>2019-03-19T13:45:27Z</time>
      </trkpt>
      <trkpt lat="44.31369" lon="5.70016">
        <ele>684</ele>
        <time>2019-03-19T13:45:28Z</time>
      </trkpt>
      <trkpt lat="44.31367" lon="5.7001">
        <ele>684</ele>
        <time>2019-03-19T13:45:29Z</time>
      </trkpt>
      <trkpt lat="44.31366" lon="5.70002">
        <ele>684</ele>
        <time>2019-03-19T13:45:30Z</time>
      </trkpt>
      <trkpt lat="44.31365" lon="5.69995">
        <ele>684</ele>
        <time>2019-03-19T13:45:31Z</time>
      </trkpt>
      <trkpt lat="44.31364" lon="5.69988">
        <ele>684</ele>
        <time>2019-03-19T13:45:32Z</time>
      </trkpt>
      <trkpt lat="44.31363" lon="5.69981">
        <ele>684</ele>
        <time>2019-03-19T13:45:33Z</time>
      </trkpt>
      <trkpt lat="44.31362" lon="5.69973">
        <ele>684</ele>
        <time>2019-03-19T13:45:34Z</time>
      </trkpt>
      <trkpt lat="44.31361" lon="5.69966">
        <ele>684</ele>
        <time>2019-03-19T13:45:35Z</time>
      </trkpt>
      <trkpt lat="44.31359" lon="5.69958">
        <ele>684</ele>
        <time>2019-03-19T13:45:36Z</time>
      </trkpt>
      <trkpt lat="44.31358" lon="5.6995">
        <ele>684</ele>
        <time>2019-03-19T13:45:37Z</time>
      </trkpt>
      <trkpt lat="44.31356" lon="5.69943">
        <ele>684</ele>
        <time>2019-03-19T13:45:38Z</time>
      </trkpt>
      <trkpt lat="44.31355" lon="5.69935">
        <ele>684</ele>
        <time>2019-03-19T13:45:39Z</time>
      </trkpt>
      <trkpt lat="44.31353" lon="5.69927">
        <ele>684</ele>
        <time>2019-03-19T13:45:40Z</time>
      </trkpt>
      <trkpt lat="44.31351" lon="5.69919">
        <ele>684</ele>
        <time>2019-03-19T13:45:41Z</time>
      </trkpt>
      <trkpt lat="44.31349" lon="5.69911">
        <ele>684</ele>
        <time>2019-03-19T13:45:42Z</time>
      </trkpt>
      <trkpt lat="44.31347" lon="5.69904">
        <ele>684</ele>
        <time>2019-03-19T13:45:43Z</time>
      </trkpt>
      <trkpt lat="44.31345" lon="5.69897">
        <ele>684</ele>
        <time>2019-03-19T13:45:44Z</time>
      </trkpt>
      <trkpt lat="44.31343" lon="5.69889">
        <ele>684</ele>
        <time>2019-03-19T13:45:45Z</time>
      </trkpt>
      <trkpt lat="44.31341" lon="5.69882">
        <ele>684</ele>
        <time>2019-03-19T13:45:46Z</time>
      </trkpt>
      <trkpt lat="44.3134" lon="5.69874">
        <ele>684</ele>
        <time>2019-03-19T13:45:47Z</time>
      </trkpt>
      <trkpt lat="44.31338" lon="5.69868">
        <ele>684</ele>
        <time>2019-03-19T13:45:48Z</time>
      </trkpt>
      <trkpt lat="44.31337" lon="5.69861">
        <ele>684</ele>
        <time>2019-03-19T13:45:49Z</time>
      </trkpt>
      <trkpt lat="44.31335" lon="5.69854">
        <ele>684</ele>
        <time>2019-03-19T13:45:50Z</time>
      </trkpt>
      <trkpt lat="44.31334" lon="5.69847">
        <ele>684</ele>
        <time>2019-03-19T13:45:51Z</time>
      </trkpt>
      <trkpt lat="44.31332" lon="5.69841">
        <ele>684</ele>
        <time>2019-03-19T13:45:52Z</time>
      </trkpt>
      <trkpt lat="44.31331" lon="5.69834">
        <ele>684</ele>
        <time>2019-03-19T13:45:53Z</time>
      </trkpt>
      <trkpt lat="44.3133" lon="5.69827">
        <ele>684</ele>
        <time>2019-03-19T13:45:54Z</time>
      </trkpt>
      <trkpt lat="44.31329" lon="5.6982">
        <ele>684</ele>
        <time>2019-03-19T13:45:55Z</time>
      </trkpt>
      <trkpt lat="44.31327" lon="5.69813">
        <ele>684</ele>
        <time>2019-03-19T13:45:56Z</time>
      </trkpt>
      <trkpt lat="44.31326" lon="5.69806">
        <ele>684</ele>
        <time>2019-03-19T13:45:57Z</time>
      </trkpt>
      <trkpt lat="44.31326" lon="5.69798">
        <ele>684</ele>
        <time>2019-03-19T13:45:58Z</time>
      </trkpt>
      <trkpt lat="44.31325" lon="5.69791">
        <ele>684</ele>
        <time>2019-03-19T13:45:59Z</time>
      </trkpt>
      <trkpt lat="44.31325" lon="5.69783">
        <ele>684</ele>
        <time>2019-03-19T13:46:00Z</time>
      </trkpt>
      <trkpt lat="44.31325" lon="5.69775">
        <ele>684</ele>
        <time>2019-03-19T13:46:01Z</time>
      </trkpt>
      <trkpt lat="44.31325" lon="5.69767">
        <ele>684</ele>
        <time>2019-03-19T13:46:02Z</time>
      </trkpt>
      <trkpt lat="44.31325" lon="5.6976">
        <ele>684</ele>
        <time>2019-03-19T13:46:03Z</time>
      </trkpt>
      <trkpt lat="44.31325" lon="5.69752">
        <ele>684</ele>
        <time>2019-03-19T13:46:04Z</time>
      </trkpt>
      <trkpt lat="44.31326" lon="5.69744">
        <ele>684</ele>
        <time>2019-03-19T13:46:05Z</time>
      </trkpt>
      <trkpt lat="44.31327" lon="5.69737">
        <ele>684</ele>
        <time>2019-03-19T13:46:06Z</time>
      </trkpt>
      <trkpt lat="44.31327" lon="5.69729">
        <ele>684</ele>
        <time>2019-03-19T13:46:07Z</time>
      </trkpt>
      <trkpt lat="44.31328" lon="5.69722">
        <ele>684</ele>
        <time>2019-03-19T13:46:08Z</time>
      </trkpt>
      <trkpt lat="44.31328" lon="5.69714">
        <ele>684</ele>
        <time>2019-03-19T13:46:09Z</time>
      </trkpt>
      <trkpt lat="44.31328" lon="5.69706">
        <ele>684</ele>
        <time>2019-03-19T13:46:10Z</time>
      </trkpt>
      <trkpt lat="44.31329" lon="5.69699">
        <ele>684</ele>
        <time>2019-03-19T13:46:11Z</time>
      </trkpt>
      <trkpt lat="44.31329" lon="5.69691">
        <ele>684</ele>
        <time>2019-03-19T13:46:12Z</time>
      </trkpt>
      <trkpt lat="44.31329" lon="5.69683">
        <ele>684</ele>
        <time>2019-03-19T13:46:13Z</time>
      </trkpt>
      <trkpt lat="44.31329" lon="5.69675">
        <ele>684</ele>
        <time>2019-03-19T13:46:14Z</time>
      </trkpt>
      <trkpt lat="44.31329" lon="5.69667">
        <ele>684</ele>
        <time>2019-03-19T13:46:15Z</time>
      </trkpt>
      <trkpt lat="44.31329" lon="5.69659">
        <ele>684</ele>
        <time>2019-03-19T13:46:16Z</time>
      </trkpt>
      <trkpt lat="44.3133" lon="5.69651">
        <ele>684</ele>
        <time>2019-03-19T13:46:17Z</time>
      </trkpt>
      <trkpt lat="44.3133" lon="5.69643">
        <ele>684</ele>
        <time>2019-03-19T13:46:18Z</time>
      </trkpt>
      <trkpt lat="44.3133" lon="5.69636">
        <ele>684</ele>
        <time>2019-03-19T13:46:19Z</time>
      </trkpt>
      <trkpt lat="44.3133" lon="5.69628">
        <ele>684</ele>
        <time>2019-03-19T13:46:20Z</time>
      </trkpt>
      <trkpt lat="44.31331" lon="5.69621">
        <ele>684</ele>
        <time>2019-03-19T13:46:21Z</time>
      </trkpt>
      <trkpt lat="44.31331" lon="5.69614">
        <ele>684</ele>
        <time>2019-03-19T13:46:22Z</time>
      </trkpt>
      <trkpt lat="44.31331" lon="5.69607">
        <ele>684</ele>
        <time>2019-03-19T13:46:23Z</time>
      </trkpt>
      <trkpt lat="44.31332" lon="5.696">
        <ele>684</ele>
        <time>2019-03-19T13:46:24Z</time>
      </trkpt>
      <trkpt lat="44.31332" lon="5.69593">
        <ele>684</ele>
        <time>2019-03-19T13:46:25Z</time>
      </trkpt>
      <trkpt lat="44.31332" lon="5.69586">
        <ele>684</ele>
        <time>2019-03-19T13:46:26Z</time>
      </trkpt>
      <trkpt lat="44.31332" lon="5.69579">
        <ele>684</ele>
        <time>2019-03-19T13:46:27Z</time>
      </trkpt>
      <trkpt lat="44.31333" lon="5.69571">
        <ele>684</ele>
        <time>2019-03-19T13:46:28Z</time>
      </trkpt>
      <trkpt lat="44.31333" lon="5.69564">
        <ele>684</ele>
        <time>2019-03-19T13:46:29Z</time>
      </trkpt>
      <trkpt lat="44.31334" lon="5.69557">
        <ele>684</ele>
        <time>2019-03-19T13:46:30Z</time>
      </trkpt>
      <trkpt lat="44.31335" lon="5.6955">
        <ele>684</ele>
        <time>2019-03-19T13:46:31Z</time>
      </trkpt>
      <trkpt lat="44.31336" lon="5.69543">
        <ele>684</ele>
        <time>2019-03-19T13:46:32Z</time>
      </trkpt>
      <trkpt lat="44.31338" lon="5.69535">
        <ele>684</ele>
        <time>2019-03-19T13:46:33Z</time>
      </trkpt>
      <trkpt lat="44.31339" lon="5.69527">
        <ele>684</ele>
        <time>2019-03-19T13:46:34Z</time>
      </trkpt>
      <trkpt lat="44.3134" lon="5.69519">
        <ele>684</ele>
        <time>2019-03-19T13:46:35Z</time>
      </trkpt>
      <trkpt lat="44.31342" lon="5.69512">
        <ele>684</ele>
        <time>2019-03-19T13:46:36Z</time>
      </trkpt>
      <trkpt lat="44.31344" lon="5.69504">
        <ele>684</ele>
        <time>2019-03-19T13:46:37Z</time>
      </trkpt>
      <trkpt lat="44.31346" lon="5.69496">
        <ele>684</ele>
        <time>2019-03-19T13:46:38Z</time>
      </trkpt>
      <trkpt lat="44.31348" lon="5.69488">
        <ele>684</ele>
        <time>2019-03-19T13:46:39Z</time>
      </trkpt>
      <trkpt lat="44.31349" lon="5.6948">
        <ele>684</ele>
        <time>2019-03-19T13:46:40Z</time>
      </trkpt>
      <trkpt lat="44.3135" lon="5.69473">
        <ele>684</ele>
        <time>2019-03-19T13:46:41Z</time>
      </trkpt>
      <trkpt lat="44.31352" lon="5.69466">
        <ele>684</ele>
        <time>2019-03-19T13:46:42Z</time>
      </trkpt>
      <trkpt lat="44.31353" lon="5.69458">
        <ele>684</ele>
        <time>2019-03-19T13:46:43Z</time>
      </trkpt>
      <trkpt lat="44.31354" lon="5.6945">
        <ele>684</ele>
        <time>2019-03-19T13:46:44Z</time>
      </trkpt>
      <trkpt lat="44.31355" lon="5.69442">
        <ele>684</ele>
        <time>2019-03-19T13:46:45Z</time>
      </trkpt>
      <trkpt lat="44.31355" lon="5.69434">
        <ele>685</ele>
        <time>2019-03-19T13:46:46Z</time>
      </trkpt>
      <trkpt lat="44.31355" lon="5.69425">
        <ele>685</ele>
        <time>2019-03-19T13:46:47Z</time>
      </trkpt>
      <trkpt lat="44.31355" lon="5.69418">
        <ele>685</ele>
        <time>2019-03-19T13:46:48Z</time>
      </trkpt>
      <trkpt lat="44.31355" lon="5.6941">
        <ele>686</ele>
        <time>2019-03-19T13:46:49Z</time>
      </trkpt>
      <trkpt lat="44.31354" lon="5.69401">
        <ele>686</ele>
        <time>2019-03-19T13:46:50Z</time>
      </trkpt>
      <trkpt lat="44.31354" lon="5.69393">
        <ele>686</ele>
        <time>2019-03-19T13:46:51Z</time>
      </trkpt>
      <trkpt lat="44.31353" lon="5.69385">
        <ele>686</ele>
        <time>2019-03-19T13:46:52Z</time>
      </trkpt>
      <trkpt lat="44.31353" lon="5.69377">
        <ele>686</ele>
        <time>2019-03-19T13:46:53Z</time>
      </trkpt>
      <trkpt lat="44.31353" lon="5.69369">
        <ele>686</ele>
        <time>2019-03-19T13:46:54Z</time>
      </trkpt>
      <trkpt lat="44.31353" lon="5.69362">
        <ele>686</ele>
        <time>2019-03-19T13:46:55Z</time>
      </trkpt>
      <trkpt lat="44.31353" lon="5.69354">
        <ele>686</ele>
        <time>2019-03-19T13:46:56Z</time>
      </trkpt>
      <trkpt lat="44.31353" lon="5.69346">
        <ele>686</ele>
        <time>2019-03-19T13:46:57Z</time>
      </trkpt>
      <trkpt lat="44.31353" lon="5.69339">
        <ele>686</ele>
        <time>2019-03-19T13:46:58Z</time>
      </trkpt>
      <trkpt lat="44.31353" lon="5.69332">
        <ele>686</ele>
        <time>2019-03-19T13:46:59Z</time>
      </trkpt>
      <trkpt lat="44.31353" lon="5.69325">
        <ele>686</ele>
        <time>2019-03-19T13:47:00Z</time>
      </trkpt>
      <trkpt lat="44.31353" lon="5.69318">
        <ele>686</ele>
        <time>2019-03-19T13:47:01Z</time>
      </trkpt>
      <trkpt lat="44.31352" lon="5.69311">
        <ele>686</ele>
        <time>2019-03-19T13:47:02Z</time>
      </trkpt>
      <trkpt lat="44.31352" lon="5.69303">
        <ele>686</ele>
        <time>2019-03-19T13:47:03Z</time>
      </trkpt>
      <trkpt lat="44.31351" lon="5.69296">
        <ele>686</ele>
        <time>2019-03-19T13:47:04Z</time>
      </trkpt>
      <trkpt lat="44.3135" lon="5.69288">
        <ele>686</ele>
        <time>2019-03-19T13:47:05Z</time>
      </trkpt>
      <trkpt lat="44.31351" lon="5.69281">
        <ele>686</ele>
        <time>2019-03-19T13:47:06Z</time>
      </trkpt>
      <trkpt lat="44.31351" lon="5.69274">
        <ele>686</ele>
        <time>2019-03-19T13:47:07Z</time>
      </trkpt>
      <trkpt lat="44.3135" lon="5.69267">
        <ele>686</ele>
        <time>2019-03-19T13:47:08Z</time>
      </trkpt>
      <trkpt lat="44.31349" lon="5.6926">
        <ele>686</ele>
        <time>2019-03-19T13:47:09Z</time>
      </trkpt>
      <trkpt lat="44.31347" lon="5.69253">
        <ele>686</ele>
        <time>2019-03-19T13:47:10Z</time>
      </trkpt>
      <trkpt lat="44.31345" lon="5.69248">
        <ele>686</ele>
        <time>2019-03-19T13:47:11Z</time>
      </trkpt>
      <trkpt lat="44.3134" lon="5.69243">
        <ele>686</ele>
        <time>2019-03-19T13:47:12Z</time>
      </trkpt>
      <trkpt lat="44.31338" lon="5.69239">
        <ele>686</ele>
        <time>2019-03-19T13:47:13Z</time>
      </trkpt>
      <trkpt lat="44.31333" lon="5.69236">
        <ele>686</ele>
        <time>2019-03-19T13:47:14Z</time>
      </trkpt>
      <trkpt lat="44.31329" lon="5.69234">
        <ele>686</ele>
        <time>2019-03-19T13:47:15Z</time>
      </trkpt>
      <trkpt lat="44.31325" lon="5.69232">
        <ele>686</ele>
        <time>2019-03-19T13:47:16Z</time>
      </trkpt>
      <trkpt lat="44.31322" lon="5.69231">
        <ele>686</ele>
        <time>2019-03-19T13:47:17Z</time>
      </trkpt>
      <trkpt lat="44.3132" lon="5.6923">
        <ele>686</ele>
        <time>2019-03-19T13:47:18Z</time>
      </trkpt>
      <trkpt lat="44.31319" lon="5.69231">
        <ele>686</ele>
        <time>2019-03-19T13:47:19Z</time>
      </trkpt>
      <trkpt lat="44.31318" lon="5.69231">
        <ele>686</ele>
        <time>2019-03-19T13:47:21Z</time>
      </trkpt>
      <trkpt lat="44.31316" lon="5.69228">
        <ele>686</ele>
        <time>2019-03-19T13:47:23Z</time>
      </trkpt>
      <trkpt lat="44.31315" lon="5.69226">
        <ele>686</ele>
        <time>2019-03-19T13:47:24Z</time>
      </trkpt>
      <trkpt lat="44.31312" lon="5.69222">
        <ele>686</ele>
        <time>2019-03-19T13:47:25Z</time>
      </trkpt>
      <trkpt lat="44.3131" lon="5.69218">
        <ele>686</ele>
        <time>2019-03-19T13:47:26Z</time>
      </trkpt>
      <trkpt lat="44.31307" lon="5.69214">
        <ele>686</ele>
        <time>2019-03-19T13:47:27Z</time>
      </trkpt>
      <trkpt lat="44.31304" lon="5.69211">
        <ele>686</ele>
        <time>2019-03-19T13:47:28Z</time>
      </trkpt>
      <trkpt lat="44.31302" lon="5.69206">
        <ele>686</ele>
        <time>2019-03-19T13:47:29Z</time>
      </trkpt>
      <trkpt lat="44.313" lon="5.69201">
        <ele>686</ele>
        <time>2019-03-19T13:47:30Z</time>
      </trkpt>
      <trkpt lat="44.31298" lon="5.69195">
        <ele>686</ele>
        <time>2019-03-19T13:47:31Z</time>
      </trkpt>
      <trkpt lat="44.31296" lon="5.69189">
        <ele>686</ele>
        <time>2019-03-19T13:47:32Z</time>
      </trkpt>
      <trkpt lat="44.31294" lon="5.69182">
        <ele>686</ele>
        <time>2019-03-19T13:47:33Z</time>
      </trkpt>
      <trkpt lat="44.31293" lon="5.69176">
        <ele>686</ele>
        <time>2019-03-19T13:47:34Z</time>
      </trkpt>
      <trkpt lat="44.31291" lon="5.69169">
        <ele>686</ele>
        <time>2019-03-19T13:47:35Z</time>
      </trkpt>
      <trkpt lat="44.3129" lon="5.69162">
        <ele>686</ele>
        <time>2019-03-19T13:47:36Z</time>
      </trkpt>
      <trkpt lat="44.31288" lon="5.69156">
        <ele>686</ele>
        <time>2019-03-19T13:47:37Z</time>
      </trkpt>
      <trkpt lat="44.31286" lon="5.6915">
        <ele>686</ele>
        <time>2019-03-19T13:47:38Z</time>
      </trkpt>
      <trkpt lat="44.31284" lon="5.69143">
        <ele>686</ele>
        <time>2019-03-19T13:47:39Z</time>
      </trkpt>
      <trkpt lat="44.31284" lon="5.69137">
        <ele>686</ele>
        <time>2019-03-19T13:47:40Z</time>
      </trkpt>
      <trkpt lat="44.31284" lon="5.6913">
        <ele>685</ele>
        <time>2019-03-19T13:47:41Z</time>
      </trkpt>
      <trkpt lat="44.31284" lon="5.69124">
        <ele>684</ele>
        <time>2019-03-19T13:47:42Z</time>
      </trkpt>
      <trkpt lat="44.31284" lon="5.69117">
        <ele>683</ele>
        <time>2019-03-19T13:47:43Z</time>
      </trkpt>
      <trkpt lat="44.31284" lon="5.6911">
        <ele>683</ele>
        <time>2019-03-19T13:47:44Z</time>
      </trkpt>
      <trkpt lat="44.31283" lon="5.69103">
        <ele>682</ele>
        <time>2019-03-19T13:47:45Z</time>
      </trkpt>
      <trkpt lat="44.31282" lon="5.69097">
        <ele>682</ele>
        <time>2019-03-19T13:47:46Z</time>
      </trkpt>
      <trkpt lat="44.31282" lon="5.6909">
        <ele>682</ele>
        <time>2019-03-19T13:47:47Z</time>
      </trkpt>
      <trkpt lat="44.31281" lon="5.69083">
        <ele>682</ele>
        <time>2019-03-19T13:47:48Z</time>
      </trkpt>
      <trkpt lat="44.31281" lon="5.69076">
        <ele>682</ele>
        <time>2019-03-19T13:47:49Z</time>
      </trkpt>
      <trkpt lat="44.31281" lon="5.6907">
        <ele>682</ele>
        <time>2019-03-19T13:47:50Z</time>
      </trkpt>
      <trkpt lat="44.31281" lon="5.69064">
        <ele>682</ele>
        <time>2019-03-19T13:47:51Z</time>
      </trkpt>
      <trkpt lat="44.31281" lon="5.69058">
        <ele>682</ele>
        <time>2019-03-19T13:47:52Z</time>
      </trkpt>
      <trkpt lat="44.3128" lon="5.69053">
        <ele>682</ele>
        <time>2019-03-19T13:47:53Z</time>
      </trkpt>
      <trkpt lat="44.3128" lon="5.69046">
        <ele>682</ele>
        <time>2019-03-19T13:47:54Z</time>
      </trkpt>
      <trkpt lat="44.3128" lon="5.6904">
        <ele>682</ele>
        <time>2019-03-19T13:47:55Z</time>
      </trkpt>
      <trkpt lat="44.31279" lon="5.69034">
        <ele>682</ele>
        <time>2019-03-19T13:47:56Z</time>
      </trkpt>
      <trkpt lat="44.3128" lon="5.69028">
        <ele>682</ele>
        <time>2019-03-19T13:47:57Z</time>
      </trkpt>
      <trkpt lat="44.3128" lon="5.69022">
        <ele>682</ele>
        <time>2019-03-19T13:47:58Z</time>
      </trkpt>
      <trkpt lat="44.31281" lon="5.69017">
        <ele>682</ele>
        <time>2019-03-19T13:47:59Z</time>
      </trkpt>
      <trkpt lat="44.31282" lon="5.69011">
        <ele>682</ele>
        <time>2019-03-19T13:48:00Z</time>
      </trkpt>
      <trkpt lat="44.31283" lon="5.69004">
        <ele>683</ele>
        <time>2019-03-19T13:48:01Z</time>
      </trkpt>
      <trkpt lat="44.31284" lon="5.68999">
        <ele>683</ele>
        <time>2019-03-19T13:48:02Z</time>
      </trkpt>
      <trkpt lat="44.31284" lon="5.68993">
        <ele>684</ele>
        <time>2019-03-19T13:48:03Z</time>
      </trkpt>
      <trkpt lat="44.31285" lon="5.68988">
        <ele>684</ele>
        <time>2019-03-19T13:48:04Z</time>
      </trkpt>
      <trkpt lat="44.31286" lon="5.68982">
        <ele>685</ele>
        <time>2019-03-19T13:48:05Z</time>
      </trkpt>
      <trkpt lat="44.31288" lon="5.68975">
        <ele>685</ele>
        <time>2019-03-19T13:48:06Z</time>
      </trkpt>
      <trkpt lat="44.3129" lon="5.68969">
        <ele>686</ele>
        <time>2019-03-19T13:48:07Z</time>
      </trkpt>
      <trkpt lat="44.31291" lon="5.68963">
        <ele>686</ele>
        <time>2019-03-19T13:48:08Z</time>
      </trkpt>
      <trkpt lat="44.31293" lon="5.68957">
        <ele>686</ele>
        <time>2019-03-19T13:48:09Z</time>
      </trkpt>
      <trkpt lat="44.31294" lon="5.68951">
        <ele>686</ele>
        <time>2019-03-19T13:48:10Z</time>
      </trkpt>
      <trkpt lat="44.31296" lon="5.68945">
        <ele>686</ele>
        <time>2019-03-19T13:48:11Z</time>
      </trkpt>
      <trkpt lat="44.313" lon="5.68939">
        <ele>686</ele>
        <time>2019-03-19T13:48:12Z</time>
      </trkpt>
      <trkpt lat="44.31304" lon="5.68933">
        <ele>686</ele>
        <time>2019-03-19T13:48:13Z</time>
      </trkpt>
      <trkpt lat="44.31308" lon="5.68928">
        <ele>686</ele>
        <time>2019-03-19T13:48:14Z</time>
      </trkpt>
      <trkpt lat="44.31313" lon="5.68924">
        <ele>686</ele>
        <time>2019-03-19T13:48:15Z</time>
      </trkpt>
      <trkpt lat="44.31315" lon="5.68918">
        <ele>686</ele>
        <time>2019-03-19T13:48:16Z</time>
      </trkpt>
      <trkpt lat="44.31318" lon="5.68914">
        <ele>686</ele>
        <time>2019-03-19T13:48:17Z</time>
      </trkpt>
      <trkpt lat="44.31321" lon="5.68911">
        <ele>686</ele>
        <time>2019-03-19T13:48:18Z</time>
      </trkpt>
      <trkpt lat="44.31325" lon="5.68907">
        <ele>686</ele>
        <time>2019-03-19T13:48:19Z</time>
      </trkpt>
      <trkpt lat="44.31329" lon="5.68904">
        <ele>686</ele>
        <time>2019-03-19T13:48:20Z</time>
      </trkpt>
      <trkpt lat="44.31333" lon="5.689">
        <ele>685</ele>
        <time>2019-03-19T13:48:21Z</time>
      </trkpt>
      <trkpt lat="44.31339" lon="5.68898">
        <ele>684</ele>
        <time>2019-03-19T13:48:22Z</time>
      </trkpt>
      <trkpt lat="44.31344" lon="5.68895">
        <ele>684</ele>
        <time>2019-03-19T13:48:23Z</time>
      </trkpt>
      <trkpt lat="44.31349" lon="5.68893">
        <ele>684</ele>
        <time>2019-03-19T13:48:24Z</time>
      </trkpt>
      <trkpt lat="44.31354" lon="5.6889">
        <ele>684</ele>
        <time>2019-03-19T13:48:25Z</time>
      </trkpt>
      <trkpt lat="44.31359" lon="5.68888">
        <ele>684</ele>
        <time>2019-03-19T13:48:26Z</time>
      </trkpt>
      <trkpt lat="44.31364" lon="5.68885">
        <ele>684</ele>
        <time>2019-03-19T13:48:27Z</time>
      </trkpt>
      <trkpt lat="44.31369" lon="5.68883">
        <ele>684</ele>
        <time>2019-03-19T13:48:28Z</time>
      </trkpt>
      <trkpt lat="44.31373" lon="5.6888">
        <ele>684</ele>
        <time>2019-03-19T13:48:29Z</time>
      </trkpt>
      <trkpt lat="44.31378" lon="5.68877">
        <ele>684</ele>
        <time>2019-03-19T13:48:30Z</time>
      </trkpt>
      <trkpt lat="44.31383" lon="5.68875">
        <ele>684</ele>
        <time>2019-03-19T13:48:31Z</time>
      </trkpt>
      <trkpt lat="44.31388" lon="5.68872">
        <ele>684</ele>
        <time>2019-03-19T13:48:32Z</time>
      </trkpt>
      <trkpt lat="44.31393" lon="5.68869">
        <ele>684</ele>
        <time>2019-03-19T13:48:33Z</time>
      </trkpt>
      <trkpt lat="44.31397" lon="5.68866">
        <ele>684</ele>
        <time>2019-03-19T13:48:34Z</time>
      </trkpt>
      <trkpt lat="44.31402" lon="5.68863">
        <ele>684</ele>
        <time>2019-03-19T13:48:35Z</time>
      </trkpt>
      <trkpt lat="44.31406" lon="5.6886">
        <ele>684</ele>
        <time>2019-03-19T13:48:36Z</time>
      </trkpt>
      <trkpt lat="44.31411" lon="5.68856">
        <ele>684</ele>
        <time>2019-03-19T13:48:37Z</time>
      </trkpt>
      <trkpt lat="44.31415" lon="5.68852">
        <ele>684</ele>
        <time>2019-03-19T13:48:38Z</time>
      </trkpt>
      <trkpt lat="44.31419" lon="5.68849">
        <ele>684</ele>
        <time>2019-03-19T13:48:39Z</time>
      </trkpt>
      <trkpt lat="44.31424" lon="5.68846">
        <ele>684</ele>
        <time>2019-03-19T13:48:40Z</time>
      </trkpt>
      <trkpt lat="44.31428" lon="5.68843">
        <ele>685</ele>
        <time>2019-03-19T13:48:41Z</time>
      </trkpt>
      <trkpt lat="44.31433" lon="5.6884">
        <ele>685</ele>
        <time>2019-03-19T13:48:42Z</time>
      </trkpt>
      <trkpt lat="44.31437" lon="5.68837">
        <ele>685</ele>
        <time>2019-03-19T13:48:43Z</time>
      </trkpt>
      <trkpt lat="44.31441" lon="5.68834">
        <ele>685</ele>
        <time>2019-03-19T13:48:44Z</time>
      </trkpt>
      <trkpt lat="44.31445" lon="5.6883">
        <ele>685</ele>
        <time>2019-03-19T13:48:45Z</time>
      </trkpt>
      <trkpt lat="44.31449" lon="5.68826">
        <ele>685</ele>
        <time>2019-03-19T13:48:46Z</time>
      </trkpt>
      <trkpt lat="44.31452" lon="5.68822">
        <ele>685</ele>
        <time>2019-03-19T13:48:47Z</time>
      </trkpt>
      <trkpt lat="44.31456" lon="5.68817">
        <ele>685</ele>
        <time>2019-03-19T13:48:48Z</time>
      </trkpt>
      <trkpt lat="44.31459" lon="5.68812">
        <ele>685</ele>
        <time>2019-03-19T13:48:49Z</time>
      </trkpt>
      <trkpt lat="44.31461" lon="5.68807">
        <ele>685</ele>
        <time>2019-03-19T13:48:50Z</time>
      </trkpt>
      <trkpt lat="44.31462" lon="5.68802">
        <ele>685</ele>
        <time>2019-03-19T13:48:51Z</time>
      </trkpt>
      <trkpt lat="44.31464" lon="5.68797">
        <ele>685</ele>
        <time>2019-03-19T13:48:52Z</time>
      </trkpt>
      <trkpt lat="44.31465" lon="5.68792">
        <ele>686</ele>
        <time>2019-03-19T13:48:53Z</time>
      </trkpt>
      <trkpt lat="44.31467" lon="5.68786">
        <ele>686</ele>
        <time>2019-03-19T13:48:54Z</time>
      </trkpt>
      <trkpt lat="44.31468" lon="5.68781">
        <ele>686</ele>
        <time>2019-03-19T13:48:55Z</time>
      </trkpt>
      <trkpt lat="44.3147" lon="5.68776">
        <ele>687</ele>
        <time>2019-03-19T13:48:56Z</time>
      </trkpt>
      <trkpt lat="44.31472" lon="5.6877">
        <ele>687</ele>
        <time>2019-03-19T13:48:57Z</time>
      </trkpt>
      <trkpt lat="44.31473" lon="5.68764">
        <ele>687</ele>
        <time>2019-03-19T13:48:58Z</time>
      </trkpt>
      <trkpt lat="44.31474" lon="5.68759">
        <ele>687</ele>
        <time>2019-03-19T13:48:59Z</time>
      </trkpt>
      <trkpt lat="44.31476" lon="5.68753">
        <ele>687</ele>
        <time>2019-03-19T13:49:00Z</time>
      </trkpt>
      <trkpt lat="44.31477" lon="5.68747">
        <ele>687</ele>
        <time>2019-03-19T13:49:01Z</time>
      </trkpt>
      <trkpt lat="44.31479" lon="5.6874">
        <ele>687</ele>
        <time>2019-03-19T13:49:02Z</time>
      </trkpt>
      <trkpt lat="44.3148" lon="5.68734">
        <ele>687</ele>
        <time>2019-03-19T13:49:03Z</time>
      </trkpt>
      <trkpt lat="44.31481" lon="5.68728">
        <ele>687</ele>
        <time>2019-03-19T13:49:04Z</time>
      </trkpt>
      <trkpt lat="44.31482" lon="5.68721">
        <ele>687</ele>
        <time>2019-03-19T13:49:05Z</time>
      </trkpt>
      <trkpt lat="44.31483" lon="5.68715">
        <ele>687</ele>
        <time>2019-03-19T13:49:06Z</time>
      </trkpt>
      <trkpt lat="44.31484" lon="5.68708">
        <ele>687</ele>
        <time>2019-03-19T13:49:07Z</time>
      </trkpt>
      <trkpt lat="44.31484" lon="5.68702">
        <ele>687</ele>
        <time>2019-03-19T13:49:08Z</time>
      </trkpt>
      <trkpt lat="44.31485" lon="5.68695">
        <ele>687</ele>
        <time>2019-03-19T13:49:09Z</time>
      </trkpt>
      <trkpt lat="44.31485" lon="5.68688">
        <ele>687</ele>
        <time>2019-03-19T13:49:10Z</time>
      </trkpt>
      <trkpt lat="44.31485" lon="5.68682">
        <ele>687</ele>
        <time>2019-03-19T13:49:11Z</time>
      </trkpt>
      <trkpt lat="44.31487" lon="5.68674">
        <ele>687</ele>
        <time>2019-03-19T13:49:12Z</time>
      </trkpt>
      <trkpt lat="44.31488" lon="5.68668">
        <ele>687</ele>
        <time>2019-03-19T13:49:13Z</time>
      </trkpt>
      <trkpt lat="44.31488" lon="5.68661">
        <ele>687</ele>
        <time>2019-03-19T13:49:14Z</time>
      </trkpt>
      <trkpt lat="44.31488" lon="5.68654">
        <ele>687</ele>
        <time>2019-03-19T13:49:15Z</time>
      </trkpt>
      <trkpt lat="44.31487" lon="5.68648">
        <ele>687</ele>
        <time>2019-03-19T13:49:16Z</time>
      </trkpt>
      <trkpt lat="44.31488" lon="5.68642">
        <ele>687</ele>
        <time>2019-03-19T13:49:17Z</time>
      </trkpt>
      <trkpt lat="44.31488" lon="5.68634">
        <ele>687</ele>
        <time>2019-03-19T13:49:18Z</time>
      </trkpt>
      <trkpt lat="44.31487" lon="5.68627">
        <ele>687</ele>
        <time>2019-03-19T13:49:19Z</time>
      </trkpt>
      <trkpt lat="44.31487" lon="5.68619">
        <ele>687</ele>
        <time>2019-03-19T13:49:20Z</time>
      </trkpt>
      <trkpt lat="44.31488" lon="5.68612">
        <ele>687</ele>
        <time>2019-03-19T13:49:21Z</time>
      </trkpt>
      <trkpt lat="44.31488" lon="5.68605">
        <ele>687</ele>
        <time>2019-03-19T13:49:22Z</time>
      </trkpt>
      <trkpt lat="44.31488" lon="5.68598">
        <ele>687</ele>
        <time>2019-03-19T13:49:23Z</time>
      </trkpt>
      <trkpt lat="44.31488" lon="5.68591">
        <ele>688</ele>
        <time>2019-03-19T13:49:24Z</time>
      </trkpt>
      <trkpt lat="44.31488" lon="5.68584">
        <ele>688</ele>
        <time>2019-03-19T13:49:25Z</time>
      </trkpt>
      <trkpt lat="44.31488" lon="5.68577">
        <ele>688</ele>
        <time>2019-03-19T13:49:26Z</time>
      </trkpt>
      <trkpt lat="44.31489" lon="5.6857">
        <ele>688</ele>
        <time>2019-03-19T13:49:27Z</time>
      </trkpt>
      <trkpt lat="44.3149" lon="5.68563">
        <ele>688</ele>
        <time>2019-03-19T13:49:28Z</time>
      </trkpt>
      <trkpt lat="44.31491" lon="5.68556">
        <ele>688</ele>
        <time>2019-03-19T13:49:29Z</time>
      </trkpt>
      <trkpt lat="44.31491" lon="5.68549">
        <ele>688</ele>
        <time>2019-03-19T13:49:30Z</time>
      </trkpt>
      <trkpt lat="44.31491" lon="5.68541">
        <ele>688</ele>
        <time>2019-03-19T13:49:31Z</time>
      </trkpt>
      <trkpt lat="44.31492" lon="5.68534">
        <ele>689</ele>
        <time>2019-03-19T13:49:32Z</time>
      </trkpt>
      <trkpt lat="44.31492" lon="5.68527">
        <ele>689</ele>
        <time>2019-03-19T13:49:34Z</time>
      </trkpt>
      <trkpt lat="44.31493" lon="5.6852">
        <ele>689</ele>
        <time>2019-03-19T13:49:34Z</time>
      </trkpt>
      <trkpt lat="44.31493" lon="5.68513">
        <ele>689</ele>
        <time>2019-03-19T13:49:35Z</time>
      </trkpt>
      <trkpt lat="44.31493" lon="5.68505">
        <ele>690</ele>
        <time>2019-03-19T13:49:36Z</time>
      </trkpt>
      <trkpt lat="44.31492" lon="5.68498">
        <ele>690</ele>
        <time>2019-03-19T13:49:37Z</time>
      </trkpt>
      <trkpt lat="44.31491" lon="5.68491">
        <ele>690</ele>
        <time>2019-03-19T13:49:38Z</time>
      </trkpt>
      <trkpt lat="44.3149" lon="5.68483">
        <ele>690</ele>
        <time>2019-03-19T13:49:39Z</time>
      </trkpt>
      <trkpt lat="44.31488" lon="5.68476">
        <ele>690</ele>
        <time>2019-03-19T13:49:40Z</time>
      </trkpt>
      <trkpt lat="44.31487" lon="5.68469">
        <ele>691</ele>
        <time>2019-03-19T13:49:41Z</time>
      </trkpt>
      <trkpt lat="44.31484" lon="5.68463">
        <ele>691</ele>
        <time>2019-03-19T13:49:42Z</time>
      </trkpt>
      <trkpt lat="44.31481" lon="5.68456">
        <ele>691</ele>
        <time>2019-03-19T13:49:43Z</time>
      </trkpt>
      <trkpt lat="44.31479" lon="5.6845">
        <ele>691</ele>
        <time>2019-03-19T13:49:44Z</time>
      </trkpt>
      <trkpt lat="44.31476" lon="5.68444">
        <ele>691</ele>
        <time>2019-03-19T13:49:45Z</time>
      </trkpt>
      <trkpt lat="44.31473" lon="5.68438">
        <ele>691</ele>
        <time>2019-03-19T13:49:46Z</time>
      </trkpt>
      <trkpt lat="44.31472" lon="5.68432">
        <ele>691</ele>
        <time>2019-03-19T13:49:47Z</time>
      </trkpt>
      <trkpt lat="44.3147" lon="5.68426">
        <ele>691</ele>
        <time>2019-03-19T13:49:48Z</time>
      </trkpt>
      <trkpt lat="44.31468" lon="5.6842">
        <ele>691</ele>
        <time>2019-03-19T13:49:49Z</time>
      </trkpt>
      <trkpt lat="44.31467" lon="5.68415">
        <ele>691</ele>
        <time>2019-03-19T13:49:50Z</time>
      </trkpt>
      <trkpt lat="44.31466" lon="5.68409">
        <ele>691</ele>
        <time>2019-03-19T13:49:51Z</time>
      </trkpt>
      <trkpt lat="44.31465" lon="5.68403">
        <ele>691</ele>
        <time>2019-03-19T13:49:52Z</time>
      </trkpt>
      <trkpt lat="44.31464" lon="5.68398">
        <ele>691</ele>
        <time>2019-03-19T13:49:53Z</time>
      </trkpt>
      <trkpt lat="44.31463" lon="5.68392">
        <ele>691</ele>
        <time>2019-03-19T13:49:54Z</time>
      </trkpt>
      <trkpt lat="44.31462" lon="5.68386">
        <ele>691</ele>
        <time>2019-03-19T13:49:55Z</time>
      </trkpt>
      <trkpt lat="44.3146" lon="5.6838">
        <ele>691</ele>
        <time>2019-03-19T13:49:56Z</time>
      </trkpt>
      <trkpt lat="44.31459" lon="5.68374">
        <ele>691</ele>
        <time>2019-03-19T13:49:57Z</time>
      </trkpt>
      <trkpt lat="44.31457" lon="5.68367">
        <ele>691</ele>
        <time>2019-03-19T13:49:58Z</time>
      </trkpt>
      <trkpt lat="44.31456" lon="5.68361">
        <ele>691</ele>
        <time>2019-03-19T13:49:59Z</time>
      </trkpt>
      <trkpt lat="44.31453" lon="5.68355">
        <ele>691</ele>
        <time>2019-03-19T13:50:00Z</time>
      </trkpt>
      <trkpt lat="44.31451" lon="5.68348">
        <ele>691</ele>
        <time>2019-03-19T13:50:01Z</time>
      </trkpt>
      <trkpt lat="44.31449" lon="5.68341">
        <ele>691</ele>
        <time>2019-03-19T13:50:02Z</time>
      </trkpt>
      <trkpt lat="44.31446" lon="5.68334">
        <ele>691</ele>
        <time>2019-03-19T13:50:03Z</time>
      </trkpt>
      <trkpt lat="44.31442" lon="5.68328">
        <ele>691</ele>
        <time>2019-03-19T13:50:04Z</time>
      </trkpt>
      <trkpt lat="44.31438" lon="5.68321">
        <ele>691</ele>
        <time>2019-03-19T13:50:05Z</time>
      </trkpt>
      <trkpt lat="44.31435" lon="5.68314">
        <ele>691</ele>
        <time>2019-03-19T13:50:06Z</time>
      </trkpt>
      <trkpt lat="44.31432" lon="5.68307">
        <ele>691</ele>
        <time>2019-03-19T13:50:07Z</time>
      </trkpt>
      <trkpt lat="44.3143" lon="5.683">
        <ele>691</ele>
        <time>2019-03-19T13:50:08Z</time>
      </trkpt>
      <trkpt lat="44.31428" lon="5.68294">
        <ele>691</ele>
        <time>2019-03-19T13:50:09Z</time>
      </trkpt>
      <trkpt lat="44.31425" lon="5.68286">
        <ele>691</ele>
        <time>2019-03-19T13:50:10Z</time>
      </trkpt>
      <trkpt lat="44.31423" lon="5.68279">
        <ele>691</ele>
        <time>2019-03-19T13:50:11Z</time>
      </trkpt>
      <trkpt lat="44.31421" lon="5.68271">
        <ele>691</ele>
        <time>2019-03-19T13:50:12Z</time>
      </trkpt>
      <trkpt lat="44.31419" lon="5.68264">
        <ele>691</ele>
        <time>2019-03-19T13:50:13Z</time>
      </trkpt>
      <trkpt lat="44.31417" lon="5.68257">
        <ele>691</ele>
        <time>2019-03-19T13:50:14Z</time>
      </trkpt>
      <trkpt lat="44.31414" lon="5.68249">
        <ele>691</ele>
        <time>2019-03-19T13:50:15Z</time>
      </trkpt>
      <trkpt lat="44.31412" lon="5.68242">
        <ele>691</ele>
        <time>2019-03-19T13:50:16Z</time>
      </trkpt>
      <trkpt lat="44.31411" lon="5.68235">
        <ele>691</ele>
        <time>2019-03-19T13:50:17Z</time>
      </trkpt>
      <trkpt lat="44.31408" lon="5.68227">
        <ele>691</ele>
        <time>2019-03-19T13:50:18Z</time>
      </trkpt>
      <trkpt lat="44.31406" lon="5.6822">
        <ele>691</ele>
        <time>2019-03-19T13:50:19Z</time>
      </trkpt>
      <trkpt lat="44.31405" lon="5.68213">
        <ele>691</ele>
        <time>2019-03-19T13:50:20Z</time>
      </trkpt>
      <trkpt lat="44.31404" lon="5.68206">
        <ele>691</ele>
        <time>2019-03-19T13:50:21Z</time>
      </trkpt>
      <trkpt lat="44.31404" lon="5.68199">
        <ele>692</ele>
        <time>2019-03-19T13:50:22Z</time>
      </trkpt>
      <trkpt lat="44.31404" lon="5.68192">
        <ele>692</ele>
        <time>2019-03-19T13:50:23Z</time>
      </trkpt>
      <trkpt lat="44.31404" lon="5.68186">
        <ele>692</ele>
        <time>2019-03-19T13:50:24Z</time>
      </trkpt>
      <trkpt lat="44.31404" lon="5.68179">
        <ele>692</ele>
        <time>2019-03-19T13:50:25Z</time>
      </trkpt>
      <trkpt lat="44.31404" lon="5.68173">
        <ele>692</ele>
        <time>2019-03-19T13:50:26Z</time>
      </trkpt>
      <trkpt lat="44.31405" lon="5.68166">
        <ele>692</ele>
        <time>2019-03-19T13:50:27Z</time>
      </trkpt>
      <trkpt lat="44.31405" lon="5.68159">
        <ele>692</ele>
        <time>2019-03-19T13:50:28Z</time>
      </trkpt>
      <trkpt lat="44.31406" lon="5.68153">
        <ele>692</ele>
        <time>2019-03-19T13:50:29Z</time>
      </trkpt>
      <trkpt lat="44.31406" lon="5.68147">
        <ele>692</ele>
        <time>2019-03-19T13:50:30Z</time>
      </trkpt>
      <trkpt lat="44.31407" lon="5.6814">
        <ele>692</ele>
        <time>2019-03-19T13:50:31Z</time>
      </trkpt>
      <trkpt lat="44.31407" lon="5.68134">
        <ele>692</ele>
        <time>2019-03-19T13:50:32Z</time>
      </trkpt>
      <trkpt lat="44.31408" lon="5.68127">
        <ele>692</ele>
        <time>2019-03-19T13:50:33Z</time>
      </trkpt>
      <trkpt lat="44.31408" lon="5.68121">
        <ele>692</ele>
        <time>2019-03-19T13:50:34Z</time>
      </trkpt>
      <trkpt lat="44.31409" lon="5.68114">
        <ele>692</ele>
        <time>2019-03-19T13:50:35Z</time>
      </trkpt>
      <trkpt lat="44.31409" lon="5.68107">
        <ele>692</ele>
        <time>2019-03-19T13:50:36Z</time>
      </trkpt>
      <trkpt lat="44.3141" lon="5.68099">
        <ele>692</ele>
        <time>2019-03-19T13:50:37Z</time>
      </trkpt>
      <trkpt lat="44.3141" lon="5.68091">
        <ele>692</ele>
        <time>2019-03-19T13:50:38Z</time>
      </trkpt>
      <trkpt lat="44.3141" lon="5.68083">
        <ele>692</ele>
        <time>2019-03-19T13:50:39Z</time>
      </trkpt>
      <trkpt lat="44.31411" lon="5.68075">
        <ele>692</ele>
        <time>2019-03-19T13:50:40Z</time>
      </trkpt>
      <trkpt lat="44.31411" lon="5.68066">
        <ele>692</ele>
        <time>2019-03-19T13:50:41Z</time>
      </trkpt>
      <trkpt lat="44.31411" lon="5.68057">
        <ele>692</ele>
        <time>2019-03-19T13:50:42Z</time>
      </trkpt>
      <trkpt lat="44.31412" lon="5.68048">
        <ele>692</ele>
        <time>2019-03-19T13:50:43Z</time>
      </trkpt>
      <trkpt lat="44.31412" lon="5.6804">
        <ele>692</ele>
        <time>2019-03-19T13:50:44Z</time>
      </trkpt>
      <trkpt lat="44.31412" lon="5.68031">
        <ele>692</ele>
        <time>2019-03-19T13:50:45Z</time>
      </trkpt>
      <trkpt lat="44.31412" lon="5.68022">
        <ele>692</ele>
        <time>2019-03-19T13:50:46Z</time>
      </trkpt>
      <trkpt lat="44.31412" lon="5.68013">
        <ele>692</ele>
        <time>2019-03-19T13:50:47Z</time>
      </trkpt>
      <trkpt lat="44.31413" lon="5.68005">
        <ele>692</ele>
        <time>2019-03-19T13:50:48Z</time>
      </trkpt>
      <trkpt lat="44.31413" lon="5.67996">
        <ele>692</ele>
        <time>2019-03-19T13:50:49Z</time>
      </trkpt>
      <trkpt lat="44.31413" lon="5.67988">
        <ele>692</ele>
        <time>2019-03-19T13:50:50Z</time>
      </trkpt>
      <trkpt lat="44.31412" lon="5.67979">
        <ele>692</ele>
        <time>2019-03-19T13:50:51Z</time>
      </trkpt>
      <trkpt lat="44.31412" lon="5.67971">
        <ele>692</ele>
        <time>2019-03-19T13:50:52Z</time>
      </trkpt>
      <trkpt lat="44.31412" lon="5.67962">
        <ele>692</ele>
        <time>2019-03-19T13:50:53Z</time>
      </trkpt>
      <trkpt lat="44.31412" lon="5.67954">
        <ele>692</ele>
        <time>2019-03-19T13:50:54Z</time>
      </trkpt>
      <trkpt lat="44.31412" lon="5.67945">
        <ele>692</ele>
        <time>2019-03-19T13:50:55Z</time>
      </trkpt>
      <trkpt lat="44.31412" lon="5.67937">
        <ele>692</ele>
        <time>2019-03-19T13:50:56Z</time>
      </trkpt>
      <trkpt lat="44.31412" lon="5.67929">
        <ele>692</ele>
        <time>2019-03-19T13:50:57Z</time>
      </trkpt>
      <trkpt lat="44.31412" lon="5.67921">
        <ele>692</ele>
        <time>2019-03-19T13:50:58Z</time>
      </trkpt>
      <trkpt lat="44.31413" lon="5.67913">
        <ele>692</ele>
        <time>2019-03-19T13:50:59Z</time>
      </trkpt>
      <trkpt lat="44.31413" lon="5.67905">
        <ele>692</ele>
        <time>2019-03-19T13:51:00Z</time>
      </trkpt>
      <trkpt lat="44.31413" lon="5.67896">
        <ele>692</ele>
        <time>2019-03-19T13:51:01Z</time>
      </trkpt>
      <trkpt lat="44.31412" lon="5.67888">
        <ele>692</ele>
        <time>2019-03-19T13:51:02Z</time>
      </trkpt>
      <trkpt lat="44.31412" lon="5.6788">
        <ele>692</ele>
        <time>2019-03-19T13:51:03Z</time>
      </trkpt>
      <trkpt lat="44.31412" lon="5.67872">
        <ele>692</ele>
        <time>2019-03-19T13:51:04Z</time>
      </trkpt>
      <trkpt lat="44.31412" lon="5.67864">
        <ele>692</ele>
        <time>2019-03-19T13:51:05Z</time>
      </trkpt>
      <trkpt lat="44.31411" lon="5.67856">
        <ele>692</ele>
        <time>2019-03-19T13:51:06Z</time>
      </trkpt>
      <trkpt lat="44.31411" lon="5.67847">
        <ele>692</ele>
        <time>2019-03-19T13:51:07Z</time>
      </trkpt>
      <trkpt lat="44.31411" lon="5.67839">
        <ele>692</ele>
        <time>2019-03-19T13:51:08Z</time>
      </trkpt>
      <trkpt lat="44.31411" lon="5.67831">
        <ele>692</ele>
        <time>2019-03-19T13:51:09Z</time>
      </trkpt>
      <trkpt lat="44.3141" lon="5.67823">
        <ele>692</ele>
        <time>2019-03-19T13:51:10Z</time>
      </trkpt>
      <trkpt lat="44.31409" lon="5.67815">
        <ele>692</ele>
        <time>2019-03-19T13:51:11Z</time>
      </trkpt>
      <trkpt lat="44.31409" lon="5.67807">
        <ele>692</ele>
        <time>2019-03-19T13:51:12Z</time>
      </trkpt>
      <trkpt lat="44.31408" lon="5.678">
        <ele>692</ele>
        <time>2019-03-19T13:51:13Z</time>
      </trkpt>
      <trkpt lat="44.31408" lon="5.67793">
        <ele>692</ele>
        <time>2019-03-19T13:51:14Z</time>
      </trkpt>
      <trkpt lat="44.31407" lon="5.67786">
        <ele>692</ele>
        <time>2019-03-19T13:51:15Z</time>
      </trkpt>
      <trkpt lat="44.31407" lon="5.67779">
        <ele>692</ele>
        <time>2019-03-19T13:51:16Z</time>
      </trkpt>
      <trkpt lat="44.31406" lon="5.67771">
        <ele>693</ele>
        <time>2019-03-19T13:51:17Z</time>
      </trkpt>
      <trkpt lat="44.31406" lon="5.67765">
        <ele>693</ele>
        <time>2019-03-19T13:51:18Z</time>
      </trkpt>
      <trkpt lat="44.31405" lon="5.67758">
        <ele>693</ele>
        <time>2019-03-19T13:51:19Z</time>
      </trkpt>
      <trkpt lat="44.31405" lon="5.67751">
        <ele>693</ele>
        <time>2019-03-19T13:51:20Z</time>
      </trkpt>
      <trkpt lat="44.31404" lon="5.67743">
        <ele>693</ele>
        <time>2019-03-19T13:51:21Z</time>
      </trkpt>
      <trkpt lat="44.31403" lon="5.67736">
        <ele>694</ele>
        <time>2019-03-19T13:51:22Z</time>
      </trkpt>
      <trkpt lat="44.31403" lon="5.67729">
        <ele>694</ele>
        <time>2019-03-19T13:51:23Z</time>
      </trkpt>
      <trkpt lat="44.31402" lon="5.67722">
        <ele>694</ele>
        <time>2019-03-19T13:51:24Z</time>
      </trkpt>
      <trkpt lat="44.31401" lon="5.67715">
        <ele>694</ele>
        <time>2019-03-19T13:51:25Z</time>
      </trkpt>
      <trkpt lat="44.31401" lon="5.67707">
        <ele>694</ele>
        <time>2019-03-19T13:51:26Z</time>
      </trkpt>
      <trkpt lat="44.314" lon="5.67699">
        <ele>694</ele>
        <time>2019-03-19T13:51:27Z</time>
      </trkpt>
      <trkpt lat="44.314" lon="5.67691">
        <ele>694</ele>
        <time>2019-03-19T13:51:28Z</time>
      </trkpt>
      <trkpt lat="44.31399" lon="5.67683">
        <ele>694</ele>
        <time>2019-03-19T13:51:29Z</time>
      </trkpt>
      <trkpt lat="44.31398" lon="5.67675">
        <ele>694</ele>
        <time>2019-03-19T13:51:30Z</time>
      </trkpt>
      <trkpt lat="44.31397" lon="5.67666">
        <ele>694</ele>
        <time>2019-03-19T13:51:31Z</time>
      </trkpt>
      <trkpt lat="44.31397" lon="5.67658">
        <ele>694</ele>
        <time>2019-03-19T13:51:32Z</time>
      </trkpt>
      <trkpt lat="44.31396" lon="5.6765">
        <ele>694</ele>
        <time>2019-03-19T13:51:33Z</time>
      </trkpt>
      <trkpt lat="44.31395" lon="5.67641">
        <ele>694</ele>
        <time>2019-03-19T13:51:34Z</time>
      </trkpt>
      <trkpt lat="44.31395" lon="5.67633">
        <ele>694</ele>
        <time>2019-03-19T13:51:35Z</time>
      </trkpt>
      <trkpt lat="44.31394" lon="5.67625">
        <ele>694</ele>
        <time>2019-03-19T13:51:36Z</time>
      </trkpt>
      <trkpt lat="44.31393" lon="5.67616">
        <ele>694</ele>
        <time>2019-03-19T13:51:37Z</time>
      </trkpt>
      <trkpt lat="44.31392" lon="5.67608">
        <ele>694</ele>
        <time>2019-03-19T13:51:38Z</time>
      </trkpt>
      <trkpt lat="44.31391" lon="5.676">
        <ele>694</ele>
        <time>2019-03-19T13:51:39Z</time>
      </trkpt>
      <trkpt lat="44.3139" lon="5.67592">
        <ele>694</ele>
        <time>2019-03-19T13:51:40Z</time>
      </trkpt>
      <trkpt lat="44.31389" lon="5.67584">
        <ele>694</ele>
        <time>2019-03-19T13:51:41Z</time>
      </trkpt>
      <trkpt lat="44.31388" lon="5.67575">
        <ele>694</ele>
        <time>2019-03-19T13:51:42Z</time>
      </trkpt>
      <trkpt lat="44.31386" lon="5.67567">
        <ele>694</ele>
        <time>2019-03-19T13:51:43Z</time>
      </trkpt>
      <trkpt lat="44.31385" lon="5.67559">
        <ele>694</ele>
        <time>2019-03-19T13:51:44Z</time>
      </trkpt>
      <trkpt lat="44.31383" lon="5.67551">
        <ele>694</ele>
        <time>2019-03-19T13:51:45Z</time>
      </trkpt>
      <trkpt lat="44.31382" lon="5.67543">
        <ele>694</ele>
        <time>2019-03-19T13:51:46Z</time>
      </trkpt>
      <trkpt lat="44.3138" lon="5.67536">
        <ele>694</ele>
        <time>2019-03-19T13:51:47Z</time>
      </trkpt>
      <trkpt lat="44.31378" lon="5.67529">
        <ele>694</ele>
        <time>2019-03-19T13:51:48Z</time>
      </trkpt>
      <trkpt lat="44.31377" lon="5.67522">
        <ele>695</ele>
        <time>2019-03-19T13:51:49Z</time>
      </trkpt>
      <trkpt lat="44.31374" lon="5.67515">
        <ele>695</ele>
        <time>2019-03-19T13:51:50Z</time>
      </trkpt>
      <trkpt lat="44.31372" lon="5.67508">
        <ele>695</ele>
        <time>2019-03-19T13:51:51Z</time>
      </trkpt>
      <trkpt lat="44.3137" lon="5.67502">
        <ele>695</ele>
        <time>2019-03-19T13:51:52Z</time>
      </trkpt>
      <trkpt lat="44.31367" lon="5.67496">
        <ele>695</ele>
        <time>2019-03-19T13:51:53Z</time>
      </trkpt>
      <trkpt lat="44.31364" lon="5.67489">
        <ele>696</ele>
        <time>2019-03-19T13:51:54Z</time>
      </trkpt>
      <trkpt lat="44.31362" lon="5.67484">
        <ele>696</ele>
        <time>2019-03-19T13:51:55Z</time>
      </trkpt>
      <trkpt lat="44.31359" lon="5.67478">
        <ele>696</ele>
        <time>2019-03-19T13:51:56Z</time>
      </trkpt>
      <trkpt lat="44.31356" lon="5.67473">
        <ele>696</ele>
        <time>2019-03-19T13:51:57Z</time>
      </trkpt>
      <trkpt lat="44.31353" lon="5.67468">
        <ele>697</ele>
        <time>2019-03-19T13:51:58Z</time>
      </trkpt>
      <trkpt lat="44.3135" lon="5.67463">
        <ele>697</ele>
        <time>2019-03-19T13:51:59Z</time>
      </trkpt>
      <trkpt lat="44.31348" lon="5.67458">
        <ele>697</ele>
        <time>2019-03-19T13:52:00Z</time>
      </trkpt>
      <trkpt lat="44.31345" lon="5.67453">
        <ele>697</ele>
        <time>2019-03-19T13:52:01Z</time>
      </trkpt>
      <trkpt lat="44.31343" lon="5.67448">
        <ele>697</ele>
        <time>2019-03-19T13:52:02Z</time>
      </trkpt>
      <trkpt lat="44.3134" lon="5.67443">
        <ele>697</ele>
        <time>2019-03-19T13:52:03Z</time>
      </trkpt>
      <trkpt lat="44.31338" lon="5.67438">
        <ele>697</ele>
        <time>2019-03-19T13:52:04Z</time>
      </trkpt>
      <trkpt lat="44.31336" lon="5.67432">
        <ele>697</ele>
        <time>2019-03-19T13:52:05Z</time>
      </trkpt>
      <trkpt lat="44.31334" lon="5.67426">
        <ele>697</ele>
        <time>2019-03-19T13:52:06Z</time>
      </trkpt>
      <trkpt lat="44.31331" lon="5.6742">
        <ele>697</ele>
        <time>2019-03-19T13:52:07Z</time>
      </trkpt>
      <trkpt lat="44.31328" lon="5.67415">
        <ele>697</ele>
        <time>2019-03-19T13:52:08Z</time>
      </trkpt>
      <trkpt lat="44.31326" lon="5.67409">
        <ele>697</ele>
        <time>2019-03-19T13:52:09Z</time>
      </trkpt>
      <trkpt lat="44.31324" lon="5.67403">
        <ele>697</ele>
        <time>2019-03-19T13:52:10Z</time>
      </trkpt>
      <trkpt lat="44.31321" lon="5.67398">
        <ele>697</ele>
        <time>2019-03-19T13:52:11Z</time>
      </trkpt>
      <trkpt lat="44.31318" lon="5.67392">
        <ele>697</ele>
        <time>2019-03-19T13:52:12Z</time>
      </trkpt>
      <trkpt lat="44.31315" lon="5.67386">
        <ele>697</ele>
        <time>2019-03-19T13:52:13Z</time>
      </trkpt>
      <trkpt lat="44.31311" lon="5.6738">
        <ele>697</ele>
        <time>2019-03-19T13:52:14Z</time>
      </trkpt>
      <trkpt lat="44.31308" lon="5.67374">
        <ele>697</ele>
        <time>2019-03-19T13:52:15Z</time>
      </trkpt>
      <trkpt lat="44.31304" lon="5.67367">
        <ele>697</ele>
        <time>2019-03-19T13:52:16Z</time>
      </trkpt>
      <trkpt lat="44.31301" lon="5.67361">
        <ele>697</ele>
        <time>2019-03-19T13:52:17Z</time>
      </trkpt>
      <trkpt lat="44.31297" lon="5.67355">
        <ele>697</ele>
        <time>2019-03-19T13:52:18Z</time>
      </trkpt>
      <trkpt lat="44.31293" lon="5.67349">
        <ele>697</ele>
        <time>2019-03-19T13:52:19Z</time>
      </trkpt>
      <trkpt lat="44.31289" lon="5.67343">
        <ele>697</ele>
        <time>2019-03-19T13:52:20Z</time>
      </trkpt>
      <trkpt lat="44.31285" lon="5.67337">
        <ele>697</ele>
        <time>2019-03-19T13:52:21Z</time>
      </trkpt>
      <trkpt lat="44.31281" lon="5.67331">
        <ele>697</ele>
        <time>2019-03-19T13:52:22Z</time>
      </trkpt>
      <trkpt lat="44.31277" lon="5.67325">
        <ele>697</ele>
        <time>2019-03-19T13:52:23Z</time>
      </trkpt>
      <trkpt lat="44.31273" lon="5.67319">
        <ele>697</ele>
        <time>2019-03-19T13:52:24Z</time>
      </trkpt>
      <trkpt lat="44.31268" lon="5.67313">
        <ele>697</ele>
        <time>2019-03-19T13:52:25Z</time>
      </trkpt>
      <trkpt lat="44.31264" lon="5.67308">
        <ele>697</ele>
        <time>2019-03-19T13:52:26Z</time>
      </trkpt>
      <trkpt lat="44.3126" lon="5.67302">
        <ele>697</ele>
        <time>2019-03-19T13:52:27Z</time>
      </trkpt>
      <trkpt lat="44.31256" lon="5.67296">
        <ele>697</ele>
        <time>2019-03-19T13:52:28Z</time>
      </trkpt>
      <trkpt lat="44.31252" lon="5.6729">
        <ele>697</ele>
        <time>2019-03-19T13:52:29Z</time>
      </trkpt>
      <trkpt lat="44.31247" lon="5.67285">
        <ele>698</ele>
        <time>2019-03-19T13:52:30Z</time>
      </trkpt>
      <trkpt lat="44.31243" lon="5.67279">
        <ele>698</ele>
        <time>2019-03-19T13:52:31Z</time>
      </trkpt>
      <trkpt lat="44.31239" lon="5.67274">
        <ele>698</ele>
        <time>2019-03-19T13:52:32Z</time>
      </trkpt>
      <trkpt lat="44.31235" lon="5.67269">
        <ele>698</ele>
        <time>2019-03-19T13:52:33Z</time>
      </trkpt>
      <trkpt lat="44.31231" lon="5.67264">
        <ele>698</ele>
        <time>2019-03-19T13:52:34Z</time>
      </trkpt>
      <trkpt lat="44.31227" lon="5.67258">
        <ele>698</ele>
        <time>2019-03-19T13:52:35Z</time>
      </trkpt>
      <trkpt lat="44.31223" lon="5.67253">
        <ele>698</ele>
        <time>2019-03-19T13:52:36Z</time>
      </trkpt>
      <trkpt lat="44.31219" lon="5.67248">
        <ele>699</ele>
        <time>2019-03-19T13:52:37Z</time>
      </trkpt>
      <trkpt lat="44.31215" lon="5.67243">
        <ele>699</ele>
        <time>2019-03-19T13:52:38Z</time>
      </trkpt>
      <trkpt lat="44.3121" lon="5.67239">
        <ele>699</ele>
        <time>2019-03-19T13:52:39Z</time>
      </trkpt>
      <trkpt lat="44.31206" lon="5.67234">
        <ele>699</ele>
        <time>2019-03-19T13:52:40Z</time>
      </trkpt>
      <trkpt lat="44.31202" lon="5.6723">
        <ele>700</ele>
        <time>2019-03-19T13:52:41Z</time>
      </trkpt>
      <trkpt lat="44.31197" lon="5.67225">
        <ele>700</ele>
        <time>2019-03-19T13:52:42Z</time>
      </trkpt>
      <trkpt lat="44.31193" lon="5.67221">
        <ele>700</ele>
        <time>2019-03-19T13:52:43Z</time>
      </trkpt>
      <trkpt lat="44.31189" lon="5.67217">
        <ele>700</ele>
        <time>2019-03-19T13:52:44Z</time>
      </trkpt>
      <trkpt lat="44.31185" lon="5.67213">
        <ele>701</ele>
        <time>2019-03-19T13:52:45Z</time>
      </trkpt>
      <trkpt lat="44.3118" lon="5.67209">
        <ele>701</ele>
        <time>2019-03-19T13:52:46Z</time>
      </trkpt>
      <trkpt lat="44.31176" lon="5.67206">
        <ele>701</ele>
        <time>2019-03-19T13:52:47Z</time>
      </trkpt>
      <trkpt lat="44.31172" lon="5.67202">
        <ele>701</ele>
        <time>2019-03-19T13:52:48Z</time>
      </trkpt>
      <trkpt lat="44.31167" lon="5.67198">
        <ele>701</ele>
        <time>2019-03-19T13:52:49Z</time>
      </trkpt>
      <trkpt lat="44.31163" lon="5.67195">
        <ele>701</ele>
        <time>2019-03-19T13:52:50Z</time>
      </trkpt>
      <trkpt lat="44.31158" lon="5.67191">
        <ele>702</ele>
        <time>2019-03-19T13:52:51Z</time>
      </trkpt>
      <trkpt lat="44.31153" lon="5.67188">
        <ele>702</ele>
        <time>2019-03-19T13:52:52Z</time>
      </trkpt>
      <trkpt lat="44.31149" lon="5.67184">
        <ele>702</ele>
        <time>2019-03-19T13:52:53Z</time>
      </trkpt>
      <trkpt lat="44.31144" lon="5.6718">
        <ele>702</ele>
        <time>2019-03-19T13:52:54Z</time>
      </trkpt>
      <trkpt lat="44.31139" lon="5.67177">
        <ele>702</ele>
        <time>2019-03-19T13:52:55Z</time>
      </trkpt>
      <trkpt lat="44.31134" lon="5.67174">
        <ele>702</ele>
        <time>2019-03-19T13:52:56Z</time>
      </trkpt>
      <trkpt lat="44.31128" lon="5.67171">
        <ele>702</ele>
        <time>2019-03-19T13:52:57Z</time>
      </trkpt>
      <trkpt lat="44.31123" lon="5.67168">
        <ele>702</ele>
        <time>2019-03-19T13:52:58Z</time>
      </trkpt>
      <trkpt lat="44.31118" lon="5.67165">
        <ele>702</ele>
        <time>2019-03-19T13:52:59Z</time>
      </trkpt>
      <trkpt lat="44.31112" lon="5.67162">
        <ele>702</ele>
        <time>2019-03-19T13:53:00Z</time>
      </trkpt>
      <trkpt lat="44.31107" lon="5.67159">
        <ele>702</ele>
        <time>2019-03-19T13:53:01Z</time>
      </trkpt>
      <trkpt lat="44.31102" lon="5.67156">
        <ele>702</ele>
        <time>2019-03-19T13:53:02Z</time>
      </trkpt>
      <trkpt lat="44.31097" lon="5.67153">
        <ele>702</ele>
        <time>2019-03-19T13:53:03Z</time>
      </trkpt>
      <trkpt lat="44.31092" lon="5.67149">
        <ele>703</ele>
        <time>2019-03-19T13:53:04Z</time>
      </trkpt>
      <trkpt lat="44.31087" lon="5.67146">
        <ele>703</ele>
        <time>2019-03-19T13:53:05Z</time>
      </trkpt>
      <trkpt lat="44.31082" lon="5.67142">
        <ele>703</ele>
        <time>2019-03-19T13:53:06Z</time>
      </trkpt>
      <trkpt lat="44.31077" lon="5.67138">
        <ele>703</ele>
        <time>2019-03-19T13:53:07Z</time>
      </trkpt>
      <trkpt lat="44.31072" lon="5.67134">
        <ele>703</ele>
        <time>2019-03-19T13:53:08Z</time>
      </trkpt>
      <trkpt lat="44.31067" lon="5.6713">
        <ele>703</ele>
        <time>2019-03-19T13:53:09Z</time>
      </trkpt>
      <trkpt lat="44.31062" lon="5.67126">
        <ele>703</ele>
        <time>2019-03-19T13:53:10Z</time>
      </trkpt>
      <trkpt lat="44.31057" lon="5.67122">
        <ele>703</ele>
        <time>2019-03-19T13:53:11Z</time>
      </trkpt>
      <trkpt lat="44.31052" lon="5.67118">
        <ele>703</ele>
        <time>2019-03-19T13:53:12Z</time>
      </trkpt>
      <trkpt lat="44.31048" lon="5.67113">
        <ele>703</ele>
        <time>2019-03-19T13:53:13Z</time>
      </trkpt>
      <trkpt lat="44.31043" lon="5.67108">
        <ele>703</ele>
        <time>2019-03-19T13:53:14Z</time>
      </trkpt>
      <trkpt lat="44.31038" lon="5.67104">
        <ele>703</ele>
        <time>2019-03-19T13:53:15Z</time>
      </trkpt>
      <trkpt lat="44.31033" lon="5.67099">
        <ele>703</ele>
        <time>2019-03-19T13:53:16Z</time>
      </trkpt>
      <trkpt lat="44.31029" lon="5.67094">
        <ele>703</ele>
        <time>2019-03-19T13:53:17Z</time>
      </trkpt>
      <trkpt lat="44.31024" lon="5.67089">
        <ele>703</ele>
        <time>2019-03-19T13:53:18Z</time>
      </trkpt>
      <trkpt lat="44.31019" lon="5.67084">
        <ele>703</ele>
        <time>2019-03-19T13:53:19Z</time>
      </trkpt>
      <trkpt lat="44.31015" lon="5.67079">
        <ele>703</ele>
        <time>2019-03-19T13:53:20Z</time>
      </trkpt>
      <trkpt lat="44.3101" lon="5.67073">
        <ele>703</ele>
        <time>2019-03-19T13:53:21Z</time>
      </trkpt>
      <trkpt lat="44.31005" lon="5.67068">
        <ele>703</ele>
        <time>2019-03-19T13:53:22Z</time>
      </trkpt>
      <trkpt lat="44.31001" lon="5.67062">
        <ele>704</ele>
        <time>2019-03-19T13:53:23Z</time>
      </trkpt>
      <trkpt lat="44.30997" lon="5.67057">
        <ele>704</ele>
        <time>2019-03-19T13:53:24Z</time>
      </trkpt>
      <trkpt lat="44.30993" lon="5.67051">
        <ele>704</ele>
        <time>2019-03-19T13:53:25Z</time>
      </trkpt>
      <trkpt lat="44.30989" lon="5.67045">
        <ele>704</ele>
        <time>2019-03-19T13:53:26Z</time>
      </trkpt>
      <trkpt lat="44.30985" lon="5.6704">
        <ele>704</ele>
        <time>2019-03-19T13:53:27Z</time>
      </trkpt>
      <trkpt lat="44.30981" lon="5.67034">
        <ele>704</ele>
        <time>2019-03-19T13:53:28Z</time>
      </trkpt>
      <trkpt lat="44.30978" lon="5.67028">
        <ele>704</ele>
        <time>2019-03-19T13:53:29Z</time>
      </trkpt>
      <trkpt lat="44.30974" lon="5.67023">
        <ele>704</ele>
        <time>2019-03-19T13:53:30Z</time>
      </trkpt>
      <trkpt lat="44.3097" lon="5.67017">
        <ele>704</ele>
        <time>2019-03-19T13:53:31Z</time>
      </trkpt>
      <trkpt lat="44.30967" lon="5.67011">
        <ele>704</ele>
        <time>2019-03-19T13:53:32Z</time>
      </trkpt>
      <trkpt lat="44.30964" lon="5.67005">
        <ele>704</ele>
        <time>2019-03-19T13:53:33Z</time>
      </trkpt>
      <trkpt lat="44.30961" lon="5.66999">
        <ele>704</ele>
        <time>2019-03-19T13:53:34Z</time>
      </trkpt>
      <trkpt lat="44.30958" lon="5.66994">
        <ele>704</ele>
        <time>2019-03-19T13:53:35Z</time>
      </trkpt>
      <trkpt lat="44.30955" lon="5.66988">
        <ele>704</ele>
        <time>2019-03-19T13:53:36Z</time>
      </trkpt>
      <trkpt lat="44.30952" lon="5.66982">
        <ele>704</ele>
        <time>2019-03-19T13:53:37Z</time>
      </trkpt>
      <trkpt lat="44.3095" lon="5.66976">
        <ele>704</ele>
        <time>2019-03-19T13:53:38Z</time>
      </trkpt>
      <trkpt lat="44.30947" lon="5.6697">
        <ele>704</ele>
        <time>2019-03-19T13:53:39Z</time>
      </trkpt>
      <trkpt lat="44.30944" lon="5.66964">
        <ele>704</ele>
        <time>2019-03-19T13:53:40Z</time>
      </trkpt>
      <trkpt lat="44.30941" lon="5.66959">
        <ele>705</ele>
        <time>2019-03-19T13:53:41Z</time>
      </trkpt>
      <trkpt lat="44.30938" lon="5.66954">
        <ele>705</ele>
        <time>2019-03-19T13:53:42Z</time>
      </trkpt>
      <trkpt lat="44.30935" lon="5.66948">
        <ele>705</ele>
        <time>2019-03-19T13:53:43Z</time>
      </trkpt>
      <trkpt lat="44.30932" lon="5.66943">
        <ele>705</ele>
        <time>2019-03-19T13:53:44Z</time>
      </trkpt>
      <trkpt lat="44.30929" lon="5.66937">
        <ele>705</ele>
        <time>2019-03-19T13:53:45Z</time>
      </trkpt>
      <trkpt lat="44.30926" lon="5.66932">
        <ele>705</ele>
        <time>2019-03-19T13:53:46Z</time>
      </trkpt>
      <trkpt lat="44.30923" lon="5.66927">
        <ele>705</ele>
        <time>2019-03-19T13:53:47Z</time>
      </trkpt>
      <trkpt lat="44.3092" lon="5.66922">
        <ele>705</ele>
        <time>2019-03-19T13:53:48Z</time>
      </trkpt>
      <trkpt lat="44.30917" lon="5.66917">
        <ele>705</ele>
        <time>2019-03-19T13:53:49Z</time>
      </trkpt>
      <trkpt lat="44.30913" lon="5.66912">
        <ele>705</ele>
        <time>2019-03-19T13:53:50Z</time>
      </trkpt>
      <trkpt lat="44.3091" lon="5.66907">
        <ele>705</ele>
        <time>2019-03-19T13:53:51Z</time>
      </trkpt>
      <trkpt lat="44.30907" lon="5.66902">
        <ele>705</ele>
        <time>2019-03-19T13:53:52Z</time>
      </trkpt>
      <trkpt lat="44.30904" lon="5.66897">
        <ele>705</ele>
        <time>2019-03-19T13:53:53Z</time>
      </trkpt>
      <trkpt lat="44.30901" lon="5.66891">
        <ele>706</ele>
        <time>2019-03-19T13:53:54Z</time>
      </trkpt>
      <trkpt lat="44.30898" lon="5.66887">
        <ele>706</ele>
        <time>2019-03-19T13:53:55Z</time>
      </trkpt>
      <trkpt lat="44.30894" lon="5.66882">
        <ele>706</ele>
        <time>2019-03-19T13:53:56Z</time>
      </trkpt>
      <trkpt lat="44.30891" lon="5.66877">
        <ele>706</ele>
        <time>2019-03-19T13:53:57Z</time>
      </trkpt>
      <trkpt lat="44.30888" lon="5.66872">
        <ele>706</ele>
        <time>2019-03-19T13:53:58Z</time>
      </trkpt>
      <trkpt lat="44.30885" lon="5.66867">
        <ele>706</ele>
        <time>2019-03-19T13:53:59Z</time>
      </trkpt>
      <trkpt lat="44.30882" lon="5.66862">
        <ele>707</ele>
        <time>2019-03-19T13:54:00Z</time>
      </trkpt>
      <trkpt lat="44.30878" lon="5.66857">
        <ele>707</ele>
        <time>2019-03-19T13:54:01Z</time>
      </trkpt>
      <trkpt lat="44.30875" lon="5.66852">
        <ele>707</ele>
        <time>2019-03-19T13:54:02Z</time>
      </trkpt>
      <trkpt lat="44.30872" lon="5.66848">
        <ele>707</ele>
        <time>2019-03-19T13:54:03Z</time>
      </trkpt>
      <trkpt lat="44.30868" lon="5.66843">
        <ele>707</ele>
        <time>2019-03-19T13:54:04Z</time>
      </trkpt>
      <trkpt lat="44.30864" lon="5.66839">
        <ele>707</ele>
        <time>2019-03-19T13:54:05Z</time>
      </trkpt>
      <trkpt lat="44.30861" lon="5.66835">
        <ele>707</ele>
        <time>2019-03-19T13:54:06Z</time>
      </trkpt>
      <trkpt lat="44.30856" lon="5.66831">
        <ele>708</ele>
        <time>2019-03-19T13:54:07Z</time>
      </trkpt>
      <trkpt lat="44.30852" lon="5.66827">
        <ele>708</ele>
        <time>2019-03-19T13:54:08Z</time>
      </trkpt>
      <trkpt lat="44.30848" lon="5.66823">
        <ele>708</ele>
        <time>2019-03-19T13:54:09Z</time>
      </trkpt>
      <trkpt lat="44.30844" lon="5.66819">
        <ele>708</ele>
        <time>2019-03-19T13:54:10Z</time>
      </trkpt>
      <trkpt lat="44.3084" lon="5.66815">
        <ele>708</ele>
        <time>2019-03-19T13:54:11Z</time>
      </trkpt>
      <trkpt lat="44.30836" lon="5.66811">
        <ele>709</ele>
        <time>2019-03-19T13:54:12Z</time>
      </trkpt>
      <trkpt lat="44.30832" lon="5.66807">
        <ele>709</ele>
        <time>2019-03-19T13:54:13Z</time>
      </trkpt>
      <trkpt lat="44.30828" lon="5.66803">
        <ele>709</ele>
        <time>2019-03-19T13:54:14Z</time>
      </trkpt>
      <trkpt lat="44.30824" lon="5.66799">
        <ele>709</ele>
        <time>2019-03-19T13:54:15Z</time>
      </trkpt>
      <trkpt lat="44.3082" lon="5.66795">
        <ele>709</ele>
        <time>2019-03-19T13:54:16Z</time>
      </trkpt>
      <trkpt lat="44.30816" lon="5.6679">
        <ele>709</ele>
        <time>2019-03-19T13:54:17Z</time>
      </trkpt>
      <trkpt lat="44.30812" lon="5.66786">
        <ele>709</ele>
        <time>2019-03-19T13:54:18Z</time>
      </trkpt>
      <trkpt lat="44.30808" lon="5.66782">
        <ele>709</ele>
        <time>2019-03-19T13:54:19Z</time>
      </trkpt>
      <trkpt lat="44.30804" lon="5.66778">
        <ele>709</ele>
        <time>2019-03-19T13:54:20Z</time>
      </trkpt>
      <trkpt lat="44.30799" lon="5.66774">
        <ele>709</ele>
        <time>2019-03-19T13:54:21Z</time>
      </trkpt>
      <trkpt lat="44.30795" lon="5.66769">
        <ele>709</ele>
        <time>2019-03-19T13:54:22Z</time>
      </trkpt>
      <trkpt lat="44.3079" lon="5.66765">
        <ele>709</ele>
        <time>2019-03-19T13:54:23Z</time>
      </trkpt>
      <trkpt lat="44.30786" lon="5.66761">
        <ele>709</ele>
        <time>2019-03-19T13:54:24Z</time>
      </trkpt>
      <trkpt lat="44.30782" lon="5.66757">
        <ele>709</ele>
        <time>2019-03-19T13:54:25Z</time>
      </trkpt>
      <trkpt lat="44.30777" lon="5.66752">
        <ele>709</ele>
        <time>2019-03-19T13:54:26Z</time>
      </trkpt>
      <trkpt lat="44.30772" lon="5.66748">
        <ele>709</ele>
        <time>2019-03-19T13:54:27Z</time>
      </trkpt>
      <trkpt lat="44.30767" lon="5.66743">
        <ele>709</ele>
        <time>2019-03-19T13:54:28Z</time>
      </trkpt>
      <trkpt lat="44.30762" lon="5.66739">
        <ele>709</ele>
        <time>2019-03-19T13:54:29Z</time>
      </trkpt>
      <trkpt lat="44.30757" lon="5.66736">
        <ele>709</ele>
        <time>2019-03-19T13:54:30Z</time>
      </trkpt>
      <trkpt lat="44.30752" lon="5.66733">
        <ele>709</ele>
        <time>2019-03-19T13:54:31Z</time>
      </trkpt>
      <trkpt lat="44.30746" lon="5.6673">
        <ele>709</ele>
        <time>2019-03-19T13:54:32Z</time>
      </trkpt>
      <trkpt lat="44.30741" lon="5.66728">
        <ele>709</ele>
        <time>2019-03-19T13:54:33Z</time>
      </trkpt>
      <trkpt lat="44.30735" lon="5.66725">
        <ele>709</ele>
        <time>2019-03-19T13:54:34Z</time>
      </trkpt>
      <trkpt lat="44.3073" lon="5.66723">
        <ele>709</ele>
        <time>2019-03-19T13:54:35Z</time>
      </trkpt>
      <trkpt lat="44.30724" lon="5.66721">
        <ele>709</ele>
        <time>2019-03-19T13:54:36Z</time>
      </trkpt>
      <trkpt lat="44.30718" lon="5.66718">
        <ele>709</ele>
        <time>2019-03-19T13:54:37Z</time>
      </trkpt>
      <trkpt lat="44.30712" lon="5.66716">
        <ele>709</ele>
        <time>2019-03-19T13:54:38Z</time>
      </trkpt>
      <trkpt lat="44.30706" lon="5.66714">
        <ele>709</ele>
        <time>2019-03-19T13:54:39Z</time>
      </trkpt>
      <trkpt lat="44.30701" lon="5.66712">
        <ele>709</ele>
        <time>2019-03-19T13:54:40Z</time>
      </trkpt>
      <trkpt lat="44.30695" lon="5.66709">
        <ele>709</ele>
        <time>2019-03-19T13:54:41Z</time>
      </trkpt>
      <trkpt lat="44.3069" lon="5.66706">
        <ele>709</ele>
        <time>2019-03-19T13:54:42Z</time>
      </trkpt>
      <trkpt lat="44.30684" lon="5.66703">
        <ele>709</ele>
        <time>2019-03-19T13:54:43Z</time>
      </trkpt>
      <trkpt lat="44.30679" lon="5.66699">
        <ele>709</ele>
        <time>2019-03-19T13:54:44Z</time>
      </trkpt>
      <trkpt lat="44.30674" lon="5.66694">
        <ele>709</ele>
        <time>2019-03-19T13:54:45Z</time>
      </trkpt>
      <trkpt lat="44.3067" lon="5.66689">
        <ele>709</ele>
        <time>2019-03-19T13:54:46Z</time>
      </trkpt>
      <trkpt lat="44.30665" lon="5.66684">
        <ele>709</ele>
        <time>2019-03-19T13:54:47Z</time>
      </trkpt>
      <trkpt lat="44.30661" lon="5.66678">
        <ele>709</ele>
        <time>2019-03-19T13:54:48Z</time>
      </trkpt>
      <trkpt lat="44.30656" lon="5.66673">
        <ele>709</ele>
        <time>2019-03-19T13:54:49Z</time>
      </trkpt>
      <trkpt lat="44.30652" lon="5.66667">
        <ele>709</ele>
        <time>2019-03-19T13:54:50Z</time>
      </trkpt>
      <trkpt lat="44.30648" lon="5.66661">
        <ele>709</ele>
        <time>2019-03-19T13:54:51Z</time>
      </trkpt>
      <trkpt lat="44.30643" lon="5.66655">
        <ele>709</ele>
        <time>2019-03-19T13:54:52Z</time>
      </trkpt>
      <trkpt lat="44.30639" lon="5.66648">
        <ele>709</ele>
        <time>2019-03-19T13:54:53Z</time>
      </trkpt>
      <trkpt lat="44.30635" lon="5.66642">
        <ele>709</ele>
        <time>2019-03-19T13:54:54Z</time>
      </trkpt>
      <trkpt lat="44.30631" lon="5.66637">
        <ele>709</ele>
        <time>2019-03-19T13:54:55Z</time>
      </trkpt>
      <trkpt lat="44.30627" lon="5.66631">
        <ele>709</ele>
        <time>2019-03-19T13:54:56Z</time>
      </trkpt>
      <trkpt lat="44.30622" lon="5.66625">
        <ele>709</ele>
        <time>2019-03-19T13:54:57Z</time>
      </trkpt>
      <trkpt lat="44.30618" lon="5.6662">
        <ele>709</ele>
        <time>2019-03-19T13:54:58Z</time>
      </trkpt>
      <trkpt lat="44.30613" lon="5.66615">
        <ele>709</ele>
        <time>2019-03-19T13:54:59Z</time>
      </trkpt>
      <trkpt lat="44.30609" lon="5.6661">
        <ele>709</ele>
        <time>2019-03-19T13:55:00Z</time>
      </trkpt>
      <trkpt lat="44.30605" lon="5.66605">
        <ele>709</ele>
        <time>2019-03-19T13:55:01Z</time>
      </trkpt>
      <trkpt lat="44.30601" lon="5.66601">
        <ele>709</ele>
        <time>2019-03-19T13:55:02Z</time>
      </trkpt>
      <trkpt lat="44.30597" lon="5.66596">
        <ele>709</ele>
        <time>2019-03-19T13:55:03Z</time>
      </trkpt>
      <trkpt lat="44.30592" lon="5.66592">
        <ele>709</ele>
        <time>2019-03-19T13:55:04Z</time>
      </trkpt>
      <trkpt lat="44.30588" lon="5.66587">
        <ele>709</ele>
        <time>2019-03-19T13:55:05Z</time>
      </trkpt>
      <trkpt lat="44.30584" lon="5.66583">
        <ele>709</ele>
        <time>2019-03-19T13:55:06Z</time>
      </trkpt>
      <trkpt lat="44.3058" lon="5.66579">
        <ele>709</ele>
        <time>2019-03-19T13:55:07Z</time>
      </trkpt>
      <trkpt lat="44.30576" lon="5.66575">
        <ele>709</ele>
        <time>2019-03-19T13:55:08Z</time>
      </trkpt>
      <trkpt lat="44.30572" lon="5.66571">
        <ele>709</ele>
        <time>2019-03-19T13:55:09Z</time>
      </trkpt>
      <trkpt lat="44.30568" lon="5.66566">
        <ele>709</ele>
        <time>2019-03-19T13:55:10Z</time>
      </trkpt>
      <trkpt lat="44.30564" lon="5.66562">
        <ele>709</ele>
        <time>2019-03-19T13:55:11Z</time>
      </trkpt>
      <trkpt lat="44.30559" lon="5.66558">
        <ele>709</ele>
        <time>2019-03-19T13:55:12Z</time>
      </trkpt>
      <trkpt lat="44.30555" lon="5.66554">
        <ele>709</ele>
        <time>2019-03-19T13:55:13Z</time>
      </trkpt>
      <trkpt lat="44.3055" lon="5.66551">
        <ele>709</ele>
        <time>2019-03-19T13:55:14Z</time>
      </trkpt>
      <trkpt lat="44.30545" lon="5.66548">
        <ele>709</ele>
        <time>2019-03-19T13:55:15Z</time>
      </trkpt>
      <trkpt lat="44.30539" lon="5.66546">
        <ele>709</ele>
        <time>2019-03-19T13:55:16Z</time>
      </trkpt>
      <trkpt lat="44.30534" lon="5.66546">
        <ele>709</ele>
        <time>2019-03-19T13:55:17Z</time>
      </trkpt>
      <trkpt lat="44.30528" lon="5.66545">
        <ele>709</ele>
        <time>2019-03-19T13:55:18Z</time>
      </trkpt>
      <trkpt lat="44.30523" lon="5.66545">
        <ele>709</ele>
        <time>2019-03-19T13:55:19Z</time>
      </trkpt>
      <trkpt lat="44.30517" lon="5.66545">
        <ele>709</ele>
        <time>2019-03-19T13:55:20Z</time>
      </trkpt>
      <trkpt lat="44.30511" lon="5.66545">
        <ele>709</ele>
        <time>2019-03-19T13:55:21Z</time>
      </trkpt>
      <trkpt lat="44.30505" lon="5.66545">
        <ele>710</ele>
        <time>2019-03-19T13:55:22Z</time>
      </trkpt>
      <trkpt lat="44.305" lon="5.66545">
        <ele>710</ele>
        <time>2019-03-19T13:55:23Z</time>
      </trkpt>
      <trkpt lat="44.30494" lon="5.66546">
        <ele>710</ele>
        <time>2019-03-19T13:55:24Z</time>
      </trkpt>
      <trkpt lat="44.30488" lon="5.66547">
        <ele>710</ele>
        <time>2019-03-19T13:55:25Z</time>
      </trkpt>
      <trkpt lat="44.30482" lon="5.66548">
        <ele>710</ele>
        <time>2019-03-19T13:55:26Z</time>
      </trkpt>
      <trkpt lat="44.30476" lon="5.66549">
        <ele>710</ele>
        <time>2019-03-19T13:55:27Z</time>
      </trkpt>
      <trkpt lat="44.3047" lon="5.6655">
        <ele>710</ele>
        <time>2019-03-19T13:55:28Z</time>
      </trkpt>
      <trkpt lat="44.30465" lon="5.66551">
        <ele>710</ele>
        <time>2019-03-19T13:55:29Z</time>
      </trkpt>
      <trkpt lat="44.30459" lon="5.66552">
        <ele>710</ele>
        <time>2019-03-19T13:55:30Z</time>
      </trkpt>
      <trkpt lat="44.30453" lon="5.66552">
        <ele>710</ele>
        <time>2019-03-19T13:55:31Z</time>
      </trkpt>
      <trkpt lat="44.30447" lon="5.66553">
        <ele>710</ele>
        <time>2019-03-19T13:55:32Z</time>
      </trkpt>
      <trkpt lat="44.30441" lon="5.66553">
        <ele>710</ele>
        <time>2019-03-19T13:55:33Z</time>
      </trkpt>
      <trkpt lat="44.30436" lon="5.66553">
        <ele>710</ele>
        <time>2019-03-19T13:55:34Z</time>
      </trkpt>
      <trkpt lat="44.3043" lon="5.66553">
        <ele>710</ele>
        <time>2019-03-19T13:55:35Z</time>
      </trkpt>
      <trkpt lat="44.30425" lon="5.66552">
        <ele>710</ele>
        <time>2019-03-19T13:55:36Z</time>
      </trkpt>
      <trkpt lat="44.3042" lon="5.6655">
        <ele>710</ele>
        <time>2019-03-19T13:55:37Z</time>
      </trkpt>
      <trkpt lat="44.30415" lon="5.66547">
        <ele>710</ele>
        <time>2019-03-19T13:55:38Z</time>
      </trkpt>
      <trkpt lat="44.3041" lon="5.66544">
        <ele>710</ele>
        <time>2019-03-19T13:55:39Z</time>
      </trkpt>
      <trkpt lat="44.30406" lon="5.66542">
        <ele>710</ele>
        <time>2019-03-19T13:55:40Z</time>
      </trkpt>
      <trkpt lat="44.30401" lon="5.66538">
        <ele>710</ele>
        <time>2019-03-19T13:55:41Z</time>
      </trkpt>
      <trkpt lat="44.30397" lon="5.66535">
        <ele>710</ele>
        <time>2019-03-19T13:55:42Z</time>
      </trkpt>
      <trkpt lat="44.30393" lon="5.66532">
        <ele>710</ele>
        <time>2019-03-19T13:55:43Z</time>
      </trkpt>
      <trkpt lat="44.30389" lon="5.66529">
        <ele>710</ele>
        <time>2019-03-19T13:55:44Z</time>
      </trkpt>
      <trkpt lat="44.30386" lon="5.66526">
        <ele>710</ele>
        <time>2019-03-19T13:55:45Z</time>
      </trkpt>
      <trkpt lat="44.30381" lon="5.66524">
        <ele>710</ele>
        <time>2019-03-19T13:55:46Z</time>
      </trkpt>
      <trkpt lat="44.30378" lon="5.66521">
        <ele>711</ele>
        <time>2019-03-19T13:55:47Z</time>
      </trkpt>
      <trkpt lat="44.30374" lon="5.66518">
        <ele>711</ele>
        <time>2019-03-19T13:55:48Z</time>
      </trkpt>
      <trkpt lat="44.3037" lon="5.66516">
        <ele>712</ele>
        <time>2019-03-19T13:55:49Z</time>
      </trkpt>
      <trkpt lat="44.30367" lon="5.66513">
        <ele>712</ele>
        <time>2019-03-19T13:55:50Z</time>
      </trkpt>
      <trkpt lat="44.30364" lon="5.66511">
        <ele>712</ele>
        <time>2019-03-19T13:55:51Z</time>
      </trkpt>
      <trkpt lat="44.3036" lon="5.66508">
        <ele>713</ele>
        <time>2019-03-19T13:55:52Z</time>
      </trkpt>
      <trkpt lat="44.30357" lon="5.66504">
        <ele>713</ele>
        <time>2019-03-19T13:55:53Z</time>
      </trkpt>
      <trkpt lat="44.30353" lon="5.66501">
        <ele>713</ele>
        <time>2019-03-19T13:55:54Z</time>
      </trkpt>
      <trkpt lat="44.3035" lon="5.66498">
        <ele>713</ele>
        <time>2019-03-19T13:55:55Z</time>
      </trkpt>
      <trkpt lat="44.30346" lon="5.66496">
        <ele>714</ele>
        <time>2019-03-19T13:55:56Z</time>
      </trkpt>
      <trkpt lat="44.30342" lon="5.66493">
        <ele>714</ele>
        <time>2019-03-19T13:55:57Z</time>
      </trkpt>
      <trkpt lat="44.30339" lon="5.66491">
        <ele>714</ele>
        <time>2019-03-19T13:55:58Z</time>
      </trkpt>
      <trkpt lat="44.30336" lon="5.66487">
        <ele>714</ele>
        <time>2019-03-19T13:55:59Z</time>
      </trkpt>
      <trkpt lat="44.30333" lon="5.66483">
        <ele>714</ele>
        <time>2019-03-19T13:56:00Z</time>
      </trkpt>
      <trkpt lat="44.3033" lon="5.6648">
        <ele>714</ele>
        <time>2019-03-19T13:56:01Z</time>
      </trkpt>
      <trkpt lat="44.30326" lon="5.66476">
        <ele>714</ele>
        <time>2019-03-19T13:56:02Z</time>
      </trkpt>
      <trkpt lat="44.30323" lon="5.66472">
        <ele>714</ele>
        <time>2019-03-19T13:56:03Z</time>
      </trkpt>
      <trkpt lat="44.3032" lon="5.66468">
        <ele>714</ele>
        <time>2019-03-19T13:56:04Z</time>
      </trkpt>
      <trkpt lat="44.30318" lon="5.66464">
        <ele>714</ele>
        <time>2019-03-19T13:56:05Z</time>
      </trkpt>
      <trkpt lat="44.30315" lon="5.66459">
        <ele>714</ele>
        <time>2019-03-19T13:56:06Z</time>
      </trkpt>
      <trkpt lat="44.30312" lon="5.66454">
        <ele>715</ele>
        <time>2019-03-19T13:56:07Z</time>
      </trkpt>
      <trkpt lat="44.3031" lon="5.66449">
        <ele>715</ele>
        <time>2019-03-19T13:56:08Z</time>
      </trkpt>
      <trkpt lat="44.30308" lon="5.66444">
        <ele>715</ele>
        <time>2019-03-19T13:56:09Z</time>
      </trkpt>
      <trkpt lat="44.30305" lon="5.66439">
        <ele>715</ele>
        <time>2019-03-19T13:56:10Z</time>
      </trkpt>
      <trkpt lat="44.30304" lon="5.66433">
        <ele>715</ele>
        <time>2019-03-19T13:56:11Z</time>
      </trkpt>
      <trkpt lat="44.30302" lon="5.66428">
        <ele>715</ele>
        <time>2019-03-19T13:56:12Z</time>
      </trkpt>
      <trkpt lat="44.303" lon="5.66422">
        <ele>715</ele>
        <time>2019-03-19T13:56:13Z</time>
      </trkpt>
      <trkpt lat="44.30298" lon="5.66417">
        <ele>715</ele>
        <time>2019-03-19T13:56:14Z</time>
      </trkpt>
      <trkpt lat="44.30297" lon="5.66411">
        <ele>715</ele>
        <time>2019-03-19T13:56:15Z</time>
      </trkpt>
      <trkpt lat="44.30296" lon="5.66405">
        <ele>715</ele>
        <time>2019-03-19T13:56:16Z</time>
      </trkpt>
      <trkpt lat="44.30295" lon="5.664">
        <ele>715</ele>
        <time>2019-03-19T13:56:17Z</time>
      </trkpt>
      <trkpt lat="44.30294" lon="5.66394">
        <ele>715</ele>
        <time>2019-03-19T13:56:18Z</time>
      </trkpt>
      <trkpt lat="44.30293" lon="5.66388">
        <ele>716</ele>
        <time>2019-03-19T13:56:19Z</time>
      </trkpt>
      <trkpt lat="44.30293" lon="5.66382">
        <ele>716</ele>
        <time>2019-03-19T13:56:20Z</time>
      </trkpt>
      <trkpt lat="44.30292" lon="5.66376">
        <ele>716</ele>
        <time>2019-03-19T13:56:21Z</time>
      </trkpt>
      <trkpt lat="44.30291" lon="5.6637">
        <ele>716</ele>
        <time>2019-03-19T13:56:22Z</time>
      </trkpt>
      <trkpt lat="44.3029" lon="5.66364">
        <ele>716</ele>
        <time>2019-03-19T13:56:23Z</time>
      </trkpt>
      <trkpt lat="44.30289" lon="5.66358">
        <ele>716</ele>
        <time>2019-03-19T13:56:24Z</time>
      </trkpt>
      <trkpt lat="44.30288" lon="5.66352">
        <ele>717</ele>
        <time>2019-03-19T13:56:25Z</time>
      </trkpt>
      <trkpt lat="44.30287" lon="5.66346">
        <ele>717</ele>
        <time>2019-03-19T13:56:26Z</time>
      </trkpt>
      <trkpt lat="44.30286" lon="5.6634">
        <ele>717</ele>
        <time>2019-03-19T13:56:27Z</time>
      </trkpt>
      <trkpt lat="44.30285" lon="5.66335">
        <ele>717</ele>
        <time>2019-03-19T13:56:28Z</time>
      </trkpt>
      <trkpt lat="44.30284" lon="5.66329">
        <ele>717</ele>
        <time>2019-03-19T13:56:29Z</time>
      </trkpt>
      <trkpt lat="44.30283" lon="5.66324">
        <ele>718</ele>
        <time>2019-03-19T13:56:30Z</time>
      </trkpt>
      <trkpt lat="44.30283" lon="5.66319">
        <ele>718</ele>
        <time>2019-03-19T13:56:31Z</time>
      </trkpt>
      <trkpt lat="44.30281" lon="5.66314">
        <ele>718</ele>
        <time>2019-03-19T13:56:32Z</time>
      </trkpt>
      <trkpt lat="44.30281" lon="5.66309">
        <ele>719</ele>
        <time>2019-03-19T13:56:33Z</time>
      </trkpt>
      <trkpt lat="44.30281" lon="5.66305">
        <ele>719</ele>
        <time>2019-03-19T13:56:34Z</time>
      </trkpt>
      <trkpt lat="44.30281" lon="5.663">
        <ele>719</ele>
        <time>2019-03-19T13:56:35Z</time>
      </trkpt>
      <trkpt lat="44.30279" lon="5.66294">
        <ele>719</ele>
        <time>2019-03-19T13:56:36Z</time>
      </trkpt>
      <trkpt lat="44.30278" lon="5.6629">
        <ele>719</ele>
        <time>2019-03-19T13:56:37Z</time>
      </trkpt>
      <trkpt lat="44.30277" lon="5.66285">
        <ele>719</ele>
        <time>2019-03-19T13:56:38Z</time>
      </trkpt>
      <trkpt lat="44.30275" lon="5.6628">
        <ele>719</ele>
        <time>2019-03-19T13:56:39Z</time>
      </trkpt>
      <trkpt lat="44.30273" lon="5.66274">
        <ele>719</ele>
        <time>2019-03-19T13:56:40Z</time>
      </trkpt>
      <trkpt lat="44.30271" lon="5.66269">
        <ele>719</ele>
        <time>2019-03-19T13:56:41Z</time>
      </trkpt>
      <trkpt lat="44.30268" lon="5.66264">
        <ele>720</ele>
        <time>2019-03-19T13:56:42Z</time>
      </trkpt>
      <trkpt lat="44.30267" lon="5.66259">
        <ele>720</ele>
        <time>2019-03-19T13:56:43Z</time>
      </trkpt>
      <trkpt lat="44.30264" lon="5.66254">
        <ele>720</ele>
        <time>2019-03-19T13:56:44Z</time>
      </trkpt>
      <trkpt lat="44.30261" lon="5.6625">
        <ele>721</ele>
        <time>2019-03-19T13:56:45Z</time>
      </trkpt>
      <trkpt lat="44.30259" lon="5.66245">
        <ele>721</ele>
        <time>2019-03-19T13:56:46Z</time>
      </trkpt>
      <trkpt lat="44.30257" lon="5.66241">
        <ele>721</ele>
        <time>2019-03-19T13:56:47Z</time>
      </trkpt>
      <trkpt lat="44.30254" lon="5.66236">
        <ele>721</ele>
        <time>2019-03-19T13:56:48Z</time>
      </trkpt>
      <trkpt lat="44.30252" lon="5.66231">
        <ele>722</ele>
        <time>2019-03-19T13:56:49Z</time>
      </trkpt>
      <trkpt lat="44.3025" lon="5.66227">
        <ele>722</ele>
        <time>2019-03-19T13:56:50Z</time>
      </trkpt>
      <trkpt lat="44.30248" lon="5.66223">
        <ele>722</ele>
        <time>2019-03-19T13:56:51Z</time>
      </trkpt>
      <trkpt lat="44.30246" lon="5.66218">
        <ele>722</ele>
        <time>2019-03-19T13:56:52Z</time>
      </trkpt>
      <trkpt lat="44.30243" lon="5.66214">
        <ele>722</ele>
        <time>2019-03-19T13:56:53Z</time>
      </trkpt>
      <trkpt lat="44.30241" lon="5.66209">
        <ele>722</ele>
        <time>2019-03-19T13:56:54Z</time>
      </trkpt>
      <trkpt lat="44.30239" lon="5.66205">
        <ele>722</ele>
        <time>2019-03-19T13:56:55Z</time>
      </trkpt>
      <trkpt lat="44.30236" lon="5.662">
        <ele>722</ele>
        <time>2019-03-19T13:56:56Z</time>
      </trkpt>
      <trkpt lat="44.30233" lon="5.66195">
        <ele>722</ele>
        <time>2019-03-19T13:56:57Z</time>
      </trkpt>
      <trkpt lat="44.3023" lon="5.66191">
        <ele>723</ele>
        <time>2019-03-19T13:56:58Z</time>
      </trkpt>
      <trkpt lat="44.30228" lon="5.66186">
        <ele>723</ele>
        <time>2019-03-19T13:56:59Z</time>
      </trkpt>
      <trkpt lat="44.30225" lon="5.66182">
        <ele>723</ele>
        <time>2019-03-19T13:57:00Z</time>
      </trkpt>
      <trkpt lat="44.30223" lon="5.66177">
        <ele>724</ele>
        <time>2019-03-19T13:57:01Z</time>
      </trkpt>
      <trkpt lat="44.3022" lon="5.66173">
        <ele>724</ele>
        <time>2019-03-19T13:57:02Z</time>
      </trkpt>
      <trkpt lat="44.30218" lon="5.66168">
        <ele>724</ele>
        <time>2019-03-19T13:57:03Z</time>
      </trkpt>
      <trkpt lat="44.30215" lon="5.66164">
        <ele>724</ele>
        <time>2019-03-19T13:57:04Z</time>
      </trkpt>
      <trkpt lat="44.30212" lon="5.66159">
        <ele>724</ele>
        <time>2019-03-19T13:57:05Z</time>
      </trkpt>
      <trkpt lat="44.3021" lon="5.66154">
        <ele>725</ele>
        <time>2019-03-19T13:57:06Z</time>
      </trkpt>
      <trkpt lat="44.30207" lon="5.6615">
        <ele>725</ele>
        <time>2019-03-19T13:57:07Z</time>
      </trkpt>
      <trkpt lat="44.30205" lon="5.66145">
        <ele>725</ele>
        <time>2019-03-19T13:57:08Z</time>
      </trkpt>
      <trkpt lat="44.30203" lon="5.66141">
        <ele>725</ele>
        <time>2019-03-19T13:57:09Z</time>
      </trkpt>
      <trkpt lat="44.30201" lon="5.66136">
        <ele>725</ele>
        <time>2019-03-19T13:57:10Z</time>
      </trkpt>
      <trkpt lat="44.30199" lon="5.66131">
        <ele>725</ele>
        <time>2019-03-19T13:57:11Z</time>
      </trkpt>
      <trkpt lat="44.30196" lon="5.66127">
        <ele>725</ele>
        <time>2019-03-19T13:57:12Z</time>
      </trkpt>
      <trkpt lat="44.30194" lon="5.66122">
        <ele>725</ele>
        <time>2019-03-19T13:57:13Z</time>
      </trkpt>
      <trkpt lat="44.30192" lon="5.66117">
        <ele>725</ele>
        <time>2019-03-19T13:57:14Z</time>
      </trkpt>
      <trkpt lat="44.30189" lon="5.66112">
        <ele>726</ele>
        <time>2019-03-19T13:57:15Z</time>
      </trkpt>
      <trkpt lat="44.30187" lon="5.66107">
        <ele>726</ele>
        <time>2019-03-19T13:57:16Z</time>
      </trkpt>
      <trkpt lat="44.30185" lon="5.66102">
        <ele>726</ele>
        <time>2019-03-19T13:57:17Z</time>
      </trkpt>
      <trkpt lat="44.30183" lon="5.66097">
        <ele>726</ele>
        <time>2019-03-19T13:57:18Z</time>
      </trkpt>
      <trkpt lat="44.30181" lon="5.66092">
        <ele>727</ele>
        <time>2019-03-19T13:57:19Z</time>
      </trkpt>
      <trkpt lat="44.30179" lon="5.66086">
        <ele>727</ele>
        <time>2019-03-19T13:57:20Z</time>
      </trkpt>
      <trkpt lat="44.30177" lon="5.66081">
        <ele>727</ele>
        <time>2019-03-19T13:57:21Z</time>
      </trkpt>
      <trkpt lat="44.30176" lon="5.66075">
        <ele>727</ele>
        <time>2019-03-19T13:57:22Z</time>
      </trkpt>
      <trkpt lat="44.30175" lon="5.66069">
        <ele>727</ele>
        <time>2019-03-19T13:57:23Z</time>
      </trkpt>
      <trkpt lat="44.30173" lon="5.66063">
        <ele>727</ele>
        <time>2019-03-19T13:57:24Z</time>
      </trkpt>
      <trkpt lat="44.30172" lon="5.66057">
        <ele>727</ele>
        <time>2019-03-19T13:57:25Z</time>
      </trkpt>
      <trkpt lat="44.3017" lon="5.66052">
        <ele>727</ele>
        <time>2019-03-19T13:57:26Z</time>
      </trkpt>
      <trkpt lat="44.30169" lon="5.66046">
        <ele>727</ele>
        <time>2019-03-19T13:57:27Z</time>
      </trkpt>
      <trkpt lat="44.30168" lon="5.6604">
        <ele>728</ele>
        <time>2019-03-19T13:57:28Z</time>
      </trkpt>
      <trkpt lat="44.30167" lon="5.66034">
        <ele>728</ele>
        <time>2019-03-19T13:57:29Z</time>
      </trkpt>
      <trkpt lat="44.30167" lon="5.66028">
        <ele>728</ele>
        <time>2019-03-19T13:57:30Z</time>
      </trkpt>
      <trkpt lat="44.30165" lon="5.66022">
        <ele>728</ele>
        <time>2019-03-19T13:57:31Z</time>
      </trkpt>
      <trkpt lat="44.30164" lon="5.66016">
        <ele>728</ele>
        <time>2019-03-19T13:57:32Z</time>
      </trkpt>
      <trkpt lat="44.30163" lon="5.6601">
        <ele>728</ele>
        <time>2019-03-19T13:57:33Z</time>
      </trkpt>
      <trkpt lat="44.30162" lon="5.66004">
        <ele>728</ele>
        <time>2019-03-19T13:57:34Z</time>
      </trkpt>
      <trkpt lat="44.30161" lon="5.65998">
        <ele>728</ele>
        <time>2019-03-19T13:57:35Z</time>
      </trkpt>
      <trkpt lat="44.3016" lon="5.65991">
        <ele>728</ele>
        <time>2019-03-19T13:57:36Z</time>
      </trkpt>
      <trkpt lat="44.30158" lon="5.65986">
        <ele>728</ele>
        <time>2019-03-19T13:57:37Z</time>
      </trkpt>
      <trkpt lat="44.30157" lon="5.6598">
        <ele>728</ele>
        <time>2019-03-19T13:57:38Z</time>
      </trkpt>
      <trkpt lat="44.30155" lon="5.65974">
        <ele>728</ele>
        <time>2019-03-19T13:57:39Z</time>
      </trkpt>
      <trkpt lat="44.30153" lon="5.65969">
        <ele>728</ele>
        <time>2019-03-19T13:57:40Z</time>
      </trkpt>
      <trkpt lat="44.30151" lon="5.65963">
        <ele>728</ele>
        <time>2019-03-19T13:57:41Z</time>
      </trkpt>
      <trkpt lat="44.30148" lon="5.65957">
        <ele>728</ele>
        <time>2019-03-19T13:57:42Z</time>
      </trkpt>
      <trkpt lat="44.30146" lon="5.65952">
        <ele>728</ele>
        <time>2019-03-19T13:57:43Z</time>
      </trkpt>
      <trkpt lat="44.30144" lon="5.65947">
        <ele>728</ele>
        <time>2019-03-19T13:57:44Z</time>
      </trkpt>
      <trkpt lat="44.30141" lon="5.65942">
        <ele>728</ele>
        <time>2019-03-19T13:57:45Z</time>
      </trkpt>
      <trkpt lat="44.30139" lon="5.65937">
        <ele>728</ele>
        <time>2019-03-19T13:57:46Z</time>
      </trkpt>
      <trkpt lat="44.30136" lon="5.65932">
        <ele>728</ele>
        <time>2019-03-19T13:57:47Z</time>
      </trkpt>
      <trkpt lat="44.30133" lon="5.65927">
        <ele>728</ele>
        <time>2019-03-19T13:57:48Z</time>
      </trkpt>
      <trkpt lat="44.30131" lon="5.65922">
        <ele>728</ele>
        <time>2019-03-19T13:57:49Z</time>
      </trkpt>
      <trkpt lat="44.30128" lon="5.65916">
        <ele>728</ele>
        <time>2019-03-19T13:57:50Z</time>
      </trkpt>
      <trkpt lat="44.30126" lon="5.65911">
        <ele>728</ele>
        <time>2019-03-19T13:57:51Z</time>
      </trkpt>
      <trkpt lat="44.30124" lon="5.65906">
        <ele>728</ele>
        <time>2019-03-19T13:57:52Z</time>
      </trkpt>
      <trkpt lat="44.30122" lon="5.659">
        <ele>728</ele>
        <time>2019-03-19T13:57:53Z</time>
      </trkpt>
      <trkpt lat="44.30119" lon="5.65895">
        <ele>728</ele>
        <time>2019-03-19T13:57:54Z</time>
      </trkpt>
      <trkpt lat="44.30117" lon="5.65889">
        <ele>728</ele>
        <time>2019-03-19T13:57:55Z</time>
      </trkpt>
      <trkpt lat="44.30115" lon="5.65884">
        <ele>728</ele>
        <time>2019-03-19T13:57:56Z</time>
      </trkpt>
      <trkpt lat="44.30112" lon="5.65878">
        <ele>728</ele>
        <time>2019-03-19T13:57:57Z</time>
      </trkpt>
      <trkpt lat="44.30111" lon="5.65872">
        <ele>728</ele>
        <time>2019-03-19T13:57:58Z</time>
      </trkpt>
      <trkpt lat="44.30109" lon="5.65867">
        <ele>728</ele>
        <time>2019-03-19T13:57:59Z</time>
      </trkpt>
      <trkpt lat="44.30106" lon="5.65861">
        <ele>728</ele>
        <time>2019-03-19T13:58:00Z</time>
      </trkpt>
      <trkpt lat="44.30104" lon="5.65855">
        <ele>728</ele>
        <time>2019-03-19T13:58:01Z</time>
      </trkpt>
      <trkpt lat="44.30102" lon="5.65849">
        <ele>728</ele>
        <time>2019-03-19T13:58:02Z</time>
      </trkpt>
      <trkpt lat="44.301" lon="5.65844">
        <ele>728</ele>
        <time>2019-03-19T13:58:03Z</time>
      </trkpt>
      <trkpt lat="44.30098" lon="5.65838">
        <ele>728</ele>
        <time>2019-03-19T13:58:04Z</time>
      </trkpt>
      <trkpt lat="44.30096" lon="5.65833">
        <ele>728</ele>
        <time>2019-03-19T13:58:05Z</time>
      </trkpt>
      <trkpt lat="44.30093" lon="5.65827">
        <ele>728</ele>
        <time>2019-03-19T13:58:06Z</time>
      </trkpt>
      <trkpt lat="44.30091" lon="5.65822">
        <ele>729</ele>
        <time>2019-03-19T13:58:07Z</time>
      </trkpt>
      <trkpt lat="44.30089" lon="5.65816">
        <ele>729</ele>
        <time>2019-03-19T13:58:08Z</time>
      </trkpt>
      <trkpt lat="44.30087" lon="5.6581">
        <ele>729</ele>
        <time>2019-03-19T13:58:09Z</time>
      </trkpt>
      <trkpt lat="44.30085" lon="5.65805">
        <ele>729</ele>
        <time>2019-03-19T13:58:10Z</time>
      </trkpt>
      <trkpt lat="44.30082" lon="5.65799">
        <ele>729</ele>
        <time>2019-03-19T13:58:11Z</time>
      </trkpt>
      <trkpt lat="44.3008" lon="5.65794">
        <ele>729</ele>
        <time>2019-03-19T13:58:12Z</time>
      </trkpt>
      <trkpt lat="44.30079" lon="5.65788">
        <ele>729</ele>
        <time>2019-03-19T13:58:13Z</time>
      </trkpt>
      <trkpt lat="44.30077" lon="5.65783">
        <ele>729</ele>
        <time>2019-03-19T13:58:14Z</time>
      </trkpt>
      <trkpt lat="44.30075" lon="5.65777">
        <ele>729</ele>
        <time>2019-03-19T13:58:15Z</time>
      </trkpt>
      <trkpt lat="44.30074" lon="5.65772">
        <ele>729</ele>
        <time>2019-03-19T13:58:16Z</time>
      </trkpt>
      <trkpt lat="44.30072" lon="5.65767">
        <ele>729</ele>
        <time>2019-03-19T13:58:17Z</time>
      </trkpt>
      <trkpt lat="44.3007" lon="5.65761">
        <ele>729</ele>
        <time>2019-03-19T13:58:18Z</time>
      </trkpt>
      <trkpt lat="44.30068" lon="5.65756">
        <ele>729</ele>
        <time>2019-03-19T13:58:19Z</time>
      </trkpt>
      <trkpt lat="44.30066" lon="5.6575">
        <ele>729</ele>
        <time>2019-03-19T13:58:20Z</time>
      </trkpt>
      <trkpt lat="44.30065" lon="5.65744">
        <ele>729</ele>
        <time>2019-03-19T13:58:21Z</time>
      </trkpt>
      <trkpt lat="44.30064" lon="5.65738">
        <ele>730</ele>
        <time>2019-03-19T13:58:22Z</time>
      </trkpt>
      <trkpt lat="44.30062" lon="5.65733">
        <ele>730</ele>
        <time>2019-03-19T13:58:23Z</time>
      </trkpt>
      <trkpt lat="44.3006" lon="5.65727">
        <ele>730</ele>
        <time>2019-03-19T13:58:24Z</time>
      </trkpt>
      <trkpt lat="44.30058" lon="5.65721">
        <ele>730</ele>
        <time>2019-03-19T13:58:25Z</time>
      </trkpt>
      <trkpt lat="44.30055" lon="5.65715">
        <ele>730</ele>
        <time>2019-03-19T13:58:26Z</time>
      </trkpt>
      <trkpt lat="44.30054" lon="5.6571">
        <ele>730</ele>
        <time>2019-03-19T13:58:27Z</time>
      </trkpt>
      <trkpt lat="44.30052" lon="5.65704">
        <ele>730</ele>
        <time>2019-03-19T13:58:28Z</time>
      </trkpt>
      <trkpt lat="44.3005" lon="5.65698">
        <ele>731</ele>
        <time>2019-03-19T13:58:29Z</time>
      </trkpt>
      <trkpt lat="44.30048" lon="5.65692">
        <ele>731</ele>
        <time>2019-03-19T13:58:30Z</time>
      </trkpt>
      <trkpt lat="44.30046" lon="5.65686">
        <ele>731</ele>
        <time>2019-03-19T13:58:31Z</time>
      </trkpt>
      <trkpt lat="44.30044" lon="5.6568">
        <ele>732</ele>
        <time>2019-03-19T13:58:32Z</time>
      </trkpt>
      <trkpt lat="44.30043" lon="5.65675">
        <ele>732</ele>
        <time>2019-03-19T13:58:33Z</time>
      </trkpt>
      <trkpt lat="44.30041" lon="5.65669">
        <ele>732</ele>
        <time>2019-03-19T13:58:34Z</time>
      </trkpt>
      <trkpt lat="44.30039" lon="5.65663">
        <ele>733</ele>
        <time>2019-03-19T13:58:35Z</time>
      </trkpt>
      <trkpt lat="44.30037" lon="5.65658">
        <ele>733</ele>
        <time>2019-03-19T13:58:36Z</time>
      </trkpt>
      <trkpt lat="44.30035" lon="5.65652">
        <ele>733</ele>
        <time>2019-03-19T13:58:37Z</time>
      </trkpt>
      <trkpt lat="44.30033" lon="5.65647">
        <ele>733</ele>
        <time>2019-03-19T13:58:38Z</time>
      </trkpt>
      <trkpt lat="44.3003" lon="5.65641">
        <ele>733</ele>
        <time>2019-03-19T13:58:39Z</time>
      </trkpt>
      <trkpt lat="44.30028" lon="5.65635">
        <ele>733</ele>
        <time>2019-03-19T13:58:40Z</time>
      </trkpt>
      <trkpt lat="44.30026" lon="5.6563">
        <ele>733</ele>
        <time>2019-03-19T13:58:41Z</time>
      </trkpt>
      <trkpt lat="44.30024" lon="5.65624">
        <ele>733</ele>
        <time>2019-03-19T13:58:42Z</time>
      </trkpt>
      <trkpt lat="44.30022" lon="5.65618">
        <ele>733</ele>
        <time>2019-03-19T13:58:43Z</time>
      </trkpt>
      <trkpt lat="44.3002" lon="5.65612">
        <ele>733</ele>
        <time>2019-03-19T13:58:44Z</time>
      </trkpt>
      <trkpt lat="44.30017" lon="5.65606">
        <ele>733</ele>
        <time>2019-03-19T13:58:45Z</time>
      </trkpt>
      <trkpt lat="44.30014" lon="5.656">
        <ele>733</ele>
        <time>2019-03-19T13:58:46Z</time>
      </trkpt>
      <trkpt lat="44.30011" lon="5.65595">
        <ele>733</ele>
        <time>2019-03-19T13:58:47Z</time>
      </trkpt>
      <trkpt lat="44.30009" lon="5.65589">
        <ele>734</ele>
        <time>2019-03-19T13:58:48Z</time>
      </trkpt>
      <trkpt lat="44.30007" lon="5.65583">
        <ele>734</ele>
        <time>2019-03-19T13:58:49Z</time>
      </trkpt>
      <trkpt lat="44.30005" lon="5.65578">
        <ele>734</ele>
        <time>2019-03-19T13:58:50Z</time>
      </trkpt>
      <trkpt lat="44.30003" lon="5.65571">
        <ele>735</ele>
        <time>2019-03-19T13:58:51Z</time>
      </trkpt>
      <trkpt lat="44.3" lon="5.65566">
        <ele>735</ele>
        <time>2019-03-19T13:58:52Z</time>
      </trkpt>
      <trkpt lat="44.29998" lon="5.6556">
        <ele>735</ele>
        <time>2019-03-19T13:58:53Z</time>
      </trkpt>
      <trkpt lat="44.29996" lon="5.65555">
        <ele>735</ele>
        <time>2019-03-19T13:58:54Z</time>
      </trkpt>
      <trkpt lat="44.29993" lon="5.65549">
        <ele>735</ele>
        <time>2019-03-19T13:58:55Z</time>
      </trkpt>
      <trkpt lat="44.29991" lon="5.65543">
        <ele>735</ele>
        <time>2019-03-19T13:58:56Z</time>
      </trkpt>
      <trkpt lat="44.29989" lon="5.65538">
        <ele>735</ele>
        <time>2019-03-19T13:58:57Z</time>
      </trkpt>
      <trkpt lat="44.29987" lon="5.65532">
        <ele>735</ele>
        <time>2019-03-19T13:58:58Z</time>
      </trkpt>
      <trkpt lat="44.29985" lon="5.65526">
        <ele>735</ele>
        <time>2019-03-19T13:58:59Z</time>
      </trkpt>
      <trkpt lat="44.29982" lon="5.6552">
        <ele>735</ele>
        <time>2019-03-19T13:59:00Z</time>
      </trkpt>
      <trkpt lat="44.2998" lon="5.65515">
        <ele>735</ele>
        <time>2019-03-19T13:59:01Z</time>
      </trkpt>
      <trkpt lat="44.29977" lon="5.65509">
        <ele>735</ele>
        <time>2019-03-19T13:59:02Z</time>
      </trkpt>
      <trkpt lat="44.29975" lon="5.65503">
        <ele>735</ele>
        <time>2019-03-19T13:59:03Z</time>
      </trkpt>
      <trkpt lat="44.29972" lon="5.65497">
        <ele>735</ele>
        <time>2019-03-19T13:59:04Z</time>
      </trkpt>
      <trkpt lat="44.2997" lon="5.65491">
        <ele>735</ele>
        <time>2019-03-19T13:59:05Z</time>
      </trkpt>
      <trkpt lat="44.29967" lon="5.65485">
        <ele>735</ele>
        <time>2019-03-19T13:59:06Z</time>
      </trkpt>
      <trkpt lat="44.29965" lon="5.65479">
        <ele>736</ele>
        <time>2019-03-19T13:59:07Z</time>
      </trkpt>
      <trkpt lat="44.29963" lon="5.65473">
        <ele>736</ele>
        <time>2019-03-19T13:59:08Z</time>
      </trkpt>
      <trkpt lat="44.2996" lon="5.65468">
        <ele>736</ele>
        <time>2019-03-19T13:59:09Z</time>
      </trkpt>
      <trkpt lat="44.29958" lon="5.65461">
        <ele>736</ele>
        <time>2019-03-19T13:59:10Z</time>
      </trkpt>
      <trkpt lat="44.29956" lon="5.65456">
        <ele>737</ele>
        <time>2019-03-19T13:59:11Z</time>
      </trkpt>
      <trkpt lat="44.29953" lon="5.6545">
        <ele>737</ele>
        <time>2019-03-19T13:59:12Z</time>
      </trkpt>
      <trkpt lat="44.29951" lon="5.65444">
        <ele>737</ele>
        <time>2019-03-19T13:59:13Z</time>
      </trkpt>
      <trkpt lat="44.29949" lon="5.65438">
        <ele>737</ele>
        <time>2019-03-19T13:59:14Z</time>
      </trkpt>
      <trkpt lat="44.29947" lon="5.65433">
        <ele>737</ele>
        <time>2019-03-19T13:59:15Z</time>
      </trkpt>
      <trkpt lat="44.29944" lon="5.65427">
        <ele>737</ele>
        <time>2019-03-19T13:59:16Z</time>
      </trkpt>
      <trkpt lat="44.29942" lon="5.65421">
        <ele>737</ele>
        <time>2019-03-19T13:59:17Z</time>
      </trkpt>
      <trkpt lat="44.2994" lon="5.65415">
        <ele>737</ele>
        <time>2019-03-19T13:59:18Z</time>
      </trkpt>
      <trkpt lat="44.29937" lon="5.6541">
        <ele>737</ele>
        <time>2019-03-19T13:59:19Z</time>
      </trkpt>
      <trkpt lat="44.29934" lon="5.65404">
        <ele>737</ele>
        <time>2019-03-19T13:59:20Z</time>
      </trkpt>
      <trkpt lat="44.29931" lon="5.65398">
        <ele>738</ele>
        <time>2019-03-19T13:59:21Z</time>
      </trkpt>
      <trkpt lat="44.29929" lon="5.65392">
        <ele>738</ele>
        <time>2019-03-19T13:59:22Z</time>
      </trkpt>
      <trkpt lat="44.29927" lon="5.65386">
        <ele>738</ele>
        <time>2019-03-19T13:59:23Z</time>
      </trkpt>
      <trkpt lat="44.29924" lon="5.6538">
        <ele>738</ele>
        <time>2019-03-19T13:59:24Z</time>
      </trkpt>
      <trkpt lat="44.29922" lon="5.65375">
        <ele>739</ele>
        <time>2019-03-19T13:59:25Z</time>
      </trkpt>
      <trkpt lat="44.2992" lon="5.65369">
        <ele>739</ele>
        <time>2019-03-19T13:59:26Z</time>
      </trkpt>
      <trkpt lat="44.29917" lon="5.65364">
        <ele>739</ele>
        <time>2019-03-19T13:59:27Z</time>
      </trkpt>
      <trkpt lat="44.29915" lon="5.65358">
        <ele>739</ele>
        <time>2019-03-19T13:59:28Z</time>
      </trkpt>
      <trkpt lat="44.29913" lon="5.65352">
        <ele>739</ele>
        <time>2019-03-19T13:59:29Z</time>
      </trkpt>
      <trkpt lat="44.29911" lon="5.65347">
        <ele>739</ele>
        <time>2019-03-19T13:59:30Z</time>
      </trkpt>
      <trkpt lat="44.29909" lon="5.65342">
        <ele>740</ele>
        <time>2019-03-19T13:59:31Z</time>
      </trkpt>
      <trkpt lat="44.29907" lon="5.65336">
        <ele>740</ele>
        <time>2019-03-19T13:59:32Z</time>
      </trkpt>
      <trkpt lat="44.29904" lon="5.6533">
        <ele>740</ele>
        <time>2019-03-19T13:59:33Z</time>
      </trkpt>
      <trkpt lat="44.29902" lon="5.65325">
        <ele>740</ele>
        <time>2019-03-19T13:59:34Z</time>
      </trkpt>
      <trkpt lat="44.299" lon="5.65319">
        <ele>740</ele>
        <time>2019-03-19T13:59:35Z</time>
      </trkpt>
      <trkpt lat="44.29898" lon="5.65313">
        <ele>740</ele>
        <time>2019-03-19T13:59:36Z</time>
      </trkpt>
      <trkpt lat="44.29895" lon="5.65308">
        <ele>740</ele>
        <time>2019-03-19T13:59:37Z</time>
      </trkpt>
      <trkpt lat="44.29893" lon="5.65303">
        <ele>740</ele>
        <time>2019-03-19T13:59:38Z</time>
      </trkpt>
      <trkpt lat="44.29891" lon="5.65297">
        <ele>740</ele>
        <time>2019-03-19T13:59:39Z</time>
      </trkpt>
      <trkpt lat="44.29889" lon="5.65291">
        <ele>740</ele>
        <time>2019-03-19T13:59:40Z</time>
      </trkpt>
      <trkpt lat="44.29886" lon="5.65285">
        <ele>740</ele>
        <time>2019-03-19T13:59:41Z</time>
      </trkpt>
      <trkpt lat="44.29884" lon="5.6528">
        <ele>740</ele>
        <time>2019-03-19T13:59:42Z</time>
      </trkpt>
      <trkpt lat="44.29882" lon="5.65274">
        <ele>740</ele>
        <time>2019-03-19T13:59:43Z</time>
      </trkpt>
      <trkpt lat="44.2988" lon="5.65268">
        <ele>740</ele>
        <time>2019-03-19T13:59:44Z</time>
      </trkpt>
      <trkpt lat="44.29878" lon="5.65263">
        <ele>740</ele>
        <time>2019-03-19T13:59:45Z</time>
      </trkpt>
      <trkpt lat="44.29876" lon="5.65258">
        <ele>740</ele>
        <time>2019-03-19T13:59:46Z</time>
      </trkpt>
      <trkpt lat="44.29874" lon="5.65252">
        <ele>740</ele>
        <time>2019-03-19T13:59:47Z</time>
      </trkpt>
      <trkpt lat="44.29872" lon="5.65247">
        <ele>740</ele>
        <time>2019-03-19T13:59:48Z</time>
      </trkpt>
      <trkpt lat="44.29869" lon="5.65242">
        <ele>740</ele>
        <time>2019-03-19T13:59:49Z</time>
      </trkpt>
      <trkpt lat="44.29867" lon="5.65237">
        <ele>740</ele>
        <time>2019-03-19T13:59:50Z</time>
      </trkpt>
      <trkpt lat="44.29865" lon="5.65232">
        <ele>740</ele>
        <time>2019-03-19T13:59:51Z</time>
      </trkpt>
      <trkpt lat="44.29861" lon="5.65226">
        <ele>740</ele>
        <time>2019-03-19T13:59:52Z</time>
      </trkpt>
      <trkpt lat="44.29858" lon="5.65221">
        <ele>741</ele>
        <time>2019-03-19T13:59:53Z</time>
      </trkpt>
      <trkpt lat="44.29856" lon="5.65215">
        <ele>741</ele>
        <time>2019-03-19T13:59:54Z</time>
      </trkpt>
      <trkpt lat="44.29853" lon="5.6521">
        <ele>741</ele>
        <time>2019-03-19T13:59:55Z</time>
      </trkpt>
      <trkpt lat="44.29851" lon="5.65204">
        <ele>741</ele>
        <time>2019-03-19T13:59:56Z</time>
      </trkpt>
      <trkpt lat="44.29848" lon="5.65199">
        <ele>742</ele>
        <time>2019-03-19T13:59:57Z</time>
      </trkpt>
      <trkpt lat="44.29845" lon="5.65193">
        <ele>742</ele>
        <time>2019-03-19T13:59:58Z</time>
      </trkpt>
      <trkpt lat="44.29843" lon="5.65188">
        <ele>742</ele>
        <time>2019-03-19T13:59:59Z</time>
      </trkpt>
      <trkpt lat="44.2984" lon="5.65182">
        <ele>742</ele>
        <time>2019-03-19T14:00:00Z</time>
      </trkpt>
      <trkpt lat="44.29838" lon="5.65176">
        <ele>742</ele>
        <time>2019-03-19T14:00:01Z</time>
      </trkpt>
      <trkpt lat="44.29836" lon="5.65171">
        <ele>742</ele>
        <time>2019-03-19T14:00:02Z</time>
      </trkpt>
      <trkpt lat="44.29833" lon="5.65165">
        <ele>742</ele>
        <time>2019-03-19T14:00:03Z</time>
      </trkpt>
      <trkpt lat="44.29831" lon="5.6516">
        <ele>742</ele>
        <time>2019-03-19T14:00:04Z</time>
      </trkpt>
      <trkpt lat="44.29829" lon="5.65154">
        <ele>742</ele>
        <time>2019-03-19T14:00:05Z</time>
      </trkpt>
      <trkpt lat="44.29826" lon="5.65148">
        <ele>742</ele>
        <time>2019-03-19T14:00:06Z</time>
      </trkpt>
      <trkpt lat="44.29823" lon="5.65143">
        <ele>742</ele>
        <time>2019-03-19T14:00:07Z</time>
      </trkpt>
      <trkpt lat="44.29821" lon="5.65137">
        <ele>742</ele>
        <time>2019-03-19T14:00:08Z</time>
      </trkpt>
      <trkpt lat="44.29818" lon="5.65132">
        <ele>742</ele>
        <time>2019-03-19T14:00:09Z</time>
      </trkpt>
      <trkpt lat="44.29816" lon="5.65126">
        <ele>742</ele>
        <time>2019-03-19T14:00:10Z</time>
      </trkpt>
      <trkpt lat="44.29814" lon="5.6512">
        <ele>743</ele>
        <time>2019-03-19T14:00:11Z</time>
      </trkpt>
      <trkpt lat="44.29811" lon="5.65114">
        <ele>743</ele>
        <time>2019-03-19T14:00:12Z</time>
      </trkpt>
      <trkpt lat="44.29809" lon="5.65108">
        <ele>743</ele>
        <time>2019-03-19T14:00:13Z</time>
      </trkpt>
      <trkpt lat="44.29806" lon="5.65102">
        <ele>743</ele>
        <time>2019-03-19T14:00:14Z</time>
      </trkpt>
      <trkpt lat="44.29803" lon="5.65096">
        <ele>743</ele>
        <time>2019-03-19T14:00:15Z</time>
      </trkpt>
      <trkpt lat="44.29801" lon="5.6509">
        <ele>743</ele>
        <time>2019-03-19T14:00:16Z</time>
      </trkpt>
      <trkpt lat="44.29799" lon="5.65083">
        <ele>743</ele>
        <time>2019-03-19T14:00:17Z</time>
      </trkpt>
      <trkpt lat="44.29796" lon="5.65077">
        <ele>743</ele>
        <time>2019-03-19T14:00:18Z</time>
      </trkpt>
      <trkpt lat="44.29793" lon="5.65071">
        <ele>743</ele>
        <time>2019-03-19T14:00:19Z</time>
      </trkpt>
      <trkpt lat="44.2979" lon="5.65065">
        <ele>743</ele>
        <time>2019-03-19T14:00:20Z</time>
      </trkpt>
      <trkpt lat="44.29788" lon="5.65059">
        <ele>743</ele>
        <time>2019-03-19T14:00:21Z</time>
      </trkpt>
      <trkpt lat="44.29786" lon="5.65053">
        <ele>743</ele>
        <time>2019-03-19T14:00:22Z</time>
      </trkpt>
      <trkpt lat="44.29783" lon="5.65046">
        <ele>743</ele>
        <time>2019-03-19T14:00:23Z</time>
      </trkpt>
      <trkpt lat="44.29781" lon="5.6504">
        <ele>743</ele>
        <time>2019-03-19T14:00:24Z</time>
      </trkpt>
      <trkpt lat="44.29778" lon="5.65034">
        <ele>743</ele>
        <time>2019-03-19T14:00:25Z</time>
      </trkpt>
      <trkpt lat="44.29776" lon="5.65028">
        <ele>743</ele>
        <time>2019-03-19T14:00:26Z</time>
      </trkpt>
      <trkpt lat="44.29774" lon="5.65022">
        <ele>743</ele>
        <time>2019-03-19T14:00:27Z</time>
      </trkpt>
      <trkpt lat="44.29771" lon="5.65015">
        <ele>743</ele>
        <time>2019-03-19T14:00:28Z</time>
      </trkpt>
      <trkpt lat="44.29769" lon="5.65009">
        <ele>743</ele>
        <time>2019-03-19T14:00:29Z</time>
      </trkpt>
      <trkpt lat="44.29766" lon="5.65002">
        <ele>743</ele>
        <time>2019-03-19T14:00:30Z</time>
      </trkpt>
      <trkpt lat="44.29764" lon="5.64996">
        <ele>743</ele>
        <time>2019-03-19T14:00:31Z</time>
      </trkpt>
      <trkpt lat="44.29761" lon="5.64989">
        <ele>743</ele>
        <time>2019-03-19T14:00:32Z</time>
      </trkpt>
      <trkpt lat="44.29758" lon="5.64983">
        <ele>743</ele>
        <time>2019-03-19T14:00:33Z</time>
      </trkpt>
      <trkpt lat="44.29755" lon="5.64977">
        <ele>743</ele>
        <time>2019-03-19T14:00:34Z</time>
      </trkpt>
      <trkpt lat="44.29752" lon="5.6497">
        <ele>743</ele>
        <time>2019-03-19T14:00:35Z</time>
      </trkpt>
      <trkpt lat="44.29749" lon="5.64964">
        <ele>743</ele>
        <time>2019-03-19T14:00:36Z</time>
      </trkpt>
      <trkpt lat="44.29746" lon="5.64958">
        <ele>743</ele>
        <time>2019-03-19T14:00:37Z</time>
      </trkpt>
      <trkpt lat="44.29743" lon="5.64952">
        <ele>743</ele>
        <time>2019-03-19T14:00:38Z</time>
      </trkpt>
      <trkpt lat="44.2974" lon="5.64946">
        <ele>743</ele>
        <time>2019-03-19T14:00:39Z</time>
      </trkpt>
      <trkpt lat="44.29737" lon="5.6494">
        <ele>743</ele>
        <time>2019-03-19T14:00:40Z</time>
      </trkpt>
      <trkpt lat="44.29734" lon="5.64934">
        <ele>743</ele>
        <time>2019-03-19T14:00:41Z</time>
      </trkpt>
      <trkpt lat="44.29732" lon="5.64928">
        <ele>743</ele>
        <time>2019-03-19T14:00:42Z</time>
      </trkpt>
      <trkpt lat="44.29729" lon="5.64921">
        <ele>743</ele>
        <time>2019-03-19T14:00:43Z</time>
      </trkpt>
      <trkpt lat="44.29726" lon="5.64915">
        <ele>743</ele>
        <time>2019-03-19T14:00:44Z</time>
      </trkpt>
      <trkpt lat="44.29723" lon="5.64909">
        <ele>743</ele>
        <time>2019-03-19T14:00:45Z</time>
      </trkpt>
      <trkpt lat="44.29721" lon="5.64903">
        <ele>743</ele>
        <time>2019-03-19T14:00:46Z</time>
      </trkpt>
      <trkpt lat="44.29718" lon="5.64896">
        <ele>743</ele>
        <time>2019-03-19T14:00:47Z</time>
      </trkpt>
      <trkpt lat="44.29716" lon="5.6489">
        <ele>743</ele>
        <time>2019-03-19T14:00:48Z</time>
      </trkpt>
      <trkpt lat="44.29713" lon="5.64883">
        <ele>743</ele>
        <time>2019-03-19T14:00:49Z</time>
      </trkpt>
      <trkpt lat="44.29711" lon="5.64877">
        <ele>743</ele>
        <time>2019-03-19T14:00:50Z</time>
      </trkpt>
      <trkpt lat="44.29709" lon="5.6487">
        <ele>743</ele>
        <time>2019-03-19T14:00:51Z</time>
      </trkpt>
      <trkpt lat="44.29706" lon="5.64863">
        <ele>743</ele>
        <time>2019-03-19T14:00:52Z</time>
      </trkpt>
      <trkpt lat="44.29704" lon="5.64857">
        <ele>743</ele>
        <time>2019-03-19T14:00:53Z</time>
      </trkpt>
      <trkpt lat="44.29702" lon="5.6485">
        <ele>743</ele>
        <time>2019-03-19T14:00:54Z</time>
      </trkpt>
      <trkpt lat="44.29699" lon="5.64844">
        <ele>743</ele>
        <time>2019-03-19T14:00:55Z</time>
      </trkpt>
      <trkpt lat="44.29697" lon="5.64838">
        <ele>743</ele>
        <time>2019-03-19T14:00:56Z</time>
      </trkpt>
      <trkpt lat="44.29694" lon="5.64831">
        <ele>743</ele>
        <time>2019-03-19T14:00:57Z</time>
      </trkpt>
      <trkpt lat="44.29692" lon="5.64825">
        <ele>743</ele>
        <time>2019-03-19T14:00:58Z</time>
      </trkpt>
      <trkpt lat="44.2969" lon="5.64818">
        <ele>743</ele>
        <time>2019-03-19T14:00:59Z</time>
      </trkpt>
      <trkpt lat="44.29688" lon="5.64812">
        <ele>743</ele>
        <time>2019-03-19T14:01:00Z</time>
      </trkpt>
      <trkpt lat="44.29686" lon="5.64805">
        <ele>744</ele>
        <time>2019-03-19T14:01:01Z</time>
      </trkpt>
      <trkpt lat="44.29684" lon="5.64798">
        <ele>744</ele>
        <time>2019-03-19T14:01:02Z</time>
      </trkpt>
      <trkpt lat="44.29683" lon="5.64791">
        <ele>744</ele>
        <time>2019-03-19T14:01:03Z</time>
      </trkpt>
      <trkpt lat="44.29681" lon="5.64784">
        <ele>744</ele>
        <time>2019-03-19T14:01:04Z</time>
      </trkpt>
      <trkpt lat="44.29679" lon="5.64778">
        <ele>744</ele>
        <time>2019-03-19T14:01:05Z</time>
      </trkpt>
      <trkpt lat="44.29678" lon="5.64771">
        <ele>745</ele>
        <time>2019-03-19T14:01:06Z</time>
      </trkpt>
      <trkpt lat="44.29678" lon="5.64764">
        <ele>745</ele>
        <time>2019-03-19T14:01:07Z</time>
      </trkpt>
      <trkpt lat="44.29678" lon="5.64756">
        <ele>746</ele>
        <time>2019-03-19T14:01:08Z</time>
      </trkpt>
      <trkpt lat="44.29678" lon="5.64749">
        <ele>746</ele>
        <time>2019-03-19T14:01:09Z</time>
      </trkpt>
      <trkpt lat="44.29679" lon="5.64741">
        <ele>747</ele>
        <time>2019-03-19T14:01:10Z</time>
      </trkpt>
      <trkpt lat="44.29678" lon="5.64733">
        <ele>747</ele>
        <time>2019-03-19T14:01:11Z</time>
      </trkpt>
      <trkpt lat="44.29679" lon="5.64725">
        <ele>747</ele>
        <time>2019-03-19T14:01:12Z</time>
      </trkpt>
      <trkpt lat="44.2968" lon="5.64717">
        <ele>747</ele>
        <time>2019-03-19T14:01:13Z</time>
      </trkpt>
      <trkpt lat="44.2968" lon="5.64708">
        <ele>747</ele>
        <time>2019-03-19T14:01:14Z</time>
      </trkpt>
      <trkpt lat="44.29679" lon="5.64698">
        <ele>747</ele>
        <time>2019-03-19T14:01:15Z</time>
      </trkpt>
      <trkpt lat="44.29678" lon="5.6469">
        <ele>747</ele>
        <time>2019-03-19T14:01:16Z</time>
      </trkpt>
      <trkpt lat="44.29678" lon="5.64682">
        <ele>747</ele>
        <time>2019-03-19T14:01:17Z</time>
      </trkpt>
      <trkpt lat="44.29676" lon="5.64675">
        <ele>747</ele>
        <time>2019-03-19T14:01:18Z</time>
      </trkpt>
      <trkpt lat="44.29672" lon="5.64668">
        <ele>747</ele>
        <time>2019-03-19T14:01:19Z</time>
      </trkpt>
      <trkpt lat="44.29668" lon="5.64663">
        <ele>747</ele>
        <time>2019-03-19T14:01:20Z</time>
      </trkpt>
      <trkpt lat="44.29663" lon="5.64658">
        <ele>747</ele>
        <time>2019-03-19T14:01:21Z</time>
      </trkpt>
      <trkpt lat="44.29657" lon="5.64653">
        <ele>747</ele>
        <time>2019-03-19T14:01:22Z</time>
      </trkpt>
      <trkpt lat="44.29652" lon="5.64649">
        <ele>747</ele>
        <time>2019-03-19T14:01:23Z</time>
      </trkpt>
      <trkpt lat="44.29647" lon="5.64645">
        <ele>747</ele>
        <time>2019-03-19T14:01:24Z</time>
      </trkpt>
      <trkpt lat="44.29643" lon="5.64641">
        <ele>748</ele>
        <time>2019-03-19T14:01:25Z</time>
      </trkpt>
      <trkpt lat="44.29639" lon="5.64636">
        <ele>748</ele>
        <time>2019-03-19T14:01:26Z</time>
      </trkpt>
      <trkpt lat="44.29635" lon="5.64631">
        <ele>748</ele>
        <time>2019-03-19T14:01:27Z</time>
      </trkpt>
      <trkpt lat="44.29632" lon="5.64625">
        <ele>749</ele>
        <time>2019-03-19T14:01:28Z</time>
      </trkpt>
      <trkpt lat="44.29629" lon="5.64619">
        <ele>749</ele>
        <time>2019-03-19T14:01:29Z</time>
      </trkpt>
      <trkpt lat="44.29627" lon="5.64613">
        <ele>749</ele>
        <time>2019-03-19T14:01:30Z</time>
      </trkpt>
      <trkpt lat="44.29625" lon="5.64606">
        <ele>749</ele>
        <time>2019-03-19T14:01:31Z</time>
      </trkpt>
      <trkpt lat="44.29623" lon="5.646">
        <ele>749</ele>
        <time>2019-03-19T14:01:32Z</time>
      </trkpt>
      <trkpt lat="44.29621" lon="5.64592">
        <ele>749</ele>
        <time>2019-03-19T14:01:33Z</time>
      </trkpt>
      <trkpt lat="44.2962" lon="5.64585">
        <ele>749</ele>
        <time>2019-03-19T14:01:34Z</time>
      </trkpt>
      <trkpt lat="44.29618" lon="5.64578">
        <ele>749</ele>
        <time>2019-03-19T14:01:35Z</time>
      </trkpt>
      <trkpt lat="44.29616" lon="5.64571">
        <ele>749</ele>
        <time>2019-03-19T14:01:36Z</time>
      </trkpt>
      <trkpt lat="44.29615" lon="5.64564">
        <ele>749</ele>
        <time>2019-03-19T14:01:37Z</time>
      </trkpt>
      <trkpt lat="44.29613" lon="5.64557">
        <ele>750</ele>
        <time>2019-03-19T14:01:38Z</time>
      </trkpt>
      <trkpt lat="44.29612" lon="5.64549">
        <ele>750</ele>
        <time>2019-03-19T14:01:39Z</time>
      </trkpt>
      <trkpt lat="44.2961" lon="5.64542">
        <ele>750</ele>
        <time>2019-03-19T14:01:40Z</time>
      </trkpt>
      <trkpt lat="44.29609" lon="5.64535">
        <ele>750</ele>
        <time>2019-03-19T14:01:41Z</time>
      </trkpt>
      <trkpt lat="44.29608" lon="5.64528">
        <ele>750</ele>
        <time>2019-03-19T14:01:42Z</time>
      </trkpt>
      <trkpt lat="44.29607" lon="5.64521">
        <ele>750</ele>
        <time>2019-03-19T14:01:43Z</time>
      </trkpt>
      <trkpt lat="44.29606" lon="5.64514">
        <ele>750</ele>
        <time>2019-03-19T14:01:44Z</time>
      </trkpt>
      <trkpt lat="44.29604" lon="5.64507">
        <ele>751</ele>
        <time>2019-03-19T14:01:45Z</time>
      </trkpt>
      <trkpt lat="44.29603" lon="5.64499">
        <ele>751</ele>
        <time>2019-03-19T14:01:46Z</time>
      </trkpt>
      <trkpt lat="44.29601" lon="5.64492">
        <ele>751</ele>
        <time>2019-03-19T14:01:47Z</time>
      </trkpt>
      <trkpt lat="44.29599" lon="5.64484">
        <ele>751</ele>
        <time>2019-03-19T14:01:48Z</time>
      </trkpt>
      <trkpt lat="44.29597" lon="5.64477">
        <ele>751</ele>
        <time>2019-03-19T14:01:49Z</time>
      </trkpt>
      <trkpt lat="44.29595" lon="5.64469">
        <ele>751</ele>
        <time>2019-03-19T14:01:50Z</time>
      </trkpt>
      <trkpt lat="44.29593" lon="5.64462">
        <ele>751</ele>
        <time>2019-03-19T14:01:51Z</time>
      </trkpt>
      <trkpt lat="44.29591" lon="5.64455">
        <ele>751</ele>
        <time>2019-03-19T14:01:52Z</time>
      </trkpt>
      <trkpt lat="44.29589" lon="5.64447">
        <ele>751</ele>
        <time>2019-03-19T14:01:53Z</time>
      </trkpt>
      <trkpt lat="44.29586" lon="5.6444">
        <ele>751</ele>
        <time>2019-03-19T14:01:54Z</time>
      </trkpt>
      <trkpt lat="44.29584" lon="5.64432">
        <ele>751</ele>
        <time>2019-03-19T14:01:55Z</time>
      </trkpt>
      <trkpt lat="44.29581" lon="5.64425">
        <ele>751</ele>
        <time>2019-03-19T14:01:56Z</time>
      </trkpt>
      <trkpt lat="44.29579" lon="5.64418">
        <ele>751</ele>
        <time>2019-03-19T14:01:57Z</time>
      </trkpt>
      <trkpt lat="44.29576" lon="5.6441">
        <ele>751</ele>
        <time>2019-03-19T14:01:58Z</time>
      </trkpt>
      <trkpt lat="44.29573" lon="5.64403">
        <ele>751</ele>
        <time>2019-03-19T14:01:59Z</time>
      </trkpt>
      <trkpt lat="44.2957" lon="5.64395">
        <ele>751</ele>
        <time>2019-03-19T14:02:00Z</time>
      </trkpt>
      <trkpt lat="44.29568" lon="5.64388">
        <ele>751</ele>
        <time>2019-03-19T14:02:01Z</time>
      </trkpt>
      <trkpt lat="44.29565" lon="5.64381">
        <ele>751</ele>
        <time>2019-03-19T14:02:02Z</time>
      </trkpt>
      <trkpt lat="44.29562" lon="5.64373">
        <ele>751</ele>
        <time>2019-03-19T14:02:03Z</time>
      </trkpt>
      <trkpt lat="44.29559" lon="5.64366">
        <ele>751</ele>
        <time>2019-03-19T14:02:04Z</time>
      </trkpt>
      <trkpt lat="44.29555" lon="5.64359">
        <ele>751</ele>
        <time>2019-03-19T14:02:05Z</time>
      </trkpt>
      <trkpt lat="44.29552" lon="5.64352">
        <ele>751</ele>
        <time>2019-03-19T14:02:06Z</time>
      </trkpt>
      <trkpt lat="44.29548" lon="5.64345">
        <ele>751</ele>
        <time>2019-03-19T14:02:07Z</time>
      </trkpt>
      <trkpt lat="44.29544" lon="5.64338">
        <ele>751</ele>
        <time>2019-03-19T14:02:08Z</time>
      </trkpt>
      <trkpt lat="44.29541" lon="5.64331">
        <ele>751</ele>
        <time>2019-03-19T14:02:09Z</time>
      </trkpt>
      <trkpt lat="44.29538" lon="5.64325">
        <ele>751</ele>
        <time>2019-03-19T14:02:10Z</time>
      </trkpt>
      <trkpt lat="44.29534" lon="5.64318">
        <ele>752</ele>
        <time>2019-03-19T14:02:11Z</time>
      </trkpt>
      <trkpt lat="44.29531" lon="5.64311">
        <ele>752</ele>
        <time>2019-03-19T14:02:12Z</time>
      </trkpt>
      <trkpt lat="44.29528" lon="5.64304">
        <ele>752</ele>
        <time>2019-03-19T14:02:13Z</time>
      </trkpt>
      <trkpt lat="44.29525" lon="5.64297">
        <ele>752</ele>
        <time>2019-03-19T14:02:14Z</time>
      </trkpt>
      <trkpt lat="44.29522" lon="5.6429">
        <ele>752</ele>
        <time>2019-03-19T14:02:15Z</time>
      </trkpt>
      <trkpt lat="44.29519" lon="5.64283">
        <ele>752</ele>
        <time>2019-03-19T14:02:16Z</time>
      </trkpt>
      <trkpt lat="44.29516" lon="5.64276">
        <ele>752</ele>
        <time>2019-03-19T14:02:17Z</time>
      </trkpt>
      <trkpt lat="44.29513" lon="5.64269">
        <ele>752</ele>
        <time>2019-03-19T14:02:18Z</time>
      </trkpt>
      <trkpt lat="44.29509" lon="5.64261">
        <ele>752</ele>
        <time>2019-03-19T14:02:19Z</time>
      </trkpt>
      <trkpt lat="44.29506" lon="5.64254">
        <ele>752</ele>
        <time>2019-03-19T14:02:20Z</time>
      </trkpt>
      <trkpt lat="44.29502" lon="5.64247">
        <ele>752</ele>
        <time>2019-03-19T14:02:21Z</time>
      </trkpt>
      <trkpt lat="44.29498" lon="5.64241">
        <ele>752</ele>
        <time>2019-03-19T14:02:22Z</time>
      </trkpt>
      <trkpt lat="44.29494" lon="5.64234">
        <ele>752</ele>
        <time>2019-03-19T14:02:23Z</time>
      </trkpt>
      <trkpt lat="44.2949" lon="5.64228">
        <ele>752</ele>
        <time>2019-03-19T14:02:24Z</time>
      </trkpt>
      <trkpt lat="44.29485" lon="5.64222">
        <ele>752</ele>
        <time>2019-03-19T14:02:25Z</time>
      </trkpt>
      <trkpt lat="44.29481" lon="5.64216">
        <ele>752</ele>
        <time>2019-03-19T14:02:26Z</time>
      </trkpt>
      <trkpt lat="44.29477" lon="5.64209">
        <ele>752</ele>
        <time>2019-03-19T14:02:27Z</time>
      </trkpt>
      <trkpt lat="44.29473" lon="5.64202">
        <ele>752</ele>
        <time>2019-03-19T14:02:28Z</time>
      </trkpt>
      <trkpt lat="44.29469" lon="5.64195">
        <ele>752</ele>
        <time>2019-03-19T14:02:29Z</time>
      </trkpt>
      <trkpt lat="44.29465" lon="5.64187">
        <ele>752</ele>
        <time>2019-03-19T14:02:30Z</time>
      </trkpt>
      <trkpt lat="44.29462" lon="5.64179">
        <ele>752</ele>
        <time>2019-03-19T14:02:31Z</time>
      </trkpt>
      <trkpt lat="44.29461" lon="5.64171">
        <ele>752</ele>
        <time>2019-03-19T14:02:32Z</time>
      </trkpt>
      <trkpt lat="44.29459" lon="5.64162">
        <ele>752</ele>
        <time>2019-03-19T14:02:33Z</time>
      </trkpt>
      <trkpt lat="44.29457" lon="5.64152">
        <ele>752</ele>
        <time>2019-03-19T14:02:34Z</time>
      </trkpt>
      <trkpt lat="44.29456" lon="5.64143">
        <ele>752</ele>
        <time>2019-03-19T14:02:35Z</time>
      </trkpt>
      <trkpt lat="44.29455" lon="5.64134">
        <ele>752</ele>
        <time>2019-03-19T14:02:36Z</time>
      </trkpt>
      <trkpt lat="44.29454" lon="5.64124">
        <ele>752</ele>
        <time>2019-03-19T14:02:37Z</time>
      </trkpt>
      <trkpt lat="44.29454" lon="5.64114">
        <ele>752</ele>
        <time>2019-03-19T14:02:38Z</time>
      </trkpt>
      <trkpt lat="44.29453" lon="5.64104">
        <ele>752</ele>
        <time>2019-03-19T14:02:39Z</time>
      </trkpt>
      <trkpt lat="44.29451" lon="5.64094">
        <ele>752</ele>
        <time>2019-03-19T14:02:40Z</time>
      </trkpt>
      <trkpt lat="44.2945" lon="5.64084">
        <ele>752</ele>
        <time>2019-03-19T14:02:41Z</time>
      </trkpt>
      <trkpt lat="44.29448" lon="5.64075">
        <ele>752</ele>
        <time>2019-03-19T14:02:42Z</time>
      </trkpt>
      <trkpt lat="44.29446" lon="5.64065">
        <ele>752</ele>
        <time>2019-03-19T14:02:43Z</time>
      </trkpt>
      <trkpt lat="44.29443" lon="5.64055">
        <ele>752</ele>
        <time>2019-03-19T14:02:44Z</time>
      </trkpt>
      <trkpt lat="44.29441" lon="5.64046">
        <ele>752</ele>
        <time>2019-03-19T14:02:45Z</time>
      </trkpt>
      <trkpt lat="44.29437" lon="5.64037">
        <ele>752</ele>
        <time>2019-03-19T14:02:46Z</time>
      </trkpt>
      <trkpt lat="44.29434" lon="5.64027">
        <ele>752</ele>
        <time>2019-03-19T14:02:47Z</time>
      </trkpt>
      <trkpt lat="44.2943" lon="5.64018">
        <ele>752</ele>
        <time>2019-03-19T14:02:48Z</time>
      </trkpt>
      <trkpt lat="44.29427" lon="5.6401">
        <ele>752</ele>
        <time>2019-03-19T14:02:49Z</time>
      </trkpt>
      <trkpt lat="44.29424" lon="5.64001">
        <ele>752</ele>
        <time>2019-03-19T14:02:50Z</time>
      </trkpt>
      <trkpt lat="44.29421" lon="5.63993">
        <ele>752</ele>
        <time>2019-03-19T14:02:51Z</time>
      </trkpt>
      <trkpt lat="44.29418" lon="5.63985">
        <ele>752</ele>
        <time>2019-03-19T14:02:52Z</time>
      </trkpt>
      <trkpt lat="44.29414" lon="5.63977">
        <ele>752</ele>
        <time>2019-03-19T14:02:53Z</time>
      </trkpt>
      <trkpt lat="44.29409" lon="5.6397">
        <ele>752</ele>
        <time>2019-03-19T14:02:54Z</time>
      </trkpt>
      <trkpt lat="44.29405" lon="5.63962">
        <ele>752</ele>
        <time>2019-03-19T14:02:55Z</time>
      </trkpt>
      <trkpt lat="44.29401" lon="5.63955">
        <ele>752</ele>
        <time>2019-03-19T14:02:56Z</time>
      </trkpt>
      <trkpt lat="44.29397" lon="5.63947">
        <ele>752</ele>
        <time>2019-03-19T14:02:57Z</time>
      </trkpt>
      <trkpt lat="44.29392" lon="5.6394">
        <ele>752</ele>
        <time>2019-03-19T14:02:58Z</time>
      </trkpt>
      <trkpt lat="44.29387" lon="5.63933">
        <ele>752</ele>
        <time>2019-03-19T14:02:59Z</time>
      </trkpt>
      <trkpt lat="44.29381" lon="5.63927">
        <ele>752</ele>
        <time>2019-03-19T14:03:00Z</time>
      </trkpt>
      <trkpt lat="44.29375" lon="5.63921">
        <ele>752</ele>
        <time>2019-03-19T14:03:01Z</time>
      </trkpt>
      <trkpt lat="44.2937" lon="5.63915">
        <ele>752</ele>
        <time>2019-03-19T14:03:02Z</time>
      </trkpt>
      <trkpt lat="44.29364" lon="5.63909">
        <ele>752</ele>
        <time>2019-03-19T14:03:03Z</time>
      </trkpt>
      <trkpt lat="44.29358" lon="5.63903">
        <ele>752</ele>
        <time>2019-03-19T14:03:04Z</time>
      </trkpt>
      <trkpt lat="44.29353" lon="5.63897">
        <ele>752</ele>
        <time>2019-03-19T14:03:05Z</time>
      </trkpt>
      <trkpt lat="44.29348" lon="5.63891">
        <ele>752</ele>
        <time>2019-03-19T14:03:06Z</time>
      </trkpt>
      <trkpt lat="44.29343" lon="5.63884">
        <ele>752</ele>
        <time>2019-03-19T14:03:07Z</time>
      </trkpt>
      <trkpt lat="44.29338" lon="5.63877">
        <ele>752</ele>
        <time>2019-03-19T14:03:08Z</time>
      </trkpt>
      <trkpt lat="44.29334" lon="5.6387">
        <ele>752</ele>
        <time>2019-03-19T14:03:09Z</time>
      </trkpt>
      <trkpt lat="44.29329" lon="5.63864">
        <ele>752</ele>
        <time>2019-03-19T14:03:10Z</time>
      </trkpt>
      <trkpt lat="44.29324" lon="5.63857">
        <ele>752</ele>
        <time>2019-03-19T14:03:11Z</time>
      </trkpt>
      <trkpt lat="44.29319" lon="5.6385">
        <ele>752</ele>
        <time>2019-03-19T14:03:12Z</time>
      </trkpt>
      <trkpt lat="44.29315" lon="5.63843">
        <ele>752</ele>
        <time>2019-03-19T14:03:13Z</time>
      </trkpt>
      <trkpt lat="44.29311" lon="5.63836">
        <ele>752</ele>
        <time>2019-03-19T14:03:14Z</time>
      </trkpt>
      <trkpt lat="44.29306" lon="5.6383">
        <ele>752</ele>
        <time>2019-03-19T14:03:15Z</time>
      </trkpt>
      <trkpt lat="44.29301" lon="5.63823">
        <ele>752</ele>
        <time>2019-03-19T14:03:16Z</time>
      </trkpt>
      <trkpt lat="44.29297" lon="5.63816">
        <ele>752</ele>
        <time>2019-03-19T14:03:17Z</time>
      </trkpt>
      <trkpt lat="44.29292" lon="5.63809">
        <ele>752</ele>
        <time>2019-03-19T14:03:18Z</time>
      </trkpt>
      <trkpt lat="44.29288" lon="5.63802">
        <ele>752</ele>
        <time>2019-03-19T14:03:19Z</time>
      </trkpt>
      <trkpt lat="44.29284" lon="5.63795">
        <ele>752</ele>
        <time>2019-03-19T14:03:20Z</time>
      </trkpt>
      <trkpt lat="44.29281" lon="5.63787">
        <ele>752</ele>
        <time>2019-03-19T14:03:21Z</time>
      </trkpt>
      <trkpt lat="44.29278" lon="5.63779">
        <ele>752</ele>
        <time>2019-03-19T14:03:22Z</time>
      </trkpt>
      <trkpt lat="44.29276" lon="5.6377">
        <ele>752</ele>
        <time>2019-03-19T14:03:23Z</time>
      </trkpt>
      <trkpt lat="44.29274" lon="5.63761">
        <ele>752</ele>
        <time>2019-03-19T14:03:24Z</time>
      </trkpt>
      <trkpt lat="44.29273" lon="5.63752">
        <ele>752</ele>
        <time>2019-03-19T14:03:25Z</time>
      </trkpt>
      <trkpt lat="44.29273" lon="5.63742">
        <ele>752</ele>
        <time>2019-03-19T14:03:26Z</time>
      </trkpt>
      <trkpt lat="44.29273" lon="5.63733">
        <ele>752</ele>
        <time>2019-03-19T14:03:27Z</time>
      </trkpt>
      <trkpt lat="44.29273" lon="5.63725">
        <ele>752</ele>
        <time>2019-03-19T14:03:28Z</time>
      </trkpt>
      <trkpt lat="44.29274" lon="5.63716">
        <ele>752</ele>
        <time>2019-03-19T14:03:29Z</time>
      </trkpt>
      <trkpt lat="44.29274" lon="5.63707">
        <ele>752</ele>
        <time>2019-03-19T14:03:30Z</time>
      </trkpt>
      <trkpt lat="44.29275" lon="5.63699">
        <ele>752</ele>
        <time>2019-03-19T14:03:31Z</time>
      </trkpt>
      <trkpt lat="44.29275" lon="5.63691">
        <ele>752</ele>
        <time>2019-03-19T14:03:32Z</time>
      </trkpt>
      <trkpt lat="44.29276" lon="5.63683">
        <ele>752</ele>
        <time>2019-03-19T14:03:33Z</time>
      </trkpt>
      <trkpt lat="44.29276" lon="5.63675">
        <ele>752</ele>
        <time>2019-03-19T14:03:34Z</time>
      </trkpt>
      <trkpt lat="44.29275" lon="5.63667">
        <ele>752</ele>
        <time>2019-03-19T14:03:35Z</time>
      </trkpt>
      <trkpt lat="44.29275" lon="5.6366">
        <ele>752</ele>
        <time>2019-03-19T14:03:36Z</time>
      </trkpt>
      <trkpt lat="44.29274" lon="5.63653">
        <ele>752</ele>
        <time>2019-03-19T14:03:37Z</time>
      </trkpt>
      <trkpt lat="44.29273" lon="5.63645">
        <ele>752</ele>
        <time>2019-03-19T14:03:38Z</time>
      </trkpt>
      <trkpt lat="44.29271" lon="5.63638">
        <ele>752</ele>
        <time>2019-03-19T14:03:39Z</time>
      </trkpt>
      <trkpt lat="44.29269" lon="5.63631">
        <ele>752</ele>
        <time>2019-03-19T14:03:40Z</time>
      </trkpt>
      <trkpt lat="44.29267" lon="5.63625">
        <ele>752</ele>
        <time>2019-03-19T14:03:41Z</time>
      </trkpt>
      <trkpt lat="44.29265" lon="5.63619">
        <ele>752</ele>
        <time>2019-03-19T14:03:42Z</time>
      </trkpt>
      <trkpt lat="44.29261" lon="5.63613">
        <ele>752</ele>
        <time>2019-03-19T14:03:43Z</time>
      </trkpt>
      <trkpt lat="44.29257" lon="5.63607">
        <ele>752</ele>
        <time>2019-03-19T14:03:44Z</time>
      </trkpt>
      <trkpt lat="44.29253" lon="5.63601">
        <ele>752</ele>
        <time>2019-03-19T14:03:45Z</time>
      </trkpt>
      <trkpt lat="44.29248" lon="5.63595">
        <ele>752</ele>
        <time>2019-03-19T14:03:46Z</time>
      </trkpt>
      <trkpt lat="44.29243" lon="5.6359">
        <ele>752</ele>
        <time>2019-03-19T14:03:47Z</time>
      </trkpt>
      <trkpt lat="44.29239" lon="5.63586">
        <ele>752</ele>
        <time>2019-03-19T14:03:48Z</time>
      </trkpt>
      <trkpt lat="44.29235" lon="5.63581">
        <ele>752</ele>
        <time>2019-03-19T14:03:49Z</time>
      </trkpt>
      <trkpt lat="44.29231" lon="5.63575">
        <ele>752</ele>
        <time>2019-03-19T14:03:50Z</time>
      </trkpt>
      <trkpt lat="44.29227" lon="5.6357">
        <ele>752</ele>
        <time>2019-03-19T14:03:51Z</time>
      </trkpt>
      <trkpt lat="44.29223" lon="5.63564">
        <ele>752</ele>
        <time>2019-03-19T14:03:52Z</time>
      </trkpt>
      <trkpt lat="44.2922" lon="5.63558">
        <ele>752</ele>
        <time>2019-03-19T14:03:53Z</time>
      </trkpt>
      <trkpt lat="44.29216" lon="5.63551">
        <ele>752</ele>
        <time>2019-03-19T14:03:54Z</time>
      </trkpt>
      <trkpt lat="44.29213" lon="5.63545">
        <ele>752</ele>
        <time>2019-03-19T14:03:55Z</time>
      </trkpt>
      <trkpt lat="44.2921" lon="5.63538">
        <ele>752</ele>
        <time>2019-03-19T14:03:56Z</time>
      </trkpt>
      <trkpt lat="44.29206" lon="5.63531">
        <ele>752</ele>
        <time>2019-03-19T14:03:57Z</time>
      </trkpt>
      <trkpt lat="44.29204" lon="5.63525">
        <ele>752</ele>
        <time>2019-03-19T14:03:58Z</time>
      </trkpt>
      <trkpt lat="44.29201" lon="5.63518">
        <ele>752</ele>
        <time>2019-03-19T14:03:59Z</time>
      </trkpt>
      <trkpt lat="44.29198" lon="5.63512">
        <ele>752</ele>
        <time>2019-03-19T14:04:00Z</time>
      </trkpt>
      <trkpt lat="44.29195" lon="5.63506">
        <ele>752</ele>
        <time>2019-03-19T14:04:01Z</time>
      </trkpt>
      <trkpt lat="44.29192" lon="5.635">
        <ele>752</ele>
        <time>2019-03-19T14:04:02Z</time>
      </trkpt>
      <trkpt lat="44.29189" lon="5.63494">
        <ele>752</ele>
        <time>2019-03-19T14:04:03Z</time>
      </trkpt>
      <trkpt lat="44.29187" lon="5.63488">
        <ele>752</ele>
        <time>2019-03-19T14:04:04Z</time>
      </trkpt>
      <trkpt lat="44.29184" lon="5.63482">
        <ele>752</ele>
        <time>2019-03-19T14:04:05Z</time>
      </trkpt>
      <trkpt lat="44.29181" lon="5.63476">
        <ele>752</ele>
        <time>2019-03-19T14:04:06Z</time>
      </trkpt>
      <trkpt lat="44.29178" lon="5.63471">
        <ele>752</ele>
        <time>2019-03-19T14:04:07Z</time>
      </trkpt>
      <trkpt lat="44.29176" lon="5.63465">
        <ele>752</ele>
        <time>2019-03-19T14:04:08Z</time>
      </trkpt>
      <trkpt lat="44.29173" lon="5.63459">
        <ele>752</ele>
        <time>2019-03-19T14:04:09Z</time>
      </trkpt>
      <trkpt lat="44.29171" lon="5.63453">
        <ele>752</ele>
        <time>2019-03-19T14:04:10Z</time>
      </trkpt>
      <trkpt lat="44.29169" lon="5.63446">
        <ele>752</ele>
        <time>2019-03-19T14:04:11Z</time>
      </trkpt>
      <trkpt lat="44.29167" lon="5.6344">
        <ele>752</ele>
        <time>2019-03-19T14:04:12Z</time>
      </trkpt>
      <trkpt lat="44.29166" lon="5.63433">
        <ele>752</ele>
        <time>2019-03-19T14:04:13Z</time>
      </trkpt>
      <trkpt lat="44.29164" lon="5.63426">
        <ele>752</ele>
        <time>2019-03-19T14:04:14Z</time>
      </trkpt>
      <trkpt lat="44.29163" lon="5.63419">
        <ele>752</ele>
        <time>2019-03-19T14:04:15Z</time>
      </trkpt>
      <trkpt lat="44.29162" lon="5.63413">
        <ele>752</ele>
        <time>2019-03-19T14:04:16Z</time>
      </trkpt>
      <trkpt lat="44.29161" lon="5.63406">
        <ele>752</ele>
        <time>2019-03-19T14:04:17Z</time>
      </trkpt>
      <trkpt lat="44.2916" lon="5.63399">
        <ele>752</ele>
        <time>2019-03-19T14:04:18Z</time>
      </trkpt>
      <trkpt lat="44.29158" lon="5.63392">
        <ele>752</ele>
        <time>2019-03-19T14:04:19Z</time>
      </trkpt>
      <trkpt lat="44.29157" lon="5.63385">
        <ele>752</ele>
        <time>2019-03-19T14:04:20Z</time>
      </trkpt>
      <trkpt lat="44.29156" lon="5.63378">
        <ele>752</ele>
        <time>2019-03-19T14:04:21Z</time>
      </trkpt>
      <trkpt lat="44.29155" lon="5.63372">
        <ele>752</ele>
        <time>2019-03-19T14:04:22Z</time>
      </trkpt>
      <trkpt lat="44.29154" lon="5.63365">
        <ele>752</ele>
        <time>2019-03-19T14:04:23Z</time>
      </trkpt>
      <trkpt lat="44.29153" lon="5.63357">
        <ele>752</ele>
        <time>2019-03-19T14:04:24Z</time>
      </trkpt>
      <trkpt lat="44.29152" lon="5.63351">
        <ele>752</ele>
        <time>2019-03-19T14:04:25Z</time>
      </trkpt>
      <trkpt lat="44.29151" lon="5.63343">
        <ele>752</ele>
        <time>2019-03-19T14:04:26Z</time>
      </trkpt>
      <trkpt lat="44.2915" lon="5.63337">
        <ele>752</ele>
        <time>2019-03-19T14:04:27Z</time>
      </trkpt>
      <trkpt lat="44.2915" lon="5.6333">
        <ele>752</ele>
        <time>2019-03-19T14:04:28Z</time>
      </trkpt>
      <trkpt lat="44.29148" lon="5.63322">
        <ele>752</ele>
        <time>2019-03-19T14:04:29Z</time>
      </trkpt>
      <trkpt lat="44.29147" lon="5.63316">
        <ele>752</ele>
        <time>2019-03-19T14:04:30Z</time>
      </trkpt>
      <trkpt lat="44.29146" lon="5.63309">
        <ele>752</ele>
        <time>2019-03-19T14:04:31Z</time>
      </trkpt>
      <trkpt lat="44.29146" lon="5.63302">
        <ele>752</ele>
        <time>2019-03-19T14:04:32Z</time>
      </trkpt>
      <trkpt lat="44.29145" lon="5.63294">
        <ele>752</ele>
        <time>2019-03-19T14:04:33Z</time>
      </trkpt>
      <trkpt lat="44.29145" lon="5.63287">
        <ele>752</ele>
        <time>2019-03-19T14:04:34Z</time>
      </trkpt>
      <trkpt lat="44.29144" lon="5.63279">
        <ele>753</ele>
        <time>2019-03-19T14:04:35Z</time>
      </trkpt>
      <trkpt lat="44.29144" lon="5.63272">
        <ele>753</ele>
        <time>2019-03-19T14:04:36Z</time>
      </trkpt>
      <trkpt lat="44.29144" lon="5.63265">
        <ele>753</ele>
        <time>2019-03-19T14:04:37Z</time>
      </trkpt>
      <trkpt lat="44.29144" lon="5.63258">
        <ele>753</ele>
        <time>2019-03-19T14:04:38Z</time>
      </trkpt>
      <trkpt lat="44.29144" lon="5.6325">
        <ele>754</ele>
        <time>2019-03-19T14:04:39Z</time>
      </trkpt>
      <trkpt lat="44.29145" lon="5.63243">
        <ele>754</ele>
        <time>2019-03-19T14:04:40Z</time>
      </trkpt>
      <trkpt lat="44.29146" lon="5.63236">
        <ele>754</ele>
        <time>2019-03-19T14:04:41Z</time>
      </trkpt>
      <trkpt lat="44.29147" lon="5.63228">
        <ele>755</ele>
        <time>2019-03-19T14:04:42Z</time>
      </trkpt>
      <trkpt lat="44.29148" lon="5.63221">
        <ele>755</ele>
        <time>2019-03-19T14:04:43Z</time>
      </trkpt>
      <trkpt lat="44.29149" lon="5.63214">
        <ele>756</ele>
        <time>2019-03-19T14:04:44Z</time>
      </trkpt>
      <trkpt lat="44.2915" lon="5.63207">
        <ele>756</ele>
        <time>2019-03-19T14:04:45Z</time>
      </trkpt>
      <trkpt lat="44.29151" lon="5.632">
        <ele>757</ele>
        <time>2019-03-19T14:04:46Z</time>
      </trkpt>
      <trkpt lat="44.29152" lon="5.63193">
        <ele>757</ele>
        <time>2019-03-19T14:04:47Z</time>
      </trkpt>
      <trkpt lat="44.29153" lon="5.63186">
        <ele>758</ele>
        <time>2019-03-19T14:04:48Z</time>
      </trkpt>
      <trkpt lat="44.29154" lon="5.63179">
        <ele>758</ele>
        <time>2019-03-19T14:04:49Z</time>
      </trkpt>
      <trkpt lat="44.29155" lon="5.63173">
        <ele>758</ele>
        <time>2019-03-19T14:04:50Z</time>
      </trkpt>
      <trkpt lat="44.29157" lon="5.63166">
        <ele>759</ele>
        <time>2019-03-19T14:04:51Z</time>
      </trkpt>
      <trkpt lat="44.29158" lon="5.6316">
        <ele>759</ele>
        <time>2019-03-19T14:04:52Z</time>
      </trkpt>
      <trkpt lat="44.29158" lon="5.63153">
        <ele>759</ele>
        <time>2019-03-19T14:04:53Z</time>
      </trkpt>
      <trkpt lat="44.29159" lon="5.63145">
        <ele>759</ele>
        <time>2019-03-19T14:04:54Z</time>
      </trkpt>
      <trkpt lat="44.29159" lon="5.63138">
        <ele>759</ele>
        <time>2019-03-19T14:04:55Z</time>
      </trkpt>
      <trkpt lat="44.29159" lon="5.63131">
        <ele>759</ele>
        <time>2019-03-19T14:04:56Z</time>
      </trkpt>
      <trkpt lat="44.29159" lon="5.63124">
        <ele>759</ele>
        <time>2019-03-19T14:04:57Z</time>
      </trkpt>
      <trkpt lat="44.29158" lon="5.63116">
        <ele>759</ele>
        <time>2019-03-19T14:04:58Z</time>
      </trkpt>
      <trkpt lat="44.29158" lon="5.63109">
        <ele>759</ele>
        <time>2019-03-19T14:04:59Z</time>
      </trkpt>
      <trkpt lat="44.29158" lon="5.63102">
        <ele>759</ele>
        <time>2019-03-19T14:05:00Z</time>
      </trkpt>
      <trkpt lat="44.29157" lon="5.63095">
        <ele>760</ele>
        <time>2019-03-19T14:05:01Z</time>
      </trkpt>
      <trkpt lat="44.29157" lon="5.63088">
        <ele>760</ele>
        <time>2019-03-19T14:05:02Z</time>
      </trkpt>
      <trkpt lat="44.29156" lon="5.63081">
        <ele>760</ele>
        <time>2019-03-19T14:05:03Z</time>
      </trkpt>
      <trkpt lat="44.29156" lon="5.63074">
        <ele>760</ele>
        <time>2019-03-19T14:05:04Z</time>
      </trkpt>
      <trkpt lat="44.29156" lon="5.63067">
        <ele>760</ele>
        <time>2019-03-19T14:05:05Z</time>
      </trkpt>
      <trkpt lat="44.29155" lon="5.6306">
        <ele>760</ele>
        <time>2019-03-19T14:05:06Z</time>
      </trkpt>
      <trkpt lat="44.29155" lon="5.63053">
        <ele>760</ele>
        <time>2019-03-19T14:05:07Z</time>
      </trkpt>
      <trkpt lat="44.29154" lon="5.63046">
        <ele>760</ele>
        <time>2019-03-19T14:05:08Z</time>
      </trkpt>
      <trkpt lat="44.29154" lon="5.63039">
        <ele>760</ele>
        <time>2019-03-19T14:05:09Z</time>
      </trkpt>
      <trkpt lat="44.29153" lon="5.63033">
        <ele>760</ele>
        <time>2019-03-19T14:05:10Z</time>
      </trkpt>
      <trkpt lat="44.29153" lon="5.63026">
        <ele>760</ele>
        <time>2019-03-19T14:05:11Z</time>
      </trkpt>
      <trkpt lat="44.29153" lon="5.63019">
        <ele>760</ele>
        <time>2019-03-19T14:05:12Z</time>
      </trkpt>
      <trkpt lat="44.29152" lon="5.63012">
        <ele>760</ele>
        <time>2019-03-19T14:05:13Z</time>
      </trkpt>
      <trkpt lat="44.29152" lon="5.63005">
        <ele>760</ele>
        <time>2019-03-19T14:05:14Z</time>
      </trkpt>
      <trkpt lat="44.29151" lon="5.62998">
        <ele>760</ele>
        <time>2019-03-19T14:05:15Z</time>
      </trkpt>
      <trkpt lat="44.2915" lon="5.62992">
        <ele>760</ele>
        <time>2019-03-19T14:05:16Z</time>
      </trkpt>
      <trkpt lat="44.2915" lon="5.62985">
        <ele>760</ele>
        <time>2019-03-19T14:05:17Z</time>
      </trkpt>
      <trkpt lat="44.2915" lon="5.62978">
        <ele>760</ele>
        <time>2019-03-19T14:05:18Z</time>
      </trkpt>
      <trkpt lat="44.29149" lon="5.62971">
        <ele>760</ele>
        <time>2019-03-19T14:05:19Z</time>
      </trkpt>
      <trkpt lat="44.29148" lon="5.62964">
        <ele>760</ele>
        <time>2019-03-19T14:05:20Z</time>
      </trkpt>
      <trkpt lat="44.29148" lon="5.62958">
        <ele>761</ele>
        <time>2019-03-19T14:05:21Z</time>
      </trkpt>
      <trkpt lat="44.29147" lon="5.62951">
        <ele>761</ele>
        <time>2019-03-19T14:05:22Z</time>
      </trkpt>
      <trkpt lat="44.29147" lon="5.62945">
        <ele>761</ele>
        <time>2019-03-19T14:05:23Z</time>
      </trkpt>
      <trkpt lat="44.29146" lon="5.62938">
        <ele>761</ele>
        <time>2019-03-19T14:05:24Z</time>
      </trkpt>
      <trkpt lat="44.29145" lon="5.62931">
        <ele>761</ele>
        <time>2019-03-19T14:05:25Z</time>
      </trkpt>
      <trkpt lat="44.29145" lon="5.62924">
        <ele>761</ele>
        <time>2019-03-19T14:05:26Z</time>
      </trkpt>
      <trkpt lat="44.29143" lon="5.62918">
        <ele>761</ele>
        <time>2019-03-19T14:05:27Z</time>
      </trkpt>
      <trkpt lat="44.29142" lon="5.62911">
        <ele>761</ele>
        <time>2019-03-19T14:05:28Z</time>
      </trkpt>
      <trkpt lat="44.29141" lon="5.62904">
        <ele>761</ele>
        <time>2019-03-19T14:05:29Z</time>
      </trkpt>
      <trkpt lat="44.29139" lon="5.62897">
        <ele>761</ele>
        <time>2019-03-19T14:05:30Z</time>
      </trkpt>
      <trkpt lat="44.29138" lon="5.6289">
        <ele>761</ele>
        <time>2019-03-19T14:05:31Z</time>
      </trkpt>
      <trkpt lat="44.29137" lon="5.62883">
        <ele>762</ele>
        <time>2019-03-19T14:05:32Z</time>
      </trkpt>
      <trkpt lat="44.29135" lon="5.62877">
        <ele>762</ele>
        <time>2019-03-19T14:05:33Z</time>
      </trkpt>
      <trkpt lat="44.29133" lon="5.62871">
        <ele>762</ele>
        <time>2019-03-19T14:05:34Z</time>
      </trkpt>
      <trkpt lat="44.29131" lon="5.62864">
        <ele>762</ele>
        <time>2019-03-19T14:05:35Z</time>
      </trkpt>
      <trkpt lat="44.29129" lon="5.62858">
        <ele>762</ele>
        <time>2019-03-19T14:05:36Z</time>
      </trkpt>
      <trkpt lat="44.29127" lon="5.62852">
        <ele>762</ele>
        <time>2019-03-19T14:05:37Z</time>
      </trkpt>
      <trkpt lat="44.29124" lon="5.62846">
        <ele>763</ele>
        <time>2019-03-19T14:05:38Z</time>
      </trkpt>
      <trkpt lat="44.29121" lon="5.62841">
        <ele>763</ele>
        <time>2019-03-19T14:05:39Z</time>
      </trkpt>
      <trkpt lat="44.29119" lon="5.62835">
        <ele>763</ele>
        <time>2019-03-19T14:05:40Z</time>
      </trkpt>
      <trkpt lat="44.29116" lon="5.6283">
        <ele>763</ele>
        <time>2019-03-19T14:05:41Z</time>
      </trkpt>
      <trkpt lat="44.29113" lon="5.62824">
        <ele>763</ele>
        <time>2019-03-19T14:05:42Z</time>
      </trkpt>
      <trkpt lat="44.2911" lon="5.62819">
        <ele>763</ele>
        <time>2019-03-19T14:05:43Z</time>
      </trkpt>
      <trkpt lat="44.29107" lon="5.62815">
        <ele>763</ele>
        <time>2019-03-19T14:05:44Z</time>
      </trkpt>
      <trkpt lat="44.29104" lon="5.6281">
        <ele>764</ele>
        <time>2019-03-19T14:05:45Z</time>
      </trkpt>
      <trkpt lat="44.291" lon="5.62805">
        <ele>764</ele>
        <time>2019-03-19T14:05:46Z</time>
      </trkpt>
      <trkpt lat="44.29097" lon="5.62801">
        <ele>764</ele>
        <time>2019-03-19T14:05:47Z</time>
      </trkpt>
      <trkpt lat="44.29094" lon="5.62796">
        <ele>764</ele>
        <time>2019-03-19T14:05:48Z</time>
      </trkpt>
      <trkpt lat="44.2909" lon="5.62792">
        <ele>764</ele>
        <time>2019-03-19T14:05:49Z</time>
      </trkpt>
      <trkpt lat="44.29087" lon="5.62788">
        <ele>764</ele>
        <time>2019-03-19T14:05:50Z</time>
      </trkpt>
      <trkpt lat="44.29084" lon="5.62784">
        <ele>764</ele>
        <time>2019-03-19T14:05:51Z</time>
      </trkpt>
      <trkpt lat="44.29081" lon="5.62779">
        <ele>765</ele>
        <time>2019-03-19T14:05:52Z</time>
      </trkpt>
      <trkpt lat="44.29078" lon="5.62774">
        <ele>765</ele>
        <time>2019-03-19T14:05:53Z</time>
      </trkpt>
      <trkpt lat="44.29076" lon="5.62769">
        <ele>765</ele>
        <time>2019-03-19T14:05:54Z</time>
      </trkpt>
      <trkpt lat="44.29073" lon="5.62764">
        <ele>765</ele>
        <time>2019-03-19T14:05:55Z</time>
      </trkpt>
      <trkpt lat="44.29071" lon="5.62758">
        <ele>765</ele>
        <time>2019-03-19T14:05:56Z</time>
      </trkpt>
      <trkpt lat="44.29068" lon="5.62752">
        <ele>765</ele>
        <time>2019-03-19T14:05:57Z</time>
      </trkpt>
      <trkpt lat="44.29065" lon="5.62746">
        <ele>765</ele>
        <time>2019-03-19T14:05:58Z</time>
      </trkpt>
      <trkpt lat="44.29063" lon="5.6274">
        <ele>765</ele>
        <time>2019-03-19T14:05:59Z</time>
      </trkpt>
      <trkpt lat="44.2906" lon="5.62733">
        <ele>765</ele>
        <time>2019-03-19T14:06:00Z</time>
      </trkpt>
      <trkpt lat="44.29058" lon="5.62727">
        <ele>765</ele>
        <time>2019-03-19T14:06:01Z</time>
      </trkpt>
      <trkpt lat="44.29055" lon="5.6272">
        <ele>765</ele>
        <time>2019-03-19T14:06:02Z</time>
      </trkpt>
      <trkpt lat="44.29052" lon="5.62713">
        <ele>765</ele>
        <time>2019-03-19T14:06:03Z</time>
      </trkpt>
      <trkpt lat="44.29049" lon="5.62707">
        <ele>765</ele>
        <time>2019-03-19T14:06:04Z</time>
      </trkpt>
      <trkpt lat="44.29046" lon="5.627">
        <ele>765</ele>
        <time>2019-03-19T14:06:05Z</time>
      </trkpt>
      <trkpt lat="44.29043" lon="5.62693">
        <ele>765</ele>
        <time>2019-03-19T14:06:06Z</time>
      </trkpt>
      <trkpt lat="44.29041" lon="5.62686">
        <ele>765</ele>
        <time>2019-03-19T14:06:07Z</time>
      </trkpt>
      <trkpt lat="44.29037" lon="5.6268">
        <ele>766</ele>
        <time>2019-03-19T14:06:08Z</time>
      </trkpt>
      <trkpt lat="44.29035" lon="5.62674">
        <ele>766</ele>
        <time>2019-03-19T14:06:09Z</time>
      </trkpt>
      <trkpt lat="44.29032" lon="5.62667">
        <ele>766</ele>
        <time>2019-03-19T14:06:10Z</time>
      </trkpt>
      <trkpt lat="44.29029" lon="5.6266">
        <ele>766</ele>
        <time>2019-03-19T14:06:11Z</time>
      </trkpt>
      <trkpt lat="44.29026" lon="5.62654">
        <ele>766</ele>
        <time>2019-03-19T14:06:12Z</time>
      </trkpt>
      <trkpt lat="44.29023" lon="5.62647">
        <ele>766</ele>
        <time>2019-03-19T14:06:13Z</time>
      </trkpt>
      <trkpt lat="44.29021" lon="5.6264">
        <ele>766</ele>
        <time>2019-03-19T14:06:14Z</time>
      </trkpt>
      <trkpt lat="44.29018" lon="5.62634">
        <ele>766</ele>
        <time>2019-03-19T14:06:15Z</time>
      </trkpt>
      <trkpt lat="44.29015" lon="5.62627">
        <ele>766</ele>
        <time>2019-03-19T14:06:16Z</time>
      </trkpt>
      <trkpt lat="44.29012" lon="5.62621">
        <ele>766</ele>
        <time>2019-03-19T14:06:17Z</time>
      </trkpt>
      <trkpt lat="44.29009" lon="5.62614">
        <ele>766</ele>
        <time>2019-03-19T14:06:18Z</time>
      </trkpt>
      <trkpt lat="44.29007" lon="5.62608">
        <ele>766</ele>
        <time>2019-03-19T14:06:19Z</time>
      </trkpt>
      <trkpt lat="44.29004" lon="5.62601">
        <ele>767</ele>
        <time>2019-03-19T14:06:20Z</time>
      </trkpt>
      <trkpt lat="44.29001" lon="5.62594">
        <ele>767</ele>
        <time>2019-03-19T14:06:21Z</time>
      </trkpt>
      <trkpt lat="44.28999" lon="5.62587">
        <ele>767</ele>
        <time>2019-03-19T14:06:22Z</time>
      </trkpt>
      <trkpt lat="44.28996" lon="5.6258">
        <ele>767</ele>
        <time>2019-03-19T14:06:23Z</time>
      </trkpt>
      <trkpt lat="44.28994" lon="5.62573">
        <ele>767</ele>
        <time>2019-03-19T14:06:24Z</time>
      </trkpt>
      <trkpt lat="44.28991" lon="5.62567">
        <ele>767</ele>
        <time>2019-03-19T14:06:25Z</time>
      </trkpt>
      <trkpt lat="44.28988" lon="5.6256">
        <ele>767</ele>
        <time>2019-03-19T14:06:26Z</time>
      </trkpt>
      <trkpt lat="44.28986" lon="5.62552">
        <ele>767</ele>
        <time>2019-03-19T14:06:27Z</time>
      </trkpt>
      <trkpt lat="44.28984" lon="5.62545">
        <ele>768</ele>
        <time>2019-03-19T14:06:28Z</time>
      </trkpt>
      <trkpt lat="44.28982" lon="5.62537">
        <ele>768</ele>
        <time>2019-03-19T14:06:29Z</time>
      </trkpt>
      <trkpt lat="44.28981" lon="5.6253">
        <ele>768</ele>
        <time>2019-03-19T14:06:30Z</time>
      </trkpt>
      <trkpt lat="44.28979" lon="5.62522">
        <ele>768</ele>
        <time>2019-03-19T14:06:31Z</time>
      </trkpt>
      <trkpt lat="44.28978" lon="5.62514">
        <ele>768</ele>
        <time>2019-03-19T14:06:32Z</time>
      </trkpt>
      <trkpt lat="44.28976" lon="5.62507">
        <ele>768</ele>
        <time>2019-03-19T14:06:33Z</time>
      </trkpt>
      <trkpt lat="44.28975" lon="5.625">
        <ele>768</ele>
        <time>2019-03-19T14:06:34Z</time>
      </trkpt>
      <trkpt lat="44.28974" lon="5.62492">
        <ele>768</ele>
        <time>2019-03-19T14:06:35Z</time>
      </trkpt>
      <trkpt lat="44.28972" lon="5.62485">
        <ele>768</ele>
        <time>2019-03-19T14:06:36Z</time>
      </trkpt>
      <trkpt lat="44.28971" lon="5.62478">
        <ele>769</ele>
        <time>2019-03-19T14:06:37Z</time>
      </trkpt>
      <trkpt lat="44.2897" lon="5.6247">
        <ele>769</ele>
        <time>2019-03-19T14:06:38Z</time>
      </trkpt>
      <trkpt lat="44.28969" lon="5.62463">
        <ele>769</ele>
        <time>2019-03-19T14:06:39Z</time>
      </trkpt>
      <trkpt lat="44.28967" lon="5.62456">
        <ele>769</ele>
        <time>2019-03-19T14:06:40Z</time>
      </trkpt>
      <trkpt lat="44.28966" lon="5.62448">
        <ele>769</ele>
        <time>2019-03-19T14:06:41Z</time>
      </trkpt>
      <trkpt lat="44.28965" lon="5.62441">
        <ele>769</ele>
        <time>2019-03-19T14:06:42Z</time>
      </trkpt>
      <trkpt lat="44.28963" lon="5.62434">
        <ele>769</ele>
        <time>2019-03-19T14:06:43Z</time>
      </trkpt>
      <trkpt lat="44.28962" lon="5.62426">
        <ele>769</ele>
        <time>2019-03-19T14:06:44Z</time>
      </trkpt>
      <trkpt lat="44.2896" lon="5.62419">
        <ele>769</ele>
        <time>2019-03-19T14:06:45Z</time>
      </trkpt>
      <trkpt lat="44.28959" lon="5.62412">
        <ele>769</ele>
        <time>2019-03-19T14:06:46Z</time>
      </trkpt>
      <trkpt lat="44.28957" lon="5.62405">
        <ele>770</ele>
        <time>2019-03-19T14:06:47Z</time>
      </trkpt>
      <trkpt lat="44.28955" lon="5.62398">
        <ele>770</ele>
        <time>2019-03-19T14:06:48Z</time>
      </trkpt>
      <trkpt lat="44.28954" lon="5.62392">
        <ele>770</ele>
        <time>2019-03-19T14:06:49Z</time>
      </trkpt>
      <trkpt lat="44.28952" lon="5.62385">
        <ele>770</ele>
        <time>2019-03-19T14:06:50Z</time>
      </trkpt>
      <trkpt lat="44.28951" lon="5.62379">
        <ele>770</ele>
        <time>2019-03-19T14:06:51Z</time>
      </trkpt>
      <trkpt lat="44.28949" lon="5.62372">
        <ele>770</ele>
        <time>2019-03-19T14:06:52Z</time>
      </trkpt>
      <trkpt lat="44.28948" lon="5.62366">
        <ele>770</ele>
        <time>2019-03-19T14:06:53Z</time>
      </trkpt>
      <trkpt lat="44.28946" lon="5.6236">
        <ele>770</ele>
        <time>2019-03-19T14:06:54Z</time>
      </trkpt>
      <trkpt lat="44.28944" lon="5.62353">
        <ele>771</ele>
        <time>2019-03-19T14:06:55Z</time>
      </trkpt>
      <trkpt lat="44.28942" lon="5.62347">
        <ele>771</ele>
        <time>2019-03-19T14:06:56Z</time>
      </trkpt>
      <trkpt lat="44.28941" lon="5.6234">
        <ele>771</ele>
        <time>2019-03-19T14:06:57Z</time>
      </trkpt>
      <trkpt lat="44.28939" lon="5.62334">
        <ele>771</ele>
        <time>2019-03-19T14:06:58Z</time>
      </trkpt>
      <trkpt lat="44.28937" lon="5.62328">
        <ele>771</ele>
        <time>2019-03-19T14:06:59Z</time>
      </trkpt>
      <trkpt lat="44.28936" lon="5.62321">
        <ele>771</ele>
        <time>2019-03-19T14:07:00Z</time>
      </trkpt>
      <trkpt lat="44.28934" lon="5.62315">
        <ele>771</ele>
        <time>2019-03-19T14:07:01Z</time>
      </trkpt>
      <trkpt lat="44.28933" lon="5.62309">
        <ele>771</ele>
        <time>2019-03-19T14:07:02Z</time>
      </trkpt>
      <trkpt lat="44.28931" lon="5.62302">
        <ele>771</ele>
        <time>2019-03-19T14:07:03Z</time>
      </trkpt>
      <trkpt lat="44.2893" lon="5.62295">
        <ele>771</ele>
        <time>2019-03-19T14:07:04Z</time>
      </trkpt>
      <trkpt lat="44.28928" lon="5.62288">
        <ele>771</ele>
        <time>2019-03-19T14:07:05Z</time>
      </trkpt>
      <trkpt lat="44.28926" lon="5.62282">
        <ele>771</ele>
        <time>2019-03-19T14:07:06Z</time>
      </trkpt>
      <trkpt lat="44.28925" lon="5.62275">
        <ele>771</ele>
        <time>2019-03-19T14:07:07Z</time>
      </trkpt>
      <trkpt lat="44.28923" lon="5.62268">
        <ele>771</ele>
        <time>2019-03-19T14:07:08Z</time>
      </trkpt>
      <trkpt lat="44.28922" lon="5.62262">
        <ele>771</ele>
        <time>2019-03-19T14:07:09Z</time>
      </trkpt>
      <trkpt lat="44.2892" lon="5.62255">
        <ele>771</ele>
        <time>2019-03-19T14:07:10Z</time>
      </trkpt>
      <trkpt lat="44.28919" lon="5.62249">
        <ele>771</ele>
        <time>2019-03-19T14:07:11Z</time>
      </trkpt>
      <trkpt lat="44.28917" lon="5.62243">
        <ele>771</ele>
        <time>2019-03-19T14:07:12Z</time>
      </trkpt>
      <trkpt lat="44.28916" lon="5.62236">
        <ele>771</ele>
        <time>2019-03-19T14:07:13Z</time>
      </trkpt>
      <trkpt lat="44.28914" lon="5.62229">
        <ele>771</ele>
        <time>2019-03-19T14:07:14Z</time>
      </trkpt>
      <trkpt lat="44.28913" lon="5.62223">
        <ele>771</ele>
        <time>2019-03-19T14:07:15Z</time>
      </trkpt>
      <trkpt lat="44.28912" lon="5.62217">
        <ele>771</ele>
        <time>2019-03-19T14:07:16Z</time>
      </trkpt>
      <trkpt lat="44.2891" lon="5.6221">
        <ele>771</ele>
        <time>2019-03-19T14:07:17Z</time>
      </trkpt>
      <trkpt lat="44.28909" lon="5.62203">
        <ele>772</ele>
        <time>2019-03-19T14:07:18Z</time>
      </trkpt>
      <trkpt lat="44.28908" lon="5.62197">
        <ele>772</ele>
        <time>2019-03-19T14:07:19Z</time>
      </trkpt>
      <trkpt lat="44.28907" lon="5.62191">
        <ele>772</ele>
        <time>2019-03-19T14:07:20Z</time>
      </trkpt>
      <trkpt lat="44.28905" lon="5.62184">
        <ele>772</ele>
        <time>2019-03-19T14:07:21Z</time>
      </trkpt>
      <trkpt lat="44.28904" lon="5.62178">
        <ele>772</ele>
        <time>2019-03-19T14:07:22Z</time>
      </trkpt>
      <trkpt lat="44.28903" lon="5.62172">
        <ele>772</ele>
        <time>2019-03-19T14:07:23Z</time>
      </trkpt>
      <trkpt lat="44.28902" lon="5.62165">
        <ele>772</ele>
        <time>2019-03-19T14:07:24Z</time>
      </trkpt>
      <trkpt lat="44.28901" lon="5.62159">
        <ele>773</ele>
        <time>2019-03-19T14:07:25Z</time>
      </trkpt>
      <trkpt lat="44.289" lon="5.62152">
        <ele>773</ele>
        <time>2019-03-19T14:07:26Z</time>
      </trkpt>
      <trkpt lat="44.28899" lon="5.62146">
        <ele>773</ele>
        <time>2019-03-19T14:07:27Z</time>
      </trkpt>
      <trkpt lat="44.28899" lon="5.6214">
        <ele>773</ele>
        <time>2019-03-19T14:07:28Z</time>
      </trkpt>
      <trkpt lat="44.28898" lon="5.62133">
        <ele>773</ele>
        <time>2019-03-19T14:07:29Z</time>
      </trkpt>
      <trkpt lat="44.28898" lon="5.62127">
        <ele>774</ele>
        <time>2019-03-19T14:07:30Z</time>
      </trkpt>
      <trkpt lat="44.28897" lon="5.62121">
        <ele>774</ele>
        <time>2019-03-19T14:07:31Z</time>
      </trkpt>
      <trkpt lat="44.28897" lon="5.62115">
        <ele>774</ele>
        <time>2019-03-19T14:07:32Z</time>
      </trkpt>
      <trkpt lat="44.28897" lon="5.62109">
        <ele>774</ele>
        <time>2019-03-19T14:07:33Z</time>
      </trkpt>
      <trkpt lat="44.28897" lon="5.62103">
        <ele>775</ele>
        <time>2019-03-19T14:07:34Z</time>
      </trkpt>
      <trkpt lat="44.28897" lon="5.62097">
        <ele>775</ele>
        <time>2019-03-19T14:07:35Z</time>
      </trkpt>
      <trkpt lat="44.28897" lon="5.62091">
        <ele>775</ele>
        <time>2019-03-19T14:07:36Z</time>
      </trkpt>
      <trkpt lat="44.28897" lon="5.62085">
        <ele>775</ele>
        <time>2019-03-19T14:07:37Z</time>
      </trkpt>
      <trkpt lat="44.28898" lon="5.62079">
        <ele>775</ele>
        <time>2019-03-19T14:07:38Z</time>
      </trkpt>
      <trkpt lat="44.28898" lon="5.62073">
        <ele>776</ele>
        <time>2019-03-19T14:07:39Z</time>
      </trkpt>
      <trkpt lat="44.28899" lon="5.62067">
        <ele>776</ele>
        <time>2019-03-19T14:07:40Z</time>
      </trkpt>
      <trkpt lat="44.28899" lon="5.62061">
        <ele>776</ele>
        <time>2019-03-19T14:07:41Z</time>
      </trkpt>
      <trkpt lat="44.289" lon="5.62055">
        <ele>776</ele>
        <time>2019-03-19T14:07:42Z</time>
      </trkpt>
      <trkpt lat="44.28901" lon="5.6205">
        <ele>776</ele>
        <time>2019-03-19T14:07:43Z</time>
      </trkpt>
      <trkpt lat="44.28902" lon="5.62044">
        <ele>776</ele>
        <time>2019-03-19T14:07:44Z</time>
      </trkpt>
      <trkpt lat="44.28903" lon="5.62039">
        <ele>776</ele>
        <time>2019-03-19T14:07:45Z</time>
      </trkpt>
      <trkpt lat="44.28905" lon="5.62033">
        <ele>777</ele>
        <time>2019-03-19T14:07:46Z</time>
      </trkpt>
      <trkpt lat="44.28906" lon="5.62027">
        <ele>777</ele>
        <time>2019-03-19T14:07:47Z</time>
      </trkpt>
      <trkpt lat="44.28907" lon="5.6202">
        <ele>777</ele>
        <time>2019-03-19T14:07:48Z</time>
      </trkpt>
      <trkpt lat="44.28909" lon="5.62014">
        <ele>777</ele>
        <time>2019-03-19T14:07:49Z</time>
      </trkpt>
      <trkpt lat="44.28911" lon="5.62009">
        <ele>778</ele>
        <time>2019-03-19T14:07:50Z</time>
      </trkpt>
      <trkpt lat="44.28914" lon="5.62003">
        <ele>778</ele>
        <time>2019-03-19T14:07:51Z</time>
      </trkpt>
      <trkpt lat="44.28917" lon="5.61997">
        <ele>778</ele>
        <time>2019-03-19T14:07:52Z</time>
      </trkpt>
      <trkpt lat="44.2892" lon="5.61992">
        <ele>778</ele>
        <time>2019-03-19T14:07:53Z</time>
      </trkpt>
      <trkpt lat="44.28923" lon="5.61986">
        <ele>778</ele>
        <time>2019-03-19T14:07:54Z</time>
      </trkpt>
      <trkpt lat="44.28926" lon="5.61981">
        <ele>778</ele>
        <time>2019-03-19T14:07:55Z</time>
      </trkpt>
      <trkpt lat="44.2893" lon="5.61976">
        <ele>778</ele>
        <time>2019-03-19T14:07:56Z</time>
      </trkpt>
      <trkpt lat="44.28933" lon="5.61972">
        <ele>778</ele>
        <time>2019-03-19T14:07:57Z</time>
      </trkpt>
      <trkpt lat="44.28936" lon="5.61967">
        <ele>778</ele>
        <time>2019-03-19T14:07:58Z</time>
      </trkpt>
      <trkpt lat="44.2894" lon="5.61963">
        <ele>778</ele>
        <time>2019-03-19T14:07:59Z</time>
      </trkpt>
      <trkpt lat="44.28944" lon="5.61959">
        <ele>778</ele>
        <time>2019-03-19T14:08:00Z</time>
      </trkpt>
      <trkpt lat="44.28948" lon="5.61955">
        <ele>778</ele>
        <time>2019-03-19T14:08:01Z</time>
      </trkpt>
      <trkpt lat="44.28952" lon="5.61951">
        <ele>778</ele>
        <time>2019-03-19T14:08:02Z</time>
      </trkpt>
      <trkpt lat="44.28956" lon="5.61947">
        <ele>778</ele>
        <time>2019-03-19T14:08:03Z</time>
      </trkpt>
      <trkpt lat="44.2896" lon="5.61943">
        <ele>778</ele>
        <time>2019-03-19T14:08:04Z</time>
      </trkpt>
      <trkpt lat="44.28965" lon="5.6194">
        <ele>778</ele>
        <time>2019-03-19T14:08:05Z</time>
      </trkpt>
      <trkpt lat="44.28969" lon="5.61937">
        <ele>778</ele>
        <time>2019-03-19T14:08:06Z</time>
      </trkpt>
      <trkpt lat="44.28973" lon="5.61933">
        <ele>778</ele>
        <time>2019-03-19T14:08:07Z</time>
      </trkpt>
      <trkpt lat="44.28977" lon="5.6193">
        <ele>778</ele>
        <time>2019-03-19T14:08:08Z</time>
      </trkpt>
      <trkpt lat="44.28981" lon="5.61926">
        <ele>778</ele>
        <time>2019-03-19T14:08:09Z</time>
      </trkpt>
      <trkpt lat="44.28985" lon="5.61923">
        <ele>778</ele>
        <time>2019-03-19T14:08:10Z</time>
      </trkpt>
      <trkpt lat="44.28989" lon="5.6192">
        <ele>778</ele>
        <time>2019-03-19T14:08:11Z</time>
      </trkpt>
      <trkpt lat="44.28994" lon="5.61916">
        <ele>778</ele>
        <time>2019-03-19T14:08:12Z</time>
      </trkpt>
      <trkpt lat="44.28997" lon="5.61913">
        <ele>778</ele>
        <time>2019-03-19T14:08:13Z</time>
      </trkpt>
      <trkpt lat="44.29002" lon="5.6191">
        <ele>778</ele>
        <time>2019-03-19T14:08:14Z</time>
      </trkpt>
      <trkpt lat="44.29005" lon="5.61907">
        <ele>778</ele>
        <time>2019-03-19T14:08:15Z</time>
      </trkpt>
      <trkpt lat="44.2901" lon="5.61904">
        <ele>778</ele>
        <time>2019-03-19T14:08:16Z</time>
      </trkpt>
      <trkpt lat="44.29013" lon="5.61901">
        <ele>778</ele>
        <time>2019-03-19T14:08:17Z</time>
      </trkpt>
      <trkpt lat="44.29018" lon="5.61898">
        <ele>778</ele>
        <time>2019-03-19T14:08:18Z</time>
      </trkpt>
      <trkpt lat="44.29021" lon="5.61895">
        <ele>778</ele>
        <time>2019-03-19T14:08:19Z</time>
      </trkpt>
      <trkpt lat="44.29025" lon="5.61892">
        <ele>778</ele>
        <time>2019-03-19T14:08:20Z</time>
      </trkpt>
      <trkpt lat="44.29029" lon="5.61889">
        <ele>778</ele>
        <time>2019-03-19T14:08:21Z</time>
      </trkpt>
      <trkpt lat="44.29033" lon="5.61887">
        <ele>778</ele>
        <time>2019-03-19T14:08:22Z</time>
      </trkpt>
      <trkpt lat="44.29036" lon="5.61884">
        <ele>778</ele>
        <time>2019-03-19T14:08:23Z</time>
      </trkpt>
      <trkpt lat="44.2904" lon="5.61881">
        <ele>778</ele>
        <time>2019-03-19T14:08:24Z</time>
      </trkpt>
      <trkpt lat="44.29043" lon="5.61878">
        <ele>778</ele>
        <time>2019-03-19T14:08:25Z</time>
      </trkpt>
      <trkpt lat="44.29047" lon="5.61875">
        <ele>778</ele>
        <time>2019-03-19T14:08:26Z</time>
      </trkpt>
      <trkpt lat="44.2905" lon="5.61873">
        <ele>778</ele>
        <time>2019-03-19T14:08:27Z</time>
      </trkpt>
      <trkpt lat="44.29053" lon="5.6187">
        <ele>778</ele>
        <time>2019-03-19T14:08:28Z</time>
      </trkpt>
      <trkpt lat="44.29057" lon="5.61868">
        <ele>778</ele>
        <time>2019-03-19T14:08:29Z</time>
      </trkpt>
      <trkpt lat="44.2906" lon="5.61865">
        <ele>778</ele>
        <time>2019-03-19T14:08:30Z</time>
      </trkpt>
      <trkpt lat="44.29063" lon="5.61862">
        <ele>778</ele>
        <time>2019-03-19T14:08:31Z</time>
      </trkpt>
      <trkpt lat="44.29067" lon="5.61859">
        <ele>778</ele>
        <time>2019-03-19T14:08:32Z</time>
      </trkpt>
      <trkpt lat="44.29071" lon="5.61856">
        <ele>778</ele>
        <time>2019-03-19T14:08:33Z</time>
      </trkpt>
      <trkpt lat="44.29074" lon="5.61854">
        <ele>779</ele>
        <time>2019-03-19T14:08:34Z</time>
      </trkpt>
      <trkpt lat="44.29078" lon="5.61851">
        <ele>779</ele>
        <time>2019-03-19T14:08:35Z</time>
      </trkpt>
      <trkpt lat="44.29082" lon="5.61848">
        <ele>779</ele>
        <time>2019-03-19T14:08:36Z</time>
      </trkpt>
      <trkpt lat="44.29086" lon="5.61845">
        <ele>779</ele>
        <time>2019-03-19T14:08:37Z</time>
      </trkpt>
      <trkpt lat="44.29089" lon="5.61843">
        <ele>779</ele>
        <time>2019-03-19T14:08:38Z</time>
      </trkpt>
      <trkpt lat="44.29093" lon="5.6184">
        <ele>779</ele>
        <time>2019-03-19T14:08:39Z</time>
      </trkpt>
      <trkpt lat="44.29096" lon="5.61838">
        <ele>779</ele>
        <time>2019-03-19T14:08:40Z</time>
      </trkpt>
      <trkpt lat="44.291" lon="5.61835">
        <ele>780</ele>
        <time>2019-03-19T14:08:41Z</time>
      </trkpt>
      <trkpt lat="44.29103" lon="5.61833">
        <ele>780</ele>
        <time>2019-03-19T14:08:42Z</time>
      </trkpt>
      <trkpt lat="44.29106" lon="5.6183">
        <ele>780</ele>
        <time>2019-03-19T14:08:43Z</time>
      </trkpt>
      <trkpt lat="44.2911" lon="5.61827">
        <ele>780</ele>
        <time>2019-03-19T14:08:44Z</time>
      </trkpt>
      <trkpt lat="44.29113" lon="5.61825">
        <ele>780</ele>
        <time>2019-03-19T14:08:45Z</time>
      </trkpt>
      <trkpt lat="44.29117" lon="5.61822">
        <ele>780</ele>
        <time>2019-03-19T14:08:46Z</time>
      </trkpt>
      <trkpt lat="44.2912" lon="5.61819">
        <ele>780</ele>
        <time>2019-03-19T14:08:47Z</time>
      </trkpt>
      <trkpt lat="44.29124" lon="5.61817">
        <ele>780</ele>
        <time>2019-03-19T14:08:48Z</time>
      </trkpt>
      <trkpt lat="44.29127" lon="5.61814">
        <ele>780</ele>
        <time>2019-03-19T14:08:49Z</time>
      </trkpt>
      <trkpt lat="44.2913" lon="5.61812">
        <ele>780</ele>
        <time>2019-03-19T14:08:50Z</time>
      </trkpt>
      <trkpt lat="44.29134" lon="5.61809">
        <ele>780</ele>
        <time>2019-03-19T14:08:51Z</time>
      </trkpt>
      <trkpt lat="44.29137" lon="5.61806">
        <ele>780</ele>
        <time>2019-03-19T14:08:52Z</time>
      </trkpt>
      <trkpt lat="44.2914" lon="5.61804">
        <ele>780</ele>
        <time>2019-03-19T14:08:53Z</time>
      </trkpt>
      <trkpt lat="44.29144" lon="5.61801">
        <ele>780</ele>
        <time>2019-03-19T14:08:54Z</time>
      </trkpt>
      <trkpt lat="44.29148" lon="5.61799">
        <ele>780</ele>
        <time>2019-03-19T14:08:55Z</time>
      </trkpt>
      <trkpt lat="44.29151" lon="5.61796">
        <ele>780</ele>
        <time>2019-03-19T14:08:56Z</time>
      </trkpt>
      <trkpt lat="44.29155" lon="5.61794">
        <ele>780</ele>
        <time>2019-03-19T14:08:57Z</time>
      </trkpt>
      <trkpt lat="44.29158" lon="5.61791">
        <ele>780</ele>
        <time>2019-03-19T14:08:58Z</time>
      </trkpt>
      <trkpt lat="44.29161" lon="5.61788">
        <ele>780</ele>
        <time>2019-03-19T14:08:59Z</time>
      </trkpt>
      <trkpt lat="44.29165" lon="5.61786">
        <ele>780</ele>
        <time>2019-03-19T14:09:00Z</time>
      </trkpt>
      <trkpt lat="44.29168" lon="5.61783">
        <ele>781</ele>
        <time>2019-03-19T14:09:01Z</time>
      </trkpt>
      <trkpt lat="44.29172" lon="5.6178">
        <ele>781</ele>
        <time>2019-03-19T14:09:02Z</time>
      </trkpt>
      <trkpt lat="44.29176" lon="5.61778">
        <ele>781</ele>
        <time>2019-03-19T14:09:03Z</time>
      </trkpt>
      <trkpt lat="44.29179" lon="5.61775">
        <ele>781</ele>
        <time>2019-03-19T14:09:04Z</time>
      </trkpt>
      <trkpt lat="44.29182" lon="5.61772">
        <ele>781</ele>
        <time>2019-03-19T14:09:05Z</time>
      </trkpt>
      <trkpt lat="44.29186" lon="5.61769">
        <ele>781</ele>
        <time>2019-03-19T14:09:06Z</time>
      </trkpt>
      <trkpt lat="44.29189" lon="5.61767">
        <ele>781</ele>
        <time>2019-03-19T14:09:07Z</time>
      </trkpt>
      <trkpt lat="44.29193" lon="5.61764">
        <ele>781</ele>
        <time>2019-03-19T14:09:08Z</time>
      </trkpt>
      <trkpt lat="44.29196" lon="5.61761">
        <ele>781</ele>
        <time>2019-03-19T14:09:09Z</time>
      </trkpt>
      <trkpt lat="44.292" lon="5.61758">
        <ele>781</ele>
        <time>2019-03-19T14:09:10Z</time>
      </trkpt>
      <trkpt lat="44.29203" lon="5.61754">
        <ele>781</ele>
        <time>2019-03-19T14:09:11Z</time>
      </trkpt>
      <trkpt lat="44.29206" lon="5.61751">
        <ele>781</ele>
        <time>2019-03-19T14:09:12Z</time>
      </trkpt>
      <trkpt lat="44.29209" lon="5.61747">
        <ele>781</ele>
        <time>2019-03-19T14:09:13Z</time>
      </trkpt>
      <trkpt lat="44.29211" lon="5.61743">
        <ele>781</ele>
        <time>2019-03-19T14:09:14Z</time>
      </trkpt>
      <trkpt lat="44.29214" lon="5.61738">
        <ele>781</ele>
        <time>2019-03-19T14:09:15Z</time>
      </trkpt>
      <trkpt lat="44.29217" lon="5.61734">
        <ele>781</ele>
        <time>2019-03-19T14:09:16Z</time>
      </trkpt>
      <trkpt lat="44.29219" lon="5.61729">
        <ele>781</ele>
        <time>2019-03-19T14:09:17Z</time>
      </trkpt>
      <trkpt lat="44.29221" lon="5.61724">
        <ele>781</ele>
        <time>2019-03-19T14:09:18Z</time>
      </trkpt>
      <trkpt lat="44.29224" lon="5.61719">
        <ele>781</ele>
        <time>2019-03-19T14:09:19Z</time>
      </trkpt>
      <trkpt lat="44.29225" lon="5.61714">
        <ele>781</ele>
        <time>2019-03-19T14:09:20Z</time>
      </trkpt>
      <trkpt lat="44.29226" lon="5.61707">
        <ele>782</ele>
        <time>2019-03-19T14:09:21Z</time>
      </trkpt>
      <trkpt lat="44.29227" lon="5.61702">
        <ele>782</ele>
        <time>2019-03-19T14:09:22Z</time>
      </trkpt>
      <trkpt lat="44.29229" lon="5.61696">
        <ele>782</ele>
        <time>2019-03-19T14:09:23Z</time>
      </trkpt>
      <trkpt lat="44.2923" lon="5.6169">
        <ele>782</ele>
        <time>2019-03-19T14:09:24Z</time>
      </trkpt>
      <trkpt lat="44.29232" lon="5.61685">
        <ele>782</ele>
        <time>2019-03-19T14:09:25Z</time>
      </trkpt>
      <trkpt lat="44.29234" lon="5.61679">
        <ele>782</ele>
        <time>2019-03-19T14:09:26Z</time>
      </trkpt>
      <trkpt lat="44.29235" lon="5.61674">
        <ele>782</ele>
        <time>2019-03-19T14:09:27Z</time>
      </trkpt>
      <trkpt lat="44.29237" lon="5.61667">
        <ele>782</ele>
        <time>2019-03-19T14:09:28Z</time>
      </trkpt>
      <trkpt lat="44.29239" lon="5.61661">
        <ele>782</ele>
        <time>2019-03-19T14:09:29Z</time>
      </trkpt>
      <trkpt lat="44.2924" lon="5.61656">
        <ele>782</ele>
        <time>2019-03-19T14:09:30Z</time>
      </trkpt>
      <trkpt lat="44.29242" lon="5.6165">
        <ele>782</ele>
        <time>2019-03-19T14:09:31Z</time>
      </trkpt>
      <trkpt lat="44.29243" lon="5.61643">
        <ele>782</ele>
        <time>2019-03-19T14:09:32Z</time>
      </trkpt>
      <trkpt lat="44.29245" lon="5.61637">
        <ele>782</ele>
        <time>2019-03-19T14:09:33Z</time>
      </trkpt>
      <trkpt lat="44.29246" lon="5.61631">
        <ele>782</ele>
        <time>2019-03-19T14:09:34Z</time>
      </trkpt>
      <trkpt lat="44.29248" lon="5.61624">
        <ele>782</ele>
        <time>2019-03-19T14:09:35Z</time>
      </trkpt>
      <trkpt lat="44.29249" lon="5.61618">
        <ele>782</ele>
        <time>2019-03-19T14:09:36Z</time>
      </trkpt>
      <trkpt lat="44.29251" lon="5.61612">
        <ele>782</ele>
        <time>2019-03-19T14:09:37Z</time>
      </trkpt>
      <trkpt lat="44.29253" lon="5.61606">
        <ele>782</ele>
        <time>2019-03-19T14:09:38Z</time>
      </trkpt>
      <trkpt lat="44.29254" lon="5.61599">
        <ele>782</ele>
        <time>2019-03-19T14:09:39Z</time>
      </trkpt>
      <trkpt lat="44.29256" lon="5.61593">
        <ele>782</ele>
        <time>2019-03-19T14:09:40Z</time>
      </trkpt>
      <trkpt lat="44.29258" lon="5.61587">
        <ele>782</ele>
        <time>2019-03-19T14:09:41Z</time>
      </trkpt>
      <trkpt lat="44.29259" lon="5.6158">
        <ele>782</ele>
        <time>2019-03-19T14:09:42Z</time>
      </trkpt>
      <trkpt lat="44.29261" lon="5.61574">
        <ele>782</ele>
        <time>2019-03-19T14:09:43Z</time>
      </trkpt>
      <trkpt lat="44.29263" lon="5.61567">
        <ele>782</ele>
        <time>2019-03-19T14:09:44Z</time>
      </trkpt>
      <trkpt lat="44.29264" lon="5.6156">
        <ele>782</ele>
        <time>2019-03-19T14:09:45Z</time>
      </trkpt>
      <trkpt lat="44.29266" lon="5.61553">
        <ele>782</ele>
        <time>2019-03-19T14:09:46Z</time>
      </trkpt>
      <trkpt lat="44.29267" lon="5.61547">
        <ele>782</ele>
        <time>2019-03-19T14:09:47Z</time>
      </trkpt>
      <trkpt lat="44.29269" lon="5.6154">
        <ele>782</ele>
        <time>2019-03-19T14:09:48Z</time>
      </trkpt>
      <trkpt lat="44.29269" lon="5.61532">
        <ele>782</ele>
        <time>2019-03-19T14:09:49Z</time>
      </trkpt>
      <trkpt lat="44.29271" lon="5.61525">
        <ele>782</ele>
        <time>2019-03-19T14:09:50Z</time>
      </trkpt>
      <trkpt lat="44.29272" lon="5.61518">
        <ele>782</ele>
        <time>2019-03-19T14:09:51Z</time>
      </trkpt>
      <trkpt lat="44.29274" lon="5.61512">
        <ele>782</ele>
        <time>2019-03-19T14:09:52Z</time>
      </trkpt>
      <trkpt lat="44.29274" lon="5.61504">
        <ele>783</ele>
        <time>2019-03-19T14:09:53Z</time>
      </trkpt>
      <trkpt lat="44.29274" lon="5.61497">
        <ele>783</ele>
        <time>2019-03-19T14:09:54Z</time>
      </trkpt>
      <trkpt lat="44.29275" lon="5.6149">
        <ele>784</ele>
        <time>2019-03-19T14:09:55Z</time>
      </trkpt>
      <trkpt lat="44.29276" lon="5.61483">
        <ele>784</ele>
        <time>2019-03-19T14:09:56Z</time>
      </trkpt>
      <trkpt lat="44.29276" lon="5.61476">
        <ele>785</ele>
        <time>2019-03-19T14:09:57Z</time>
      </trkpt>
      <trkpt lat="44.29277" lon="5.6147">
        <ele>785</ele>
        <time>2019-03-19T14:09:58Z</time>
      </trkpt>
      <trkpt lat="44.29277" lon="5.61463">
        <ele>785</ele>
        <time>2019-03-19T14:09:59Z</time>
      </trkpt>
      <trkpt lat="44.29277" lon="5.61456">
        <ele>786</ele>
        <time>2019-03-19T14:10:00Z</time>
      </trkpt>
      <trkpt lat="44.29277" lon="5.61449">
        <ele>786</ele>
        <time>2019-03-19T14:10:01Z</time>
      </trkpt>
      <trkpt lat="44.29277" lon="5.61442">
        <ele>786</ele>
        <time>2019-03-19T14:10:02Z</time>
      </trkpt>
      <trkpt lat="44.29277" lon="5.61436">
        <ele>786</ele>
        <time>2019-03-19T14:10:03Z</time>
      </trkpt>
      <trkpt lat="44.29277" lon="5.61429">
        <ele>787</ele>
        <time>2019-03-19T14:10:04Z</time>
      </trkpt>
      <trkpt lat="44.29277" lon="5.61422">
        <ele>787</ele>
        <time>2019-03-19T14:10:05Z</time>
      </trkpt>
      <trkpt lat="44.29277" lon="5.61416">
        <ele>787</ele>
        <time>2019-03-19T14:10:06Z</time>
      </trkpt>
      <trkpt lat="44.29277" lon="5.61409">
        <ele>787</ele>
        <time>2019-03-19T14:10:07Z</time>
      </trkpt>
      <trkpt lat="44.29277" lon="5.61402">
        <ele>787</ele>
        <time>2019-03-19T14:10:08Z</time>
      </trkpt>
      <trkpt lat="44.29276" lon="5.61396">
        <ele>787</ele>
        <time>2019-03-19T14:10:09Z</time>
      </trkpt>
      <trkpt lat="44.29276" lon="5.61389">
        <ele>788</ele>
        <time>2019-03-19T14:10:10Z</time>
      </trkpt>
      <trkpt lat="44.29276" lon="5.61382">
        <ele>788</ele>
        <time>2019-03-19T14:10:11Z</time>
      </trkpt>
      <trkpt lat="44.29276" lon="5.61376">
        <ele>788</ele>
        <time>2019-03-19T14:10:12Z</time>
      </trkpt>
      <trkpt lat="44.29276" lon="5.6137">
        <ele>788</ele>
        <time>2019-03-19T14:10:13Z</time>
      </trkpt>
      <trkpt lat="44.29276" lon="5.61363">
        <ele>788</ele>
        <time>2019-03-19T14:10:14Z</time>
      </trkpt>
      <trkpt lat="44.29276" lon="5.61357">
        <ele>788</ele>
        <time>2019-03-19T14:10:15Z</time>
      </trkpt>
      <trkpt lat="44.29276" lon="5.6135">
        <ele>788</ele>
        <time>2019-03-19T14:10:16Z</time>
      </trkpt>
      <trkpt lat="44.29276" lon="5.61344">
        <ele>788</ele>
        <time>2019-03-19T14:10:17Z</time>
      </trkpt>
      <trkpt lat="44.29276" lon="5.61338">
        <ele>788</ele>
        <time>2019-03-19T14:10:18Z</time>
      </trkpt>
      <trkpt lat="44.29276" lon="5.61332">
        <ele>789</ele>
        <time>2019-03-19T14:10:19Z</time>
      </trkpt>
      <trkpt lat="44.29276" lon="5.61326">
        <ele>789</ele>
        <time>2019-03-19T14:10:20Z</time>
      </trkpt>
      <trkpt lat="44.29276" lon="5.61319">
        <ele>789</ele>
        <time>2019-03-19T14:10:21Z</time>
      </trkpt>
      <trkpt lat="44.29276" lon="5.61313">
        <ele>789</ele>
        <time>2019-03-19T14:10:22Z</time>
      </trkpt>
      <trkpt lat="44.29276" lon="5.61307">
        <ele>789</ele>
        <time>2019-03-19T14:10:23Z</time>
      </trkpt>
      <trkpt lat="44.29276" lon="5.613">
        <ele>789</ele>
        <time>2019-03-19T14:10:24Z</time>
      </trkpt>
      <trkpt lat="44.29276" lon="5.61293">
        <ele>789</ele>
        <time>2019-03-19T14:10:25Z</time>
      </trkpt>
      <trkpt lat="44.29276" lon="5.61286">
        <ele>789</ele>
        <time>2019-03-19T14:10:26Z</time>
      </trkpt>
      <trkpt lat="44.29276" lon="5.61279">
        <ele>789</ele>
        <time>2019-03-19T14:10:27Z</time>
      </trkpt>
      <trkpt lat="44.29276" lon="5.61272">
        <ele>789</ele>
        <time>2019-03-19T14:10:28Z</time>
      </trkpt>
      <trkpt lat="44.29276" lon="5.61264">
        <ele>789</ele>
        <time>2019-03-19T14:10:29Z</time>
      </trkpt>
      <trkpt lat="44.29276" lon="5.61257">
        <ele>789</ele>
        <time>2019-03-19T14:10:30Z</time>
      </trkpt>
      <trkpt lat="44.29276" lon="5.61249">
        <ele>789</ele>
        <time>2019-03-19T14:10:31Z</time>
      </trkpt>
      <trkpt lat="44.29276" lon="5.61242">
        <ele>789</ele>
        <time>2019-03-19T14:10:32Z</time>
      </trkpt>
      <trkpt lat="44.29276" lon="5.61235">
        <ele>789</ele>
        <time>2019-03-19T14:10:33Z</time>
      </trkpt>
      <trkpt lat="44.29276" lon="5.61228">
        <ele>789</ele>
        <time>2019-03-19T14:10:34Z</time>
      </trkpt>
      <trkpt lat="44.29276" lon="5.61221">
        <ele>789</ele>
        <time>2019-03-19T14:10:35Z</time>
      </trkpt>
      <trkpt lat="44.29276" lon="5.61214">
        <ele>789</ele>
        <time>2019-03-19T14:10:36Z</time>
      </trkpt>
      <trkpt lat="44.29276" lon="5.61206">
        <ele>789</ele>
        <time>2019-03-19T14:10:37Z</time>
      </trkpt>
      <trkpt lat="44.29276" lon="5.61199">
        <ele>789</ele>
        <time>2019-03-19T14:10:38Z</time>
      </trkpt>
      <trkpt lat="44.29276" lon="5.61192">
        <ele>789</ele>
        <time>2019-03-19T14:10:39Z</time>
      </trkpt>
      <trkpt lat="44.29276" lon="5.61185">
        <ele>789</ele>
        <time>2019-03-19T14:10:40Z</time>
      </trkpt>
      <trkpt lat="44.29276" lon="5.61177">
        <ele>789</ele>
        <time>2019-03-19T14:10:41Z</time>
      </trkpt>
      <trkpt lat="44.29275" lon="5.61171">
        <ele>789</ele>
        <time>2019-03-19T14:10:42Z</time>
      </trkpt>
      <trkpt lat="44.29275" lon="5.61164">
        <ele>789</ele>
        <time>2019-03-19T14:10:43Z</time>
      </trkpt>
      <trkpt lat="44.29274" lon="5.61157">
        <ele>789</ele>
        <time>2019-03-19T14:10:44Z</time>
      </trkpt>
      <trkpt lat="44.29274" lon="5.6115">
        <ele>789</ele>
        <time>2019-03-19T14:10:45Z</time>
      </trkpt>
      <trkpt lat="44.29273" lon="5.61144">
        <ele>789</ele>
        <time>2019-03-19T14:10:46Z</time>
      </trkpt>
      <trkpt lat="44.29272" lon="5.61138">
        <ele>789</ele>
        <time>2019-03-19T14:10:47Z</time>
      </trkpt>
      <trkpt lat="44.29271" lon="5.61131">
        <ele>789</ele>
        <time>2019-03-19T14:10:48Z</time>
      </trkpt>
      <trkpt lat="44.2927" lon="5.61125">
        <ele>789</ele>
        <time>2019-03-19T14:10:49Z</time>
      </trkpt>
      <trkpt lat="44.29269" lon="5.61119">
        <ele>789</ele>
        <time>2019-03-19T14:10:50Z</time>
      </trkpt>
      <trkpt lat="44.29268" lon="5.61112">
        <ele>789</ele>
        <time>2019-03-19T14:10:51Z</time>
      </trkpt>
      <trkpt lat="44.29267" lon="5.61105">
        <ele>789</ele>
        <time>2019-03-19T14:10:52Z</time>
      </trkpt>
      <trkpt lat="44.29266" lon="5.61098">
        <ele>789</ele>
        <time>2019-03-19T14:10:53Z</time>
      </trkpt>
      <trkpt lat="44.29266" lon="5.61091">
        <ele>789</ele>
        <time>2019-03-19T14:10:54Z</time>
      </trkpt>
      <trkpt lat="44.29265" lon="5.61084">
        <ele>789</ele>
        <time>2019-03-19T14:10:55Z</time>
      </trkpt>
      <trkpt lat="44.29264" lon="5.61076">
        <ele>789</ele>
        <time>2019-03-19T14:10:56Z</time>
      </trkpt>
      <trkpt lat="44.29263" lon="5.61069">
        <ele>789</ele>
        <time>2019-03-19T14:10:57Z</time>
      </trkpt>
      <trkpt lat="44.29262" lon="5.61062">
        <ele>789</ele>
        <time>2019-03-19T14:10:58Z</time>
      </trkpt>
      <trkpt lat="44.29261" lon="5.61055">
        <ele>790</ele>
        <time>2019-03-19T14:10:59Z</time>
      </trkpt>
      <trkpt lat="44.2926" lon="5.61048">
        <ele>790</ele>
        <time>2019-03-19T14:11:00Z</time>
      </trkpt>
      <trkpt lat="44.29259" lon="5.61041">
        <ele>790</ele>
        <time>2019-03-19T14:11:01Z</time>
      </trkpt>
      <trkpt lat="44.29258" lon="5.61034">
        <ele>790</ele>
        <time>2019-03-19T14:11:02Z</time>
      </trkpt>
      <trkpt lat="44.29257" lon="5.61027">
        <ele>790</ele>
        <time>2019-03-19T14:11:03Z</time>
      </trkpt>
      <trkpt lat="44.29256" lon="5.61021">
        <ele>790</ele>
        <time>2019-03-19T14:11:04Z</time>
      </trkpt>
      <trkpt lat="44.29256" lon="5.61014">
        <ele>790</ele>
        <time>2019-03-19T14:11:05Z</time>
      </trkpt>
      <trkpt lat="44.29255" lon="5.61007">
        <ele>790</ele>
        <time>2019-03-19T14:11:06Z</time>
      </trkpt>
      <trkpt lat="44.29254" lon="5.61001">
        <ele>790</ele>
        <time>2019-03-19T14:11:07Z</time>
      </trkpt>
      <trkpt lat="44.29253" lon="5.60995">
        <ele>790</ele>
        <time>2019-03-19T14:11:08Z</time>
      </trkpt>
      <trkpt lat="44.29252" lon="5.60988">
        <ele>790</ele>
        <time>2019-03-19T14:11:09Z</time>
      </trkpt>
      <trkpt lat="44.29251" lon="5.60982">
        <ele>790</ele>
        <time>2019-03-19T14:11:10Z</time>
      </trkpt>
      <trkpt lat="44.2925" lon="5.60976">
        <ele>790</ele>
        <time>2019-03-19T14:11:11Z</time>
      </trkpt>
      <trkpt lat="44.29249" lon="5.60969">
        <ele>790</ele>
        <time>2019-03-19T14:11:12Z</time>
      </trkpt>
      <trkpt lat="44.29248" lon="5.60963">
        <ele>790</ele>
        <time>2019-03-19T14:11:13Z</time>
      </trkpt>
      <trkpt lat="44.29248" lon="5.60956">
        <ele>790</ele>
        <time>2019-03-19T14:11:14Z</time>
      </trkpt>
      <trkpt lat="44.29247" lon="5.6095">
        <ele>790</ele>
        <time>2019-03-19T14:11:15Z</time>
      </trkpt>
      <trkpt lat="44.29246" lon="5.60944">
        <ele>790</ele>
        <time>2019-03-19T14:11:16Z</time>
      </trkpt>
      <trkpt lat="44.29245" lon="5.60937">
        <ele>790</ele>
        <time>2019-03-19T14:11:17Z</time>
      </trkpt>
      <trkpt lat="44.29245" lon="5.60931">
        <ele>790</ele>
        <time>2019-03-19T14:11:18Z</time>
      </trkpt>
      <trkpt lat="44.29243" lon="5.60924">
        <ele>791</ele>
        <time>2019-03-19T14:11:19Z</time>
      </trkpt>
      <trkpt lat="44.29243" lon="5.60918">
        <ele>791</ele>
        <time>2019-03-19T14:11:20Z</time>
      </trkpt>
      <trkpt lat="44.29242" lon="5.60912">
        <ele>791</ele>
        <time>2019-03-19T14:11:21Z</time>
      </trkpt>
      <trkpt lat="44.29241" lon="5.60905">
        <ele>791</ele>
        <time>2019-03-19T14:11:22Z</time>
      </trkpt>
      <trkpt lat="44.2924" lon="5.60899">
        <ele>791</ele>
        <time>2019-03-19T14:11:23Z</time>
      </trkpt>
      <trkpt lat="44.29239" lon="5.60892">
        <ele>791</ele>
        <time>2019-03-19T14:11:24Z</time>
      </trkpt>
      <trkpt lat="44.29238" lon="5.60885">
        <ele>791</ele>
        <time>2019-03-19T14:11:25Z</time>
      </trkpt>
      <trkpt lat="44.29237" lon="5.60879">
        <ele>791</ele>
        <time>2019-03-19T14:11:26Z</time>
      </trkpt>
      <trkpt lat="44.29237" lon="5.60872">
        <ele>791</ele>
        <time>2019-03-19T14:11:27Z</time>
      </trkpt>
      <trkpt lat="44.29236" lon="5.60866">
        <ele>791</ele>
        <time>2019-03-19T14:11:28Z</time>
      </trkpt>
      <trkpt lat="44.29235" lon="5.60859">
        <ele>791</ele>
        <time>2019-03-19T14:11:29Z</time>
      </trkpt>
      <trkpt lat="44.29234" lon="5.60853">
        <ele>792</ele>
        <time>2019-03-19T14:11:30Z</time>
      </trkpt>
      <trkpt lat="44.29233" lon="5.60846">
        <ele>792</ele>
        <time>2019-03-19T14:11:31Z</time>
      </trkpt>
      <trkpt lat="44.29232" lon="5.6084">
        <ele>792</ele>
        <time>2019-03-19T14:11:32Z</time>
      </trkpt>
      <trkpt lat="44.29232" lon="5.60833">
        <ele>792</ele>
        <time>2019-03-19T14:11:33Z</time>
      </trkpt>
      <trkpt lat="44.29231" lon="5.60827">
        <ele>792</ele>
        <time>2019-03-19T14:11:34Z</time>
      </trkpt>
      <trkpt lat="44.2923" lon="5.60821">
        <ele>792</ele>
        <time>2019-03-19T14:11:35Z</time>
      </trkpt>
      <trkpt lat="44.29229" lon="5.60815">
        <ele>792</ele>
        <time>2019-03-19T14:11:36Z</time>
      </trkpt>
      <trkpt lat="44.29228" lon="5.60808">
        <ele>792</ele>
        <time>2019-03-19T14:11:37Z</time>
      </trkpt>
      <trkpt lat="44.29227" lon="5.60802">
        <ele>793</ele>
        <time>2019-03-19T14:11:38Z</time>
      </trkpt>
      <trkpt lat="44.29227" lon="5.60796">
        <ele>793</ele>
        <time>2019-03-19T14:11:39Z</time>
      </trkpt>
      <trkpt lat="44.29226" lon="5.60789">
        <ele>793</ele>
        <time>2019-03-19T14:11:40Z</time>
      </trkpt>
      <trkpt lat="44.29225" lon="5.60783">
        <ele>793</ele>
        <time>2019-03-19T14:11:41Z</time>
      </trkpt>
      <trkpt lat="44.29224" lon="5.60777">
        <ele>793</ele>
        <time>2019-03-19T14:11:42Z</time>
      </trkpt>
      <trkpt lat="44.29223" lon="5.60771">
        <ele>794</ele>
        <time>2019-03-19T14:11:43Z</time>
      </trkpt>
      <trkpt lat="44.29222" lon="5.60765">
        <ele>794</ele>
        <time>2019-03-19T14:11:44Z</time>
      </trkpt>
      <trkpt lat="44.29222" lon="5.60759">
        <ele>794</ele>
        <time>2019-03-19T14:11:45Z</time>
      </trkpt>
      <trkpt lat="44.29221" lon="5.60753">
        <ele>794</ele>
        <time>2019-03-19T14:11:46Z</time>
      </trkpt>
      <trkpt lat="44.29221" lon="5.60747">
        <ele>794</ele>
        <time>2019-03-19T14:11:47Z</time>
      </trkpt>
      <trkpt lat="44.2922" lon="5.60741">
        <ele>794</ele>
        <time>2019-03-19T14:11:48Z</time>
      </trkpt>
      <trkpt lat="44.29219" lon="5.60736">
        <ele>794</ele>
        <time>2019-03-19T14:11:49Z</time>
      </trkpt>
      <trkpt lat="44.29219" lon="5.6073">
        <ele>795</ele>
        <time>2019-03-19T14:11:50Z</time>
      </trkpt>
      <trkpt lat="44.29219" lon="5.60724">
        <ele>795</ele>
        <time>2019-03-19T14:11:51Z</time>
      </trkpt>
      <trkpt lat="44.29219" lon="5.60718">
        <ele>795</ele>
        <time>2019-03-19T14:11:52Z</time>
      </trkpt>
      <trkpt lat="44.29219" lon="5.60713">
        <ele>795</ele>
        <time>2019-03-19T14:11:53Z</time>
      </trkpt>
      <trkpt lat="44.29218" lon="5.60707">
        <ele>796</ele>
        <time>2019-03-19T14:11:54Z</time>
      </trkpt>
      <trkpt lat="44.29218" lon="5.60701">
        <ele>796</ele>
        <time>2019-03-19T14:11:55Z</time>
      </trkpt>
      <trkpt lat="44.29219" lon="5.60696">
        <ele>796</ele>
        <time>2019-03-19T14:11:56Z</time>
      </trkpt>
      <trkpt lat="44.29219" lon="5.6069">
        <ele>797</ele>
        <time>2019-03-19T14:11:57Z</time>
      </trkpt>
      <trkpt lat="44.29219" lon="5.60684">
        <ele>797</ele>
        <time>2019-03-19T14:11:58Z</time>
      </trkpt>
      <trkpt lat="44.29219" lon="5.60679">
        <ele>797</ele>
        <time>2019-03-19T14:11:59Z</time>
      </trkpt>
      <trkpt lat="44.2922" lon="5.60673">
        <ele>797</ele>
        <time>2019-03-19T14:12:00Z</time>
      </trkpt>
      <trkpt lat="44.2922" lon="5.60667">
        <ele>798</ele>
        <time>2019-03-19T14:12:01Z</time>
      </trkpt>
      <trkpt lat="44.29221" lon="5.60661">
        <ele>798</ele>
        <time>2019-03-19T14:12:02Z</time>
      </trkpt>
      <trkpt lat="44.29221" lon="5.60656">
        <ele>798</ele>
        <time>2019-03-19T14:12:03Z</time>
      </trkpt>
      <trkpt lat="44.29222" lon="5.60651">
        <ele>798</ele>
        <time>2019-03-19T14:12:04Z</time>
      </trkpt>
      <trkpt lat="44.29222" lon="5.60645">
        <ele>799</ele>
        <time>2019-03-19T14:12:05Z</time>
      </trkpt>
      <trkpt lat="44.29223" lon="5.6064">
        <ele>799</ele>
        <time>2019-03-19T14:12:06Z</time>
      </trkpt>
      <trkpt lat="44.29224" lon="5.60635">
        <ele>799</ele>
        <time>2019-03-19T14:12:07Z</time>
      </trkpt>
      <trkpt lat="44.29224" lon="5.6063">
        <ele>799</ele>
        <time>2019-03-19T14:12:08Z</time>
      </trkpt>
      <trkpt lat="44.29225" lon="5.60625">
        <ele>800</ele>
        <time>2019-03-19T14:12:09Z</time>
      </trkpt>
      <trkpt lat="44.29226" lon="5.60619">
        <ele>800</ele>
        <time>2019-03-19T14:12:10Z</time>
      </trkpt>
      <trkpt lat="44.29226" lon="5.60615">
        <ele>800</ele>
        <time>2019-03-19T14:12:11Z</time>
      </trkpt>
      <trkpt lat="44.29228" lon="5.6061">
        <ele>800</ele>
        <time>2019-03-19T14:12:12Z</time>
      </trkpt>
      <trkpt lat="44.29229" lon="5.60605">
        <ele>801</ele>
        <time>2019-03-19T14:12:13Z</time>
      </trkpt>
      <trkpt lat="44.2923" lon="5.606">
        <ele>801</ele>
        <time>2019-03-19T14:12:14Z</time>
      </trkpt>
      <trkpt lat="44.2923" lon="5.60595">
        <ele>801</ele>
        <time>2019-03-19T14:12:15Z</time>
      </trkpt>
      <trkpt lat="44.29232" lon="5.60591">
        <ele>801</ele>
        <time>2019-03-19T14:12:16Z</time>
      </trkpt>
      <trkpt lat="44.29233" lon="5.60586">
        <ele>801</ele>
        <time>2019-03-19T14:12:17Z</time>
      </trkpt>
      <trkpt lat="44.29234" lon="5.60581">
        <ele>801</ele>
        <time>2019-03-19T14:12:18Z</time>
      </trkpt>
      <trkpt lat="44.29235" lon="5.60576">
        <ele>801</ele>
        <time>2019-03-19T14:12:19Z</time>
      </trkpt>
      <trkpt lat="44.29236" lon="5.60571">
        <ele>801</ele>
        <time>2019-03-19T14:12:20Z</time>
      </trkpt>
      <trkpt lat="44.29237" lon="5.60567">
        <ele>801</ele>
        <time>2019-03-19T14:12:21Z</time>
      </trkpt>
      <trkpt lat="44.29238" lon="5.60562">
        <ele>801</ele>
        <time>2019-03-19T14:12:22Z</time>
      </trkpt>
      <trkpt lat="44.29239" lon="5.60557">
        <ele>801</ele>
        <time>2019-03-19T14:12:23Z</time>
      </trkpt>
      <trkpt lat="44.2924" lon="5.60552">
        <ele>801</ele>
        <time>2019-03-19T14:12:24Z</time>
      </trkpt>
      <trkpt lat="44.29241" lon="5.60546">
        <ele>801</ele>
        <time>2019-03-19T14:12:25Z</time>
      </trkpt>
      <trkpt lat="44.29242" lon="5.6054">
        <ele>801</ele>
        <time>2019-03-19T14:12:26Z</time>
      </trkpt>
      <trkpt lat="44.29243" lon="5.60535">
        <ele>801</ele>
        <time>2019-03-19T14:12:27Z</time>
      </trkpt>
      <trkpt lat="44.29245" lon="5.60529">
        <ele>801</ele>
        <time>2019-03-19T14:12:28Z</time>
      </trkpt>
      <trkpt lat="44.29246" lon="5.60524">
        <ele>801</ele>
        <time>2019-03-19T14:12:29Z</time>
      </trkpt>
      <trkpt lat="44.29248" lon="5.60518">
        <ele>801</ele>
        <time>2019-03-19T14:12:30Z</time>
      </trkpt>
      <trkpt lat="44.2925" lon="5.60512">
        <ele>801</ele>
        <time>2019-03-19T14:12:31Z</time>
      </trkpt>
      <trkpt lat="44.29252" lon="5.60507">
        <ele>801</ele>
        <time>2019-03-19T14:12:32Z</time>
      </trkpt>
      <trkpt lat="44.29253" lon="5.60501">
        <ele>801</ele>
        <time>2019-03-19T14:12:33Z</time>
      </trkpt>
      <trkpt lat="44.29255" lon="5.60495">
        <ele>801</ele>
        <time>2019-03-19T14:12:34Z</time>
      </trkpt>
      <trkpt lat="44.29257" lon="5.60489">
        <ele>801</ele>
        <time>2019-03-19T14:12:35Z</time>
      </trkpt>
      <trkpt lat="44.29257" lon="5.60483">
        <ele>801</ele>
        <time>2019-03-19T14:12:36Z</time>
      </trkpt>
      <trkpt lat="44.29258" lon="5.60476">
        <ele>801</ele>
        <time>2019-03-19T14:12:37Z</time>
      </trkpt>
      <trkpt lat="44.29258" lon="5.6047">
        <ele>802</ele>
        <time>2019-03-19T14:12:38Z</time>
      </trkpt>
      <trkpt lat="44.29258" lon="5.60463">
        <ele>802</ele>
        <time>2019-03-19T14:12:39Z</time>
      </trkpt>
      <trkpt lat="44.29257" lon="5.60457">
        <ele>802</ele>
        <time>2019-03-19T14:12:40Z</time>
      </trkpt>
      <trkpt lat="44.29256" lon="5.6045">
        <ele>802</ele>
        <time>2019-03-19T14:12:41Z</time>
      </trkpt>
      <trkpt lat="44.29256" lon="5.60444">
        <ele>803</ele>
        <time>2019-03-19T14:12:42Z</time>
      </trkpt>
      <trkpt lat="44.29255" lon="5.60439">
        <ele>803</ele>
        <time>2019-03-19T14:12:43Z</time>
      </trkpt>
      <trkpt lat="44.29255" lon="5.60433">
        <ele>803</ele>
        <time>2019-03-19T14:12:44Z</time>
      </trkpt>
      <trkpt lat="44.29254" lon="5.60428">
        <ele>803</ele>
        <time>2019-03-19T14:12:45Z</time>
      </trkpt>
      <trkpt lat="44.29253" lon="5.60423">
        <ele>803</ele>
        <time>2019-03-19T14:12:46Z</time>
      </trkpt>
      <trkpt lat="44.29252" lon="5.60418">
        <ele>803</ele>
        <time>2019-03-19T14:12:47Z</time>
      </trkpt>
      <trkpt lat="44.29251" lon="5.60413">
        <ele>803</ele>
        <time>2019-03-19T14:12:48Z</time>
      </trkpt>
      <trkpt lat="44.29249" lon="5.60408">
        <ele>803</ele>
        <time>2019-03-19T14:12:49Z</time>
      </trkpt>
      <trkpt lat="44.29248" lon="5.60403">
        <ele>803</ele>
        <time>2019-03-19T14:12:50Z</time>
      </trkpt>
      <trkpt lat="44.29247" lon="5.60398">
        <ele>803</ele>
        <time>2019-03-19T14:12:51Z</time>
      </trkpt>
      <trkpt lat="44.29246" lon="5.60393">
        <ele>803</ele>
        <time>2019-03-19T14:12:52Z</time>
      </trkpt>
      <trkpt lat="44.29244" lon="5.60389">
        <ele>803</ele>
        <time>2019-03-19T14:12:53Z</time>
      </trkpt>
      <trkpt lat="44.29243" lon="5.60384">
        <ele>803</ele>
        <time>2019-03-19T14:12:54Z</time>
      </trkpt>
      <trkpt lat="44.29242" lon="5.6038">
        <ele>803</ele>
        <time>2019-03-19T14:12:55Z</time>
      </trkpt>
      <trkpt lat="44.29242" lon="5.60375">
        <ele>803</ele>
        <time>2019-03-19T14:12:56Z</time>
      </trkpt>
      <trkpt lat="44.29241" lon="5.6037">
        <ele>803</ele>
        <time>2019-03-19T14:12:57Z</time>
      </trkpt>
      <trkpt lat="44.2924" lon="5.60365">
        <ele>803</ele>
        <time>2019-03-19T14:12:58Z</time>
      </trkpt>
      <trkpt lat="44.29239" lon="5.60361">
        <ele>803</ele>
        <time>2019-03-19T14:12:59Z</time>
      </trkpt>
      <trkpt lat="44.29238" lon="5.60356">
        <ele>804</ele>
        <time>2019-03-19T14:13:00Z</time>
      </trkpt>
      <trkpt lat="44.29237" lon="5.60351">
        <ele>804</ele>
        <time>2019-03-19T14:13:01Z</time>
      </trkpt>
      <trkpt lat="44.29237" lon="5.60346">
        <ele>804</ele>
        <time>2019-03-19T14:13:02Z</time>
      </trkpt>
      <trkpt lat="44.29236" lon="5.60341">
        <ele>804</ele>
        <time>2019-03-19T14:13:03Z</time>
      </trkpt>
      <trkpt lat="44.29235" lon="5.60336">
        <ele>804</ele>
        <time>2019-03-19T14:13:04Z</time>
      </trkpt>
      <trkpt lat="44.29234" lon="5.60331">
        <ele>804</ele>
        <time>2019-03-19T14:13:05Z</time>
      </trkpt>
      <trkpt lat="44.29233" lon="5.60326">
        <ele>804</ele>
        <time>2019-03-19T14:13:06Z</time>
      </trkpt>
      <trkpt lat="44.29232" lon="5.60321">
        <ele>804</ele>
        <time>2019-03-19T14:13:07Z</time>
      </trkpt>
      <trkpt lat="44.29232" lon="5.60316">
        <ele>804</ele>
        <time>2019-03-19T14:13:08Z</time>
      </trkpt>
      <trkpt lat="44.29231" lon="5.6031">
        <ele>804</ele>
        <time>2019-03-19T14:13:09Z</time>
      </trkpt>
      <trkpt lat="44.2923" lon="5.60305">
        <ele>804</ele>
        <time>2019-03-19T14:13:10Z</time>
      </trkpt>
      <trkpt lat="44.29229" lon="5.60299">
        <ele>804</ele>
        <time>2019-03-19T14:13:11Z</time>
      </trkpt>
      <trkpt lat="44.29228" lon="5.60293">
        <ele>804</ele>
        <time>2019-03-19T14:13:12Z</time>
      </trkpt>
      <trkpt lat="44.29227" lon="5.60288">
        <ele>804</ele>
        <time>2019-03-19T14:13:13Z</time>
      </trkpt>
      <trkpt lat="44.29226" lon="5.60282">
        <ele>804</ele>
        <time>2019-03-19T14:13:14Z</time>
      </trkpt>
      <trkpt lat="44.29225" lon="5.60276">
        <ele>804</ele>
        <time>2019-03-19T14:13:15Z</time>
      </trkpt>
      <trkpt lat="44.29224" lon="5.60271">
        <ele>804</ele>
        <time>2019-03-19T14:13:16Z</time>
      </trkpt>
      <trkpt lat="44.29222" lon="5.60265">
        <ele>804</ele>
        <time>2019-03-19T14:13:17Z</time>
      </trkpt>
      <trkpt lat="44.2922" lon="5.6026">
        <ele>804</ele>
        <time>2019-03-19T14:13:18Z</time>
      </trkpt>
      <trkpt lat="44.29218" lon="5.60254">
        <ele>804</ele>
        <time>2019-03-19T14:13:19Z</time>
      </trkpt>
      <trkpt lat="44.29216" lon="5.60249">
        <ele>804</ele>
        <time>2019-03-19T14:13:20Z</time>
      </trkpt>
      <trkpt lat="44.29214" lon="5.60244">
        <ele>804</ele>
        <time>2019-03-19T14:13:21Z</time>
      </trkpt>
      <trkpt lat="44.29212" lon="5.60239">
        <ele>804</ele>
        <time>2019-03-19T14:13:22Z</time>
      </trkpt>
      <trkpt lat="44.2921" lon="5.60233">
        <ele>804</ele>
        <time>2019-03-19T14:13:23Z</time>
      </trkpt>
      <trkpt lat="44.29208" lon="5.60228">
        <ele>804</ele>
        <time>2019-03-19T14:13:24Z</time>
      </trkpt>
      <trkpt lat="44.29206" lon="5.60223">
        <ele>804</ele>
        <time>2019-03-19T14:13:25Z</time>
      </trkpt>
      <trkpt lat="44.29204" lon="5.60218">
        <ele>805</ele>
        <time>2019-03-19T14:13:26Z</time>
      </trkpt>
      <trkpt lat="44.29202" lon="5.60213">
        <ele>805</ele>
        <time>2019-03-19T14:13:27Z</time>
      </trkpt>
      <trkpt lat="44.29199" lon="5.60208">
        <ele>805</ele>
        <time>2019-03-19T14:13:28Z</time>
      </trkpt>
      <trkpt lat="44.29197" lon="5.60203">
        <ele>805</ele>
        <time>2019-03-19T14:13:29Z</time>
      </trkpt>
      <trkpt lat="44.29195" lon="5.60198">
        <ele>805</ele>
        <time>2019-03-19T14:13:30Z</time>
      </trkpt>
      <trkpt lat="44.29192" lon="5.60193">
        <ele>806</ele>
        <time>2019-03-19T14:13:31Z</time>
      </trkpt>
      <trkpt lat="44.2919" lon="5.60188">
        <ele>806</ele>
        <time>2019-03-19T14:13:32Z</time>
      </trkpt>
      <trkpt lat="44.29187" lon="5.60184">
        <ele>806</ele>
        <time>2019-03-19T14:13:33Z</time>
      </trkpt>
      <trkpt lat="44.29185" lon="5.60179">
        <ele>806</ele>
        <time>2019-03-19T14:13:34Z</time>
      </trkpt>
      <trkpt lat="44.29182" lon="5.60174">
        <ele>807</ele>
        <time>2019-03-19T14:13:35Z</time>
      </trkpt>
      <trkpt lat="44.2918" lon="5.6017">
        <ele>807</ele>
        <time>2019-03-19T14:13:36Z</time>
      </trkpt>
      <trkpt lat="44.29177" lon="5.60165">
        <ele>807</ele>
        <time>2019-03-19T14:13:37Z</time>
      </trkpt>
      <trkpt lat="44.29175" lon="5.6016">
        <ele>807</ele>
        <time>2019-03-19T14:13:38Z</time>
      </trkpt>
      <trkpt lat="44.29173" lon="5.60155">
        <ele>807</ele>
        <time>2019-03-19T14:13:39Z</time>
      </trkpt>
      <trkpt lat="44.2917" lon="5.60151">
        <ele>807</ele>
        <time>2019-03-19T14:13:40Z</time>
      </trkpt>
      <trkpt lat="44.29168" lon="5.60146">
        <ele>807</ele>
        <time>2019-03-19T14:13:41Z</time>
      </trkpt>
      <trkpt lat="44.29166" lon="5.60141">
        <ele>807</ele>
        <time>2019-03-19T14:13:42Z</time>
      </trkpt>
      <trkpt lat="44.29163" lon="5.60137">
        <ele>807</ele>
        <time>2019-03-19T14:13:43Z</time>
      </trkpt>
      <trkpt lat="44.2916" lon="5.60132">
        <ele>807</ele>
        <time>2019-03-19T14:13:44Z</time>
      </trkpt>
      <trkpt lat="44.29158" lon="5.60127">
        <ele>807</ele>
        <time>2019-03-19T14:13:45Z</time>
      </trkpt>
      <trkpt lat="44.29155" lon="5.60123">
        <ele>807</ele>
        <time>2019-03-19T14:13:46Z</time>
      </trkpt>
      <trkpt lat="44.29153" lon="5.60118">
        <ele>807</ele>
        <time>2019-03-19T14:13:47Z</time>
      </trkpt>
      <trkpt lat="44.29151" lon="5.60113">
        <ele>808</ele>
        <time>2019-03-19T14:13:48Z</time>
      </trkpt>
      <trkpt lat="44.29149" lon="5.60109">
        <ele>808</ele>
        <time>2019-03-19T14:13:49Z</time>
      </trkpt>
      <trkpt lat="44.29147" lon="5.60104">
        <ele>808</ele>
        <time>2019-03-19T14:13:50Z</time>
      </trkpt>
      <trkpt lat="44.29145" lon="5.60099">
        <ele>808</ele>
        <time>2019-03-19T14:13:51Z</time>
      </trkpt>
      <trkpt lat="44.29143" lon="5.60095">
        <ele>808</ele>
        <time>2019-03-19T14:13:52Z</time>
      </trkpt>
      <trkpt lat="44.29141" lon="5.6009">
        <ele>808</ele>
        <time>2019-03-19T14:13:53Z</time>
      </trkpt>
      <trkpt lat="44.29139" lon="5.60085">
        <ele>808</ele>
        <time>2019-03-19T14:13:54Z</time>
      </trkpt>
      <trkpt lat="44.29138" lon="5.6008">
        <ele>809</ele>
        <time>2019-03-19T14:13:55Z</time>
      </trkpt>
      <trkpt lat="44.29136" lon="5.60075">
        <ele>809</ele>
        <time>2019-03-19T14:13:56Z</time>
      </trkpt>
      <trkpt lat="44.29135" lon="5.60071">
        <ele>809</ele>
        <time>2019-03-19T14:13:57Z</time>
      </trkpt>
      <trkpt lat="44.29134" lon="5.60066">
        <ele>809</ele>
        <time>2019-03-19T14:13:58Z</time>
      </trkpt>
      <trkpt lat="44.29132" lon="5.60061">
        <ele>810</ele>
        <time>2019-03-19T14:13:59Z</time>
      </trkpt>
      <trkpt lat="44.29131" lon="5.60056">
        <ele>810</ele>
        <time>2019-03-19T14:14:00Z</time>
      </trkpt>
      <trkpt lat="44.2913" lon="5.60051">
        <ele>810</ele>
        <time>2019-03-19T14:14:01Z</time>
      </trkpt>
      <trkpt lat="44.29129" lon="5.60046">
        <ele>811</ele>
        <time>2019-03-19T14:14:02Z</time>
      </trkpt>
      <trkpt lat="44.29128" lon="5.60041">
        <ele>811</ele>
        <time>2019-03-19T14:14:03Z</time>
      </trkpt>
      <trkpt lat="44.29128" lon="5.60036">
        <ele>811</ele>
        <time>2019-03-19T14:14:04Z</time>
      </trkpt>
      <trkpt lat="44.29128" lon="5.6003">
        <ele>812</ele>
        <time>2019-03-19T14:14:05Z</time>
      </trkpt>
      <trkpt lat="44.29127" lon="5.60025">
        <ele>812</ele>
        <time>2019-03-19T14:14:06Z</time>
      </trkpt>
      <trkpt lat="44.29127" lon="5.6002">
        <ele>812</ele>
        <time>2019-03-19T14:14:07Z</time>
      </trkpt>
      <trkpt lat="44.29127" lon="5.60015">
        <ele>812</ele>
        <time>2019-03-19T14:14:08Z</time>
      </trkpt>
      <trkpt lat="44.29127" lon="5.6001">
        <ele>812</ele>
        <time>2019-03-19T14:14:09Z</time>
      </trkpt>
      <trkpt lat="44.29127" lon="5.60005">
        <ele>812</ele>
        <time>2019-03-19T14:14:10Z</time>
      </trkpt>
      <trkpt lat="44.29127" lon="5.6">
        <ele>812</ele>
        <time>2019-03-19T14:14:11Z</time>
      </trkpt>
      <trkpt lat="44.29127" lon="5.59995">
        <ele>812</ele>
        <time>2019-03-19T14:14:12Z</time>
      </trkpt>
      <trkpt lat="44.29127" lon="5.5999">
        <ele>812</ele>
        <time>2019-03-19T14:14:13Z</time>
      </trkpt>
      <trkpt lat="44.29127" lon="5.59985">
        <ele>812</ele>
        <time>2019-03-19T14:14:14Z</time>
      </trkpt>
      <trkpt lat="44.29127" lon="5.59981">
        <ele>812</ele>
        <time>2019-03-19T14:14:15Z</time>
      </trkpt>
      <trkpt lat="44.29127" lon="5.59976">
        <ele>812</ele>
        <time>2019-03-19T14:14:16Z</time>
      </trkpt>
      <trkpt lat="44.29127" lon="5.59972">
        <ele>812</ele>
        <time>2019-03-19T14:14:17Z</time>
      </trkpt>
      <trkpt lat="44.29127" lon="5.59967">
        <ele>812</ele>
        <time>2019-03-19T14:14:18Z</time>
      </trkpt>
      <trkpt lat="44.29127" lon="5.59962">
        <ele>812</ele>
        <time>2019-03-19T14:14:19Z</time>
      </trkpt>
      <trkpt lat="44.29128" lon="5.59958">
        <ele>812</ele>
        <time>2019-03-19T14:14:20Z</time>
      </trkpt>
      <trkpt lat="44.29128" lon="5.59953">
        <ele>812</ele>
        <time>2019-03-19T14:14:21Z</time>
      </trkpt>
      <trkpt lat="44.29128" lon="5.59948">
        <ele>812</ele>
        <time>2019-03-19T14:14:22Z</time>
      </trkpt>
      <trkpt lat="44.29128" lon="5.59943">
        <ele>812</ele>
        <time>2019-03-19T14:14:23Z</time>
      </trkpt>
      <trkpt lat="44.29128" lon="5.59938">
        <ele>812</ele>
        <time>2019-03-19T14:14:24Z</time>
      </trkpt>
      <trkpt lat="44.29129" lon="5.59933">
        <ele>812</ele>
        <time>2019-03-19T14:14:25Z</time>
      </trkpt>
      <trkpt lat="44.29129" lon="5.59927">
        <ele>813</ele>
        <time>2019-03-19T14:14:26Z</time>
      </trkpt>
      <trkpt lat="44.29128" lon="5.59923">
        <ele>813</ele>
        <time>2019-03-19T14:14:27Z</time>
      </trkpt>
      <trkpt lat="44.29129" lon="5.59918">
        <ele>814</ele>
        <time>2019-03-19T14:14:28Z</time>
      </trkpt>
      <trkpt lat="44.29129" lon="5.59913">
        <ele>814</ele>
        <time>2019-03-19T14:14:29Z</time>
      </trkpt>
      <trkpt lat="44.2913" lon="5.59908">
        <ele>814</ele>
        <time>2019-03-19T14:14:30Z</time>
      </trkpt>
      <trkpt lat="44.2913" lon="5.59903">
        <ele>815</ele>
        <time>2019-03-19T14:14:31Z</time>
      </trkpt>
      <trkpt lat="44.29131" lon="5.59898">
        <ele>815</ele>
        <time>2019-03-19T14:14:32Z</time>
      </trkpt>
      <trkpt lat="44.29131" lon="5.59893">
        <ele>815</ele>
        <time>2019-03-19T14:14:33Z</time>
      </trkpt>
      <trkpt lat="44.29131" lon="5.59889">
        <ele>815</ele>
        <time>2019-03-19T14:14:34Z</time>
      </trkpt>
      <trkpt lat="44.29132" lon="5.59884">
        <ele>815</ele>
        <time>2019-03-19T14:14:35Z</time>
      </trkpt>
      <trkpt lat="44.29133" lon="5.5988">
        <ele>816</ele>
        <time>2019-03-19T14:14:36Z</time>
      </trkpt>
      <trkpt lat="44.29134" lon="5.59875">
        <ele>817</ele>
        <time>2019-03-19T14:14:37Z</time>
      </trkpt>
      <trkpt lat="44.29135" lon="5.59871">
        <ele>817</ele>
        <time>2019-03-19T14:14:38Z</time>
      </trkpt>
      <trkpt lat="44.29136" lon="5.59867">
        <ele>817</ele>
        <time>2019-03-19T14:14:39Z</time>
      </trkpt>
      <trkpt lat="44.29137" lon="5.59863">
        <ele>818</ele>
        <time>2019-03-19T14:14:40Z</time>
      </trkpt>
      <trkpt lat="44.29137" lon="5.59859">
        <ele>818</ele>
        <time>2019-03-19T14:14:41Z</time>
      </trkpt>
      <trkpt lat="44.29138" lon="5.59855">
        <ele>818</ele>
        <time>2019-03-19T14:14:42Z</time>
      </trkpt>
      <trkpt lat="44.29139" lon="5.59851">
        <ele>818</ele>
        <time>2019-03-19T14:14:43Z</time>
      </trkpt>
      <trkpt lat="44.2914" lon="5.59847">
        <ele>819</ele>
        <time>2019-03-19T14:14:44Z</time>
      </trkpt>
      <trkpt lat="44.29141" lon="5.59844">
        <ele>819</ele>
        <time>2019-03-19T14:14:45Z</time>
      </trkpt>
      <trkpt lat="44.29142" lon="5.5984">
        <ele>819</ele>
        <time>2019-03-19T14:14:46Z</time>
      </trkpt>
      <trkpt lat="44.29144" lon="5.59836">
        <ele>820</ele>
        <time>2019-03-19T14:14:47Z</time>
      </trkpt>
      <trkpt lat="44.29145" lon="5.59832">
        <ele>820</ele>
        <time>2019-03-19T14:14:48Z</time>
      </trkpt>
      <trkpt lat="44.29146" lon="5.59829">
        <ele>820</ele>
        <time>2019-03-19T14:14:49Z</time>
      </trkpt>
      <trkpt lat="44.29147" lon="5.59826">
        <ele>820</ele>
        <time>2019-03-19T14:14:50Z</time>
      </trkpt>
      <trkpt lat="44.29148" lon="5.59823">
        <ele>820</ele>
        <time>2019-03-19T14:14:51Z</time>
      </trkpt>
      <trkpt lat="44.2915" lon="5.5982">
        <ele>820</ele>
        <time>2019-03-19T14:14:52Z</time>
      </trkpt>
      <trkpt lat="44.29151" lon="5.59817">
        <ele>820</ele>
        <time>2019-03-19T14:14:53Z</time>
      </trkpt>
      <trkpt lat="44.29153" lon="5.59814">
        <ele>820</ele>
        <time>2019-03-19T14:14:54Z</time>
      </trkpt>
      <trkpt lat="44.29155" lon="5.59811">
        <ele>820</ele>
        <time>2019-03-19T14:14:55Z</time>
      </trkpt>
      <trkpt lat="44.29156" lon="5.59808">
        <ele>820</ele>
        <time>2019-03-19T14:14:56Z</time>
      </trkpt>
      <trkpt lat="44.29158" lon="5.59805">
        <ele>820</ele>
        <time>2019-03-19T14:14:57Z</time>
      </trkpt>
      <trkpt lat="44.2916" lon="5.59801">
        <ele>820</ele>
        <time>2019-03-19T14:14:58Z</time>
      </trkpt>
      <trkpt lat="44.29162" lon="5.59798">
        <ele>820</ele>
        <time>2019-03-19T14:14:59Z</time>
      </trkpt>
      <trkpt lat="44.29165" lon="5.59795">
        <ele>820</ele>
        <time>2019-03-19T14:15:00Z</time>
      </trkpt>
      <trkpt lat="44.29167" lon="5.59792">
        <ele>820</ele>
        <time>2019-03-19T14:15:01Z</time>
      </trkpt>
      <trkpt lat="44.29169" lon="5.5979">
        <ele>820</ele>
        <time>2019-03-19T14:15:02Z</time>
      </trkpt>
      <trkpt lat="44.29172" lon="5.59787">
        <ele>820</ele>
        <time>2019-03-19T14:15:03Z</time>
      </trkpt>
      <trkpt lat="44.29175" lon="5.59784">
        <ele>820</ele>
        <time>2019-03-19T14:15:04Z</time>
      </trkpt>
      <trkpt lat="44.29178" lon="5.59781">
        <ele>820</ele>
        <time>2019-03-19T14:15:05Z</time>
      </trkpt>
      <trkpt lat="44.29181" lon="5.59778">
        <ele>820</ele>
        <time>2019-03-19T14:15:06Z</time>
      </trkpt>
      <trkpt lat="44.29184" lon="5.59775">
        <ele>820</ele>
        <time>2019-03-19T14:15:07Z</time>
      </trkpt>
      <trkpt lat="44.29187" lon="5.59772">
        <ele>820</ele>
        <time>2019-03-19T14:15:08Z</time>
      </trkpt>
      <trkpt lat="44.2919" lon="5.59769">
        <ele>820</ele>
        <time>2019-03-19T14:15:09Z</time>
      </trkpt>
      <trkpt lat="44.29193" lon="5.59765">
        <ele>820</ele>
        <time>2019-03-19T14:15:10Z</time>
      </trkpt>
      <trkpt lat="44.29197" lon="5.59762">
        <ele>820</ele>
        <time>2019-03-19T14:15:11Z</time>
      </trkpt>
      <trkpt lat="44.292" lon="5.59758">
        <ele>820</ele>
        <time>2019-03-19T14:15:12Z</time>
      </trkpt>
      <trkpt lat="44.29203" lon="5.59754">
        <ele>820</ele>
        <time>2019-03-19T14:15:13Z</time>
      </trkpt>
      <trkpt lat="44.29206" lon="5.5975">
        <ele>820</ele>
        <time>2019-03-19T14:15:14Z</time>
      </trkpt>
      <trkpt lat="44.2921" lon="5.59746">
        <ele>820</ele>
        <time>2019-03-19T14:15:15Z</time>
      </trkpt>
      <trkpt lat="44.29212" lon="5.59741">
        <ele>820</ele>
        <time>2019-03-19T14:15:16Z</time>
      </trkpt>
      <trkpt lat="44.29215" lon="5.59735">
        <ele>820</ele>
        <time>2019-03-19T14:15:17Z</time>
      </trkpt>
      <trkpt lat="44.29218" lon="5.5973">
        <ele>820</ele>
        <time>2019-03-19T14:15:18Z</time>
      </trkpt>
      <trkpt lat="44.29221" lon="5.59726">
        <ele>820</ele>
        <time>2019-03-19T14:15:19Z</time>
      </trkpt>
      <trkpt lat="44.29224" lon="5.59721">
        <ele>820</ele>
        <time>2019-03-19T14:15:20Z</time>
      </trkpt>
      <trkpt lat="44.29228" lon="5.59716">
        <ele>820</ele>
        <time>2019-03-19T14:15:21Z</time>
      </trkpt>
      <trkpt lat="44.29232" lon="5.59711">
        <ele>820</ele>
        <time>2019-03-19T14:15:22Z</time>
      </trkpt>
      <trkpt lat="44.29235" lon="5.59706">
        <ele>820</ele>
        <time>2019-03-19T14:15:23Z</time>
      </trkpt>
      <trkpt lat="44.29239" lon="5.59701">
        <ele>820</ele>
        <time>2019-03-19T14:15:24Z</time>
      </trkpt>
      <trkpt lat="44.29243" lon="5.59696">
        <ele>820</ele>
        <time>2019-03-19T14:15:25Z</time>
      </trkpt>
      <trkpt lat="44.29247" lon="5.59691">
        <ele>820</ele>
        <time>2019-03-19T14:15:26Z</time>
      </trkpt>
      <trkpt lat="44.2925" lon="5.59686">
        <ele>820</ele>
        <time>2019-03-19T14:15:27Z</time>
      </trkpt>
      <trkpt lat="44.29253" lon="5.5968">
        <ele>820</ele>
        <time>2019-03-19T14:15:28Z</time>
      </trkpt>
      <trkpt lat="44.29257" lon="5.59675">
        <ele>820</ele>
        <time>2019-03-19T14:15:29Z</time>
      </trkpt>
      <trkpt lat="44.29261" lon="5.59669">
        <ele>820</ele>
        <time>2019-03-19T14:15:30Z</time>
      </trkpt>
      <trkpt lat="44.29264" lon="5.59664">
        <ele>820</ele>
        <time>2019-03-19T14:15:31Z</time>
      </trkpt>
      <trkpt lat="44.29267" lon="5.59659">
        <ele>820</ele>
        <time>2019-03-19T14:15:32Z</time>
      </trkpt>
      <trkpt lat="44.2927" lon="5.59653">
        <ele>820</ele>
        <time>2019-03-19T14:15:33Z</time>
      </trkpt>
      <trkpt lat="44.29272" lon="5.59647">
        <ele>820</ele>
        <time>2019-03-19T14:15:34Z</time>
      </trkpt>
      <trkpt lat="44.29274" lon="5.59642">
        <ele>820</ele>
        <time>2019-03-19T14:15:35Z</time>
      </trkpt>
      <trkpt lat="44.29277" lon="5.59637">
        <ele>820</ele>
        <time>2019-03-19T14:15:36Z</time>
      </trkpt>
      <trkpt lat="44.29279" lon="5.59632">
        <ele>820</ele>
        <time>2019-03-19T14:15:37Z</time>
      </trkpt>
      <trkpt lat="44.29281" lon="5.59628">
        <ele>820</ele>
        <time>2019-03-19T14:15:38Z</time>
      </trkpt>
      <trkpt lat="44.29283" lon="5.59625">
        <ele>820</ele>
        <time>2019-03-19T14:15:39Z</time>
      </trkpt>
      <trkpt lat="44.29284" lon="5.59622">
        <ele>820</ele>
        <time>2019-03-19T14:15:40Z</time>
      </trkpt>
      <trkpt lat="44.29285" lon="5.59619">
        <ele>820</ele>
        <time>2019-03-19T14:15:41Z</time>
      </trkpt>
      <trkpt lat="44.29286" lon="5.59617">
        <ele>820</ele>
        <time>2019-03-19T14:15:42Z</time>
      </trkpt>
      <trkpt lat="44.29287" lon="5.59615">
        <ele>820</ele>
        <time>2019-03-19T14:15:43Z</time>
      </trkpt>
      <trkpt lat="44.29287" lon="5.59613">
        <ele>820</ele>
        <time>2019-03-19T14:15:44Z</time>
      </trkpt>
      <trkpt lat="44.29285" lon="5.59612">
        <ele>820</ele>
        <time>2019-03-19T14:15:52Z</time>
      </trkpt>
      <trkpt lat="44.29284" lon="5.59611">
        <ele>820</ele>
        <time>2019-03-19T14:15:55Z</time>
      </trkpt>
      <trkpt lat="44.29283" lon="5.5961">
        <ele>820</ele>
        <time>2019-03-19T14:15:58Z</time>
      </trkpt>
      <trkpt lat="44.29284" lon="5.59609">
        <ele>820</ele>
        <time>2019-03-19T14:16:01Z</time>
      </trkpt>
      <trkpt lat="44.29283" lon="5.59605">
        <ele>827</ele>
        <time>2019-03-19T14:16:11Z</time>
      </trkpt>
      <trkpt lat="44.29281" lon="5.59605">
        <ele>827</ele>
        <time>2019-03-19T14:16:18Z</time>
      </trkpt>
      <trkpt lat="44.2928" lon="5.59605">
        <ele>827</ele>
        <time>2019-03-19T14:16:20Z</time>
      </trkpt>
      <trkpt lat="44.29278" lon="5.59605">
        <ele>827</ele>
        <time>2019-03-19T14:16:22Z</time>
      </trkpt>
      <trkpt lat="44.29277" lon="5.59605">
        <ele>827</ele>
        <time>2019-03-19T14:16:23Z</time>
      </trkpt>
      <trkpt lat="44.29276" lon="5.59606">
        <ele>827</ele>
        <time>2019-03-19T14:16:24Z</time>
      </trkpt>
      <trkpt lat="44.29274" lon="5.59606">
        <ele>827</ele>
        <time>2019-03-19T14:16:25Z</time>
      </trkpt>
      <trkpt lat="44.29272" lon="5.59605">
        <ele>827</ele>
        <time>2019-03-19T14:16:26Z</time>
      </trkpt>
      <trkpt lat="44.2927" lon="5.59604">
        <ele>827</ele>
        <time>2019-03-19T14:16:27Z</time>
      </trkpt>
      <trkpt lat="44.29269" lon="5.59602">
        <ele>827</ele>
        <time>2019-03-19T14:16:28Z</time>
      </trkpt>
      <trkpt lat="44.29267" lon="5.596">
        <ele>827</ele>
        <time>2019-03-19T14:16:29Z</time>
      </trkpt>
      <trkpt lat="44.29266" lon="5.59599">
        <ele>827</ele>
        <time>2019-03-19T14:16:30Z</time>
      </trkpt>
      <trkpt lat="44.29264" lon="5.59597">
        <ele>827</ele>
        <time>2019-03-19T14:16:31Z</time>
      </trkpt>
      <trkpt lat="44.29262" lon="5.59595">
        <ele>827</ele>
        <time>2019-03-19T14:16:32Z</time>
      </trkpt>
      <trkpt lat="44.29259" lon="5.59594">
        <ele>827</ele>
        <time>2019-03-19T14:16:33Z</time>
      </trkpt>
      <trkpt lat="44.29257" lon="5.59592">
        <ele>827</ele>
        <time>2019-03-19T14:16:34Z</time>
      </trkpt>
      <trkpt lat="44.29254" lon="5.59591">
        <ele>827</ele>
        <time>2019-03-19T14:16:35Z</time>
      </trkpt>
      <trkpt lat="44.29251" lon="5.5959">
        <ele>827</ele>
        <time>2019-03-19T14:16:36Z</time>
      </trkpt>
      <trkpt lat="44.29248" lon="5.59588">
        <ele>827</ele>
        <time>2019-03-19T14:16:37Z</time>
      </trkpt>
      <trkpt lat="44.29244" lon="5.59587">
        <ele>827</ele>
        <time>2019-03-19T14:16:38Z</time>
      </trkpt>
      <trkpt lat="44.2924" lon="5.59585">
        <ele>827</ele>
        <time>2019-03-19T14:16:39Z</time>
      </trkpt>
      <trkpt lat="44.29235" lon="5.59584">
        <ele>827</ele>
        <time>2019-03-19T14:16:40Z</time>
      </trkpt>
      <trkpt lat="44.29231" lon="5.59581">
        <ele>827</ele>
        <time>2019-03-19T14:16:41Z</time>
      </trkpt>
      <trkpt lat="44.29227" lon="5.59579">
        <ele>827</ele>
        <time>2019-03-19T14:16:42Z</time>
      </trkpt>
      <trkpt lat="44.29222" lon="5.59577">
        <ele>827</ele>
        <time>2019-03-19T14:16:43Z</time>
      </trkpt>
      <trkpt lat="44.29217" lon="5.59574">
        <ele>827</ele>
        <time>2019-03-19T14:16:44Z</time>
      </trkpt>
      <trkpt lat="44.29211" lon="5.59571">
        <ele>827</ele>
        <time>2019-03-19T14:16:45Z</time>
      </trkpt>
      <trkpt lat="44.29206" lon="5.59568">
        <ele>827</ele>
        <time>2019-03-19T14:16:46Z</time>
      </trkpt>
      <trkpt lat="44.292" lon="5.59566">
        <ele>827</ele>
        <time>2019-03-19T14:16:47Z</time>
      </trkpt>
      <trkpt lat="44.29195" lon="5.59565">
        <ele>827</ele>
        <time>2019-03-19T14:16:48Z</time>
      </trkpt>
      <trkpt lat="44.29189" lon="5.59565">
        <ele>827</ele>
        <time>2019-03-19T14:16:49Z</time>
      </trkpt>
      <trkpt lat="44.29183" lon="5.59566">
        <ele>827</ele>
        <time>2019-03-19T14:16:50Z</time>
      </trkpt>
      <trkpt lat="44.29177" lon="5.59568">
        <ele>827</ele>
        <time>2019-03-19T14:16:51Z</time>
      </trkpt>
      <trkpt lat="44.29172" lon="5.5957">
        <ele>827</ele>
        <time>2019-03-19T14:16:52Z</time>
      </trkpt>
      <trkpt lat="44.29166" lon="5.59572">
        <ele>827</ele>
        <time>2019-03-19T14:16:53Z</time>
      </trkpt>
      <trkpt lat="44.29161" lon="5.59574">
        <ele>827</ele>
        <time>2019-03-19T14:16:54Z</time>
      </trkpt>
      <trkpt lat="44.29155" lon="5.59577">
        <ele>827</ele>
        <time>2019-03-19T14:16:55Z</time>
      </trkpt>
      <trkpt lat="44.2915" lon="5.5958">
        <ele>827</ele>
        <time>2019-03-19T14:16:56Z</time>
      </trkpt>
      <trkpt lat="44.29145" lon="5.59584">
        <ele>827</ele>
        <time>2019-03-19T14:16:57Z</time>
      </trkpt>
      <trkpt lat="44.2914" lon="5.59588">
        <ele>827</ele>
        <time>2019-03-19T14:16:58Z</time>
      </trkpt>
      <trkpt lat="44.29135" lon="5.59594">
        <ele>827</ele>
        <time>2019-03-19T14:16:59Z</time>
      </trkpt>
      <trkpt lat="44.2913" lon="5.596">
        <ele>827</ele>
        <time>2019-03-19T14:17:00Z</time>
      </trkpt>
      <trkpt lat="44.29125" lon="5.59607">
        <ele>826</ele>
        <time>2019-03-19T14:17:01Z</time>
      </trkpt>
      <trkpt lat="44.2912" lon="5.59613">
        <ele>826</ele>
        <time>2019-03-19T14:17:02Z</time>
      </trkpt>
      <trkpt lat="44.29114" lon="5.59621">
        <ele>826</ele>
        <time>2019-03-19T14:17:03Z</time>
      </trkpt>
      <trkpt lat="44.29109" lon="5.59628">
        <ele>826</ele>
        <time>2019-03-19T14:17:04Z</time>
      </trkpt>
      <trkpt lat="44.29104" lon="5.59636">
        <ele>825</ele>
        <time>2019-03-19T14:17:05Z</time>
      </trkpt>
      <trkpt lat="44.291" lon="5.59645">
        <ele>825</ele>
        <time>2019-03-19T14:17:06Z</time>
      </trkpt>
      <trkpt lat="44.29095" lon="5.59653">
        <ele>825</ele>
        <time>2019-03-19T14:17:07Z</time>
      </trkpt>
      <trkpt lat="44.29091" lon="5.59662">
        <ele>825</ele>
        <time>2019-03-19T14:17:08Z</time>
      </trkpt>
      <trkpt lat="44.29087" lon="5.59671">
        <ele>825</ele>
        <time>2019-03-19T14:17:09Z</time>
      </trkpt>
      <trkpt lat="44.29084" lon="5.59679">
        <ele>825</ele>
        <time>2019-03-19T14:17:10Z</time>
      </trkpt>
      <trkpt lat="44.2908" lon="5.59687">
        <ele>825</ele>
        <time>2019-03-19T14:17:11Z</time>
      </trkpt>
      <trkpt lat="44.29076" lon="5.59695">
        <ele>825</ele>
        <time>2019-03-19T14:17:12Z</time>
      </trkpt>
      <trkpt lat="44.29072" lon="5.59702">
        <ele>825</ele>
        <time>2019-03-19T14:17:13Z</time>
      </trkpt>
      <trkpt lat="44.29068" lon="5.59708">
        <ele>825</ele>
        <time>2019-03-19T14:17:14Z</time>
      </trkpt>
      <trkpt lat="44.29063" lon="5.59713">
        <ele>825</ele>
        <time>2019-03-19T14:17:15Z</time>
      </trkpt>
      <trkpt lat="44.29057" lon="5.59717">
        <ele>825</ele>
        <time>2019-03-19T14:17:16Z</time>
      </trkpt>
      <trkpt lat="44.29052" lon="5.59719">
        <ele>825</ele>
        <time>2019-03-19T14:17:17Z</time>
      </trkpt>
      <trkpt lat="44.29046" lon="5.59719">
        <ele>825</ele>
        <time>2019-03-19T14:17:18Z</time>
      </trkpt>
      <trkpt lat="44.2904" lon="5.59718">
        <ele>825</ele>
        <time>2019-03-19T14:17:19Z</time>
      </trkpt>
      <trkpt lat="44.29034" lon="5.59716">
        <ele>825</ele>
        <time>2019-03-19T14:17:20Z</time>
      </trkpt>
      <trkpt lat="44.2903" lon="5.59714">
        <ele>824</ele>
        <time>2019-03-19T14:17:21Z</time>
      </trkpt>
      <trkpt lat="44.29025" lon="5.59711">
        <ele>824</ele>
        <time>2019-03-19T14:17:22Z</time>
      </trkpt>
      <trkpt lat="44.29021" lon="5.59708">
        <ele>824</ele>
        <time>2019-03-19T14:17:23Z</time>
      </trkpt>
      <trkpt lat="44.29016" lon="5.59706">
        <ele>824</ele>
        <time>2019-03-19T14:17:24Z</time>
      </trkpt>
      <trkpt lat="44.29012" lon="5.59704">
        <ele>823</ele>
        <time>2019-03-19T14:17:25Z</time>
      </trkpt>
      <trkpt lat="44.29008" lon="5.59701">
        <ele>823</ele>
        <time>2019-03-19T14:17:26Z</time>
      </trkpt>
      <trkpt lat="44.29005" lon="5.59699">
        <ele>823</ele>
        <time>2019-03-19T14:17:27Z</time>
      </trkpt>
      <trkpt lat="44.29001" lon="5.59696">
        <ele>823</ele>
        <time>2019-03-19T14:17:28Z</time>
      </trkpt>
      <trkpt lat="44.28997" lon="5.59694">
        <ele>823</ele>
        <time>2019-03-19T14:17:29Z</time>
      </trkpt>
      <trkpt lat="44.28993" lon="5.59692">
        <ele>823</ele>
        <time>2019-03-19T14:17:30Z</time>
      </trkpt>
      <trkpt lat="44.28989" lon="5.5969">
        <ele>823</ele>
        <time>2019-03-19T14:17:31Z</time>
      </trkpt>
      <trkpt lat="44.28986" lon="5.59688">
        <ele>823</ele>
        <time>2019-03-19T14:17:32Z</time>
      </trkpt>
      <trkpt lat="44.28982" lon="5.59686">
        <ele>823</ele>
        <time>2019-03-19T14:17:33Z</time>
      </trkpt>
      <trkpt lat="44.28978" lon="5.59684">
        <ele>823</ele>
        <time>2019-03-19T14:17:34Z</time>
      </trkpt>
      <trkpt lat="44.28975" lon="5.59682">
        <ele>823</ele>
        <time>2019-03-19T14:17:35Z</time>
      </trkpt>
      <trkpt lat="44.28971" lon="5.5968">
        <ele>823</ele>
        <time>2019-03-19T14:17:36Z</time>
      </trkpt>
      <trkpt lat="44.28968" lon="5.59679">
        <ele>823</ele>
        <time>2019-03-19T14:17:37Z</time>
      </trkpt>
      <trkpt lat="44.28964" lon="5.59677">
        <ele>823</ele>
        <time>2019-03-19T14:17:38Z</time>
      </trkpt>
      <trkpt lat="44.28961" lon="5.59676">
        <ele>823</ele>
        <time>2019-03-19T14:17:39Z</time>
      </trkpt>
      <trkpt lat="44.28957" lon="5.59674">
        <ele>823</ele>
        <time>2019-03-19T14:17:40Z</time>
      </trkpt>
      <trkpt lat="44.28954" lon="5.59672">
        <ele>823</ele>
        <time>2019-03-19T14:17:41Z</time>
      </trkpt>
      <trkpt lat="44.28951" lon="5.5967">
        <ele>823</ele>
        <time>2019-03-19T14:17:42Z</time>
      </trkpt>
      <trkpt lat="44.28947" lon="5.59669">
        <ele>823</ele>
        <time>2019-03-19T14:17:43Z</time>
      </trkpt>
      <trkpt lat="44.28943" lon="5.59667">
        <ele>823</ele>
        <time>2019-03-19T14:17:44Z</time>
      </trkpt>
      <trkpt lat="44.2894" lon="5.59666">
        <ele>823</ele>
        <time>2019-03-19T14:17:45Z</time>
      </trkpt>
      <trkpt lat="44.28936" lon="5.59664">
        <ele>823</ele>
        <time>2019-03-19T14:17:46Z</time>
      </trkpt>
      <trkpt lat="44.28933" lon="5.59663">
        <ele>823</ele>
        <time>2019-03-19T14:17:47Z</time>
      </trkpt>
      <trkpt lat="44.2893" lon="5.59661">
        <ele>823</ele>
        <time>2019-03-19T14:17:48Z</time>
      </trkpt>
      <trkpt lat="44.28927" lon="5.59659">
        <ele>823</ele>
        <time>2019-03-19T14:17:49Z</time>
      </trkpt>
      <trkpt lat="44.28925" lon="5.59658">
        <ele>823</ele>
        <time>2019-03-19T14:17:50Z</time>
      </trkpt>
      <trkpt lat="44.28922" lon="5.59657">
        <ele>823</ele>
        <time>2019-03-19T14:17:51Z</time>
      </trkpt>
      <trkpt lat="44.28919" lon="5.59657">
        <ele>823</ele>
        <time>2019-03-19T14:17:52Z</time>
      </trkpt>
      <trkpt lat="44.28916" lon="5.59656">
        <ele>823</ele>
        <time>2019-03-19T14:17:53Z</time>
      </trkpt>
      <trkpt lat="44.28913" lon="5.59655">
        <ele>823</ele>
        <time>2019-03-19T14:17:54Z</time>
      </trkpt>
      <trkpt lat="44.28911" lon="5.59655">
        <ele>823</ele>
        <time>2019-03-19T14:17:55Z</time>
      </trkpt>
      <trkpt lat="44.28908" lon="5.59654">
        <ele>823</ele>
        <time>2019-03-19T14:17:56Z</time>
      </trkpt>
      <trkpt lat="44.28905" lon="5.59655">
        <ele>823</ele>
        <time>2019-03-19T14:17:57Z</time>
      </trkpt>
      <trkpt lat="44.28902" lon="5.59656">
        <ele>823</ele>
        <time>2019-03-19T14:17:58Z</time>
      </trkpt>
      <trkpt lat="44.28899" lon="5.59657">
        <ele>823</ele>
        <time>2019-03-19T14:17:59Z</time>
      </trkpt>
      <trkpt lat="44.28896" lon="5.59658">
        <ele>823</ele>
        <time>2019-03-19T14:18:00Z</time>
      </trkpt>
      <trkpt lat="44.28893" lon="5.5966">
        <ele>824</ele>
        <time>2019-03-19T14:18:01Z</time>
      </trkpt>
      <trkpt lat="44.2889" lon="5.59662">
        <ele>824</ele>
        <time>2019-03-19T14:18:02Z</time>
      </trkpt>
      <trkpt lat="44.28887" lon="5.59664">
        <ele>824</ele>
        <time>2019-03-19T14:18:03Z</time>
      </trkpt>
      <trkpt lat="44.28885" lon="5.59666">
        <ele>824</ele>
        <time>2019-03-19T14:18:04Z</time>
      </trkpt>
      <trkpt lat="44.28882" lon="5.59668">
        <ele>825</ele>
        <time>2019-03-19T14:18:05Z</time>
      </trkpt>
      <trkpt lat="44.28879" lon="5.59671">
        <ele>825</ele>
        <time>2019-03-19T14:18:06Z</time>
      </trkpt>
      <trkpt lat="44.28877" lon="5.59673">
        <ele>825</ele>
        <time>2019-03-19T14:18:07Z</time>
      </trkpt>
      <trkpt lat="44.28874" lon="5.59675">
        <ele>825</ele>
        <time>2019-03-19T14:18:08Z</time>
      </trkpt>
      <trkpt lat="44.28872" lon="5.59677">
        <ele>825</ele>
        <time>2019-03-19T14:18:09Z</time>
      </trkpt>
      <trkpt lat="44.2887" lon="5.59679">
        <ele>825</ele>
        <time>2019-03-19T14:18:10Z</time>
      </trkpt>
      <trkpt lat="44.28867" lon="5.59681">
        <ele>825</ele>
        <time>2019-03-19T14:18:11Z</time>
      </trkpt>
      <trkpt lat="44.28865" lon="5.59683">
        <ele>825</ele>
        <time>2019-03-19T14:18:12Z</time>
      </trkpt>
      <trkpt lat="44.28863" lon="5.59685">
        <ele>826</ele>
        <time>2019-03-19T14:18:13Z</time>
      </trkpt>
      <trkpt lat="44.28861" lon="5.59686">
        <ele>826</ele>
        <time>2019-03-19T14:18:14Z</time>
      </trkpt>
      <trkpt lat="44.28859" lon="5.59687">
        <ele>826</ele>
        <time>2019-03-19T14:18:15Z</time>
      </trkpt>
      <trkpt lat="44.28857" lon="5.59689">
        <ele>826</ele>
        <time>2019-03-19T14:18:16Z</time>
      </trkpt>
      <trkpt lat="44.28854" lon="5.5969">
        <ele>827</ele>
        <time>2019-03-19T14:18:17Z</time>
      </trkpt>
      <trkpt lat="44.28851" lon="5.59691">
        <ele>827</ele>
        <time>2019-03-19T14:18:18Z</time>
      </trkpt>
      <trkpt lat="44.28849" lon="5.59691">
        <ele>827</ele>
        <time>2019-03-19T14:18:19Z</time>
      </trkpt>
      <trkpt lat="44.28847" lon="5.59691">
        <ele>827</ele>
        <time>2019-03-19T14:18:20Z</time>
      </trkpt>
      <trkpt lat="44.28844" lon="5.59691">
        <ele>827</ele>
        <time>2019-03-19T14:18:21Z</time>
      </trkpt>
      <trkpt lat="44.28843" lon="5.5969">
        <ele>828</ele>
        <time>2019-03-19T14:18:22Z</time>
      </trkpt>
      <trkpt lat="44.28841" lon="5.59689">
        <ele>828</ele>
        <time>2019-03-19T14:18:23Z</time>
      </trkpt>
      <trkpt lat="44.28839" lon="5.59688">
        <ele>828</ele>
        <time>2019-03-19T14:18:24Z</time>
      </trkpt>
      <trkpt lat="44.28837" lon="5.59687">
        <ele>828</ele>
        <time>2019-03-19T14:18:25Z</time>
      </trkpt>
      <trkpt lat="44.28835" lon="5.59685">
        <ele>828</ele>
        <time>2019-03-19T14:18:26Z</time>
      </trkpt>
      <trkpt lat="44.28833" lon="5.59683">
        <ele>828</ele>
        <time>2019-03-19T14:18:27Z</time>
      </trkpt>
      <trkpt lat="44.28831" lon="5.59681">
        <ele>828</ele>
        <time>2019-03-19T14:18:28Z</time>
      </trkpt>
      <trkpt lat="44.2883" lon="5.59679">
        <ele>828</ele>
        <time>2019-03-19T14:18:29Z</time>
      </trkpt>
      <trkpt lat="44.28828" lon="5.59677">
        <ele>828</ele>
        <time>2019-03-19T14:18:30Z</time>
      </trkpt>
      <trkpt lat="44.28826" lon="5.59675">
        <ele>829</ele>
        <time>2019-03-19T14:18:31Z</time>
      </trkpt>
      <trkpt lat="44.28824" lon="5.59673">
        <ele>829</ele>
        <time>2019-03-19T14:18:32Z</time>
      </trkpt>
      <trkpt lat="44.28822" lon="5.5967">
        <ele>829</ele>
        <time>2019-03-19T14:18:33Z</time>
      </trkpt>
      <trkpt lat="44.28821" lon="5.59668">
        <ele>829</ele>
        <time>2019-03-19T14:18:34Z</time>
      </trkpt>
      <trkpt lat="44.28819" lon="5.59666">
        <ele>829</ele>
        <time>2019-03-19T14:18:35Z</time>
      </trkpt>
      <trkpt lat="44.28818" lon="5.59663">
        <ele>829</ele>
        <time>2019-03-19T14:18:36Z</time>
      </trkpt>
      <trkpt lat="44.28816" lon="5.5966">
        <ele>829</ele>
        <time>2019-03-19T14:18:37Z</time>
      </trkpt>
      <trkpt lat="44.28814" lon="5.59658">
        <ele>829</ele>
        <time>2019-03-19T14:18:38Z</time>
      </trkpt>
      <trkpt lat="44.28812" lon="5.59656">
        <ele>829</ele>
        <time>2019-03-19T14:18:39Z</time>
      </trkpt>
      <trkpt lat="44.28811" lon="5.59654">
        <ele>829</ele>
        <time>2019-03-19T14:18:40Z</time>
      </trkpt>
      <trkpt lat="44.28809" lon="5.59652">
        <ele>829</ele>
        <time>2019-03-19T14:18:41Z</time>
      </trkpt>
      <trkpt lat="44.28807" lon="5.5965">
        <ele>829</ele>
        <time>2019-03-19T14:18:42Z</time>
      </trkpt>
      <trkpt lat="44.28805" lon="5.59647">
        <ele>829</ele>
        <time>2019-03-19T14:18:43Z</time>
      </trkpt>
      <trkpt lat="44.28803" lon="5.59645">
        <ele>829</ele>
        <time>2019-03-19T14:18:44Z</time>
      </trkpt>
      <trkpt lat="44.28801" lon="5.59643">
        <ele>829</ele>
        <time>2019-03-19T14:18:45Z</time>
      </trkpt>
      <trkpt lat="44.28799" lon="5.5964">
        <ele>829</ele>
        <time>2019-03-19T14:18:46Z</time>
      </trkpt>
      <trkpt lat="44.28797" lon="5.59638">
        <ele>829</ele>
        <time>2019-03-19T14:18:47Z</time>
      </trkpt>
      <trkpt lat="44.28795" lon="5.59636">
        <ele>829</ele>
        <time>2019-03-19T14:18:48Z</time>
      </trkpt>
      <trkpt lat="44.28793" lon="5.59633">
        <ele>829</ele>
        <time>2019-03-19T14:18:49Z</time>
      </trkpt>
      <trkpt lat="44.28791" lon="5.59631">
        <ele>829</ele>
        <time>2019-03-19T14:18:50Z</time>
      </trkpt>
      <trkpt lat="44.28789" lon="5.59629">
        <ele>829</ele>
        <time>2019-03-19T14:18:51Z</time>
      </trkpt>
      <trkpt lat="44.28787" lon="5.59627">
        <ele>830</ele>
        <time>2019-03-19T14:18:52Z</time>
      </trkpt>
      <trkpt lat="44.28786" lon="5.59625">
        <ele>830</ele>
        <time>2019-03-19T14:18:53Z</time>
      </trkpt>
      <trkpt lat="44.28784" lon="5.59623">
        <ele>830</ele>
        <time>2019-03-19T14:18:54Z</time>
      </trkpt>
      <trkpt lat="44.28782" lon="5.59621">
        <ele>831</ele>
        <time>2019-03-19T14:18:55Z</time>
      </trkpt>
      <trkpt lat="44.2878" lon="5.59619">
        <ele>831</ele>
        <time>2019-03-19T14:18:56Z</time>
      </trkpt>
      <trkpt lat="44.28779" lon="5.59617">
        <ele>831</ele>
        <time>2019-03-19T14:18:57Z</time>
      </trkpt>
      <trkpt lat="44.28777" lon="5.59615">
        <ele>832</ele>
        <time>2019-03-19T14:18:58Z</time>
      </trkpt>
      <trkpt lat="44.28775" lon="5.59612">
        <ele>832</ele>
        <time>2019-03-19T14:18:59Z</time>
      </trkpt>
      <trkpt lat="44.28773" lon="5.5961">
        <ele>833</ele>
        <time>2019-03-19T14:19:00Z</time>
      </trkpt>
      <trkpt lat="44.28772" lon="5.59607">
        <ele>833</ele>
        <time>2019-03-19T14:19:01Z</time>
      </trkpt>
      <trkpt lat="44.28771" lon="5.59604">
        <ele>833</ele>
        <time>2019-03-19T14:19:02Z</time>
      </trkpt>
      <trkpt lat="44.2877" lon="5.59601">
        <ele>834</ele>
        <time>2019-03-19T14:19:03Z</time>
      </trkpt>
      <trkpt lat="44.28768" lon="5.59598">
        <ele>834</ele>
        <time>2019-03-19T14:19:04Z</time>
      </trkpt>
      <trkpt lat="44.28767" lon="5.59594">
        <ele>834</ele>
        <time>2019-03-19T14:19:05Z</time>
      </trkpt>
      <trkpt lat="44.28765" lon="5.59591">
        <ele>834</ele>
        <time>2019-03-19T14:19:06Z</time>
      </trkpt>
      <trkpt lat="44.28764" lon="5.59587">
        <ele>834</ele>
        <time>2019-03-19T14:19:07Z</time>
      </trkpt>
      <trkpt lat="44.28764" lon="5.59584">
        <ele>834</ele>
        <time>2019-03-19T14:19:08Z</time>
      </trkpt>
      <trkpt lat="44.28763" lon="5.59581">
        <ele>834</ele>
        <time>2019-03-19T14:19:09Z</time>
      </trkpt>
      <trkpt lat="44.28762" lon="5.59578">
        <ele>834</ele>
        <time>2019-03-19T14:19:10Z</time>
      </trkpt>
      <trkpt lat="44.28762" lon="5.59574">
        <ele>834</ele>
        <time>2019-03-19T14:19:11Z</time>
      </trkpt>
      <trkpt lat="44.28761" lon="5.59571">
        <ele>834</ele>
        <time>2019-03-19T14:19:12Z</time>
      </trkpt>
      <trkpt lat="44.28761" lon="5.59567">
        <ele>834</ele>
        <time>2019-03-19T14:19:13Z</time>
      </trkpt>
      <trkpt lat="44.2876" lon="5.59564">
        <ele>834</ele>
        <time>2019-03-19T14:19:14Z</time>
      </trkpt>
      <trkpt lat="44.28759" lon="5.59561">
        <ele>834</ele>
        <time>2019-03-19T14:19:15Z</time>
      </trkpt>
      <trkpt lat="44.28758" lon="5.59557">
        <ele>834</ele>
        <time>2019-03-19T14:19:16Z</time>
      </trkpt>
      <trkpt lat="44.28757" lon="5.59554">
        <ele>834</ele>
        <time>2019-03-19T14:19:17Z</time>
      </trkpt>
      <trkpt lat="44.28756" lon="5.59551">
        <ele>834</ele>
        <time>2019-03-19T14:19:18Z</time>
      </trkpt>
      <trkpt lat="44.28754" lon="5.59549">
        <ele>834</ele>
        <time>2019-03-19T14:19:19Z</time>
      </trkpt>
      <trkpt lat="44.28753" lon="5.59546">
        <ele>834</ele>
        <time>2019-03-19T14:19:20Z</time>
      </trkpt>
      <trkpt lat="44.28753" lon="5.59543">
        <ele>834</ele>
        <time>2019-03-19T14:19:21Z</time>
      </trkpt>
      <trkpt lat="44.28752" lon="5.5954">
        <ele>835</ele>
        <time>2019-03-19T14:19:22Z</time>
      </trkpt>
      <trkpt lat="44.28751" lon="5.59537">
        <ele>835</ele>
        <time>2019-03-19T14:19:23Z</time>
      </trkpt>
      <trkpt lat="44.28749" lon="5.59534">
        <ele>835</ele>
        <time>2019-03-19T14:19:24Z</time>
      </trkpt>
      <trkpt lat="44.28748" lon="5.59532">
        <ele>835</ele>
        <time>2019-03-19T14:19:25Z</time>
      </trkpt>
      <trkpt lat="44.28746" lon="5.5953">
        <ele>836</ele>
        <time>2019-03-19T14:19:26Z</time>
      </trkpt>
      <trkpt lat="44.28745" lon="5.59527">
        <ele>836</ele>
        <time>2019-03-19T14:19:27Z</time>
      </trkpt>
      <trkpt lat="44.28743" lon="5.59525">
        <ele>836</ele>
        <time>2019-03-19T14:19:28Z</time>
      </trkpt>
      <trkpt lat="44.28741" lon="5.59523">
        <ele>836</ele>
        <time>2019-03-19T14:19:29Z</time>
      </trkpt>
      <trkpt lat="44.2874" lon="5.59521">
        <ele>836</ele>
        <time>2019-03-19T14:19:30Z</time>
      </trkpt>
      <trkpt lat="44.28738" lon="5.59518">
        <ele>836</ele>
        <time>2019-03-19T14:19:31Z</time>
      </trkpt>
      <trkpt lat="44.28736" lon="5.59516">
        <ele>837</ele>
        <time>2019-03-19T14:19:32Z</time>
      </trkpt>
      <trkpt lat="44.28734" lon="5.59515">
        <ele>837</ele>
        <time>2019-03-19T14:19:33Z</time>
      </trkpt>
      <trkpt lat="44.28732" lon="5.59513">
        <ele>837</ele>
        <time>2019-03-19T14:19:34Z</time>
      </trkpt>
      <trkpt lat="44.28729" lon="5.59511">
        <ele>837</ele>
        <time>2019-03-19T14:19:35Z</time>
      </trkpt>
      <trkpt lat="44.28727" lon="5.5951">
        <ele>838</ele>
        <time>2019-03-19T14:19:36Z</time>
      </trkpt>
      <trkpt lat="44.28725" lon="5.59508">
        <ele>838</ele>
        <time>2019-03-19T14:19:37Z</time>
      </trkpt>
      <trkpt lat="44.28723" lon="5.59507">
        <ele>839</ele>
        <time>2019-03-19T14:19:38Z</time>
      </trkpt>
      <trkpt lat="44.28721" lon="5.59506">
        <ele>839</ele>
        <time>2019-03-19T14:19:39Z</time>
      </trkpt>
      <trkpt lat="44.28719" lon="5.59505">
        <ele>839</ele>
        <time>2019-03-19T14:19:40Z</time>
      </trkpt>
      <trkpt lat="44.28716" lon="5.59504">
        <ele>840</ele>
        <time>2019-03-19T14:19:41Z</time>
      </trkpt>
      <trkpt lat="44.28714" lon="5.59503">
        <ele>840</ele>
        <time>2019-03-19T14:19:42Z</time>
      </trkpt>
      <trkpt lat="44.28712" lon="5.59503">
        <ele>840</ele>
        <time>2019-03-19T14:19:43Z</time>
      </trkpt>
      <trkpt lat="44.2871" lon="5.59502">
        <ele>841</ele>
        <time>2019-03-19T14:19:44Z</time>
      </trkpt>
      <trkpt lat="44.28708" lon="5.59502">
        <ele>841</ele>
        <time>2019-03-19T14:19:45Z</time>
      </trkpt>
      <trkpt lat="44.28706" lon="5.59502">
        <ele>841</ele>
        <time>2019-03-19T14:19:46Z</time>
      </trkpt>
      <trkpt lat="44.28704" lon="5.59501">
        <ele>842</ele>
        <time>2019-03-19T14:19:47Z</time>
      </trkpt>
      <trkpt lat="44.28702" lon="5.59501">
        <ele>842</ele>
        <time>2019-03-19T14:19:48Z</time>
      </trkpt>
      <trkpt lat="44.28699" lon="5.595">
        <ele>842</ele>
        <time>2019-03-19T14:19:49Z</time>
      </trkpt>
      <trkpt lat="44.28697" lon="5.595">
        <ele>842</ele>
        <time>2019-03-19T14:19:50Z</time>
      </trkpt>
      <trkpt lat="44.28695" lon="5.59499">
        <ele>843</ele>
        <time>2019-03-19T14:19:51Z</time>
      </trkpt>
      <trkpt lat="44.28693" lon="5.59499">
        <ele>843</ele>
        <time>2019-03-19T14:19:52Z</time>
      </trkpt>
      <trkpt lat="44.2869" lon="5.59498">
        <ele>844</ele>
        <time>2019-03-19T14:19:53Z</time>
      </trkpt>
      <trkpt lat="44.28688" lon="5.59498">
        <ele>844</ele>
        <time>2019-03-19T14:19:54Z</time>
      </trkpt>
      <trkpt lat="44.28686" lon="5.59497">
        <ele>844</ele>
        <time>2019-03-19T14:19:55Z</time>
      </trkpt>
      <trkpt lat="44.28684" lon="5.59496">
        <ele>844</ele>
        <time>2019-03-19T14:19:56Z</time>
      </trkpt>
      <trkpt lat="44.28682" lon="5.59495">
        <ele>845</ele>
        <time>2019-03-19T14:19:57Z</time>
      </trkpt>
      <trkpt lat="44.28679" lon="5.59494">
        <ele>845</ele>
        <time>2019-03-19T14:19:58Z</time>
      </trkpt>
      <trkpt lat="44.28677" lon="5.59493">
        <ele>845</ele>
        <time>2019-03-19T14:19:59Z</time>
      </trkpt>
      <trkpt lat="44.28675" lon="5.59492">
        <ele>845</ele>
        <time>2019-03-19T14:20:00Z</time>
      </trkpt>
      <trkpt lat="44.28673" lon="5.59491">
        <ele>846</ele>
        <time>2019-03-19T14:20:01Z</time>
      </trkpt>
      <trkpt lat="44.28671" lon="5.59491">
        <ele>846</ele>
        <time>2019-03-19T14:20:02Z</time>
      </trkpt>
      <trkpt lat="44.28669" lon="5.5949">
        <ele>846</ele>
        <time>2019-03-19T14:20:03Z</time>
      </trkpt>
      <trkpt lat="44.28667" lon="5.5949">
        <ele>846</ele>
        <time>2019-03-19T14:20:04Z</time>
      </trkpt>
      <trkpt lat="44.28665" lon="5.59489">
        <ele>847</ele>
        <time>2019-03-19T14:20:05Z</time>
      </trkpt>
      <trkpt lat="44.28662" lon="5.59488">
        <ele>847</ele>
        <time>2019-03-19T14:20:06Z</time>
      </trkpt>
      <trkpt lat="44.2866" lon="5.59487">
        <ele>847</ele>
        <time>2019-03-19T14:20:07Z</time>
      </trkpt>
      <trkpt lat="44.28658" lon="5.59487">
        <ele>847</ele>
        <time>2019-03-19T14:20:08Z</time>
      </trkpt>
      <trkpt lat="44.28656" lon="5.59487">
        <ele>847</ele>
        <time>2019-03-19T14:20:09Z</time>
      </trkpt>
      <trkpt lat="44.28654" lon="5.59486">
        <ele>848</ele>
        <time>2019-03-19T14:20:10Z</time>
      </trkpt>
      <trkpt lat="44.28651" lon="5.59486">
        <ele>848</ele>
        <time>2019-03-19T14:20:11Z</time>
      </trkpt>
      <trkpt lat="44.28649" lon="5.59485">
        <ele>848</ele>
        <time>2019-03-19T14:20:12Z</time>
      </trkpt>
      <trkpt lat="44.28647" lon="5.59485">
        <ele>848</ele>
        <time>2019-03-19T14:20:13Z</time>
      </trkpt>
      <trkpt lat="44.28645" lon="5.59485">
        <ele>848</ele>
        <time>2019-03-19T14:20:14Z</time>
      </trkpt>
      <trkpt lat="44.28643" lon="5.59485">
        <ele>849</ele>
        <time>2019-03-19T14:20:15Z</time>
      </trkpt>
      <trkpt lat="44.2864" lon="5.59485">
        <ele>849</ele>
        <time>2019-03-19T14:20:16Z</time>
      </trkpt>
      <trkpt lat="44.28638" lon="5.59485">
        <ele>849</ele>
        <time>2019-03-19T14:20:17Z</time>
      </trkpt>
      <trkpt lat="44.28636" lon="5.59485">
        <ele>849</ele>
        <time>2019-03-19T14:20:18Z</time>
      </trkpt>
      <trkpt lat="44.28634" lon="5.59485">
        <ele>849</ele>
        <time>2019-03-19T14:20:19Z</time>
      </trkpt>
      <trkpt lat="44.28632" lon="5.59486">
        <ele>850</ele>
        <time>2019-03-19T14:20:20Z</time>
      </trkpt>
      <trkpt lat="44.2863" lon="5.59486">
        <ele>850</ele>
        <time>2019-03-19T14:20:21Z</time>
      </trkpt>
      <trkpt lat="44.28628" lon="5.59486">
        <ele>850</ele>
        <time>2019-03-19T14:20:22Z</time>
      </trkpt>
      <trkpt lat="44.28625" lon="5.59486">
        <ele>850</ele>
        <time>2019-03-19T14:20:23Z</time>
      </trkpt>
      <trkpt lat="44.28624" lon="5.59486">
        <ele>850</ele>
        <time>2019-03-19T14:20:24Z</time>
      </trkpt>
      <trkpt lat="44.28621" lon="5.59486">
        <ele>851</ele>
        <time>2019-03-19T14:20:25Z</time>
      </trkpt>
      <trkpt lat="44.28619" lon="5.59486">
        <ele>851</ele>
        <time>2019-03-19T14:20:26Z</time>
      </trkpt>
      <trkpt lat="44.28617" lon="5.59486">
        <ele>851</ele>
        <time>2019-03-19T14:20:27Z</time>
      </trkpt>
      <trkpt lat="44.28615" lon="5.59486">
        <ele>851</ele>
        <time>2019-03-19T14:20:28Z</time>
      </trkpt>
      <trkpt lat="44.28613" lon="5.59486">
        <ele>852</ele>
        <time>2019-03-19T14:20:29Z</time>
      </trkpt>
      <trkpt lat="44.28611" lon="5.59485">
        <ele>852</ele>
        <time>2019-03-19T14:20:30Z</time>
      </trkpt>
      <trkpt lat="44.28608" lon="5.59485">
        <ele>852</ele>
        <time>2019-03-19T14:20:31Z</time>
      </trkpt>
      <trkpt lat="44.28606" lon="5.59484">
        <ele>852</ele>
        <time>2019-03-19T14:20:32Z</time>
      </trkpt>
      <trkpt lat="44.28603" lon="5.59484">
        <ele>852</ele>
        <time>2019-03-19T14:20:33Z</time>
      </trkpt>
      <trkpt lat="44.28601" lon="5.59483">
        <ele>852</ele>
        <time>2019-03-19T14:20:34Z</time>
      </trkpt>
      <trkpt lat="44.28599" lon="5.59482">
        <ele>852</ele>
        <time>2019-03-19T14:20:35Z</time>
      </trkpt>
      <trkpt lat="44.28597" lon="5.59482">
        <ele>852</ele>
        <time>2019-03-19T14:20:36Z</time>
      </trkpt>
      <trkpt lat="44.28595" lon="5.59481">
        <ele>852</ele>
        <time>2019-03-19T14:20:37Z</time>
      </trkpt>
      <trkpt lat="44.28592" lon="5.5948">
        <ele>852</ele>
        <time>2019-03-19T14:20:38Z</time>
      </trkpt>
      <trkpt lat="44.2859" lon="5.5948">
        <ele>852</ele>
        <time>2019-03-19T14:20:39Z</time>
      </trkpt>
      <trkpt lat="44.28588" lon="5.5948">
        <ele>852</ele>
        <time>2019-03-19T14:20:40Z</time>
      </trkpt>
      <trkpt lat="44.28586" lon="5.59482">
        <ele>852</ele>
        <time>2019-03-19T14:20:41Z</time>
      </trkpt>
      <trkpt lat="44.28584" lon="5.59483">
        <ele>852</ele>
        <time>2019-03-19T14:20:42Z</time>
      </trkpt>
      <trkpt lat="44.28582" lon="5.59486">
        <ele>852</ele>
        <time>2019-03-19T14:20:43Z</time>
      </trkpt>
      <trkpt lat="44.28581" lon="5.59489">
        <ele>852</ele>
        <time>2019-03-19T14:20:44Z</time>
      </trkpt>
      <trkpt lat="44.28582" lon="5.59493">
        <ele>852</ele>
        <time>2019-03-19T14:20:45Z</time>
      </trkpt>
      <trkpt lat="44.28583" lon="5.59496">
        <ele>852</ele>
        <time>2019-03-19T14:20:46Z</time>
      </trkpt>
      <trkpt lat="44.28586" lon="5.59497">
        <ele>852</ele>
        <time>2019-03-19T14:20:47Z</time>
      </trkpt>
      <trkpt lat="44.28589" lon="5.59499">
        <ele>852</ele>
        <time>2019-03-19T14:20:48Z</time>
      </trkpt>
      <trkpt lat="44.28591" lon="5.595">
        <ele>852</ele>
        <time>2019-03-19T14:20:49Z</time>
      </trkpt>
      <trkpt lat="44.28594" lon="5.59501">
        <ele>853</ele>
        <time>2019-03-19T14:20:50Z</time>
      </trkpt>
      <trkpt lat="44.28597" lon="5.595">
        <ele>853</ele>
        <time>2019-03-19T14:20:51Z</time>
      </trkpt>
      <trkpt lat="44.286" lon="5.595">
        <ele>853</ele>
        <time>2019-03-19T14:20:52Z</time>
      </trkpt>
      <trkpt lat="44.28603" lon="5.59501">
        <ele>853</ele>
        <time>2019-03-19T14:20:53Z</time>
      </trkpt>
      <trkpt lat="44.28606" lon="5.59501">
        <ele>853</ele>
        <time>2019-03-19T14:20:54Z</time>
      </trkpt>
      <trkpt lat="44.28609" lon="5.59502">
        <ele>853</ele>
        <time>2019-03-19T14:20:55Z</time>
      </trkpt>
      <trkpt lat="44.28612" lon="5.59502">
        <ele>854</ele>
        <time>2019-03-19T14:20:56Z</time>
      </trkpt>
      <trkpt lat="44.28615" lon="5.59501">
        <ele>854</ele>
        <time>2019-03-19T14:20:57Z</time>
      </trkpt>
      <trkpt lat="44.28618" lon="5.59501">
        <ele>854</ele>
        <time>2019-03-19T14:20:58Z</time>
      </trkpt>
      <trkpt lat="44.28621" lon="5.59502">
        <ele>854</ele>
        <time>2019-03-19T14:20:59Z</time>
      </trkpt>
      <trkpt lat="44.28624" lon="5.59502">
        <ele>855</ele>
        <time>2019-03-19T14:21:00Z</time>
      </trkpt>
      <trkpt lat="44.28627" lon="5.59502">
        <ele>855</ele>
        <time>2019-03-19T14:21:01Z</time>
      </trkpt>
      <trkpt lat="44.28631" lon="5.59503">
        <ele>855</ele>
        <time>2019-03-19T14:21:02Z</time>
      </trkpt>
      <trkpt lat="44.28634" lon="5.59503">
        <ele>855</ele>
        <time>2019-03-19T14:21:03Z</time>
      </trkpt>
      <trkpt lat="44.28637" lon="5.59504">
        <ele>855</ele>
        <time>2019-03-19T14:21:04Z</time>
      </trkpt>
      <trkpt lat="44.28641" lon="5.59505">
        <ele>855</ele>
        <time>2019-03-19T14:21:05Z</time>
      </trkpt>
      <trkpt lat="44.28644" lon="5.59506">
        <ele>856</ele>
        <time>2019-03-19T14:21:06Z</time>
      </trkpt>
      <trkpt lat="44.28648" lon="5.59506">
        <ele>856</ele>
        <time>2019-03-19T14:21:07Z</time>
      </trkpt>
      <trkpt lat="44.28651" lon="5.59507">
        <ele>856</ele>
        <time>2019-03-19T14:21:08Z</time>
      </trkpt>
      <trkpt lat="44.28654" lon="5.59509">
        <ele>856</ele>
        <time>2019-03-19T14:21:09Z</time>
      </trkpt>
      <trkpt lat="44.28657" lon="5.5951">
        <ele>857</ele>
        <time>2019-03-19T14:21:10Z</time>
      </trkpt>
      <trkpt lat="44.2866" lon="5.59512">
        <ele>857</ele>
        <time>2019-03-19T14:21:11Z</time>
      </trkpt>
      <trkpt lat="44.28663" lon="5.59514">
        <ele>857</ele>
        <time>2019-03-19T14:21:12Z</time>
      </trkpt>
      <trkpt lat="44.28666" lon="5.59515">
        <ele>857</ele>
        <time>2019-03-19T14:21:13Z</time>
      </trkpt>
      <trkpt lat="44.28669" lon="5.59517">
        <ele>857</ele>
        <time>2019-03-19T14:21:14Z</time>
      </trkpt>
      <trkpt lat="44.28671" lon="5.59519">
        <ele>857</ele>
        <time>2019-03-19T14:21:15Z</time>
      </trkpt>
      <trkpt lat="44.28674" lon="5.59521">
        <ele>857</ele>
        <time>2019-03-19T14:21:16Z</time>
      </trkpt>
      <trkpt lat="44.28677" lon="5.59523">
        <ele>857</ele>
        <time>2019-03-19T14:21:17Z</time>
      </trkpt>
      <trkpt lat="44.2868" lon="5.59525">
        <ele>858</ele>
        <time>2019-03-19T14:21:18Z</time>
      </trkpt>
      <trkpt lat="44.28682" lon="5.59528">
        <ele>858</ele>
        <time>2019-03-19T14:21:19Z</time>
      </trkpt>
      <trkpt lat="44.28685" lon="5.5953">
        <ele>858</ele>
        <time>2019-03-19T14:21:20Z</time>
      </trkpt>
      <trkpt lat="44.28687" lon="5.59533">
        <ele>858</ele>
        <time>2019-03-19T14:21:21Z</time>
      </trkpt>
      <trkpt lat="44.28689" lon="5.59535">
        <ele>858</ele>
        <time>2019-03-19T14:21:22Z</time>
      </trkpt>
      <trkpt lat="44.28692" lon="5.59538">
        <ele>858</ele>
        <time>2019-03-19T14:21:23Z</time>
      </trkpt>
      <trkpt lat="44.28694" lon="5.59541">
        <ele>858</ele>
        <time>2019-03-19T14:21:24Z</time>
      </trkpt>
      <trkpt lat="44.28696" lon="5.59543">
        <ele>858</ele>
        <time>2019-03-19T14:21:25Z</time>
      </trkpt>
      <trkpt lat="44.28698" lon="5.59547">
        <ele>858</ele>
        <time>2019-03-19T14:21:26Z</time>
      </trkpt>
      <trkpt lat="44.28701" lon="5.5955">
        <ele>858</ele>
        <time>2019-03-19T14:21:27Z</time>
      </trkpt>
      <trkpt lat="44.28703" lon="5.59553">
        <ele>858</ele>
        <time>2019-03-19T14:21:28Z</time>
      </trkpt>
      <trkpt lat="44.28704" lon="5.59557">
        <ele>858</ele>
        <time>2019-03-19T14:21:29Z</time>
      </trkpt>
      <trkpt lat="44.28706" lon="5.59561">
        <ele>858</ele>
        <time>2019-03-19T14:21:30Z</time>
      </trkpt>
      <trkpt lat="44.28706" lon="5.59566">
        <ele>858</ele>
        <time>2019-03-19T14:21:31Z</time>
      </trkpt>
      <trkpt lat="44.28707" lon="5.5957">
        <ele>859</ele>
        <time>2019-03-19T14:21:32Z</time>
      </trkpt>
      <trkpt lat="44.28707" lon="5.59575">
        <ele>859</ele>
        <time>2019-03-19T14:21:33Z</time>
      </trkpt>
      <trkpt lat="44.28706" lon="5.59579">
        <ele>859</ele>
        <time>2019-03-19T14:21:34Z</time>
      </trkpt>
      <trkpt lat="44.28705" lon="5.59583">
        <ele>859</ele>
        <time>2019-03-19T14:21:35Z</time>
      </trkpt>
      <trkpt lat="44.28704" lon="5.59586">
        <ele>859</ele>
        <time>2019-03-19T14:21:36Z</time>
      </trkpt>
      <trkpt lat="44.28702" lon="5.59589">
        <ele>860</ele>
        <time>2019-03-19T14:21:37Z</time>
      </trkpt>
      <trkpt lat="44.287" lon="5.59592">
        <ele>860</ele>
        <time>2019-03-19T14:21:38Z</time>
      </trkpt>
      <trkpt lat="44.28698" lon="5.59594">
        <ele>860</ele>
        <time>2019-03-19T14:21:39Z</time>
      </trkpt>
      <trkpt lat="44.28696" lon="5.59597">
        <ele>860</ele>
        <time>2019-03-19T14:21:40Z</time>
      </trkpt>
      <trkpt lat="44.28695" lon="5.596">
        <ele>860</ele>
        <time>2019-03-19T14:21:41Z</time>
      </trkpt>
      <trkpt lat="44.28693" lon="5.59604">
        <ele>861</ele>
        <time>2019-03-19T14:21:42Z</time>
      </trkpt>
      <trkpt lat="44.28691" lon="5.59607">
        <ele>861</ele>
        <time>2019-03-19T14:21:43Z</time>
      </trkpt>
      <trkpt lat="44.2869" lon="5.5961">
        <ele>861</ele>
        <time>2019-03-19T14:21:44Z</time>
      </trkpt>
      <trkpt lat="44.28688" lon="5.59613">
        <ele>862</ele>
        <time>2019-03-19T14:21:45Z</time>
      </trkpt>
      <trkpt lat="44.28687" lon="5.59616">
        <ele>862</ele>
        <time>2019-03-19T14:21:46Z</time>
      </trkpt>
      <trkpt lat="44.28686" lon="5.5962">
        <ele>862</ele>
        <time>2019-03-19T14:21:47Z</time>
      </trkpt>
      <trkpt lat="44.28685" lon="5.59623">
        <ele>862</ele>
        <time>2019-03-19T14:21:48Z</time>
      </trkpt>
      <trkpt lat="44.28683" lon="5.59626">
        <ele>863</ele>
        <time>2019-03-19T14:21:49Z</time>
      </trkpt>
      <trkpt lat="44.28682" lon="5.5963">
        <ele>863</ele>
        <time>2019-03-19T14:21:50Z</time>
      </trkpt>
      <trkpt lat="44.28681" lon="5.59634">
        <ele>863</ele>
        <time>2019-03-19T14:21:51Z</time>
      </trkpt>
      <trkpt lat="44.28681" lon="5.59639">
        <ele>864</ele>
        <time>2019-03-19T14:21:52Z</time>
      </trkpt>
      <trkpt lat="44.2868" lon="5.59643">
        <ele>864</ele>
        <time>2019-03-19T14:21:53Z</time>
      </trkpt>
      <trkpt lat="44.2868" lon="5.59647">
        <ele>864</ele>
        <time>2019-03-19T14:21:54Z</time>
      </trkpt>
      <trkpt lat="44.28681" lon="5.5965">
        <ele>864</ele>
        <time>2019-03-19T14:21:55Z</time>
      </trkpt>
      <trkpt lat="44.28681" lon="5.59654">
        <ele>865</ele>
        <time>2019-03-19T14:21:56Z</time>
      </trkpt>
      <trkpt lat="44.28681" lon="5.59657">
        <ele>865</ele>
        <time>2019-03-19T14:21:57Z</time>
      </trkpt>
      <trkpt lat="44.28682" lon="5.59661">
        <ele>865</ele>
        <time>2019-03-19T14:21:58Z</time>
      </trkpt>
      <trkpt lat="44.28682" lon="5.59665">
        <ele>865</ele>
        <time>2019-03-19T14:21:59Z</time>
      </trkpt>
      <trkpt lat="44.28683" lon="5.59668">
        <ele>865</ele>
        <time>2019-03-19T14:22:00Z</time>
      </trkpt>
      <trkpt lat="44.28683" lon="5.59672">
        <ele>865</ele>
        <time>2019-03-19T14:22:01Z</time>
      </trkpt>
      <trkpt lat="44.28685" lon="5.59676">
        <ele>865</ele>
        <time>2019-03-19T14:22:02Z</time>
      </trkpt>
      <trkpt lat="44.28685" lon="5.5968">
        <ele>866</ele>
        <time>2019-03-19T14:22:03Z</time>
      </trkpt>
      <trkpt lat="44.28686" lon="5.59684">
        <ele>866</ele>
        <time>2019-03-19T14:22:04Z</time>
      </trkpt>
      <trkpt lat="44.28686" lon="5.59688">
        <ele>866</ele>
        <time>2019-03-19T14:22:05Z</time>
      </trkpt>
      <trkpt lat="44.28687" lon="5.59692">
        <ele>866</ele>
        <time>2019-03-19T14:22:06Z</time>
      </trkpt>
      <trkpt lat="44.28687" lon="5.59695">
        <ele>866</ele>
        <time>2019-03-19T14:22:07Z</time>
      </trkpt>
      <trkpt lat="44.28688" lon="5.59699">
        <ele>866</ele>
        <time>2019-03-19T14:22:08Z</time>
      </trkpt>
      <trkpt lat="44.28689" lon="5.59703">
        <ele>866</ele>
        <time>2019-03-19T14:22:09Z</time>
      </trkpt>
      <trkpt lat="44.2869" lon="5.59707">
        <ele>866</ele>
        <time>2019-03-19T14:22:10Z</time>
      </trkpt>
      <trkpt lat="44.2869" lon="5.59711">
        <ele>866</ele>
        <time>2019-03-19T14:22:11Z</time>
      </trkpt>
      <trkpt lat="44.28691" lon="5.59714">
        <ele>866</ele>
        <time>2019-03-19T14:22:12Z</time>
      </trkpt>
      <trkpt lat="44.28692" lon="5.59718">
        <ele>866</ele>
        <time>2019-03-19T14:22:13Z</time>
      </trkpt>
      <trkpt lat="44.28693" lon="5.59721">
        <ele>867</ele>
        <time>2019-03-19T14:22:14Z</time>
      </trkpt>
      <trkpt lat="44.28694" lon="5.59725">
        <ele>867</ele>
        <time>2019-03-19T14:22:15Z</time>
      </trkpt>
      <trkpt lat="44.28695" lon="5.59728">
        <ele>867</ele>
        <time>2019-03-19T14:22:16Z</time>
      </trkpt>
      <trkpt lat="44.28696" lon="5.59731">
        <ele>867</ele>
        <time>2019-03-19T14:22:17Z</time>
      </trkpt>
      <trkpt lat="44.28697" lon="5.59735">
        <ele>867</ele>
        <time>2019-03-19T14:22:18Z</time>
      </trkpt>
      <trkpt lat="44.28698" lon="5.59738">
        <ele>867</ele>
        <time>2019-03-19T14:22:19Z</time>
      </trkpt>
      <trkpt lat="44.28699" lon="5.59741">
        <ele>868</ele>
        <time>2019-03-19T14:22:20Z</time>
      </trkpt>
      <trkpt lat="44.287" lon="5.59745">
        <ele>868</ele>
        <time>2019-03-19T14:22:21Z</time>
      </trkpt>
      <trkpt lat="44.287" lon="5.59749">
        <ele>868</ele>
        <time>2019-03-19T14:22:22Z</time>
      </trkpt>
      <trkpt lat="44.28699" lon="5.59752">
        <ele>869</ele>
        <time>2019-03-19T14:22:23Z</time>
      </trkpt>
      <trkpt lat="44.28697" lon="5.59754">
        <ele>869</ele>
        <time>2019-03-19T14:22:24Z</time>
      </trkpt>
      <trkpt lat="44.28694" lon="5.59755">
        <ele>869</ele>
        <time>2019-03-19T14:22:25Z</time>
      </trkpt>
      <trkpt lat="44.28692" lon="5.59754">
        <ele>870</ele>
        <time>2019-03-19T14:22:26Z</time>
      </trkpt>
      <trkpt lat="44.2869" lon="5.59753">
        <ele>870</ele>
        <time>2019-03-19T14:22:27Z</time>
      </trkpt>
      <trkpt lat="44.28688" lon="5.59749">
        <ele>870</ele>
        <time>2019-03-19T14:22:28Z</time>
      </trkpt>
      <trkpt lat="44.28688" lon="5.59746">
        <ele>870</ele>
        <time>2019-03-19T14:22:29Z</time>
      </trkpt>
      <trkpt lat="44.28687" lon="5.59742">
        <ele>871</ele>
        <time>2019-03-19T14:22:30Z</time>
      </trkpt>
      <trkpt lat="44.28685" lon="5.59738">
        <ele>871</ele>
        <time>2019-03-19T14:22:31Z</time>
      </trkpt>
      <trkpt lat="44.28684" lon="5.59735">
        <ele>871</ele>
        <time>2019-03-19T14:22:32Z</time>
      </trkpt>
      <trkpt lat="44.28682" lon="5.59732">
        <ele>871</ele>
        <time>2019-03-19T14:22:33Z</time>
      </trkpt>
      <trkpt lat="44.28681" lon="5.59729">
        <ele>871</ele>
        <time>2019-03-19T14:22:34Z</time>
      </trkpt>
      <trkpt lat="44.28679" lon="5.59725">
        <ele>872</ele>
        <time>2019-03-19T14:22:35Z</time>
      </trkpt>
      <trkpt lat="44.28678" lon="5.59722">
        <ele>872</ele>
        <time>2019-03-19T14:22:36Z</time>
      </trkpt>
      <trkpt lat="44.28677" lon="5.59719">
        <ele>872</ele>
        <time>2019-03-19T14:22:37Z</time>
      </trkpt>
      <trkpt lat="44.28675" lon="5.59716">
        <ele>872</ele>
        <time>2019-03-19T14:22:38Z</time>
      </trkpt>
      <trkpt lat="44.28674" lon="5.59713">
        <ele>872</ele>
        <time>2019-03-19T14:22:39Z</time>
      </trkpt>
      <trkpt lat="44.28672" lon="5.5971">
        <ele>872</ele>
        <time>2019-03-19T14:22:40Z</time>
      </trkpt>
      <trkpt lat="44.2867" lon="5.59707">
        <ele>872</ele>
        <time>2019-03-19T14:22:41Z</time>
      </trkpt>
      <trkpt lat="44.28669" lon="5.59703">
        <ele>872</ele>
        <time>2019-03-19T14:22:42Z</time>
      </trkpt>
      <trkpt lat="44.28667" lon="5.59699">
        <ele>872</ele>
        <time>2019-03-19T14:22:43Z</time>
      </trkpt>
      <trkpt lat="44.28665" lon="5.59696">
        <ele>872</ele>
        <time>2019-03-19T14:22:44Z</time>
      </trkpt>
      <trkpt lat="44.28663" lon="5.59693">
        <ele>872</ele>
        <time>2019-03-19T14:22:45Z</time>
      </trkpt>
      <trkpt lat="44.28661" lon="5.59691">
        <ele>872</ele>
        <time>2019-03-19T14:22:46Z</time>
      </trkpt>
      <trkpt lat="44.2866" lon="5.59687">
        <ele>872</ele>
        <time>2019-03-19T14:22:47Z</time>
      </trkpt>
      <trkpt lat="44.28659" lon="5.59684">
        <ele>872</ele>
        <time>2019-03-19T14:22:48Z</time>
      </trkpt>
      <trkpt lat="44.28657" lon="5.59681">
        <ele>872</ele>
        <time>2019-03-19T14:22:49Z</time>
      </trkpt>
      <trkpt lat="44.28656" lon="5.59678">
        <ele>872</ele>
        <time>2019-03-19T14:22:50Z</time>
      </trkpt>
      <trkpt lat="44.28654" lon="5.59675">
        <ele>872</ele>
        <time>2019-03-19T14:22:51Z</time>
      </trkpt>
      <trkpt lat="44.28652" lon="5.59672">
        <ele>873</ele>
        <time>2019-03-19T14:22:52Z</time>
      </trkpt>
      <trkpt lat="44.28651" lon="5.5967">
        <ele>873</ele>
        <time>2019-03-19T14:22:53Z</time>
      </trkpt>
      <trkpt lat="44.28649" lon="5.59667">
        <ele>873</ele>
        <time>2019-03-19T14:22:54Z</time>
      </trkpt>
      <trkpt lat="44.28647" lon="5.59665">
        <ele>873</ele>
        <time>2019-03-19T14:22:55Z</time>
      </trkpt>
      <trkpt lat="44.28645" lon="5.59663">
        <ele>873</ele>
        <time>2019-03-19T14:22:56Z</time>
      </trkpt>
      <trkpt lat="44.28643" lon="5.5966">
        <ele>873</ele>
        <time>2019-03-19T14:22:57Z</time>
      </trkpt>
      <trkpt lat="44.28641" lon="5.59658">
        <ele>873</ele>
        <time>2019-03-19T14:22:58Z</time>
      </trkpt>
      <trkpt lat="44.28639" lon="5.59656">
        <ele>873</ele>
        <time>2019-03-19T14:22:59Z</time>
      </trkpt>
      <trkpt lat="44.28637" lon="5.59655">
        <ele>873</ele>
        <time>2019-03-19T14:23:00Z</time>
      </trkpt>
      <trkpt lat="44.28635" lon="5.59654">
        <ele>874</ele>
        <time>2019-03-19T14:23:01Z</time>
      </trkpt>
      <trkpt lat="44.28633" lon="5.59652">
        <ele>874</ele>
        <time>2019-03-19T14:23:02Z</time>
      </trkpt>
      <trkpt lat="44.2863" lon="5.59651">
        <ele>874</ele>
        <time>2019-03-19T14:23:03Z</time>
      </trkpt>
      <trkpt lat="44.28628" lon="5.5965">
        <ele>874</ele>
        <time>2019-03-19T14:23:04Z</time>
      </trkpt>
      <trkpt lat="44.28625" lon="5.59649">
        <ele>875</ele>
        <time>2019-03-19T14:23:05Z</time>
      </trkpt>
      <trkpt lat="44.28623" lon="5.59648">
        <ele>875</ele>
        <time>2019-03-19T14:23:06Z</time>
      </trkpt>
      <trkpt lat="44.28621" lon="5.59646">
        <ele>875</ele>
        <time>2019-03-19T14:23:07Z</time>
      </trkpt>
      <trkpt lat="44.28618" lon="5.59645">
        <ele>875</ele>
        <time>2019-03-19T14:23:08Z</time>
      </trkpt>
      <trkpt lat="44.28616" lon="5.59644">
        <ele>875</ele>
        <time>2019-03-19T14:23:09Z</time>
      </trkpt>
      <trkpt lat="44.28614" lon="5.59642">
        <ele>875</ele>
        <time>2019-03-19T14:23:10Z</time>
      </trkpt>
      <trkpt lat="44.28611" lon="5.5964">
        <ele>875</ele>
        <time>2019-03-19T14:23:11Z</time>
      </trkpt>
      <trkpt lat="44.28609" lon="5.59638">
        <ele>875</ele>
        <time>2019-03-19T14:23:12Z</time>
      </trkpt>
      <trkpt lat="44.28607" lon="5.59636">
        <ele>876</ele>
        <time>2019-03-19T14:23:13Z</time>
      </trkpt>
      <trkpt lat="44.28606" lon="5.59634">
        <ele>876</ele>
        <time>2019-03-19T14:23:14Z</time>
      </trkpt>
      <trkpt lat="44.28604" lon="5.59632">
        <ele>876</ele>
        <time>2019-03-19T14:23:15Z</time>
      </trkpt>
      <trkpt lat="44.28603" lon="5.59629">
        <ele>876</ele>
        <time>2019-03-19T14:23:16Z</time>
      </trkpt>
      <trkpt lat="44.28601" lon="5.59626">
        <ele>877</ele>
        <time>2019-03-19T14:23:17Z</time>
      </trkpt>
      <trkpt lat="44.286" lon="5.59624">
        <ele>877</ele>
        <time>2019-03-19T14:23:18Z</time>
      </trkpt>
      <trkpt lat="44.28598" lon="5.59621">
        <ele>877</ele>
        <time>2019-03-19T14:23:19Z</time>
      </trkpt>
      <trkpt lat="44.28596" lon="5.59618">
        <ele>878</ele>
        <time>2019-03-19T14:23:20Z</time>
      </trkpt>
      <trkpt lat="44.28595" lon="5.59615">
        <ele>879</ele>
        <time>2019-03-19T14:23:21Z</time>
      </trkpt>
      <trkpt lat="44.28594" lon="5.59612">
        <ele>879</ele>
        <time>2019-03-19T14:23:22Z</time>
      </trkpt>
      <trkpt lat="44.28593" lon="5.59609">
        <ele>880</ele>
        <time>2019-03-19T14:23:23Z</time>
      </trkpt>
      <trkpt lat="44.28591" lon="5.59606">
        <ele>880</ele>
        <time>2019-03-19T14:23:24Z</time>
      </trkpt>
      <trkpt lat="44.2859" lon="5.59604">
        <ele>880</ele>
        <time>2019-03-19T14:23:25Z</time>
      </trkpt>
      <trkpt lat="44.28588" lon="5.59601">
        <ele>880</ele>
        <time>2019-03-19T14:23:26Z</time>
      </trkpt>
      <trkpt lat="44.28587" lon="5.59598">
        <ele>881</ele>
        <time>2019-03-19T14:23:27Z</time>
      </trkpt>
      <trkpt lat="44.28585" lon="5.59594">
        <ele>881</ele>
        <time>2019-03-19T14:23:28Z</time>
      </trkpt>
      <trkpt lat="44.28584" lon="5.59592">
        <ele>881</ele>
        <time>2019-03-19T14:23:29Z</time>
      </trkpt>
      <trkpt lat="44.28583" lon="5.59589">
        <ele>881</ele>
        <time>2019-03-19T14:23:30Z</time>
      </trkpt>
      <trkpt lat="44.28581" lon="5.59587">
        <ele>881</ele>
        <time>2019-03-19T14:23:31Z</time>
      </trkpt>
      <trkpt lat="44.28579" lon="5.59585">
        <ele>881</ele>
        <time>2019-03-19T14:23:32Z</time>
      </trkpt>
      <trkpt lat="44.28578" lon="5.59583">
        <ele>881</ele>
        <time>2019-03-19T14:23:33Z</time>
      </trkpt>
      <trkpt lat="44.28576" lon="5.59581">
        <ele>881</ele>
        <time>2019-03-19T14:23:34Z</time>
      </trkpt>
      <trkpt lat="44.28574" lon="5.59579">
        <ele>881</ele>
        <time>2019-03-19T14:23:35Z</time>
      </trkpt>
      <trkpt lat="44.28571" lon="5.59578">
        <ele>881</ele>
        <time>2019-03-19T14:23:36Z</time>
      </trkpt>
      <trkpt lat="44.28569" lon="5.59577">
        <ele>881</ele>
        <time>2019-03-19T14:23:37Z</time>
      </trkpt>
      <trkpt lat="44.28567" lon="5.59576">
        <ele>882</ele>
        <time>2019-03-19T14:23:38Z</time>
      </trkpt>
      <trkpt lat="44.28565" lon="5.59575">
        <ele>882</ele>
        <time>2019-03-19T14:23:39Z</time>
      </trkpt>
      <trkpt lat="44.28563" lon="5.59574">
        <ele>882</ele>
        <time>2019-03-19T14:23:40Z</time>
      </trkpt>
      <trkpt lat="44.28561" lon="5.59574">
        <ele>882</ele>
        <time>2019-03-19T14:23:41Z</time>
      </trkpt>
      <trkpt lat="44.28559" lon="5.59574">
        <ele>883</ele>
        <time>2019-03-19T14:23:42Z</time>
      </trkpt>
      <trkpt lat="44.28557" lon="5.59574">
        <ele>883</ele>
        <time>2019-03-19T14:23:43Z</time>
      </trkpt>
      <trkpt lat="44.28555" lon="5.59573">
        <ele>883</ele>
        <time>2019-03-19T14:23:44Z</time>
      </trkpt>
      <trkpt lat="44.28553" lon="5.59573">
        <ele>884</ele>
        <time>2019-03-19T14:23:45Z</time>
      </trkpt>
      <trkpt lat="44.28551" lon="5.59573">
        <ele>884</ele>
        <time>2019-03-19T14:23:46Z</time>
      </trkpt>
      <trkpt lat="44.28549" lon="5.59574">
        <ele>884</ele>
        <time>2019-03-19T14:23:47Z</time>
      </trkpt>
      <trkpt lat="44.28547" lon="5.59574">
        <ele>884</ele>
        <time>2019-03-19T14:23:48Z</time>
      </trkpt>
      <trkpt lat="44.28545" lon="5.59574">
        <ele>885</ele>
        <time>2019-03-19T14:23:49Z</time>
      </trkpt>
      <trkpt lat="44.28543" lon="5.59574">
        <ele>885</ele>
        <time>2019-03-19T14:23:50Z</time>
      </trkpt>
      <trkpt lat="44.28541" lon="5.59574">
        <ele>885</ele>
        <time>2019-03-19T14:23:51Z</time>
      </trkpt>
      <trkpt lat="44.28539" lon="5.59575">
        <ele>885</ele>
        <time>2019-03-19T14:23:52Z</time>
      </trkpt>
      <trkpt lat="44.28537" lon="5.59575">
        <ele>886</ele>
        <time>2019-03-19T14:23:53Z</time>
      </trkpt>
      <trkpt lat="44.28535" lon="5.59575">
        <ele>886</ele>
        <time>2019-03-19T14:23:54Z</time>
      </trkpt>
      <trkpt lat="44.28533" lon="5.59575">
        <ele>886</ele>
        <time>2019-03-19T14:23:55Z</time>
      </trkpt>
      <trkpt lat="44.28531" lon="5.59576">
        <ele>886</ele>
        <time>2019-03-19T14:23:56Z</time>
      </trkpt>
      <trkpt lat="44.28529" lon="5.59577">
        <ele>887</ele>
        <time>2019-03-19T14:23:57Z</time>
      </trkpt>
      <trkpt lat="44.28527" lon="5.59577">
        <ele>887</ele>
        <time>2019-03-19T14:23:58Z</time>
      </trkpt>
      <trkpt lat="44.28525" lon="5.59578">
        <ele>887</ele>
        <time>2019-03-19T14:23:59Z</time>
      </trkpt>
      <trkpt lat="44.28523" lon="5.59578">
        <ele>887</ele>
        <time>2019-03-19T14:24:00Z</time>
      </trkpt>
      <trkpt lat="44.28521" lon="5.59578">
        <ele>887</ele>
        <time>2019-03-19T14:24:01Z</time>
      </trkpt>
      <trkpt lat="44.28519" lon="5.59579">
        <ele>887</ele>
        <time>2019-03-19T14:24:02Z</time>
      </trkpt>
      <trkpt lat="44.28518" lon="5.59579">
        <ele>887</ele>
        <time>2019-03-19T14:24:03Z</time>
      </trkpt>
      <trkpt lat="44.28516" lon="5.5958">
        <ele>887</ele>
        <time>2019-03-19T14:24:04Z</time>
      </trkpt>
      <trkpt lat="44.28514" lon="5.5958">
        <ele>887</ele>
        <time>2019-03-19T14:24:05Z</time>
      </trkpt>
      <trkpt lat="44.28512" lon="5.59581">
        <ele>887</ele>
        <time>2019-03-19T14:24:06Z</time>
      </trkpt>
      <trkpt lat="44.2851" lon="5.59582">
        <ele>887</ele>
        <time>2019-03-19T14:24:07Z</time>
      </trkpt>
      <trkpt lat="44.28509" lon="5.59582">
        <ele>887</ele>
        <time>2019-03-19T14:24:08Z</time>
      </trkpt>
      <trkpt lat="44.28507" lon="5.59583">
        <ele>888</ele>
        <time>2019-03-19T14:24:09Z</time>
      </trkpt>
      <trkpt lat="44.28505" lon="5.59584">
        <ele>888</ele>
        <time>2019-03-19T14:24:10Z</time>
      </trkpt>
      <trkpt lat="44.28503" lon="5.59585">
        <ele>888</ele>
        <time>2019-03-19T14:24:11Z</time>
      </trkpt>
      <trkpt lat="44.28501" lon="5.59586">
        <ele>888</ele>
        <time>2019-03-19T14:24:12Z</time>
      </trkpt>
      <trkpt lat="44.285" lon="5.59586">
        <ele>889</ele>
        <time>2019-03-19T14:24:13Z</time>
      </trkpt>
      <trkpt lat="44.28498" lon="5.59587">
        <ele>889</ele>
        <time>2019-03-19T14:24:14Z</time>
      </trkpt>
      <trkpt lat="44.28496" lon="5.59587">
        <ele>889</ele>
        <time>2019-03-19T14:24:15Z</time>
      </trkpt>
      <trkpt lat="44.28494" lon="5.59588">
        <ele>889</ele>
        <time>2019-03-19T14:24:16Z</time>
      </trkpt>
      <trkpt lat="44.28492" lon="5.59589">
        <ele>890</ele>
        <time>2019-03-19T14:24:17Z</time>
      </trkpt>
      <trkpt lat="44.28489" lon="5.5959">
        <ele>890</ele>
        <time>2019-03-19T14:24:18Z</time>
      </trkpt>
      <trkpt lat="44.28487" lon="5.5959">
        <ele>890</ele>
        <time>2019-03-19T14:24:19Z</time>
      </trkpt>
      <trkpt lat="44.28485" lon="5.59591">
        <ele>890</ele>
        <time>2019-03-19T14:24:20Z</time>
      </trkpt>
      <trkpt lat="44.28483" lon="5.59592">
        <ele>890</ele>
        <time>2019-03-19T14:24:21Z</time>
      </trkpt>
      <trkpt lat="44.28481" lon="5.59593">
        <ele>890</ele>
        <time>2019-03-19T14:24:22Z</time>
      </trkpt>
      <trkpt lat="44.28479" lon="5.59593">
        <ele>890</ele>
        <time>2019-03-19T14:24:23Z</time>
      </trkpt>
      <trkpt lat="44.28477" lon="5.59594">
        <ele>890</ele>
        <time>2019-03-19T14:24:24Z</time>
      </trkpt>
      <trkpt lat="44.28475" lon="5.59595">
        <ele>890</ele>
        <time>2019-03-19T14:24:25Z</time>
      </trkpt>
      <trkpt lat="44.28473" lon="5.59596">
        <ele>890</ele>
        <time>2019-03-19T14:24:26Z</time>
      </trkpt>
      <trkpt lat="44.28471" lon="5.59596">
        <ele>890</ele>
        <time>2019-03-19T14:24:27Z</time>
      </trkpt>
      <trkpt lat="44.28468" lon="5.59597">
        <ele>890</ele>
        <time>2019-03-19T14:24:28Z</time>
      </trkpt>
      <trkpt lat="44.28466" lon="5.59598">
        <ele>890</ele>
        <time>2019-03-19T14:24:29Z</time>
      </trkpt>
      <trkpt lat="44.28464" lon="5.59599">
        <ele>890</ele>
        <time>2019-03-19T14:24:30Z</time>
      </trkpt>
      <trkpt lat="44.28462" lon="5.59599">
        <ele>890</ele>
        <time>2019-03-19T14:24:31Z</time>
      </trkpt>
      <trkpt lat="44.2846" lon="5.596">
        <ele>890</ele>
        <time>2019-03-19T14:24:32Z</time>
      </trkpt>
      <trkpt lat="44.28457" lon="5.59601">
        <ele>890</ele>
        <time>2019-03-19T14:24:33Z</time>
      </trkpt>
      <trkpt lat="44.28455" lon="5.59602">
        <ele>890</ele>
        <time>2019-03-19T14:24:34Z</time>
      </trkpt>
      <trkpt lat="44.28454" lon="5.59602">
        <ele>890</ele>
        <time>2019-03-19T14:24:35Z</time>
      </trkpt>
      <trkpt lat="44.28452" lon="5.59603">
        <ele>890</ele>
        <time>2019-03-19T14:24:36Z</time>
      </trkpt>
      <trkpt lat="44.2845" lon="5.59604">
        <ele>890</ele>
        <time>2019-03-19T14:24:37Z</time>
      </trkpt>
      <trkpt lat="44.28447" lon="5.59605">
        <ele>890</ele>
        <time>2019-03-19T14:24:38Z</time>
      </trkpt>
      <trkpt lat="44.28445" lon="5.59606">
        <ele>890</ele>
        <time>2019-03-19T14:24:39Z</time>
      </trkpt>
      <trkpt lat="44.28443" lon="5.59606">
        <ele>890</ele>
        <time>2019-03-19T14:24:40Z</time>
      </trkpt>
      <trkpt lat="44.28441" lon="5.59607">
        <ele>891</ele>
        <time>2019-03-19T14:24:41Z</time>
      </trkpt>
      <trkpt lat="44.28439" lon="5.59608">
        <ele>891</ele>
        <time>2019-03-19T14:24:42Z</time>
      </trkpt>
      <trkpt lat="44.28437" lon="5.59608">
        <ele>891</ele>
        <time>2019-03-19T14:24:43Z</time>
      </trkpt>
      <trkpt lat="44.28436" lon="5.59609">
        <ele>891</ele>
        <time>2019-03-19T14:24:44Z</time>
      </trkpt>
      <trkpt lat="44.28434" lon="5.5961">
        <ele>892</ele>
        <time>2019-03-19T14:24:45Z</time>
      </trkpt>
      <trkpt lat="44.28432" lon="5.59611">
        <ele>892</ele>
        <time>2019-03-19T14:24:46Z</time>
      </trkpt>
      <trkpt lat="44.28429" lon="5.59612">
        <ele>892</ele>
        <time>2019-03-19T14:24:47Z</time>
      </trkpt>
      <trkpt lat="44.28428" lon="5.59613">
        <ele>893</ele>
        <time>2019-03-19T14:24:48Z</time>
      </trkpt>
      <trkpt lat="44.28426" lon="5.59614">
        <ele>893</ele>
        <time>2019-03-19T14:24:49Z</time>
      </trkpt>
      <trkpt lat="44.28424" lon="5.59614">
        <ele>893</ele>
        <time>2019-03-19T14:24:50Z</time>
      </trkpt>
      <trkpt lat="44.28421" lon="5.59615">
        <ele>893</ele>
        <time>2019-03-19T14:24:51Z</time>
      </trkpt>
      <trkpt lat="44.28419" lon="5.59615">
        <ele>893</ele>
        <time>2019-03-19T14:24:52Z</time>
      </trkpt>
      <trkpt lat="44.28417" lon="5.59615">
        <ele>893</ele>
        <time>2019-03-19T14:24:53Z</time>
      </trkpt>
      <trkpt lat="44.28415" lon="5.59616">
        <ele>893</ele>
        <time>2019-03-19T14:24:54Z</time>
      </trkpt>
      <trkpt lat="44.28413" lon="5.59616">
        <ele>893</ele>
        <time>2019-03-19T14:24:55Z</time>
      </trkpt>
      <trkpt lat="44.28411" lon="5.59617">
        <ele>894</ele>
        <time>2019-03-19T14:24:56Z</time>
      </trkpt>
      <trkpt lat="44.28409" lon="5.59618">
        <ele>894</ele>
        <time>2019-03-19T14:24:57Z</time>
      </trkpt>
      <trkpt lat="44.28407" lon="5.59618">
        <ele>894</ele>
        <time>2019-03-19T14:24:58Z</time>
      </trkpt>
      <trkpt lat="44.28405" lon="5.59618">
        <ele>894</ele>
        <time>2019-03-19T14:24:59Z</time>
      </trkpt>
      <trkpt lat="44.28402" lon="5.59618">
        <ele>894</ele>
        <time>2019-03-19T14:25:00Z</time>
      </trkpt>
      <trkpt lat="44.284" lon="5.59618">
        <ele>894</ele>
        <time>2019-03-19T14:25:01Z</time>
      </trkpt>
      <trkpt lat="44.28398" lon="5.59618">
        <ele>895</ele>
        <time>2019-03-19T14:25:02Z</time>
      </trkpt>
      <trkpt lat="44.28395" lon="5.59619">
        <ele>895</ele>
        <time>2019-03-19T14:25:03Z</time>
      </trkpt>
      <trkpt lat="44.28393" lon="5.59619">
        <ele>896</ele>
        <time>2019-03-19T14:25:04Z</time>
      </trkpt>
      <trkpt lat="44.28391" lon="5.59619">
        <ele>896</ele>
        <time>2019-03-19T14:25:05Z</time>
      </trkpt>
      <trkpt lat="44.28388" lon="5.59619">
        <ele>896</ele>
        <time>2019-03-19T14:25:06Z</time>
      </trkpt>
      <trkpt lat="44.28385" lon="5.59619">
        <ele>896</ele>
        <time>2019-03-19T14:25:07Z</time>
      </trkpt>
      <trkpt lat="44.28383" lon="5.59618">
        <ele>897</ele>
        <time>2019-03-19T14:25:08Z</time>
      </trkpt>
      <trkpt lat="44.2838" lon="5.59618">
        <ele>897</ele>
        <time>2019-03-19T14:25:09Z</time>
      </trkpt>
      <trkpt lat="44.28378" lon="5.59618">
        <ele>897</ele>
        <time>2019-03-19T14:25:10Z</time>
      </trkpt>
      <trkpt lat="44.28376" lon="5.59618">
        <ele>897</ele>
        <time>2019-03-19T14:25:11Z</time>
      </trkpt>
      <trkpt lat="44.28373" lon="5.59617">
        <ele>898</ele>
        <time>2019-03-19T14:25:12Z</time>
      </trkpt>
      <trkpt lat="44.28371" lon="5.59617">
        <ele>898</ele>
        <time>2019-03-19T14:25:13Z</time>
      </trkpt>
      <trkpt lat="44.28369" lon="5.59616">
        <ele>898</ele>
        <time>2019-03-19T14:25:14Z</time>
      </trkpt>
      <trkpt lat="44.28366" lon="5.59616">
        <ele>898</ele>
        <time>2019-03-19T14:25:15Z</time>
      </trkpt>
      <trkpt lat="44.28364" lon="5.59615">
        <ele>899</ele>
        <time>2019-03-19T14:25:16Z</time>
      </trkpt>
      <trkpt lat="44.28362" lon="5.59615">
        <ele>899</ele>
        <time>2019-03-19T14:25:17Z</time>
      </trkpt>
      <trkpt lat="44.2836" lon="5.59615">
        <ele>899</ele>
        <time>2019-03-19T14:25:18Z</time>
      </trkpt>
      <trkpt lat="44.28358" lon="5.59614">
        <ele>899</ele>
        <time>2019-03-19T14:25:19Z</time>
      </trkpt>
      <trkpt lat="44.28355" lon="5.59613">
        <ele>899</ele>
        <time>2019-03-19T14:25:20Z</time>
      </trkpt>
      <trkpt lat="44.28353" lon="5.59613">
        <ele>899</ele>
        <time>2019-03-19T14:25:21Z</time>
      </trkpt>
      <trkpt lat="44.28351" lon="5.59612">
        <ele>899</ele>
        <time>2019-03-19T14:25:22Z</time>
      </trkpt>
      <trkpt lat="44.28348" lon="5.59611">
        <ele>899</ele>
        <time>2019-03-19T14:25:23Z</time>
      </trkpt>
      <trkpt lat="44.28346" lon="5.59611">
        <ele>899</ele>
        <time>2019-03-19T14:25:24Z</time>
      </trkpt>
      <trkpt lat="44.28344" lon="5.59611">
        <ele>899</ele>
        <time>2019-03-19T14:25:25Z</time>
      </trkpt>
      <trkpt lat="44.28341" lon="5.5961">
        <ele>899</ele>
        <time>2019-03-19T14:25:26Z</time>
      </trkpt>
      <trkpt lat="44.28338" lon="5.5961">
        <ele>899</ele>
        <time>2019-03-19T14:25:27Z</time>
      </trkpt>
      <trkpt lat="44.28336" lon="5.59609">
        <ele>899</ele>
        <time>2019-03-19T14:25:28Z</time>
      </trkpt>
      <trkpt lat="44.28333" lon="5.59609">
        <ele>899</ele>
        <time>2019-03-19T14:25:29Z</time>
      </trkpt>
      <trkpt lat="44.28331" lon="5.59608">
        <ele>899</ele>
        <time>2019-03-19T14:25:30Z</time>
      </trkpt>
      <trkpt lat="44.28328" lon="5.59608">
        <ele>899</ele>
        <time>2019-03-19T14:25:31Z</time>
      </trkpt>
      <trkpt lat="44.28326" lon="5.59608">
        <ele>899</ele>
        <time>2019-03-19T14:25:32Z</time>
      </trkpt>
      <trkpt lat="44.28324" lon="5.59607">
        <ele>899</ele>
        <time>2019-03-19T14:25:33Z</time>
      </trkpt>
      <trkpt lat="44.28322" lon="5.59607">
        <ele>900</ele>
        <time>2019-03-19T14:25:34Z</time>
      </trkpt>
      <trkpt lat="44.28319" lon="5.59607">
        <ele>900</ele>
        <time>2019-03-19T14:25:35Z</time>
      </trkpt>
      <trkpt lat="44.28317" lon="5.59607">
        <ele>900</ele>
        <time>2019-03-19T14:25:36Z</time>
      </trkpt>
      <trkpt lat="44.28315" lon="5.59606">
        <ele>900</ele>
        <time>2019-03-19T14:25:37Z</time>
      </trkpt>
      <trkpt lat="44.28313" lon="5.59605">
        <ele>900</ele>
        <time>2019-03-19T14:25:38Z</time>
      </trkpt>
      <trkpt lat="44.2831" lon="5.59605">
        <ele>900</ele>
        <time>2019-03-19T14:25:39Z</time>
      </trkpt>
      <trkpt lat="44.28308" lon="5.59604">
        <ele>900</ele>
        <time>2019-03-19T14:25:40Z</time>
      </trkpt>
      <trkpt lat="44.28306" lon="5.59604">
        <ele>900</ele>
        <time>2019-03-19T14:25:41Z</time>
      </trkpt>
      <trkpt lat="44.28304" lon="5.59604">
        <ele>900</ele>
        <time>2019-03-19T14:25:42Z</time>
      </trkpt>
      <trkpt lat="44.28302" lon="5.59603">
        <ele>900</ele>
        <time>2019-03-19T14:25:43Z</time>
      </trkpt>
      <trkpt lat="44.28299" lon="5.59603">
        <ele>900</ele>
        <time>2019-03-19T14:25:44Z</time>
      </trkpt>
      <trkpt lat="44.28297" lon="5.59602">
        <ele>900</ele>
        <time>2019-03-19T14:25:45Z</time>
      </trkpt>
      <trkpt lat="44.28295" lon="5.59602">
        <ele>901</ele>
        <time>2019-03-19T14:25:46Z</time>
      </trkpt>
      <trkpt lat="44.28293" lon="5.59602">
        <ele>901</ele>
        <time>2019-03-19T14:25:47Z</time>
      </trkpt>
      <trkpt lat="44.28291" lon="5.59602">
        <ele>901</ele>
        <time>2019-03-19T14:25:48Z</time>
      </trkpt>
      <trkpt lat="44.28289" lon="5.59603">
        <ele>901</ele>
        <time>2019-03-19T14:25:49Z</time>
      </trkpt>
      <trkpt lat="44.28286" lon="5.59603">
        <ele>901</ele>
        <time>2019-03-19T14:25:50Z</time>
      </trkpt>
      <trkpt lat="44.28284" lon="5.59603">
        <ele>902</ele>
        <time>2019-03-19T14:25:51Z</time>
      </trkpt>
      <trkpt lat="44.28282" lon="5.59603">
        <ele>902</ele>
        <time>2019-03-19T14:25:52Z</time>
      </trkpt>
      <trkpt lat="44.28279" lon="5.59604">
        <ele>902</ele>
        <time>2019-03-19T14:25:53Z</time>
      </trkpt>
      <trkpt lat="44.28277" lon="5.59605">
        <ele>902</ele>
        <time>2019-03-19T14:25:54Z</time>
      </trkpt>
      <trkpt lat="44.28275" lon="5.59606">
        <ele>903</ele>
        <time>2019-03-19T14:25:55Z</time>
      </trkpt>
      <trkpt lat="44.28273" lon="5.59607">
        <ele>903</ele>
        <time>2019-03-19T14:25:56Z</time>
      </trkpt>
      <trkpt lat="44.28272" lon="5.59608">
        <ele>903</ele>
        <time>2019-03-19T14:25:57Z</time>
      </trkpt>
      <trkpt lat="44.2827" lon="5.59608">
        <ele>904</ele>
        <time>2019-03-19T14:25:58Z</time>
      </trkpt>
      <trkpt lat="44.28268" lon="5.59609">
        <ele>904</ele>
        <time>2019-03-19T14:25:59Z</time>
      </trkpt>
      <trkpt lat="44.28266" lon="5.59611">
        <ele>905</ele>
        <time>2019-03-19T14:26:00Z</time>
      </trkpt>
      <trkpt lat="44.28265" lon="5.59614">
        <ele>905</ele>
        <time>2019-03-19T14:26:01Z</time>
      </trkpt>
      <trkpt lat="44.28264" lon="5.59616">
        <ele>905</ele>
        <time>2019-03-19T14:26:02Z</time>
      </trkpt>
      <trkpt lat="44.28262" lon="5.59619">
        <ele>906</ele>
        <time>2019-03-19T14:26:03Z</time>
      </trkpt>
      <trkpt lat="44.28261" lon="5.59621">
        <ele>906</ele>
        <time>2019-03-19T14:26:04Z</time>
      </trkpt>
      <trkpt lat="44.2826" lon="5.59623">
        <ele>906</ele>
        <time>2019-03-19T14:26:05Z</time>
      </trkpt>
      <trkpt lat="44.28258" lon="5.59626">
        <ele>906</ele>
        <time>2019-03-19T14:26:06Z</time>
      </trkpt>
      <trkpt lat="44.28257" lon="5.59628">
        <ele>906</ele>
        <time>2019-03-19T14:26:07Z</time>
      </trkpt>
      <trkpt lat="44.28256" lon="5.59631">
        <ele>907</ele>
        <time>2019-03-19T14:26:08Z</time>
      </trkpt>
      <trkpt lat="44.28255" lon="5.59634">
        <ele>907</ele>
        <time>2019-03-19T14:26:09Z</time>
      </trkpt>
      <trkpt lat="44.28254" lon="5.59636">
        <ele>908</ele>
        <time>2019-03-19T14:26:10Z</time>
      </trkpt>
      <trkpt lat="44.28253" lon="5.59639">
        <ele>908</ele>
        <time>2019-03-19T14:26:11Z</time>
      </trkpt>
      <trkpt lat="44.28252" lon="5.59642">
        <ele>908</ele>
        <time>2019-03-19T14:26:12Z</time>
      </trkpt>
      <trkpt lat="44.28251" lon="5.59645">
        <ele>909</ele>
        <time>2019-03-19T14:26:13Z</time>
      </trkpt>
      <trkpt lat="44.2825" lon="5.59647">
        <ele>909</ele>
        <time>2019-03-19T14:26:14Z</time>
      </trkpt>
      <trkpt lat="44.28249" lon="5.5965">
        <ele>910</ele>
        <time>2019-03-19T14:26:15Z</time>
      </trkpt>
      <trkpt lat="44.28248" lon="5.59653">
        <ele>910</ele>
        <time>2019-03-19T14:26:16Z</time>
      </trkpt>
      <trkpt lat="44.28247" lon="5.59656">
        <ele>911</ele>
        <time>2019-03-19T14:26:17Z</time>
      </trkpt>
      <trkpt lat="44.28247" lon="5.59659">
        <ele>911</ele>
        <time>2019-03-19T14:26:18Z</time>
      </trkpt>
      <trkpt lat="44.28246" lon="5.59662">
        <ele>911</ele>
        <time>2019-03-19T14:26:19Z</time>
      </trkpt>
      <trkpt lat="44.28244" lon="5.59665">
        <ele>912</ele>
        <time>2019-03-19T14:26:20Z</time>
      </trkpt>
      <trkpt lat="44.28243" lon="5.59668">
        <ele>912</ele>
        <time>2019-03-19T14:26:21Z</time>
      </trkpt>
      <trkpt lat="44.28242" lon="5.5967">
        <ele>912</ele>
        <time>2019-03-19T14:26:22Z</time>
      </trkpt>
      <trkpt lat="44.28241" lon="5.59673">
        <ele>912</ele>
        <time>2019-03-19T14:26:23Z</time>
      </trkpt>
      <trkpt lat="44.2824" lon="5.59676">
        <ele>913</ele>
        <time>2019-03-19T14:26:24Z</time>
      </trkpt>
      <trkpt lat="44.28239" lon="5.59678">
        <ele>913</ele>
        <time>2019-03-19T14:26:25Z</time>
      </trkpt>
      <trkpt lat="44.28237" lon="5.5968">
        <ele>913</ele>
        <time>2019-03-19T14:26:26Z</time>
      </trkpt>
      <trkpt lat="44.28236" lon="5.59683">
        <ele>913</ele>
        <time>2019-03-19T14:26:27Z</time>
      </trkpt>
      <trkpt lat="44.28235" lon="5.59685">
        <ele>914</ele>
        <time>2019-03-19T14:26:28Z</time>
      </trkpt>
      <trkpt lat="44.28233" lon="5.59687">
        <ele>914</ele>
        <time>2019-03-19T14:26:29Z</time>
      </trkpt>
      <trkpt lat="44.28231" lon="5.59689">
        <ele>914</ele>
        <time>2019-03-19T14:26:30Z</time>
      </trkpt>
      <trkpt lat="44.2823" lon="5.59691">
        <ele>914</ele>
        <time>2019-03-19T14:26:31Z</time>
      </trkpt>
      <trkpt lat="44.28228" lon="5.59693">
        <ele>914</ele>
        <time>2019-03-19T14:26:32Z</time>
      </trkpt>
      <trkpt lat="44.28227" lon="5.59695">
        <ele>914</ele>
        <time>2019-03-19T14:26:33Z</time>
      </trkpt>
      <trkpt lat="44.28225" lon="5.59697">
        <ele>914</ele>
        <time>2019-03-19T14:26:34Z</time>
      </trkpt>
      <trkpt lat="44.28224" lon="5.59699">
        <ele>914</ele>
        <time>2019-03-19T14:26:35Z</time>
      </trkpt>
      <trkpt lat="44.28222" lon="5.59701">
        <ele>915</ele>
        <time>2019-03-19T14:26:36Z</time>
      </trkpt>
      <trkpt lat="44.2822" lon="5.59703">
        <ele>915</ele>
        <time>2019-03-19T14:26:37Z</time>
      </trkpt>
      <trkpt lat="44.28219" lon="5.59704">
        <ele>915</ele>
        <time>2019-03-19T14:26:38Z</time>
      </trkpt>
      <trkpt lat="44.28217" lon="5.59706">
        <ele>915</ele>
        <time>2019-03-19T14:26:39Z</time>
      </trkpt>
      <trkpt lat="44.28215" lon="5.59709">
        <ele>915</ele>
        <time>2019-03-19T14:26:40Z</time>
      </trkpt>
      <trkpt lat="44.28214" lon="5.59711">
        <ele>915</ele>
        <time>2019-03-19T14:26:41Z</time>
      </trkpt>
      <trkpt lat="44.28212" lon="5.59713">
        <ele>915</ele>
        <time>2019-03-19T14:26:42Z</time>
      </trkpt>
      <trkpt lat="44.28211" lon="5.59715">
        <ele>915</ele>
        <time>2019-03-19T14:26:43Z</time>
      </trkpt>
      <trkpt lat="44.28209" lon="5.59717">
        <ele>915</ele>
        <time>2019-03-19T14:26:44Z</time>
      </trkpt>
      <trkpt lat="44.28207" lon="5.59719">
        <ele>915</ele>
        <time>2019-03-19T14:26:45Z</time>
      </trkpt>
      <trkpt lat="44.28206" lon="5.59721">
        <ele>915</ele>
        <time>2019-03-19T14:26:46Z</time>
      </trkpt>
      <trkpt lat="44.28204" lon="5.59724">
        <ele>915</ele>
        <time>2019-03-19T14:26:47Z</time>
      </trkpt>
      <trkpt lat="44.28203" lon="5.59726">
        <ele>915</ele>
        <time>2019-03-19T14:26:48Z</time>
      </trkpt>
      <trkpt lat="44.28201" lon="5.59728">
        <ele>915</ele>
        <time>2019-03-19T14:26:49Z</time>
      </trkpt>
      <trkpt lat="44.28199" lon="5.5973">
        <ele>915</ele>
        <time>2019-03-19T14:26:50Z</time>
      </trkpt>
      <trkpt lat="44.28197" lon="5.59732">
        <ele>915</ele>
        <time>2019-03-19T14:26:51Z</time>
      </trkpt>
      <trkpt lat="44.28196" lon="5.59734">
        <ele>915</ele>
        <time>2019-03-19T14:26:52Z</time>
      </trkpt>
      <trkpt lat="44.28194" lon="5.59737">
        <ele>915</ele>
        <time>2019-03-19T14:26:53Z</time>
      </trkpt>
      <trkpt lat="44.28193" lon="5.59739">
        <ele>915</ele>
        <time>2019-03-19T14:26:54Z</time>
      </trkpt>
      <trkpt lat="44.28191" lon="5.59741">
        <ele>915</ele>
        <time>2019-03-19T14:26:55Z</time>
      </trkpt>
      <trkpt lat="44.28189" lon="5.59743">
        <ele>915</ele>
        <time>2019-03-19T14:26:56Z</time>
      </trkpt>
      <trkpt lat="44.28187" lon="5.59745">
        <ele>915</ele>
        <time>2019-03-19T14:26:57Z</time>
      </trkpt>
      <trkpt lat="44.28186" lon="5.59747">
        <ele>915</ele>
        <time>2019-03-19T14:26:58Z</time>
      </trkpt>
      <trkpt lat="44.28184" lon="5.59749">
        <ele>915</ele>
        <time>2019-03-19T14:26:59Z</time>
      </trkpt>
      <trkpt lat="44.28183" lon="5.59752">
        <ele>915</ele>
        <time>2019-03-19T14:27:00Z</time>
      </trkpt>
      <trkpt lat="44.28181" lon="5.59753">
        <ele>915</ele>
        <time>2019-03-19T14:27:01Z</time>
      </trkpt>
      <trkpt lat="44.28179" lon="5.59755">
        <ele>915</ele>
        <time>2019-03-19T14:27:02Z</time>
      </trkpt>
      <trkpt lat="44.28177" lon="5.59758">
        <ele>915</ele>
        <time>2019-03-19T14:27:03Z</time>
      </trkpt>
      <trkpt lat="44.28175" lon="5.59759">
        <ele>915</ele>
        <time>2019-03-19T14:27:04Z</time>
      </trkpt>
      <trkpt lat="44.28173" lon="5.59761">
        <ele>915</ele>
        <time>2019-03-19T14:27:05Z</time>
      </trkpt>
      <trkpt lat="44.28172" lon="5.59764">
        <ele>915</ele>
        <time>2019-03-19T14:27:06Z</time>
      </trkpt>
      <trkpt lat="44.28171" lon="5.59766">
        <ele>915</ele>
        <time>2019-03-19T14:27:07Z</time>
      </trkpt>
      <trkpt lat="44.2817" lon="5.59768">
        <ele>915</ele>
        <time>2019-03-19T14:27:08Z</time>
      </trkpt>
      <trkpt lat="44.28168" lon="5.5977">
        <ele>915</ele>
        <time>2019-03-19T14:27:09Z</time>
      </trkpt>
      <trkpt lat="44.28167" lon="5.59772">
        <ele>915</ele>
        <time>2019-03-19T14:27:10Z</time>
      </trkpt>
      <trkpt lat="44.28165" lon="5.59774">
        <ele>915</ele>
        <time>2019-03-19T14:27:11Z</time>
      </trkpt>
      <trkpt lat="44.28165" lon="5.59776">
        <ele>915</ele>
        <time>2019-03-19T14:27:12Z</time>
      </trkpt>
      <trkpt lat="44.28163" lon="5.59778">
        <ele>915</ele>
        <time>2019-03-19T14:27:13Z</time>
      </trkpt>
      <trkpt lat="44.28162" lon="5.59781">
        <ele>915</ele>
        <time>2019-03-19T14:27:14Z</time>
      </trkpt>
      <trkpt lat="44.28161" lon="5.59783">
        <ele>915</ele>
        <time>2019-03-19T14:27:15Z</time>
      </trkpt>
      <trkpt lat="44.2816" lon="5.59785">
        <ele>915</ele>
        <time>2019-03-19T14:27:16Z</time>
      </trkpt>
      <trkpt lat="44.28159" lon="5.59788">
        <ele>915</ele>
        <time>2019-03-19T14:27:17Z</time>
      </trkpt>
      <trkpt lat="44.28158" lon="5.59791">
        <ele>915</ele>
        <time>2019-03-19T14:27:18Z</time>
      </trkpt>
      <trkpt lat="44.28157" lon="5.59793">
        <ele>915</ele>
        <time>2019-03-19T14:27:19Z</time>
      </trkpt>
      <trkpt lat="44.28156" lon="5.59796">
        <ele>915</ele>
        <time>2019-03-19T14:27:20Z</time>
      </trkpt>
      <trkpt lat="44.28154" lon="5.59798">
        <ele>915</ele>
        <time>2019-03-19T14:27:21Z</time>
      </trkpt>
      <trkpt lat="44.28152" lon="5.598">
        <ele>915</ele>
        <time>2019-03-19T14:27:22Z</time>
      </trkpt>
      <trkpt lat="44.2815" lon="5.59802">
        <ele>915</ele>
        <time>2019-03-19T14:27:23Z</time>
      </trkpt>
      <trkpt lat="44.28148" lon="5.59804">
        <ele>915</ele>
        <time>2019-03-19T14:27:24Z</time>
      </trkpt>
      <trkpt lat="44.28146" lon="5.59806">
        <ele>915</ele>
        <time>2019-03-19T14:27:25Z</time>
      </trkpt>
      <trkpt lat="44.28145" lon="5.59808">
        <ele>915</ele>
        <time>2019-03-19T14:27:26Z</time>
      </trkpt>
      <trkpt lat="44.28143" lon="5.5981">
        <ele>915</ele>
        <time>2019-03-19T14:27:27Z</time>
      </trkpt>
      <trkpt lat="44.28141" lon="5.59811">
        <ele>915</ele>
        <time>2019-03-19T14:27:28Z</time>
      </trkpt>
      <trkpt lat="44.28138" lon="5.59812">
        <ele>915</ele>
        <time>2019-03-19T14:27:29Z</time>
      </trkpt>
      <trkpt lat="44.28136" lon="5.59813">
        <ele>915</ele>
        <time>2019-03-19T14:27:30Z</time>
      </trkpt>
      <trkpt lat="44.28134" lon="5.59814">
        <ele>915</ele>
        <time>2019-03-19T14:27:31Z</time>
      </trkpt>
      <trkpt lat="44.28132" lon="5.59815">
        <ele>915</ele>
        <time>2019-03-19T14:27:32Z</time>
      </trkpt>
      <trkpt lat="44.28129" lon="5.59816">
        <ele>915</ele>
        <time>2019-03-19T14:27:33Z</time>
      </trkpt>
      <trkpt lat="44.28127" lon="5.59817">
        <ele>915</ele>
        <time>2019-03-19T14:27:34Z</time>
      </trkpt>
      <trkpt lat="44.28125" lon="5.59817">
        <ele>916</ele>
        <time>2019-03-19T14:27:35Z</time>
      </trkpt>
      <trkpt lat="44.28122" lon="5.59818">
        <ele>916</ele>
        <time>2019-03-19T14:27:36Z</time>
      </trkpt>
      <trkpt lat="44.2812" lon="5.59819">
        <ele>916</ele>
        <time>2019-03-19T14:27:37Z</time>
      </trkpt>
      <trkpt lat="44.28117" lon="5.59819">
        <ele>916</ele>
        <time>2019-03-19T14:27:38Z</time>
      </trkpt>
      <trkpt lat="44.28114" lon="5.59819">
        <ele>917</ele>
        <time>2019-03-19T14:27:39Z</time>
      </trkpt>
      <trkpt lat="44.28112" lon="5.5982">
        <ele>917</ele>
        <time>2019-03-19T14:27:40Z</time>
      </trkpt>
      <trkpt lat="44.28109" lon="5.59821">
        <ele>917</ele>
        <time>2019-03-19T14:27:41Z</time>
      </trkpt>
      <trkpt lat="44.28107" lon="5.59822">
        <ele>918</ele>
        <time>2019-03-19T14:27:42Z</time>
      </trkpt>
      <trkpt lat="44.28104" lon="5.59823">
        <ele>918</ele>
        <time>2019-03-19T14:27:43Z</time>
      </trkpt>
      <trkpt lat="44.28102" lon="5.59825">
        <ele>918</ele>
        <time>2019-03-19T14:27:44Z</time>
      </trkpt>
      <trkpt lat="44.281" lon="5.59826">
        <ele>918</ele>
        <time>2019-03-19T14:27:45Z</time>
      </trkpt>
      <trkpt lat="44.28098" lon="5.59828">
        <ele>919</ele>
        <time>2019-03-19T14:27:46Z</time>
      </trkpt>
      <trkpt lat="44.28095" lon="5.59829">
        <ele>919</ele>
        <time>2019-03-19T14:27:47Z</time>
      </trkpt>
      <trkpt lat="44.28093" lon="5.59831">
        <ele>919</ele>
        <time>2019-03-19T14:27:48Z</time>
      </trkpt>
      <trkpt lat="44.28091" lon="5.59832">
        <ele>920</ele>
        <time>2019-03-19T14:27:49Z</time>
      </trkpt>
      <trkpt lat="44.28089" lon="5.59834">
        <ele>920</ele>
        <time>2019-03-19T14:27:50Z</time>
      </trkpt>
      <trkpt lat="44.28087" lon="5.59835">
        <ele>921</ele>
        <time>2019-03-19T14:27:51Z</time>
      </trkpt>
      <trkpt lat="44.28085" lon="5.59837">
        <ele>921</ele>
        <time>2019-03-19T14:27:52Z</time>
      </trkpt>
      <trkpt lat="44.28082" lon="5.59838">
        <ele>922</ele>
        <time>2019-03-19T14:27:53Z</time>
      </trkpt>
      <trkpt lat="44.2808" lon="5.5984">
        <ele>922</ele>
        <time>2019-03-19T14:27:54Z</time>
      </trkpt>
      <trkpt lat="44.28078" lon="5.59842">
        <ele>923</ele>
        <time>2019-03-19T14:27:55Z</time>
      </trkpt>
      <trkpt lat="44.28076" lon="5.59843">
        <ele>924</ele>
        <time>2019-03-19T14:27:56Z</time>
      </trkpt>
      <trkpt lat="44.28074" lon="5.59845">
        <ele>924</ele>
        <time>2019-03-19T14:27:57Z</time>
      </trkpt>
      <trkpt lat="44.28073" lon="5.59847">
        <ele>925</ele>
        <time>2019-03-19T14:27:58Z</time>
      </trkpt>
      <trkpt lat="44.28071" lon="5.59849">
        <ele>926</ele>
        <time>2019-03-19T14:27:59Z</time>
      </trkpt>
      <trkpt lat="44.2807" lon="5.59852">
        <ele>926</ele>
        <time>2019-03-19T14:28:00Z</time>
      </trkpt>
      <trkpt lat="44.28069" lon="5.59854">
        <ele>927</ele>
        <time>2019-03-19T14:28:01Z</time>
      </trkpt>
      <trkpt lat="44.28067" lon="5.59857">
        <ele>927</ele>
        <time>2019-03-19T14:28:02Z</time>
      </trkpt>
      <trkpt lat="44.28066" lon="5.59859">
        <ele>928</ele>
        <time>2019-03-19T14:28:03Z</time>
      </trkpt>
      <trkpt lat="44.28064" lon="5.59862">
        <ele>928</ele>
        <time>2019-03-19T14:28:04Z</time>
      </trkpt>
      <trkpt lat="44.28063" lon="5.59864">
        <ele>928</ele>
        <time>2019-03-19T14:28:05Z</time>
      </trkpt>
      <trkpt lat="44.28062" lon="5.59867">
        <ele>929</ele>
        <time>2019-03-19T14:28:06Z</time>
      </trkpt>
      <trkpt lat="44.28061" lon="5.59869">
        <ele>929</ele>
        <time>2019-03-19T14:28:07Z</time>
      </trkpt>
      <trkpt lat="44.2806" lon="5.59872">
        <ele>929</ele>
        <time>2019-03-19T14:28:08Z</time>
      </trkpt>
      <trkpt lat="44.28059" lon="5.59874">
        <ele>929</ele>
        <time>2019-03-19T14:28:09Z</time>
      </trkpt>
      <trkpt lat="44.28057" lon="5.59876">
        <ele>929</ele>
        <time>2019-03-19T14:28:10Z</time>
      </trkpt>
      <trkpt lat="44.28055" lon="5.59878">
        <ele>929</ele>
        <time>2019-03-19T14:28:11Z</time>
      </trkpt>
      <trkpt lat="44.28053" lon="5.59879">
        <ele>929</ele>
        <time>2019-03-19T14:28:12Z</time>
      </trkpt>
      <trkpt lat="44.28051" lon="5.59881">
        <ele>930</ele>
        <time>2019-03-19T14:28:13Z</time>
      </trkpt>
      <trkpt lat="44.28049" lon="5.59883">
        <ele>930</ele>
        <time>2019-03-19T14:28:14Z</time>
      </trkpt>
      <trkpt lat="44.28047" lon="5.59884">
        <ele>930</ele>
        <time>2019-03-19T14:28:15Z</time>
      </trkpt>
      <trkpt lat="44.28045" lon="5.59885">
        <ele>930</ele>
        <time>2019-03-19T14:28:16Z</time>
      </trkpt>
      <trkpt lat="44.28043" lon="5.59885">
        <ele>930</ele>
        <time>2019-03-19T14:28:17Z</time>
      </trkpt>
      <trkpt lat="44.2804" lon="5.59885">
        <ele>930</ele>
        <time>2019-03-19T14:28:18Z</time>
      </trkpt>
      <trkpt lat="44.28038" lon="5.59885">
        <ele>930</ele>
        <time>2019-03-19T14:28:19Z</time>
      </trkpt>
      <trkpt lat="44.28035" lon="5.59886">
        <ele>930</ele>
        <time>2019-03-19T14:28:20Z</time>
      </trkpt>
      <trkpt lat="44.28033" lon="5.59886">
        <ele>930</ele>
        <time>2019-03-19T14:28:21Z</time>
      </trkpt>
      <trkpt lat="44.28031" lon="5.59886">
        <ele>931</ele>
        <time>2019-03-19T14:28:22Z</time>
      </trkpt>
      <trkpt lat="44.28028" lon="5.59886">
        <ele>931</ele>
        <time>2019-03-19T14:28:23Z</time>
      </trkpt>
      <trkpt lat="44.28026" lon="5.59886">
        <ele>931</ele>
        <time>2019-03-19T14:28:24Z</time>
      </trkpt>
      <trkpt lat="44.28023" lon="5.59886">
        <ele>932</ele>
        <time>2019-03-19T14:28:25Z</time>
      </trkpt>
      <trkpt lat="44.28021" lon="5.59886">
        <ele>932</ele>
        <time>2019-03-19T14:28:26Z</time>
      </trkpt>
      <trkpt lat="44.28018" lon="5.59886">
        <ele>933</ele>
        <time>2019-03-19T14:28:27Z</time>
      </trkpt>
      <trkpt lat="44.28016" lon="5.59886">
        <ele>934</ele>
        <time>2019-03-19T14:28:28Z</time>
      </trkpt>
      <trkpt lat="44.28013" lon="5.59887">
        <ele>934</ele>
        <time>2019-03-19T14:28:29Z</time>
      </trkpt>
      <trkpt lat="44.28011" lon="5.59888">
        <ele>934</ele>
        <time>2019-03-19T14:28:30Z</time>
      </trkpt>
      <trkpt lat="44.28009" lon="5.59889">
        <ele>935</ele>
        <time>2019-03-19T14:28:31Z</time>
      </trkpt>
      <trkpt lat="44.28006" lon="5.5989">
        <ele>935</ele>
        <time>2019-03-19T14:28:32Z</time>
      </trkpt>
      <trkpt lat="44.28004" lon="5.59892">
        <ele>935</ele>
        <time>2019-03-19T14:28:33Z</time>
      </trkpt>
      <trkpt lat="44.28003" lon="5.59894">
        <ele>936</ele>
        <time>2019-03-19T14:28:34Z</time>
      </trkpt>
      <trkpt lat="44.28001" lon="5.59896">
        <ele>936</ele>
        <time>2019-03-19T14:28:35Z</time>
      </trkpt>
      <trkpt lat="44.27999" lon="5.59898">
        <ele>936</ele>
        <time>2019-03-19T14:28:36Z</time>
      </trkpt>
      <trkpt lat="44.27998" lon="5.599">
        <ele>937</ele>
        <time>2019-03-19T14:28:37Z</time>
      </trkpt>
      <trkpt lat="44.27997" lon="5.59902">
        <ele>937</ele>
        <time>2019-03-19T14:28:38Z</time>
      </trkpt>
      <trkpt lat="44.27996" lon="5.59905">
        <ele>937</ele>
        <time>2019-03-19T14:28:39Z</time>
      </trkpt>
      <trkpt lat="44.27995" lon="5.59907">
        <ele>938</ele>
        <time>2019-03-19T14:28:40Z</time>
      </trkpt>
      <trkpt lat="44.27994" lon="5.5991">
        <ele>938</ele>
        <time>2019-03-19T14:28:41Z</time>
      </trkpt>
      <trkpt lat="44.27993" lon="5.59913">
        <ele>938</ele>
        <time>2019-03-19T14:28:42Z</time>
      </trkpt>
      <trkpt lat="44.27992" lon="5.59916">
        <ele>938</ele>
        <time>2019-03-19T14:28:43Z</time>
      </trkpt>
      <trkpt lat="44.27992" lon="5.59919">
        <ele>938</ele>
        <time>2019-03-19T14:28:44Z</time>
      </trkpt>
      <trkpt lat="44.27992" lon="5.59922">
        <ele>938</ele>
        <time>2019-03-19T14:28:45Z</time>
      </trkpt>
      <trkpt lat="44.27991" lon="5.59925">
        <ele>938</ele>
        <time>2019-03-19T14:28:46Z</time>
      </trkpt>
      <trkpt lat="44.2799" lon="5.59928">
        <ele>938</ele>
        <time>2019-03-19T14:28:47Z</time>
      </trkpt>
      <trkpt lat="44.2799" lon="5.59931">
        <ele>938</ele>
        <time>2019-03-19T14:28:48Z</time>
      </trkpt>
      <trkpt lat="44.27989" lon="5.59934">
        <ele>938</ele>
        <time>2019-03-19T14:28:49Z</time>
      </trkpt>
      <trkpt lat="44.27989" lon="5.59936">
        <ele>938</ele>
        <time>2019-03-19T14:28:50Z</time>
      </trkpt>
      <trkpt lat="44.27988" lon="5.59939">
        <ele>938</ele>
        <time>2019-03-19T14:28:51Z</time>
      </trkpt>
      <trkpt lat="44.27987" lon="5.59941">
        <ele>938</ele>
        <time>2019-03-19T14:28:52Z</time>
      </trkpt>
      <trkpt lat="44.27987" lon="5.59944">
        <ele>939</ele>
        <time>2019-03-19T14:28:53Z</time>
      </trkpt>
      <trkpt lat="44.27986" lon="5.59947">
        <ele>939</ele>
        <time>2019-03-19T14:28:54Z</time>
      </trkpt>
      <trkpt lat="44.27985" lon="5.59949">
        <ele>939</ele>
        <time>2019-03-19T14:28:55Z</time>
      </trkpt>
      <trkpt lat="44.27985" lon="5.59952">
        <ele>939</ele>
        <time>2019-03-19T14:28:56Z</time>
      </trkpt>
      <trkpt lat="44.27985" lon="5.59955">
        <ele>939</ele>
        <time>2019-03-19T14:28:57Z</time>
      </trkpt>
      <trkpt lat="44.27984" lon="5.59958">
        <ele>939</ele>
        <time>2019-03-19T14:28:58Z</time>
      </trkpt>
      <trkpt lat="44.27983" lon="5.59961">
        <ele>939</ele>
        <time>2019-03-19T14:28:59Z</time>
      </trkpt>
      <trkpt lat="44.27982" lon="5.59964">
        <ele>939</ele>
        <time>2019-03-19T14:29:00Z</time>
      </trkpt>
      <trkpt lat="44.27982" lon="5.59967">
        <ele>939</ele>
        <time>2019-03-19T14:29:01Z</time>
      </trkpt>
      <trkpt lat="44.27982" lon="5.59971">
        <ele>939</ele>
        <time>2019-03-19T14:29:02Z</time>
      </trkpt>
      <trkpt lat="44.27982" lon="5.59974">
        <ele>939</ele>
        <time>2019-03-19T14:29:03Z</time>
      </trkpt>
      <trkpt lat="44.27981" lon="5.59977">
        <ele>939</ele>
        <time>2019-03-19T14:29:04Z</time>
      </trkpt>
      <trkpt lat="44.2798" lon="5.5998">
        <ele>940</ele>
        <time>2019-03-19T14:29:05Z</time>
      </trkpt>
      <trkpt lat="44.2798" lon="5.59983">
        <ele>940</ele>
        <time>2019-03-19T14:29:06Z</time>
      </trkpt>
      <trkpt lat="44.27979" lon="5.59986">
        <ele>940</ele>
        <time>2019-03-19T14:29:07Z</time>
      </trkpt>
      <trkpt lat="44.27979" lon="5.59989">
        <ele>940</ele>
        <time>2019-03-19T14:29:08Z</time>
      </trkpt>
      <trkpt lat="44.27978" lon="5.59992">
        <ele>941</ele>
        <time>2019-03-19T14:29:09Z</time>
      </trkpt>
      <trkpt lat="44.27977" lon="5.59995">
        <ele>941</ele>
        <time>2019-03-19T14:29:10Z</time>
      </trkpt>
      <trkpt lat="44.27977" lon="5.59998">
        <ele>941</ele>
        <time>2019-03-19T14:29:11Z</time>
      </trkpt>
      <trkpt lat="44.27976" lon="5.60001">
        <ele>941</ele>
        <time>2019-03-19T14:29:12Z</time>
      </trkpt>
      <trkpt lat="44.27975" lon="5.60003">
        <ele>941</ele>
        <time>2019-03-19T14:29:13Z</time>
      </trkpt>
      <trkpt lat="44.27974" lon="5.60006">
        <ele>941</ele>
        <time>2019-03-19T14:29:14Z</time>
      </trkpt>
      <trkpt lat="44.27974" lon="5.60009">
        <ele>942</ele>
        <time>2019-03-19T14:29:15Z</time>
      </trkpt>
      <trkpt lat="44.27973" lon="5.60012">
        <ele>942</ele>
        <time>2019-03-19T14:29:16Z</time>
      </trkpt>
      <trkpt lat="44.27972" lon="5.60015">
        <ele>942</ele>
        <time>2019-03-19T14:29:17Z</time>
      </trkpt>
      <trkpt lat="44.27971" lon="5.60018">
        <ele>942</ele>
        <time>2019-03-19T14:29:18Z</time>
      </trkpt>
      <trkpt lat="44.27969" lon="5.6002">
        <ele>942</ele>
        <time>2019-03-19T14:29:19Z</time>
      </trkpt>
      <trkpt lat="44.27967" lon="5.60023">
        <ele>942</ele>
        <time>2019-03-19T14:29:20Z</time>
      </trkpt>
      <trkpt lat="44.27965" lon="5.60027">
        <ele>943</ele>
        <time>2019-03-19T14:29:21Z</time>
      </trkpt>
      <trkpt lat="44.27963" lon="5.6003">
        <ele>943</ele>
        <time>2019-03-19T14:29:22Z</time>
      </trkpt>
      <trkpt lat="44.27961" lon="5.60033">
        <ele>943</ele>
        <time>2019-03-19T14:29:23Z</time>
      </trkpt>
      <trkpt lat="44.27959" lon="5.60035">
        <ele>943</ele>
        <time>2019-03-19T14:29:24Z</time>
      </trkpt>
      <trkpt lat="44.27957" lon="5.60036">
        <ele>943</ele>
        <time>2019-03-19T14:29:25Z</time>
      </trkpt>
      <trkpt lat="44.27954" lon="5.60037">
        <ele>943</ele>
        <time>2019-03-19T14:29:26Z</time>
      </trkpt>
      <trkpt lat="44.27952" lon="5.60038">
        <ele>944</ele>
        <time>2019-03-19T14:29:27Z</time>
      </trkpt>
      <trkpt lat="44.27949" lon="5.60039">
        <ele>944</ele>
        <time>2019-03-19T14:29:28Z</time>
      </trkpt>
      <trkpt lat="44.27947" lon="5.6004">
        <ele>944</ele>
        <time>2019-03-19T14:29:29Z</time>
      </trkpt>
      <trkpt lat="44.27944" lon="5.6004">
        <ele>944</ele>
        <time>2019-03-19T14:29:30Z</time>
      </trkpt>
      <trkpt lat="44.27942" lon="5.60041">
        <ele>944</ele>
        <time>2019-03-19T14:29:31Z</time>
      </trkpt>
      <trkpt lat="44.27939" lon="5.60042">
        <ele>944</ele>
        <time>2019-03-19T14:29:32Z</time>
      </trkpt>
      <trkpt lat="44.27937" lon="5.60043">
        <ele>945</ele>
        <time>2019-03-19T14:29:33Z</time>
      </trkpt>
      <trkpt lat="44.27935" lon="5.60044">
        <ele>945</ele>
        <time>2019-03-19T14:29:34Z</time>
      </trkpt>
      <trkpt lat="44.27933" lon="5.60045">
        <ele>945</ele>
        <time>2019-03-19T14:29:35Z</time>
      </trkpt>
      <trkpt lat="44.27931" lon="5.60046">
        <ele>945</ele>
        <time>2019-03-19T14:29:36Z</time>
      </trkpt>
      <trkpt lat="44.27929" lon="5.60047">
        <ele>945</ele>
        <time>2019-03-19T14:29:37Z</time>
      </trkpt>
      <trkpt lat="44.27927" lon="5.60049">
        <ele>946</ele>
        <time>2019-03-19T14:29:38Z</time>
      </trkpt>
      <trkpt lat="44.27925" lon="5.6005">
        <ele>946</ele>
        <time>2019-03-19T14:29:39Z</time>
      </trkpt>
      <trkpt lat="44.27923" lon="5.60051">
        <ele>946</ele>
        <time>2019-03-19T14:29:40Z</time>
      </trkpt>
      <trkpt lat="44.27921" lon="5.60051">
        <ele>946</ele>
        <time>2019-03-19T14:29:41Z</time>
      </trkpt>
      <trkpt lat="44.27919" lon="5.60052">
        <ele>947</ele>
        <time>2019-03-19T14:29:42Z</time>
      </trkpt>
      <trkpt lat="44.27917" lon="5.60054">
        <ele>947</ele>
        <time>2019-03-19T14:29:43Z</time>
      </trkpt>
      <trkpt lat="44.27915" lon="5.60055">
        <ele>947</ele>
        <time>2019-03-19T14:29:44Z</time>
      </trkpt>
      <trkpt lat="44.27913" lon="5.60057">
        <ele>947</ele>
        <time>2019-03-19T14:29:45Z</time>
      </trkpt>
      <trkpt lat="44.27911" lon="5.60058">
        <ele>948</ele>
        <time>2019-03-19T14:29:46Z</time>
      </trkpt>
      <trkpt lat="44.27909" lon="5.60059">
        <ele>948</ele>
        <time>2019-03-19T14:29:47Z</time>
      </trkpt>
      <trkpt lat="44.27907" lon="5.6006">
        <ele>948</ele>
        <time>2019-03-19T14:29:48Z</time>
      </trkpt>
      <trkpt lat="44.27905" lon="5.60061">
        <ele>948</ele>
        <time>2019-03-19T14:29:49Z</time>
      </trkpt>
      <trkpt lat="44.27903" lon="5.60063">
        <ele>948</ele>
        <time>2019-03-19T14:29:50Z</time>
      </trkpt>
      <trkpt lat="44.27901" lon="5.60064">
        <ele>948</ele>
        <time>2019-03-19T14:29:51Z</time>
      </trkpt>
      <trkpt lat="44.27899" lon="5.60066">
        <ele>949</ele>
        <time>2019-03-19T14:29:52Z</time>
      </trkpt>
      <trkpt lat="44.27897" lon="5.60068">
        <ele>949</ele>
        <time>2019-03-19T14:29:53Z</time>
      </trkpt>
      <trkpt lat="44.27895" lon="5.60069">
        <ele>949</ele>
        <time>2019-03-19T14:29:54Z</time>
      </trkpt>
      <trkpt lat="44.27893" lon="5.60071">
        <ele>949</ele>
        <time>2019-03-19T14:29:55Z</time>
      </trkpt>
      <trkpt lat="44.27891" lon="5.60073">
        <ele>949</ele>
        <time>2019-03-19T14:29:56Z</time>
      </trkpt>
      <trkpt lat="44.27889" lon="5.60074">
        <ele>949</ele>
        <time>2019-03-19T14:29:57Z</time>
      </trkpt>
      <trkpt lat="44.27887" lon="5.60076">
        <ele>949</ele>
        <time>2019-03-19T14:29:58Z</time>
      </trkpt>
      <trkpt lat="44.27885" lon="5.60078">
        <ele>950</ele>
        <time>2019-03-19T14:29:59Z</time>
      </trkpt>
      <trkpt lat="44.27884" lon="5.6008">
        <ele>950</ele>
        <time>2019-03-19T14:30:00Z</time>
      </trkpt>
      <trkpt lat="44.27882" lon="5.60082">
        <ele>950</ele>
        <time>2019-03-19T14:30:01Z</time>
      </trkpt>
      <trkpt lat="44.27879" lon="5.60084">
        <ele>950</ele>
        <time>2019-03-19T14:30:02Z</time>
      </trkpt>
      <trkpt lat="44.27878" lon="5.60086">
        <ele>950</ele>
        <time>2019-03-19T14:30:03Z</time>
      </trkpt>
      <trkpt lat="44.27876" lon="5.60088">
        <ele>950</ele>
        <time>2019-03-19T14:30:04Z</time>
      </trkpt>
      <trkpt lat="44.27874" lon="5.6009">
        <ele>951</ele>
        <time>2019-03-19T14:30:05Z</time>
      </trkpt>
      <trkpt lat="44.27872" lon="5.60092">
        <ele>951</ele>
        <time>2019-03-19T14:30:06Z</time>
      </trkpt>
      <trkpt lat="44.2787" lon="5.60094">
        <ele>951</ele>
        <time>2019-03-19T14:30:07Z</time>
      </trkpt>
      <trkpt lat="44.27868" lon="5.60097">
        <ele>951</ele>
        <time>2019-03-19T14:30:08Z</time>
      </trkpt>
      <trkpt lat="44.27866" lon="5.60099">
        <ele>951</ele>
        <time>2019-03-19T14:30:09Z</time>
      </trkpt>
      <trkpt lat="44.27864" lon="5.60101">
        <ele>951</ele>
        <time>2019-03-19T14:30:10Z</time>
      </trkpt>
      <trkpt lat="44.27863" lon="5.60103">
        <ele>952</ele>
        <time>2019-03-19T14:30:11Z</time>
      </trkpt>
      <trkpt lat="44.2786" lon="5.60104">
        <ele>952</ele>
        <time>2019-03-19T14:30:12Z</time>
      </trkpt>
      <trkpt lat="44.27858" lon="5.60106">
        <ele>952</ele>
        <time>2019-03-19T14:30:13Z</time>
      </trkpt>
      <trkpt lat="44.27856" lon="5.60108">
        <ele>952</ele>
        <time>2019-03-19T14:30:14Z</time>
      </trkpt>
      <trkpt lat="44.27855" lon="5.60111">
        <ele>952</ele>
        <time>2019-03-19T14:30:15Z</time>
      </trkpt>
      <trkpt lat="44.27853" lon="5.60113">
        <ele>953</ele>
        <time>2019-03-19T14:30:16Z</time>
      </trkpt>
      <trkpt lat="44.27851" lon="5.60115">
        <ele>953</ele>
        <time>2019-03-19T14:30:17Z</time>
      </trkpt>
      <trkpt lat="44.27849" lon="5.60117">
        <ele>953</ele>
        <time>2019-03-19T14:30:18Z</time>
      </trkpt>
      <trkpt lat="44.27847" lon="5.60119">
        <ele>954</ele>
        <time>2019-03-19T14:30:19Z</time>
      </trkpt>
      <trkpt lat="44.27845" lon="5.60121">
        <ele>954</ele>
        <time>2019-03-19T14:30:20Z</time>
      </trkpt>
      <trkpt lat="44.27842" lon="5.60123">
        <ele>954</ele>
        <time>2019-03-19T14:30:21Z</time>
      </trkpt>
      <trkpt lat="44.27841" lon="5.60125">
        <ele>954</ele>
        <time>2019-03-19T14:30:22Z</time>
      </trkpt>
      <trkpt lat="44.27839" lon="5.60128">
        <ele>955</ele>
        <time>2019-03-19T14:30:23Z</time>
      </trkpt>
      <trkpt lat="44.27837" lon="5.6013">
        <ele>955</ele>
        <time>2019-03-19T14:30:24Z</time>
      </trkpt>
      <trkpt lat="44.27834" lon="5.60131">
        <ele>955</ele>
        <time>2019-03-19T14:30:25Z</time>
      </trkpt>
      <trkpt lat="44.27832" lon="5.60132">
        <ele>955</ele>
        <time>2019-03-19T14:30:26Z</time>
      </trkpt>
      <trkpt lat="44.27829" lon="5.60133">
        <ele>955</ele>
        <time>2019-03-19T14:30:27Z</time>
      </trkpt>
      <trkpt lat="44.27827" lon="5.60134">
        <ele>956</ele>
        <time>2019-03-19T14:30:28Z</time>
      </trkpt>
      <trkpt lat="44.27825" lon="5.60136">
        <ele>956</ele>
        <time>2019-03-19T14:30:29Z</time>
      </trkpt>
      <trkpt lat="44.27822" lon="5.60138">
        <ele>956</ele>
        <time>2019-03-19T14:30:30Z</time>
      </trkpt>
      <trkpt lat="44.2782" lon="5.60139">
        <ele>956</ele>
        <time>2019-03-19T14:30:31Z</time>
      </trkpt>
      <trkpt lat="44.27818" lon="5.6014">
        <ele>957</ele>
        <time>2019-03-19T14:30:32Z</time>
      </trkpt>
      <trkpt lat="44.27815" lon="5.6014">
        <ele>957</ele>
        <time>2019-03-19T14:30:33Z</time>
      </trkpt>
      <trkpt lat="44.27812" lon="5.60141">
        <ele>957</ele>
        <time>2019-03-19T14:30:34Z</time>
      </trkpt>
      <trkpt lat="44.27809" lon="5.60141">
        <ele>957</ele>
        <time>2019-03-19T14:30:35Z</time>
      </trkpt>
      <trkpt lat="44.27806" lon="5.6014">
        <ele>957</ele>
        <time>2019-03-19T14:30:36Z</time>
      </trkpt>
      <trkpt lat="44.27803" lon="5.6014">
        <ele>957</ele>
        <time>2019-03-19T14:30:37Z</time>
      </trkpt>
      <trkpt lat="44.27801" lon="5.6014">
        <ele>957</ele>
        <time>2019-03-19T14:30:38Z</time>
      </trkpt>
      <trkpt lat="44.27798" lon="5.6014">
        <ele>957</ele>
        <time>2019-03-19T14:30:39Z</time>
      </trkpt>
      <trkpt lat="44.27796" lon="5.6014">
        <ele>957</ele>
        <time>2019-03-19T14:30:40Z</time>
      </trkpt>
      <trkpt lat="44.27793" lon="5.60139">
        <ele>957</ele>
        <time>2019-03-19T14:30:41Z</time>
      </trkpt>
      <trkpt lat="44.27791" lon="5.60139">
        <ele>957</ele>
        <time>2019-03-19T14:30:42Z</time>
      </trkpt>
      <trkpt lat="44.27788" lon="5.60138">
        <ele>958</ele>
        <time>2019-03-19T14:30:43Z</time>
      </trkpt>
      <trkpt lat="44.27785" lon="5.60137">
        <ele>958</ele>
        <time>2019-03-19T14:30:44Z</time>
      </trkpt>
      <trkpt lat="44.27783" lon="5.60136">
        <ele>958</ele>
        <time>2019-03-19T14:30:45Z</time>
      </trkpt>
      <trkpt lat="44.2778" lon="5.60135">
        <ele>958</ele>
        <time>2019-03-19T14:30:46Z</time>
      </trkpt>
      <trkpt lat="44.27778" lon="5.60134">
        <ele>958</ele>
        <time>2019-03-19T14:30:47Z</time>
      </trkpt>
      <trkpt lat="44.27775" lon="5.60134">
        <ele>958</ele>
        <time>2019-03-19T14:30:48Z</time>
      </trkpt>
      <trkpt lat="44.27773" lon="5.60134">
        <ele>958</ele>
        <time>2019-03-19T14:30:49Z</time>
      </trkpt>
      <trkpt lat="44.27771" lon="5.60134">
        <ele>958</ele>
        <time>2019-03-19T14:30:50Z</time>
      </trkpt>
      <trkpt lat="44.27768" lon="5.60134">
        <ele>958</ele>
        <time>2019-03-19T14:30:51Z</time>
      </trkpt>
      <trkpt lat="44.27766" lon="5.60134">
        <ele>959</ele>
        <time>2019-03-19T14:30:52Z</time>
      </trkpt>
      <trkpt lat="44.27763" lon="5.60135">
        <ele>959</ele>
        <time>2019-03-19T14:30:53Z</time>
      </trkpt>
      <trkpt lat="44.27761" lon="5.60135">
        <ele>959</ele>
        <time>2019-03-19T14:30:54Z</time>
      </trkpt>
      <trkpt lat="44.27758" lon="5.60136">
        <ele>959</ele>
        <time>2019-03-19T14:30:55Z</time>
      </trkpt>
      <trkpt lat="44.27756" lon="5.60138">
        <ele>959</ele>
        <time>2019-03-19T14:30:56Z</time>
      </trkpt>
      <trkpt lat="44.27754" lon="5.60139">
        <ele>960</ele>
        <time>2019-03-19T14:30:57Z</time>
      </trkpt>
      <trkpt lat="44.27752" lon="5.6014">
        <ele>960</ele>
        <time>2019-03-19T14:30:58Z</time>
      </trkpt>
      <trkpt lat="44.2775" lon="5.60142">
        <ele>960</ele>
        <time>2019-03-19T14:30:59Z</time>
      </trkpt>
      <trkpt lat="44.27748" lon="5.60143">
        <ele>960</ele>
        <time>2019-03-19T14:31:00Z</time>
      </trkpt>
      <trkpt lat="44.27747" lon="5.60144">
        <ele>961</ele>
        <time>2019-03-19T14:31:01Z</time>
      </trkpt>
      <trkpt lat="44.27745" lon="5.60146">
        <ele>961</ele>
        <time>2019-03-19T14:31:02Z</time>
      </trkpt>
      <trkpt lat="44.27743" lon="5.60147">
        <ele>961</ele>
        <time>2019-03-19T14:31:03Z</time>
      </trkpt>
      <trkpt lat="44.27741" lon="5.60149">
        <ele>961</ele>
        <time>2019-03-19T14:31:04Z</time>
      </trkpt>
      <trkpt lat="44.27739" lon="5.6015">
        <ele>962</ele>
        <time>2019-03-19T14:31:05Z</time>
      </trkpt>
      <trkpt lat="44.27737" lon="5.60152">
        <ele>962</ele>
        <time>2019-03-19T14:31:06Z</time>
      </trkpt>
      <trkpt lat="44.27736" lon="5.60154">
        <ele>962</ele>
        <time>2019-03-19T14:31:07Z</time>
      </trkpt>
      <trkpt lat="44.27734" lon="5.60155">
        <ele>962</ele>
        <time>2019-03-19T14:31:08Z</time>
      </trkpt>
      <trkpt lat="44.27732" lon="5.60156">
        <ele>962</ele>
        <time>2019-03-19T14:31:09Z</time>
      </trkpt>
      <trkpt lat="44.2773" lon="5.60158">
        <ele>963</ele>
        <time>2019-03-19T14:31:10Z</time>
      </trkpt>
      <trkpt lat="44.27728" lon="5.6016">
        <ele>963</ele>
        <time>2019-03-19T14:31:11Z</time>
      </trkpt>
      <trkpt lat="44.27726" lon="5.60161">
        <ele>963</ele>
        <time>2019-03-19T14:31:12Z</time>
      </trkpt>
      <trkpt lat="44.27724" lon="5.60163">
        <ele>963</ele>
        <time>2019-03-19T14:31:13Z</time>
      </trkpt>
      <trkpt lat="44.27722" lon="5.60165">
        <ele>963</ele>
        <time>2019-03-19T14:31:14Z</time>
      </trkpt>
      <trkpt lat="44.2772" lon="5.60166">
        <ele>963</ele>
        <time>2019-03-19T14:31:15Z</time>
      </trkpt>
      <trkpt lat="44.27718" lon="5.60168">
        <ele>963</ele>
        <time>2019-03-19T14:31:16Z</time>
      </trkpt>
      <trkpt lat="44.27716" lon="5.6017">
        <ele>963</ele>
        <time>2019-03-19T14:31:17Z</time>
      </trkpt>
      <trkpt lat="44.27714" lon="5.60171">
        <ele>963</ele>
        <time>2019-03-19T14:31:18Z</time>
      </trkpt>
      <trkpt lat="44.27712" lon="5.60173">
        <ele>963</ele>
        <time>2019-03-19T14:31:19Z</time>
      </trkpt>
      <trkpt lat="44.2771" lon="5.60175">
        <ele>963</ele>
        <time>2019-03-19T14:31:20Z</time>
      </trkpt>
      <trkpt lat="44.27708" lon="5.60177">
        <ele>964</ele>
        <time>2019-03-19T14:31:21Z</time>
      </trkpt>
      <trkpt lat="44.27707" lon="5.60179">
        <ele>964</ele>
        <time>2019-03-19T14:31:22Z</time>
      </trkpt>
      <trkpt lat="44.27705" lon="5.60182">
        <ele>964</ele>
        <time>2019-03-19T14:31:23Z</time>
      </trkpt>
      <trkpt lat="44.27704" lon="5.60185">
        <ele>964</ele>
        <time>2019-03-19T14:31:24Z</time>
      </trkpt>
      <trkpt lat="44.27702" lon="5.60188">
        <ele>964</ele>
        <time>2019-03-19T14:31:25Z</time>
      </trkpt>
      <trkpt lat="44.27702" lon="5.60192">
        <ele>965</ele>
        <time>2019-03-19T14:31:26Z</time>
      </trkpt>
      <trkpt lat="44.27701" lon="5.60195">
        <ele>965</ele>
        <time>2019-03-19T14:31:27Z</time>
      </trkpt>
      <trkpt lat="44.27702" lon="5.60198">
        <ele>965</ele>
        <time>2019-03-19T14:31:28Z</time>
      </trkpt>
      <trkpt lat="44.27702" lon="5.60202">
        <ele>965</ele>
        <time>2019-03-19T14:31:29Z</time>
      </trkpt>
      <trkpt lat="44.27703" lon="5.60205">
        <ele>965</ele>
        <time>2019-03-19T14:31:30Z</time>
      </trkpt>
      <trkpt lat="44.27704" lon="5.60208">
        <ele>965</ele>
        <time>2019-03-19T14:31:31Z</time>
      </trkpt>
      <trkpt lat="44.27706" lon="5.6021">
        <ele>965</ele>
        <time>2019-03-19T14:31:32Z</time>
      </trkpt>
      <trkpt lat="44.27707" lon="5.60213">
        <ele>966</ele>
        <time>2019-03-19T14:31:33Z</time>
      </trkpt>
      <trkpt lat="44.27709" lon="5.60215">
        <ele>966</ele>
        <time>2019-03-19T14:31:34Z</time>
      </trkpt>
      <trkpt lat="44.2771" lon="5.60218">
        <ele>966</ele>
        <time>2019-03-19T14:31:35Z</time>
      </trkpt>
      <trkpt lat="44.27712" lon="5.6022">
        <ele>966</ele>
        <time>2019-03-19T14:31:36Z</time>
      </trkpt>
      <trkpt lat="44.27714" lon="5.60222">
        <ele>966</ele>
        <time>2019-03-19T14:31:37Z</time>
      </trkpt>
      <trkpt lat="44.27716" lon="5.60224">
        <ele>966</ele>
        <time>2019-03-19T14:31:38Z</time>
      </trkpt>
      <trkpt lat="44.27718" lon="5.60226">
        <ele>966</ele>
        <time>2019-03-19T14:31:39Z</time>
      </trkpt>
      <trkpt lat="44.2772" lon="5.60228">
        <ele>966</ele>
        <time>2019-03-19T14:31:40Z</time>
      </trkpt>
      <trkpt lat="44.27722" lon="5.6023">
        <ele>966</ele>
        <time>2019-03-19T14:31:41Z</time>
      </trkpt>
      <trkpt lat="44.27724" lon="5.60231">
        <ele>967</ele>
        <time>2019-03-19T14:31:42Z</time>
      </trkpt>
      <trkpt lat="44.27727" lon="5.60233">
        <ele>967</ele>
        <time>2019-03-19T14:31:43Z</time>
      </trkpt>
      <trkpt lat="44.27729" lon="5.60234">
        <ele>967</ele>
        <time>2019-03-19T14:31:44Z</time>
      </trkpt>
      <trkpt lat="44.27731" lon="5.60236">
        <ele>967</ele>
        <time>2019-03-19T14:31:45Z</time>
      </trkpt>
      <trkpt lat="44.27733" lon="5.60238">
        <ele>967</ele>
        <time>2019-03-19T14:31:46Z</time>
      </trkpt>
      <trkpt lat="44.27736" lon="5.6024">
        <ele>967</ele>
        <time>2019-03-19T14:31:47Z</time>
      </trkpt>
      <trkpt lat="44.27738" lon="5.60243">
        <ele>967</ele>
        <time>2019-03-19T14:31:48Z</time>
      </trkpt>
      <trkpt lat="44.27739" lon="5.60246">
        <ele>967</ele>
        <time>2019-03-19T14:31:49Z</time>
      </trkpt>
      <trkpt lat="44.2774" lon="5.60249">
        <ele>967</ele>
        <time>2019-03-19T14:31:50Z</time>
      </trkpt>
      <trkpt lat="44.27741" lon="5.60253">
        <ele>967</ele>
        <time>2019-03-19T14:31:51Z</time>
      </trkpt>
      <trkpt lat="44.27741" lon="5.60256">
        <ele>967</ele>
        <time>2019-03-19T14:31:52Z</time>
      </trkpt>
      <trkpt lat="44.27741" lon="5.60261">
        <ele>968</ele>
        <time>2019-03-19T14:31:53Z</time>
      </trkpt>
      <trkpt lat="44.2774" lon="5.60264">
        <ele>968</ele>
        <time>2019-03-19T14:31:54Z</time>
      </trkpt>
      <trkpt lat="44.27738" lon="5.60268">
        <ele>968</ele>
        <time>2019-03-19T14:31:55Z</time>
      </trkpt>
      <trkpt lat="44.27736" lon="5.6027">
        <ele>968</ele>
        <time>2019-03-19T14:31:56Z</time>
      </trkpt>
      <trkpt lat="44.27734" lon="5.60272">
        <ele>968</ele>
        <time>2019-03-19T14:31:57Z</time>
      </trkpt>
      <trkpt lat="44.27731" lon="5.60273">
        <ele>968</ele>
        <time>2019-03-19T14:31:58Z</time>
      </trkpt>
      <trkpt lat="44.27729" lon="5.60275">
        <ele>969</ele>
        <time>2019-03-19T14:31:59Z</time>
      </trkpt>
      <trkpt lat="44.27727" lon="5.60277">
        <ele>969</ele>
        <time>2019-03-19T14:32:00Z</time>
      </trkpt>
      <trkpt lat="44.27724" lon="5.60279">
        <ele>969</ele>
        <time>2019-03-19T14:32:01Z</time>
      </trkpt>
      <trkpt lat="44.27722" lon="5.60281">
        <ele>969</ele>
        <time>2019-03-19T14:32:02Z</time>
      </trkpt>
      <trkpt lat="44.27721" lon="5.60284">
        <ele>969</ele>
        <time>2019-03-19T14:32:03Z</time>
      </trkpt>
      <trkpt lat="44.27719" lon="5.60287">
        <ele>969</ele>
        <time>2019-03-19T14:32:04Z</time>
      </trkpt>
      <trkpt lat="44.27718" lon="5.6029">
        <ele>969</ele>
        <time>2019-03-19T14:32:05Z</time>
      </trkpt>
      <trkpt lat="44.27717" lon="5.60293">
        <ele>970</ele>
        <time>2019-03-19T14:32:06Z</time>
      </trkpt>
      <trkpt lat="44.27716" lon="5.60296">
        <ele>970</ele>
        <time>2019-03-19T14:32:07Z</time>
      </trkpt>
      <trkpt lat="44.27715" lon="5.603">
        <ele>970</ele>
        <time>2019-03-19T14:32:08Z</time>
      </trkpt>
      <trkpt lat="44.27715" lon="5.60303">
        <ele>970</ele>
        <time>2019-03-19T14:32:09Z</time>
      </trkpt>
      <trkpt lat="44.27715" lon="5.60306">
        <ele>971</ele>
        <time>2019-03-19T14:32:10Z</time>
      </trkpt>
      <trkpt lat="44.27715" lon="5.60309">
        <ele>971</ele>
        <time>2019-03-19T14:32:11Z</time>
      </trkpt>
      <trkpt lat="44.27716" lon="5.60312">
        <ele>971</ele>
        <time>2019-03-19T14:32:12Z</time>
      </trkpt>
      <trkpt lat="44.27716" lon="5.60315">
        <ele>971</ele>
        <time>2019-03-19T14:32:13Z</time>
      </trkpt>
      <trkpt lat="44.27716" lon="5.60319">
        <ele>971</ele>
        <time>2019-03-19T14:32:14Z</time>
      </trkpt>
      <trkpt lat="44.27716" lon="5.60322">
        <ele>971</ele>
        <time>2019-03-19T14:32:15Z</time>
      </trkpt>
      <trkpt lat="44.27716" lon="5.60325">
        <ele>971</ele>
        <time>2019-03-19T14:32:16Z</time>
      </trkpt>
      <trkpt lat="44.27717" lon="5.60328">
        <ele>972</ele>
        <time>2019-03-19T14:32:17Z</time>
      </trkpt>
      <trkpt lat="44.27717" lon="5.60331">
        <ele>972</ele>
        <time>2019-03-19T14:32:18Z</time>
      </trkpt>
      <trkpt lat="44.27717" lon="5.60334">
        <ele>972</ele>
        <time>2019-03-19T14:32:19Z</time>
      </trkpt>
      <trkpt lat="44.27718" lon="5.60338">
        <ele>972</ele>
        <time>2019-03-19T14:32:20Z</time>
      </trkpt>
      <trkpt lat="44.27718" lon="5.60341">
        <ele>972</ele>
        <time>2019-03-19T14:32:21Z</time>
      </trkpt>
      <trkpt lat="44.27718" lon="5.60344">
        <ele>972</ele>
        <time>2019-03-19T14:32:22Z</time>
      </trkpt>
      <trkpt lat="44.27718" lon="5.60347">
        <ele>972</ele>
        <time>2019-03-19T14:32:23Z</time>
      </trkpt>
      <trkpt lat="44.27719" lon="5.60351">
        <ele>973</ele>
        <time>2019-03-19T14:32:24Z</time>
      </trkpt>
      <trkpt lat="44.27719" lon="5.60354">
        <ele>973</ele>
        <time>2019-03-19T14:32:25Z</time>
      </trkpt>
      <trkpt lat="44.27719" lon="5.60357">
        <ele>973</ele>
        <time>2019-03-19T14:32:26Z</time>
      </trkpt>
      <trkpt lat="44.27719" lon="5.6036">
        <ele>973</ele>
        <time>2019-03-19T14:32:27Z</time>
      </trkpt>
      <trkpt lat="44.27719" lon="5.60363">
        <ele>973</ele>
        <time>2019-03-19T14:32:28Z</time>
      </trkpt>
      <trkpt lat="44.27719" lon="5.60366">
        <ele>973</ele>
        <time>2019-03-19T14:32:29Z</time>
      </trkpt>
      <trkpt lat="44.27719" lon="5.60369">
        <ele>973</ele>
        <time>2019-03-19T14:32:30Z</time>
      </trkpt>
      <trkpt lat="44.27719" lon="5.60372">
        <ele>974</ele>
        <time>2019-03-19T14:32:31Z</time>
      </trkpt>
      <trkpt lat="44.27719" lon="5.60376">
        <ele>974</ele>
        <time>2019-03-19T14:32:32Z</time>
      </trkpt>
      <trkpt lat="44.27719" lon="5.60379">
        <ele>974</ele>
        <time>2019-03-19T14:32:33Z</time>
      </trkpt>
      <trkpt lat="44.27719" lon="5.60382">
        <ele>974</ele>
        <time>2019-03-19T14:32:34Z</time>
      </trkpt>
      <trkpt lat="44.27719" lon="5.60385">
        <ele>974</ele>
        <time>2019-03-19T14:32:35Z</time>
      </trkpt>
      <trkpt lat="44.27719" lon="5.60389">
        <ele>974</ele>
        <time>2019-03-19T14:32:36Z</time>
      </trkpt>
      <trkpt lat="44.27719" lon="5.60392">
        <ele>974</ele>
        <time>2019-03-19T14:32:37Z</time>
      </trkpt>
      <trkpt lat="44.27719" lon="5.60395">
        <ele>975</ele>
        <time>2019-03-19T14:32:38Z</time>
      </trkpt>
      <trkpt lat="44.27719" lon="5.60398">
        <ele>975</ele>
        <time>2019-03-19T14:32:39Z</time>
      </trkpt>
      <trkpt lat="44.27719" lon="5.60402">
        <ele>975</ele>
        <time>2019-03-19T14:32:40Z</time>
      </trkpt>
      <trkpt lat="44.27718" lon="5.60405">
        <ele>975</ele>
        <time>2019-03-19T14:32:41Z</time>
      </trkpt>
      <trkpt lat="44.27718" lon="5.60408">
        <ele>975</ele>
        <time>2019-03-19T14:32:42Z</time>
      </trkpt>
      <trkpt lat="44.27718" lon="5.60411">
        <ele>975</ele>
        <time>2019-03-19T14:32:43Z</time>
      </trkpt>
      <trkpt lat="44.27718" lon="5.60415">
        <ele>975</ele>
        <time>2019-03-19T14:32:44Z</time>
      </trkpt>
      <trkpt lat="44.27717" lon="5.60418">
        <ele>976</ele>
        <time>2019-03-19T14:32:45Z</time>
      </trkpt>
      <trkpt lat="44.27716" lon="5.60421">
        <ele>976</ele>
        <time>2019-03-19T14:32:46Z</time>
      </trkpt>
      <trkpt lat="44.27716" lon="5.60424">
        <ele>976</ele>
        <time>2019-03-19T14:32:47Z</time>
      </trkpt>
      <trkpt lat="44.27715" lon="5.60427">
        <ele>976</ele>
        <time>2019-03-19T14:32:48Z</time>
      </trkpt>
      <trkpt lat="44.27713" lon="5.6043">
        <ele>976</ele>
        <time>2019-03-19T14:32:49Z</time>
      </trkpt>
      <trkpt lat="44.27713" lon="5.60433">
        <ele>976</ele>
        <time>2019-03-19T14:32:50Z</time>
      </trkpt>
      <trkpt lat="44.27711" lon="5.60436">
        <ele>977</ele>
        <time>2019-03-19T14:32:51Z</time>
      </trkpt>
      <trkpt lat="44.2771" lon="5.60439">
        <ele>977</ele>
        <time>2019-03-19T14:32:52Z</time>
      </trkpt>
      <trkpt lat="44.27709" lon="5.60441">
        <ele>977</ele>
        <time>2019-03-19T14:32:53Z</time>
      </trkpt>
      <trkpt lat="44.27708" lon="5.60444">
        <ele>977</ele>
        <time>2019-03-19T14:32:54Z</time>
      </trkpt>
      <trkpt lat="44.27707" lon="5.60447">
        <ele>977</ele>
        <time>2019-03-19T14:32:55Z</time>
      </trkpt>
      <trkpt lat="44.27705" lon="5.60449">
        <ele>978</ele>
        <time>2019-03-19T14:32:56Z</time>
      </trkpt>
      <trkpt lat="44.27703" lon="5.60451">
        <ele>978</ele>
        <time>2019-03-19T14:32:57Z</time>
      </trkpt>
      <trkpt lat="44.27701" lon="5.60453">
        <ele>978</ele>
        <time>2019-03-19T14:32:58Z</time>
      </trkpt>
      <trkpt lat="44.27699" lon="5.60456">
        <ele>978</ele>
        <time>2019-03-19T14:32:59Z</time>
      </trkpt>
      <trkpt lat="44.27698" lon="5.60458">
        <ele>979</ele>
        <time>2019-03-19T14:33:00Z</time>
      </trkpt>
      <trkpt lat="44.27696" lon="5.60461">
        <ele>979</ele>
        <time>2019-03-19T14:33:01Z</time>
      </trkpt>
      <trkpt lat="44.27694" lon="5.60463">
        <ele>979</ele>
        <time>2019-03-19T14:33:02Z</time>
      </trkpt>
      <trkpt lat="44.27692" lon="5.60464">
        <ele>979</ele>
        <time>2019-03-19T14:33:03Z</time>
      </trkpt>
      <trkpt lat="44.2769" lon="5.60466">
        <ele>979</ele>
        <time>2019-03-19T14:33:04Z</time>
      </trkpt>
      <trkpt lat="44.27688" lon="5.60468">
        <ele>980</ele>
        <time>2019-03-19T14:33:05Z</time>
      </trkpt>
      <trkpt lat="44.27686" lon="5.6047">
        <ele>980</ele>
        <time>2019-03-19T14:33:06Z</time>
      </trkpt>
      <trkpt lat="44.27684" lon="5.60471">
        <ele>980</ele>
        <time>2019-03-19T14:33:07Z</time>
      </trkpt>
      <trkpt lat="44.27682" lon="5.60472">
        <ele>980</ele>
        <time>2019-03-19T14:33:08Z</time>
      </trkpt>
      <trkpt lat="44.2768" lon="5.60474">
        <ele>981</ele>
        <time>2019-03-19T14:33:09Z</time>
      </trkpt>
      <trkpt lat="44.27678" lon="5.60475">
        <ele>981</ele>
        <time>2019-03-19T14:33:10Z</time>
      </trkpt>
      <trkpt lat="44.27675" lon="5.60476">
        <ele>981</ele>
        <time>2019-03-19T14:33:11Z</time>
      </trkpt>
      <trkpt lat="44.27673" lon="5.60477">
        <ele>981</ele>
        <time>2019-03-19T14:33:12Z</time>
      </trkpt>
      <trkpt lat="44.27671" lon="5.60477">
        <ele>982</ele>
        <time>2019-03-19T14:33:13Z</time>
      </trkpt>
      <trkpt lat="44.27668" lon="5.60478">
        <ele>982</ele>
        <time>2019-03-19T14:33:14Z</time>
      </trkpt>
      <trkpt lat="44.27666" lon="5.60478">
        <ele>982</ele>
        <time>2019-03-19T14:33:15Z</time>
      </trkpt>
      <trkpt lat="44.27663" lon="5.60478">
        <ele>982</ele>
        <time>2019-03-19T14:33:16Z</time>
      </trkpt>
      <trkpt lat="44.27661" lon="5.60478">
        <ele>982</ele>
        <time>2019-03-19T14:33:17Z</time>
      </trkpt>
      <trkpt lat="44.27658" lon="5.60479">
        <ele>982</ele>
        <time>2019-03-19T14:33:18Z</time>
      </trkpt>
      <trkpt lat="44.27656" lon="5.60479">
        <ele>982</ele>
        <time>2019-03-19T14:33:19Z</time>
      </trkpt>
      <trkpt lat="44.27654" lon="5.6048">
        <ele>983</ele>
        <time>2019-03-19T14:33:20Z</time>
      </trkpt>
      <trkpt lat="44.27652" lon="5.60479">
        <ele>983</ele>
        <time>2019-03-19T14:33:21Z</time>
      </trkpt>
      <trkpt lat="44.27649" lon="5.60479">
        <ele>983</ele>
        <time>2019-03-19T14:33:22Z</time>
      </trkpt>
      <trkpt lat="44.27647" lon="5.60479">
        <ele>983</ele>
        <time>2019-03-19T14:33:23Z</time>
      </trkpt>
      <trkpt lat="44.27645" lon="5.60479">
        <ele>984</ele>
        <time>2019-03-19T14:33:24Z</time>
      </trkpt>
      <trkpt lat="44.27642" lon="5.60479">
        <ele>984</ele>
        <time>2019-03-19T14:33:25Z</time>
      </trkpt>
      <trkpt lat="44.2764" lon="5.60478">
        <ele>984</ele>
        <time>2019-03-19T14:33:26Z</time>
      </trkpt>
      <trkpt lat="44.27638" lon="5.60478">
        <ele>984</ele>
        <time>2019-03-19T14:33:27Z</time>
      </trkpt>
      <trkpt lat="44.27636" lon="5.60477">
        <ele>985</ele>
        <time>2019-03-19T14:33:28Z</time>
      </trkpt>
      <trkpt lat="44.27634" lon="5.60477">
        <ele>985</ele>
        <time>2019-03-19T14:33:29Z</time>
      </trkpt>
      <trkpt lat="44.27631" lon="5.60477">
        <ele>985</ele>
        <time>2019-03-19T14:33:30Z</time>
      </trkpt>
      <trkpt lat="44.27629" lon="5.60477">
        <ele>985</ele>
        <time>2019-03-19T14:33:31Z</time>
      </trkpt>
      <trkpt lat="44.27627" lon="5.60477">
        <ele>985</ele>
        <time>2019-03-19T14:33:32Z</time>
      </trkpt>
      <trkpt lat="44.27625" lon="5.60477">
        <ele>986</ele>
        <time>2019-03-19T14:33:33Z</time>
      </trkpt>
      <trkpt lat="44.27622" lon="5.60476">
        <ele>986</ele>
        <time>2019-03-19T14:33:34Z</time>
      </trkpt>
      <trkpt lat="44.2762" lon="5.60476">
        <ele>986</ele>
        <time>2019-03-19T14:33:35Z</time>
      </trkpt>
      <trkpt lat="44.27618" lon="5.60477">
        <ele>986</ele>
        <time>2019-03-19T14:33:36Z</time>
      </trkpt>
      <trkpt lat="44.27616" lon="5.60477">
        <ele>987</ele>
        <time>2019-03-19T14:33:37Z</time>
      </trkpt>
      <trkpt lat="44.27613" lon="5.60477">
        <ele>987</ele>
        <time>2019-03-19T14:33:38Z</time>
      </trkpt>
      <trkpt lat="44.27611" lon="5.60477">
        <ele>987</ele>
        <time>2019-03-19T14:33:39Z</time>
      </trkpt>
      <trkpt lat="44.27609" lon="5.60477">
        <ele>987</ele>
        <time>2019-03-19T14:33:40Z</time>
      </trkpt>
      <trkpt lat="44.27607" lon="5.60477">
        <ele>988</ele>
        <time>2019-03-19T14:33:41Z</time>
      </trkpt>
      <trkpt lat="44.27604" lon="5.60477">
        <ele>988</ele>
        <time>2019-03-19T14:33:42Z</time>
      </trkpt>
      <trkpt lat="44.27602" lon="5.60478">
        <ele>988</ele>
        <time>2019-03-19T14:33:43Z</time>
      </trkpt>
      <trkpt lat="44.27599" lon="5.60478">
        <ele>988</ele>
        <time>2019-03-19T14:33:44Z</time>
      </trkpt>
      <trkpt lat="44.27597" lon="5.60478">
        <ele>989</ele>
        <time>2019-03-19T14:33:45Z</time>
      </trkpt>
      <trkpt lat="44.27595" lon="5.60478">
        <ele>989</ele>
        <time>2019-03-19T14:33:46Z</time>
      </trkpt>
      <trkpt lat="44.27592" lon="5.60478">
        <ele>989</ele>
        <time>2019-03-19T14:33:47Z</time>
      </trkpt>
      <trkpt lat="44.2759" lon="5.60478">
        <ele>989</ele>
        <time>2019-03-19T14:33:48Z</time>
      </trkpt>
      <trkpt lat="44.27588" lon="5.60478">
        <ele>989</ele>
        <time>2019-03-19T14:33:49Z</time>
      </trkpt>
      <trkpt lat="44.27585" lon="5.60478">
        <ele>989</ele>
        <time>2019-03-19T14:33:50Z</time>
      </trkpt>
      <trkpt lat="44.27583" lon="5.60476">
        <ele>990</ele>
        <time>2019-03-19T14:33:51Z</time>
      </trkpt>
      <trkpt lat="44.2758" lon="5.60476">
        <ele>990</ele>
        <time>2019-03-19T14:33:52Z</time>
      </trkpt>
      <trkpt lat="44.27578" lon="5.60475">
        <ele>990</ele>
        <time>2019-03-19T14:33:53Z</time>
      </trkpt>
      <trkpt lat="44.27576" lon="5.60475">
        <ele>990</ele>
        <time>2019-03-19T14:33:54Z</time>
      </trkpt>
      <trkpt lat="44.27573" lon="5.60475">
        <ele>990</ele>
        <time>2019-03-19T14:33:55Z</time>
      </trkpt>
      <trkpt lat="44.27571" lon="5.60474">
        <ele>990</ele>
        <time>2019-03-19T14:33:56Z</time>
      </trkpt>
      <trkpt lat="44.27569" lon="5.60473">
        <ele>990</ele>
        <time>2019-03-19T14:33:57Z</time>
      </trkpt>
      <trkpt lat="44.27567" lon="5.60472">
        <ele>990</ele>
        <time>2019-03-19T14:33:58Z</time>
      </trkpt>
      <trkpt lat="44.27565" lon="5.60471">
        <ele>990</ele>
        <time>2019-03-19T14:33:59Z</time>
      </trkpt>
      <trkpt lat="44.27563" lon="5.60469">
        <ele>990</ele>
        <time>2019-03-19T14:34:00Z</time>
      </trkpt>
      <trkpt lat="44.27561" lon="5.60467">
        <ele>991</ele>
        <time>2019-03-19T14:34:01Z</time>
      </trkpt>
      <trkpt lat="44.27559" lon="5.60465">
        <ele>991</ele>
        <time>2019-03-19T14:34:02Z</time>
      </trkpt>
      <trkpt lat="44.27557" lon="5.60464">
        <ele>991</ele>
        <time>2019-03-19T14:34:03Z</time>
      </trkpt>
      <trkpt lat="44.27555" lon="5.60463">
        <ele>991</ele>
        <time>2019-03-19T14:34:04Z</time>
      </trkpt>
      <trkpt lat="44.27553" lon="5.60461">
        <ele>991</ele>
        <time>2019-03-19T14:34:05Z</time>
      </trkpt>
      <trkpt lat="44.27551" lon="5.6046">
        <ele>991</ele>
        <time>2019-03-19T14:34:06Z</time>
      </trkpt>
      <trkpt lat="44.27549" lon="5.60458">
        <ele>991</ele>
        <time>2019-03-19T14:34:07Z</time>
      </trkpt>
      <trkpt lat="44.27547" lon="5.60457">
        <ele>992</ele>
        <time>2019-03-19T14:34:08Z</time>
      </trkpt>
      <trkpt lat="44.27545" lon="5.60456">
        <ele>992</ele>
        <time>2019-03-19T14:34:09Z</time>
      </trkpt>
      <trkpt lat="44.27543" lon="5.60454">
        <ele>992</ele>
        <time>2019-03-19T14:34:10Z</time>
      </trkpt>
      <trkpt lat="44.27541" lon="5.60452">
        <ele>992</ele>
        <time>2019-03-19T14:34:11Z</time>
      </trkpt>
      <trkpt lat="44.27539" lon="5.6045">
        <ele>992</ele>
        <time>2019-03-19T14:34:12Z</time>
      </trkpt>
      <trkpt lat="44.27537" lon="5.60449">
        <ele>992</ele>
        <time>2019-03-19T14:34:13Z</time>
      </trkpt>
      <trkpt lat="44.27535" lon="5.60448">
        <ele>992</ele>
        <time>2019-03-19T14:34:14Z</time>
      </trkpt>
      <trkpt lat="44.27533" lon="5.60447">
        <ele>992</ele>
        <time>2019-03-19T14:34:15Z</time>
      </trkpt>
      <trkpt lat="44.27531" lon="5.60445">
        <ele>992</ele>
        <time>2019-03-19T14:34:16Z</time>
      </trkpt>
      <trkpt lat="44.2753" lon="5.60443">
        <ele>992</ele>
        <time>2019-03-19T14:34:17Z</time>
      </trkpt>
      <trkpt lat="44.27528" lon="5.60442">
        <ele>992</ele>
        <time>2019-03-19T14:34:18Z</time>
      </trkpt>
      <trkpt lat="44.27526" lon="5.60441">
        <ele>992</ele>
        <time>2019-03-19T14:34:19Z</time>
      </trkpt>
      <trkpt lat="44.27524" lon="5.6044">
        <ele>992</ele>
        <time>2019-03-19T14:34:20Z</time>
      </trkpt>
      <trkpt lat="44.27522" lon="5.60438">
        <ele>993</ele>
        <time>2019-03-19T14:34:21Z</time>
      </trkpt>
      <trkpt lat="44.2752" lon="5.60437">
        <ele>993</ele>
        <time>2019-03-19T14:34:22Z</time>
      </trkpt>
      <trkpt lat="44.27518" lon="5.60435">
        <ele>993</ele>
        <time>2019-03-19T14:34:23Z</time>
      </trkpt>
      <trkpt lat="44.27516" lon="5.60434">
        <ele>993</ele>
        <time>2019-03-19T14:34:24Z</time>
      </trkpt>
      <trkpt lat="44.27514" lon="5.60433">
        <ele>993</ele>
        <time>2019-03-19T14:34:25Z</time>
      </trkpt>
      <trkpt lat="44.27511" lon="5.60433">
        <ele>994</ele>
        <time>2019-03-19T14:34:26Z</time>
      </trkpt>
      <trkpt lat="44.27509" lon="5.60434">
        <ele>994</ele>
        <time>2019-03-19T14:34:27Z</time>
      </trkpt>
      <trkpt lat="44.27507" lon="5.60435">
        <ele>994</ele>
        <time>2019-03-19T14:34:28Z</time>
      </trkpt>
      <trkpt lat="44.27505" lon="5.60437">
        <ele>994</ele>
        <time>2019-03-19T14:34:29Z</time>
      </trkpt>
      <trkpt lat="44.27504" lon="5.6044">
        <ele>994</ele>
        <time>2019-03-19T14:34:30Z</time>
      </trkpt>
      <trkpt lat="44.27503" lon="5.60443">
        <ele>995</ele>
        <time>2019-03-19T14:34:31Z</time>
      </trkpt>
      <trkpt lat="44.27503" lon="5.60446">
        <ele>995</ele>
        <time>2019-03-19T14:34:32Z</time>
      </trkpt>
      <trkpt lat="44.27503" lon="5.60449">
        <ele>995</ele>
        <time>2019-03-19T14:34:33Z</time>
      </trkpt>
      <trkpt lat="44.27504" lon="5.60452">
        <ele>995</ele>
        <time>2019-03-19T14:34:34Z</time>
      </trkpt>
      <trkpt lat="44.27504" lon="5.60454">
        <ele>996</ele>
        <time>2019-03-19T14:34:35Z</time>
      </trkpt>
      <trkpt lat="44.27504" lon="5.60457">
        <ele>996</ele>
        <time>2019-03-19T14:34:36Z</time>
      </trkpt>
      <trkpt lat="44.27505" lon="5.60459">
        <ele>996</ele>
        <time>2019-03-19T14:34:37Z</time>
      </trkpt>
      <trkpt lat="44.27506" lon="5.60462">
        <ele>996</ele>
        <time>2019-03-19T14:34:38Z</time>
      </trkpt>
      <trkpt lat="44.27507" lon="5.60465">
        <ele>996</ele>
        <time>2019-03-19T14:34:39Z</time>
      </trkpt>
      <trkpt lat="44.27508" lon="5.60468">
        <ele>996</ele>
        <time>2019-03-19T14:34:40Z</time>
      </trkpt>
      <trkpt lat="44.27509" lon="5.60471">
        <ele>996</ele>
        <time>2019-03-19T14:34:41Z</time>
      </trkpt>
      <trkpt lat="44.27509" lon="5.60474">
        <ele>996</ele>
        <time>2019-03-19T14:34:42Z</time>
      </trkpt>
      <trkpt lat="44.2751" lon="5.60477">
        <ele>996</ele>
        <time>2019-03-19T14:34:43Z</time>
      </trkpt>
      <trkpt lat="44.2751" lon="5.60481">
        <ele>996</ele>
        <time>2019-03-19T14:34:44Z</time>
      </trkpt>
      <trkpt lat="44.2751" lon="5.60484">
        <ele>996</ele>
        <time>2019-03-19T14:34:45Z</time>
      </trkpt>
      <trkpt lat="44.2751" lon="5.60488">
        <ele>996</ele>
        <time>2019-03-19T14:34:46Z</time>
      </trkpt>
      <trkpt lat="44.2751" lon="5.60491">
        <ele>997</ele>
        <time>2019-03-19T14:34:47Z</time>
      </trkpt>
      <trkpt lat="44.27509" lon="5.60494">
        <ele>997</ele>
        <time>2019-03-19T14:34:48Z</time>
      </trkpt>
      <trkpt lat="44.27508" lon="5.60498">
        <ele>997</ele>
        <time>2019-03-19T14:34:49Z</time>
      </trkpt>
      <trkpt lat="44.27507" lon="5.60501">
        <ele>997</ele>
        <time>2019-03-19T14:34:50Z</time>
      </trkpt>
      <trkpt lat="44.27507" lon="5.60504">
        <ele>997</ele>
        <time>2019-03-19T14:34:51Z</time>
      </trkpt>
      <trkpt lat="44.27506" lon="5.60507">
        <ele>997</ele>
        <time>2019-03-19T14:34:52Z</time>
      </trkpt>
      <trkpt lat="44.27505" lon="5.60509">
        <ele>998</ele>
        <time>2019-03-19T14:34:53Z</time>
      </trkpt>
      <trkpt lat="44.27504" lon="5.60512">
        <ele>998</ele>
        <time>2019-03-19T14:34:54Z</time>
      </trkpt>
      <trkpt lat="44.27503" lon="5.60515">
        <ele>998</ele>
        <time>2019-03-19T14:34:55Z</time>
      </trkpt>
      <trkpt lat="44.27502" lon="5.60518">
        <ele>998</ele>
        <time>2019-03-19T14:34:56Z</time>
      </trkpt>
      <trkpt lat="44.27501" lon="5.60521">
        <ele>998</ele>
        <time>2019-03-19T14:34:57Z</time>
      </trkpt>
      <trkpt lat="44.275" lon="5.60524">
        <ele>999</ele>
        <time>2019-03-19T14:34:58Z</time>
      </trkpt>
      <trkpt lat="44.27499" lon="5.60527">
        <ele>999</ele>
        <time>2019-03-19T14:34:59Z</time>
      </trkpt>
      <trkpt lat="44.27498" lon="5.6053">
        <ele>999</ele>
        <time>2019-03-19T14:35:00Z</time>
      </trkpt>
      <trkpt lat="44.27497" lon="5.60533">
        <ele>999</ele>
        <time>2019-03-19T14:35:01Z</time>
      </trkpt>
      <trkpt lat="44.27496" lon="5.60536">
        <ele>1000</ele>
        <time>2019-03-19T14:35:02Z</time>
      </trkpt>
      <trkpt lat="44.27495" lon="5.60539">
        <ele>1000</ele>
        <time>2019-03-19T14:35:03Z</time>
      </trkpt>
      <trkpt lat="44.27494" lon="5.60542">
        <ele>1000</ele>
        <time>2019-03-19T14:35:04Z</time>
      </trkpt>
      <trkpt lat="44.27494" lon="5.60545">
        <ele>1001</ele>
        <time>2019-03-19T14:35:05Z</time>
      </trkpt>
      <trkpt lat="44.27493" lon="5.60547">
        <ele>1001</ele>
        <time>2019-03-19T14:35:06Z</time>
      </trkpt>
      <trkpt lat="44.27492" lon="5.6055">
        <ele>1001</ele>
        <time>2019-03-19T14:35:07Z</time>
      </trkpt>
      <trkpt lat="44.27491" lon="5.60553">
        <ele>1002</ele>
        <time>2019-03-19T14:35:08Z</time>
      </trkpt>
      <trkpt lat="44.27491" lon="5.60556">
        <ele>1002</ele>
        <time>2019-03-19T14:35:09Z</time>
      </trkpt>
      <trkpt lat="44.2749" lon="5.60559">
        <ele>1002</ele>
        <time>2019-03-19T14:35:10Z</time>
      </trkpt>
      <trkpt lat="44.27489" lon="5.60562">
        <ele>1002</ele>
        <time>2019-03-19T14:35:11Z</time>
      </trkpt>
      <trkpt lat="44.27489" lon="5.60565">
        <ele>1002</ele>
        <time>2019-03-19T14:35:12Z</time>
      </trkpt>
      <trkpt lat="44.27488" lon="5.60568">
        <ele>1002</ele>
        <time>2019-03-19T14:35:13Z</time>
      </trkpt>
      <trkpt lat="44.27487" lon="5.60572">
        <ele>1003</ele>
        <time>2019-03-19T14:35:14Z</time>
      </trkpt>
      <trkpt lat="44.27486" lon="5.60575">
        <ele>1003</ele>
        <time>2019-03-19T14:35:15Z</time>
      </trkpt>
      <trkpt lat="44.27486" lon="5.60578">
        <ele>1003</ele>
        <time>2019-03-19T14:35:16Z</time>
      </trkpt>
      <trkpt lat="44.27485" lon="5.60581">
        <ele>1003</ele>
        <time>2019-03-19T14:35:17Z</time>
      </trkpt>
      <trkpt lat="44.27484" lon="5.60584">
        <ele>1003</ele>
        <time>2019-03-19T14:35:18Z</time>
      </trkpt>
      <trkpt lat="44.27483" lon="5.60587">
        <ele>1003</ele>
        <time>2019-03-19T14:35:19Z</time>
      </trkpt>
      <trkpt lat="44.27482" lon="5.6059">
        <ele>1004</ele>
        <time>2019-03-19T14:35:20Z</time>
      </trkpt>
      <trkpt lat="44.27481" lon="5.60593">
        <ele>1004</ele>
        <time>2019-03-19T14:35:21Z</time>
      </trkpt>
      <trkpt lat="44.2748" lon="5.60596">
        <ele>1004</ele>
        <time>2019-03-19T14:35:22Z</time>
      </trkpt>
      <trkpt lat="44.27479" lon="5.60599">
        <ele>1004</ele>
        <time>2019-03-19T14:35:23Z</time>
      </trkpt>
      <trkpt lat="44.27477" lon="5.60602">
        <ele>1004</ele>
        <time>2019-03-19T14:35:24Z</time>
      </trkpt>
      <trkpt lat="44.27476" lon="5.60605">
        <ele>1004</ele>
        <time>2019-03-19T14:35:25Z</time>
      </trkpt>
      <trkpt lat="44.27475" lon="5.60607">
        <ele>1004</ele>
        <time>2019-03-19T14:35:26Z</time>
      </trkpt>
      <trkpt lat="44.27473" lon="5.6061">
        <ele>1005</ele>
        <time>2019-03-19T14:35:27Z</time>
      </trkpt>
      <trkpt lat="44.27471" lon="5.60612">
        <ele>1005</ele>
        <time>2019-03-19T14:35:28Z</time>
      </trkpt>
      <trkpt lat="44.27469" lon="5.60614">
        <ele>1005</ele>
        <time>2019-03-19T14:35:29Z</time>
      </trkpt>
      <trkpt lat="44.27467" lon="5.60615">
        <ele>1005</ele>
        <time>2019-03-19T14:35:30Z</time>
      </trkpt>
      <trkpt lat="44.27465" lon="5.60617">
        <ele>1006</ele>
        <time>2019-03-19T14:35:31Z</time>
      </trkpt>
      <trkpt lat="44.27464" lon="5.60619">
        <ele>1006</ele>
        <time>2019-03-19T14:35:32Z</time>
      </trkpt>
      <trkpt lat="44.27462" lon="5.60621">
        <ele>1006</ele>
        <time>2019-03-19T14:35:33Z</time>
      </trkpt>
      <trkpt lat="44.27459" lon="5.60622">
        <ele>1006</ele>
        <time>2019-03-19T14:35:34Z</time>
      </trkpt>
      <trkpt lat="44.27457" lon="5.60623">
        <ele>1007</ele>
        <time>2019-03-19T14:35:35Z</time>
      </trkpt>
      <trkpt lat="44.27455" lon="5.60624">
        <ele>1007</ele>
        <time>2019-03-19T14:35:36Z</time>
      </trkpt>
      <trkpt lat="44.27453" lon="5.60625">
        <ele>1007</ele>
        <time>2019-03-19T14:35:37Z</time>
      </trkpt>
      <trkpt lat="44.27451" lon="5.60626">
        <ele>1007</ele>
        <time>2019-03-19T14:35:38Z</time>
      </trkpt>
      <trkpt lat="44.27449" lon="5.60627">
        <ele>1007</ele>
        <time>2019-03-19T14:35:39Z</time>
      </trkpt>
      <trkpt lat="44.27447" lon="5.60628">
        <ele>1007</ele>
        <time>2019-03-19T14:35:40Z</time>
      </trkpt>
      <trkpt lat="44.27444" lon="5.60629">
        <ele>1007</ele>
        <time>2019-03-19T14:35:41Z</time>
      </trkpt>
      <trkpt lat="44.27442" lon="5.6063">
        <ele>1008</ele>
        <time>2019-03-19T14:35:42Z</time>
      </trkpt>
      <trkpt lat="44.2744" lon="5.60631">
        <ele>1008</ele>
        <time>2019-03-19T14:35:43Z</time>
      </trkpt>
      <trkpt lat="44.27438" lon="5.60633">
        <ele>1008</ele>
        <time>2019-03-19T14:35:44Z</time>
      </trkpt>
      <trkpt lat="44.27436" lon="5.60635">
        <ele>1008</ele>
        <time>2019-03-19T14:35:45Z</time>
      </trkpt>
      <trkpt lat="44.27434" lon="5.60636">
        <ele>1008</ele>
        <time>2019-03-19T14:35:46Z</time>
      </trkpt>
      <trkpt lat="44.27432" lon="5.60638">
        <ele>1009</ele>
        <time>2019-03-19T14:35:47Z</time>
      </trkpt>
      <trkpt lat="44.2743" lon="5.60639">
        <ele>1009</ele>
        <time>2019-03-19T14:35:48Z</time>
      </trkpt>
      <trkpt lat="44.27429" lon="5.60642">
        <ele>1009</ele>
        <time>2019-03-19T14:35:49Z</time>
      </trkpt>
      <trkpt lat="44.27428" lon="5.60645">
        <ele>1009</ele>
        <time>2019-03-19T14:35:50Z</time>
      </trkpt>
      <trkpt lat="44.27427" lon="5.60648">
        <ele>1010</ele>
        <time>2019-03-19T14:35:51Z</time>
      </trkpt>
      <trkpt lat="44.27426" lon="5.6065">
        <ele>1010</ele>
        <time>2019-03-19T14:35:52Z</time>
      </trkpt>
      <trkpt lat="44.27426" lon="5.60654">
        <ele>1010</ele>
        <time>2019-03-19T14:35:53Z</time>
      </trkpt>
      <trkpt lat="44.27426" lon="5.60657">
        <ele>1010</ele>
        <time>2019-03-19T14:35:54Z</time>
      </trkpt>
      <trkpt lat="44.27426" lon="5.6066">
        <ele>1010</ele>
        <time>2019-03-19T14:35:55Z</time>
      </trkpt>
      <trkpt lat="44.27426" lon="5.60663">
        <ele>1010</ele>
        <time>2019-03-19T14:35:56Z</time>
      </trkpt>
      <trkpt lat="44.27426" lon="5.60666">
        <ele>1011</ele>
        <time>2019-03-19T14:35:57Z</time>
      </trkpt>
      <trkpt lat="44.27426" lon="5.6067">
        <ele>1011</ele>
        <time>2019-03-19T14:35:58Z</time>
      </trkpt>
      <trkpt lat="44.27426" lon="5.60673">
        <ele>1011</ele>
        <time>2019-03-19T14:35:59Z</time>
      </trkpt>
      <trkpt lat="44.27426" lon="5.60677">
        <ele>1011</ele>
        <time>2019-03-19T14:36:00Z</time>
      </trkpt>
      <trkpt lat="44.27425" lon="5.6068">
        <ele>1011</ele>
        <time>2019-03-19T14:36:01Z</time>
      </trkpt>
      <trkpt lat="44.27425" lon="5.60683">
        <ele>1011</ele>
        <time>2019-03-19T14:36:02Z</time>
      </trkpt>
      <trkpt lat="44.27423" lon="5.60686">
        <ele>1011</ele>
        <time>2019-03-19T14:36:03Z</time>
      </trkpt>
      <trkpt lat="44.27422" lon="5.60689">
        <ele>1012</ele>
        <time>2019-03-19T14:36:04Z</time>
      </trkpt>
      <trkpt lat="44.27421" lon="5.60692">
        <ele>1012</ele>
        <time>2019-03-19T14:36:05Z</time>
      </trkpt>
      <trkpt lat="44.2742" lon="5.60695">
        <ele>1012</ele>
        <time>2019-03-19T14:36:06Z</time>
      </trkpt>
      <trkpt lat="44.27418" lon="5.60698">
        <ele>1012</ele>
        <time>2019-03-19T14:36:07Z</time>
      </trkpt>
      <trkpt lat="44.27417" lon="5.607">
        <ele>1013</ele>
        <time>2019-03-19T14:36:08Z</time>
      </trkpt>
      <trkpt lat="44.27415" lon="5.60702">
        <ele>1013</ele>
        <time>2019-03-19T14:36:09Z</time>
      </trkpt>
      <trkpt lat="44.27414" lon="5.60705">
        <ele>1013</ele>
        <time>2019-03-19T14:36:10Z</time>
      </trkpt>
      <trkpt lat="44.27412" lon="5.60707">
        <ele>1013</ele>
        <time>2019-03-19T14:36:11Z</time>
      </trkpt>
      <trkpt lat="44.2741" lon="5.60709">
        <ele>1014</ele>
        <time>2019-03-19T14:36:12Z</time>
      </trkpt>
      <trkpt lat="44.27409" lon="5.60711">
        <ele>1014</ele>
        <time>2019-03-19T14:36:13Z</time>
      </trkpt>
      <trkpt lat="44.27407" lon="5.60712">
        <ele>1014</ele>
        <time>2019-03-19T14:36:14Z</time>
      </trkpt>
      <trkpt lat="44.27405" lon="5.60714">
        <ele>1014</ele>
        <time>2019-03-19T14:36:15Z</time>
      </trkpt>
      <trkpt lat="44.27403" lon="5.60715">
        <ele>1014</ele>
        <time>2019-03-19T14:36:16Z</time>
      </trkpt>
      <trkpt lat="44.27401" lon="5.60716">
        <ele>1015</ele>
        <time>2019-03-19T14:36:17Z</time>
      </trkpt>
      <trkpt lat="44.27399" lon="5.60717">
        <ele>1015</ele>
        <time>2019-03-19T14:36:18Z</time>
      </trkpt>
      <trkpt lat="44.27397" lon="5.60718">
        <ele>1015</ele>
        <time>2019-03-19T14:36:19Z</time>
      </trkpt>
      <trkpt lat="44.27395" lon="5.60719">
        <ele>1015</ele>
        <time>2019-03-19T14:36:20Z</time>
      </trkpt>
      <trkpt lat="44.27393" lon="5.60719">
        <ele>1015</ele>
        <time>2019-03-19T14:36:21Z</time>
      </trkpt>
      <trkpt lat="44.2739" lon="5.6072">
        <ele>1015</ele>
        <time>2019-03-19T14:36:22Z</time>
      </trkpt>
      <trkpt lat="44.27388" lon="5.6072">
        <ele>1015</ele>
        <time>2019-03-19T14:36:23Z</time>
      </trkpt>
      <trkpt lat="44.27385" lon="5.6072">
        <ele>1015</ele>
        <time>2019-03-19T14:36:24Z</time>
      </trkpt>
      <trkpt lat="44.27383" lon="5.60721">
        <ele>1016</ele>
        <time>2019-03-19T14:36:25Z</time>
      </trkpt>
      <trkpt lat="44.27381" lon="5.60721">
        <ele>1016</ele>
        <time>2019-03-19T14:36:26Z</time>
      </trkpt>
      <trkpt lat="44.27378" lon="5.60721">
        <ele>1016</ele>
        <time>2019-03-19T14:36:27Z</time>
      </trkpt>
      <trkpt lat="44.27376" lon="5.60722">
        <ele>1016</ele>
        <time>2019-03-19T14:36:28Z</time>
      </trkpt>
      <trkpt lat="44.27374" lon="5.60722">
        <ele>1016</ele>
        <time>2019-03-19T14:36:29Z</time>
      </trkpt>
      <trkpt lat="44.27372" lon="5.60722">
        <ele>1016</ele>
        <time>2019-03-19T14:36:30Z</time>
      </trkpt>
      <trkpt lat="44.27369" lon="5.60723">
        <ele>1016</ele>
        <time>2019-03-19T14:36:31Z</time>
      </trkpt>
      <trkpt lat="44.27367" lon="5.60724">
        <ele>1016</ele>
        <time>2019-03-19T14:36:32Z</time>
      </trkpt>
      <trkpt lat="44.27365" lon="5.60725">
        <ele>1016</ele>
        <time>2019-03-19T14:36:33Z</time>
      </trkpt>
      <trkpt lat="44.27363" lon="5.60726">
        <ele>1016</ele>
        <time>2019-03-19T14:36:34Z</time>
      </trkpt>
      <trkpt lat="44.27361" lon="5.60726">
        <ele>1016</ele>
        <time>2019-03-19T14:36:35Z</time>
      </trkpt>
      <trkpt lat="44.27359" lon="5.60727">
        <ele>1016</ele>
        <time>2019-03-19T14:36:36Z</time>
      </trkpt>
      <trkpt lat="44.27356" lon="5.60728">
        <ele>1016</ele>
        <time>2019-03-19T14:36:37Z</time>
      </trkpt>
      <trkpt lat="44.27354" lon="5.60729">
        <ele>1016</ele>
        <time>2019-03-19T14:36:38Z</time>
      </trkpt>
      <trkpt lat="44.27352" lon="5.6073">
        <ele>1016</ele>
        <time>2019-03-19T14:36:39Z</time>
      </trkpt>
      <trkpt lat="44.2735" lon="5.60731">
        <ele>1016</ele>
        <time>2019-03-19T14:36:40Z</time>
      </trkpt>
      <trkpt lat="44.27348" lon="5.60733">
        <ele>1017</ele>
        <time>2019-03-19T14:36:41Z</time>
      </trkpt>
      <trkpt lat="44.27346" lon="5.60734">
        <ele>1017</ele>
        <time>2019-03-19T14:36:42Z</time>
      </trkpt>
      <trkpt lat="44.27344" lon="5.60736">
        <ele>1017</ele>
        <time>2019-03-19T14:36:43Z</time>
      </trkpt>
      <trkpt lat="44.27342" lon="5.60738">
        <ele>1017</ele>
        <time>2019-03-19T14:36:44Z</time>
      </trkpt>
      <trkpt lat="44.2734" lon="5.6074">
        <ele>1017</ele>
        <time>2019-03-19T14:36:45Z</time>
      </trkpt>
      <trkpt lat="44.27339" lon="5.60742">
        <ele>1018</ele>
        <time>2019-03-19T14:36:46Z</time>
      </trkpt>
      <trkpt lat="44.27337" lon="5.60744">
        <ele>1018</ele>
        <time>2019-03-19T14:36:47Z</time>
      </trkpt>
      <trkpt lat="44.27335" lon="5.60746">
        <ele>1018</ele>
        <time>2019-03-19T14:36:48Z</time>
      </trkpt>
      <trkpt lat="44.27334" lon="5.60749">
        <ele>1018</ele>
        <time>2019-03-19T14:36:49Z</time>
      </trkpt>
      <trkpt lat="44.27332" lon="5.60751">
        <ele>1019</ele>
        <time>2019-03-19T14:36:50Z</time>
      </trkpt>
      <trkpt lat="44.2733" lon="5.60754">
        <ele>1019</ele>
        <time>2019-03-19T14:36:51Z</time>
      </trkpt>
      <trkpt lat="44.27329" lon="5.60757">
        <ele>1019</ele>
        <time>2019-03-19T14:36:52Z</time>
      </trkpt>
      <trkpt lat="44.27328" lon="5.6076">
        <ele>1020</ele>
        <time>2019-03-19T14:36:53Z</time>
      </trkpt>
      <trkpt lat="44.27327" lon="5.60762">
        <ele>1020</ele>
        <time>2019-03-19T14:36:54Z</time>
      </trkpt>
      <trkpt lat="44.27326" lon="5.60765">
        <ele>1020</ele>
        <time>2019-03-19T14:36:55Z</time>
      </trkpt>
      <trkpt lat="44.27325" lon="5.60767">
        <ele>1020</ele>
        <time>2019-03-19T14:36:56Z</time>
      </trkpt>
      <trkpt lat="44.27323" lon="5.6077">
        <ele>1021</ele>
        <time>2019-03-19T14:36:57Z</time>
      </trkpt>
      <trkpt lat="44.27322" lon="5.60773">
        <ele>1021</ele>
        <time>2019-03-19T14:36:58Z</time>
      </trkpt>
      <trkpt lat="44.27321" lon="5.60775">
        <ele>1021</ele>
        <time>2019-03-19T14:36:59Z</time>
      </trkpt>
      <trkpt lat="44.2732" lon="5.60778">
        <ele>1021</ele>
        <time>2019-03-19T14:37:00Z</time>
      </trkpt>
      <trkpt lat="44.27319" lon="5.60781">
        <ele>1021</ele>
        <time>2019-03-19T14:37:01Z</time>
      </trkpt>
      <trkpt lat="44.27318" lon="5.60783">
        <ele>1021</ele>
        <time>2019-03-19T14:37:02Z</time>
      </trkpt>
      <trkpt lat="44.27317" lon="5.60786">
        <ele>1022</ele>
        <time>2019-03-19T14:37:03Z</time>
      </trkpt>
      <trkpt lat="44.27315" lon="5.60788">
        <ele>1022</ele>
        <time>2019-03-19T14:37:04Z</time>
      </trkpt>
      <trkpt lat="44.27314" lon="5.60791">
        <ele>1022</ele>
        <time>2019-03-19T14:37:05Z</time>
      </trkpt>
      <trkpt lat="44.27313" lon="5.60794">
        <ele>1022</ele>
        <time>2019-03-19T14:37:06Z</time>
      </trkpt>
      <trkpt lat="44.27312" lon="5.60796">
        <ele>1022</ele>
        <time>2019-03-19T14:37:07Z</time>
      </trkpt>
      <trkpt lat="44.2731" lon="5.60799">
        <ele>1023</ele>
        <time>2019-03-19T14:37:08Z</time>
      </trkpt>
      <trkpt lat="44.27309" lon="5.60802">
        <ele>1023</ele>
        <time>2019-03-19T14:37:09Z</time>
      </trkpt>
      <trkpt lat="44.27308" lon="5.60805">
        <ele>1023</ele>
        <time>2019-03-19T14:37:10Z</time>
      </trkpt>
      <trkpt lat="44.27307" lon="5.60808">
        <ele>1023</ele>
        <time>2019-03-19T14:37:11Z</time>
      </trkpt>
      <trkpt lat="44.27307" lon="5.60811">
        <ele>1023</ele>
        <time>2019-03-19T14:37:12Z</time>
      </trkpt>
      <trkpt lat="44.27307" lon="5.60814">
        <ele>1023</ele>
        <time>2019-03-19T14:37:13Z</time>
      </trkpt>
      <trkpt lat="44.27307" lon="5.60817">
        <ele>1024</ele>
        <time>2019-03-19T14:37:14Z</time>
      </trkpt>
      <trkpt lat="44.27308" lon="5.6082">
        <ele>1024</ele>
        <time>2019-03-19T14:37:15Z</time>
      </trkpt>
      <trkpt lat="44.27309" lon="5.60822">
        <ele>1024</ele>
        <time>2019-03-19T14:37:16Z</time>
      </trkpt>
      <trkpt lat="44.2731" lon="5.60825">
        <ele>1024</ele>
        <time>2019-03-19T14:37:17Z</time>
      </trkpt>
      <trkpt lat="44.27312" lon="5.60827">
        <ele>1024</ele>
        <time>2019-03-19T14:37:18Z</time>
      </trkpt>
      <trkpt lat="44.27314" lon="5.60829">
        <ele>1024</ele>
        <time>2019-03-19T14:37:19Z</time>
      </trkpt>
      <trkpt lat="44.27316" lon="5.60832">
        <ele>1024</ele>
        <time>2019-03-19T14:37:20Z</time>
      </trkpt>
      <trkpt lat="44.27318" lon="5.60834">
        <ele>1025</ele>
        <time>2019-03-19T14:37:21Z</time>
      </trkpt>
      <trkpt lat="44.2732" lon="5.60837">
        <ele>1025</ele>
        <time>2019-03-19T14:37:22Z</time>
      </trkpt>
      <trkpt lat="44.27321" lon="5.6084">
        <ele>1026</ele>
        <time>2019-03-19T14:37:23Z</time>
      </trkpt>
      <trkpt lat="44.27322" lon="5.60843">
        <ele>1026</ele>
        <time>2019-03-19T14:37:24Z</time>
      </trkpt>
      <trkpt lat="44.27323" lon="5.60847">
        <ele>1027</ele>
        <time>2019-03-19T14:37:25Z</time>
      </trkpt>
      <trkpt lat="44.27322" lon="5.6085">
        <ele>1027</ele>
        <time>2019-03-19T14:37:26Z</time>
      </trkpt>
      <trkpt lat="44.27322" lon="5.60853">
        <ele>1027</ele>
        <time>2019-03-19T14:37:27Z</time>
      </trkpt>
      <trkpt lat="44.27321" lon="5.60856">
        <ele>1028</ele>
        <time>2019-03-19T14:37:28Z</time>
      </trkpt>
      <trkpt lat="44.2732" lon="5.60859">
        <ele>1028</ele>
        <time>2019-03-19T14:37:29Z</time>
      </trkpt>
      <trkpt lat="44.27319" lon="5.60862">
        <ele>1029</ele>
        <time>2019-03-19T14:37:30Z</time>
      </trkpt>
      <trkpt lat="44.27318" lon="5.60864">
        <ele>1029</ele>
        <time>2019-03-19T14:37:31Z</time>
      </trkpt>
      <trkpt lat="44.27316" lon="5.60867">
        <ele>1029</ele>
        <time>2019-03-19T14:37:32Z</time>
      </trkpt>
      <trkpt lat="44.27315" lon="5.60869">
        <ele>1030</ele>
        <time>2019-03-19T14:37:33Z</time>
      </trkpt>
      <trkpt lat="44.27313" lon="5.60871">
        <ele>1030</ele>
        <time>2019-03-19T14:37:34Z</time>
      </trkpt>
      <trkpt lat="44.27312" lon="5.60874">
        <ele>1030</ele>
        <time>2019-03-19T14:37:35Z</time>
      </trkpt>
      <trkpt lat="44.2731" lon="5.60876">
        <ele>1030</ele>
        <time>2019-03-19T14:37:36Z</time>
      </trkpt>
      <trkpt lat="44.27309" lon="5.60878">
        <ele>1030</ele>
        <time>2019-03-19T14:37:37Z</time>
      </trkpt>
      <trkpt lat="44.27307" lon="5.60881">
        <ele>1030</ele>
        <time>2019-03-19T14:37:38Z</time>
      </trkpt>
      <trkpt lat="44.27306" lon="5.60884">
        <ele>1030</ele>
        <time>2019-03-19T14:37:39Z</time>
      </trkpt>
      <trkpt lat="44.27304" lon="5.60886">
        <ele>1030</ele>
        <time>2019-03-19T14:37:40Z</time>
      </trkpt>
      <trkpt lat="44.27303" lon="5.60888">
        <ele>1030</ele>
        <time>2019-03-19T14:37:41Z</time>
      </trkpt>
      <trkpt lat="44.27301" lon="5.6089">
        <ele>1030</ele>
        <time>2019-03-19T14:37:42Z</time>
      </trkpt>
      <trkpt lat="44.27299" lon="5.60893">
        <ele>1031</ele>
        <time>2019-03-19T14:37:43Z</time>
      </trkpt>
      <trkpt lat="44.27298" lon="5.60896">
        <ele>1031</ele>
        <time>2019-03-19T14:37:44Z</time>
      </trkpt>
      <trkpt lat="44.27297" lon="5.60898">
        <ele>1031</ele>
        <time>2019-03-19T14:37:45Z</time>
      </trkpt>
      <trkpt lat="44.27296" lon="5.60901">
        <ele>1031</ele>
        <time>2019-03-19T14:37:46Z</time>
      </trkpt>
      <trkpt lat="44.27295" lon="5.60904">
        <ele>1032</ele>
        <time>2019-03-19T14:37:47Z</time>
      </trkpt>
      <trkpt lat="44.27294" lon="5.60907">
        <ele>1032</ele>
        <time>2019-03-19T14:37:48Z</time>
      </trkpt>
      <trkpt lat="44.27293" lon="5.6091">
        <ele>1032</ele>
        <time>2019-03-19T14:37:49Z</time>
      </trkpt>
      <trkpt lat="44.27291" lon="5.60913">
        <ele>1033</ele>
        <time>2019-03-19T14:37:50Z</time>
      </trkpt>
      <trkpt lat="44.27291" lon="5.60916">
        <ele>1033</ele>
        <time>2019-03-19T14:37:51Z</time>
      </trkpt>
      <trkpt lat="44.27291" lon="5.60919">
        <ele>1033</ele>
        <time>2019-03-19T14:37:52Z</time>
      </trkpt>
      <trkpt lat="44.2729" lon="5.60922">
        <ele>1034</ele>
        <time>2019-03-19T14:37:53Z</time>
      </trkpt>
      <trkpt lat="44.27289" lon="5.60925">
        <ele>1034</ele>
        <time>2019-03-19T14:37:54Z</time>
      </trkpt>
      <trkpt lat="44.27289" lon="5.60928">
        <ele>1034</ele>
        <time>2019-03-19T14:37:55Z</time>
      </trkpt>
      <trkpt lat="44.27288" lon="5.60932">
        <ele>1034</ele>
        <time>2019-03-19T14:37:56Z</time>
      </trkpt>
      <trkpt lat="44.27287" lon="5.60935">
        <ele>1034</ele>
        <time>2019-03-19T14:37:57Z</time>
      </trkpt>
      <trkpt lat="44.27287" lon="5.60938">
        <ele>1035</ele>
        <time>2019-03-19T14:37:58Z</time>
      </trkpt>
      <trkpt lat="44.27286" lon="5.60941">
        <ele>1035</ele>
        <time>2019-03-19T14:37:59Z</time>
      </trkpt>
      <trkpt lat="44.27285" lon="5.60944">
        <ele>1035</ele>
        <time>2019-03-19T14:38:00Z</time>
      </trkpt>
      <trkpt lat="44.27284" lon="5.60947">
        <ele>1035</ele>
        <time>2019-03-19T14:38:01Z</time>
      </trkpt>
      <trkpt lat="44.27283" lon="5.6095">
        <ele>1035</ele>
        <time>2019-03-19T14:38:02Z</time>
      </trkpt>
      <trkpt lat="44.27282" lon="5.60952">
        <ele>1035</ele>
        <time>2019-03-19T14:38:03Z</time>
      </trkpt>
      <trkpt lat="44.2728" lon="5.60955">
        <ele>1035</ele>
        <time>2019-03-19T14:38:04Z</time>
      </trkpt>
      <trkpt lat="44.27278" lon="5.60957">
        <ele>1035</ele>
        <time>2019-03-19T14:38:05Z</time>
      </trkpt>
      <trkpt lat="44.27277" lon="5.60959">
        <ele>1035</ele>
        <time>2019-03-19T14:38:06Z</time>
      </trkpt>
      <trkpt lat="44.27274" lon="5.60961">
        <ele>1035</ele>
        <time>2019-03-19T14:38:07Z</time>
      </trkpt>
      <trkpt lat="44.27272" lon="5.60963">
        <ele>1035</ele>
        <time>2019-03-19T14:38:08Z</time>
      </trkpt>
      <trkpt lat="44.2727" lon="5.60965">
        <ele>1035</ele>
        <time>2019-03-19T14:38:09Z</time>
      </trkpt>
      <trkpt lat="44.27268" lon="5.60967">
        <ele>1035</ele>
        <time>2019-03-19T14:38:10Z</time>
      </trkpt>
      <trkpt lat="44.27265" lon="5.60968">
        <ele>1035</ele>
        <time>2019-03-19T14:38:11Z</time>
      </trkpt>
      <trkpt lat="44.27263" lon="5.60969">
        <ele>1035</ele>
        <time>2019-03-19T14:38:12Z</time>
      </trkpt>
      <trkpt lat="44.2726" lon="5.6097">
        <ele>1035</ele>
        <time>2019-03-19T14:38:13Z</time>
      </trkpt>
      <trkpt lat="44.27258" lon="5.60971">
        <ele>1035</ele>
        <time>2019-03-19T14:38:14Z</time>
      </trkpt>
      <trkpt lat="44.27256" lon="5.60972">
        <ele>1035</ele>
        <time>2019-03-19T14:38:15Z</time>
      </trkpt>
      <trkpt lat="44.27253" lon="5.60972">
        <ele>1035</ele>
        <time>2019-03-19T14:38:16Z</time>
      </trkpt>
      <trkpt lat="44.27251" lon="5.60973">
        <ele>1035</ele>
        <time>2019-03-19T14:38:17Z</time>
      </trkpt>
      <trkpt lat="44.27249" lon="5.60974">
        <ele>1035</ele>
        <time>2019-03-19T14:38:18Z</time>
      </trkpt>
      <trkpt lat="44.27246" lon="5.60974">
        <ele>1035</ele>
        <time>2019-03-19T14:38:19Z</time>
      </trkpt>
      <trkpt lat="44.27245" lon="5.60975">
        <ele>1035</ele>
        <time>2019-03-19T14:38:20Z</time>
      </trkpt>
      <trkpt lat="44.27243" lon="5.60976">
        <ele>1035</ele>
        <time>2019-03-19T14:38:21Z</time>
      </trkpt>
      <trkpt lat="44.2724" lon="5.60977">
        <ele>1035</ele>
        <time>2019-03-19T14:38:22Z</time>
      </trkpt>
      <trkpt lat="44.27238" lon="5.60978">
        <ele>1035</ele>
        <time>2019-03-19T14:38:23Z</time>
      </trkpt>
      <trkpt lat="44.27236" lon="5.60978">
        <ele>1035</ele>
        <time>2019-03-19T14:38:24Z</time>
      </trkpt>
      <trkpt lat="44.27234" lon="5.60979">
        <ele>1035</ele>
        <time>2019-03-19T14:38:25Z</time>
      </trkpt>
      <trkpt lat="44.27232" lon="5.6098">
        <ele>1035</ele>
        <time>2019-03-19T14:38:26Z</time>
      </trkpt>
      <trkpt lat="44.2723" lon="5.60981">
        <ele>1035</ele>
        <time>2019-03-19T14:38:27Z</time>
      </trkpt>
      <trkpt lat="44.27227" lon="5.60982">
        <ele>1035</ele>
        <time>2019-03-19T14:38:28Z</time>
      </trkpt>
      <trkpt lat="44.27225" lon="5.60983">
        <ele>1036</ele>
        <time>2019-03-19T14:38:29Z</time>
      </trkpt>
      <trkpt lat="44.27223" lon="5.60984">
        <ele>1036</ele>
        <time>2019-03-19T14:38:30Z</time>
      </trkpt>
      <trkpt lat="44.27221" lon="5.60985">
        <ele>1036</ele>
        <time>2019-03-19T14:38:31Z</time>
      </trkpt>
      <trkpt lat="44.27219" lon="5.60986">
        <ele>1036</ele>
        <time>2019-03-19T14:38:32Z</time>
      </trkpt>
      <trkpt lat="44.27217" lon="5.60987">
        <ele>1036</ele>
        <time>2019-03-19T14:38:33Z</time>
      </trkpt>
      <trkpt lat="44.27214" lon="5.60988">
        <ele>1036</ele>
        <time>2019-03-19T14:38:34Z</time>
      </trkpt>
      <trkpt lat="44.27212" lon="5.60989">
        <ele>1036</ele>
        <time>2019-03-19T14:38:35Z</time>
      </trkpt>
      <trkpt lat="44.2721" lon="5.60989">
        <ele>1036</ele>
        <time>2019-03-19T14:38:36Z</time>
      </trkpt>
      <trkpt lat="44.27208" lon="5.6099">
        <ele>1036</ele>
        <time>2019-03-19T14:38:37Z</time>
      </trkpt>
      <trkpt lat="44.27205" lon="5.60991">
        <ele>1036</ele>
        <time>2019-03-19T14:38:38Z</time>
      </trkpt>
      <trkpt lat="44.27203" lon="5.60991">
        <ele>1036</ele>
        <time>2019-03-19T14:38:39Z</time>
      </trkpt>
      <trkpt lat="44.272" lon="5.60992">
        <ele>1037</ele>
        <time>2019-03-19T14:38:40Z</time>
      </trkpt>
      <trkpt lat="44.27198" lon="5.60993">
        <ele>1037</ele>
        <time>2019-03-19T14:38:41Z</time>
      </trkpt>
      <trkpt lat="44.27196" lon="5.60994">
        <ele>1037</ele>
        <time>2019-03-19T14:38:42Z</time>
      </trkpt>
      <trkpt lat="44.27194" lon="5.60995">
        <ele>1037</ele>
        <time>2019-03-19T14:38:43Z</time>
      </trkpt>
      <trkpt lat="44.27191" lon="5.60996">
        <ele>1037</ele>
        <time>2019-03-19T14:38:44Z</time>
      </trkpt>
      <trkpt lat="44.27189" lon="5.60997">
        <ele>1038</ele>
        <time>2019-03-19T14:38:45Z</time>
      </trkpt>
      <trkpt lat="44.27187" lon="5.60998">
        <ele>1038</ele>
        <time>2019-03-19T14:38:46Z</time>
      </trkpt>
      <trkpt lat="44.27184" lon="5.60999">
        <ele>1038</ele>
        <time>2019-03-19T14:38:47Z</time>
      </trkpt>
      <trkpt lat="44.27182" lon="5.61">
        <ele>1039</ele>
        <time>2019-03-19T14:38:48Z</time>
      </trkpt>
      <trkpt lat="44.2718" lon="5.61001">
        <ele>1039</ele>
        <time>2019-03-19T14:38:49Z</time>
      </trkpt>
      <trkpt lat="44.27178" lon="5.61002">
        <ele>1039</ele>
        <time>2019-03-19T14:38:50Z</time>
      </trkpt>
      <trkpt lat="44.27176" lon="5.61003">
        <ele>1039</ele>
        <time>2019-03-19T14:38:51Z</time>
      </trkpt>
      <trkpt lat="44.27173" lon="5.61004">
        <ele>1040</ele>
        <time>2019-03-19T14:38:52Z</time>
      </trkpt>
      <trkpt lat="44.27171" lon="5.61005">
        <ele>1040</ele>
        <time>2019-03-19T14:38:53Z</time>
      </trkpt>
      <trkpt lat="44.27169" lon="5.61006">
        <ele>1040</ele>
        <time>2019-03-19T14:38:54Z</time>
      </trkpt>
      <trkpt lat="44.27167" lon="5.61007">
        <ele>1040</ele>
        <time>2019-03-19T14:38:55Z</time>
      </trkpt>
      <trkpt lat="44.27164" lon="5.61009">
        <ele>1040</ele>
        <time>2019-03-19T14:38:56Z</time>
      </trkpt>
      <trkpt lat="44.27162" lon="5.6101">
        <ele>1041</ele>
        <time>2019-03-19T14:38:57Z</time>
      </trkpt>
      <trkpt lat="44.2716" lon="5.61011">
        <ele>1041</ele>
        <time>2019-03-19T14:38:58Z</time>
      </trkpt>
      <trkpt lat="44.27158" lon="5.61013">
        <ele>1041</ele>
        <time>2019-03-19T14:38:59Z</time>
      </trkpt>
      <trkpt lat="44.27156" lon="5.61014">
        <ele>1041</ele>
        <time>2019-03-19T14:39:00Z</time>
      </trkpt>
      <trkpt lat="44.27154" lon="5.61016">
        <ele>1041</ele>
        <time>2019-03-19T14:39:01Z</time>
      </trkpt>
      <trkpt lat="44.27153" lon="5.61018">
        <ele>1041</ele>
        <time>2019-03-19T14:39:02Z</time>
      </trkpt>
      <trkpt lat="44.27151" lon="5.61019">
        <ele>1041</ele>
        <time>2019-03-19T14:39:03Z</time>
      </trkpt>
      <trkpt lat="44.27149" lon="5.6102">
        <ele>1041</ele>
        <time>2019-03-19T14:39:04Z</time>
      </trkpt>
      <trkpt lat="44.27148" lon="5.61022">
        <ele>1041</ele>
        <time>2019-03-19T14:39:05Z</time>
      </trkpt>
      <trkpt lat="44.27146" lon="5.61024">
        <ele>1041</ele>
        <time>2019-03-19T14:39:06Z</time>
      </trkpt>
      <trkpt lat="44.27144" lon="5.61025">
        <ele>1041</ele>
        <time>2019-03-19T14:39:07Z</time>
      </trkpt>
      <trkpt lat="44.27143" lon="5.61027">
        <ele>1041</ele>
        <time>2019-03-19T14:39:08Z</time>
      </trkpt>
      <trkpt lat="44.27141" lon="5.61028">
        <ele>1042</ele>
        <time>2019-03-19T14:39:09Z</time>
      </trkpt>
      <trkpt lat="44.27139" lon="5.61029">
        <ele>1042</ele>
        <time>2019-03-19T14:39:10Z</time>
      </trkpt>
      <trkpt lat="44.27136" lon="5.6103">
        <ele>1043</ele>
        <time>2019-03-19T14:39:11Z</time>
      </trkpt>
      <trkpt lat="44.27134" lon="5.61031">
        <ele>1043</ele>
        <time>2019-03-19T14:39:12Z</time>
      </trkpt>
      <trkpt lat="44.27132" lon="5.61032">
        <ele>1043</ele>
        <time>2019-03-19T14:39:13Z</time>
      </trkpt>
      <trkpt lat="44.2713" lon="5.61034">
        <ele>1043</ele>
        <time>2019-03-19T14:39:14Z</time>
      </trkpt>
      <trkpt lat="44.27128" lon="5.61035">
        <ele>1044</ele>
        <time>2019-03-19T14:39:15Z</time>
      </trkpt>
      <trkpt lat="44.27126" lon="5.61036">
        <ele>1044</ele>
        <time>2019-03-19T14:39:16Z</time>
      </trkpt>
      <trkpt lat="44.27124" lon="5.61037">
        <ele>1044</ele>
        <time>2019-03-19T14:39:17Z</time>
      </trkpt>
      <trkpt lat="44.27122" lon="5.61038">
        <ele>1044</ele>
        <time>2019-03-19T14:39:18Z</time>
      </trkpt>
      <trkpt lat="44.27119" lon="5.61038">
        <ele>1045</ele>
        <time>2019-03-19T14:39:19Z</time>
      </trkpt>
      <trkpt lat="44.27117" lon="5.61039">
        <ele>1045</ele>
        <time>2019-03-19T14:39:20Z</time>
      </trkpt>
      <trkpt lat="44.27115" lon="5.61039">
        <ele>1045</ele>
        <time>2019-03-19T14:39:21Z</time>
      </trkpt>
      <trkpt lat="44.27113" lon="5.6104">
        <ele>1045</ele>
        <time>2019-03-19T14:39:22Z</time>
      </trkpt>
      <trkpt lat="44.2711" lon="5.61042">
        <ele>1045</ele>
        <time>2019-03-19T14:39:23Z</time>
      </trkpt>
      <trkpt lat="44.27108" lon="5.61043">
        <ele>1045</ele>
        <time>2019-03-19T14:39:24Z</time>
      </trkpt>
      <trkpt lat="44.27106" lon="5.61044">
        <ele>1046</ele>
        <time>2019-03-19T14:39:25Z</time>
      </trkpt>
      <trkpt lat="44.27104" lon="5.61045">
        <ele>1046</ele>
        <time>2019-03-19T14:39:26Z</time>
      </trkpt>
      <trkpt lat="44.27102" lon="5.61046">
        <ele>1046</ele>
        <time>2019-03-19T14:39:27Z</time>
      </trkpt>
      <trkpt lat="44.271" lon="5.61047">
        <ele>1046</ele>
        <time>2019-03-19T14:39:28Z</time>
      </trkpt>
      <trkpt lat="44.27098" lon="5.61048">
        <ele>1046</ele>
        <time>2019-03-19T14:39:29Z</time>
      </trkpt>
      <trkpt lat="44.27096" lon="5.6105">
        <ele>1046</ele>
        <time>2019-03-19T14:39:30Z</time>
      </trkpt>
      <trkpt lat="44.27094" lon="5.61051">
        <ele>1047</ele>
        <time>2019-03-19T14:39:31Z</time>
      </trkpt>
      <trkpt lat="44.27092" lon="5.61052">
        <ele>1047</ele>
        <time>2019-03-19T14:39:32Z</time>
      </trkpt>
      <trkpt lat="44.2709" lon="5.61054">
        <ele>1048</ele>
        <time>2019-03-19T14:39:33Z</time>
      </trkpt>
      <trkpt lat="44.27088" lon="5.61055">
        <ele>1048</ele>
        <time>2019-03-19T14:39:34Z</time>
      </trkpt>
      <trkpt lat="44.27086" lon="5.61056">
        <ele>1048</ele>
        <time>2019-03-19T14:39:35Z</time>
      </trkpt>
      <trkpt lat="44.27084" lon="5.61058">
        <ele>1049</ele>
        <time>2019-03-19T14:39:36Z</time>
      </trkpt>
      <trkpt lat="44.27082" lon="5.61059">
        <ele>1049</ele>
        <time>2019-03-19T14:39:37Z</time>
      </trkpt>
      <trkpt lat="44.2708" lon="5.6106">
        <ele>1049</ele>
        <time>2019-03-19T14:39:38Z</time>
      </trkpt>
      <trkpt lat="44.27078" lon="5.61061">
        <ele>1049</ele>
        <time>2019-03-19T14:39:39Z</time>
      </trkpt>
      <trkpt lat="44.27076" lon="5.61062">
        <ele>1049</ele>
        <time>2019-03-19T14:39:40Z</time>
      </trkpt>
      <trkpt lat="44.27074" lon="5.61063">
        <ele>1050</ele>
        <time>2019-03-19T14:39:41Z</time>
      </trkpt>
      <trkpt lat="44.27071" lon="5.61063">
        <ele>1050</ele>
        <time>2019-03-19T14:39:42Z</time>
      </trkpt>
      <trkpt lat="44.27068" lon="5.61064">
        <ele>1050</ele>
        <time>2019-03-19T14:39:43Z</time>
      </trkpt>
      <trkpt lat="44.27066" lon="5.61066">
        <ele>1050</ele>
        <time>2019-03-19T14:39:44Z</time>
      </trkpt>
      <trkpt lat="44.27063" lon="5.61067">
        <ele>1050</ele>
        <time>2019-03-19T14:39:45Z</time>
      </trkpt>
      <trkpt lat="44.27061" lon="5.61067">
        <ele>1050</ele>
        <time>2019-03-19T14:39:46Z</time>
      </trkpt>
      <trkpt lat="44.27058" lon="5.61068">
        <ele>1050</ele>
        <time>2019-03-19T14:39:47Z</time>
      </trkpt>
      <trkpt lat="44.27055" lon="5.61068">
        <ele>1051</ele>
        <time>2019-03-19T14:39:48Z</time>
      </trkpt>
      <trkpt lat="44.27053" lon="5.61069">
        <ele>1051</ele>
        <time>2019-03-19T14:39:49Z</time>
      </trkpt>
      <trkpt lat="44.27051" lon="5.61069">
        <ele>1051</ele>
        <time>2019-03-19T14:39:50Z</time>
      </trkpt>
      <trkpt lat="44.27048" lon="5.61069">
        <ele>1051</ele>
        <time>2019-03-19T14:39:51Z</time>
      </trkpt>
      <trkpt lat="44.27046" lon="5.61069">
        <ele>1051</ele>
        <time>2019-03-19T14:39:52Z</time>
      </trkpt>
      <trkpt lat="44.27044" lon="5.6107">
        <ele>1051</ele>
        <time>2019-03-19T14:39:53Z</time>
      </trkpt>
      <trkpt lat="44.27042" lon="5.6107">
        <ele>1051</ele>
        <time>2019-03-19T14:39:54Z</time>
      </trkpt>
      <trkpt lat="44.2704" lon="5.61071">
        <ele>1051</ele>
        <time>2019-03-19T14:39:55Z</time>
      </trkpt>
      <trkpt lat="44.27038" lon="5.61071">
        <ele>1051</ele>
        <time>2019-03-19T14:39:56Z</time>
      </trkpt>
      <trkpt lat="44.27036" lon="5.61072">
        <ele>1051</ele>
        <time>2019-03-19T14:39:57Z</time>
      </trkpt>
      <trkpt lat="44.27034" lon="5.61072">
        <ele>1052</ele>
        <time>2019-03-19T14:39:58Z</time>
      </trkpt>
      <trkpt lat="44.27031" lon="5.61073">
        <ele>1052</ele>
        <time>2019-03-19T14:39:59Z</time>
      </trkpt>
      <trkpt lat="44.27029" lon="5.61074">
        <ele>1053</ele>
        <time>2019-03-19T14:40:00Z</time>
      </trkpt>
      <trkpt lat="44.27027" lon="5.61074">
        <ele>1053</ele>
        <time>2019-03-19T14:40:01Z</time>
      </trkpt>
      <trkpt lat="44.27024" lon="5.61075">
        <ele>1053</ele>
        <time>2019-03-19T14:40:02Z</time>
      </trkpt>
      <trkpt lat="44.27022" lon="5.61076">
        <ele>1054</ele>
        <time>2019-03-19T14:40:03Z</time>
      </trkpt>
      <trkpt lat="44.2702" lon="5.61077">
        <ele>1054</ele>
        <time>2019-03-19T14:40:04Z</time>
      </trkpt>
      <trkpt lat="44.27018" lon="5.61078">
        <ele>1055</ele>
        <time>2019-03-19T14:40:05Z</time>
      </trkpt>
      <trkpt lat="44.27016" lon="5.61079">
        <ele>1055</ele>
        <time>2019-03-19T14:40:06Z</time>
      </trkpt>
      <trkpt lat="44.27014" lon="5.6108">
        <ele>1056</ele>
        <time>2019-03-19T14:40:07Z</time>
      </trkpt>
      <trkpt lat="44.27012" lon="5.61081">
        <ele>1056</ele>
        <time>2019-03-19T14:40:08Z</time>
      </trkpt>
      <trkpt lat="44.2701" lon="5.61083">
        <ele>1056</ele>
        <time>2019-03-19T14:40:09Z</time>
      </trkpt>
      <trkpt lat="44.27008" lon="5.61085">
        <ele>1057</ele>
        <time>2019-03-19T14:40:10Z</time>
      </trkpt>
      <trkpt lat="44.27006" lon="5.61086">
        <ele>1057</ele>
        <time>2019-03-19T14:40:11Z</time>
      </trkpt>
      <trkpt lat="44.27004" lon="5.61088">
        <ele>1057</ele>
        <time>2019-03-19T14:40:12Z</time>
      </trkpt>
      <trkpt lat="44.27002" lon="5.6109">
        <ele>1057</ele>
        <time>2019-03-19T14:40:13Z</time>
      </trkpt>
      <trkpt lat="44.27" lon="5.61092">
        <ele>1057</ele>
        <time>2019-03-19T14:40:14Z</time>
      </trkpt>
      <trkpt lat="44.26999" lon="5.61094">
        <ele>1058</ele>
        <time>2019-03-19T14:40:15Z</time>
      </trkpt>
      <trkpt lat="44.26997" lon="5.61095">
        <ele>1058</ele>
        <time>2019-03-19T14:40:16Z</time>
      </trkpt>
      <trkpt lat="44.26994" lon="5.61097">
        <ele>1058</ele>
        <time>2019-03-19T14:40:17Z</time>
      </trkpt>
      <trkpt lat="44.26992" lon="5.61099">
        <ele>1058</ele>
        <time>2019-03-19T14:40:18Z</time>
      </trkpt>
      <trkpt lat="44.26991" lon="5.61101">
        <ele>1059</ele>
        <time>2019-03-19T14:40:19Z</time>
      </trkpt>
      <trkpt lat="44.26989" lon="5.61104">
        <ele>1059</ele>
        <time>2019-03-19T14:40:20Z</time>
      </trkpt>
      <trkpt lat="44.26987" lon="5.61106">
        <ele>1059</ele>
        <time>2019-03-19T14:40:21Z</time>
      </trkpt>
      <trkpt lat="44.26984" lon="5.61107">
        <ele>1059</ele>
        <time>2019-03-19T14:40:22Z</time>
      </trkpt>
      <trkpt lat="44.26982" lon="5.61109">
        <ele>1060</ele>
        <time>2019-03-19T14:40:23Z</time>
      </trkpt>
      <trkpt lat="44.2698" lon="5.6111">
        <ele>1060</ele>
        <time>2019-03-19T14:40:24Z</time>
      </trkpt>
      <trkpt lat="44.26978" lon="5.61112">
        <ele>1060</ele>
        <time>2019-03-19T14:40:25Z</time>
      </trkpt>
      <trkpt lat="44.26975" lon="5.61114">
        <ele>1060</ele>
        <time>2019-03-19T14:40:26Z</time>
      </trkpt>
      <trkpt lat="44.26973" lon="5.61115">
        <ele>1060</ele>
        <time>2019-03-19T14:40:27Z</time>
      </trkpt>
      <trkpt lat="44.26971" lon="5.61118">
        <ele>1060</ele>
        <time>2019-03-19T14:40:28Z</time>
      </trkpt>
      <trkpt lat="44.2697" lon="5.61119">
        <ele>1060</ele>
        <time>2019-03-19T14:40:29Z</time>
      </trkpt>
      <trkpt lat="44.26968" lon="5.6112">
        <ele>1060</ele>
        <time>2019-03-19T14:40:30Z</time>
      </trkpt>
      <trkpt lat="44.26965" lon="5.61122">
        <ele>1060</ele>
        <time>2019-03-19T14:40:31Z</time>
      </trkpt>
      <trkpt lat="44.26964" lon="5.61123">
        <ele>1060</ele>
        <time>2019-03-19T14:40:32Z</time>
      </trkpt>
      <trkpt lat="44.26962" lon="5.61125">
        <ele>1060</ele>
        <time>2019-03-19T14:40:33Z</time>
      </trkpt>
      <trkpt lat="44.2696" lon="5.61126">
        <ele>1060</ele>
        <time>2019-03-19T14:40:34Z</time>
      </trkpt>
      <trkpt lat="44.26958" lon="5.61128">
        <ele>1060</ele>
        <time>2019-03-19T14:40:35Z</time>
      </trkpt>
      <trkpt lat="44.26955" lon="5.61129">
        <ele>1061</ele>
        <time>2019-03-19T14:40:36Z</time>
      </trkpt>
      <trkpt lat="44.26953" lon="5.6113">
        <ele>1061</ele>
        <time>2019-03-19T14:40:37Z</time>
      </trkpt>
      <trkpt lat="44.26951" lon="5.61131">
        <ele>1061</ele>
        <time>2019-03-19T14:40:38Z</time>
      </trkpt>
      <trkpt lat="44.26949" lon="5.61133">
        <ele>1061</ele>
        <time>2019-03-19T14:40:39Z</time>
      </trkpt>
      <trkpt lat="44.26947" lon="5.61134">
        <ele>1061</ele>
        <time>2019-03-19T14:40:40Z</time>
      </trkpt>
      <trkpt lat="44.26945" lon="5.61136">
        <ele>1061</ele>
        <time>2019-03-19T14:40:41Z</time>
      </trkpt>
      <trkpt lat="44.26943" lon="5.61137">
        <ele>1062</ele>
        <time>2019-03-19T14:40:42Z</time>
      </trkpt>
      <trkpt lat="44.26941" lon="5.61139">
        <ele>1062</ele>
        <time>2019-03-19T14:40:43Z</time>
      </trkpt>
      <trkpt lat="44.26939" lon="5.61141">
        <ele>1062</ele>
        <time>2019-03-19T14:40:44Z</time>
      </trkpt>
      <trkpt lat="44.26936" lon="5.61143">
        <ele>1062</ele>
        <time>2019-03-19T14:40:45Z</time>
      </trkpt>
      <trkpt lat="44.26934" lon="5.61145">
        <ele>1062</ele>
        <time>2019-03-19T14:40:46Z</time>
      </trkpt>
      <trkpt lat="44.26933" lon="5.61147">
        <ele>1063</ele>
        <time>2019-03-19T14:40:47Z</time>
      </trkpt>
      <trkpt lat="44.26931" lon="5.61149">
        <ele>1063</ele>
        <time>2019-03-19T14:40:48Z</time>
      </trkpt>
      <trkpt lat="44.26928" lon="5.61151">
        <ele>1063</ele>
        <time>2019-03-19T14:40:49Z</time>
      </trkpt>
      <trkpt lat="44.26926" lon="5.61153">
        <ele>1064</ele>
        <time>2019-03-19T14:40:50Z</time>
      </trkpt>
      <trkpt lat="44.26925" lon="5.61155">
        <ele>1064</ele>
        <time>2019-03-19T14:40:51Z</time>
      </trkpt>
      <trkpt lat="44.26923" lon="5.61157">
        <ele>1064</ele>
        <time>2019-03-19T14:40:52Z</time>
      </trkpt>
      <trkpt lat="44.26921" lon="5.6116">
        <ele>1065</ele>
        <time>2019-03-19T14:40:53Z</time>
      </trkpt>
      <trkpt lat="44.2692" lon="5.61162">
        <ele>1065</ele>
        <time>2019-03-19T14:40:54Z</time>
      </trkpt>
      <trkpt lat="44.26918" lon="5.61165">
        <ele>1065</ele>
        <time>2019-03-19T14:40:55Z</time>
      </trkpt>
      <trkpt lat="44.26916" lon="5.61167">
        <ele>1066</ele>
        <time>2019-03-19T14:40:56Z</time>
      </trkpt>
      <trkpt lat="44.26915" lon="5.61168">
        <ele>1066</ele>
        <time>2019-03-19T14:40:57Z</time>
      </trkpt>
      <trkpt lat="44.26913" lon="5.61171">
        <ele>1067</ele>
        <time>2019-03-19T14:40:58Z</time>
      </trkpt>
      <trkpt lat="44.26911" lon="5.61173">
        <ele>1067</ele>
        <time>2019-03-19T14:40:59Z</time>
      </trkpt>
      <trkpt lat="44.26909" lon="5.61175">
        <ele>1067</ele>
        <time>2019-03-19T14:41:00Z</time>
      </trkpt>
      <trkpt lat="44.26907" lon="5.61177">
        <ele>1067</ele>
        <time>2019-03-19T14:41:01Z</time>
      </trkpt>
      <trkpt lat="44.26906" lon="5.61179">
        <ele>1068</ele>
        <time>2019-03-19T14:41:02Z</time>
      </trkpt>
      <trkpt lat="44.26904" lon="5.61181">
        <ele>1068</ele>
        <time>2019-03-19T14:41:03Z</time>
      </trkpt>
      <trkpt lat="44.26902" lon="5.61183">
        <ele>1068</ele>
        <time>2019-03-19T14:41:04Z</time>
      </trkpt>
      <trkpt lat="44.269" lon="5.61185">
        <ele>1069</ele>
        <time>2019-03-19T14:41:05Z</time>
      </trkpt>
      <trkpt lat="44.26899" lon="5.61187">
        <ele>1069</ele>
        <time>2019-03-19T14:41:06Z</time>
      </trkpt>
      <trkpt lat="44.26897" lon="5.61189">
        <ele>1069</ele>
        <time>2019-03-19T14:41:07Z</time>
      </trkpt>
      <trkpt lat="44.26895" lon="5.61191">
        <ele>1069</ele>
        <time>2019-03-19T14:41:08Z</time>
      </trkpt>
      <trkpt lat="44.26893" lon="5.61192">
        <ele>1070</ele>
        <time>2019-03-19T14:41:09Z</time>
      </trkpt>
      <trkpt lat="44.26891" lon="5.61193">
        <ele>1070</ele>
        <time>2019-03-19T14:41:10Z</time>
      </trkpt>
      <trkpt lat="44.26889" lon="5.61195">
        <ele>1070</ele>
        <time>2019-03-19T14:41:11Z</time>
      </trkpt>
      <trkpt lat="44.26887" lon="5.61197">
        <ele>1071</ele>
        <time>2019-03-19T14:41:12Z</time>
      </trkpt>
      <trkpt lat="44.26885" lon="5.61198">
        <ele>1071</ele>
        <time>2019-03-19T14:41:13Z</time>
      </trkpt>
      <trkpt lat="44.26883" lon="5.612">
        <ele>1071</ele>
        <time>2019-03-19T14:41:14Z</time>
      </trkpt>
      <trkpt lat="44.26881" lon="5.61201">
        <ele>1071</ele>
        <time>2019-03-19T14:41:15Z</time>
      </trkpt>
      <trkpt lat="44.2688" lon="5.61202">
        <ele>1072</ele>
        <time>2019-03-19T14:41:16Z</time>
      </trkpt>
      <trkpt lat="44.26878" lon="5.61204">
        <ele>1072</ele>
        <time>2019-03-19T14:41:17Z</time>
      </trkpt>
      <trkpt lat="44.26876" lon="5.61205">
        <ele>1072</ele>
        <time>2019-03-19T14:41:18Z</time>
      </trkpt>
      <trkpt lat="44.26874" lon="5.61207">
        <ele>1072</ele>
        <time>2019-03-19T14:41:19Z</time>
      </trkpt>
      <trkpt lat="44.26872" lon="5.61208">
        <ele>1073</ele>
        <time>2019-03-19T14:41:20Z</time>
      </trkpt>
      <trkpt lat="44.2687" lon="5.61209">
        <ele>1073</ele>
        <time>2019-03-19T14:41:21Z</time>
      </trkpt>
      <trkpt lat="44.26868" lon="5.61209">
        <ele>1073</ele>
        <time>2019-03-19T14:41:22Z</time>
      </trkpt>
      <trkpt lat="44.26866" lon="5.6121">
        <ele>1073</ele>
        <time>2019-03-19T14:41:23Z</time>
      </trkpt>
      <trkpt lat="44.26864" lon="5.61211">
        <ele>1073</ele>
        <time>2019-03-19T14:41:24Z</time>
      </trkpt>
      <trkpt lat="44.26862" lon="5.61213">
        <ele>1073</ele>
        <time>2019-03-19T14:41:25Z</time>
      </trkpt>
      <trkpt lat="44.2686" lon="5.61214">
        <ele>1073</ele>
        <time>2019-03-19T14:41:26Z</time>
      </trkpt>
      <trkpt lat="44.26858" lon="5.61216">
        <ele>1073</ele>
        <time>2019-03-19T14:41:27Z</time>
      </trkpt>
      <trkpt lat="44.26857" lon="5.61217">
        <ele>1073</ele>
        <time>2019-03-19T14:41:28Z</time>
      </trkpt>
      <trkpt lat="44.26855" lon="5.61219">
        <ele>1074</ele>
        <time>2019-03-19T14:41:29Z</time>
      </trkpt>
      <trkpt lat="44.26853" lon="5.61221">
        <ele>1074</ele>
        <time>2019-03-19T14:41:30Z</time>
      </trkpt>
      <trkpt lat="44.26851" lon="5.61222">
        <ele>1074</ele>
        <time>2019-03-19T14:41:31Z</time>
      </trkpt>
      <trkpt lat="44.26849" lon="5.61224">
        <ele>1074</ele>
        <time>2019-03-19T14:41:32Z</time>
      </trkpt>
      <trkpt lat="44.26847" lon="5.61225">
        <ele>1075</ele>
        <time>2019-03-19T14:41:33Z</time>
      </trkpt>
      <trkpt lat="44.26845" lon="5.61227">
        <ele>1075</ele>
        <time>2019-03-19T14:41:34Z</time>
      </trkpt>
      <trkpt lat="44.26844" lon="5.61228">
        <ele>1075</ele>
        <time>2019-03-19T14:41:35Z</time>
      </trkpt>
      <trkpt lat="44.26842" lon="5.6123">
        <ele>1075</ele>
        <time>2019-03-19T14:41:36Z</time>
      </trkpt>
      <trkpt lat="44.2684" lon="5.61231">
        <ele>1075</ele>
        <time>2019-03-19T14:41:37Z</time>
      </trkpt>
      <trkpt lat="44.26838" lon="5.61233">
        <ele>1076</ele>
        <time>2019-03-19T14:41:38Z</time>
      </trkpt>
      <trkpt lat="44.26836" lon="5.61235">
        <ele>1076</ele>
        <time>2019-03-19T14:41:39Z</time>
      </trkpt>
      <trkpt lat="44.26835" lon="5.61236">
        <ele>1076</ele>
        <time>2019-03-19T14:41:40Z</time>
      </trkpt>
      <trkpt lat="44.26833" lon="5.61238">
        <ele>1077</ele>
        <time>2019-03-19T14:41:41Z</time>
      </trkpt>
      <trkpt lat="44.26831" lon="5.6124">
        <ele>1077</ele>
        <time>2019-03-19T14:41:42Z</time>
      </trkpt>
      <trkpt lat="44.2683" lon="5.61243">
        <ele>1077</ele>
        <time>2019-03-19T14:41:43Z</time>
      </trkpt>
      <trkpt lat="44.26829" lon="5.61245">
        <ele>1078</ele>
        <time>2019-03-19T14:41:44Z</time>
      </trkpt>
      <trkpt lat="44.26827" lon="5.61247">
        <ele>1078</ele>
        <time>2019-03-19T14:41:45Z</time>
      </trkpt>
      <trkpt lat="44.26826" lon="5.6125">
        <ele>1079</ele>
        <time>2019-03-19T14:41:46Z</time>
      </trkpt>
      <trkpt lat="44.26824" lon="5.61252">
        <ele>1079</ele>
        <time>2019-03-19T14:41:47Z</time>
      </trkpt>
      <trkpt lat="44.26823" lon="5.61255">
        <ele>1079</ele>
        <time>2019-03-19T14:41:48Z</time>
      </trkpt>
      <trkpt lat="44.26822" lon="5.61258">
        <ele>1080</ele>
        <time>2019-03-19T14:41:49Z</time>
      </trkpt>
      <trkpt lat="44.2682" lon="5.61261">
        <ele>1080</ele>
        <time>2019-03-19T14:41:50Z</time>
      </trkpt>
      <trkpt lat="44.2682" lon="5.61263">
        <ele>1080</ele>
        <time>2019-03-19T14:41:51Z</time>
      </trkpt>
      <trkpt lat="44.26819" lon="5.61266">
        <ele>1081</ele>
        <time>2019-03-19T14:41:52Z</time>
      </trkpt>
      <trkpt lat="44.26818" lon="5.61269">
        <ele>1081</ele>
        <time>2019-03-19T14:41:53Z</time>
      </trkpt>
      <trkpt lat="44.26816" lon="5.61271">
        <ele>1081</ele>
        <time>2019-03-19T14:41:54Z</time>
      </trkpt>
      <trkpt lat="44.26815" lon="5.61274">
        <ele>1081</ele>
        <time>2019-03-19T14:41:55Z</time>
      </trkpt>
      <trkpt lat="44.26814" lon="5.61277">
        <ele>1082</ele>
        <time>2019-03-19T14:41:56Z</time>
      </trkpt>
      <trkpt lat="44.26813" lon="5.61279">
        <ele>1082</ele>
        <time>2019-03-19T14:41:57Z</time>
      </trkpt>
      <trkpt lat="44.26811" lon="5.61282">
        <ele>1082</ele>
        <time>2019-03-19T14:41:58Z</time>
      </trkpt>
      <trkpt lat="44.2681" lon="5.61284">
        <ele>1082</ele>
        <time>2019-03-19T14:41:59Z</time>
      </trkpt>
      <trkpt lat="44.26809" lon="5.61287">
        <ele>1082</ele>
        <time>2019-03-19T14:42:00Z</time>
      </trkpt>
      <trkpt lat="44.26807" lon="5.61289">
        <ele>1082</ele>
        <time>2019-03-19T14:42:01Z</time>
      </trkpt>
      <trkpt lat="44.26805" lon="5.61291">
        <ele>1082</ele>
        <time>2019-03-19T14:42:02Z</time>
      </trkpt>
      <trkpt lat="44.26804" lon="5.61294">
        <ele>1082</ele>
        <time>2019-03-19T14:42:03Z</time>
      </trkpt>
      <trkpt lat="44.26803" lon="5.61297">
        <ele>1082</ele>
        <time>2019-03-19T14:42:04Z</time>
      </trkpt>
      <trkpt lat="44.26802" lon="5.61299">
        <ele>1083</ele>
        <time>2019-03-19T14:42:05Z</time>
      </trkpt>
      <trkpt lat="44.268" lon="5.613">
        <ele>1083</ele>
        <time>2019-03-19T14:42:06Z</time>
      </trkpt>
      <trkpt lat="44.26798" lon="5.61302">
        <ele>1083</ele>
        <time>2019-03-19T14:42:07Z</time>
      </trkpt>
      <trkpt lat="44.26797" lon="5.61305">
        <ele>1083</ele>
        <time>2019-03-19T14:42:08Z</time>
      </trkpt>
      <trkpt lat="44.26796" lon="5.61307">
        <ele>1083</ele>
        <time>2019-03-19T14:42:09Z</time>
      </trkpt>
      <trkpt lat="44.26795" lon="5.6131">
        <ele>1083</ele>
        <time>2019-03-19T14:42:10Z</time>
      </trkpt>
      <trkpt lat="44.26794" lon="5.61312">
        <ele>1083</ele>
        <time>2019-03-19T14:42:11Z</time>
      </trkpt>
      <trkpt lat="44.26791" lon="5.61314">
        <ele>1084</ele>
        <time>2019-03-19T14:42:12Z</time>
      </trkpt>
      <trkpt lat="44.26789" lon="5.61315">
        <ele>1084</ele>
        <time>2019-03-19T14:42:13Z</time>
      </trkpt>
      <trkpt lat="44.26787" lon="5.61317">
        <ele>1084</ele>
        <time>2019-03-19T14:42:14Z</time>
      </trkpt>
      <trkpt lat="44.26786" lon="5.61318">
        <ele>1084</ele>
        <time>2019-03-19T14:42:15Z</time>
      </trkpt>
      <trkpt lat="44.26784" lon="5.61321">
        <ele>1084</ele>
        <time>2019-03-19T14:42:16Z</time>
      </trkpt>
      <trkpt lat="44.26783" lon="5.61323">
        <ele>1084</ele>
        <time>2019-03-19T14:42:17Z</time>
      </trkpt>
      <trkpt lat="44.26782" lon="5.61325">
        <ele>1084</ele>
        <time>2019-03-19T14:42:18Z</time>
      </trkpt>
      <trkpt lat="44.2678" lon="5.61327">
        <ele>1085</ele>
        <time>2019-03-19T14:42:19Z</time>
      </trkpt>
      <trkpt lat="44.26779" lon="5.61329">
        <ele>1085</ele>
        <time>2019-03-19T14:42:20Z</time>
      </trkpt>
      <trkpt lat="44.26777" lon="5.61331">
        <ele>1085</ele>
        <time>2019-03-19T14:42:21Z</time>
      </trkpt>
      <trkpt lat="44.26776" lon="5.61333">
        <ele>1085</ele>
        <time>2019-03-19T14:42:22Z</time>
      </trkpt>
      <trkpt lat="44.26775" lon="5.61336">
        <ele>1086</ele>
        <time>2019-03-19T14:42:23Z</time>
      </trkpt>
      <trkpt lat="44.26773" lon="5.61338">
        <ele>1086</ele>
        <time>2019-03-19T14:42:24Z</time>
      </trkpt>
      <trkpt lat="44.26772" lon="5.6134">
        <ele>1086</ele>
        <time>2019-03-19T14:42:25Z</time>
      </trkpt>
      <trkpt lat="44.2677" lon="5.61341">
        <ele>1087</ele>
        <time>2019-03-19T14:42:26Z</time>
      </trkpt>
      <trkpt lat="44.26768" lon="5.61343">
        <ele>1087</ele>
        <time>2019-03-19T14:42:27Z</time>
      </trkpt>
      <trkpt lat="44.26767" lon="5.61345">
        <ele>1087</ele>
        <time>2019-03-19T14:42:28Z</time>
      </trkpt>
      <trkpt lat="44.26765" lon="5.61347">
        <ele>1088</ele>
        <time>2019-03-19T14:42:29Z</time>
      </trkpt>
      <trkpt lat="44.26763" lon="5.61349">
        <ele>1088</ele>
        <time>2019-03-19T14:42:30Z</time>
      </trkpt>
      <trkpt lat="44.26761" lon="5.61351">
        <ele>1088</ele>
        <time>2019-03-19T14:42:31Z</time>
      </trkpt>
      <trkpt lat="44.2676" lon="5.61353">
        <ele>1089</ele>
        <time>2019-03-19T14:42:32Z</time>
      </trkpt>
      <trkpt lat="44.26758" lon="5.61354">
        <ele>1089</ele>
        <time>2019-03-19T14:42:33Z</time>
      </trkpt>
      <trkpt lat="44.26756" lon="5.61356">
        <ele>1089</ele>
        <time>2019-03-19T14:42:34Z</time>
      </trkpt>
      <trkpt lat="44.26754" lon="5.61358">
        <ele>1090</ele>
        <time>2019-03-19T14:42:35Z</time>
      </trkpt>
      <trkpt lat="44.26753" lon="5.6136">
        <ele>1090</ele>
        <time>2019-03-19T14:42:36Z</time>
      </trkpt>
      <trkpt lat="44.26751" lon="5.61362">
        <ele>1090</ele>
        <time>2019-03-19T14:42:37Z</time>
      </trkpt>
      <trkpt lat="44.2675" lon="5.61364">
        <ele>1090</ele>
        <time>2019-03-19T14:42:38Z</time>
      </trkpt>
      <trkpt lat="44.26748" lon="5.61366">
        <ele>1091</ele>
        <time>2019-03-19T14:42:39Z</time>
      </trkpt>
      <trkpt lat="44.26746" lon="5.61368">
        <ele>1091</ele>
        <time>2019-03-19T14:42:40Z</time>
      </trkpt>
      <trkpt lat="44.26745" lon="5.6137">
        <ele>1091</ele>
        <time>2019-03-19T14:42:41Z</time>
      </trkpt>
      <trkpt lat="44.26743" lon="5.61371">
        <ele>1091</ele>
        <time>2019-03-19T14:42:42Z</time>
      </trkpt>
      <trkpt lat="44.26741" lon="5.61373">
        <ele>1091</ele>
        <time>2019-03-19T14:42:43Z</time>
      </trkpt>
      <trkpt lat="44.26739" lon="5.61374">
        <ele>1091</ele>
        <time>2019-03-19T14:42:44Z</time>
      </trkpt>
      <trkpt lat="44.26737" lon="5.61376">
        <ele>1092</ele>
        <time>2019-03-19T14:42:45Z</time>
      </trkpt>
      <trkpt lat="44.26736" lon="5.61378">
        <ele>1092</ele>
        <time>2019-03-19T14:42:46Z</time>
      </trkpt>
      <trkpt lat="44.26734" lon="5.61381">
        <ele>1092</ele>
        <time>2019-03-19T14:42:47Z</time>
      </trkpt>
      <trkpt lat="44.26732" lon="5.61383">
        <ele>1092</ele>
        <time>2019-03-19T14:42:48Z</time>
      </trkpt>
      <trkpt lat="44.2673" lon="5.61385">
        <ele>1092</ele>
        <time>2019-03-19T14:42:49Z</time>
      </trkpt>
      <trkpt lat="44.26729" lon="5.61387">
        <ele>1092</ele>
        <time>2019-03-19T14:42:50Z</time>
      </trkpt>
      <trkpt lat="44.26727" lon="5.61388">
        <ele>1093</ele>
        <time>2019-03-19T14:42:51Z</time>
      </trkpt>
      <trkpt lat="44.26725" lon="5.6139">
        <ele>1093</ele>
        <time>2019-03-19T14:42:52Z</time>
      </trkpt>
      <trkpt lat="44.26723" lon="5.61392">
        <ele>1093</ele>
        <time>2019-03-19T14:42:53Z</time>
      </trkpt>
      <trkpt lat="44.26722" lon="5.61394">
        <ele>1093</ele>
        <time>2019-03-19T14:42:54Z</time>
      </trkpt>
      <trkpt lat="44.2672" lon="5.61396">
        <ele>1093</ele>
        <time>2019-03-19T14:42:55Z</time>
      </trkpt>
      <trkpt lat="44.26718" lon="5.61398">
        <ele>1093</ele>
        <time>2019-03-19T14:42:56Z</time>
      </trkpt>
      <trkpt lat="44.26717" lon="5.614">
        <ele>1093</ele>
        <time>2019-03-19T14:42:57Z</time>
      </trkpt>
      <trkpt lat="44.26715" lon="5.61402">
        <ele>1093</ele>
        <time>2019-03-19T14:42:58Z</time>
      </trkpt>
      <trkpt lat="44.26713" lon="5.61403">
        <ele>1093</ele>
        <time>2019-03-19T14:42:59Z</time>
      </trkpt>
      <trkpt lat="44.26712" lon="5.61405">
        <ele>1094</ele>
        <time>2019-03-19T14:43:00Z</time>
      </trkpt>
      <trkpt lat="44.2671" lon="5.61406">
        <ele>1094</ele>
        <time>2019-03-19T14:43:01Z</time>
      </trkpt>
      <trkpt lat="44.26708" lon="5.61408">
        <ele>1094</ele>
        <time>2019-03-19T14:43:02Z</time>
      </trkpt>
      <trkpt lat="44.26707" lon="5.6141">
        <ele>1094</ele>
        <time>2019-03-19T14:43:03Z</time>
      </trkpt>
      <trkpt lat="44.26705" lon="5.61412">
        <ele>1094</ele>
        <time>2019-03-19T14:43:04Z</time>
      </trkpt>
      <trkpt lat="44.26704" lon="5.61414">
        <ele>1095</ele>
        <time>2019-03-19T14:43:05Z</time>
      </trkpt>
      <trkpt lat="44.26702" lon="5.61416">
        <ele>1095</ele>
        <time>2019-03-19T14:43:06Z</time>
      </trkpt>
      <trkpt lat="44.267" lon="5.61418">
        <ele>1095</ele>
        <time>2019-03-19T14:43:07Z</time>
      </trkpt>
      <trkpt lat="44.26698" lon="5.6142">
        <ele>1095</ele>
        <time>2019-03-19T14:43:08Z</time>
      </trkpt>
      <trkpt lat="44.26696" lon="5.61421">
        <ele>1095</ele>
        <time>2019-03-19T14:43:09Z</time>
      </trkpt>
      <trkpt lat="44.26695" lon="5.61423">
        <ele>1095</ele>
        <time>2019-03-19T14:43:10Z</time>
      </trkpt>
      <trkpt lat="44.26693" lon="5.61425">
        <ele>1095</ele>
        <time>2019-03-19T14:43:11Z</time>
      </trkpt>
      <trkpt lat="44.26691" lon="5.61427">
        <ele>1096</ele>
        <time>2019-03-19T14:43:12Z</time>
      </trkpt>
      <trkpt lat="44.2669" lon="5.61428">
        <ele>1096</ele>
        <time>2019-03-19T14:43:13Z</time>
      </trkpt>
      <trkpt lat="44.26688" lon="5.6143">
        <ele>1096</ele>
        <time>2019-03-19T14:43:14Z</time>
      </trkpt>
      <trkpt lat="44.26686" lon="5.61432">
        <ele>1096</ele>
        <time>2019-03-19T14:43:15Z</time>
      </trkpt>
      <trkpt lat="44.26685" lon="5.61434">
        <ele>1096</ele>
        <time>2019-03-19T14:43:16Z</time>
      </trkpt>
      <trkpt lat="44.26683" lon="5.61435">
        <ele>1097</ele>
        <time>2019-03-19T14:43:17Z</time>
      </trkpt>
      <trkpt lat="44.26681" lon="5.61437">
        <ele>1097</ele>
        <time>2019-03-19T14:43:18Z</time>
      </trkpt>
      <trkpt lat="44.2668" lon="5.61439">
        <ele>1097</ele>
        <time>2019-03-19T14:43:19Z</time>
      </trkpt>
      <trkpt lat="44.26678" lon="5.6144">
        <ele>1097</ele>
        <time>2019-03-19T14:43:20Z</time>
      </trkpt>
      <trkpt lat="44.26676" lon="5.61442">
        <ele>1097</ele>
        <time>2019-03-19T14:43:21Z</time>
      </trkpt>
      <trkpt lat="44.26674" lon="5.61443">
        <ele>1097</ele>
        <time>2019-03-19T14:43:22Z</time>
      </trkpt>
      <trkpt lat="44.26672" lon="5.61444">
        <ele>1097</ele>
        <time>2019-03-19T14:43:23Z</time>
      </trkpt>
      <trkpt lat="44.2667" lon="5.61446">
        <ele>1097</ele>
        <time>2019-03-19T14:43:24Z</time>
      </trkpt>
      <trkpt lat="44.26668" lon="5.61448">
        <ele>1097</ele>
        <time>2019-03-19T14:43:25Z</time>
      </trkpt>
      <trkpt lat="44.26667" lon="5.6145">
        <ele>1098</ele>
        <time>2019-03-19T14:43:26Z</time>
      </trkpt>
      <trkpt lat="44.26665" lon="5.61451">
        <ele>1098</ele>
        <time>2019-03-19T14:43:27Z</time>
      </trkpt>
      <trkpt lat="44.26663" lon="5.61452">
        <ele>1098</ele>
        <time>2019-03-19T14:43:28Z</time>
      </trkpt>
      <trkpt lat="44.26661" lon="5.61453">
        <ele>1098</ele>
        <time>2019-03-19T14:43:29Z</time>
      </trkpt>
      <trkpt lat="44.26659" lon="5.61454">
        <ele>1099</ele>
        <time>2019-03-19T14:43:30Z</time>
      </trkpt>
      <trkpt lat="44.26656" lon="5.61455">
        <ele>1099</ele>
        <time>2019-03-19T14:43:31Z</time>
      </trkpt>
      <trkpt lat="44.26654" lon="5.61456">
        <ele>1099</ele>
        <time>2019-03-19T14:43:32Z</time>
      </trkpt>
      <trkpt lat="44.26652" lon="5.61457">
        <ele>1099</ele>
        <time>2019-03-19T14:43:33Z</time>
      </trkpt>
      <trkpt lat="44.2665" lon="5.61459">
        <ele>1099</ele>
        <time>2019-03-19T14:43:34Z</time>
      </trkpt>
      <trkpt lat="44.26648" lon="5.6146">
        <ele>1100</ele>
        <time>2019-03-19T14:43:35Z</time>
      </trkpt>
      <trkpt lat="44.26646" lon="5.6146">
        <ele>1100</ele>
        <time>2019-03-19T14:43:36Z</time>
      </trkpt>
      <trkpt lat="44.26644" lon="5.61461">
        <ele>1100</ele>
        <time>2019-03-19T14:43:37Z</time>
      </trkpt>
      <trkpt lat="44.26641" lon="5.61461">
        <ele>1100</ele>
        <time>2019-03-19T14:43:38Z</time>
      </trkpt>
      <trkpt lat="44.2664" lon="5.61462">
        <ele>1101</ele>
        <time>2019-03-19T14:43:39Z</time>
      </trkpt>
      <trkpt lat="44.26638" lon="5.61463">
        <ele>1101</ele>
        <time>2019-03-19T14:43:40Z</time>
      </trkpt>
      <trkpt lat="44.26635" lon="5.61465">
        <ele>1101</ele>
        <time>2019-03-19T14:43:41Z</time>
      </trkpt>
      <trkpt lat="44.26633" lon="5.61466">
        <ele>1101</ele>
        <time>2019-03-19T14:43:42Z</time>
      </trkpt>
      <trkpt lat="44.26631" lon="5.61467">
        <ele>1101</ele>
        <time>2019-03-19T14:43:43Z</time>
      </trkpt>
      <trkpt lat="44.26629" lon="5.61468">
        <ele>1102</ele>
        <time>2019-03-19T14:43:44Z</time>
      </trkpt>
      <trkpt lat="44.26627" lon="5.61469">
        <ele>1102</ele>
        <time>2019-03-19T14:43:45Z</time>
      </trkpt>
      <trkpt lat="44.26625" lon="5.61471">
        <ele>1102</ele>
        <time>2019-03-19T14:43:46Z</time>
      </trkpt>
      <trkpt lat="44.26623" lon="5.61473">
        <ele>1102</ele>
        <time>2019-03-19T14:43:47Z</time>
      </trkpt>
      <trkpt lat="44.26621" lon="5.61474">
        <ele>1102</ele>
        <time>2019-03-19T14:43:48Z</time>
      </trkpt>
      <trkpt lat="44.26619" lon="5.61476">
        <ele>1102</ele>
        <time>2019-03-19T14:43:49Z</time>
      </trkpt>
      <trkpt lat="44.26618" lon="5.61479">
        <ele>1102</ele>
        <time>2019-03-19T14:43:50Z</time>
      </trkpt>
      <trkpt lat="44.26616" lon="5.61481">
        <ele>1102</ele>
        <time>2019-03-19T14:43:51Z</time>
      </trkpt>
      <trkpt lat="44.26615" lon="5.61484">
        <ele>1102</ele>
        <time>2019-03-19T14:43:52Z</time>
      </trkpt>
      <trkpt lat="44.26613" lon="5.61486">
        <ele>1103</ele>
        <time>2019-03-19T14:43:53Z</time>
      </trkpt>
      <trkpt lat="44.26611" lon="5.61488">
        <ele>1103</ele>
        <time>2019-03-19T14:43:54Z</time>
      </trkpt>
      <trkpt lat="44.26609" lon="5.6149">
        <ele>1103</ele>
        <time>2019-03-19T14:43:55Z</time>
      </trkpt>
      <trkpt lat="44.26608" lon="5.61493">
        <ele>1103</ele>
        <time>2019-03-19T14:43:56Z</time>
      </trkpt>
      <trkpt lat="44.26607" lon="5.61496">
        <ele>1103</ele>
        <time>2019-03-19T14:43:57Z</time>
      </trkpt>
      <trkpt lat="44.26606" lon="5.61498">
        <ele>1103</ele>
        <time>2019-03-19T14:43:58Z</time>
      </trkpt>
      <trkpt lat="44.26604" lon="5.61501">
        <ele>1103</ele>
        <time>2019-03-19T14:43:59Z</time>
      </trkpt>
      <trkpt lat="44.26603" lon="5.61504">
        <ele>1104</ele>
        <time>2019-03-19T14:44:00Z</time>
      </trkpt>
      <trkpt lat="44.26601" lon="5.61506">
        <ele>1104</ele>
        <time>2019-03-19T14:44:01Z</time>
      </trkpt>
      <trkpt lat="44.266" lon="5.61508">
        <ele>1104</ele>
        <time>2019-03-19T14:44:02Z</time>
      </trkpt>
      <trkpt lat="44.26598" lon="5.61511">
        <ele>1104</ele>
        <time>2019-03-19T14:44:03Z</time>
      </trkpt>
      <trkpt lat="44.26597" lon="5.61513">
        <ele>1104</ele>
        <time>2019-03-19T14:44:04Z</time>
      </trkpt>
      <trkpt lat="44.26596" lon="5.61516">
        <ele>1104</ele>
        <time>2019-03-19T14:44:05Z</time>
      </trkpt>
      <trkpt lat="44.26595" lon="5.61519">
        <ele>1104</ele>
        <time>2019-03-19T14:44:06Z</time>
      </trkpt>
      <trkpt lat="44.26593" lon="5.61521">
        <ele>1104</ele>
        <time>2019-03-19T14:44:07Z</time>
      </trkpt>
      <trkpt lat="44.26592" lon="5.61524">
        <ele>1104</ele>
        <time>2019-03-19T14:44:08Z</time>
      </trkpt>
      <trkpt lat="44.2659" lon="5.61526">
        <ele>1104</ele>
        <time>2019-03-19T14:44:09Z</time>
      </trkpt>
      <trkpt lat="44.26589" lon="5.61529">
        <ele>1104</ele>
        <time>2019-03-19T14:44:10Z</time>
      </trkpt>
      <trkpt lat="44.26587" lon="5.61531">
        <ele>1105</ele>
        <time>2019-03-19T14:44:11Z</time>
      </trkpt>
      <trkpt lat="44.26586" lon="5.61533">
        <ele>1105</ele>
        <time>2019-03-19T14:44:12Z</time>
      </trkpt>
      <trkpt lat="44.26585" lon="5.61535">
        <ele>1105</ele>
        <time>2019-03-19T14:44:13Z</time>
      </trkpt>
      <trkpt lat="44.26583" lon="5.61538">
        <ele>1105</ele>
        <time>2019-03-19T14:44:14Z</time>
      </trkpt>
      <trkpt lat="44.26582" lon="5.6154">
        <ele>1105</ele>
        <time>2019-03-19T14:44:15Z</time>
      </trkpt>
      <trkpt lat="44.26581" lon="5.61542">
        <ele>1105</ele>
        <time>2019-03-19T14:44:16Z</time>
      </trkpt>
      <trkpt lat="44.2658" lon="5.61545">
        <ele>1105</ele>
        <time>2019-03-19T14:44:17Z</time>
      </trkpt>
      <trkpt lat="44.26578" lon="5.61547">
        <ele>1106</ele>
        <time>2019-03-19T14:44:18Z</time>
      </trkpt>
      <trkpt lat="44.26577" lon="5.6155">
        <ele>1106</ele>
        <time>2019-03-19T14:44:19Z</time>
      </trkpt>
      <trkpt lat="44.26575" lon="5.61552">
        <ele>1106</ele>
        <time>2019-03-19T14:44:20Z</time>
      </trkpt>
      <trkpt lat="44.26574" lon="5.61554">
        <ele>1106</ele>
        <time>2019-03-19T14:44:21Z</time>
      </trkpt>
      <trkpt lat="44.26573" lon="5.61557">
        <ele>1106</ele>
        <time>2019-03-19T14:44:22Z</time>
      </trkpt>
      <trkpt lat="44.26572" lon="5.61559">
        <ele>1106</ele>
        <time>2019-03-19T14:44:23Z</time>
      </trkpt>
      <trkpt lat="44.26571" lon="5.61562">
        <ele>1106</ele>
        <time>2019-03-19T14:44:24Z</time>
      </trkpt>
      <trkpt lat="44.26569" lon="5.61564">
        <ele>1106</ele>
        <time>2019-03-19T14:44:25Z</time>
      </trkpt>
      <trkpt lat="44.26568" lon="5.61567">
        <ele>1106</ele>
        <time>2019-03-19T14:44:26Z</time>
      </trkpt>
      <trkpt lat="44.26567" lon="5.61569">
        <ele>1107</ele>
        <time>2019-03-19T14:44:27Z</time>
      </trkpt>
      <trkpt lat="44.26566" lon="5.61572">
        <ele>1107</ele>
        <time>2019-03-19T14:44:28Z</time>
      </trkpt>
      <trkpt lat="44.26564" lon="5.61575">
        <ele>1107</ele>
        <time>2019-03-19T14:44:29Z</time>
      </trkpt>
      <trkpt lat="44.26563" lon="5.61577">
        <ele>1107</ele>
        <time>2019-03-19T14:44:30Z</time>
      </trkpt>
      <trkpt lat="44.26562" lon="5.6158">
        <ele>1107</ele>
        <time>2019-03-19T14:44:31Z</time>
      </trkpt>
      <trkpt lat="44.26561" lon="5.61583">
        <ele>1107</ele>
        <time>2019-03-19T14:44:32Z</time>
      </trkpt>
      <trkpt lat="44.2656" lon="5.61586">
        <ele>1107</ele>
        <time>2019-03-19T14:44:33Z</time>
      </trkpt>
      <trkpt lat="44.26559" lon="5.61589">
        <ele>1107</ele>
        <time>2019-03-19T14:44:34Z</time>
      </trkpt>
      <trkpt lat="44.26559" lon="5.61592">
        <ele>1107</ele>
        <time>2019-03-19T14:44:35Z</time>
      </trkpt>
      <trkpt lat="44.26558" lon="5.61595">
        <ele>1108</ele>
        <time>2019-03-19T14:44:36Z</time>
      </trkpt>
      <trkpt lat="44.26558" lon="5.61599">
        <ele>1108</ele>
        <time>2019-03-19T14:44:37Z</time>
      </trkpt>
      <trkpt lat="44.26558" lon="5.61602">
        <ele>1108</ele>
        <time>2019-03-19T14:44:38Z</time>
      </trkpt>
      <trkpt lat="44.26558" lon="5.61605">
        <ele>1108</ele>
        <time>2019-03-19T14:44:39Z</time>
      </trkpt>
      <trkpt lat="44.26558" lon="5.61608">
        <ele>1108</ele>
        <time>2019-03-19T14:44:40Z</time>
      </trkpt>
      <trkpt lat="44.26558" lon="5.61612">
        <ele>1108</ele>
        <time>2019-03-19T14:44:41Z</time>
      </trkpt>
      <trkpt lat="44.26557" lon="5.61615">
        <ele>1108</ele>
        <time>2019-03-19T14:44:42Z</time>
      </trkpt>
      <trkpt lat="44.26557" lon="5.61619">
        <ele>1108</ele>
        <time>2019-03-19T14:44:43Z</time>
      </trkpt>
      <trkpt lat="44.26556" lon="5.61622">
        <ele>1108</ele>
        <time>2019-03-19T14:44:44Z</time>
      </trkpt>
      <trkpt lat="44.26556" lon="5.61625">
        <ele>1108</ele>
        <time>2019-03-19T14:44:45Z</time>
      </trkpt>
      <trkpt lat="44.26555" lon="5.61629">
        <ele>1109</ele>
        <time>2019-03-19T14:44:46Z</time>
      </trkpt>
      <trkpt lat="44.26554" lon="5.61631">
        <ele>1109</ele>
        <time>2019-03-19T14:44:47Z</time>
      </trkpt>
      <trkpt lat="44.26553" lon="5.61634">
        <ele>1109</ele>
        <time>2019-03-19T14:44:48Z</time>
      </trkpt>
      <trkpt lat="44.26551" lon="5.61636">
        <ele>1109</ele>
        <time>2019-03-19T14:44:49Z</time>
      </trkpt>
      <trkpt lat="44.2655" lon="5.61639">
        <ele>1109</ele>
        <time>2019-03-19T14:44:50Z</time>
      </trkpt>
      <trkpt lat="44.26548" lon="5.61642">
        <ele>1109</ele>
        <time>2019-03-19T14:44:51Z</time>
      </trkpt>
      <trkpt lat="44.26547" lon="5.61645">
        <ele>1109</ele>
        <time>2019-03-19T14:44:52Z</time>
      </trkpt>
      <trkpt lat="44.26546" lon="5.61648">
        <ele>1110</ele>
        <time>2019-03-19T14:44:53Z</time>
      </trkpt>
      <trkpt lat="44.26545" lon="5.61651">
        <ele>1110</ele>
        <time>2019-03-19T14:44:54Z</time>
      </trkpt>
      <trkpt lat="44.26543" lon="5.61654">
        <ele>1110</ele>
        <time>2019-03-19T14:44:55Z</time>
      </trkpt>
      <trkpt lat="44.26543" lon="5.61657">
        <ele>1110</ele>
        <time>2019-03-19T14:44:56Z</time>
      </trkpt>
      <trkpt lat="44.26542" lon="5.6166">
        <ele>1110</ele>
        <time>2019-03-19T14:44:57Z</time>
      </trkpt>
      <trkpt lat="44.26541" lon="5.61663">
        <ele>1110</ele>
        <time>2019-03-19T14:44:58Z</time>
      </trkpt>
      <trkpt lat="44.26541" lon="5.61666">
        <ele>1111</ele>
        <time>2019-03-19T14:44:59Z</time>
      </trkpt>
      <trkpt lat="44.26541" lon="5.6167">
        <ele>1111</ele>
        <time>2019-03-19T14:45:00Z</time>
      </trkpt>
      <trkpt lat="44.2654" lon="5.61673">
        <ele>1111</ele>
        <time>2019-03-19T14:45:01Z</time>
      </trkpt>
      <trkpt lat="44.2654" lon="5.61676">
        <ele>1111</ele>
        <time>2019-03-19T14:45:02Z</time>
      </trkpt>
      <trkpt lat="44.2654" lon="5.61679">
        <ele>1111</ele>
        <time>2019-03-19T14:45:03Z</time>
      </trkpt>
      <trkpt lat="44.2654" lon="5.61682">
        <ele>1111</ele>
        <time>2019-03-19T14:45:04Z</time>
      </trkpt>
      <trkpt lat="44.2654" lon="5.61686">
        <ele>1112</ele>
        <time>2019-03-19T14:45:05Z</time>
      </trkpt>
      <trkpt lat="44.2654" lon="5.61689">
        <ele>1112</ele>
        <time>2019-03-19T14:45:06Z</time>
      </trkpt>
      <trkpt lat="44.26541" lon="5.61692">
        <ele>1112</ele>
        <time>2019-03-19T14:45:07Z</time>
      </trkpt>
      <trkpt lat="44.26541" lon="5.61695">
        <ele>1112</ele>
        <time>2019-03-19T14:45:08Z</time>
      </trkpt>
      <trkpt lat="44.26541" lon="5.61699">
        <ele>1112</ele>
        <time>2019-03-19T14:45:09Z</time>
      </trkpt>
      <trkpt lat="44.26542" lon="5.61702">
        <ele>1112</ele>
        <time>2019-03-19T14:45:10Z</time>
      </trkpt>
      <trkpt lat="44.26542" lon="5.61706">
        <ele>1112</ele>
        <time>2019-03-19T14:45:11Z</time>
      </trkpt>
      <trkpt lat="44.26542" lon="5.6171">
        <ele>1112</ele>
        <time>2019-03-19T14:45:12Z</time>
      </trkpt>
      <trkpt lat="44.26543" lon="5.61714">
        <ele>1112</ele>
        <time>2019-03-19T14:45:13Z</time>
      </trkpt>
      <trkpt lat="44.26543" lon="5.61718">
        <ele>1112</ele>
        <time>2019-03-19T14:45:14Z</time>
      </trkpt>
      <trkpt lat="44.26544" lon="5.61722">
        <ele>1112</ele>
        <time>2019-03-19T14:45:15Z</time>
      </trkpt>
      <trkpt lat="44.26545" lon="5.61726">
        <ele>1112</ele>
        <time>2019-03-19T14:45:16Z</time>
      </trkpt>
      <trkpt lat="44.26545" lon="5.61729">
        <ele>1112</ele>
        <time>2019-03-19T14:45:17Z</time>
      </trkpt>
      <trkpt lat="44.26546" lon="5.61734">
        <ele>1112</ele>
        <time>2019-03-19T14:45:18Z</time>
      </trkpt>
      <trkpt lat="44.26548" lon="5.61738">
        <ele>1112</ele>
        <time>2019-03-19T14:45:19Z</time>
      </trkpt>
      <trkpt lat="44.26549" lon="5.61743">
        <ele>1113</ele>
        <time>2019-03-19T14:45:20Z</time>
      </trkpt>
      <trkpt lat="44.26549" lon="5.61747">
        <ele>1113</ele>
        <time>2019-03-19T14:45:21Z</time>
      </trkpt>
      <trkpt lat="44.2655" lon="5.61751">
        <ele>1113</ele>
        <time>2019-03-19T14:45:22Z</time>
      </trkpt>
      <trkpt lat="44.2655" lon="5.61755">
        <ele>1113</ele>
        <time>2019-03-19T14:45:23Z</time>
      </trkpt>
      <trkpt lat="44.2655" lon="5.61759">
        <ele>1114</ele>
        <time>2019-03-19T14:45:24Z</time>
      </trkpt>
      <trkpt lat="44.2655" lon="5.61763">
        <ele>1114</ele>
        <time>2019-03-19T14:45:25Z</time>
      </trkpt>
      <trkpt lat="44.2655" lon="5.61767">
        <ele>1114</ele>
        <time>2019-03-19T14:45:26Z</time>
      </trkpt>
      <trkpt lat="44.2655" lon="5.61771">
        <ele>1114</ele>
        <time>2019-03-19T14:45:27Z</time>
      </trkpt>
      <trkpt lat="44.26549" lon="5.61774">
        <ele>1114</ele>
        <time>2019-03-19T14:45:28Z</time>
      </trkpt>
      <trkpt lat="44.26548" lon="5.61778">
        <ele>1114</ele>
        <time>2019-03-19T14:45:29Z</time>
      </trkpt>
      <trkpt lat="44.26547" lon="5.61781">
        <ele>1114</ele>
        <time>2019-03-19T14:45:30Z</time>
      </trkpt>
      <trkpt lat="44.26546" lon="5.61784">
        <ele>1115</ele>
        <time>2019-03-19T14:45:31Z</time>
      </trkpt>
      <trkpt lat="44.26545" lon="5.61787">
        <ele>1115</ele>
        <time>2019-03-19T14:45:32Z</time>
      </trkpt>
      <trkpt lat="44.26544" lon="5.61791">
        <ele>1115</ele>
        <time>2019-03-19T14:45:33Z</time>
      </trkpt>
      <trkpt lat="44.26543" lon="5.61794">
        <ele>1115</ele>
        <time>2019-03-19T14:45:34Z</time>
      </trkpt>
      <trkpt lat="44.26541" lon="5.61797">
        <ele>1116</ele>
        <time>2019-03-19T14:45:35Z</time>
      </trkpt>
      <trkpt lat="44.2654" lon="5.618">
        <ele>1116</ele>
        <time>2019-03-19T14:45:36Z</time>
      </trkpt>
      <trkpt lat="44.26537" lon="5.61802">
        <ele>1116</ele>
        <time>2019-03-19T14:45:37Z</time>
      </trkpt>
      <trkpt lat="44.26535" lon="5.61805">
        <ele>1116</ele>
        <time>2019-03-19T14:45:38Z</time>
      </trkpt>
      <trkpt lat="44.26533" lon="5.61807">
        <ele>1117</ele>
        <time>2019-03-19T14:45:39Z</time>
      </trkpt>
      <trkpt lat="44.26531" lon="5.61808">
        <ele>1117</ele>
        <time>2019-03-19T14:45:40Z</time>
      </trkpt>
      <trkpt lat="44.26529" lon="5.61809">
        <ele>1117</ele>
        <time>2019-03-19T14:45:41Z</time>
      </trkpt>
      <trkpt lat="44.26526" lon="5.61811">
        <ele>1117</ele>
        <time>2019-03-19T14:45:42Z</time>
      </trkpt>
      <trkpt lat="44.26524" lon="5.61812">
        <ele>1117</ele>
        <time>2019-03-19T14:45:43Z</time>
      </trkpt>
      <trkpt lat="44.26521" lon="5.61812">
        <ele>1118</ele>
        <time>2019-03-19T14:45:44Z</time>
      </trkpt>
      <trkpt lat="44.26519" lon="5.61812">
        <ele>1118</ele>
        <time>2019-03-19T14:45:45Z</time>
      </trkpt>
      <trkpt lat="44.26516" lon="5.61812">
        <ele>1118</ele>
        <time>2019-03-19T14:45:46Z</time>
      </trkpt>
      <trkpt lat="44.26513" lon="5.61812">
        <ele>1118</ele>
        <time>2019-03-19T14:45:47Z</time>
      </trkpt>
      <trkpt lat="44.26511" lon="5.61811">
        <ele>1118</ele>
        <time>2019-03-19T14:45:48Z</time>
      </trkpt>
      <trkpt lat="44.26508" lon="5.61811">
        <ele>1118</ele>
        <time>2019-03-19T14:45:49Z</time>
      </trkpt>
      <trkpt lat="44.26505" lon="5.61811">
        <ele>1118</ele>
        <time>2019-03-19T14:45:50Z</time>
      </trkpt>
      <trkpt lat="44.26502" lon="5.61811">
        <ele>1118</ele>
        <time>2019-03-19T14:45:51Z</time>
      </trkpt>
      <trkpt lat="44.265" lon="5.61811">
        <ele>1118</ele>
        <time>2019-03-19T14:45:52Z</time>
      </trkpt>
      <trkpt lat="44.26497" lon="5.61812">
        <ele>1118</ele>
        <time>2019-03-19T14:45:53Z</time>
      </trkpt>
      <trkpt lat="44.26494" lon="5.61812">
        <ele>1119</ele>
        <time>2019-03-19T14:45:54Z</time>
      </trkpt>
      <trkpt lat="44.26492" lon="5.61813">
        <ele>1119</ele>
        <time>2019-03-19T14:45:55Z</time>
      </trkpt>
      <trkpt lat="44.26489" lon="5.61815">
        <ele>1119</ele>
        <time>2019-03-19T14:45:56Z</time>
      </trkpt>
      <trkpt lat="44.26487" lon="5.61816">
        <ele>1119</ele>
        <time>2019-03-19T14:45:57Z</time>
      </trkpt>
      <trkpt lat="44.26484" lon="5.61818">
        <ele>1119</ele>
        <time>2019-03-19T14:45:58Z</time>
      </trkpt>
      <trkpt lat="44.26482" lon="5.6182">
        <ele>1120</ele>
        <time>2019-03-19T14:45:59Z</time>
      </trkpt>
      <trkpt lat="44.2648" lon="5.61822">
        <ele>1120</ele>
        <time>2019-03-19T14:46:00Z</time>
      </trkpt>
      <trkpt lat="44.26479" lon="5.61825">
        <ele>1120</ele>
        <time>2019-03-19T14:46:01Z</time>
      </trkpt>
      <trkpt lat="44.26477" lon="5.61827">
        <ele>1120</ele>
        <time>2019-03-19T14:46:02Z</time>
      </trkpt>
      <trkpt lat="44.26475" lon="5.61829">
        <ele>1121</ele>
        <time>2019-03-19T14:46:03Z</time>
      </trkpt>
      <trkpt lat="44.26474" lon="5.61832">
        <ele>1121</ele>
        <time>2019-03-19T14:46:04Z</time>
      </trkpt>
      <trkpt lat="44.26472" lon="5.61834">
        <ele>1121</ele>
        <time>2019-03-19T14:46:05Z</time>
      </trkpt>
      <trkpt lat="44.26471" lon="5.61837">
        <ele>1121</ele>
        <time>2019-03-19T14:46:06Z</time>
      </trkpt>
      <trkpt lat="44.26469" lon="5.6184">
        <ele>1121</ele>
        <time>2019-03-19T14:46:07Z</time>
      </trkpt>
      <trkpt lat="44.26468" lon="5.61843">
        <ele>1121</ele>
        <time>2019-03-19T14:46:08Z</time>
      </trkpt>
      <trkpt lat="44.26467" lon="5.61845">
        <ele>1122</ele>
        <time>2019-03-19T14:46:09Z</time>
      </trkpt>
      <trkpt lat="44.26465" lon="5.61848">
        <ele>1122</ele>
        <time>2019-03-19T14:46:10Z</time>
      </trkpt>
      <trkpt lat="44.26463" lon="5.6185">
        <ele>1122</ele>
        <time>2019-03-19T14:46:11Z</time>
      </trkpt>
      <trkpt lat="44.26462" lon="5.61852">
        <ele>1122</ele>
        <time>2019-03-19T14:46:12Z</time>
      </trkpt>
      <trkpt lat="44.26461" lon="5.61855">
        <ele>1122</ele>
        <time>2019-03-19T14:46:13Z</time>
      </trkpt>
      <trkpt lat="44.26459" lon="5.61857">
        <ele>1123</ele>
        <time>2019-03-19T14:46:14Z</time>
      </trkpt>
      <trkpt lat="44.26458" lon="5.61859">
        <ele>1123</ele>
        <time>2019-03-19T14:46:15Z</time>
      </trkpt>
      <trkpt lat="44.26457" lon="5.61862">
        <ele>1123</ele>
        <time>2019-03-19T14:46:16Z</time>
      </trkpt>
      <trkpt lat="44.26456" lon="5.61864">
        <ele>1123</ele>
        <time>2019-03-19T14:46:17Z</time>
      </trkpt>
      <trkpt lat="44.26454" lon="5.61867">
        <ele>1123</ele>
        <time>2019-03-19T14:46:18Z</time>
      </trkpt>
      <trkpt lat="44.26453" lon="5.61869">
        <ele>1124</ele>
        <time>2019-03-19T14:46:19Z</time>
      </trkpt>
      <trkpt lat="44.26452" lon="5.61872">
        <ele>1124</ele>
        <time>2019-03-19T14:46:20Z</time>
      </trkpt>
      <trkpt lat="44.26451" lon="5.61874">
        <ele>1124</ele>
        <time>2019-03-19T14:46:21Z</time>
      </trkpt>
      <trkpt lat="44.2645" lon="5.61877">
        <ele>1124</ele>
        <time>2019-03-19T14:46:22Z</time>
      </trkpt>
      <trkpt lat="44.26449" lon="5.61879">
        <ele>1125</ele>
        <time>2019-03-19T14:46:23Z</time>
      </trkpt>
      <trkpt lat="44.26448" lon="5.61882">
        <ele>1125</ele>
        <time>2019-03-19T14:46:24Z</time>
      </trkpt>
      <trkpt lat="44.26447" lon="5.61885">
        <ele>1125</ele>
        <time>2019-03-19T14:46:25Z</time>
      </trkpt>
      <trkpt lat="44.26445" lon="5.61887">
        <ele>1125</ele>
        <time>2019-03-19T14:46:26Z</time>
      </trkpt>
      <trkpt lat="44.26445" lon="5.6189">
        <ele>1126</ele>
        <time>2019-03-19T14:46:27Z</time>
      </trkpt>
      <trkpt lat="44.26444" lon="5.61893">
        <ele>1126</ele>
        <time>2019-03-19T14:46:28Z</time>
      </trkpt>
      <trkpt lat="44.26442" lon="5.61895">
        <ele>1126</ele>
        <time>2019-03-19T14:46:29Z</time>
      </trkpt>
      <trkpt lat="44.26441" lon="5.61898">
        <ele>1126</ele>
        <time>2019-03-19T14:46:30Z</time>
      </trkpt>
      <trkpt lat="44.2644" lon="5.61901">
        <ele>1126</ele>
        <time>2019-03-19T14:46:31Z</time>
      </trkpt>
      <trkpt lat="44.26439" lon="5.61904">
        <ele>1126</ele>
        <time>2019-03-19T14:46:32Z</time>
      </trkpt>
      <trkpt lat="44.26438" lon="5.61907">
        <ele>1127</ele>
        <time>2019-03-19T14:46:33Z</time>
      </trkpt>
      <trkpt lat="44.26437" lon="5.61909">
        <ele>1127</ele>
        <time>2019-03-19T14:46:34Z</time>
      </trkpt>
      <trkpt lat="44.26436" lon="5.61912">
        <ele>1127</ele>
        <time>2019-03-19T14:46:35Z</time>
      </trkpt>
      <trkpt lat="44.26435" lon="5.61915">
        <ele>1127</ele>
        <time>2019-03-19T14:46:36Z</time>
      </trkpt>
      <trkpt lat="44.26434" lon="5.61918">
        <ele>1127</ele>
        <time>2019-03-19T14:46:37Z</time>
      </trkpt>
      <trkpt lat="44.26433" lon="5.61921">
        <ele>1128</ele>
        <time>2019-03-19T14:46:38Z</time>
      </trkpt>
      <trkpt lat="44.26432" lon="5.61924">
        <ele>1128</ele>
        <time>2019-03-19T14:46:39Z</time>
      </trkpt>
      <trkpt lat="44.26431" lon="5.61927">
        <ele>1128</ele>
        <time>2019-03-19T14:46:40Z</time>
      </trkpt>
      <trkpt lat="44.2643" lon="5.6193">
        <ele>1128</ele>
        <time>2019-03-19T14:46:41Z</time>
      </trkpt>
      <trkpt lat="44.26429" lon="5.61932">
        <ele>1129</ele>
        <time>2019-03-19T14:46:42Z</time>
      </trkpt>
      <trkpt lat="44.26429" lon="5.61935">
        <ele>1129</ele>
        <time>2019-03-19T14:46:43Z</time>
      </trkpt>
      <trkpt lat="44.26427" lon="5.61938">
        <ele>1129</ele>
        <time>2019-03-19T14:46:44Z</time>
      </trkpt>
      <trkpt lat="44.26427" lon="5.61941">
        <ele>1129</ele>
        <time>2019-03-19T14:46:45Z</time>
      </trkpt>
      <trkpt lat="44.26426" lon="5.61944">
        <ele>1129</ele>
        <time>2019-03-19T14:46:46Z</time>
      </trkpt>
      <trkpt lat="44.26425" lon="5.61947">
        <ele>1129</ele>
        <time>2019-03-19T14:46:47Z</time>
      </trkpt>
      <trkpt lat="44.26424" lon="5.6195">
        <ele>1129</ele>
        <time>2019-03-19T14:46:48Z</time>
      </trkpt>
      <trkpt lat="44.26423" lon="5.61952">
        <ele>1130</ele>
        <time>2019-03-19T14:46:49Z</time>
      </trkpt>
      <trkpt lat="44.26422" lon="5.61955">
        <ele>1130</ele>
        <time>2019-03-19T14:46:50Z</time>
      </trkpt>
      <trkpt lat="44.26421" lon="5.61958">
        <ele>1130</ele>
        <time>2019-03-19T14:46:51Z</time>
      </trkpt>
      <trkpt lat="44.26421" lon="5.61961">
        <ele>1130</ele>
        <time>2019-03-19T14:46:52Z</time>
      </trkpt>
      <trkpt lat="44.26419" lon="5.61964">
        <ele>1130</ele>
        <time>2019-03-19T14:46:53Z</time>
      </trkpt>
      <trkpt lat="44.26419" lon="5.61967">
        <ele>1130</ele>
        <time>2019-03-19T14:46:54Z</time>
      </trkpt>
      <trkpt lat="44.26418" lon="5.6197">
        <ele>1131</ele>
        <time>2019-03-19T14:46:55Z</time>
      </trkpt>
      <trkpt lat="44.26416" lon="5.61972">
        <ele>1131</ele>
        <time>2019-03-19T14:46:56Z</time>
      </trkpt>
      <trkpt lat="44.26415" lon="5.61975">
        <ele>1131</ele>
        <time>2019-03-19T14:46:57Z</time>
      </trkpt>
      <trkpt lat="44.26414" lon="5.61978">
        <ele>1131</ele>
        <time>2019-03-19T14:46:58Z</time>
      </trkpt>
      <trkpt lat="44.26413" lon="5.61981">
        <ele>1131</ele>
        <time>2019-03-19T14:46:59Z</time>
      </trkpt>
      <trkpt lat="44.26411" lon="5.61984">
        <ele>1131</ele>
        <time>2019-03-19T14:47:00Z</time>
      </trkpt>
      <trkpt lat="44.2641" lon="5.61987">
        <ele>1131</ele>
        <time>2019-03-19T14:47:01Z</time>
      </trkpt>
      <trkpt lat="44.26408" lon="5.61989">
        <ele>1131</ele>
        <time>2019-03-19T14:47:02Z</time>
      </trkpt>
      <trkpt lat="44.26406" lon="5.61992">
        <ele>1132</ele>
        <time>2019-03-19T14:47:03Z</time>
      </trkpt>
      <trkpt lat="44.26405" lon="5.61994">
        <ele>1132</ele>
        <time>2019-03-19T14:47:04Z</time>
      </trkpt>
      <trkpt lat="44.26403" lon="5.61996">
        <ele>1132</ele>
        <time>2019-03-19T14:47:05Z</time>
      </trkpt>
      <trkpt lat="44.26401" lon="5.61999">
        <ele>1133</ele>
        <time>2019-03-19T14:47:06Z</time>
      </trkpt>
      <trkpt lat="44.26399" lon="5.62">
        <ele>1133</ele>
        <time>2019-03-19T14:47:07Z</time>
      </trkpt>
      <trkpt lat="44.26397" lon="5.62002">
        <ele>1133</ele>
        <time>2019-03-19T14:47:08Z</time>
      </trkpt>
      <trkpt lat="44.26395" lon="5.62004">
        <ele>1134</ele>
        <time>2019-03-19T14:47:09Z</time>
      </trkpt>
      <trkpt lat="44.26393" lon="5.62006">
        <ele>1134</ele>
        <time>2019-03-19T14:47:10Z</time>
      </trkpt>
      <trkpt lat="44.26391" lon="5.62008">
        <ele>1134</ele>
        <time>2019-03-19T14:47:11Z</time>
      </trkpt>
      <trkpt lat="44.26389" lon="5.62009">
        <ele>1135</ele>
        <time>2019-03-19T14:47:12Z</time>
      </trkpt>
      <trkpt lat="44.26387" lon="5.62011">
        <ele>1135</ele>
        <time>2019-03-19T14:47:13Z</time>
      </trkpt>
      <trkpt lat="44.26385" lon="5.62012">
        <ele>1135</ele>
        <time>2019-03-19T14:47:14Z</time>
      </trkpt>
      <trkpt lat="44.26382" lon="5.62013">
        <ele>1135</ele>
        <time>2019-03-19T14:47:15Z</time>
      </trkpt>
      <trkpt lat="44.2638" lon="5.62015">
        <ele>1136</ele>
        <time>2019-03-19T14:47:16Z</time>
      </trkpt>
      <trkpt lat="44.26377" lon="5.62017">
        <ele>1136</ele>
        <time>2019-03-19T14:47:17Z</time>
      </trkpt>
      <trkpt lat="44.26375" lon="5.62018">
        <ele>1136</ele>
        <time>2019-03-19T14:47:18Z</time>
      </trkpt>
      <trkpt lat="44.26373" lon="5.6202">
        <ele>1136</ele>
        <time>2019-03-19T14:47:19Z</time>
      </trkpt>
      <trkpt lat="44.2637" lon="5.62022">
        <ele>1136</ele>
        <time>2019-03-19T14:47:20Z</time>
      </trkpt>
      <trkpt lat="44.26368" lon="5.62024">
        <ele>1136</ele>
        <time>2019-03-19T14:47:21Z</time>
      </trkpt>
      <trkpt lat="44.26366" lon="5.62027">
        <ele>1137</ele>
        <time>2019-03-19T14:47:22Z</time>
      </trkpt>
      <trkpt lat="44.26363" lon="5.62029">
        <ele>1137</ele>
        <time>2019-03-19T14:47:23Z</time>
      </trkpt>
      <trkpt lat="44.26361" lon="5.6203">
        <ele>1137</ele>
        <time>2019-03-19T14:47:24Z</time>
      </trkpt>
      <trkpt lat="44.26359" lon="5.62032">
        <ele>1137</ele>
        <time>2019-03-19T14:47:25Z</time>
      </trkpt>
      <trkpt lat="44.26357" lon="5.62034">
        <ele>1137</ele>
        <time>2019-03-19T14:47:26Z</time>
      </trkpt>
      <trkpt lat="44.26354" lon="5.62036">
        <ele>1138</ele>
        <time>2019-03-19T14:47:27Z</time>
      </trkpt>
      <trkpt lat="44.26352" lon="5.62039">
        <ele>1138</ele>
        <time>2019-03-19T14:47:28Z</time>
      </trkpt>
      <trkpt lat="44.2635" lon="5.62041">
        <ele>1138</ele>
        <time>2019-03-19T14:47:29Z</time>
      </trkpt>
      <trkpt lat="44.26348" lon="5.62043">
        <ele>1138</ele>
        <time>2019-03-19T14:47:30Z</time>
      </trkpt>
      <trkpt lat="44.26345" lon="5.62045">
        <ele>1138</ele>
        <time>2019-03-19T14:47:31Z</time>
      </trkpt>
      <trkpt lat="44.26343" lon="5.62047">
        <ele>1139</ele>
        <time>2019-03-19T14:47:32Z</time>
      </trkpt>
      <trkpt lat="44.26341" lon="5.62049">
        <ele>1139</ele>
        <time>2019-03-19T14:47:33Z</time>
      </trkpt>
      <trkpt lat="44.26339" lon="5.62052">
        <ele>1139</ele>
        <time>2019-03-19T14:47:34Z</time>
      </trkpt>
      <trkpt lat="44.26337" lon="5.62054">
        <ele>1139</ele>
        <time>2019-03-19T14:47:35Z</time>
      </trkpt>
      <trkpt lat="44.26335" lon="5.62056">
        <ele>1140</ele>
        <time>2019-03-19T14:47:36Z</time>
      </trkpt>
      <trkpt lat="44.26333" lon="5.62059">
        <ele>1140</ele>
        <time>2019-03-19T14:47:37Z</time>
      </trkpt>
      <trkpt lat="44.26331" lon="5.62061">
        <ele>1140</ele>
        <time>2019-03-19T14:47:38Z</time>
      </trkpt>
      <trkpt lat="44.26329" lon="5.62064">
        <ele>1140</ele>
        <time>2019-03-19T14:47:39Z</time>
      </trkpt>
      <trkpt lat="44.26326" lon="5.62066">
        <ele>1141</ele>
        <time>2019-03-19T14:47:40Z</time>
      </trkpt>
      <trkpt lat="44.26324" lon="5.62068">
        <ele>1141</ele>
        <time>2019-03-19T14:47:41Z</time>
      </trkpt>
      <trkpt lat="44.26323" lon="5.62071">
        <ele>1141</ele>
        <time>2019-03-19T14:47:42Z</time>
      </trkpt>
      <trkpt lat="44.26321" lon="5.62073">
        <ele>1141</ele>
        <time>2019-03-19T14:47:43Z</time>
      </trkpt>
      <trkpt lat="44.26318" lon="5.62076">
        <ele>1142</ele>
        <time>2019-03-19T14:47:44Z</time>
      </trkpt>
      <trkpt lat="44.26316" lon="5.62078">
        <ele>1142</ele>
        <time>2019-03-19T14:47:45Z</time>
      </trkpt>
      <trkpt lat="44.26314" lon="5.6208">
        <ele>1142</ele>
        <time>2019-03-19T14:47:46Z</time>
      </trkpt>
      <trkpt lat="44.26312" lon="5.62082">
        <ele>1142</ele>
        <time>2019-03-19T14:47:47Z</time>
      </trkpt>
      <trkpt lat="44.2631" lon="5.62084">
        <ele>1143</ele>
        <time>2019-03-19T14:47:48Z</time>
      </trkpt>
      <trkpt lat="44.26308" lon="5.62087">
        <ele>1143</ele>
        <time>2019-03-19T14:47:49Z</time>
      </trkpt>
      <trkpt lat="44.26307" lon="5.62089">
        <ele>1143</ele>
        <time>2019-03-19T14:47:50Z</time>
      </trkpt>
      <trkpt lat="44.26305" lon="5.62091">
        <ele>1143</ele>
        <time>2019-03-19T14:47:51Z</time>
      </trkpt>
      <trkpt lat="44.26303" lon="5.62093">
        <ele>1144</ele>
        <time>2019-03-19T14:47:52Z</time>
      </trkpt>
      <trkpt lat="44.26301" lon="5.62096">
        <ele>1144</ele>
        <time>2019-03-19T14:47:53Z</time>
      </trkpt>
      <trkpt lat="44.26299" lon="5.62098">
        <ele>1144</ele>
        <time>2019-03-19T14:47:54Z</time>
      </trkpt>
      <trkpt lat="44.26297" lon="5.62101">
        <ele>1144</ele>
        <time>2019-03-19T14:47:55Z</time>
      </trkpt>
      <trkpt lat="44.26295" lon="5.62103">
        <ele>1145</ele>
        <time>2019-03-19T14:47:56Z</time>
      </trkpt>
      <trkpt lat="44.26294" lon="5.62105">
        <ele>1145</ele>
        <time>2019-03-19T14:47:57Z</time>
      </trkpt>
      <trkpt lat="44.26292" lon="5.62108">
        <ele>1145</ele>
        <time>2019-03-19T14:47:58Z</time>
      </trkpt>
      <trkpt lat="44.2629" lon="5.6211">
        <ele>1145</ele>
        <time>2019-03-19T14:47:59Z</time>
      </trkpt>
      <trkpt lat="44.26288" lon="5.62112">
        <ele>1145</ele>
        <time>2019-03-19T14:48:00Z</time>
      </trkpt>
      <trkpt lat="44.26286" lon="5.62114">
        <ele>1146</ele>
        <time>2019-03-19T14:48:01Z</time>
      </trkpt>
      <trkpt lat="44.26284" lon="5.62116">
        <ele>1146</ele>
        <time>2019-03-19T14:48:02Z</time>
      </trkpt>
      <trkpt lat="44.26282" lon="5.62118">
        <ele>1146</ele>
        <time>2019-03-19T14:48:03Z</time>
      </trkpt>
      <trkpt lat="44.2628" lon="5.62121">
        <ele>1146</ele>
        <time>2019-03-19T14:48:04Z</time>
      </trkpt>
      <trkpt lat="44.26278" lon="5.62124">
        <ele>1147</ele>
        <time>2019-03-19T14:48:05Z</time>
      </trkpt>
      <trkpt lat="44.26276" lon="5.62126">
        <ele>1147</ele>
        <time>2019-03-19T14:48:06Z</time>
      </trkpt>
      <trkpt lat="44.26275" lon="5.62129">
        <ele>1147</ele>
        <time>2019-03-19T14:48:07Z</time>
      </trkpt>
      <trkpt lat="44.26273" lon="5.62133">
        <ele>1147</ele>
        <time>2019-03-19T14:48:08Z</time>
      </trkpt>
      <trkpt lat="44.26271" lon="5.62136">
        <ele>1147</ele>
        <time>2019-03-19T14:48:09Z</time>
      </trkpt>
      <trkpt lat="44.26269" lon="5.62139">
        <ele>1147</ele>
        <time>2019-03-19T14:48:10Z</time>
      </trkpt>
      <trkpt lat="44.26268" lon="5.62142">
        <ele>1148</ele>
        <time>2019-03-19T14:48:11Z</time>
      </trkpt>
      <trkpt lat="44.26266" lon="5.62145">
        <ele>1148</ele>
        <time>2019-03-19T14:48:12Z</time>
      </trkpt>
      <trkpt lat="44.26265" lon="5.62149">
        <ele>1148</ele>
        <time>2019-03-19T14:48:13Z</time>
      </trkpt>
      <trkpt lat="44.26264" lon="5.62152">
        <ele>1148</ele>
        <time>2019-03-19T14:48:14Z</time>
      </trkpt>
      <trkpt lat="44.26263" lon="5.62155">
        <ele>1148</ele>
        <time>2019-03-19T14:48:15Z</time>
      </trkpt>
      <trkpt lat="44.26262" lon="5.62158">
        <ele>1149</ele>
        <time>2019-03-19T14:48:16Z</time>
      </trkpt>
      <trkpt lat="44.2626" lon="5.62161">
        <ele>1149</ele>
        <time>2019-03-19T14:48:17Z</time>
      </trkpt>
      <trkpt lat="44.26259" lon="5.62164">
        <ele>1149</ele>
        <time>2019-03-19T14:48:18Z</time>
      </trkpt>
      <trkpt lat="44.26258" lon="5.62167">
        <ele>1149</ele>
        <time>2019-03-19T14:48:19Z</time>
      </trkpt>
      <trkpt lat="44.26257" lon="5.6217">
        <ele>1149</ele>
        <time>2019-03-19T14:48:20Z</time>
      </trkpt>
      <trkpt lat="44.26256" lon="5.62172">
        <ele>1149</ele>
        <time>2019-03-19T14:48:21Z</time>
      </trkpt>
      <trkpt lat="44.26255" lon="5.62175">
        <ele>1149</ele>
        <time>2019-03-19T14:48:22Z</time>
      </trkpt>
      <trkpt lat="44.26254" lon="5.62177">
        <ele>1149</ele>
        <time>2019-03-19T14:48:23Z</time>
      </trkpt>
      <trkpt lat="44.26253" lon="5.62179">
        <ele>1150</ele>
        <time>2019-03-19T14:48:24Z</time>
      </trkpt>
      <trkpt lat="44.26252" lon="5.62182">
        <ele>1150</ele>
        <time>2019-03-19T14:48:25Z</time>
      </trkpt>
      <trkpt lat="44.2625" lon="5.62184">
        <ele>1150</ele>
        <time>2019-03-19T14:48:26Z</time>
      </trkpt>
      <trkpt lat="44.26249" lon="5.62186">
        <ele>1150</ele>
        <time>2019-03-19T14:48:27Z</time>
      </trkpt>
      <trkpt lat="44.26248" lon="5.62188">
        <ele>1150</ele>
        <time>2019-03-19T14:48:28Z</time>
      </trkpt>
      <trkpt lat="44.26247" lon="5.6219">
        <ele>1150</ele>
        <time>2019-03-19T14:48:29Z</time>
      </trkpt>
      <trkpt lat="44.26246" lon="5.62192">
        <ele>1150</ele>
        <time>2019-03-19T14:48:30Z</time>
      </trkpt>
      <trkpt lat="44.26245" lon="5.62194">
        <ele>1151</ele>
        <time>2019-03-19T14:48:31Z</time>
      </trkpt>
      <trkpt lat="44.26244" lon="5.62196">
        <ele>1151</ele>
        <time>2019-03-19T14:48:32Z</time>
      </trkpt>
      <trkpt lat="44.26243" lon="5.62198">
        <ele>1151</ele>
        <time>2019-03-19T14:48:33Z</time>
      </trkpt>
      <trkpt lat="44.26242" lon="5.622">
        <ele>1151</ele>
        <time>2019-03-19T14:48:35Z</time>
      </trkpt>
      <trkpt lat="44.26242" lon="5.62201">
        <ele>1153</ele>
        <time>2019-03-19T14:48:46Z</time>
      </trkpt>
      <trkpt lat="44.26247" lon="5.622">
        <ele>1159</ele>
        <time>2019-03-19T14:48:59Z</time>
      </trkpt>
      <trkpt lat="44.26249" lon="5.62202">
        <ele>1159</ele>
        <time>2019-03-19T14:49:02Z</time>
      </trkpt>
      <trkpt lat="44.2625" lon="5.62203">
        <ele>1159</ele>
        <time>2019-03-19T14:49:07Z</time>
      </trkpt>
      <trkpt lat="44.26251" lon="5.62201">
        <ele>1159</ele>
        <time>2019-03-19T14:49:17Z</time>
      </trkpt>
      <trkpt lat="44.2625" lon="5.622">
        <ele>1159</ele>
        <time>2019-03-19T14:49:35Z</time>
      </trkpt>
      <trkpt lat="44.26249" lon="5.622">
        <ele>1159</ele>
        <time>2019-03-19T14:49:41Z</time>
      </trkpt>
      <trkpt lat="44.26247" lon="5.62201">
        <ele>1159</ele>
        <time>2019-03-19T14:49:47Z</time>
      </trkpt>
      <trkpt lat="44.26245" lon="5.62201">
        <ele>1159</ele>
        <time>2019-03-19T14:49:48Z</time>
      </trkpt>
      <trkpt lat="44.26244" lon="5.62201">
        <ele>1159</ele>
        <time>2019-03-19T14:49:49Z</time>
      </trkpt>
      <trkpt lat="44.26243" lon="5.622">
        <ele>1159</ele>
        <time>2019-03-19T14:49:50Z</time>
      </trkpt>
      <trkpt lat="44.26241" lon="5.622">
        <ele>1158</ele>
        <time>2019-03-19T14:49:52Z</time>
      </trkpt>
      <trkpt lat="44.26239" lon="5.62199">
        <ele>1158</ele>
        <time>2019-03-19T14:49:53Z</time>
      </trkpt>
      <trkpt lat="44.26238" lon="5.62199">
        <ele>1157</ele>
        <time>2019-03-19T14:49:54Z</time>
      </trkpt>
      <trkpt lat="44.26236" lon="5.62199">
        <ele>1157</ele>
        <time>2019-03-19T14:49:55Z</time>
      </trkpt>
      <trkpt lat="44.26234" lon="5.62197">
        <ele>1157</ele>
        <time>2019-03-19T14:49:56Z</time>
      </trkpt>
      <trkpt lat="44.26231" lon="5.62196">
        <ele>1157</ele>
        <time>2019-03-19T14:49:57Z</time>
      </trkpt>
      <trkpt lat="44.26228" lon="5.62194">
        <ele>1156</ele>
        <time>2019-03-19T14:49:58Z</time>
      </trkpt>
      <trkpt lat="44.26225" lon="5.62193">
        <ele>1156</ele>
        <time>2019-03-19T14:49:59Z</time>
      </trkpt>
      <trkpt lat="44.26221" lon="5.62192">
        <ele>1156</ele>
        <time>2019-03-19T14:50:00Z</time>
      </trkpt>
      <trkpt lat="44.26217" lon="5.62191">
        <ele>1156</ele>
        <time>2019-03-19T14:50:01Z</time>
      </trkpt>
      <trkpt lat="44.26213" lon="5.62188">
        <ele>1155</ele>
        <time>2019-03-19T14:50:02Z</time>
      </trkpt>
      <trkpt lat="44.26209" lon="5.62186">
        <ele>1155</ele>
        <time>2019-03-19T14:50:03Z</time>
      </trkpt>
      <trkpt lat="44.26205" lon="5.62184">
        <ele>1155</ele>
        <time>2019-03-19T14:50:04Z</time>
      </trkpt>
      <trkpt lat="44.26201" lon="5.62182">
        <ele>1154</ele>
        <time>2019-03-19T14:50:05Z</time>
      </trkpt>
      <trkpt lat="44.26198" lon="5.62179">
        <ele>1154</ele>
        <time>2019-03-19T14:50:06Z</time>
      </trkpt>
      <trkpt lat="44.26194" lon="5.62177">
        <ele>1153</ele>
        <time>2019-03-19T14:50:07Z</time>
      </trkpt>
      <trkpt lat="44.26191" lon="5.62175">
        <ele>1152</ele>
        <time>2019-03-19T14:50:08Z</time>
      </trkpt>
      <trkpt lat="44.26187" lon="5.62173">
        <ele>1151</ele>
        <time>2019-03-19T14:50:09Z</time>
      </trkpt>
      <trkpt lat="44.26184" lon="5.62171">
        <ele>1151</ele>
        <time>2019-03-19T14:50:10Z</time>
      </trkpt>
      <trkpt lat="44.2618" lon="5.62169">
        <ele>1150</ele>
        <time>2019-03-19T14:50:11Z</time>
      </trkpt>
      <trkpt lat="44.26177" lon="5.62167">
        <ele>1149</ele>
        <time>2019-03-19T14:50:12Z</time>
      </trkpt>
      <trkpt lat="44.26174" lon="5.62165">
        <ele>1148</ele>
        <time>2019-03-19T14:50:13Z</time>
      </trkpt>
      <trkpt lat="44.26171" lon="5.62161">
        <ele>1147</ele>
        <time>2019-03-19T14:50:14Z</time>
      </trkpt>
      <trkpt lat="44.2617" lon="5.62157">
        <ele>1146</ele>
        <time>2019-03-19T14:50:15Z</time>
      </trkpt>
      <trkpt lat="44.2617" lon="5.62152">
        <ele>1145</ele>
        <time>2019-03-19T14:50:16Z</time>
      </trkpt>
      <trkpt lat="44.26172" lon="5.62148">
        <ele>1145</ele>
        <time>2019-03-19T14:50:17Z</time>
      </trkpt>
      <trkpt lat="44.26176" lon="5.62147">
        <ele>1144</ele>
        <time>2019-03-19T14:50:18Z</time>
      </trkpt>
      <trkpt lat="44.2618" lon="5.62147">
        <ele>1144</ele>
        <time>2019-03-19T14:50:19Z</time>
      </trkpt>
      <trkpt lat="44.26184" lon="5.62149">
        <ele>1144</ele>
        <time>2019-03-19T14:50:20Z</time>
      </trkpt>
      <trkpt lat="44.26189" lon="5.6215">
        <ele>1144</ele>
        <time>2019-03-19T14:50:21Z</time>
      </trkpt>
      <trkpt lat="44.26193" lon="5.62152">
        <ele>1144</ele>
        <time>2019-03-19T14:50:22Z</time>
      </trkpt>
      <trkpt lat="44.26198" lon="5.62153">
        <ele>1144</ele>
        <time>2019-03-19T14:50:23Z</time>
      </trkpt>
      <trkpt lat="44.26203" lon="5.62152">
        <ele>1144</ele>
        <time>2019-03-19T14:50:24Z</time>
      </trkpt>
      <trkpt lat="44.26208" lon="5.62148">
        <ele>1144</ele>
        <time>2019-03-19T14:50:25Z</time>
      </trkpt>
      <trkpt lat="44.26213" lon="5.62143">
        <ele>1143</ele>
        <time>2019-03-19T14:50:26Z</time>
      </trkpt>
      <trkpt lat="44.26217" lon="5.62136">
        <ele>1143</ele>
        <time>2019-03-19T14:50:27Z</time>
      </trkpt>
      <trkpt lat="44.2622" lon="5.62129">
        <ele>1143</ele>
        <time>2019-03-19T14:50:28Z</time>
      </trkpt>
      <trkpt lat="44.26223" lon="5.62122">
        <ele>1142</ele>
        <time>2019-03-19T14:50:29Z</time>
      </trkpt>
      <trkpt lat="44.26225" lon="5.62114">
        <ele>1141</ele>
        <time>2019-03-19T14:50:30Z</time>
      </trkpt>
      <trkpt lat="44.26227" lon="5.62106">
        <ele>1141</ele>
        <time>2019-03-19T14:50:31Z</time>
      </trkpt>
      <trkpt lat="44.26229" lon="5.62098">
        <ele>1140</ele>
        <time>2019-03-19T14:50:32Z</time>
      </trkpt>
      <trkpt lat="44.2623" lon="5.62089">
        <ele>1139</ele>
        <time>2019-03-19T14:50:33Z</time>
      </trkpt>
      <trkpt lat="44.26231" lon="5.6208">
        <ele>1139</ele>
        <time>2019-03-19T14:50:34Z</time>
      </trkpt>
      <trkpt lat="44.26231" lon="5.62071">
        <ele>1138</ele>
        <time>2019-03-19T14:50:35Z</time>
      </trkpt>
      <trkpt lat="44.26231" lon="5.62062">
        <ele>1137</ele>
        <time>2019-03-19T14:50:36Z</time>
      </trkpt>
      <trkpt lat="44.2623" lon="5.62053">
        <ele>1137</ele>
        <time>2019-03-19T14:50:37Z</time>
      </trkpt>
      <trkpt lat="44.26229" lon="5.62043">
        <ele>1136</ele>
        <time>2019-03-19T14:50:38Z</time>
      </trkpt>
      <trkpt lat="44.26228" lon="5.62034">
        <ele>1135</ele>
        <time>2019-03-19T14:50:39Z</time>
      </trkpt>
      <trkpt lat="44.26227" lon="5.62025">
        <ele>1135</ele>
        <time>2019-03-19T14:50:40Z</time>
      </trkpt>
      <trkpt lat="44.26225" lon="5.62016">
        <ele>1134</ele>
        <time>2019-03-19T14:50:41Z</time>
      </trkpt>
      <trkpt lat="44.26223" lon="5.62008">
        <ele>1134</ele>
        <time>2019-03-19T14:50:42Z</time>
      </trkpt>
      <trkpt lat="44.2622" lon="5.61999">
        <ele>1133</ele>
        <time>2019-03-19T14:50:43Z</time>
      </trkpt>
      <trkpt lat="44.26218" lon="5.61989">
        <ele>1132</ele>
        <time>2019-03-19T14:50:44Z</time>
      </trkpt>
      <trkpt lat="44.26216" lon="5.6198">
        <ele>1132</ele>
        <time>2019-03-19T14:50:45Z</time>
      </trkpt>
      <trkpt lat="44.26213" lon="5.61971">
        <ele>1131</ele>
        <time>2019-03-19T14:50:46Z</time>
      </trkpt>
      <trkpt lat="44.2621" lon="5.61962">
        <ele>1130</ele>
        <time>2019-03-19T14:50:47Z</time>
      </trkpt>
      <trkpt lat="44.26207" lon="5.61954">
        <ele>1130</ele>
        <time>2019-03-19T14:50:48Z</time>
      </trkpt>
      <trkpt lat="44.26204" lon="5.61945">
        <ele>1129</ele>
        <time>2019-03-19T14:50:49Z</time>
      </trkpt>
      <trkpt lat="44.26202" lon="5.61937">
        <ele>1128</ele>
        <time>2019-03-19T14:50:50Z</time>
      </trkpt>
      <trkpt lat="44.26199" lon="5.61928">
        <ele>1128</ele>
        <time>2019-03-19T14:50:51Z</time>
      </trkpt>
      <trkpt lat="44.26196" lon="5.61918">
        <ele>1127</ele>
        <time>2019-03-19T14:50:52Z</time>
      </trkpt>
      <trkpt lat="44.26194" lon="5.61908">
        <ele>1127</ele>
        <time>2019-03-19T14:50:53Z</time>
      </trkpt>
      <trkpt lat="44.26193" lon="5.61899">
        <ele>1126</ele>
        <time>2019-03-19T14:50:54Z</time>
      </trkpt>
      <trkpt lat="44.26192" lon="5.61889">
        <ele>1125</ele>
        <time>2019-03-19T14:50:55Z</time>
      </trkpt>
      <trkpt lat="44.26192" lon="5.61878">
        <ele>1125</ele>
        <time>2019-03-19T14:50:56Z</time>
      </trkpt>
      <trkpt lat="44.26191" lon="5.61868">
        <ele>1125</ele>
        <time>2019-03-19T14:50:57Z</time>
      </trkpt>
      <trkpt lat="44.26189" lon="5.61858">
        <ele>1124</ele>
        <time>2019-03-19T14:50:58Z</time>
      </trkpt>
      <trkpt lat="44.26186" lon="5.61847">
        <ele>1124</ele>
        <time>2019-03-19T14:50:59Z</time>
      </trkpt>
      <trkpt lat="44.26183" lon="5.61837">
        <ele>1123</ele>
        <time>2019-03-19T14:51:00Z</time>
      </trkpt>
      <trkpt lat="44.26179" lon="5.61828">
        <ele>1122</ele>
        <time>2019-03-19T14:51:01Z</time>
      </trkpt>
      <trkpt lat="44.26175" lon="5.6182">
        <ele>1122</ele>
        <time>2019-03-19T14:51:02Z</time>
      </trkpt>
      <trkpt lat="44.2617" lon="5.61811">
        <ele>1121</ele>
        <time>2019-03-19T14:51:03Z</time>
      </trkpt>
      <trkpt lat="44.26165" lon="5.61803">
        <ele>1121</ele>
        <time>2019-03-19T14:51:04Z</time>
      </trkpt>
      <trkpt lat="44.26159" lon="5.61795">
        <ele>1120</ele>
        <time>2019-03-19T14:51:05Z</time>
      </trkpt>
      <trkpt lat="44.26154" lon="5.61786">
        <ele>1120</ele>
        <time>2019-03-19T14:51:06Z</time>
      </trkpt>
      <trkpt lat="44.26148" lon="5.61778">
        <ele>1120</ele>
        <time>2019-03-19T14:51:07Z</time>
      </trkpt>
      <trkpt lat="44.26143" lon="5.6177">
        <ele>1119</ele>
        <time>2019-03-19T14:51:08Z</time>
      </trkpt>
      <trkpt lat="44.26137" lon="5.61762">
        <ele>1119</ele>
        <time>2019-03-19T14:51:09Z</time>
      </trkpt>
      <trkpt lat="44.26131" lon="5.61754">
        <ele>1118</ele>
        <time>2019-03-19T14:51:10Z</time>
      </trkpt>
      <trkpt lat="44.26126" lon="5.61746">
        <ele>1118</ele>
        <time>2019-03-19T14:51:11Z</time>
      </trkpt>
      <trkpt lat="44.2612" lon="5.61739">
        <ele>1118</ele>
        <time>2019-03-19T14:51:12Z</time>
      </trkpt>
      <trkpt lat="44.26115" lon="5.61733">
        <ele>1118</ele>
        <time>2019-03-19T14:51:13Z</time>
      </trkpt>
      <trkpt lat="44.26109" lon="5.61728">
        <ele>1117</ele>
        <time>2019-03-19T14:51:14Z</time>
      </trkpt>
      <trkpt lat="44.26103" lon="5.61724">
        <ele>1117</ele>
        <time>2019-03-19T14:51:15Z</time>
      </trkpt>
      <trkpt lat="44.26097" lon="5.61719">
        <ele>1117</ele>
        <time>2019-03-19T14:51:16Z</time>
      </trkpt>
      <trkpt lat="44.2609" lon="5.61716">
        <ele>1116</ele>
        <time>2019-03-19T14:51:17Z</time>
      </trkpt>
      <trkpt lat="44.26084" lon="5.61714">
        <ele>1116</ele>
        <time>2019-03-19T14:51:18Z</time>
      </trkpt>
      <trkpt lat="44.26078" lon="5.61713">
        <ele>1115</ele>
        <time>2019-03-19T14:51:19Z</time>
      </trkpt>
      <trkpt lat="44.26072" lon="5.61712">
        <ele>1115</ele>
        <time>2019-03-19T14:51:20Z</time>
      </trkpt>
      <trkpt lat="44.26065" lon="5.61712">
        <ele>1114</ele>
        <time>2019-03-19T14:51:21Z</time>
      </trkpt>
      <trkpt lat="44.2606" lon="5.61709">
        <ele>1114</ele>
        <time>2019-03-19T14:51:22Z</time>
      </trkpt>
      <trkpt lat="44.26054" lon="5.61705">
        <ele>1114</ele>
        <time>2019-03-19T14:51:23Z</time>
      </trkpt>
      <trkpt lat="44.26049" lon="5.617">
        <ele>1113</ele>
        <time>2019-03-19T14:51:24Z</time>
      </trkpt>
      <trkpt lat="44.26044" lon="5.61694">
        <ele>1113</ele>
        <time>2019-03-19T14:51:25Z</time>
      </trkpt>
      <trkpt lat="44.26039" lon="5.61686">
        <ele>1113</ele>
        <time>2019-03-19T14:51:26Z</time>
      </trkpt>
      <trkpt lat="44.26034" lon="5.61679">
        <ele>1112</ele>
        <time>2019-03-19T14:51:27Z</time>
      </trkpt>
      <trkpt lat="44.26029" lon="5.61671">
        <ele>1112</ele>
        <time>2019-03-19T14:51:28Z</time>
      </trkpt>
      <trkpt lat="44.26024" lon="5.61663">
        <ele>1112</ele>
        <time>2019-03-19T14:51:29Z</time>
      </trkpt>
      <trkpt lat="44.26019" lon="5.61657">
        <ele>1111</ele>
        <time>2019-03-19T14:51:30Z</time>
      </trkpt>
      <trkpt lat="44.26014" lon="5.61651">
        <ele>1111</ele>
        <time>2019-03-19T14:51:31Z</time>
      </trkpt>
      <trkpt lat="44.26007" lon="5.61646">
        <ele>1110</ele>
        <time>2019-03-19T14:51:32Z</time>
      </trkpt>
      <trkpt lat="44.26" lon="5.61642">
        <ele>1110</ele>
        <time>2019-03-19T14:51:33Z</time>
      </trkpt>
      <trkpt lat="44.25993" lon="5.6164">
        <ele>1109</ele>
        <time>2019-03-19T14:51:34Z</time>
      </trkpt>
      <trkpt lat="44.25985" lon="5.61637">
        <ele>1109</ele>
        <time>2019-03-19T14:51:35Z</time>
      </trkpt>
      <trkpt lat="44.25978" lon="5.61633">
        <ele>1108</ele>
        <time>2019-03-19T14:51:36Z</time>
      </trkpt>
      <trkpt lat="44.25971" lon="5.61629">
        <ele>1107</ele>
        <time>2019-03-19T14:51:37Z</time>
      </trkpt>
      <trkpt lat="44.25964" lon="5.61626">
        <ele>1107</ele>
        <time>2019-03-19T14:51:38Z</time>
      </trkpt>
      <trkpt lat="44.25957" lon="5.61626">
        <ele>1106</ele>
        <time>2019-03-19T14:51:39Z</time>
      </trkpt>
      <trkpt lat="44.2595" lon="5.61626">
        <ele>1106</ele>
        <time>2019-03-19T14:51:40Z</time>
      </trkpt>
      <trkpt lat="44.25943" lon="5.61627">
        <ele>1105</ele>
        <time>2019-03-19T14:51:41Z</time>
      </trkpt>
      <trkpt lat="44.25937" lon="5.6163">
        <ele>1104</ele>
        <time>2019-03-19T14:51:42Z</time>
      </trkpt>
      <trkpt lat="44.2593" lon="5.61634">
        <ele>1104</ele>
        <time>2019-03-19T14:51:43Z</time>
      </trkpt>
      <trkpt lat="44.25923" lon="5.61639">
        <ele>1103</ele>
        <time>2019-03-19T14:51:44Z</time>
      </trkpt>
      <trkpt lat="44.25917" lon="5.61645">
        <ele>1103</ele>
        <time>2019-03-19T14:51:45Z</time>
      </trkpt>
      <trkpt lat="44.25911" lon="5.61651">
        <ele>1103</ele>
        <time>2019-03-19T14:51:46Z</time>
      </trkpt>
      <trkpt lat="44.25906" lon="5.61657">
        <ele>1102</ele>
        <time>2019-03-19T14:51:47Z</time>
      </trkpt>
      <trkpt lat="44.259" lon="5.61663">
        <ele>1102</ele>
        <time>2019-03-19T14:51:48Z</time>
      </trkpt>
      <trkpt lat="44.25894" lon="5.61669">
        <ele>1101</ele>
        <time>2019-03-19T14:51:49Z</time>
      </trkpt>
      <trkpt lat="44.25888" lon="5.61676">
        <ele>1101</ele>
        <time>2019-03-19T14:51:50Z</time>
      </trkpt>
      <trkpt lat="44.25882" lon="5.61681">
        <ele>1100</ele>
        <time>2019-03-19T14:51:51Z</time>
      </trkpt>
      <trkpt lat="44.25875" lon="5.61685">
        <ele>1099</ele>
        <time>2019-03-19T14:51:52Z</time>
      </trkpt>
      <trkpt lat="44.25868" lon="5.6169">
        <ele>1098</ele>
        <time>2019-03-19T14:51:53Z</time>
      </trkpt>
      <trkpt lat="44.25861" lon="5.61693">
        <ele>1098</ele>
        <time>2019-03-19T14:51:54Z</time>
      </trkpt>
      <trkpt lat="44.25855" lon="5.61696">
        <ele>1097</ele>
        <time>2019-03-19T14:51:55Z</time>
      </trkpt>
      <trkpt lat="44.25848" lon="5.61698">
        <ele>1096</ele>
        <time>2019-03-19T14:51:56Z</time>
      </trkpt>
      <trkpt lat="44.2584" lon="5.61698">
        <ele>1096</ele>
        <time>2019-03-19T14:51:57Z</time>
      </trkpt>
      <trkpt lat="44.25833" lon="5.61697">
        <ele>1095</ele>
        <time>2019-03-19T14:51:58Z</time>
      </trkpt>
      <trkpt lat="44.25825" lon="5.61696">
        <ele>1095</ele>
        <time>2019-03-19T14:51:59Z</time>
      </trkpt>
      <trkpt lat="44.25818" lon="5.61695">
        <ele>1094</ele>
        <time>2019-03-19T14:52:00Z</time>
      </trkpt>
      <trkpt lat="44.2581" lon="5.61694">
        <ele>1094</ele>
        <time>2019-03-19T14:52:01Z</time>
      </trkpt>
      <trkpt lat="44.25803" lon="5.61694">
        <ele>1093</ele>
        <time>2019-03-19T14:52:02Z</time>
      </trkpt>
      <trkpt lat="44.25795" lon="5.61694">
        <ele>1093</ele>
        <time>2019-03-19T14:52:03Z</time>
      </trkpt>
      <trkpt lat="44.25788" lon="5.61695">
        <ele>1092</ele>
        <time>2019-03-19T14:52:04Z</time>
      </trkpt>
      <trkpt lat="44.25782" lon="5.61697">
        <ele>1092</ele>
        <time>2019-03-19T14:52:05Z</time>
      </trkpt>
      <trkpt lat="44.25776" lon="5.61699">
        <ele>1091</ele>
        <time>2019-03-19T14:52:06Z</time>
      </trkpt>
      <trkpt lat="44.25771" lon="5.61702">
        <ele>1091</ele>
        <time>2019-03-19T14:52:07Z</time>
      </trkpt>
      <trkpt lat="44.25766" lon="5.61705">
        <ele>1090</ele>
        <time>2019-03-19T14:52:08Z</time>
      </trkpt>
      <trkpt lat="44.25763" lon="5.6171">
        <ele>1090</ele>
        <time>2019-03-19T14:52:09Z</time>
      </trkpt>
      <trkpt lat="44.25763" lon="5.61715">
        <ele>1089</ele>
        <time>2019-03-19T14:52:10Z</time>
      </trkpt>
      <trkpt lat="44.25763" lon="5.6172">
        <ele>1089</ele>
        <time>2019-03-19T14:52:11Z</time>
      </trkpt>
      <trkpt lat="44.25768" lon="5.61723">
        <ele>1088</ele>
        <time>2019-03-19T14:52:12Z</time>
      </trkpt>
      <trkpt lat="44.25772" lon="5.61724">
        <ele>1088</ele>
        <time>2019-03-19T14:52:13Z</time>
      </trkpt>
      <trkpt lat="44.25777" lon="5.61724">
        <ele>1087</ele>
        <time>2019-03-19T14:52:14Z</time>
      </trkpt>
      <trkpt lat="44.25782" lon="5.61723">
        <ele>1087</ele>
        <time>2019-03-19T14:52:15Z</time>
      </trkpt>
      <trkpt lat="44.25788" lon="5.61721">
        <ele>1086</ele>
        <time>2019-03-19T14:52:16Z</time>
      </trkpt>
      <trkpt lat="44.25795" lon="5.61721">
        <ele>1086</ele>
        <time>2019-03-19T14:52:17Z</time>
      </trkpt>
      <trkpt lat="44.25801" lon="5.61723">
        <ele>1085</ele>
        <time>2019-03-19T14:52:18Z</time>
      </trkpt>
      <trkpt lat="44.25808" lon="5.61725">
        <ele>1084</ele>
        <time>2019-03-19T14:52:19Z</time>
      </trkpt>
      <trkpt lat="44.25815" lon="5.61729">
        <ele>1084</ele>
        <time>2019-03-19T14:52:20Z</time>
      </trkpt>
      <trkpt lat="44.25822" lon="5.61733">
        <ele>1084</ele>
        <time>2019-03-19T14:52:21Z</time>
      </trkpt>
      <trkpt lat="44.25829" lon="5.61738">
        <ele>1083</ele>
        <time>2019-03-19T14:52:22Z</time>
      </trkpt>
      <trkpt lat="44.25835" lon="5.61744">
        <ele>1083</ele>
        <time>2019-03-19T14:52:23Z</time>
      </trkpt>
      <trkpt lat="44.25843" lon="5.61749">
        <ele>1082</ele>
        <time>2019-03-19T14:52:24Z</time>
      </trkpt>
      <trkpt lat="44.2585" lon="5.61754">
        <ele>1081</ele>
        <time>2019-03-19T14:52:25Z</time>
      </trkpt>
      <trkpt lat="44.25858" lon="5.61757">
        <ele>1081</ele>
        <time>2019-03-19T14:52:26Z</time>
      </trkpt>
      <trkpt lat="44.25867" lon="5.61758">
        <ele>1080</ele>
        <time>2019-03-19T14:52:27Z</time>
      </trkpt>
      <trkpt lat="44.25875" lon="5.61758">
        <ele>1080</ele>
        <time>2019-03-19T14:52:28Z</time>
      </trkpt>
      <trkpt lat="44.25884" lon="5.61757">
        <ele>1079</ele>
        <time>2019-03-19T14:52:29Z</time>
      </trkpt>
      <trkpt lat="44.25892" lon="5.61756">
        <ele>1078</ele>
        <time>2019-03-19T14:52:30Z</time>
      </trkpt>
      <trkpt lat="44.25899" lon="5.61754">
        <ele>1078</ele>
        <time>2019-03-19T14:52:31Z</time>
      </trkpt>
      <trkpt lat="44.25906" lon="5.61755">
        <ele>1077</ele>
        <time>2019-03-19T14:52:32Z</time>
      </trkpt>
      <trkpt lat="44.25913" lon="5.61759">
        <ele>1076</ele>
        <time>2019-03-19T14:52:33Z</time>
      </trkpt>
      <trkpt lat="44.25918" lon="5.61764">
        <ele>1075</ele>
        <time>2019-03-19T14:52:34Z</time>
      </trkpt>
      <trkpt lat="44.25923" lon="5.61772">
        <ele>1075</ele>
        <time>2019-03-19T14:52:35Z</time>
      </trkpt>
      <trkpt lat="44.25927" lon="5.61782">
        <ele>1074</ele>
        <time>2019-03-19T14:52:36Z</time>
      </trkpt>
      <trkpt lat="44.2593" lon="5.61793">
        <ele>1073</ele>
        <time>2019-03-19T14:52:37Z</time>
      </trkpt>
      <trkpt lat="44.25932" lon="5.61805">
        <ele>1072</ele>
        <time>2019-03-19T14:52:38Z</time>
      </trkpt>
      <trkpt lat="44.25932" lon="5.61817">
        <ele>1071</ele>
        <time>2019-03-19T14:52:39Z</time>
      </trkpt>
      <trkpt lat="44.25931" lon="5.6183">
        <ele>1070</ele>
        <time>2019-03-19T14:52:40Z</time>
      </trkpt>
      <trkpt lat="44.2593" lon="5.61843">
        <ele>1069</ele>
        <time>2019-03-19T14:52:41Z</time>
      </trkpt>
      <trkpt lat="44.2593" lon="5.61856">
        <ele>1068</ele>
        <time>2019-03-19T14:52:42Z</time>
      </trkpt>
      <trkpt lat="44.25931" lon="5.6187">
        <ele>1067</ele>
        <time>2019-03-19T14:52:43Z</time>
      </trkpt>
      <trkpt lat="44.25932" lon="5.61883">
        <ele>1067</ele>
        <time>2019-03-19T14:52:44Z</time>
      </trkpt>
      <trkpt lat="44.25934" lon="5.61897">
        <ele>1066</ele>
        <time>2019-03-19T14:52:45Z</time>
      </trkpt>
      <trkpt lat="44.25937" lon="5.6191">
        <ele>1066</ele>
        <time>2019-03-19T14:52:46Z</time>
      </trkpt>
      <trkpt lat="44.25941" lon="5.61921">
        <ele>1065</ele>
        <time>2019-03-19T14:52:47Z</time>
      </trkpt>
      <trkpt lat="44.25946" lon="5.6193">
        <ele>1064</ele>
        <time>2019-03-19T14:52:48Z</time>
      </trkpt>
      <trkpt lat="44.25949" lon="5.61938">
        <ele>1064</ele>
        <time>2019-03-19T14:52:49Z</time>
      </trkpt>
      <trkpt lat="44.25952" lon="5.61947">
        <ele>1063</ele>
        <time>2019-03-19T14:52:50Z</time>
      </trkpt>
      <trkpt lat="44.25951" lon="5.61957">
        <ele>1063</ele>
        <time>2019-03-19T14:52:51Z</time>
      </trkpt>
      <trkpt lat="44.25948" lon="5.61965">
        <ele>1062</ele>
        <time>2019-03-19T14:52:52Z</time>
      </trkpt>
      <trkpt lat="44.25942" lon="5.61972">
        <ele>1061</ele>
        <time>2019-03-19T14:52:53Z</time>
      </trkpt>
      <trkpt lat="44.25936" lon="5.61978">
        <ele>1061</ele>
        <time>2019-03-19T14:52:54Z</time>
      </trkpt>
      <trkpt lat="44.2593" lon="5.61984">
        <ele>1060</ele>
        <time>2019-03-19T14:52:55Z</time>
      </trkpt>
      <trkpt lat="44.25923" lon="5.61992">
        <ele>1060</ele>
        <time>2019-03-19T14:52:56Z</time>
      </trkpt>
      <trkpt lat="44.25918" lon="5.62001">
        <ele>1059</ele>
        <time>2019-03-19T14:52:57Z</time>
      </trkpt>
      <trkpt lat="44.25913" lon="5.62011">
        <ele>1058</ele>
        <time>2019-03-19T14:52:58Z</time>
      </trkpt>
      <trkpt lat="44.25907" lon="5.62021">
        <ele>1057</ele>
        <time>2019-03-19T14:52:59Z</time>
      </trkpt>
      <trkpt lat="44.25902" lon="5.62031">
        <ele>1057</ele>
        <time>2019-03-19T14:53:00Z</time>
      </trkpt>
      <trkpt lat="44.25896" lon="5.62041">
        <ele>1056</ele>
        <time>2019-03-19T14:53:01Z</time>
      </trkpt>
      <trkpt lat="44.25891" lon="5.62051">
        <ele>1055</ele>
        <time>2019-03-19T14:53:02Z</time>
      </trkpt>
      <trkpt lat="44.25885" lon="5.62062">
        <ele>1054</ele>
        <time>2019-03-19T14:53:03Z</time>
      </trkpt>
      <trkpt lat="44.2588" lon="5.62072">
        <ele>1054</ele>
        <time>2019-03-19T14:53:04Z</time>
      </trkpt>
      <trkpt lat="44.25876" lon="5.62082">
        <ele>1053</ele>
        <time>2019-03-19T14:53:05Z</time>
      </trkpt>
      <trkpt lat="44.2587" lon="5.62092">
        <ele>1052</ele>
        <time>2019-03-19T14:53:06Z</time>
      </trkpt>
      <trkpt lat="44.25864" lon="5.62102">
        <ele>1052</ele>
        <time>2019-03-19T14:53:07Z</time>
      </trkpt>
      <trkpt lat="44.25856" lon="5.62111">
        <ele>1051</ele>
        <time>2019-03-19T14:53:08Z</time>
      </trkpt>
      <trkpt lat="44.25848" lon="5.6212">
        <ele>1050</ele>
        <time>2019-03-19T14:53:09Z</time>
      </trkpt>
      <trkpt lat="44.2584" lon="5.62127">
        <ele>1049</ele>
        <time>2019-03-19T14:53:10Z</time>
      </trkpt>
      <trkpt lat="44.25832" lon="5.62135">
        <ele>1049</ele>
        <time>2019-03-19T14:53:11Z</time>
      </trkpt>
      <trkpt lat="44.25825" lon="5.62142">
        <ele>1048</ele>
        <time>2019-03-19T14:53:12Z</time>
      </trkpt>
      <trkpt lat="44.25818" lon="5.62149">
        <ele>1047</ele>
        <time>2019-03-19T14:53:13Z</time>
      </trkpt>
      <trkpt lat="44.25811" lon="5.62155">
        <ele>1046</ele>
        <time>2019-03-19T14:53:14Z</time>
      </trkpt>
      <trkpt lat="44.25803" lon="5.62161">
        <ele>1045</ele>
        <time>2019-03-19T14:53:15Z</time>
      </trkpt>
      <trkpt lat="44.25796" lon="5.62166">
        <ele>1044</ele>
        <time>2019-03-19T14:53:16Z</time>
      </trkpt>
      <trkpt lat="44.25788" lon="5.62169">
        <ele>1043</ele>
        <time>2019-03-19T14:53:17Z</time>
      </trkpt>
      <trkpt lat="44.25781" lon="5.6217">
        <ele>1042</ele>
        <time>2019-03-19T14:53:18Z</time>
      </trkpt>
      <trkpt lat="44.25772" lon="5.62169">
        <ele>1041</ele>
        <time>2019-03-19T14:53:19Z</time>
      </trkpt>
      <trkpt lat="44.25764" lon="5.62167">
        <ele>1040</ele>
        <time>2019-03-19T14:53:20Z</time>
      </trkpt>
      <trkpt lat="44.25757" lon="5.62165">
        <ele>1039</ele>
        <time>2019-03-19T14:53:21Z</time>
      </trkpt>
      <trkpt lat="44.25749" lon="5.62162">
        <ele>1039</ele>
        <time>2019-03-19T14:53:22Z</time>
      </trkpt>
      <trkpt lat="44.25741" lon="5.62159">
        <ele>1038</ele>
        <time>2019-03-19T14:53:23Z</time>
      </trkpt>
      <trkpt lat="44.25733" lon="5.62156">
        <ele>1038</ele>
        <time>2019-03-19T14:53:24Z</time>
      </trkpt>
      <trkpt lat="44.25726" lon="5.62156">
        <ele>1037</ele>
        <time>2019-03-19T14:53:25Z</time>
      </trkpt>
      <trkpt lat="44.25719" lon="5.62157">
        <ele>1037</ele>
        <time>2019-03-19T14:53:26Z</time>
      </trkpt>
      <trkpt lat="44.25713" lon="5.6216">
        <ele>1036</ele>
        <time>2019-03-19T14:53:27Z</time>
      </trkpt>
      <trkpt lat="44.25708" lon="5.62165">
        <ele>1036</ele>
        <time>2019-03-19T14:53:28Z</time>
      </trkpt>
      <trkpt lat="44.25703" lon="5.62172">
        <ele>1035</ele>
        <time>2019-03-19T14:53:29Z</time>
      </trkpt>
      <trkpt lat="44.257" lon="5.6218">
        <ele>1035</ele>
        <time>2019-03-19T14:53:30Z</time>
      </trkpt>
      <trkpt lat="44.25698" lon="5.62187">
        <ele>1035</ele>
        <time>2019-03-19T14:53:31Z</time>
      </trkpt>
      <trkpt lat="44.25696" lon="5.62194">
        <ele>1034</ele>
        <time>2019-03-19T14:53:32Z</time>
      </trkpt>
      <trkpt lat="44.25694" lon="5.62201">
        <ele>1033</ele>
        <time>2019-03-19T14:53:33Z</time>
      </trkpt>
      <trkpt lat="44.25692" lon="5.62207">
        <ele>1033</ele>
        <time>2019-03-19T14:53:34Z</time>
      </trkpt>
      <trkpt lat="44.25689" lon="5.62213">
        <ele>1032</ele>
        <time>2019-03-19T14:53:35Z</time>
      </trkpt>
      <trkpt lat="44.25685" lon="5.62216">
        <ele>1032</ele>
        <time>2019-03-19T14:53:36Z</time>
      </trkpt>
      <trkpt lat="44.25681" lon="5.62218">
        <ele>1032</ele>
        <time>2019-03-19T14:53:37Z</time>
      </trkpt>
      <trkpt lat="44.25677" lon="5.62217">
        <ele>1031</ele>
        <time>2019-03-19T14:53:38Z</time>
      </trkpt>
      <trkpt lat="44.25675" lon="5.62214">
        <ele>1031</ele>
        <time>2019-03-19T14:53:39Z</time>
      </trkpt>
      <trkpt lat="44.25675" lon="5.62207">
        <ele>1030</ele>
        <time>2019-03-19T14:53:40Z</time>
      </trkpt>
      <trkpt lat="44.25677" lon="5.62199">
        <ele>1030</ele>
        <time>2019-03-19T14:53:41Z</time>
      </trkpt>
      <trkpt lat="44.25679" lon="5.62191">
        <ele>1029</ele>
        <time>2019-03-19T14:53:42Z</time>
      </trkpt>
      <trkpt lat="44.25682" lon="5.62183">
        <ele>1028</ele>
        <time>2019-03-19T14:53:43Z</time>
      </trkpt>
      <trkpt lat="44.25685" lon="5.62173">
        <ele>1027</ele>
        <time>2019-03-19T14:53:44Z</time>
      </trkpt>
      <trkpt lat="44.25688" lon="5.62162">
        <ele>1026</ele>
        <time>2019-03-19T14:53:45Z</time>
      </trkpt>
      <trkpt lat="44.25689" lon="5.6215">
        <ele>1025</ele>
        <time>2019-03-19T14:53:46Z</time>
      </trkpt>
      <trkpt lat="44.2569" lon="5.62139">
        <ele>1024</ele>
        <time>2019-03-19T14:53:47Z</time>
      </trkpt>
      <trkpt lat="44.25692" lon="5.62129">
        <ele>1023</ele>
        <time>2019-03-19T14:53:48Z</time>
      </trkpt>
      <trkpt lat="44.25694" lon="5.62119">
        <ele>1022</ele>
        <time>2019-03-19T14:53:49Z</time>
      </trkpt>
      <trkpt lat="44.25697" lon="5.62109">
        <ele>1021</ele>
        <time>2019-03-19T14:53:50Z</time>
      </trkpt>
      <trkpt lat="44.257" lon="5.621">
        <ele>1021</ele>
        <time>2019-03-19T14:53:51Z</time>
      </trkpt>
      <trkpt lat="44.25703" lon="5.62089">
        <ele>1020</ele>
        <time>2019-03-19T14:53:52Z</time>
      </trkpt>
      <trkpt lat="44.25706" lon="5.62079">
        <ele>1019</ele>
        <time>2019-03-19T14:53:53Z</time>
      </trkpt>
      <trkpt lat="44.25708" lon="5.62069">
        <ele>1018</ele>
        <time>2019-03-19T14:53:54Z</time>
      </trkpt>
      <trkpt lat="44.2571" lon="5.62059">
        <ele>1018</ele>
        <time>2019-03-19T14:53:55Z</time>
      </trkpt>
      <trkpt lat="44.25712" lon="5.62049">
        <ele>1017</ele>
        <time>2019-03-19T14:53:56Z</time>
      </trkpt>
      <trkpt lat="44.25716" lon="5.62039">
        <ele>1016</ele>
        <time>2019-03-19T14:53:57Z</time>
      </trkpt>
      <trkpt lat="44.25719" lon="5.62029">
        <ele>1015</ele>
        <time>2019-03-19T14:53:58Z</time>
      </trkpt>
      <trkpt lat="44.25724" lon="5.6202">
        <ele>1015</ele>
        <time>2019-03-19T14:53:59Z</time>
      </trkpt>
      <trkpt lat="44.25728" lon="5.62012">
        <ele>1014</ele>
        <time>2019-03-19T14:54:00Z</time>
      </trkpt>
      <trkpt lat="44.25733" lon="5.62004">
        <ele>1014</ele>
        <time>2019-03-19T14:54:01Z</time>
      </trkpt>
      <trkpt lat="44.25737" lon="5.61997">
        <ele>1013</ele>
        <time>2019-03-19T14:54:02Z</time>
      </trkpt>
      <trkpt lat="44.25741" lon="5.6199">
        <ele>1012</ele>
        <time>2019-03-19T14:54:03Z</time>
      </trkpt>
      <trkpt lat="44.25743" lon="5.61982">
        <ele>1012</ele>
        <time>2019-03-19T14:54:04Z</time>
      </trkpt>
      <trkpt lat="44.25743" lon="5.61974">
        <ele>1011</ele>
        <time>2019-03-19T14:54:05Z</time>
      </trkpt>
      <trkpt lat="44.25741" lon="5.61968">
        <ele>1010</ele>
        <time>2019-03-19T14:54:06Z</time>
      </trkpt>
      <trkpt lat="44.25737" lon="5.61964">
        <ele>1009</ele>
        <time>2019-03-19T14:54:07Z</time>
      </trkpt>
      <trkpt lat="44.25731" lon="5.61964">
        <ele>1009</ele>
        <time>2019-03-19T14:54:08Z</time>
      </trkpt>
      <trkpt lat="44.25724" lon="5.61965">
        <ele>1008</ele>
        <time>2019-03-19T14:54:09Z</time>
      </trkpt>
      <trkpt lat="44.25717" lon="5.61967">
        <ele>1007</ele>
        <time>2019-03-19T14:54:10Z</time>
      </trkpt>
      <trkpt lat="44.2571" lon="5.61969">
        <ele>1007</ele>
        <time>2019-03-19T14:54:11Z</time>
      </trkpt>
      <trkpt lat="44.25703" lon="5.61971">
        <ele>1006</ele>
        <time>2019-03-19T14:54:12Z</time>
      </trkpt>
      <trkpt lat="44.25695" lon="5.61973">
        <ele>1006</ele>
        <time>2019-03-19T14:54:13Z</time>
      </trkpt>
      <trkpt lat="44.25688" lon="5.61976">
        <ele>1005</ele>
        <time>2019-03-19T14:54:14Z</time>
      </trkpt>
      <trkpt lat="44.2568" lon="5.61978">
        <ele>1005</ele>
        <time>2019-03-19T14:54:15Z</time>
      </trkpt>
      <trkpt lat="44.25673" lon="5.6198">
        <ele>1005</ele>
        <time>2019-03-19T14:54:16Z</time>
      </trkpt>
      <trkpt lat="44.25665" lon="5.61982">
        <ele>1004</ele>
        <time>2019-03-19T14:54:17Z</time>
      </trkpt>
      <trkpt lat="44.25658" lon="5.61985">
        <ele>1004</ele>
        <time>2019-03-19T14:54:18Z</time>
      </trkpt>
      <trkpt lat="44.25651" lon="5.61987">
        <ele>1004</ele>
        <time>2019-03-19T14:54:19Z</time>
      </trkpt>
      <trkpt lat="44.25644" lon="5.61989">
        <ele>1003</ele>
        <time>2019-03-19T14:54:20Z</time>
      </trkpt>
      <trkpt lat="44.25636" lon="5.6199">
        <ele>1003</ele>
        <time>2019-03-19T14:54:21Z</time>
      </trkpt>
      <trkpt lat="44.25629" lon="5.6199">
        <ele>1002</ele>
        <time>2019-03-19T14:54:22Z</time>
      </trkpt>
      <trkpt lat="44.25621" lon="5.6199">
        <ele>1002</ele>
        <time>2019-03-19T14:54:23Z</time>
      </trkpt>
      <trkpt lat="44.25613" lon="5.61989">
        <ele>1001</ele>
        <time>2019-03-19T14:54:24Z</time>
      </trkpt>
      <trkpt lat="44.25605" lon="5.61988">
        <ele>1001</ele>
        <time>2019-03-19T14:54:25Z</time>
      </trkpt>
      <trkpt lat="44.25597" lon="5.61987">
        <ele>1000</ele>
        <time>2019-03-19T14:54:26Z</time>
      </trkpt>
      <trkpt lat="44.25589" lon="5.61987">
        <ele>999</ele>
        <time>2019-03-19T14:54:27Z</time>
      </trkpt>
      <trkpt lat="44.25582" lon="5.61988">
        <ele>999</ele>
        <time>2019-03-19T14:54:28Z</time>
      </trkpt>
      <trkpt lat="44.25575" lon="5.6199">
        <ele>998</ele>
        <time>2019-03-19T14:54:29Z</time>
      </trkpt>
      <trkpt lat="44.25569" lon="5.61992">
        <ele>997</ele>
        <time>2019-03-19T14:54:30Z</time>
      </trkpt>
      <trkpt lat="44.25562" lon="5.61993">
        <ele>997</ele>
        <time>2019-03-19T14:54:31Z</time>
      </trkpt>
      <trkpt lat="44.25555" lon="5.61995">
        <ele>996</ele>
        <time>2019-03-19T14:54:32Z</time>
      </trkpt>
      <trkpt lat="44.25548" lon="5.61997">
        <ele>996</ele>
        <time>2019-03-19T14:54:33Z</time>
      </trkpt>
      <trkpt lat="44.25541" lon="5.61998">
        <ele>995</ele>
        <time>2019-03-19T14:54:34Z</time>
      </trkpt>
      <trkpt lat="44.25534" lon="5.61999">
        <ele>994</ele>
        <time>2019-03-19T14:54:35Z</time>
      </trkpt>
      <trkpt lat="44.25527" lon="5.61999">
        <ele>994</ele>
        <time>2019-03-19T14:54:36Z</time>
      </trkpt>
      <trkpt lat="44.2552" lon="5.61999">
        <ele>993</ele>
        <time>2019-03-19T14:54:37Z</time>
      </trkpt>
      <trkpt lat="44.25515" lon="5.61997">
        <ele>992</ele>
        <time>2019-03-19T14:54:38Z</time>
      </trkpt>
      <trkpt lat="44.2551" lon="5.61996">
        <ele>992</ele>
        <time>2019-03-19T14:54:39Z</time>
      </trkpt>
      <trkpt lat="44.25505" lon="5.61996">
        <ele>991</ele>
        <time>2019-03-19T14:54:40Z</time>
      </trkpt>
      <trkpt lat="44.25502" lon="5.61998">
        <ele>991</ele>
        <time>2019-03-19T14:54:41Z</time>
      </trkpt>
      <trkpt lat="44.25498" lon="5.62001">
        <ele>991</ele>
        <time>2019-03-19T14:54:42Z</time>
      </trkpt>
      <trkpt lat="44.25496" lon="5.62006">
        <ele>990</ele>
        <time>2019-03-19T14:54:43Z</time>
      </trkpt>
      <trkpt lat="44.25496" lon="5.62013">
        <ele>990</ele>
        <time>2019-03-19T14:54:44Z</time>
      </trkpt>
      <trkpt lat="44.25498" lon="5.62019">
        <ele>990</ele>
        <time>2019-03-19T14:54:45Z</time>
      </trkpt>
      <trkpt lat="44.25502" lon="5.62024">
        <ele>990</ele>
        <time>2019-03-19T14:54:46Z</time>
      </trkpt>
      <trkpt lat="44.25507" lon="5.62026">
        <ele>990</ele>
        <time>2019-03-19T14:54:47Z</time>
      </trkpt>
      <trkpt lat="44.25513" lon="5.62027">
        <ele>990</ele>
        <time>2019-03-19T14:54:48Z</time>
      </trkpt>
      <trkpt lat="44.25518" lon="5.62028">
        <ele>989</ele>
        <time>2019-03-19T14:54:49Z</time>
      </trkpt>
      <trkpt lat="44.25525" lon="5.62029">
        <ele>989</ele>
        <time>2019-03-19T14:54:50Z</time>
      </trkpt>
      <trkpt lat="44.25531" lon="5.6203">
        <ele>989</ele>
        <time>2019-03-19T14:54:51Z</time>
      </trkpt>
      <trkpt lat="44.25538" lon="5.62029">
        <ele>988</ele>
        <time>2019-03-19T14:54:52Z</time>
      </trkpt>
      <trkpt lat="44.25544" lon="5.62028">
        <ele>988</ele>
        <time>2019-03-19T14:54:53Z</time>
      </trkpt>
      <trkpt lat="44.25549" lon="5.62027">
        <ele>988</ele>
        <time>2019-03-19T14:54:54Z</time>
      </trkpt>
      <trkpt lat="44.25554" lon="5.62028">
        <ele>987</ele>
        <time>2019-03-19T14:54:55Z</time>
      </trkpt>
      <trkpt lat="44.25557" lon="5.62032">
        <ele>987</ele>
        <time>2019-03-19T14:54:56Z</time>
      </trkpt>
      <trkpt lat="44.25559" lon="5.62037">
        <ele>987</ele>
        <time>2019-03-19T14:54:57Z</time>
      </trkpt>
      <trkpt lat="44.25559" lon="5.62043">
        <ele>986</ele>
        <time>2019-03-19T14:54:58Z</time>
      </trkpt>
      <trkpt lat="44.25556" lon="5.62047">
        <ele>986</ele>
        <time>2019-03-19T14:54:59Z</time>
      </trkpt>
      <trkpt lat="44.25549" lon="5.62049">
        <ele>985</ele>
        <time>2019-03-19T14:55:00Z</time>
      </trkpt>
      <trkpt lat="44.25542" lon="5.62049">
        <ele>984</ele>
        <time>2019-03-19T14:55:01Z</time>
      </trkpt>
      <trkpt lat="44.25533" lon="5.62049">
        <ele>984</ele>
        <time>2019-03-19T14:55:02Z</time>
      </trkpt>
      <trkpt lat="44.25525" lon="5.6205">
        <ele>983</ele>
        <time>2019-03-19T14:55:03Z</time>
      </trkpt>
      <trkpt lat="44.25515" lon="5.62051">
        <ele>983</ele>
        <time>2019-03-19T14:55:04Z</time>
      </trkpt>
      <trkpt lat="44.25506" lon="5.62051">
        <ele>982</ele>
        <time>2019-03-19T14:55:05Z</time>
      </trkpt>
      <trkpt lat="44.25497" lon="5.62051">
        <ele>981</ele>
        <time>2019-03-19T14:55:06Z</time>
      </trkpt>
      <trkpt lat="44.25489" lon="5.6205">
        <ele>981</ele>
        <time>2019-03-19T14:55:07Z</time>
      </trkpt>
      <trkpt lat="44.25482" lon="5.62048">
        <ele>980</ele>
        <time>2019-03-19T14:55:08Z</time>
      </trkpt>
      <trkpt lat="44.25475" lon="5.62044">
        <ele>980</ele>
        <time>2019-03-19T14:55:09Z</time>
      </trkpt>
      <trkpt lat="44.25468" lon="5.6204">
        <ele>979</ele>
        <time>2019-03-19T14:55:10Z</time>
      </trkpt>
      <trkpt lat="44.2546" lon="5.62035">
        <ele>978</ele>
        <time>2019-03-19T14:55:11Z</time>
      </trkpt>
      <trkpt lat="44.25454" lon="5.62031">
        <ele>977</ele>
        <time>2019-03-19T14:55:12Z</time>
      </trkpt>
      <trkpt lat="44.25447" lon="5.62026">
        <ele>977</ele>
        <time>2019-03-19T14:55:13Z</time>
      </trkpt>
      <trkpt lat="44.2544" lon="5.62022">
        <ele>976</ele>
        <time>2019-03-19T14:55:14Z</time>
      </trkpt>
      <trkpt lat="44.25433" lon="5.62017">
        <ele>975</ele>
        <time>2019-03-19T14:55:15Z</time>
      </trkpt>
      <trkpt lat="44.25426" lon="5.62013">
        <ele>974</ele>
        <time>2019-03-19T14:55:16Z</time>
      </trkpt>
      <trkpt lat="44.2542" lon="5.62008">
        <ele>973</ele>
        <time>2019-03-19T14:55:17Z</time>
      </trkpt>
      <trkpt lat="44.25413" lon="5.62004">
        <ele>972</ele>
        <time>2019-03-19T14:55:18Z</time>
      </trkpt>
      <trkpt lat="44.25406" lon="5.62001">
        <ele>971</ele>
        <time>2019-03-19T14:55:19Z</time>
      </trkpt>
      <trkpt lat="44.25399" lon="5.61999">
        <ele>970</ele>
        <time>2019-03-19T14:55:20Z</time>
      </trkpt>
      <trkpt lat="44.25393" lon="5.61998">
        <ele>969</ele>
        <time>2019-03-19T14:55:21Z</time>
      </trkpt>
      <trkpt lat="44.25386" lon="5.61999">
        <ele>968</ele>
        <time>2019-03-19T14:55:22Z</time>
      </trkpt>
      <trkpt lat="44.25379" lon="5.62001">
        <ele>967</ele>
        <time>2019-03-19T14:55:23Z</time>
      </trkpt>
      <trkpt lat="44.25373" lon="5.62005">
        <ele>966</ele>
        <time>2019-03-19T14:55:24Z</time>
      </trkpt>
      <trkpt lat="44.25367" lon="5.6201">
        <ele>965</ele>
        <time>2019-03-19T14:55:25Z</time>
      </trkpt>
      <trkpt lat="44.25362" lon="5.62015">
        <ele>965</ele>
        <time>2019-03-19T14:55:26Z</time>
      </trkpt>
      <trkpt lat="44.25357" lon="5.6202">
        <ele>964</ele>
        <time>2019-03-19T14:55:27Z</time>
      </trkpt>
      <trkpt lat="44.25351" lon="5.62025">
        <ele>963</ele>
        <time>2019-03-19T14:55:28Z</time>
      </trkpt>
      <trkpt lat="44.25344" lon="5.62029">
        <ele>963</ele>
        <time>2019-03-19T14:55:29Z</time>
      </trkpt>
      <trkpt lat="44.25337" lon="5.62033">
        <ele>962</ele>
        <time>2019-03-19T14:55:30Z</time>
      </trkpt>
      <trkpt lat="44.2533" lon="5.62035">
        <ele>962</ele>
        <time>2019-03-19T14:55:31Z</time>
      </trkpt>
      <trkpt lat="44.25323" lon="5.62037">
        <ele>961</ele>
        <time>2019-03-19T14:55:32Z</time>
      </trkpt>
      <trkpt lat="44.25315" lon="5.62038">
        <ele>961</ele>
        <time>2019-03-19T14:55:33Z</time>
      </trkpt>
      <trkpt lat="44.25308" lon="5.62038">
        <ele>961</ele>
        <time>2019-03-19T14:55:34Z</time>
      </trkpt>
      <trkpt lat="44.253" lon="5.62038">
        <ele>960</ele>
        <time>2019-03-19T14:55:35Z</time>
      </trkpt>
      <trkpt lat="44.25293" lon="5.62037">
        <ele>960</ele>
        <time>2019-03-19T14:55:36Z</time>
      </trkpt>
      <trkpt lat="44.25285" lon="5.62036">
        <ele>959</ele>
        <time>2019-03-19T14:55:37Z</time>
      </trkpt>
      <trkpt lat="44.25278" lon="5.62036">
        <ele>958</ele>
        <time>2019-03-19T14:55:38Z</time>
      </trkpt>
      <trkpt lat="44.25271" lon="5.62036">
        <ele>958</ele>
        <time>2019-03-19T14:55:39Z</time>
      </trkpt>
      <trkpt lat="44.25264" lon="5.62038">
        <ele>957</ele>
        <time>2019-03-19T14:55:40Z</time>
      </trkpt>
      <trkpt lat="44.25257" lon="5.62041">
        <ele>957</ele>
        <time>2019-03-19T14:55:41Z</time>
      </trkpt>
      <trkpt lat="44.25251" lon="5.62044">
        <ele>956</ele>
        <time>2019-03-19T14:55:42Z</time>
      </trkpt>
      <trkpt lat="44.25245" lon="5.62047">
        <ele>955</ele>
        <time>2019-03-19T14:55:43Z</time>
      </trkpt>
      <trkpt lat="44.25238" lon="5.6205">
        <ele>955</ele>
        <time>2019-03-19T14:55:44Z</time>
      </trkpt>
      <trkpt lat="44.25231" lon="5.6205">
        <ele>954</ele>
        <time>2019-03-19T14:55:45Z</time>
      </trkpt>
      <trkpt lat="44.25224" lon="5.6205">
        <ele>954</ele>
        <time>2019-03-19T14:55:46Z</time>
      </trkpt>
      <trkpt lat="44.25217" lon="5.62049">
        <ele>953</ele>
        <time>2019-03-19T14:55:47Z</time>
      </trkpt>
      <trkpt lat="44.2521" lon="5.62047">
        <ele>952</ele>
        <time>2019-03-19T14:55:48Z</time>
      </trkpt>
      <trkpt lat="44.25203" lon="5.62044">
        <ele>952</ele>
        <time>2019-03-19T14:55:49Z</time>
      </trkpt>
      <trkpt lat="44.25195" lon="5.62043">
        <ele>951</ele>
        <time>2019-03-19T14:55:50Z</time>
      </trkpt>
      <trkpt lat="44.25188" lon="5.62042">
        <ele>950</ele>
        <time>2019-03-19T14:55:51Z</time>
      </trkpt>
      <trkpt lat="44.2518" lon="5.62041">
        <ele>950</ele>
        <time>2019-03-19T14:55:52Z</time>
      </trkpt>
      <trkpt lat="44.25173" lon="5.6204">
        <ele>949</ele>
        <time>2019-03-19T14:55:53Z</time>
      </trkpt>
      <trkpt lat="44.25166" lon="5.62039">
        <ele>949</ele>
        <time>2019-03-19T14:55:54Z</time>
      </trkpt>
      <trkpt lat="44.25158" lon="5.62039">
        <ele>948</ele>
        <time>2019-03-19T14:55:55Z</time>
      </trkpt>
      <trkpt lat="44.2515" lon="5.62039">
        <ele>948</ele>
        <time>2019-03-19T14:55:56Z</time>
      </trkpt>
      <trkpt lat="44.25143" lon="5.6204">
        <ele>948</ele>
        <time>2019-03-19T14:55:57Z</time>
      </trkpt>
      <trkpt lat="44.25136" lon="5.6204">
        <ele>947</ele>
        <time>2019-03-19T14:55:58Z</time>
      </trkpt>
      <trkpt lat="44.25129" lon="5.62041">
        <ele>947</ele>
        <time>2019-03-19T14:55:59Z</time>
      </trkpt>
      <trkpt lat="44.25123" lon="5.62043">
        <ele>946</ele>
        <time>2019-03-19T14:56:00Z</time>
      </trkpt>
      <trkpt lat="44.25117" lon="5.62044">
        <ele>946</ele>
        <time>2019-03-19T14:56:01Z</time>
      </trkpt>
      <trkpt lat="44.2511" lon="5.62045">
        <ele>945</ele>
        <time>2019-03-19T14:56:02Z</time>
      </trkpt>
      <trkpt lat="44.25103" lon="5.62045">
        <ele>945</ele>
        <time>2019-03-19T14:56:03Z</time>
      </trkpt>
      <trkpt lat="44.25097" lon="5.62045">
        <ele>944</ele>
        <time>2019-03-19T14:56:04Z</time>
      </trkpt>
      <trkpt lat="44.2509" lon="5.62043">
        <ele>944</ele>
        <time>2019-03-19T14:56:05Z</time>
      </trkpt>
      <trkpt lat="44.25083" lon="5.62039">
        <ele>943</ele>
        <time>2019-03-19T14:56:06Z</time>
      </trkpt>
      <trkpt lat="44.25077" lon="5.62032">
        <ele>943</ele>
        <time>2019-03-19T14:56:07Z</time>
      </trkpt>
      <trkpt lat="44.25072" lon="5.62024">
        <ele>942</ele>
        <time>2019-03-19T14:56:08Z</time>
      </trkpt>
      <trkpt lat="44.25068" lon="5.62014">
        <ele>941</ele>
        <time>2019-03-19T14:56:09Z</time>
      </trkpt>
      <trkpt lat="44.25065" lon="5.62003">
        <ele>940</ele>
        <time>2019-03-19T14:56:10Z</time>
      </trkpt>
      <trkpt lat="44.25061" lon="5.61993">
        <ele>939</ele>
        <time>2019-03-19T14:56:11Z</time>
      </trkpt>
      <trkpt lat="44.25058" lon="5.61983">
        <ele>938</ele>
        <time>2019-03-19T14:56:12Z</time>
      </trkpt>
      <trkpt lat="44.25055" lon="5.61973">
        <ele>937</ele>
        <time>2019-03-19T14:56:13Z</time>
      </trkpt>
      <trkpt lat="44.25051" lon="5.61964">
        <ele>936</ele>
        <time>2019-03-19T14:56:14Z</time>
      </trkpt>
      <trkpt lat="44.25049" lon="5.61954">
        <ele>935</ele>
        <time>2019-03-19T14:56:15Z</time>
      </trkpt>
      <trkpt lat="44.25048" lon="5.61945">
        <ele>934</ele>
        <time>2019-03-19T14:56:16Z</time>
      </trkpt>
      <trkpt lat="44.25048" lon="5.61935">
        <ele>933</ele>
        <time>2019-03-19T14:56:17Z</time>
      </trkpt>
      <trkpt lat="44.25048" lon="5.61925">
        <ele>932</ele>
        <time>2019-03-19T14:56:18Z</time>
      </trkpt>
      <trkpt lat="44.25049" lon="5.61916">
        <ele>931</ele>
        <time>2019-03-19T14:56:19Z</time>
      </trkpt>
      <trkpt lat="44.25049" lon="5.61906">
        <ele>930</ele>
        <time>2019-03-19T14:56:20Z</time>
      </trkpt>
      <trkpt lat="44.25048" lon="5.61896">
        <ele>929</ele>
        <time>2019-03-19T14:56:21Z</time>
      </trkpt>
      <trkpt lat="44.25048" lon="5.61886">
        <ele>928</ele>
        <time>2019-03-19T14:56:22Z</time>
      </trkpt>
      <trkpt lat="44.25047" lon="5.61876">
        <ele>928</ele>
        <time>2019-03-19T14:56:23Z</time>
      </trkpt>
      <trkpt lat="44.25048" lon="5.61866">
        <ele>927</ele>
        <time>2019-03-19T14:56:24Z</time>
      </trkpt>
      <trkpt lat="44.25049" lon="5.61856">
        <ele>926</ele>
        <time>2019-03-19T14:56:25Z</time>
      </trkpt>
      <trkpt lat="44.25052" lon="5.61847">
        <ele>925</ele>
        <time>2019-03-19T14:56:26Z</time>
      </trkpt>
      <trkpt lat="44.25055" lon="5.61839">
        <ele>924</ele>
        <time>2019-03-19T14:56:27Z</time>
      </trkpt>
      <trkpt lat="44.2506" lon="5.61831">
        <ele>923</ele>
        <time>2019-03-19T14:56:28Z</time>
      </trkpt>
      <trkpt lat="44.25064" lon="5.61824">
        <ele>923</ele>
        <time>2019-03-19T14:56:29Z</time>
      </trkpt>
      <trkpt lat="44.2507" lon="5.61817">
        <ele>922</ele>
        <time>2019-03-19T14:56:30Z</time>
      </trkpt>
      <trkpt lat="44.25075" lon="5.6181">
        <ele>921</ele>
        <time>2019-03-19T14:56:31Z</time>
      </trkpt>
      <trkpt lat="44.2508" lon="5.61804">
        <ele>921</ele>
        <time>2019-03-19T14:56:32Z</time>
      </trkpt>
      <trkpt lat="44.25085" lon="5.61799">
        <ele>920</ele>
        <time>2019-03-19T14:56:33Z</time>
      </trkpt>
      <trkpt lat="44.25089" lon="5.61793">
        <ele>919</ele>
        <time>2019-03-19T14:56:34Z</time>
      </trkpt>
      <trkpt lat="44.25092" lon="5.61787">
        <ele>919</ele>
        <time>2019-03-19T14:56:35Z</time>
      </trkpt>
      <trkpt lat="44.25094" lon="5.6178">
        <ele>918</ele>
        <time>2019-03-19T14:56:36Z</time>
      </trkpt>
      <trkpt lat="44.25093" lon="5.61772">
        <ele>918</ele>
        <time>2019-03-19T14:56:37Z</time>
      </trkpt>
      <trkpt lat="44.2509" lon="5.61767">
        <ele>917</ele>
        <time>2019-03-19T14:56:38Z</time>
      </trkpt>
      <trkpt lat="44.25085" lon="5.61763">
        <ele>917</ele>
        <time>2019-03-19T14:56:39Z</time>
      </trkpt>
      <trkpt lat="44.2508" lon="5.61762">
        <ele>917</ele>
        <time>2019-03-19T14:56:40Z</time>
      </trkpt>
      <trkpt lat="44.25073" lon="5.61761">
        <ele>916</ele>
        <time>2019-03-19T14:56:41Z</time>
      </trkpt>
      <trkpt lat="44.25066" lon="5.61761">
        <ele>916</ele>
        <time>2019-03-19T14:56:42Z</time>
      </trkpt>
      <trkpt lat="44.2506" lon="5.61761">
        <ele>916</ele>
        <time>2019-03-19T14:56:43Z</time>
      </trkpt>
      <trkpt lat="44.25053" lon="5.61761">
        <ele>915</ele>
        <time>2019-03-19T14:56:44Z</time>
      </trkpt>
      <trkpt lat="44.25046" lon="5.61761">
        <ele>915</ele>
        <time>2019-03-19T14:56:45Z</time>
      </trkpt>
      <trkpt lat="44.25039" lon="5.6176">
        <ele>914</ele>
        <time>2019-03-19T14:56:46Z</time>
      </trkpt>
      <trkpt lat="44.25032" lon="5.61759">
        <ele>914</ele>
        <time>2019-03-19T14:56:47Z</time>
      </trkpt>
      <trkpt lat="44.25025" lon="5.61757">
        <ele>914</ele>
        <time>2019-03-19T14:56:48Z</time>
      </trkpt>
      <trkpt lat="44.25018" lon="5.61755">
        <ele>914</ele>
        <time>2019-03-19T14:56:49Z</time>
      </trkpt>
      <trkpt lat="44.25011" lon="5.61753">
        <ele>914</ele>
        <time>2019-03-19T14:56:50Z</time>
      </trkpt>
      <trkpt lat="44.25005" lon="5.61749">
        <ele>914</ele>
        <time>2019-03-19T14:56:51Z</time>
      </trkpt>
      <trkpt lat="44.24999" lon="5.61743">
        <ele>914</ele>
        <time>2019-03-19T14:56:52Z</time>
      </trkpt>
      <trkpt lat="44.24994" lon="5.61737">
        <ele>914</ele>
        <time>2019-03-19T14:56:53Z</time>
      </trkpt>
      <trkpt lat="44.24988" lon="5.6173">
        <ele>914</ele>
        <time>2019-03-19T14:56:54Z</time>
      </trkpt>
      <trkpt lat="44.24983" lon="5.61723">
        <ele>914</ele>
        <time>2019-03-19T14:56:55Z</time>
      </trkpt>
      <trkpt lat="44.24978" lon="5.61715">
        <ele>913</ele>
        <time>2019-03-19T14:56:56Z</time>
      </trkpt>
      <trkpt lat="44.24974" lon="5.61706">
        <ele>913</ele>
        <time>2019-03-19T14:56:57Z</time>
      </trkpt>
      <trkpt lat="44.24971" lon="5.61697">
        <ele>913</ele>
        <time>2019-03-19T14:56:58Z</time>
      </trkpt>
      <trkpt lat="44.24967" lon="5.61688">
        <ele>912</ele>
        <time>2019-03-19T14:56:59Z</time>
      </trkpt>
      <trkpt lat="44.24965" lon="5.61678">
        <ele>912</ele>
        <time>2019-03-19T14:57:00Z</time>
      </trkpt>
      <trkpt lat="44.24963" lon="5.61668">
        <ele>911</ele>
        <time>2019-03-19T14:57:01Z</time>
      </trkpt>
      <trkpt lat="44.24962" lon="5.61657">
        <ele>911</ele>
        <time>2019-03-19T14:57:02Z</time>
      </trkpt>
      <trkpt lat="44.24961" lon="5.61646">
        <ele>910</ele>
        <time>2019-03-19T14:57:03Z</time>
      </trkpt>
      <trkpt lat="44.2496" lon="5.61636">
        <ele>909</ele>
        <time>2019-03-19T14:57:04Z</time>
      </trkpt>
      <trkpt lat="44.24961" lon="5.61625">
        <ele>908</ele>
        <time>2019-03-19T14:57:05Z</time>
      </trkpt>
      <trkpt lat="44.24962" lon="5.61615">
        <ele>907</ele>
        <time>2019-03-19T14:57:06Z</time>
      </trkpt>
      <trkpt lat="44.24964" lon="5.61606">
        <ele>906</ele>
        <time>2019-03-19T14:57:07Z</time>
      </trkpt>
      <trkpt lat="44.24966" lon="5.61596">
        <ele>905</ele>
        <time>2019-03-19T14:57:08Z</time>
      </trkpt>
      <trkpt lat="44.24968" lon="5.61587">
        <ele>904</ele>
        <time>2019-03-19T14:57:09Z</time>
      </trkpt>
      <trkpt lat="44.24971" lon="5.61579">
        <ele>903</ele>
        <time>2019-03-19T14:57:10Z</time>
      </trkpt>
      <trkpt lat="44.24973" lon="5.61571">
        <ele>902</ele>
        <time>2019-03-19T14:57:11Z</time>
      </trkpt>
      <trkpt lat="44.24974" lon="5.61563">
        <ele>901</ele>
        <time>2019-03-19T14:57:12Z</time>
      </trkpt>
      <trkpt lat="44.24973" lon="5.61556">
        <ele>901</ele>
        <time>2019-03-19T14:57:13Z</time>
      </trkpt>
      <trkpt lat="44.24969" lon="5.61551">
        <ele>900</ele>
        <time>2019-03-19T14:57:14Z</time>
      </trkpt>
      <trkpt lat="44.24964" lon="5.61548">
        <ele>899</ele>
        <time>2019-03-19T14:57:15Z</time>
      </trkpt>
      <trkpt lat="44.24958" lon="5.61547">
        <ele>898</ele>
        <time>2019-03-19T14:57:16Z</time>
      </trkpt>
      <trkpt lat="44.24952" lon="5.61548">
        <ele>897</ele>
        <time>2019-03-19T14:57:17Z</time>
      </trkpt>
      <trkpt lat="44.24946" lon="5.61549">
        <ele>896</ele>
        <time>2019-03-19T14:57:18Z</time>
      </trkpt>
      <trkpt lat="44.24939" lon="5.6155">
        <ele>895</ele>
        <time>2019-03-19T14:57:19Z</time>
      </trkpt>
      <trkpt lat="44.24932" lon="5.61551">
        <ele>895</ele>
        <time>2019-03-19T14:57:20Z</time>
      </trkpt>
      <trkpt lat="44.24925" lon="5.61551">
        <ele>894</ele>
        <time>2019-03-19T14:57:21Z</time>
      </trkpt>
      <trkpt lat="44.24918" lon="5.61551">
        <ele>894</ele>
        <time>2019-03-19T14:57:22Z</time>
      </trkpt>
      <trkpt lat="44.24911" lon="5.61551">
        <ele>894</ele>
        <time>2019-03-19T14:57:23Z</time>
      </trkpt>
      <trkpt lat="44.24904" lon="5.6155">
        <ele>893</ele>
        <time>2019-03-19T14:57:24Z</time>
      </trkpt>
      <trkpt lat="44.24897" lon="5.61548">
        <ele>893</ele>
        <time>2019-03-19T14:57:25Z</time>
      </trkpt>
      <trkpt lat="44.2489" lon="5.61545">
        <ele>893</ele>
        <time>2019-03-19T14:57:26Z</time>
      </trkpt>
      <trkpt lat="44.24883" lon="5.61542">
        <ele>893</ele>
        <time>2019-03-19T14:57:27Z</time>
      </trkpt>
      <trkpt lat="44.24876" lon="5.61537">
        <ele>892</ele>
        <time>2019-03-19T14:57:28Z</time>
      </trkpt>
      <trkpt lat="44.24869" lon="5.61532">
        <ele>892</ele>
        <time>2019-03-19T14:57:29Z</time>
      </trkpt>
      <trkpt lat="44.24862" lon="5.61526">
        <ele>892</ele>
        <time>2019-03-19T14:57:30Z</time>
      </trkpt>
      <trkpt lat="44.24855" lon="5.61521">
        <ele>891</ele>
        <time>2019-03-19T14:57:31Z</time>
      </trkpt>
      <trkpt lat="44.24849" lon="5.61515">
        <ele>891</ele>
        <time>2019-03-19T14:57:32Z</time>
      </trkpt>
      <trkpt lat="44.24842" lon="5.61509">
        <ele>890</ele>
        <time>2019-03-19T14:57:33Z</time>
      </trkpt>
      <trkpt lat="44.24836" lon="5.61503">
        <ele>889</ele>
        <time>2019-03-19T14:57:34Z</time>
      </trkpt>
      <trkpt lat="44.2483" lon="5.61497">
        <ele>889</ele>
        <time>2019-03-19T14:57:35Z</time>
      </trkpt>
      <trkpt lat="44.24824" lon="5.61491">
        <ele>888</ele>
        <time>2019-03-19T14:57:36Z</time>
      </trkpt>
      <trkpt lat="44.24818" lon="5.61484">
        <ele>887</ele>
        <time>2019-03-19T14:57:37Z</time>
      </trkpt>
      <trkpt lat="44.24814" lon="5.61475">
        <ele>886</ele>
        <time>2019-03-19T14:57:38Z</time>
      </trkpt>
      <trkpt lat="44.24811" lon="5.61466">
        <ele>885</ele>
        <time>2019-03-19T14:57:39Z</time>
      </trkpt>
      <trkpt lat="44.24809" lon="5.61456">
        <ele>884</ele>
        <time>2019-03-19T14:57:40Z</time>
      </trkpt>
      <trkpt lat="44.24809" lon="5.61447">
        <ele>883</ele>
        <time>2019-03-19T14:57:41Z</time>
      </trkpt>
      <trkpt lat="44.24808" lon="5.61437">
        <ele>882</ele>
        <time>2019-03-19T14:57:42Z</time>
      </trkpt>
      <trkpt lat="44.24808" lon="5.61427">
        <ele>881</ele>
        <time>2019-03-19T14:57:43Z</time>
      </trkpt>
      <trkpt lat="44.24806" lon="5.61417">
        <ele>880</ele>
        <time>2019-03-19T14:57:44Z</time>
      </trkpt>
      <trkpt lat="44.24804" lon="5.61409">
        <ele>879</ele>
        <time>2019-03-19T14:57:45Z</time>
      </trkpt>
      <trkpt lat="44.24799" lon="5.61403">
        <ele>878</ele>
        <time>2019-03-19T14:57:46Z</time>
      </trkpt>
      <trkpt lat="44.24794" lon="5.61398">
        <ele>877</ele>
        <time>2019-03-19T14:57:47Z</time>
      </trkpt>
      <trkpt lat="44.24788" lon="5.61395">
        <ele>876</ele>
        <time>2019-03-19T14:57:48Z</time>
      </trkpt>
      <trkpt lat="44.24782" lon="5.61392">
        <ele>876</ele>
        <time>2019-03-19T14:57:49Z</time>
      </trkpt>
      <trkpt lat="44.24776" lon="5.61389">
        <ele>875</ele>
        <time>2019-03-19T14:57:50Z</time>
      </trkpt>
      <trkpt lat="44.2477" lon="5.61386">
        <ele>874</ele>
        <time>2019-03-19T14:57:51Z</time>
      </trkpt>
      <trkpt lat="44.24765" lon="5.61382">
        <ele>874</ele>
        <time>2019-03-19T14:57:52Z</time>
      </trkpt>
      <trkpt lat="44.24759" lon="5.61376">
        <ele>873</ele>
        <time>2019-03-19T14:57:53Z</time>
      </trkpt>
      <trkpt lat="44.24754" lon="5.61369">
        <ele>873</ele>
        <time>2019-03-19T14:57:54Z</time>
      </trkpt>
      <trkpt lat="44.2475" lon="5.61361">
        <ele>872</ele>
        <time>2019-03-19T14:57:55Z</time>
      </trkpt>
      <trkpt lat="44.24746" lon="5.61351">
        <ele>871</ele>
        <time>2019-03-19T14:57:56Z</time>
      </trkpt>
      <trkpt lat="44.24742" lon="5.61341">
        <ele>870</ele>
        <time>2019-03-19T14:57:57Z</time>
      </trkpt>
      <trkpt lat="44.24739" lon="5.61332">
        <ele>869</ele>
        <time>2019-03-19T14:57:58Z</time>
      </trkpt>
      <trkpt lat="44.24736" lon="5.61321">
        <ele>868</ele>
        <time>2019-03-19T14:57:59Z</time>
      </trkpt>
      <trkpt lat="44.24734" lon="5.61311">
        <ele>868</ele>
        <time>2019-03-19T14:58:00Z</time>
      </trkpt>
      <trkpt lat="44.24733" lon="5.61301">
        <ele>868</ele>
        <time>2019-03-19T14:58:01Z</time>
      </trkpt>
      <trkpt lat="44.24732" lon="5.6129">
        <ele>867</ele>
        <time>2019-03-19T14:58:02Z</time>
      </trkpt>
      <trkpt lat="44.24731" lon="5.61279">
        <ele>867</ele>
        <time>2019-03-19T14:58:03Z</time>
      </trkpt>
      <trkpt lat="44.24729" lon="5.61269">
        <ele>866</ele>
        <time>2019-03-19T14:58:04Z</time>
      </trkpt>
      <trkpt lat="44.24728" lon="5.61258">
        <ele>866</ele>
        <time>2019-03-19T14:58:05Z</time>
      </trkpt>
      <trkpt lat="44.24727" lon="5.61247">
        <ele>865</ele>
        <time>2019-03-19T14:58:06Z</time>
      </trkpt>
      <trkpt lat="44.24726" lon="5.61236">
        <ele>865</ele>
        <time>2019-03-19T14:58:07Z</time>
      </trkpt>
      <trkpt lat="44.24725" lon="5.61227">
        <ele>864</ele>
        <time>2019-03-19T14:58:08Z</time>
      </trkpt>
      <trkpt lat="44.24724" lon="5.61217">
        <ele>863</ele>
        <time>2019-03-19T14:58:09Z</time>
      </trkpt>
      <trkpt lat="44.24723" lon="5.61206">
        <ele>863</ele>
        <time>2019-03-19T14:58:10Z</time>
      </trkpt>
      <trkpt lat="44.24722" lon="5.61196">
        <ele>862</ele>
        <time>2019-03-19T14:58:11Z</time>
      </trkpt>
      <trkpt lat="44.24721" lon="5.61185">
        <ele>861</ele>
        <time>2019-03-19T14:58:12Z</time>
      </trkpt>
      <trkpt lat="44.2472" lon="5.61174">
        <ele>861</ele>
        <time>2019-03-19T14:58:13Z</time>
      </trkpt>
      <trkpt lat="44.2472" lon="5.61164">
        <ele>860</ele>
        <time>2019-03-19T14:58:14Z</time>
      </trkpt>
      <trkpt lat="44.24719" lon="5.61152">
        <ele>859</ele>
        <time>2019-03-19T14:58:15Z</time>
      </trkpt>
      <trkpt lat="44.24718" lon="5.61141">
        <ele>859</ele>
        <time>2019-03-19T14:58:16Z</time>
      </trkpt>
      <trkpt lat="44.24717" lon="5.6113">
        <ele>858</ele>
        <time>2019-03-19T14:58:17Z</time>
      </trkpt>
      <trkpt lat="44.24716" lon="5.61119">
        <ele>857</ele>
        <time>2019-03-19T14:58:18Z</time>
      </trkpt>
      <trkpt lat="44.24716" lon="5.61108">
        <ele>856</ele>
        <time>2019-03-19T14:58:19Z</time>
      </trkpt>
      <trkpt lat="44.24715" lon="5.61098">
        <ele>856</ele>
        <time>2019-03-19T14:58:20Z</time>
      </trkpt>
      <trkpt lat="44.24715" lon="5.61089">
        <ele>855</ele>
        <time>2019-03-19T14:58:21Z</time>
      </trkpt>
      <trkpt lat="44.24716" lon="5.6108">
        <ele>854</ele>
        <time>2019-03-19T14:58:22Z</time>
      </trkpt>
      <trkpt lat="44.24717" lon="5.61071">
        <ele>854</ele>
        <time>2019-03-19T14:58:23Z</time>
      </trkpt>
      <trkpt lat="44.24718" lon="5.61064">
        <ele>853</ele>
        <time>2019-03-19T14:58:24Z</time>
      </trkpt>
      <trkpt lat="44.24719" lon="5.61058">
        <ele>853</ele>
        <time>2019-03-19T14:58:25Z</time>
      </trkpt>
      <trkpt lat="44.2472" lon="5.61053">
        <ele>852</ele>
        <time>2019-03-19T14:58:26Z</time>
      </trkpt>
      <trkpt lat="44.24721" lon="5.61048">
        <ele>852</ele>
        <time>2019-03-19T14:58:27Z</time>
      </trkpt>
      <trkpt lat="44.2472" lon="5.61043">
        <ele>851</ele>
        <time>2019-03-19T14:58:28Z</time>
      </trkpt>
      <trkpt lat="44.24718" lon="5.61039">
        <ele>851</ele>
        <time>2019-03-19T14:58:29Z</time>
      </trkpt>
      <trkpt lat="44.24715" lon="5.61038">
        <ele>851</ele>
        <time>2019-03-19T14:58:30Z</time>
      </trkpt>
      <trkpt lat="44.24711" lon="5.61041">
        <ele>851</ele>
        <time>2019-03-19T14:58:31Z</time>
      </trkpt>
      <trkpt lat="44.24709" lon="5.61046">
        <ele>851</ele>
        <time>2019-03-19T14:58:32Z</time>
      </trkpt>
      <trkpt lat="44.24707" lon="5.61052">
        <ele>851</ele>
        <time>2019-03-19T14:58:33Z</time>
      </trkpt>
      <trkpt lat="44.24705" lon="5.61059">
        <ele>851</ele>
        <time>2019-03-19T14:58:34Z</time>
      </trkpt>
      <trkpt lat="44.24704" lon="5.61067">
        <ele>851</ele>
        <time>2019-03-19T14:58:35Z</time>
      </trkpt>
      <trkpt lat="44.24704" lon="5.61075">
        <ele>851</ele>
        <time>2019-03-19T14:58:36Z</time>
      </trkpt>
      <trkpt lat="44.24703" lon="5.61085">
        <ele>851</ele>
        <time>2019-03-19T14:58:37Z</time>
      </trkpt>
      <trkpt lat="44.24703" lon="5.61094">
        <ele>851</ele>
        <time>2019-03-19T14:58:38Z</time>
      </trkpt>
      <trkpt lat="44.24702" lon="5.61104">
        <ele>851</ele>
        <time>2019-03-19T14:58:39Z</time>
      </trkpt>
      <trkpt lat="44.24701" lon="5.61114">
        <ele>851</ele>
        <time>2019-03-19T14:58:40Z</time>
      </trkpt>
      <trkpt lat="44.24699" lon="5.61126">
        <ele>851</ele>
        <time>2019-03-19T14:58:41Z</time>
      </trkpt>
      <trkpt lat="44.24698" lon="5.61137">
        <ele>851</ele>
        <time>2019-03-19T14:58:42Z</time>
      </trkpt>
      <trkpt lat="44.24696" lon="5.61148">
        <ele>851</ele>
        <time>2019-03-19T14:58:43Z</time>
      </trkpt>
      <trkpt lat="44.24695" lon="5.6116">
        <ele>851</ele>
        <time>2019-03-19T14:58:44Z</time>
      </trkpt>
      <trkpt lat="44.24693" lon="5.61173">
        <ele>851</ele>
        <time>2019-03-19T14:58:45Z</time>
      </trkpt>
      <trkpt lat="44.24692" lon="5.61185">
        <ele>850</ele>
        <time>2019-03-19T14:58:46Z</time>
      </trkpt>
      <trkpt lat="44.2469" lon="5.61197">
        <ele>850</ele>
        <time>2019-03-19T14:58:47Z</time>
      </trkpt>
      <trkpt lat="44.24688" lon="5.61209">
        <ele>849</ele>
        <time>2019-03-19T14:58:48Z</time>
      </trkpt>
      <trkpt lat="44.24687" lon="5.61221">
        <ele>849</ele>
        <time>2019-03-19T14:58:49Z</time>
      </trkpt>
      <trkpt lat="44.24684" lon="5.61233">
        <ele>848</ele>
        <time>2019-03-19T14:58:50Z</time>
      </trkpt>
      <trkpt lat="44.24682" lon="5.61245">
        <ele>847</ele>
        <time>2019-03-19T14:58:51Z</time>
      </trkpt>
      <trkpt lat="44.2468" lon="5.61257">
        <ele>847</ele>
        <time>2019-03-19T14:58:52Z</time>
      </trkpt>
      <trkpt lat="44.24679" lon="5.61268">
        <ele>846</ele>
        <time>2019-03-19T14:58:53Z</time>
      </trkpt>
      <trkpt lat="44.24679" lon="5.61279">
        <ele>846</ele>
        <time>2019-03-19T14:58:54Z</time>
      </trkpt>
      <trkpt lat="44.2468" lon="5.6129">
        <ele>845</ele>
        <time>2019-03-19T14:58:55Z</time>
      </trkpt>
      <trkpt lat="44.24683" lon="5.61301">
        <ele>844</ele>
        <time>2019-03-19T14:58:56Z</time>
      </trkpt>
      <trkpt lat="44.24685" lon="5.61312">
        <ele>844</ele>
        <time>2019-03-19T14:58:57Z</time>
      </trkpt>
      <trkpt lat="44.24688" lon="5.61323">
        <ele>843</ele>
        <time>2019-03-19T14:58:58Z</time>
      </trkpt>
      <trkpt lat="44.2469" lon="5.61335">
        <ele>842</ele>
        <time>2019-03-19T14:58:59Z</time>
      </trkpt>
      <trkpt lat="44.24691" lon="5.61347">
        <ele>842</ele>
        <time>2019-03-19T14:59:00Z</time>
      </trkpt>
      <trkpt lat="44.24693" lon="5.6136">
        <ele>841</ele>
        <time>2019-03-19T14:59:01Z</time>
      </trkpt>
      <trkpt lat="44.24694" lon="5.61373">
        <ele>840</ele>
        <time>2019-03-19T14:59:02Z</time>
      </trkpt>
      <trkpt lat="44.24694" lon="5.61385">
        <ele>840</ele>
        <time>2019-03-19T14:59:03Z</time>
      </trkpt>
      <trkpt lat="44.24695" lon="5.61399">
        <ele>839</ele>
        <time>2019-03-19T14:59:04Z</time>
      </trkpt>
      <trkpt lat="44.24697" lon="5.61412">
        <ele>838</ele>
        <time>2019-03-19T14:59:05Z</time>
      </trkpt>
      <trkpt lat="44.247" lon="5.61424">
        <ele>838</ele>
        <time>2019-03-19T14:59:06Z</time>
      </trkpt>
      <trkpt lat="44.24702" lon="5.61437">
        <ele>837</ele>
        <time>2019-03-19T14:59:07Z</time>
      </trkpt>
      <trkpt lat="44.24705" lon="5.61449">
        <ele>836</ele>
        <time>2019-03-19T14:59:08Z</time>
      </trkpt>
      <trkpt lat="44.24707" lon="5.61461">
        <ele>836</ele>
        <time>2019-03-19T14:59:09Z</time>
      </trkpt>
      <trkpt lat="44.24709" lon="5.61474">
        <ele>835</ele>
        <time>2019-03-19T14:59:10Z</time>
      </trkpt>
      <trkpt lat="44.2471" lon="5.61485">
        <ele>834</ele>
        <time>2019-03-19T14:59:11Z</time>
      </trkpt>
      <trkpt lat="44.24712" lon="5.61496">
        <ele>834</ele>
        <time>2019-03-19T14:59:12Z</time>
      </trkpt>
      <trkpt lat="44.24713" lon="5.61508">
        <ele>833</ele>
        <time>2019-03-19T14:59:13Z</time>
      </trkpt>
      <trkpt lat="44.24714" lon="5.61519">
        <ele>833</ele>
        <time>2019-03-19T14:59:14Z</time>
      </trkpt>
      <trkpt lat="44.24713" lon="5.61529">
        <ele>832</ele>
        <time>2019-03-19T14:59:15Z</time>
      </trkpt>
      <trkpt lat="44.2471" lon="5.6154">
        <ele>831</ele>
        <time>2019-03-19T14:59:16Z</time>
      </trkpt>
      <trkpt lat="44.24706" lon="5.61548">
        <ele>831</ele>
        <time>2019-03-19T14:59:17Z</time>
      </trkpt>
      <trkpt lat="44.24701" lon="5.61555">
        <ele>830</ele>
        <time>2019-03-19T14:59:18Z</time>
      </trkpt>
      <trkpt lat="44.24695" lon="5.6156">
        <ele>830</ele>
        <time>2019-03-19T14:59:19Z</time>
      </trkpt>
      <trkpt lat="44.24689" lon="5.61563">
        <ele>830</ele>
        <time>2019-03-19T14:59:20Z</time>
      </trkpt>
      <trkpt lat="44.24683" lon="5.61562">
        <ele>829</ele>
        <time>2019-03-19T14:59:21Z</time>
      </trkpt>
      <trkpt lat="44.24677" lon="5.6156">
        <ele>829</ele>
        <time>2019-03-19T14:59:22Z</time>
      </trkpt>
      <trkpt lat="44.24672" lon="5.61557">
        <ele>829</ele>
        <time>2019-03-19T14:59:23Z</time>
      </trkpt>
      <trkpt lat="44.24668" lon="5.61551">
        <ele>829</ele>
        <time>2019-03-19T14:59:24Z</time>
      </trkpt>
      <trkpt lat="44.24664" lon="5.61545">
        <ele>829</ele>
        <time>2019-03-19T14:59:25Z</time>
      </trkpt>
      <trkpt lat="44.24661" lon="5.61538">
        <ele>829</ele>
        <time>2019-03-19T14:59:26Z</time>
      </trkpt>
      <trkpt lat="44.24657" lon="5.61531">
        <ele>828</ele>
        <time>2019-03-19T14:59:27Z</time>
      </trkpt>
      <trkpt lat="44.24653" lon="5.61523">
        <ele>828</ele>
        <time>2019-03-19T14:59:28Z</time>
      </trkpt>
      <trkpt lat="44.24649" lon="5.61515">
        <ele>828</ele>
        <time>2019-03-19T14:59:29Z</time>
      </trkpt>
      <trkpt lat="44.24646" lon="5.61506">
        <ele>827</ele>
        <time>2019-03-19T14:59:30Z</time>
      </trkpt>
      <trkpt lat="44.24642" lon="5.61496">
        <ele>827</ele>
        <time>2019-03-19T14:59:31Z</time>
      </trkpt>
      <trkpt lat="44.24638" lon="5.61486">
        <ele>826</ele>
        <time>2019-03-19T14:59:32Z</time>
      </trkpt>
      <trkpt lat="44.24635" lon="5.61477">
        <ele>826</ele>
        <time>2019-03-19T14:59:33Z</time>
      </trkpt>
      <trkpt lat="44.2463" lon="5.61467">
        <ele>825</ele>
        <time>2019-03-19T14:59:34Z</time>
      </trkpt>
      <trkpt lat="44.24626" lon="5.61456">
        <ele>824</ele>
        <time>2019-03-19T14:59:35Z</time>
      </trkpt>
      <trkpt lat="44.24622" lon="5.61447">
        <ele>824</ele>
        <time>2019-03-19T14:59:36Z</time>
      </trkpt>
      <trkpt lat="44.24618" lon="5.61436">
        <ele>823</ele>
        <time>2019-03-19T14:59:37Z</time>
      </trkpt>
      <trkpt lat="44.24614" lon="5.61426">
        <ele>823</ele>
        <time>2019-03-19T14:59:38Z</time>
      </trkpt>
      <trkpt lat="44.2461" lon="5.61416">
        <ele>822</ele>
        <time>2019-03-19T14:59:39Z</time>
      </trkpt>
      <trkpt lat="44.24605" lon="5.61406">
        <ele>821</ele>
        <time>2019-03-19T14:59:40Z</time>
      </trkpt>
      <trkpt lat="44.24601" lon="5.61396">
        <ele>820</ele>
        <time>2019-03-19T14:59:41Z</time>
      </trkpt>
      <trkpt lat="44.24596" lon="5.61385">
        <ele>820</ele>
        <time>2019-03-19T14:59:42Z</time>
      </trkpt>
      <trkpt lat="44.24592" lon="5.61374">
        <ele>819</ele>
        <time>2019-03-19T14:59:43Z</time>
      </trkpt>
      <trkpt lat="44.24588" lon="5.61363">
        <ele>818</ele>
        <time>2019-03-19T14:59:44Z</time>
      </trkpt>
      <trkpt lat="44.24584" lon="5.61352">
        <ele>817</ele>
        <time>2019-03-19T14:59:45Z</time>
      </trkpt>
      <trkpt lat="44.2458" lon="5.61341">
        <ele>816</ele>
        <time>2019-03-19T14:59:46Z</time>
      </trkpt>
      <trkpt lat="44.24575" lon="5.61329">
        <ele>816</ele>
        <time>2019-03-19T14:59:47Z</time>
      </trkpt>
      <trkpt lat="44.24572" lon="5.61317">
        <ele>815</ele>
        <time>2019-03-19T14:59:48Z</time>
      </trkpt>
      <trkpt lat="44.24568" lon="5.61305">
        <ele>814</ele>
        <time>2019-03-19T14:59:49Z</time>
      </trkpt>
      <trkpt lat="44.24564" lon="5.61293">
        <ele>813</ele>
        <time>2019-03-19T14:59:50Z</time>
      </trkpt>
      <trkpt lat="44.24561" lon="5.61281">
        <ele>812</ele>
        <time>2019-03-19T14:59:51Z</time>
      </trkpt>
      <trkpt lat="44.24559" lon="5.6127">
        <ele>811</ele>
        <time>2019-03-19T14:59:52Z</time>
      </trkpt>
      <trkpt lat="44.24557" lon="5.61258">
        <ele>811</ele>
        <time>2019-03-19T14:59:53Z</time>
      </trkpt>
      <trkpt lat="44.24556" lon="5.61247">
        <ele>810</ele>
        <time>2019-03-19T14:59:54Z</time>
      </trkpt>
      <trkpt lat="44.24555" lon="5.61236">
        <ele>810</ele>
        <time>2019-03-19T14:59:55Z</time>
      </trkpt>
      <trkpt lat="44.24556" lon="5.61224">
        <ele>809</ele>
        <time>2019-03-19T14:59:56Z</time>
      </trkpt>
      <trkpt lat="44.24556" lon="5.61213">
        <ele>809</ele>
        <time>2019-03-19T14:59:57Z</time>
      </trkpt>
      <trkpt lat="44.24557" lon="5.61201">
        <ele>808</ele>
        <time>2019-03-19T14:59:58Z</time>
      </trkpt>
      <trkpt lat="44.24557" lon="5.61189">
        <ele>808</ele>
        <time>2019-03-19T14:59:59Z</time>
      </trkpt>
      <trkpt lat="44.24556" lon="5.61177">
        <ele>807</ele>
        <time>2019-03-19T15:00:00Z</time>
      </trkpt>
      <trkpt lat="44.24555" lon="5.61167">
        <ele>807</ele>
        <time>2019-03-19T15:00:01Z</time>
      </trkpt>
      <trkpt lat="44.24551" lon="5.61159">
        <ele>806</ele>
        <time>2019-03-19T15:00:02Z</time>
      </trkpt>
      <trkpt lat="44.24545" lon="5.61153">
        <ele>805</ele>
        <time>2019-03-19T15:00:03Z</time>
      </trkpt>
      <trkpt lat="44.24538" lon="5.6115">
        <ele>805</ele>
        <time>2019-03-19T15:00:04Z</time>
      </trkpt>
      <trkpt lat="44.2453" lon="5.61146">
        <ele>804</ele>
        <time>2019-03-19T15:00:05Z</time>
      </trkpt>
      <trkpt lat="44.24522" lon="5.6114">
        <ele>804</ele>
        <time>2019-03-19T15:00:06Z</time>
      </trkpt>
      <trkpt lat="44.24514" lon="5.61132">
        <ele>804</ele>
        <time>2019-03-19T15:00:07Z</time>
      </trkpt>
      <trkpt lat="44.24508" lon="5.61123">
        <ele>804</ele>
        <time>2019-03-19T15:00:08Z</time>
      </trkpt>
      <trkpt lat="44.24503" lon="5.61112">
        <ele>804</ele>
        <time>2019-03-19T15:00:09Z</time>
      </trkpt>
      <trkpt lat="44.24497" lon="5.61101">
        <ele>804</ele>
        <time>2019-03-19T15:00:10Z</time>
      </trkpt>
      <trkpt lat="44.24491" lon="5.6109">
        <ele>803</ele>
        <time>2019-03-19T15:00:11Z</time>
      </trkpt>
      <trkpt lat="44.24485" lon="5.6108">
        <ele>803</ele>
        <time>2019-03-19T15:00:12Z</time>
      </trkpt>
      <trkpt lat="44.24479" lon="5.6107">
        <ele>802</ele>
        <time>2019-03-19T15:00:13Z</time>
      </trkpt>
      <trkpt lat="44.24472" lon="5.6106">
        <ele>801</ele>
        <time>2019-03-19T15:00:14Z</time>
      </trkpt>
      <trkpt lat="44.24465" lon="5.61052">
        <ele>800</ele>
        <time>2019-03-19T15:00:15Z</time>
      </trkpt>
      <trkpt lat="44.24458" lon="5.61043">
        <ele>799</ele>
        <time>2019-03-19T15:00:16Z</time>
      </trkpt>
      <trkpt lat="44.24451" lon="5.61035">
        <ele>798</ele>
        <time>2019-03-19T15:00:17Z</time>
      </trkpt>
      <trkpt lat="44.24442" lon="5.61027">
        <ele>797</ele>
        <time>2019-03-19T15:00:18Z</time>
      </trkpt>
      <trkpt lat="44.24434" lon="5.61019">
        <ele>797</ele>
        <time>2019-03-19T15:00:19Z</time>
      </trkpt>
      <trkpt lat="44.24425" lon="5.61011">
        <ele>796</ele>
        <time>2019-03-19T15:00:20Z</time>
      </trkpt>
      <trkpt lat="44.24417" lon="5.61004">
        <ele>796</ele>
        <time>2019-03-19T15:00:21Z</time>
      </trkpt>
      <trkpt lat="44.24408" lon="5.60996">
        <ele>796</ele>
        <time>2019-03-19T15:00:22Z</time>
      </trkpt>
      <trkpt lat="44.244" lon="5.60989">
        <ele>796</ele>
        <time>2019-03-19T15:00:23Z</time>
      </trkpt>
      <trkpt lat="44.24391" lon="5.60982">
        <ele>796</ele>
        <time>2019-03-19T15:00:24Z</time>
      </trkpt>
      <trkpt lat="44.24383" lon="5.60974">
        <ele>796</ele>
        <time>2019-03-19T15:00:25Z</time>
      </trkpt>
      <trkpt lat="44.24375" lon="5.60967">
        <ele>796</ele>
        <time>2019-03-19T15:00:26Z</time>
      </trkpt>
      <trkpt lat="44.24367" lon="5.60961">
        <ele>796</ele>
        <time>2019-03-19T15:00:27Z</time>
      </trkpt>
      <trkpt lat="44.24359" lon="5.60955">
        <ele>796</ele>
        <time>2019-03-19T15:00:28Z</time>
      </trkpt>
      <trkpt lat="44.24351" lon="5.60949">
        <ele>796</ele>
        <time>2019-03-19T15:00:29Z</time>
      </trkpt>
      <trkpt lat="44.24344" lon="5.60944">
        <ele>796</ele>
        <time>2019-03-19T15:00:30Z</time>
      </trkpt>
      <trkpt lat="44.24336" lon="5.60939">
        <ele>796</ele>
        <time>2019-03-19T15:00:31Z</time>
      </trkpt>
      <trkpt lat="44.24328" lon="5.60935">
        <ele>796</ele>
        <time>2019-03-19T15:00:32Z</time>
      </trkpt>
      <trkpt lat="44.24319" lon="5.60931">
        <ele>796</ele>
        <time>2019-03-19T15:00:33Z</time>
      </trkpt>
      <trkpt lat="44.2431" lon="5.60928">
        <ele>796</ele>
        <time>2019-03-19T15:00:34Z</time>
      </trkpt>
      <trkpt lat="44.24302" lon="5.60924">
        <ele>796</ele>
        <time>2019-03-19T15:00:35Z</time>
      </trkpt>
      <trkpt lat="44.24293" lon="5.60921">
        <ele>795</ele>
        <time>2019-03-19T15:00:36Z</time>
      </trkpt>
      <trkpt lat="44.24285" lon="5.60919">
        <ele>795</ele>
        <time>2019-03-19T15:00:37Z</time>
      </trkpt>
      <trkpt lat="44.24278" lon="5.60916">
        <ele>795</ele>
        <time>2019-03-19T15:00:38Z</time>
      </trkpt>
      <trkpt lat="44.24272" lon="5.60913">
        <ele>795</ele>
        <time>2019-03-19T15:00:39Z</time>
      </trkpt>
      <trkpt lat="44.24267" lon="5.60907">
        <ele>795</ele>
        <time>2019-03-19T15:00:40Z</time>
      </trkpt>
      <trkpt lat="44.24263" lon="5.60901">
        <ele>795</ele>
        <time>2019-03-19T15:00:41Z</time>
      </trkpt>
      <trkpt lat="44.24261" lon="5.60893">
        <ele>795</ele>
        <time>2019-03-19T15:00:42Z</time>
      </trkpt>
      <trkpt lat="44.24261" lon="5.60886">
        <ele>794</ele>
        <time>2019-03-19T15:00:43Z</time>
      </trkpt>
      <trkpt lat="44.24262" lon="5.6088">
        <ele>794</ele>
        <time>2019-03-19T15:00:44Z</time>
      </trkpt>
      <trkpt lat="44.24264" lon="5.60873">
        <ele>793</ele>
        <time>2019-03-19T15:00:45Z</time>
      </trkpt>
      <trkpt lat="44.24264" lon="5.60867">
        <ele>792</ele>
        <time>2019-03-19T15:00:46Z</time>
      </trkpt>
      <trkpt lat="44.24263" lon="5.6086">
        <ele>792</ele>
        <time>2019-03-19T15:00:47Z</time>
      </trkpt>
      <trkpt lat="44.24258" lon="5.60854">
        <ele>791</ele>
        <time>2019-03-19T15:00:48Z</time>
      </trkpt>
      <trkpt lat="44.24253" lon="5.6085">
        <ele>791</ele>
        <time>2019-03-19T15:00:49Z</time>
      </trkpt>
      <trkpt lat="44.24247" lon="5.60846">
        <ele>791</ele>
        <time>2019-03-19T15:00:50Z</time>
      </trkpt>
      <trkpt lat="44.2424" lon="5.60843">
        <ele>790</ele>
        <time>2019-03-19T15:00:51Z</time>
      </trkpt>
      <trkpt lat="44.24233" lon="5.6084">
        <ele>790</ele>
        <time>2019-03-19T15:00:52Z</time>
      </trkpt>
      <trkpt lat="44.24226" lon="5.60837">
        <ele>790</ele>
        <time>2019-03-19T15:00:53Z</time>
      </trkpt>
      <trkpt lat="44.2422" lon="5.60834">
        <ele>789</ele>
        <time>2019-03-19T15:00:54Z</time>
      </trkpt>
      <trkpt lat="44.24213" lon="5.6083">
        <ele>789</ele>
        <time>2019-03-19T15:00:55Z</time>
      </trkpt>
      <trkpt lat="44.24206" lon="5.60827">
        <ele>789</ele>
        <time>2019-03-19T15:00:56Z</time>
      </trkpt>
      <trkpt lat="44.242" lon="5.60824">
        <ele>788</ele>
        <time>2019-03-19T15:00:57Z</time>
      </trkpt>
      <trkpt lat="44.24193" lon="5.60822">
        <ele>788</ele>
        <time>2019-03-19T15:00:58Z</time>
      </trkpt>
      <trkpt lat="44.24186" lon="5.60819">
        <ele>788</ele>
        <time>2019-03-19T15:00:59Z</time>
      </trkpt>
      <trkpt lat="44.24179" lon="5.60817">
        <ele>788</ele>
        <time>2019-03-19T15:01:00Z</time>
      </trkpt>
      <trkpt lat="44.24172" lon="5.60815">
        <ele>787</ele>
        <time>2019-03-19T15:01:01Z</time>
      </trkpt>
      <trkpt lat="44.24165" lon="5.60814">
        <ele>787</ele>
        <time>2019-03-19T15:01:02Z</time>
      </trkpt>
      <trkpt lat="44.24157" lon="5.60813">
        <ele>787</ele>
        <time>2019-03-19T15:01:03Z</time>
      </trkpt>
      <trkpt lat="44.2415" lon="5.60813">
        <ele>787</ele>
        <time>2019-03-19T15:01:04Z</time>
      </trkpt>
      <trkpt lat="44.24143" lon="5.60812">
        <ele>786</ele>
        <time>2019-03-19T15:01:05Z</time>
      </trkpt>
      <trkpt lat="44.24136" lon="5.60812">
        <ele>786</ele>
        <time>2019-03-19T15:01:06Z</time>
      </trkpt>
      <trkpt lat="44.24129" lon="5.60812">
        <ele>786</ele>
        <time>2019-03-19T15:01:07Z</time>
      </trkpt>
      <trkpt lat="44.24122" lon="5.60812">
        <ele>786</ele>
        <time>2019-03-19T15:01:08Z</time>
      </trkpt>
      <trkpt lat="44.24115" lon="5.60812">
        <ele>786</ele>
        <time>2019-03-19T15:01:09Z</time>
      </trkpt>
      <trkpt lat="44.24108" lon="5.60812">
        <ele>786</ele>
        <time>2019-03-19T15:01:10Z</time>
      </trkpt>
      <trkpt lat="44.24101" lon="5.60812">
        <ele>786</ele>
        <time>2019-03-19T15:01:11Z</time>
      </trkpt>
      <trkpt lat="44.24094" lon="5.60812">
        <ele>786</ele>
        <time>2019-03-19T15:01:12Z</time>
      </trkpt>
      <trkpt lat="44.24086" lon="5.60812">
        <ele>786</ele>
        <time>2019-03-19T15:01:13Z</time>
      </trkpt>
      <trkpt lat="44.24079" lon="5.60812">
        <ele>786</ele>
        <time>2019-03-19T15:01:14Z</time>
      </trkpt>
      <trkpt lat="44.24073" lon="5.60811">
        <ele>786</ele>
        <time>2019-03-19T15:01:15Z</time>
      </trkpt>
      <trkpt lat="44.24067" lon="5.6081">
        <ele>786</ele>
        <time>2019-03-19T15:01:16Z</time>
      </trkpt>
      <trkpt lat="44.24061" lon="5.6081">
        <ele>786</ele>
        <time>2019-03-19T15:01:17Z</time>
      </trkpt>
      <trkpt lat="44.24055" lon="5.60809">
        <ele>786</ele>
        <time>2019-03-19T15:01:18Z</time>
      </trkpt>
      <trkpt lat="44.24049" lon="5.60809">
        <ele>786</ele>
        <time>2019-03-19T15:01:19Z</time>
      </trkpt>
      <trkpt lat="44.24044" lon="5.6081">
        <ele>786</ele>
        <time>2019-03-19T15:01:20Z</time>
      </trkpt>
      <trkpt lat="44.24039" lon="5.6081">
        <ele>786</ele>
        <time>2019-03-19T15:01:21Z</time>
      </trkpt>
      <trkpt lat="44.24035" lon="5.6081">
        <ele>786</ele>
        <time>2019-03-19T15:01:22Z</time>
      </trkpt>
      <trkpt lat="44.2403" lon="5.60811">
        <ele>786</ele>
        <time>2019-03-19T15:01:23Z</time>
      </trkpt>
      <trkpt lat="44.24026" lon="5.60811">
        <ele>786</ele>
        <time>2019-03-19T15:01:24Z</time>
      </trkpt>
      <trkpt lat="44.24021" lon="5.60811">
        <ele>786</ele>
        <time>2019-03-19T15:01:25Z</time>
      </trkpt>
      <trkpt lat="44.24017" lon="5.60812">
        <ele>786</ele>
        <time>2019-03-19T15:01:26Z</time>
      </trkpt>
      <trkpt lat="44.24012" lon="5.60812">
        <ele>786</ele>
        <time>2019-03-19T15:01:27Z</time>
      </trkpt>
      <trkpt lat="44.24007" lon="5.60812">
        <ele>786</ele>
        <time>2019-03-19T15:01:28Z</time>
      </trkpt>
      <trkpt lat="44.24002" lon="5.60811">
        <ele>786</ele>
        <time>2019-03-19T15:01:29Z</time>
      </trkpt>
      <trkpt lat="44.23997" lon="5.6081">
        <ele>786</ele>
        <time>2019-03-19T15:01:30Z</time>
      </trkpt>
      <trkpt lat="44.23993" lon="5.60811">
        <ele>786</ele>
        <time>2019-03-19T15:01:31Z</time>
      </trkpt>
      <trkpt lat="44.23988" lon="5.60811">
        <ele>786</ele>
        <time>2019-03-19T15:01:32Z</time>
      </trkpt>
      <trkpt lat="44.23984" lon="5.60812">
        <ele>786</ele>
        <time>2019-03-19T15:01:33Z</time>
      </trkpt>
      <trkpt lat="44.2398" lon="5.60811">
        <ele>786</ele>
        <time>2019-03-19T15:01:34Z</time>
      </trkpt>
      <trkpt lat="44.23977" lon="5.6081">
        <ele>786</ele>
        <time>2019-03-19T15:01:35Z</time>
      </trkpt>
      <trkpt lat="44.23972" lon="5.60808">
        <ele>786</ele>
        <time>2019-03-19T15:01:36Z</time>
      </trkpt>
      <trkpt lat="44.23968" lon="5.60805">
        <ele>786</ele>
        <time>2019-03-19T15:01:37Z</time>
      </trkpt>
      <trkpt lat="44.23964" lon="5.60801">
        <ele>786</ele>
        <time>2019-03-19T15:01:38Z</time>
      </trkpt>
      <trkpt lat="44.2396" lon="5.60796">
        <ele>786</ele>
        <time>2019-03-19T15:01:39Z</time>
      </trkpt>
      <trkpt lat="44.23956" lon="5.60791">
        <ele>786</ele>
        <time>2019-03-19T15:01:40Z</time>
      </trkpt>
      <trkpt lat="44.23952" lon="5.60787">
        <ele>786</ele>
        <time>2019-03-19T15:01:41Z</time>
      </trkpt>
      <trkpt lat="44.23948" lon="5.60784">
        <ele>786</ele>
        <time>2019-03-19T15:01:42Z</time>
      </trkpt>
      <trkpt lat="44.23943" lon="5.60781">
        <ele>786</ele>
        <time>2019-03-19T15:01:43Z</time>
      </trkpt>
      <trkpt lat="44.23939" lon="5.60777">
        <ele>786</ele>
        <time>2019-03-19T15:01:44Z</time>
      </trkpt>
      <trkpt lat="44.23935" lon="5.60773">
        <ele>786</ele>
        <time>2019-03-19T15:01:45Z</time>
      </trkpt>
      <trkpt lat="44.23931" lon="5.6077">
        <ele>786</ele>
        <time>2019-03-19T15:01:46Z</time>
      </trkpt>
      <trkpt lat="44.23927" lon="5.60766">
        <ele>786</ele>
        <time>2019-03-19T15:01:47Z</time>
      </trkpt>
      <trkpt lat="44.23923" lon="5.60763">
        <ele>786</ele>
        <time>2019-03-19T15:01:48Z</time>
      </trkpt>
      <trkpt lat="44.23919" lon="5.60761">
        <ele>786</ele>
        <time>2019-03-19T15:01:49Z</time>
      </trkpt>
      <trkpt lat="44.23915" lon="5.60757">
        <ele>786</ele>
        <time>2019-03-19T15:01:50Z</time>
      </trkpt>
      <trkpt lat="44.23911" lon="5.60755">
        <ele>786</ele>
        <time>2019-03-19T15:01:51Z</time>
      </trkpt>
      <trkpt lat="44.23907" lon="5.60754">
        <ele>786</ele>
        <time>2019-03-19T15:01:52Z</time>
      </trkpt>
      <trkpt lat="44.23904" lon="5.60752">
        <ele>786</ele>
        <time>2019-03-19T15:01:53Z</time>
      </trkpt>
      <trkpt lat="44.239" lon="5.60751">
        <ele>786</ele>
        <time>2019-03-19T15:01:54Z</time>
      </trkpt>
      <trkpt lat="44.23896" lon="5.60749">
        <ele>786</ele>
        <time>2019-03-19T15:01:55Z</time>
      </trkpt>
      <trkpt lat="44.23892" lon="5.60747">
        <ele>786</ele>
        <time>2019-03-19T15:01:56Z</time>
      </trkpt>
      <trkpt lat="44.23888" lon="5.60744">
        <ele>786</ele>
        <time>2019-03-19T15:01:57Z</time>
      </trkpt>
      <trkpt lat="44.23884" lon="5.60742">
        <ele>786</ele>
        <time>2019-03-19T15:01:58Z</time>
      </trkpt>
      <trkpt lat="44.2388" lon="5.6074">
        <ele>786</ele>
        <time>2019-03-19T15:01:59Z</time>
      </trkpt>
      <trkpt lat="44.23875" lon="5.60738">
        <ele>785</ele>
        <time>2019-03-19T15:02:00Z</time>
      </trkpt>
      <trkpt lat="44.2387" lon="5.60735">
        <ele>785</ele>
        <time>2019-03-19T15:02:01Z</time>
      </trkpt>
      <trkpt lat="44.23865" lon="5.60733">
        <ele>784</ele>
        <time>2019-03-19T15:02:02Z</time>
      </trkpt>
      <trkpt lat="44.2386" lon="5.60731">
        <ele>784</ele>
        <time>2019-03-19T15:02:03Z</time>
      </trkpt>
      <trkpt lat="44.23855" lon="5.60728">
        <ele>783</ele>
        <time>2019-03-19T15:02:04Z</time>
      </trkpt>
      <trkpt lat="44.23849" lon="5.60725">
        <ele>783</ele>
        <time>2019-03-19T15:02:05Z</time>
      </trkpt>
      <trkpt lat="44.23844" lon="5.60721">
        <ele>782</ele>
        <time>2019-03-19T15:02:06Z</time>
      </trkpt>
      <trkpt lat="44.23838" lon="5.60718">
        <ele>782</ele>
        <time>2019-03-19T15:02:07Z</time>
      </trkpt>
      <trkpt lat="44.23833" lon="5.60715">
        <ele>781</ele>
        <time>2019-03-19T15:02:08Z</time>
      </trkpt>
      <trkpt lat="44.23827" lon="5.60712">
        <ele>780</ele>
        <time>2019-03-19T15:02:09Z</time>
      </trkpt>
      <trkpt lat="44.23821" lon="5.60709">
        <ele>780</ele>
        <time>2019-03-19T15:02:10Z</time>
      </trkpt>
      <trkpt lat="44.23816" lon="5.60707">
        <ele>779</ele>
        <time>2019-03-19T15:02:11Z</time>
      </trkpt>
      <trkpt lat="44.2381" lon="5.60704">
        <ele>778</ele>
        <time>2019-03-19T15:02:12Z</time>
      </trkpt>
      <trkpt lat="44.23805" lon="5.60701">
        <ele>778</ele>
        <time>2019-03-19T15:02:13Z</time>
      </trkpt>
      <trkpt lat="44.23799" lon="5.60698">
        <ele>777</ele>
        <time>2019-03-19T15:02:14Z</time>
      </trkpt>
      <trkpt lat="44.23793" lon="5.60695">
        <ele>777</ele>
        <time>2019-03-19T15:02:15Z</time>
      </trkpt>
      <trkpt lat="44.23788" lon="5.60692">
        <ele>776</ele>
        <time>2019-03-19T15:02:16Z</time>
      </trkpt>
      <trkpt lat="44.23782" lon="5.60689">
        <ele>776</ele>
        <time>2019-03-19T15:02:17Z</time>
      </trkpt>
      <trkpt lat="44.23776" lon="5.60687">
        <ele>776</ele>
        <time>2019-03-19T15:02:18Z</time>
      </trkpt>
      <trkpt lat="44.23769" lon="5.60685">
        <ele>775</ele>
        <time>2019-03-19T15:02:19Z</time>
      </trkpt>
      <trkpt lat="44.23763" lon="5.60684">
        <ele>775</ele>
        <time>2019-03-19T15:02:20Z</time>
      </trkpt>
      <trkpt lat="44.23756" lon="5.60683">
        <ele>774</ele>
        <time>2019-03-19T15:02:21Z</time>
      </trkpt>
      <trkpt lat="44.23748" lon="5.60683">
        <ele>774</ele>
        <time>2019-03-19T15:02:22Z</time>
      </trkpt>
      <trkpt lat="44.23741" lon="5.60682">
        <ele>774</ele>
        <time>2019-03-19T15:02:23Z</time>
      </trkpt>
      <trkpt lat="44.23733" lon="5.60683">
        <ele>773</ele>
        <time>2019-03-19T15:02:24Z</time>
      </trkpt>
      <trkpt lat="44.23726" lon="5.60683">
        <ele>773</ele>
        <time>2019-03-19T15:02:25Z</time>
      </trkpt>
      <trkpt lat="44.23717" lon="5.60683">
        <ele>773</ele>
        <time>2019-03-19T15:02:26Z</time>
      </trkpt>
      <trkpt lat="44.23709" lon="5.60684">
        <ele>773</ele>
        <time>2019-03-19T15:02:27Z</time>
      </trkpt>
      <trkpt lat="44.23701" lon="5.60684">
        <ele>773</ele>
        <time>2019-03-19T15:02:28Z</time>
      </trkpt>
      <trkpt lat="44.23693" lon="5.60685">
        <ele>772</ele>
        <time>2019-03-19T15:02:29Z</time>
      </trkpt>
      <trkpt lat="44.23685" lon="5.60686">
        <ele>772</ele>
        <time>2019-03-19T15:02:30Z</time>
      </trkpt>
      <trkpt lat="44.23677" lon="5.60687">
        <ele>772</ele>
        <time>2019-03-19T15:02:31Z</time>
      </trkpt>
      <trkpt lat="44.23669" lon="5.60689">
        <ele>772</ele>
        <time>2019-03-19T15:02:32Z</time>
      </trkpt>
      <trkpt lat="44.23661" lon="5.60692">
        <ele>772</ele>
        <time>2019-03-19T15:02:33Z</time>
      </trkpt>
      <trkpt lat="44.23653" lon="5.60695">
        <ele>772</ele>
        <time>2019-03-19T15:02:34Z</time>
      </trkpt>
      <trkpt lat="44.23645" lon="5.60699">
        <ele>772</ele>
        <time>2019-03-19T15:02:35Z</time>
      </trkpt>
      <trkpt lat="44.23637" lon="5.60702">
        <ele>772</ele>
        <time>2019-03-19T15:02:36Z</time>
      </trkpt>
      <trkpt lat="44.23628" lon="5.60706">
        <ele>771</ele>
        <time>2019-03-19T15:02:37Z</time>
      </trkpt>
      <trkpt lat="44.2362" lon="5.60709">
        <ele>771</ele>
        <time>2019-03-19T15:02:38Z</time>
      </trkpt>
      <trkpt lat="44.23612" lon="5.60712">
        <ele>771</ele>
        <time>2019-03-19T15:02:39Z</time>
      </trkpt>
      <trkpt lat="44.23604" lon="5.60715">
        <ele>771</ele>
        <time>2019-03-19T15:02:40Z</time>
      </trkpt>
      <trkpt lat="44.23596" lon="5.60719">
        <ele>771</ele>
        <time>2019-03-19T15:02:41Z</time>
      </trkpt>
      <trkpt lat="44.23588" lon="5.60724">
        <ele>771</ele>
        <time>2019-03-19T15:02:42Z</time>
      </trkpt>
      <trkpt lat="44.2358" lon="5.60729">
        <ele>771</ele>
        <time>2019-03-19T15:02:43Z</time>
      </trkpt>
      <trkpt lat="44.23573" lon="5.60735">
        <ele>771</ele>
        <time>2019-03-19T15:02:44Z</time>
      </trkpt>
      <trkpt lat="44.23566" lon="5.60741">
        <ele>771</ele>
        <time>2019-03-19T15:02:45Z</time>
      </trkpt>
      <trkpt lat="44.2356" lon="5.60748">
        <ele>771</ele>
        <time>2019-03-19T15:02:46Z</time>
      </trkpt>
      <trkpt lat="44.23553" lon="5.60755">
        <ele>771</ele>
        <time>2019-03-19T15:02:47Z</time>
      </trkpt>
      <trkpt lat="44.23547" lon="5.60763">
        <ele>771</ele>
        <time>2019-03-19T15:02:48Z</time>
      </trkpt>
      <trkpt lat="44.23541" lon="5.60771">
        <ele>771</ele>
        <time>2019-03-19T15:02:49Z</time>
      </trkpt>
      <trkpt lat="44.23534" lon="5.60779">
        <ele>771</ele>
        <time>2019-03-19T15:02:50Z</time>
      </trkpt>
      <trkpt lat="44.23529" lon="5.60788">
        <ele>771</ele>
        <time>2019-03-19T15:02:51Z</time>
      </trkpt>
      <trkpt lat="44.23522" lon="5.60796">
        <ele>771</ele>
        <time>2019-03-19T15:02:52Z</time>
      </trkpt>
      <trkpt lat="44.23516" lon="5.60805">
        <ele>771</ele>
        <time>2019-03-19T15:02:53Z</time>
      </trkpt>
      <trkpt lat="44.2351" lon="5.60813">
        <ele>771</ele>
        <time>2019-03-19T15:02:54Z</time>
      </trkpt>
      <trkpt lat="44.23503" lon="5.60821">
        <ele>771</ele>
        <time>2019-03-19T15:02:55Z</time>
      </trkpt>
      <trkpt lat="44.23497" lon="5.60829">
        <ele>771</ele>
        <time>2019-03-19T15:02:56Z</time>
      </trkpt>
      <trkpt lat="44.2349" lon="5.60838">
        <ele>770</ele>
        <time>2019-03-19T15:02:57Z</time>
      </trkpt>
      <trkpt lat="44.23484" lon="5.60846">
        <ele>770</ele>
        <time>2019-03-19T15:02:58Z</time>
      </trkpt>
      <trkpt lat="44.23478" lon="5.60855">
        <ele>770</ele>
        <time>2019-03-19T15:02:59Z</time>
      </trkpt>
      <trkpt lat="44.23472" lon="5.60864">
        <ele>770</ele>
        <time>2019-03-19T15:03:00Z</time>
      </trkpt>
      <trkpt lat="44.23466" lon="5.60873">
        <ele>770</ele>
        <time>2019-03-19T15:03:01Z</time>
      </trkpt>
      <trkpt lat="44.2346" lon="5.60882">
        <ele>769</ele>
        <time>2019-03-19T15:03:02Z</time>
      </trkpt>
      <trkpt lat="44.23455" lon="5.60891">
        <ele>769</ele>
        <time>2019-03-19T15:03:03Z</time>
      </trkpt>
      <trkpt lat="44.2345" lon="5.609">
        <ele>769</ele>
        <time>2019-03-19T15:03:04Z</time>
      </trkpt>
      <trkpt lat="44.23444" lon="5.60909">
        <ele>769</ele>
        <time>2019-03-19T15:03:05Z</time>
      </trkpt>
      <trkpt lat="44.23439" lon="5.60918">
        <ele>769</ele>
        <time>2019-03-19T15:03:06Z</time>
      </trkpt>
      <trkpt lat="44.23434" lon="5.60927">
        <ele>768</ele>
        <time>2019-03-19T15:03:07Z</time>
      </trkpt>
      <trkpt lat="44.23428" lon="5.60937">
        <ele>768</ele>
        <time>2019-03-19T15:03:08Z</time>
      </trkpt>
      <trkpt lat="44.23423" lon="5.60945">
        <ele>768</ele>
        <time>2019-03-19T15:03:09Z</time>
      </trkpt>
      <trkpt lat="44.23417" lon="5.60954">
        <ele>767</ele>
        <time>2019-03-19T15:03:10Z</time>
      </trkpt>
      <trkpt lat="44.2341" lon="5.60961">
        <ele>767</ele>
        <time>2019-03-19T15:03:11Z</time>
      </trkpt>
      <trkpt lat="44.23402" lon="5.60966">
        <ele>766</ele>
        <time>2019-03-19T15:03:12Z</time>
      </trkpt>
      <trkpt lat="44.23394" lon="5.60971">
        <ele>765</ele>
        <time>2019-03-19T15:03:13Z</time>
      </trkpt>
      <trkpt lat="44.23385" lon="5.60974">
        <ele>765</ele>
        <time>2019-03-19T15:03:14Z</time>
      </trkpt>
      <trkpt lat="44.23376" lon="5.60976">
        <ele>765</ele>
        <time>2019-03-19T15:03:15Z</time>
      </trkpt>
      <trkpt lat="44.23367" lon="5.60979">
        <ele>764</ele>
        <time>2019-03-19T15:03:16Z</time>
      </trkpt>
      <trkpt lat="44.23357" lon="5.60982">
        <ele>764</ele>
        <time>2019-03-19T15:03:17Z</time>
      </trkpt>
      <trkpt lat="44.23349" lon="5.60986">
        <ele>764</ele>
        <time>2019-03-19T15:03:18Z</time>
      </trkpt>
      <trkpt lat="44.2334" lon="5.60991">
        <ele>763</ele>
        <time>2019-03-19T15:03:19Z</time>
      </trkpt>
      <trkpt lat="44.23331" lon="5.60997">
        <ele>763</ele>
        <time>2019-03-19T15:03:20Z</time>
      </trkpt>
      <trkpt lat="44.23323" lon="5.61004">
        <ele>763</ele>
        <time>2019-03-19T15:03:21Z</time>
      </trkpt>
      <trkpt lat="44.23315" lon="5.61013">
        <ele>763</ele>
        <time>2019-03-19T15:03:22Z</time>
      </trkpt>
      <trkpt lat="44.23308" lon="5.61022">
        <ele>763</ele>
        <time>2019-03-19T15:03:23Z</time>
      </trkpt>
      <trkpt lat="44.23301" lon="5.6103">
        <ele>763</ele>
        <time>2019-03-19T15:03:24Z</time>
      </trkpt>
      <trkpt lat="44.23294" lon="5.61037">
        <ele>762</ele>
        <time>2019-03-19T15:03:25Z</time>
      </trkpt>
      <trkpt lat="44.23286" lon="5.61044">
        <ele>762</ele>
        <time>2019-03-19T15:03:26Z</time>
      </trkpt>
      <trkpt lat="44.23278" lon="5.61051">
        <ele>762</ele>
        <time>2019-03-19T15:03:27Z</time>
      </trkpt>
      <trkpt lat="44.23269" lon="5.61055">
        <ele>761</ele>
        <time>2019-03-19T15:03:28Z</time>
      </trkpt>
      <trkpt lat="44.23261" lon="5.61058">
        <ele>761</ele>
        <time>2019-03-19T15:03:29Z</time>
      </trkpt>
      <trkpt lat="44.23252" lon="5.61061">
        <ele>761</ele>
        <time>2019-03-19T15:03:30Z</time>
      </trkpt>
      <trkpt lat="44.23243" lon="5.61062">
        <ele>760</ele>
        <time>2019-03-19T15:03:31Z</time>
      </trkpt>
      <trkpt lat="44.23234" lon="5.61061">
        <ele>760</ele>
        <time>2019-03-19T15:03:32Z</time>
      </trkpt>
      <trkpt lat="44.23226" lon="5.6106">
        <ele>760</ele>
        <time>2019-03-19T15:03:33Z</time>
      </trkpt>
      <trkpt lat="44.23217" lon="5.61058">
        <ele>759</ele>
        <time>2019-03-19T15:03:34Z</time>
      </trkpt>
      <trkpt lat="44.23208" lon="5.61056">
        <ele>759</ele>
        <time>2019-03-19T15:03:35Z</time>
      </trkpt>
      <trkpt lat="44.23199" lon="5.61055">
        <ele>758</ele>
        <time>2019-03-19T15:03:36Z</time>
      </trkpt>
      <trkpt lat="44.2319" lon="5.61055">
        <ele>758</ele>
        <time>2019-03-19T15:03:37Z</time>
      </trkpt>
      <trkpt lat="44.2318" lon="5.61055">
        <ele>758</ele>
        <time>2019-03-19T15:03:38Z</time>
      </trkpt>
      <trkpt lat="44.23172" lon="5.61056">
        <ele>758</ele>
        <time>2019-03-19T15:03:39Z</time>
      </trkpt>
      <trkpt lat="44.23162" lon="5.6106">
        <ele>758</ele>
        <time>2019-03-19T15:03:40Z</time>
      </trkpt>
      <trkpt lat="44.23154" lon="5.61063">
        <ele>758</ele>
        <time>2019-03-19T15:03:41Z</time>
      </trkpt>
      <trkpt lat="44.23146" lon="5.61068">
        <ele>758</ele>
        <time>2019-03-19T15:03:42Z</time>
      </trkpt>
      <trkpt lat="44.23138" lon="5.61072">
        <ele>758</ele>
        <time>2019-03-19T15:03:43Z</time>
      </trkpt>
      <trkpt lat="44.23129" lon="5.61074">
        <ele>758</ele>
        <time>2019-03-19T15:03:44Z</time>
      </trkpt>
      <trkpt lat="44.2312" lon="5.61075">
        <ele>758</ele>
        <time>2019-03-19T15:03:45Z</time>
      </trkpt>
      <trkpt lat="44.23111" lon="5.61074">
        <ele>757</ele>
        <time>2019-03-19T15:03:46Z</time>
      </trkpt>
      <trkpt lat="44.23103" lon="5.61071">
        <ele>756</ele>
        <time>2019-03-19T15:03:47Z</time>
      </trkpt>
      <trkpt lat="44.23095" lon="5.61068">
        <ele>756</ele>
        <time>2019-03-19T15:03:48Z</time>
      </trkpt>
      <trkpt lat="44.23087" lon="5.61064">
        <ele>755</ele>
        <time>2019-03-19T15:03:49Z</time>
      </trkpt>
      <trkpt lat="44.23079" lon="5.6106">
        <ele>755</ele>
        <time>2019-03-19T15:03:50Z</time>
      </trkpt>
      <trkpt lat="44.23072" lon="5.61056">
        <ele>755</ele>
        <time>2019-03-19T15:03:51Z</time>
      </trkpt>
      <trkpt lat="44.23065" lon="5.61052">
        <ele>755</ele>
        <time>2019-03-19T15:03:52Z</time>
      </trkpt>
      <trkpt lat="44.23058" lon="5.61048">
        <ele>755</ele>
        <time>2019-03-19T15:03:53Z</time>
      </trkpt>
      <trkpt lat="44.23051" lon="5.61045">
        <ele>755</ele>
        <time>2019-03-19T15:03:54Z</time>
      </trkpt>
      <trkpt lat="44.23044" lon="5.61042">
        <ele>755</ele>
        <time>2019-03-19T15:03:55Z</time>
      </trkpt>
      <trkpt lat="44.23038" lon="5.61039">
        <ele>755</ele>
        <time>2019-03-19T15:03:56Z</time>
      </trkpt>
      <trkpt lat="44.23032" lon="5.61036">
        <ele>755</ele>
        <time>2019-03-19T15:03:57Z</time>
      </trkpt>
      <trkpt lat="44.23026" lon="5.61033">
        <ele>755</ele>
        <time>2019-03-19T15:03:58Z</time>
      </trkpt>
      <trkpt lat="44.2302" lon="5.6103">
        <ele>755</ele>
        <time>2019-03-19T15:03:59Z</time>
      </trkpt>
      <trkpt lat="44.23015" lon="5.61027">
        <ele>755</ele>
        <time>2019-03-19T15:04:00Z</time>
      </trkpt>
      <trkpt lat="44.23009" lon="5.61025">
        <ele>755</ele>
        <time>2019-03-19T15:04:01Z</time>
      </trkpt>
      <trkpt lat="44.23003" lon="5.61022">
        <ele>755</ele>
        <time>2019-03-19T15:04:02Z</time>
      </trkpt>
      <trkpt lat="44.22998" lon="5.6102">
        <ele>755</ele>
        <time>2019-03-19T15:04:03Z</time>
      </trkpt>
      <trkpt lat="44.22993" lon="5.61017">
        <ele>755</ele>
        <time>2019-03-19T15:04:04Z</time>
      </trkpt>
      <trkpt lat="44.22987" lon="5.61014">
        <ele>755</ele>
        <time>2019-03-19T15:04:05Z</time>
      </trkpt>
      <trkpt lat="44.22982" lon="5.61012">
        <ele>755</ele>
        <time>2019-03-19T15:04:06Z</time>
      </trkpt>
      <trkpt lat="44.22976" lon="5.61009">
        <ele>755</ele>
        <time>2019-03-19T15:04:07Z</time>
      </trkpt>
      <trkpt lat="44.22971" lon="5.61007">
        <ele>755</ele>
        <time>2019-03-19T15:04:08Z</time>
      </trkpt>
      <trkpt lat="44.22965" lon="5.61004">
        <ele>755</ele>
        <time>2019-03-19T15:04:09Z</time>
      </trkpt>
      <trkpt lat="44.22959" lon="5.61002">
        <ele>755</ele>
        <time>2019-03-19T15:04:10Z</time>
      </trkpt>
      <trkpt lat="44.22953" lon="5.61">
        <ele>755</ele>
        <time>2019-03-19T15:04:11Z</time>
      </trkpt>
      <trkpt lat="44.22947" lon="5.60997">
        <ele>755</ele>
        <time>2019-03-19T15:04:12Z</time>
      </trkpt>
      <trkpt lat="44.22941" lon="5.60995">
        <ele>755</ele>
        <time>2019-03-19T15:04:13Z</time>
      </trkpt>
      <trkpt lat="44.22935" lon="5.60993">
        <ele>755</ele>
        <time>2019-03-19T15:04:14Z</time>
      </trkpt>
      <trkpt lat="44.22928" lon="5.60992">
        <ele>755</ele>
        <time>2019-03-19T15:04:15Z</time>
      </trkpt>
      <trkpt lat="44.22921" lon="5.60991">
        <ele>755</ele>
        <time>2019-03-19T15:04:16Z</time>
      </trkpt>
      <trkpt lat="44.22914" lon="5.6099">
        <ele>755</ele>
        <time>2019-03-19T15:04:17Z</time>
      </trkpt>
      <trkpt lat="44.22907" lon="5.6099">
        <ele>755</ele>
        <time>2019-03-19T15:04:18Z</time>
      </trkpt>
      <trkpt lat="44.22899" lon="5.60991">
        <ele>754</ele>
        <time>2019-03-19T15:04:19Z</time>
      </trkpt>
      <trkpt lat="44.22891" lon="5.60992">
        <ele>754</ele>
        <time>2019-03-19T15:04:20Z</time>
      </trkpt>
      <trkpt lat="44.22883" lon="5.60992">
        <ele>753</ele>
        <time>2019-03-19T15:04:21Z</time>
      </trkpt>
      <trkpt lat="44.22875" lon="5.60993">
        <ele>753</ele>
        <time>2019-03-19T15:04:22Z</time>
      </trkpt>
      <trkpt lat="44.22867" lon="5.60993">
        <ele>753</ele>
        <time>2019-03-19T15:04:23Z</time>
      </trkpt>
      <trkpt lat="44.22859" lon="5.60993">
        <ele>752</ele>
        <time>2019-03-19T15:04:24Z</time>
      </trkpt>
      <trkpt lat="44.2285" lon="5.60993">
        <ele>752</ele>
        <time>2019-03-19T15:04:25Z</time>
      </trkpt>
      <trkpt lat="44.22842" lon="5.60993">
        <ele>751</ele>
        <time>2019-03-19T15:04:26Z</time>
      </trkpt>
      <trkpt lat="44.22833" lon="5.60992">
        <ele>751</ele>
        <time>2019-03-19T15:04:27Z</time>
      </trkpt>
      <trkpt lat="44.22824" lon="5.60992">
        <ele>750</ele>
        <time>2019-03-19T15:04:28Z</time>
      </trkpt>
      <trkpt lat="44.22815" lon="5.60991">
        <ele>750</ele>
        <time>2019-03-19T15:04:29Z</time>
      </trkpt>
      <trkpt lat="44.22807" lon="5.60991">
        <ele>749</ele>
        <time>2019-03-19T15:04:30Z</time>
      </trkpt>
      <trkpt lat="44.22799" lon="5.60991">
        <ele>749</ele>
        <time>2019-03-19T15:04:31Z</time>
      </trkpt>
      <trkpt lat="44.2279" lon="5.60991">
        <ele>748</ele>
        <time>2019-03-19T15:04:32Z</time>
      </trkpt>
      <trkpt lat="44.22782" lon="5.60992">
        <ele>748</ele>
        <time>2019-03-19T15:04:33Z</time>
      </trkpt>
      <trkpt lat="44.22775" lon="5.60993">
        <ele>748</ele>
        <time>2019-03-19T15:04:34Z</time>
      </trkpt>
      <trkpt lat="44.22767" lon="5.60993">
        <ele>748</ele>
        <time>2019-03-19T15:04:35Z</time>
      </trkpt>
      <trkpt lat="44.22759" lon="5.60994">
        <ele>747</ele>
        <time>2019-03-19T15:04:36Z</time>
      </trkpt>
      <trkpt lat="44.22752" lon="5.60995">
        <ele>747</ele>
        <time>2019-03-19T15:04:37Z</time>
      </trkpt>
      <trkpt lat="44.22745" lon="5.60996">
        <ele>747</ele>
        <time>2019-03-19T15:04:38Z</time>
      </trkpt>
      <trkpt lat="44.22737" lon="5.60994">
        <ele>747</ele>
        <time>2019-03-19T15:04:39Z</time>
      </trkpt>
      <trkpt lat="44.2273" lon="5.60992">
        <ele>746</ele>
        <time>2019-03-19T15:04:40Z</time>
      </trkpt>
      <trkpt lat="44.22723" lon="5.60989">
        <ele>746</ele>
        <time>2019-03-19T15:04:41Z</time>
      </trkpt>
      <trkpt lat="44.22716" lon="5.60985">
        <ele>746</ele>
        <time>2019-03-19T15:04:42Z</time>
      </trkpt>
      <trkpt lat="44.22709" lon="5.60981">
        <ele>746</ele>
        <time>2019-03-19T15:04:43Z</time>
      </trkpt>
      <trkpt lat="44.22702" lon="5.60977">
        <ele>745</ele>
        <time>2019-03-19T15:04:44Z</time>
      </trkpt>
      <trkpt lat="44.22695" lon="5.60972">
        <ele>745</ele>
        <time>2019-03-19T15:04:45Z</time>
      </trkpt>
      <trkpt lat="44.22688" lon="5.60969">
        <ele>745</ele>
        <time>2019-03-19T15:04:46Z</time>
      </trkpt>
      <trkpt lat="44.22681" lon="5.60965">
        <ele>745</ele>
        <time>2019-03-19T15:04:47Z</time>
      </trkpt>
      <trkpt lat="44.22675" lon="5.60963">
        <ele>744</ele>
        <time>2019-03-19T15:04:48Z</time>
      </trkpt>
      <trkpt lat="44.22668" lon="5.60961">
        <ele>744</ele>
        <time>2019-03-19T15:04:49Z</time>
      </trkpt>
      <trkpt lat="44.22661" lon="5.6096">
        <ele>744</ele>
        <time>2019-03-19T15:04:50Z</time>
      </trkpt>
      <trkpt lat="44.22654" lon="5.60959">
        <ele>744</ele>
        <time>2019-03-19T15:04:51Z</time>
      </trkpt>
      <trkpt lat="44.22648" lon="5.60959">
        <ele>744</ele>
        <time>2019-03-19T15:04:52Z</time>
      </trkpt>
      <trkpt lat="44.22642" lon="5.60959">
        <ele>744</ele>
        <time>2019-03-19T15:04:53Z</time>
      </trkpt>
      <trkpt lat="44.22636" lon="5.6096">
        <ele>744</ele>
        <time>2019-03-19T15:04:54Z</time>
      </trkpt>
      <trkpt lat="44.2263" lon="5.60961">
        <ele>744</ele>
        <time>2019-03-19T15:04:55Z</time>
      </trkpt>
      <trkpt lat="44.22625" lon="5.60962">
        <ele>744</ele>
        <time>2019-03-19T15:04:56Z</time>
      </trkpt>
      <trkpt lat="44.22618" lon="5.60963">
        <ele>743</ele>
        <time>2019-03-19T15:04:57Z</time>
      </trkpt>
      <trkpt lat="44.22612" lon="5.60962">
        <ele>743</ele>
        <time>2019-03-19T15:04:58Z</time>
      </trkpt>
      <trkpt lat="44.22607" lon="5.60961">
        <ele>743</ele>
        <time>2019-03-19T15:04:59Z</time>
      </trkpt>
      <trkpt lat="44.22601" lon="5.60959">
        <ele>743</ele>
        <time>2019-03-19T15:05:00Z</time>
      </trkpt>
      <trkpt lat="44.22595" lon="5.60956">
        <ele>743</ele>
        <time>2019-03-19T15:05:01Z</time>
      </trkpt>
      <trkpt lat="44.22589" lon="5.60953">
        <ele>743</ele>
        <time>2019-03-19T15:05:02Z</time>
      </trkpt>
      <trkpt lat="44.22583" lon="5.60951">
        <ele>743</ele>
        <time>2019-03-19T15:05:03Z</time>
      </trkpt>
      <trkpt lat="44.22577" lon="5.60949">
        <ele>743</ele>
        <time>2019-03-19T15:05:04Z</time>
      </trkpt>
      <trkpt lat="44.22571" lon="5.60947">
        <ele>743</ele>
        <time>2019-03-19T15:05:05Z</time>
      </trkpt>
      <trkpt lat="44.22565" lon="5.60945">
        <ele>743</ele>
        <time>2019-03-19T15:05:06Z</time>
      </trkpt>
      <trkpt lat="44.22559" lon="5.60945">
        <ele>743</ele>
        <time>2019-03-19T15:05:07Z</time>
      </trkpt>
      <trkpt lat="44.22553" lon="5.60944">
        <ele>743</ele>
        <time>2019-03-19T15:05:08Z</time>
      </trkpt>
      <trkpt lat="44.22547" lon="5.60943">
        <ele>743</ele>
        <time>2019-03-19T15:05:09Z</time>
      </trkpt>
      <trkpt lat="44.22541" lon="5.60942">
        <ele>743</ele>
        <time>2019-03-19T15:05:10Z</time>
      </trkpt>
      <trkpt lat="44.22534" lon="5.60942">
        <ele>743</ele>
        <time>2019-03-19T15:05:11Z</time>
      </trkpt>
      <trkpt lat="44.22528" lon="5.60941">
        <ele>743</ele>
        <time>2019-03-19T15:05:12Z</time>
      </trkpt>
      <trkpt lat="44.22522" lon="5.6094">
        <ele>743</ele>
        <time>2019-03-19T15:05:13Z</time>
      </trkpt>
      <trkpt lat="44.22516" lon="5.60939">
        <ele>743</ele>
        <time>2019-03-19T15:05:14Z</time>
      </trkpt>
      <trkpt lat="44.2251" lon="5.60936">
        <ele>743</ele>
        <time>2019-03-19T15:05:15Z</time>
      </trkpt>
      <trkpt lat="44.22504" lon="5.60934">
        <ele>743</ele>
        <time>2019-03-19T15:05:16Z</time>
      </trkpt>
      <trkpt lat="44.22499" lon="5.6093">
        <ele>743</ele>
        <time>2019-03-19T15:05:17Z</time>
      </trkpt>
      <trkpt lat="44.22494" lon="5.60926">
        <ele>743</ele>
        <time>2019-03-19T15:05:18Z</time>
      </trkpt>
      <trkpt lat="44.22489" lon="5.60922">
        <ele>743</ele>
        <time>2019-03-19T15:05:19Z</time>
      </trkpt>
      <trkpt lat="44.22485" lon="5.60917">
        <ele>743</ele>
        <time>2019-03-19T15:05:20Z</time>
      </trkpt>
      <trkpt lat="44.2248" lon="5.60912">
        <ele>743</ele>
        <time>2019-03-19T15:05:21Z</time>
      </trkpt>
      <trkpt lat="44.22476" lon="5.60908">
        <ele>743</ele>
        <time>2019-03-19T15:05:22Z</time>
      </trkpt>
      <trkpt lat="44.22472" lon="5.60903">
        <ele>743</ele>
        <time>2019-03-19T15:05:23Z</time>
      </trkpt>
      <trkpt lat="44.22468" lon="5.60898">
        <ele>743</ele>
        <time>2019-03-19T15:05:24Z</time>
      </trkpt>
      <trkpt lat="44.22464" lon="5.60894">
        <ele>743</ele>
        <time>2019-03-19T15:05:25Z</time>
      </trkpt>
      <trkpt lat="44.2246" lon="5.60889">
        <ele>743</ele>
        <time>2019-03-19T15:05:26Z</time>
      </trkpt>
      <trkpt lat="44.22456" lon="5.60885">
        <ele>743</ele>
        <time>2019-03-19T15:05:27Z</time>
      </trkpt>
      <trkpt lat="44.22451" lon="5.60881">
        <ele>743</ele>
        <time>2019-03-19T15:05:28Z</time>
      </trkpt>
      <trkpt lat="44.22447" lon="5.60876">
        <ele>743</ele>
        <time>2019-03-19T15:05:29Z</time>
      </trkpt>
      <trkpt lat="44.22443" lon="5.60872">
        <ele>743</ele>
        <time>2019-03-19T15:05:30Z</time>
      </trkpt>
      <trkpt lat="44.22438" lon="5.60867">
        <ele>743</ele>
        <time>2019-03-19T15:05:31Z</time>
      </trkpt>
      <trkpt lat="44.22432" lon="5.60863">
        <ele>743</ele>
        <time>2019-03-19T15:05:32Z</time>
      </trkpt>
      <trkpt lat="44.22427" lon="5.60858">
        <ele>743</ele>
        <time>2019-03-19T15:05:33Z</time>
      </trkpt>
      <trkpt lat="44.22422" lon="5.60854">
        <ele>743</ele>
        <time>2019-03-19T15:05:34Z</time>
      </trkpt>
      <trkpt lat="44.22416" lon="5.6085">
        <ele>743</ele>
        <time>2019-03-19T15:05:35Z</time>
      </trkpt>
      <trkpt lat="44.2241" lon="5.60848">
        <ele>742</ele>
        <time>2019-03-19T15:05:36Z</time>
      </trkpt>
      <trkpt lat="44.22405" lon="5.60848">
        <ele>742</ele>
        <time>2019-03-19T15:05:37Z</time>
      </trkpt>
      <trkpt lat="44.22399" lon="5.6085">
        <ele>741</ele>
        <time>2019-03-19T15:05:38Z</time>
      </trkpt>
      <trkpt lat="44.22395" lon="5.60855">
        <ele>741</ele>
        <time>2019-03-19T15:05:39Z</time>
      </trkpt>
      <trkpt lat="44.22391" lon="5.60862">
        <ele>740</ele>
        <time>2019-03-19T15:05:40Z</time>
      </trkpt>
      <trkpt lat="44.22389" lon="5.6087">
        <ele>740</ele>
        <time>2019-03-19T15:05:41Z</time>
      </trkpt>
      <trkpt lat="44.22387" lon="5.60879">
        <ele>740</ele>
        <time>2019-03-19T15:05:42Z</time>
      </trkpt>
      <trkpt lat="44.22385" lon="5.60888">
        <ele>740</ele>
        <time>2019-03-19T15:05:43Z</time>
      </trkpt>
      <trkpt lat="44.22381" lon="5.60897">
        <ele>739</ele>
        <time>2019-03-19T15:05:44Z</time>
      </trkpt>
      <trkpt lat="44.22375" lon="5.60905">
        <ele>738</ele>
        <time>2019-03-19T15:05:45Z</time>
      </trkpt>
      <trkpt lat="44.22369" lon="5.6091">
        <ele>738</ele>
        <time>2019-03-19T15:05:46Z</time>
      </trkpt>
      <trkpt lat="44.22362" lon="5.60915">
        <ele>737</ele>
        <time>2019-03-19T15:05:47Z</time>
      </trkpt>
      <trkpt lat="44.22355" lon="5.60918">
        <ele>736</ele>
        <time>2019-03-19T15:05:48Z</time>
      </trkpt>
      <trkpt lat="44.22347" lon="5.60921">
        <ele>736</ele>
        <time>2019-03-19T15:05:49Z</time>
      </trkpt>
      <trkpt lat="44.22339" lon="5.60921">
        <ele>735</ele>
        <time>2019-03-19T15:05:50Z</time>
      </trkpt>
      <trkpt lat="44.22331" lon="5.6092">
        <ele>735</ele>
        <time>2019-03-19T15:05:51Z</time>
      </trkpt>
      <trkpt lat="44.22324" lon="5.60917">
        <ele>734</ele>
        <time>2019-03-19T15:05:52Z</time>
      </trkpt>
      <trkpt lat="44.22316" lon="5.60913">
        <ele>734</ele>
        <time>2019-03-19T15:05:53Z</time>
      </trkpt>
      <trkpt lat="44.22308" lon="5.60909">
        <ele>733</ele>
        <time>2019-03-19T15:05:54Z</time>
      </trkpt>
      <trkpt lat="44.22301" lon="5.60905">
        <ele>733</ele>
        <time>2019-03-19T15:05:55Z</time>
      </trkpt>
      <trkpt lat="44.22294" lon="5.609">
        <ele>733</ele>
        <time>2019-03-19T15:05:56Z</time>
      </trkpt>
      <trkpt lat="44.22286" lon="5.60896">
        <ele>732</ele>
        <time>2019-03-19T15:05:57Z</time>
      </trkpt>
      <trkpt lat="44.22279" lon="5.60891">
        <ele>732</ele>
        <time>2019-03-19T15:05:58Z</time>
      </trkpt>
      <trkpt lat="44.22272" lon="5.60887">
        <ele>732</ele>
        <time>2019-03-19T15:05:59Z</time>
      </trkpt>
      <trkpt lat="44.22264" lon="5.60883">
        <ele>732</ele>
        <time>2019-03-19T15:06:00Z</time>
      </trkpt>
      <trkpt lat="44.22257" lon="5.60879">
        <ele>731</ele>
        <time>2019-03-19T15:06:01Z</time>
      </trkpt>
      <trkpt lat="44.2225" lon="5.60876">
        <ele>731</ele>
        <time>2019-03-19T15:06:02Z</time>
      </trkpt>
      <trkpt lat="44.22243" lon="5.60873">
        <ele>731</ele>
        <time>2019-03-19T15:06:03Z</time>
      </trkpt>
      <trkpt lat="44.22237" lon="5.60871">
        <ele>731</ele>
        <time>2019-03-19T15:06:04Z</time>
      </trkpt>
      <trkpt lat="44.2223" lon="5.60868">
        <ele>731</ele>
        <time>2019-03-19T15:06:05Z</time>
      </trkpt>
      <trkpt lat="44.22223" lon="5.60866">
        <ele>731</ele>
        <time>2019-03-19T15:06:06Z</time>
      </trkpt>
      <trkpt lat="44.22216" lon="5.60864">
        <ele>731</ele>
        <time>2019-03-19T15:06:07Z</time>
      </trkpt>
      <trkpt lat="44.2221" lon="5.60862">
        <ele>731</ele>
        <time>2019-03-19T15:06:08Z</time>
      </trkpt>
      <trkpt lat="44.22203" lon="5.6086">
        <ele>731</ele>
        <time>2019-03-19T15:06:09Z</time>
      </trkpt>
      <trkpt lat="44.22197" lon="5.60859">
        <ele>731</ele>
        <time>2019-03-19T15:06:10Z</time>
      </trkpt>
      <trkpt lat="44.22191" lon="5.60859">
        <ele>731</ele>
        <time>2019-03-19T15:06:11Z</time>
      </trkpt>
      <trkpt lat="44.22185" lon="5.6086">
        <ele>730</ele>
        <time>2019-03-19T15:06:12Z</time>
      </trkpt>
      <trkpt lat="44.22179" lon="5.60861">
        <ele>730</ele>
        <time>2019-03-19T15:06:13Z</time>
      </trkpt>
      <trkpt lat="44.22173" lon="5.60863">
        <ele>730</ele>
        <time>2019-03-19T15:06:14Z</time>
      </trkpt>
      <trkpt lat="44.22167" lon="5.60865">
        <ele>730</ele>
        <time>2019-03-19T15:06:15Z</time>
      </trkpt>
      <trkpt lat="44.22161" lon="5.60866">
        <ele>730</ele>
        <time>2019-03-19T15:06:16Z</time>
      </trkpt>
      <trkpt lat="44.22157" lon="5.60867">
        <ele>730</ele>
        <time>2019-03-19T15:06:17Z</time>
      </trkpt>
      <trkpt lat="44.22153" lon="5.60869">
        <ele>730</ele>
        <time>2019-03-19T15:06:18Z</time>
      </trkpt>
      <trkpt lat="44.22149" lon="5.60871">
        <ele>730</ele>
        <time>2019-03-19T15:06:19Z</time>
      </trkpt>
      <trkpt lat="44.22145" lon="5.60873">
        <ele>730</ele>
        <time>2019-03-19T15:06:20Z</time>
      </trkpt>
      <trkpt lat="44.22142" lon="5.60875">
        <ele>730</ele>
        <time>2019-03-19T15:06:21Z</time>
      </trkpt>
      <trkpt lat="44.2214" lon="5.60878">
        <ele>730</ele>
        <time>2019-03-19T15:06:22Z</time>
      </trkpt>
      <trkpt lat="44.22137" lon="5.60883">
        <ele>730</ele>
        <time>2019-03-19T15:06:23Z</time>
      </trkpt>
      <trkpt lat="44.22136" lon="5.60888">
        <ele>730</ele>
        <time>2019-03-19T15:06:24Z</time>
      </trkpt>
      <trkpt lat="44.22136" lon="5.60894">
        <ele>730</ele>
        <time>2019-03-19T15:06:25Z</time>
      </trkpt>
      <trkpt lat="44.22137" lon="5.609">
        <ele>730</ele>
        <time>2019-03-19T15:06:26Z</time>
      </trkpt>
      <trkpt lat="44.22139" lon="5.60906">
        <ele>730</ele>
        <time>2019-03-19T15:06:27Z</time>
      </trkpt>
      <trkpt lat="44.2214" lon="5.60912">
        <ele>730</ele>
        <time>2019-03-19T15:06:28Z</time>
      </trkpt>
      <trkpt lat="44.22141" lon="5.60918">
        <ele>730</ele>
        <time>2019-03-19T15:06:29Z</time>
      </trkpt>
      <trkpt lat="44.22142" lon="5.60923">
        <ele>730</ele>
        <time>2019-03-19T15:06:30Z</time>
      </trkpt>
      <trkpt lat="44.22144" lon="5.60928">
        <ele>730</ele>
        <time>2019-03-19T15:06:31Z</time>
      </trkpt>
      <trkpt lat="44.22145" lon="5.60933">
        <ele>730</ele>
        <time>2019-03-19T15:06:32Z</time>
      </trkpt>
      <trkpt lat="44.22146" lon="5.60939">
        <ele>730</ele>
        <time>2019-03-19T15:06:33Z</time>
      </trkpt>
      <trkpt lat="44.22147" lon="5.60945">
        <ele>730</ele>
        <time>2019-03-19T15:06:34Z</time>
      </trkpt>
      <trkpt lat="44.22149" lon="5.6095">
        <ele>730</ele>
        <time>2019-03-19T15:06:35Z</time>
      </trkpt>
      <trkpt lat="44.2215" lon="5.60956">
        <ele>730</ele>
        <time>2019-03-19T15:06:36Z</time>
      </trkpt>
      <trkpt lat="44.22151" lon="5.60962">
        <ele>730</ele>
        <time>2019-03-19T15:06:37Z</time>
      </trkpt>
      <trkpt lat="44.22152" lon="5.60968">
        <ele>730</ele>
        <time>2019-03-19T15:06:38Z</time>
      </trkpt>
      <trkpt lat="44.22153" lon="5.60974">
        <ele>730</ele>
        <time>2019-03-19T15:06:39Z</time>
      </trkpt>
      <trkpt lat="44.22155" lon="5.6098">
        <ele>730</ele>
        <time>2019-03-19T15:06:40Z</time>
      </trkpt>
      <trkpt lat="44.22156" lon="5.60986">
        <ele>730</ele>
        <time>2019-03-19T15:06:41Z</time>
      </trkpt>
      <trkpt lat="44.22157" lon="5.60992">
        <ele>730</ele>
        <time>2019-03-19T15:06:42Z</time>
      </trkpt>
      <trkpt lat="44.22158" lon="5.60999">
        <ele>730</ele>
        <time>2019-03-19T15:06:43Z</time>
      </trkpt>
      <trkpt lat="44.22159" lon="5.61005">
        <ele>730</ele>
        <time>2019-03-19T15:06:44Z</time>
      </trkpt>
      <trkpt lat="44.2216" lon="5.61011">
        <ele>730</ele>
        <time>2019-03-19T15:06:45Z</time>
      </trkpt>
      <trkpt lat="44.22161" lon="5.61018">
        <ele>730</ele>
        <time>2019-03-19T15:06:46Z</time>
      </trkpt>
      <trkpt lat="44.22162" lon="5.61024">
        <ele>730</ele>
        <time>2019-03-19T15:06:47Z</time>
      </trkpt>
      <trkpt lat="44.22163" lon="5.61031">
        <ele>730</ele>
        <time>2019-03-19T15:06:48Z</time>
      </trkpt>
      <trkpt lat="44.22165" lon="5.61037">
        <ele>730</ele>
        <time>2019-03-19T15:06:49Z</time>
      </trkpt>
      <trkpt lat="44.22166" lon="5.61044">
        <ele>730</ele>
        <time>2019-03-19T15:06:50Z</time>
      </trkpt>
      <trkpt lat="44.22167" lon="5.61052">
        <ele>730</ele>
        <time>2019-03-19T15:06:51Z</time>
      </trkpt>
      <trkpt lat="44.22168" lon="5.61059">
        <ele>730</ele>
        <time>2019-03-19T15:06:52Z</time>
      </trkpt>
      <trkpt lat="44.22169" lon="5.61066">
        <ele>730</ele>
        <time>2019-03-19T15:06:53Z</time>
      </trkpt>
      <trkpt lat="44.22171" lon="5.61073">
        <ele>730</ele>
        <time>2019-03-19T15:06:54Z</time>
      </trkpt>
      <trkpt lat="44.22172" lon="5.61081">
        <ele>730</ele>
        <time>2019-03-19T15:06:55Z</time>
      </trkpt>
      <trkpt lat="44.22173" lon="5.61088">
        <ele>730</ele>
        <time>2019-03-19T15:06:56Z</time>
      </trkpt>
      <trkpt lat="44.22174" lon="5.61096">
        <ele>730</ele>
        <time>2019-03-19T15:06:57Z</time>
      </trkpt>
      <trkpt lat="44.22175" lon="5.61103">
        <ele>730</ele>
        <time>2019-03-19T15:06:58Z</time>
      </trkpt>
      <trkpt lat="44.22177" lon="5.61111">
        <ele>730</ele>
        <time>2019-03-19T15:06:59Z</time>
      </trkpt>
      <trkpt lat="44.22178" lon="5.61119">
        <ele>730</ele>
        <time>2019-03-19T15:07:00Z</time>
      </trkpt>
      <trkpt lat="44.22179" lon="5.61127">
        <ele>730</ele>
        <time>2019-03-19T15:07:01Z</time>
      </trkpt>
      <trkpt lat="44.22181" lon="5.61134">
        <ele>730</ele>
        <time>2019-03-19T15:07:02Z</time>
      </trkpt>
      <trkpt lat="44.22182" lon="5.61142">
        <ele>730</ele>
        <time>2019-03-19T15:07:03Z</time>
      </trkpt>
      <trkpt lat="44.22183" lon="5.61149">
        <ele>730</ele>
        <time>2019-03-19T15:07:04Z</time>
      </trkpt>
      <trkpt lat="44.22184" lon="5.61157">
        <ele>730</ele>
        <time>2019-03-19T15:07:05Z</time>
      </trkpt>
      <trkpt lat="44.22186" lon="5.61164">
        <ele>730</ele>
        <time>2019-03-19T15:07:06Z</time>
      </trkpt>
      <trkpt lat="44.22187" lon="5.61172">
        <ele>730</ele>
        <time>2019-03-19T15:07:07Z</time>
      </trkpt>
      <trkpt lat="44.22189" lon="5.6118">
        <ele>730</ele>
        <time>2019-03-19T15:07:08Z</time>
      </trkpt>
      <trkpt lat="44.2219" lon="5.61188">
        <ele>730</ele>
        <time>2019-03-19T15:07:09Z</time>
      </trkpt>
      <trkpt lat="44.22192" lon="5.61196">
        <ele>730</ele>
        <time>2019-03-19T15:07:10Z</time>
      </trkpt>
      <trkpt lat="44.22194" lon="5.61204">
        <ele>730</ele>
        <time>2019-03-19T15:07:11Z</time>
      </trkpt>
      <trkpt lat="44.22196" lon="5.61213">
        <ele>730</ele>
        <time>2019-03-19T15:07:12Z</time>
      </trkpt>
      <trkpt lat="44.22198" lon="5.61221">
        <ele>730</ele>
        <time>2019-03-19T15:07:13Z</time>
      </trkpt>
      <trkpt lat="44.222" lon="5.6123">
        <ele>730</ele>
        <time>2019-03-19T15:07:14Z</time>
      </trkpt>
      <trkpt lat="44.22202" lon="5.61238">
        <ele>730</ele>
        <time>2019-03-19T15:07:15Z</time>
      </trkpt>
      <trkpt lat="44.22204" lon="5.61247">
        <ele>730</ele>
        <time>2019-03-19T15:07:16Z</time>
      </trkpt>
      <trkpt lat="44.22206" lon="5.61255">
        <ele>730</ele>
        <time>2019-03-19T15:07:17Z</time>
      </trkpt>
      <trkpt lat="44.22208" lon="5.61264">
        <ele>730</ele>
        <time>2019-03-19T15:07:18Z</time>
      </trkpt>
      <trkpt lat="44.2221" lon="5.61273">
        <ele>730</ele>
        <time>2019-03-19T15:07:19Z</time>
      </trkpt>
      <trkpt lat="44.22213" lon="5.61282">
        <ele>730</ele>
        <time>2019-03-19T15:07:20Z</time>
      </trkpt>
      <trkpt lat="44.22215" lon="5.61291">
        <ele>730</ele>
        <time>2019-03-19T15:07:21Z</time>
      </trkpt>
      <trkpt lat="44.22217" lon="5.61299">
        <ele>730</ele>
        <time>2019-03-19T15:07:22Z</time>
      </trkpt>
      <trkpt lat="44.22219" lon="5.61308">
        <ele>730</ele>
        <time>2019-03-19T15:07:23Z</time>
      </trkpt>
      <trkpt lat="44.22221" lon="5.61317">
        <ele>730</ele>
        <time>2019-03-19T15:07:24Z</time>
      </trkpt>
      <trkpt lat="44.22224" lon="5.61326">
        <ele>730</ele>
        <time>2019-03-19T15:07:25Z</time>
      </trkpt>
      <trkpt lat="44.22226" lon="5.61335">
        <ele>730</ele>
        <time>2019-03-19T15:07:26Z</time>
      </trkpt>
      <trkpt lat="44.22228" lon="5.61344">
        <ele>730</ele>
        <time>2019-03-19T15:07:27Z</time>
      </trkpt>
      <trkpt lat="44.2223" lon="5.61353">
        <ele>730</ele>
        <time>2019-03-19T15:07:28Z</time>
      </trkpt>
      <trkpt lat="44.22232" lon="5.61363">
        <ele>730</ele>
        <time>2019-03-19T15:07:29Z</time>
      </trkpt>
      <trkpt lat="44.22235" lon="5.61372">
        <ele>730</ele>
        <time>2019-03-19T15:07:30Z</time>
      </trkpt>
      <trkpt lat="44.22237" lon="5.6138">
        <ele>730</ele>
        <time>2019-03-19T15:07:31Z</time>
      </trkpt>
      <trkpt lat="44.22239" lon="5.6139">
        <ele>730</ele>
        <time>2019-03-19T15:07:32Z</time>
      </trkpt>
      <trkpt lat="44.22241" lon="5.61399">
        <ele>730</ele>
        <time>2019-03-19T15:07:33Z</time>
      </trkpt>
      <trkpt lat="44.22243" lon="5.61408">
        <ele>730</ele>
        <time>2019-03-19T15:07:34Z</time>
      </trkpt>
      <trkpt lat="44.22246" lon="5.61417">
        <ele>730</ele>
        <time>2019-03-19T15:07:35Z</time>
      </trkpt>
      <trkpt lat="44.22248" lon="5.61426">
        <ele>730</ele>
        <time>2019-03-19T15:07:36Z</time>
      </trkpt>
      <trkpt lat="44.2225" lon="5.61435">
        <ele>730</ele>
        <time>2019-03-19T15:07:37Z</time>
      </trkpt>
      <trkpt lat="44.22252" lon="5.61444">
        <ele>730</ele>
        <time>2019-03-19T15:07:38Z</time>
      </trkpt>
      <trkpt lat="44.22254" lon="5.61453">
        <ele>730</ele>
        <time>2019-03-19T15:07:39Z</time>
      </trkpt>
      <trkpt lat="44.22257" lon="5.61462">
        <ele>730</ele>
        <time>2019-03-19T15:07:40Z</time>
      </trkpt>
      <trkpt lat="44.22259" lon="5.61471">
        <ele>730</ele>
        <time>2019-03-19T15:07:41Z</time>
      </trkpt>
      <trkpt lat="44.22261" lon="5.6148">
        <ele>730</ele>
        <time>2019-03-19T15:07:42Z</time>
      </trkpt>
      <trkpt lat="44.22263" lon="5.61488">
        <ele>730</ele>
        <time>2019-03-19T15:07:43Z</time>
      </trkpt>
      <trkpt lat="44.22265" lon="5.61497">
        <ele>730</ele>
        <time>2019-03-19T15:07:44Z</time>
      </trkpt>
      <trkpt lat="44.22267" lon="5.61505">
        <ele>730</ele>
        <time>2019-03-19T15:07:45Z</time>
      </trkpt>
      <trkpt lat="44.2227" lon="5.61514">
        <ele>730</ele>
        <time>2019-03-19T15:07:46Z</time>
      </trkpt>
      <trkpt lat="44.22272" lon="5.61521">
        <ele>730</ele>
        <time>2019-03-19T15:07:47Z</time>
      </trkpt>
      <trkpt lat="44.22274" lon="5.61529">
        <ele>730</ele>
        <time>2019-03-19T15:07:48Z</time>
      </trkpt>
      <trkpt lat="44.22277" lon="5.61537">
        <ele>730</ele>
        <time>2019-03-19T15:07:49Z</time>
      </trkpt>
      <trkpt lat="44.22279" lon="5.61545">
        <ele>730</ele>
        <time>2019-03-19T15:07:50Z</time>
      </trkpt>
      <trkpt lat="44.22282" lon="5.61553">
        <ele>730</ele>
        <time>2019-03-19T15:07:51Z</time>
      </trkpt>
      <trkpt lat="44.22285" lon="5.61561">
        <ele>730</ele>
        <time>2019-03-19T15:07:52Z</time>
      </trkpt>
      <trkpt lat="44.22289" lon="5.61569">
        <ele>730</ele>
        <time>2019-03-19T15:07:53Z</time>
      </trkpt>
      <trkpt lat="44.22292" lon="5.61577">
        <ele>730</ele>
        <time>2019-03-19T15:07:54Z</time>
      </trkpt>
      <trkpt lat="44.22295" lon="5.61585">
        <ele>730</ele>
        <time>2019-03-19T15:07:55Z</time>
      </trkpt>
      <trkpt lat="44.22299" lon="5.61593">
        <ele>730</ele>
        <time>2019-03-19T15:07:56Z</time>
      </trkpt>
      <trkpt lat="44.22302" lon="5.61602">
        <ele>729</ele>
        <time>2019-03-19T15:07:57Z</time>
      </trkpt>
      <trkpt lat="44.22306" lon="5.61611">
        <ele>729</ele>
        <time>2019-03-19T15:07:58Z</time>
      </trkpt>
      <trkpt lat="44.22309" lon="5.61619">
        <ele>729</ele>
        <time>2019-03-19T15:07:59Z</time>
      </trkpt>
      <trkpt lat="44.22313" lon="5.61628">
        <ele>729</ele>
        <time>2019-03-19T15:08:00Z</time>
      </trkpt>
      <trkpt lat="44.22316" lon="5.61636">
        <ele>729</ele>
        <time>2019-03-19T15:08:01Z</time>
      </trkpt>
      <trkpt lat="44.2232" lon="5.61645">
        <ele>729</ele>
        <time>2019-03-19T15:08:02Z</time>
      </trkpt>
      <trkpt lat="44.22324" lon="5.61654">
        <ele>728</ele>
        <time>2019-03-19T15:08:03Z</time>
      </trkpt>
      <trkpt lat="44.22328" lon="5.61663">
        <ele>728</ele>
        <time>2019-03-19T15:08:04Z</time>
      </trkpt>
      <trkpt lat="44.22331" lon="5.61671">
        <ele>728</ele>
        <time>2019-03-19T15:08:05Z</time>
      </trkpt>
      <trkpt lat="44.22335" lon="5.6168">
        <ele>728</ele>
        <time>2019-03-19T15:08:06Z</time>
      </trkpt>
      <trkpt lat="44.22339" lon="5.61689">
        <ele>728</ele>
        <time>2019-03-19T15:08:07Z</time>
      </trkpt>
      <trkpt lat="44.22343" lon="5.61698">
        <ele>728</ele>
        <time>2019-03-19T15:08:08Z</time>
      </trkpt>
      <trkpt lat="44.22346" lon="5.61707">
        <ele>728</ele>
        <time>2019-03-19T15:08:09Z</time>
      </trkpt>
      <trkpt lat="44.2235" lon="5.61716">
        <ele>728</ele>
        <time>2019-03-19T15:08:10Z</time>
      </trkpt>
      <trkpt lat="44.22353" lon="5.61725">
        <ele>727</ele>
        <time>2019-03-19T15:08:11Z</time>
      </trkpt>
      <trkpt lat="44.22357" lon="5.61734">
        <ele>727</ele>
        <time>2019-03-19T15:08:12Z</time>
      </trkpt>
      <trkpt lat="44.22361" lon="5.61743">
        <ele>727</ele>
        <time>2019-03-19T15:08:13Z</time>
      </trkpt>
      <trkpt lat="44.22364" lon="5.61752">
        <ele>727</ele>
        <time>2019-03-19T15:08:14Z</time>
      </trkpt>
      <trkpt lat="44.22368" lon="5.61761">
        <ele>727</ele>
        <time>2019-03-19T15:08:15Z</time>
      </trkpt>
      <trkpt lat="44.22372" lon="5.6177">
        <ele>726</ele>
        <time>2019-03-19T15:08:16Z</time>
      </trkpt>
      <trkpt lat="44.22376" lon="5.61779">
        <ele>726</ele>
        <time>2019-03-19T15:08:17Z</time>
      </trkpt>
      <trkpt lat="44.22379" lon="5.61789">
        <ele>726</ele>
        <time>2019-03-19T15:08:18Z</time>
      </trkpt>
      <trkpt lat="44.22383" lon="5.61798">
        <ele>726</ele>
        <time>2019-03-19T15:08:19Z</time>
      </trkpt>
      <trkpt lat="44.22386" lon="5.61808">
        <ele>726</ele>
        <time>2019-03-19T15:08:20Z</time>
      </trkpt>
      <trkpt lat="44.22389" lon="5.61817">
        <ele>726</ele>
        <time>2019-03-19T15:08:21Z</time>
      </trkpt>
      <trkpt lat="44.22392" lon="5.61827">
        <ele>726</ele>
        <time>2019-03-19T15:08:22Z</time>
      </trkpt>
      <trkpt lat="44.22395" lon="5.61837">
        <ele>726</ele>
        <time>2019-03-19T15:08:23Z</time>
      </trkpt>
      <trkpt lat="44.22397" lon="5.61847">
        <ele>726</ele>
        <time>2019-03-19T15:08:24Z</time>
      </trkpt>
      <trkpt lat="44.22399" lon="5.61858">
        <ele>726</ele>
        <time>2019-03-19T15:08:25Z</time>
      </trkpt>
      <trkpt lat="44.22402" lon="5.61868">
        <ele>726</ele>
        <time>2019-03-19T15:08:26Z</time>
      </trkpt>
      <trkpt lat="44.22404" lon="5.61878">
        <ele>726</ele>
        <time>2019-03-19T15:08:27Z</time>
      </trkpt>
      <trkpt lat="44.22407" lon="5.61888">
        <ele>726</ele>
        <time>2019-03-19T15:08:28Z</time>
      </trkpt>
      <trkpt lat="44.2241" lon="5.61898">
        <ele>726</ele>
        <time>2019-03-19T15:08:29Z</time>
      </trkpt>
      <trkpt lat="44.22413" lon="5.61907">
        <ele>726</ele>
        <time>2019-03-19T15:08:30Z</time>
      </trkpt>
      <trkpt lat="44.22417" lon="5.61917">
        <ele>726</ele>
        <time>2019-03-19T15:08:31Z</time>
      </trkpt>
      <trkpt lat="44.22421" lon="5.61926">
        <ele>726</ele>
        <time>2019-03-19T15:08:32Z</time>
      </trkpt>
      <trkpt lat="44.22425" lon="5.61935">
        <ele>726</ele>
        <time>2019-03-19T15:08:33Z</time>
      </trkpt>
      <trkpt lat="44.2243" lon="5.61943">
        <ele>726</ele>
        <time>2019-03-19T15:08:34Z</time>
      </trkpt>
      <trkpt lat="44.22434" lon="5.61953">
        <ele>726</ele>
        <time>2019-03-19T15:08:35Z</time>
      </trkpt>
      <trkpt lat="44.22438" lon="5.61962">
        <ele>726</ele>
        <time>2019-03-19T15:08:36Z</time>
      </trkpt>
      <trkpt lat="44.22443" lon="5.61971">
        <ele>726</ele>
        <time>2019-03-19T15:08:37Z</time>
      </trkpt>
      <trkpt lat="44.22447" lon="5.6198">
        <ele>726</ele>
        <time>2019-03-19T15:08:38Z</time>
      </trkpt>
      <trkpt lat="44.22451" lon="5.61989">
        <ele>726</ele>
        <time>2019-03-19T15:08:39Z</time>
      </trkpt>
      <trkpt lat="44.22456" lon="5.61998">
        <ele>726</ele>
        <time>2019-03-19T15:08:40Z</time>
      </trkpt>
      <trkpt lat="44.2246" lon="5.62007">
        <ele>726</ele>
        <time>2019-03-19T15:08:41Z</time>
      </trkpt>
      <trkpt lat="44.22464" lon="5.62016">
        <ele>726</ele>
        <time>2019-03-19T15:08:42Z</time>
      </trkpt>
      <trkpt lat="44.22469" lon="5.62025">
        <ele>726</ele>
        <time>2019-03-19T15:08:43Z</time>
      </trkpt>
      <trkpt lat="44.22472" lon="5.62034">
        <ele>726</ele>
        <time>2019-03-19T15:08:44Z</time>
      </trkpt>
      <trkpt lat="44.22477" lon="5.62043">
        <ele>726</ele>
        <time>2019-03-19T15:08:45Z</time>
      </trkpt>
      <trkpt lat="44.2248" lon="5.62051">
        <ele>726</ele>
        <time>2019-03-19T15:08:46Z</time>
      </trkpt>
      <trkpt lat="44.22485" lon="5.6206">
        <ele>726</ele>
        <time>2019-03-19T15:08:47Z</time>
      </trkpt>
      <trkpt lat="44.22489" lon="5.62069">
        <ele>726</ele>
        <time>2019-03-19T15:08:48Z</time>
      </trkpt>
      <trkpt lat="44.22493" lon="5.62077">
        <ele>726</ele>
        <time>2019-03-19T15:08:49Z</time>
      </trkpt>
      <trkpt lat="44.22496" lon="5.62085">
        <ele>726</ele>
        <time>2019-03-19T15:08:50Z</time>
      </trkpt>
      <trkpt lat="44.225" lon="5.62094">
        <ele>726</ele>
        <time>2019-03-19T15:08:51Z</time>
      </trkpt>
      <trkpt lat="44.22504" lon="5.62102">
        <ele>726</ele>
        <time>2019-03-19T15:08:52Z</time>
      </trkpt>
      <trkpt lat="44.22508" lon="5.6211">
        <ele>726</ele>
        <time>2019-03-19T15:08:53Z</time>
      </trkpt>
      <trkpt lat="44.22511" lon="5.62119">
        <ele>726</ele>
        <time>2019-03-19T15:08:54Z</time>
      </trkpt>
      <trkpt lat="44.22515" lon="5.62127">
        <ele>726</ele>
        <time>2019-03-19T15:08:55Z</time>
      </trkpt>
      <trkpt lat="44.22518" lon="5.62136">
        <ele>726</ele>
        <time>2019-03-19T15:08:56Z</time>
      </trkpt>
      <trkpt lat="44.22521" lon="5.62145">
        <ele>726</ele>
        <time>2019-03-19T15:08:57Z</time>
      </trkpt>
      <trkpt lat="44.22524" lon="5.62155">
        <ele>725</ele>
        <time>2019-03-19T15:08:58Z</time>
      </trkpt>
      <trkpt lat="44.22526" lon="5.62164">
        <ele>725</ele>
        <time>2019-03-19T15:08:59Z</time>
      </trkpt>
      <trkpt lat="44.22528" lon="5.62174">
        <ele>725</ele>
        <time>2019-03-19T15:09:00Z</time>
      </trkpt>
      <trkpt lat="44.2253" lon="5.62183">
        <ele>725</ele>
        <time>2019-03-19T15:09:01Z</time>
      </trkpt>
      <trkpt lat="44.22531" lon="5.62193">
        <ele>725</ele>
        <time>2019-03-19T15:09:02Z</time>
      </trkpt>
      <trkpt lat="44.22532" lon="5.62202">
        <ele>725</ele>
        <time>2019-03-19T15:09:03Z</time>
      </trkpt>
      <trkpt lat="44.22533" lon="5.62212">
        <ele>725</ele>
        <time>2019-03-19T15:09:04Z</time>
      </trkpt>
      <trkpt lat="44.22533" lon="5.62221">
        <ele>725</ele>
        <time>2019-03-19T15:09:05Z</time>
      </trkpt>
      <trkpt lat="44.22533" lon="5.62231">
        <ele>725</ele>
        <time>2019-03-19T15:09:06Z</time>
      </trkpt>
      <trkpt lat="44.22533" lon="5.6224">
        <ele>725</ele>
        <time>2019-03-19T15:09:07Z</time>
      </trkpt>
      <trkpt lat="44.22534" lon="5.62249">
        <ele>725</ele>
        <time>2019-03-19T15:09:08Z</time>
      </trkpt>
      <trkpt lat="44.22534" lon="5.62257">
        <ele>725</ele>
        <time>2019-03-19T15:09:09Z</time>
      </trkpt>
      <trkpt lat="44.22535" lon="5.62266">
        <ele>725</ele>
        <time>2019-03-19T15:09:10Z</time>
      </trkpt>
      <trkpt lat="44.22535" lon="5.62275">
        <ele>725</ele>
        <time>2019-03-19T15:09:11Z</time>
      </trkpt>
      <trkpt lat="44.22536" lon="5.62283">
        <ele>725</ele>
        <time>2019-03-19T15:09:12Z</time>
      </trkpt>
      <trkpt lat="44.22538" lon="5.62292">
        <ele>725</ele>
        <time>2019-03-19T15:09:13Z</time>
      </trkpt>
      <trkpt lat="44.22539" lon="5.62302">
        <ele>725</ele>
        <time>2019-03-19T15:09:14Z</time>
      </trkpt>
      <trkpt lat="44.22541" lon="5.62311">
        <ele>725</ele>
        <time>2019-03-19T15:09:15Z</time>
      </trkpt>
      <trkpt lat="44.22543" lon="5.6232">
        <ele>725</ele>
        <time>2019-03-19T15:09:16Z</time>
      </trkpt>
      <trkpt lat="44.22545" lon="5.62329">
        <ele>725</ele>
        <time>2019-03-19T15:09:17Z</time>
      </trkpt>
      <trkpt lat="44.22547" lon="5.62337">
        <ele>725</ele>
        <time>2019-03-19T15:09:18Z</time>
      </trkpt>
      <trkpt lat="44.22549" lon="5.62346">
        <ele>725</ele>
        <time>2019-03-19T15:09:19Z</time>
      </trkpt>
      <trkpt lat="44.22552" lon="5.62354">
        <ele>725</ele>
        <time>2019-03-19T15:09:20Z</time>
      </trkpt>
      <trkpt lat="44.22555" lon="5.62362">
        <ele>725</ele>
        <time>2019-03-19T15:09:21Z</time>
      </trkpt>
      <trkpt lat="44.22557" lon="5.6237">
        <ele>725</ele>
        <time>2019-03-19T15:09:22Z</time>
      </trkpt>
      <trkpt lat="44.2256" lon="5.62377">
        <ele>725</ele>
        <time>2019-03-19T15:09:23Z</time>
      </trkpt>
      <trkpt lat="44.22564" lon="5.62385">
        <ele>725</ele>
        <time>2019-03-19T15:09:24Z</time>
      </trkpt>
      <trkpt lat="44.22567" lon="5.62392">
        <ele>725</ele>
        <time>2019-03-19T15:09:25Z</time>
      </trkpt>
      <trkpt lat="44.2257" lon="5.62399">
        <ele>725</ele>
        <time>2019-03-19T15:09:26Z</time>
      </trkpt>
      <trkpt lat="44.22573" lon="5.62406">
        <ele>725</ele>
        <time>2019-03-19T15:09:27Z</time>
      </trkpt>
      <trkpt lat="44.22576" lon="5.62414">
        <ele>725</ele>
        <time>2019-03-19T15:09:28Z</time>
      </trkpt>
      <trkpt lat="44.2258" lon="5.62421">
        <ele>725</ele>
        <time>2019-03-19T15:09:29Z</time>
      </trkpt>
      <trkpt lat="44.22583" lon="5.62428">
        <ele>725</ele>
        <time>2019-03-19T15:09:30Z</time>
      </trkpt>
      <trkpt lat="44.22586" lon="5.62435">
        <ele>724</ele>
        <time>2019-03-19T15:09:31Z</time>
      </trkpt>
      <trkpt lat="44.2259" lon="5.62442">
        <ele>724</ele>
        <time>2019-03-19T15:09:32Z</time>
      </trkpt>
      <trkpt lat="44.22593" lon="5.6245">
        <ele>724</ele>
        <time>2019-03-19T15:09:33Z</time>
      </trkpt>
      <trkpt lat="44.22597" lon="5.62457">
        <ele>724</ele>
        <time>2019-03-19T15:09:34Z</time>
      </trkpt>
      <trkpt lat="44.22601" lon="5.62464">
        <ele>724</ele>
        <time>2019-03-19T15:09:35Z</time>
      </trkpt>
      <trkpt lat="44.22604" lon="5.6247">
        <ele>724</ele>
        <time>2019-03-19T15:09:36Z</time>
      </trkpt>
      <trkpt lat="44.22608" lon="5.62477">
        <ele>724</ele>
        <time>2019-03-19T15:09:37Z</time>
      </trkpt>
      <trkpt lat="44.22612" lon="5.62484">
        <ele>724</ele>
        <time>2019-03-19T15:09:38Z</time>
      </trkpt>
      <trkpt lat="44.22616" lon="5.6249">
        <ele>724</ele>
        <time>2019-03-19T15:09:39Z</time>
      </trkpt>
      <trkpt lat="44.2262" lon="5.62497">
        <ele>724</ele>
        <time>2019-03-19T15:09:40Z</time>
      </trkpt>
      <trkpt lat="44.22624" lon="5.62504">
        <ele>724</ele>
        <time>2019-03-19T15:09:41Z</time>
      </trkpt>
      <trkpt lat="44.22628" lon="5.6251">
        <ele>723</ele>
        <time>2019-03-19T15:09:42Z</time>
      </trkpt>
      <trkpt lat="44.22632" lon="5.62517">
        <ele>723</ele>
        <time>2019-03-19T15:09:43Z</time>
      </trkpt>
      <trkpt lat="44.22636" lon="5.62524">
        <ele>723</ele>
        <time>2019-03-19T15:09:44Z</time>
      </trkpt>
      <trkpt lat="44.2264" lon="5.6253">
        <ele>723</ele>
        <time>2019-03-19T15:09:45Z</time>
      </trkpt>
      <trkpt lat="44.22644" lon="5.62536">
        <ele>722</ele>
        <time>2019-03-19T15:09:46Z</time>
      </trkpt>
      <trkpt lat="44.22648" lon="5.62543">
        <ele>722</ele>
        <time>2019-03-19T15:09:47Z</time>
      </trkpt>
      <trkpt lat="44.22652" lon="5.62549">
        <ele>722</ele>
        <time>2019-03-19T15:09:48Z</time>
      </trkpt>
      <trkpt lat="44.22656" lon="5.62556">
        <ele>722</ele>
        <time>2019-03-19T15:09:49Z</time>
      </trkpt>
      <trkpt lat="44.2266" lon="5.62562">
        <ele>722</ele>
        <time>2019-03-19T15:09:50Z</time>
      </trkpt>
      <trkpt lat="44.22664" lon="5.62569">
        <ele>721</ele>
        <time>2019-03-19T15:09:51Z</time>
      </trkpt>
      <trkpt lat="44.22668" lon="5.62575">
        <ele>721</ele>
        <time>2019-03-19T15:09:52Z</time>
      </trkpt>
      <trkpt lat="44.22672" lon="5.62581">
        <ele>721</ele>
        <time>2019-03-19T15:09:53Z</time>
      </trkpt>
      <trkpt lat="44.22675" lon="5.62588">
        <ele>720</ele>
        <time>2019-03-19T15:09:54Z</time>
      </trkpt>
      <trkpt lat="44.22679" lon="5.62595">
        <ele>720</ele>
        <time>2019-03-19T15:09:55Z</time>
      </trkpt>
      <trkpt lat="44.22683" lon="5.62601">
        <ele>720</ele>
        <time>2019-03-19T15:09:56Z</time>
      </trkpt>
      <trkpt lat="44.22686" lon="5.62607">
        <ele>720</ele>
        <time>2019-03-19T15:09:57Z</time>
      </trkpt>
      <trkpt lat="44.2269" lon="5.62613">
        <ele>720</ele>
        <time>2019-03-19T15:09:58Z</time>
      </trkpt>
      <trkpt lat="44.22694" lon="5.62619">
        <ele>720</ele>
        <time>2019-03-19T15:09:59Z</time>
      </trkpt>
      <trkpt lat="44.22697" lon="5.62626">
        <ele>720</ele>
        <time>2019-03-19T15:10:00Z</time>
      </trkpt>
      <trkpt lat="44.22701" lon="5.62632">
        <ele>720</ele>
        <time>2019-03-19T15:10:01Z</time>
      </trkpt>
      <trkpt lat="44.22705" lon="5.62638">
        <ele>720</ele>
        <time>2019-03-19T15:10:02Z</time>
      </trkpt>
      <trkpt lat="44.22709" lon="5.62644">
        <ele>720</ele>
        <time>2019-03-19T15:10:03Z</time>
      </trkpt>
      <trkpt lat="44.22712" lon="5.62651">
        <ele>720</ele>
        <time>2019-03-19T15:10:04Z</time>
      </trkpt>
      <trkpt lat="44.22716" lon="5.62657">
        <ele>720</ele>
        <time>2019-03-19T15:10:05Z</time>
      </trkpt>
      <trkpt lat="44.2272" lon="5.62664">
        <ele>720</ele>
        <time>2019-03-19T15:10:06Z</time>
      </trkpt>
      <trkpt lat="44.22724" lon="5.6267">
        <ele>720</ele>
        <time>2019-03-19T15:10:07Z</time>
      </trkpt>
      <trkpt lat="44.22727" lon="5.62676">
        <ele>720</ele>
        <time>2019-03-19T15:10:08Z</time>
      </trkpt>
      <trkpt lat="44.22731" lon="5.62683">
        <ele>720</ele>
        <time>2019-03-19T15:10:09Z</time>
      </trkpt>
      <trkpt lat="44.22735" lon="5.6269">
        <ele>720</ele>
        <time>2019-03-19T15:10:10Z</time>
      </trkpt>
      <trkpt lat="44.22739" lon="5.62696">
        <ele>720</ele>
        <time>2019-03-19T15:10:11Z</time>
      </trkpt>
      <trkpt lat="44.22744" lon="5.62703">
        <ele>719</ele>
        <time>2019-03-19T15:10:12Z</time>
      </trkpt>
      <trkpt lat="44.22747" lon="5.6271">
        <ele>719</ele>
        <time>2019-03-19T15:10:13Z</time>
      </trkpt>
      <trkpt lat="44.22752" lon="5.62716">
        <ele>719</ele>
        <time>2019-03-19T15:10:14Z</time>
      </trkpt>
      <trkpt lat="44.22756" lon="5.62723">
        <ele>719</ele>
        <time>2019-03-19T15:10:15Z</time>
      </trkpt>
      <trkpt lat="44.2276" lon="5.62729">
        <ele>719</ele>
        <time>2019-03-19T15:10:16Z</time>
      </trkpt>
      <trkpt lat="44.22765" lon="5.62736">
        <ele>718</ele>
        <time>2019-03-19T15:10:17Z</time>
      </trkpt>
      <trkpt lat="44.22769" lon="5.62742">
        <ele>718</ele>
        <time>2019-03-19T15:10:18Z</time>
      </trkpt>
      <trkpt lat="44.22774" lon="5.62747">
        <ele>718</ele>
        <time>2019-03-19T15:10:19Z</time>
      </trkpt>
      <trkpt lat="44.22779" lon="5.62753">
        <ele>718</ele>
        <time>2019-03-19T15:10:20Z</time>
      </trkpt>
      <trkpt lat="44.22785" lon="5.62759">
        <ele>718</ele>
        <time>2019-03-19T15:10:21Z</time>
      </trkpt>
      <trkpt lat="44.2279" lon="5.62764">
        <ele>718</ele>
        <time>2019-03-19T15:10:22Z</time>
      </trkpt>
      <trkpt lat="44.22795" lon="5.6277">
        <ele>718</ele>
        <time>2019-03-19T15:10:23Z</time>
      </trkpt>
      <trkpt lat="44.228" lon="5.62776">
        <ele>718</ele>
        <time>2019-03-19T15:10:24Z</time>
      </trkpt>
      <trkpt lat="44.22806" lon="5.62781">
        <ele>718</ele>
        <time>2019-03-19T15:10:25Z</time>
      </trkpt>
      <trkpt lat="44.22812" lon="5.62787">
        <ele>718</ele>
        <time>2019-03-19T15:10:26Z</time>
      </trkpt>
      <trkpt lat="44.22817" lon="5.62793">
        <ele>718</ele>
        <time>2019-03-19T15:10:27Z</time>
      </trkpt>
      <trkpt lat="44.22822" lon="5.62799">
        <ele>718</ele>
        <time>2019-03-19T15:10:28Z</time>
      </trkpt>
      <trkpt lat="44.22827" lon="5.62805">
        <ele>718</ele>
        <time>2019-03-19T15:10:29Z</time>
      </trkpt>
      <trkpt lat="44.22833" lon="5.62811">
        <ele>718</ele>
        <time>2019-03-19T15:10:30Z</time>
      </trkpt>
      <trkpt lat="44.22838" lon="5.62817">
        <ele>717</ele>
        <time>2019-03-19T15:10:31Z</time>
      </trkpt>
      <trkpt lat="44.22843" lon="5.62824">
        <ele>717</ele>
        <time>2019-03-19T15:10:32Z</time>
      </trkpt>
      <trkpt lat="44.22848" lon="5.62831">
        <ele>717</ele>
        <time>2019-03-19T15:10:33Z</time>
      </trkpt>
      <trkpt lat="44.22853" lon="5.62837">
        <ele>717</ele>
        <time>2019-03-19T15:10:34Z</time>
      </trkpt>
      <trkpt lat="44.22858" lon="5.62844">
        <ele>716</ele>
        <time>2019-03-19T15:10:35Z</time>
      </trkpt>
      <trkpt lat="44.22863" lon="5.62851">
        <ele>716</ele>
        <time>2019-03-19T15:10:36Z</time>
      </trkpt>
      <trkpt lat="44.22868" lon="5.62857">
        <ele>716</ele>
        <time>2019-03-19T15:10:37Z</time>
      </trkpt>
      <trkpt lat="44.22872" lon="5.62864">
        <ele>716</ele>
        <time>2019-03-19T15:10:38Z</time>
      </trkpt>
      <trkpt lat="44.22877" lon="5.6287">
        <ele>716</ele>
        <time>2019-03-19T15:10:39Z</time>
      </trkpt>
      <trkpt lat="44.22884" lon="5.62876">
        <ele>716</ele>
        <time>2019-03-19T15:10:40Z</time>
      </trkpt>
      <trkpt lat="44.22889" lon="5.62883">
        <ele>715</ele>
        <time>2019-03-19T15:10:41Z</time>
      </trkpt>
      <trkpt lat="44.22895" lon="5.62889">
        <ele>715</ele>
        <time>2019-03-19T15:10:42Z</time>
      </trkpt>
      <trkpt lat="44.22901" lon="5.62895">
        <ele>715</ele>
        <time>2019-03-19T15:10:43Z</time>
      </trkpt>
      <trkpt lat="44.22908" lon="5.62901">
        <ele>715</ele>
        <time>2019-03-19T15:10:44Z</time>
      </trkpt>
      <trkpt lat="44.22915" lon="5.62907">
        <ele>715</ele>
        <time>2019-03-19T15:10:45Z</time>
      </trkpt>
      <trkpt lat="44.2292" lon="5.62914">
        <ele>715</ele>
        <time>2019-03-19T15:10:46Z</time>
      </trkpt>
      <trkpt lat="44.22926" lon="5.62921">
        <ele>715</ele>
        <time>2019-03-19T15:10:47Z</time>
      </trkpt>
      <trkpt lat="44.22934" lon="5.62927">
        <ele>715</ele>
        <time>2019-03-19T15:10:48Z</time>
      </trkpt>
      <trkpt lat="44.2294" lon="5.62933">
        <ele>714</ele>
        <time>2019-03-19T15:10:49Z</time>
      </trkpt>
      <trkpt lat="44.22946" lon="5.62939">
        <ele>714</ele>
        <time>2019-03-19T15:10:50Z</time>
      </trkpt>
      <trkpt lat="44.22952" lon="5.62945">
        <ele>714</ele>
        <time>2019-03-19T15:10:51Z</time>
      </trkpt>
      <trkpt lat="44.22958" lon="5.6295">
        <ele>714</ele>
        <time>2019-03-19T15:10:52Z</time>
      </trkpt>
      <trkpt lat="44.22966" lon="5.62954">
        <ele>713</ele>
        <time>2019-03-19T15:10:53Z</time>
      </trkpt>
      <trkpt lat="44.22973" lon="5.62958">
        <ele>713</ele>
        <time>2019-03-19T15:10:54Z</time>
      </trkpt>
      <trkpt lat="44.2298" lon="5.62962">
        <ele>713</ele>
        <time>2019-03-19T15:10:55Z</time>
      </trkpt>
      <trkpt lat="44.22987" lon="5.62967">
        <ele>712</ele>
        <time>2019-03-19T15:10:56Z</time>
      </trkpt>
      <trkpt lat="44.22994" lon="5.62972">
        <ele>712</ele>
        <time>2019-03-19T15:10:57Z</time>
      </trkpt>
      <trkpt lat="44.23001" lon="5.62978">
        <ele>712</ele>
        <time>2019-03-19T15:10:58Z</time>
      </trkpt>
      <trkpt lat="44.23008" lon="5.62984">
        <ele>711</ele>
        <time>2019-03-19T15:10:59Z</time>
      </trkpt>
      <trkpt lat="44.23014" lon="5.62991">
        <ele>711</ele>
        <time>2019-03-19T15:11:00Z</time>
      </trkpt>
      <trkpt lat="44.23021" lon="5.62998">
        <ele>710</ele>
        <time>2019-03-19T15:11:01Z</time>
      </trkpt>
      <trkpt lat="44.23027" lon="5.63005">
        <ele>710</ele>
        <time>2019-03-19T15:11:02Z</time>
      </trkpt>
      <trkpt lat="44.23032" lon="5.63013">
        <ele>710</ele>
        <time>2019-03-19T15:11:03Z</time>
      </trkpt>
      <trkpt lat="44.23038" lon="5.6302">
        <ele>710</ele>
        <time>2019-03-19T15:11:04Z</time>
      </trkpt>
      <trkpt lat="44.23045" lon="5.63027">
        <ele>710</ele>
        <time>2019-03-19T15:11:05Z</time>
      </trkpt>
      <trkpt lat="44.23051" lon="5.63034">
        <ele>710</ele>
        <time>2019-03-19T15:11:06Z</time>
      </trkpt>
      <trkpt lat="44.23057" lon="5.63041">
        <ele>709</ele>
        <time>2019-03-19T15:11:07Z</time>
      </trkpt>
      <trkpt lat="44.23063" lon="5.63047">
        <ele>709</ele>
        <time>2019-03-19T15:11:08Z</time>
      </trkpt>
      <trkpt lat="44.2307" lon="5.63052">
        <ele>709</ele>
        <time>2019-03-19T15:11:09Z</time>
      </trkpt>
      <trkpt lat="44.23077" lon="5.63056">
        <ele>709</ele>
        <time>2019-03-19T15:11:10Z</time>
      </trkpt>
      <trkpt lat="44.23084" lon="5.63061">
        <ele>708</ele>
        <time>2019-03-19T15:11:11Z</time>
      </trkpt>
      <trkpt lat="44.23091" lon="5.63064">
        <ele>708</ele>
        <time>2019-03-19T15:11:12Z</time>
      </trkpt>
      <trkpt lat="44.23099" lon="5.63067">
        <ele>708</ele>
        <time>2019-03-19T15:11:13Z</time>
      </trkpt>
      <trkpt lat="44.23106" lon="5.6307">
        <ele>707</ele>
        <time>2019-03-19T15:11:14Z</time>
      </trkpt>
      <trkpt lat="44.23114" lon="5.63072">
        <ele>707</ele>
        <time>2019-03-19T15:11:15Z</time>
      </trkpt>
      <trkpt lat="44.23122" lon="5.63074">
        <ele>706</ele>
        <time>2019-03-19T15:11:16Z</time>
      </trkpt>
      <trkpt lat="44.2313" lon="5.63076">
        <ele>706</ele>
        <time>2019-03-19T15:11:17Z</time>
      </trkpt>
      <trkpt lat="44.23138" lon="5.63078">
        <ele>706</ele>
        <time>2019-03-19T15:11:18Z</time>
      </trkpt>
      <trkpt lat="44.23146" lon="5.6308">
        <ele>705</ele>
        <time>2019-03-19T15:11:19Z</time>
      </trkpt>
      <trkpt lat="44.23154" lon="5.63082">
        <ele>705</ele>
        <time>2019-03-19T15:11:20Z</time>
      </trkpt>
      <trkpt lat="44.23161" lon="5.63083">
        <ele>705</ele>
        <time>2019-03-19T15:11:21Z</time>
      </trkpt>
      <trkpt lat="44.23169" lon="5.63085">
        <ele>705</ele>
        <time>2019-03-19T15:11:22Z</time>
      </trkpt>
      <trkpt lat="44.23176" lon="5.63087">
        <ele>705</ele>
        <time>2019-03-19T15:11:23Z</time>
      </trkpt>
      <trkpt lat="44.23183" lon="5.63088">
        <ele>705</ele>
        <time>2019-03-19T15:11:24Z</time>
      </trkpt>
      <trkpt lat="44.2319" lon="5.6309">
        <ele>705</ele>
        <time>2019-03-19T15:11:25Z</time>
      </trkpt>
      <trkpt lat="44.23198" lon="5.63092">
        <ele>705</ele>
        <time>2019-03-19T15:11:26Z</time>
      </trkpt>
      <trkpt lat="44.23204" lon="5.63093">
        <ele>705</ele>
        <time>2019-03-19T15:11:27Z</time>
      </trkpt>
      <trkpt lat="44.23212" lon="5.63095">
        <ele>705</ele>
        <time>2019-03-19T15:11:28Z</time>
      </trkpt>
      <trkpt lat="44.23218" lon="5.63096">
        <ele>705</ele>
        <time>2019-03-19T15:11:29Z</time>
      </trkpt>
      <trkpt lat="44.23225" lon="5.63098">
        <ele>705</ele>
        <time>2019-03-19T15:11:30Z</time>
      </trkpt>
      <trkpt lat="44.23232" lon="5.63099">
        <ele>704</ele>
        <time>2019-03-19T15:11:31Z</time>
      </trkpt>
      <trkpt lat="44.23238" lon="5.63101">
        <ele>704</ele>
        <time>2019-03-19T15:11:32Z</time>
      </trkpt>
      <trkpt lat="44.23245" lon="5.63103">
        <ele>704</ele>
        <time>2019-03-19T15:11:33Z</time>
      </trkpt>
      <trkpt lat="44.23251" lon="5.63104">
        <ele>704</ele>
        <time>2019-03-19T15:11:34Z</time>
      </trkpt>
      <trkpt lat="44.23257" lon="5.63106">
        <ele>704</ele>
        <time>2019-03-19T15:11:35Z</time>
      </trkpt>
      <trkpt lat="44.23264" lon="5.63107">
        <ele>704</ele>
        <time>2019-03-19T15:11:36Z</time>
      </trkpt>
      <trkpt lat="44.2327" lon="5.63109">
        <ele>704</ele>
        <time>2019-03-19T15:11:37Z</time>
      </trkpt>
      <trkpt lat="44.23276" lon="5.63111">
        <ele>704</ele>
        <time>2019-03-19T15:11:38Z</time>
      </trkpt>
      <trkpt lat="44.23281" lon="5.63112">
        <ele>704</ele>
        <time>2019-03-19T15:11:39Z</time>
      </trkpt>
      <trkpt lat="44.23288" lon="5.63114">
        <ele>704</ele>
        <time>2019-03-19T15:11:40Z</time>
      </trkpt>
      <trkpt lat="44.23293" lon="5.63115">
        <ele>704</ele>
        <time>2019-03-19T15:11:41Z</time>
      </trkpt>
      <trkpt lat="44.23299" lon="5.63117">
        <ele>704</ele>
        <time>2019-03-19T15:11:42Z</time>
      </trkpt>
      <trkpt lat="44.23305" lon="5.63118">
        <ele>704</ele>
        <time>2019-03-19T15:11:43Z</time>
      </trkpt>
      <trkpt lat="44.23311" lon="5.63119">
        <ele>704</ele>
        <time>2019-03-19T15:11:44Z</time>
      </trkpt>
      <trkpt lat="44.23317" lon="5.63121">
        <ele>704</ele>
        <time>2019-03-19T15:11:45Z</time>
      </trkpt>
      <trkpt lat="44.23323" lon="5.63122">
        <ele>704</ele>
        <time>2019-03-19T15:11:46Z</time>
      </trkpt>
      <trkpt lat="44.23329" lon="5.63124">
        <ele>704</ele>
        <time>2019-03-19T15:11:47Z</time>
      </trkpt>
      <trkpt lat="44.23335" lon="5.63125">
        <ele>703</ele>
        <time>2019-03-19T15:11:48Z</time>
      </trkpt>
      <trkpt lat="44.23341" lon="5.63127">
        <ele>703</ele>
        <time>2019-03-19T15:11:49Z</time>
      </trkpt>
      <trkpt lat="44.23347" lon="5.63128">
        <ele>703</ele>
        <time>2019-03-19T15:11:50Z</time>
      </trkpt>
      <trkpt lat="44.23353" lon="5.63129">
        <ele>703</ele>
        <time>2019-03-19T15:11:51Z</time>
      </trkpt>
      <trkpt lat="44.23359" lon="5.63131">
        <ele>703</ele>
        <time>2019-03-19T15:11:52Z</time>
      </trkpt>
      <trkpt lat="44.23365" lon="5.63132">
        <ele>703</ele>
        <time>2019-03-19T15:11:53Z</time>
      </trkpt>
      <trkpt lat="44.23371" lon="5.63133">
        <ele>703</ele>
        <time>2019-03-19T15:11:54Z</time>
      </trkpt>
      <trkpt lat="44.23377" lon="5.63134">
        <ele>703</ele>
        <time>2019-03-19T15:11:55Z</time>
      </trkpt>
      <trkpt lat="44.23383" lon="5.63135">
        <ele>703</ele>
        <time>2019-03-19T15:11:56Z</time>
      </trkpt>
      <trkpt lat="44.23388" lon="5.63137">
        <ele>703</ele>
        <time>2019-03-19T15:11:57Z</time>
      </trkpt>
      <trkpt lat="44.23394" lon="5.63138">
        <ele>703</ele>
        <time>2019-03-19T15:11:58Z</time>
      </trkpt>
      <trkpt lat="44.234" lon="5.6314">
        <ele>703</ele>
        <time>2019-03-19T15:11:59Z</time>
      </trkpt>
      <trkpt lat="44.23405" lon="5.63141">
        <ele>703</ele>
        <time>2019-03-19T15:12:00Z</time>
      </trkpt>
      <trkpt lat="44.23411" lon="5.63143">
        <ele>703</ele>
        <time>2019-03-19T15:12:01Z</time>
      </trkpt>
      <trkpt lat="44.23417" lon="5.63144">
        <ele>703</ele>
        <time>2019-03-19T15:12:02Z</time>
      </trkpt>
      <trkpt lat="44.23423" lon="5.63146">
        <ele>703</ele>
        <time>2019-03-19T15:12:03Z</time>
      </trkpt>
      <trkpt lat="44.23429" lon="5.63147">
        <ele>703</ele>
        <time>2019-03-19T15:12:04Z</time>
      </trkpt>
      <trkpt lat="44.23435" lon="5.63148">
        <ele>703</ele>
        <time>2019-03-19T15:12:05Z</time>
      </trkpt>
      <trkpt lat="44.23441" lon="5.6315">
        <ele>703</ele>
        <time>2019-03-19T15:12:06Z</time>
      </trkpt>
      <trkpt lat="44.23446" lon="5.63151">
        <ele>703</ele>
        <time>2019-03-19T15:12:07Z</time>
      </trkpt>
      <trkpt lat="44.23452" lon="5.63153">
        <ele>703</ele>
        <time>2019-03-19T15:12:08Z</time>
      </trkpt>
      <trkpt lat="44.23457" lon="5.63154">
        <ele>703</ele>
        <time>2019-03-19T15:12:09Z</time>
      </trkpt>
      <trkpt lat="44.23463" lon="5.63156">
        <ele>703</ele>
        <time>2019-03-19T15:12:10Z</time>
      </trkpt>
      <trkpt lat="44.23468" lon="5.63157">
        <ele>703</ele>
        <time>2019-03-19T15:12:11Z</time>
      </trkpt>
      <trkpt lat="44.23473" lon="5.63159">
        <ele>703</ele>
        <time>2019-03-19T15:12:12Z</time>
      </trkpt>
      <trkpt lat="44.23479" lon="5.6316">
        <ele>703</ele>
        <time>2019-03-19T15:12:13Z</time>
      </trkpt>
      <trkpt lat="44.23484" lon="5.63161">
        <ele>703</ele>
        <time>2019-03-19T15:12:14Z</time>
      </trkpt>
      <trkpt lat="44.23489" lon="5.63163">
        <ele>703</ele>
        <time>2019-03-19T15:12:15Z</time>
      </trkpt>
      <trkpt lat="44.23494" lon="5.63164">
        <ele>703</ele>
        <time>2019-03-19T15:12:16Z</time>
      </trkpt>
      <trkpt lat="44.23498" lon="5.63165">
        <ele>703</ele>
        <time>2019-03-19T15:12:17Z</time>
      </trkpt>
      <trkpt lat="44.23503" lon="5.63166">
        <ele>703</ele>
        <time>2019-03-19T15:12:18Z</time>
      </trkpt>
      <trkpt lat="44.23508" lon="5.63167">
        <ele>703</ele>
        <time>2019-03-19T15:12:19Z</time>
      </trkpt>
      <trkpt lat="44.23513" lon="5.63169">
        <ele>703</ele>
        <time>2019-03-19T15:12:20Z</time>
      </trkpt>
      <trkpt lat="44.23518" lon="5.6317">
        <ele>703</ele>
        <time>2019-03-19T15:12:21Z</time>
      </trkpt>
      <trkpt lat="44.23522" lon="5.63172">
        <ele>703</ele>
        <time>2019-03-19T15:12:22Z</time>
      </trkpt>
      <trkpt lat="44.23527" lon="5.63173">
        <ele>703</ele>
        <time>2019-03-19T15:12:23Z</time>
      </trkpt>
      <trkpt lat="44.23532" lon="5.63174">
        <ele>703</ele>
        <time>2019-03-19T15:12:24Z</time>
      </trkpt>
      <trkpt lat="44.23536" lon="5.63175">
        <ele>703</ele>
        <time>2019-03-19T15:12:25Z</time>
      </trkpt>
      <trkpt lat="44.23541" lon="5.63176">
        <ele>703</ele>
        <time>2019-03-19T15:12:26Z</time>
      </trkpt>
      <trkpt lat="44.23547" lon="5.63177">
        <ele>703</ele>
        <time>2019-03-19T15:12:27Z</time>
      </trkpt>
      <trkpt lat="44.23552" lon="5.63179">
        <ele>703</ele>
        <time>2019-03-19T15:12:28Z</time>
      </trkpt>
      <trkpt lat="44.23557" lon="5.6318">
        <ele>703</ele>
        <time>2019-03-19T15:12:29Z</time>
      </trkpt>
      <trkpt lat="44.23563" lon="5.63182">
        <ele>703</ele>
        <time>2019-03-19T15:12:30Z</time>
      </trkpt>
      <trkpt lat="44.23569" lon="5.63183">
        <ele>703</ele>
        <time>2019-03-19T15:12:31Z</time>
      </trkpt>
      <trkpt lat="44.23574" lon="5.63185">
        <ele>703</ele>
        <time>2019-03-19T15:12:32Z</time>
      </trkpt>
      <trkpt lat="44.23581" lon="5.63186">
        <ele>703</ele>
        <time>2019-03-19T15:12:33Z</time>
      </trkpt>
      <trkpt lat="44.23587" lon="5.63187">
        <ele>703</ele>
        <time>2019-03-19T15:12:34Z</time>
      </trkpt>
      <trkpt lat="44.23592" lon="5.63189">
        <ele>703</ele>
        <time>2019-03-19T15:12:35Z</time>
      </trkpt>
      <trkpt lat="44.23599" lon="5.6319">
        <ele>703</ele>
        <time>2019-03-19T15:12:36Z</time>
      </trkpt>
      <trkpt lat="44.23605" lon="5.63192">
        <ele>703</ele>
        <time>2019-03-19T15:12:37Z</time>
      </trkpt>
      <trkpt lat="44.23611" lon="5.63193">
        <ele>703</ele>
        <time>2019-03-19T15:12:38Z</time>
      </trkpt>
      <trkpt lat="44.23618" lon="5.63195">
        <ele>703</ele>
        <time>2019-03-19T15:12:39Z</time>
      </trkpt>
      <trkpt lat="44.23625" lon="5.63197">
        <ele>703</ele>
        <time>2019-03-19T15:12:40Z</time>
      </trkpt>
      <trkpt lat="44.23631" lon="5.63198">
        <ele>703</ele>
        <time>2019-03-19T15:12:41Z</time>
      </trkpt>
      <trkpt lat="44.23638" lon="5.632">
        <ele>703</ele>
        <time>2019-03-19T15:12:42Z</time>
      </trkpt>
      <trkpt lat="44.23645" lon="5.63201">
        <ele>703</ele>
        <time>2019-03-19T15:12:43Z</time>
      </trkpt>
      <trkpt lat="44.23651" lon="5.63202">
        <ele>703</ele>
        <time>2019-03-19T15:12:44Z</time>
      </trkpt>
      <trkpt lat="44.23658" lon="5.63204">
        <ele>703</ele>
        <time>2019-03-19T15:12:45Z</time>
      </trkpt>
      <trkpt lat="44.23664" lon="5.63205">
        <ele>703</ele>
        <time>2019-03-19T15:12:46Z</time>
      </trkpt>
      <trkpt lat="44.23671" lon="5.63207">
        <ele>703</ele>
        <time>2019-03-19T15:12:47Z</time>
      </trkpt>
      <trkpt lat="44.23677" lon="5.63208">
        <ele>703</ele>
        <time>2019-03-19T15:12:48Z</time>
      </trkpt>
      <trkpt lat="44.23682" lon="5.63209">
        <ele>703</ele>
        <time>2019-03-19T15:12:49Z</time>
      </trkpt>
      <trkpt lat="44.23688" lon="5.63211">
        <ele>703</ele>
        <time>2019-03-19T15:12:50Z</time>
      </trkpt>
      <trkpt lat="44.23693" lon="5.63212">
        <ele>703</ele>
        <time>2019-03-19T15:12:51Z</time>
      </trkpt>
      <trkpt lat="44.23699" lon="5.63214">
        <ele>703</ele>
        <time>2019-03-19T15:12:52Z</time>
      </trkpt>
      <trkpt lat="44.23705" lon="5.63216">
        <ele>703</ele>
        <time>2019-03-19T15:12:53Z</time>
      </trkpt>
      <trkpt lat="44.2371" lon="5.63218">
        <ele>703</ele>
        <time>2019-03-19T15:12:54Z</time>
      </trkpt>
      <trkpt lat="44.23715" lon="5.6322">
        <ele>703</ele>
        <time>2019-03-19T15:12:55Z</time>
      </trkpt>
      <trkpt lat="44.23721" lon="5.63222">
        <ele>703</ele>
        <time>2019-03-19T15:12:56Z</time>
      </trkpt>
      <trkpt lat="44.23726" lon="5.63225">
        <ele>703</ele>
        <time>2019-03-19T15:12:57Z</time>
      </trkpt>
      <trkpt lat="44.23732" lon="5.63228">
        <ele>703</ele>
        <time>2019-03-19T15:12:58Z</time>
      </trkpt>
      <trkpt lat="44.23738" lon="5.63231">
        <ele>703</ele>
        <time>2019-03-19T15:12:59Z</time>
      </trkpt>
      <trkpt lat="44.23743" lon="5.63234">
        <ele>703</ele>
        <time>2019-03-19T15:13:00Z</time>
      </trkpt>
      <trkpt lat="44.23749" lon="5.63237">
        <ele>703</ele>
        <time>2019-03-19T15:13:01Z</time>
      </trkpt>
      <trkpt lat="44.23755" lon="5.6324">
        <ele>703</ele>
        <time>2019-03-19T15:13:02Z</time>
      </trkpt>
      <trkpt lat="44.23761" lon="5.63244">
        <ele>703</ele>
        <time>2019-03-19T15:13:03Z</time>
      </trkpt>
      <trkpt lat="44.23766" lon="5.63248">
        <ele>703</ele>
        <time>2019-03-19T15:13:04Z</time>
      </trkpt>
      <trkpt lat="44.23772" lon="5.63252">
        <ele>703</ele>
        <time>2019-03-19T15:13:05Z</time>
      </trkpt>
      <trkpt lat="44.23778" lon="5.63257">
        <ele>703</ele>
        <time>2019-03-19T15:13:06Z</time>
      </trkpt>
      <trkpt lat="44.23784" lon="5.63262">
        <ele>703</ele>
        <time>2019-03-19T15:13:07Z</time>
      </trkpt>
      <trkpt lat="44.2379" lon="5.63267">
        <ele>703</ele>
        <time>2019-03-19T15:13:08Z</time>
      </trkpt>
      <trkpt lat="44.23796" lon="5.63272">
        <ele>703</ele>
        <time>2019-03-19T15:13:09Z</time>
      </trkpt>
      <trkpt lat="44.23801" lon="5.63277">
        <ele>703</ele>
        <time>2019-03-19T15:13:10Z</time>
      </trkpt>
      <trkpt lat="44.23807" lon="5.63283">
        <ele>703</ele>
        <time>2019-03-19T15:13:11Z</time>
      </trkpt>
      <trkpt lat="44.23812" lon="5.63288">
        <ele>703</ele>
        <time>2019-03-19T15:13:12Z</time>
      </trkpt>
      <trkpt lat="44.23817" lon="5.63293">
        <ele>703</ele>
        <time>2019-03-19T15:13:13Z</time>
      </trkpt>
      <trkpt lat="44.23822" lon="5.63299">
        <ele>703</ele>
        <time>2019-03-19T15:13:14Z</time>
      </trkpt>
      <trkpt lat="44.23827" lon="5.63304">
        <ele>703</ele>
        <time>2019-03-19T15:13:15Z</time>
      </trkpt>
      <trkpt lat="44.23832" lon="5.6331">
        <ele>703</ele>
        <time>2019-03-19T15:13:16Z</time>
      </trkpt>
      <trkpt lat="44.23837" lon="5.63315">
        <ele>703</ele>
        <time>2019-03-19T15:13:17Z</time>
      </trkpt>
      <trkpt lat="44.23842" lon="5.6332">
        <ele>703</ele>
        <time>2019-03-19T15:13:18Z</time>
      </trkpt>
      <trkpt lat="44.23846" lon="5.63326">
        <ele>703</ele>
        <time>2019-03-19T15:13:19Z</time>
      </trkpt>
      <trkpt lat="44.23851" lon="5.6333">
        <ele>703</ele>
        <time>2019-03-19T15:13:20Z</time>
      </trkpt>
      <trkpt lat="44.23856" lon="5.63336">
        <ele>703</ele>
        <time>2019-03-19T15:13:21Z</time>
      </trkpt>
      <trkpt lat="44.23861" lon="5.63341">
        <ele>703</ele>
        <time>2019-03-19T15:13:22Z</time>
      </trkpt>
      <trkpt lat="44.23865" lon="5.63346">
        <ele>703</ele>
        <time>2019-03-19T15:13:23Z</time>
      </trkpt>
      <trkpt lat="44.2387" lon="5.63351">
        <ele>703</ele>
        <time>2019-03-19T15:13:24Z</time>
      </trkpt>
      <trkpt lat="44.23875" lon="5.63356">
        <ele>703</ele>
        <time>2019-03-19T15:13:25Z</time>
      </trkpt>
      <trkpt lat="44.23879" lon="5.63361">
        <ele>703</ele>
        <time>2019-03-19T15:13:26Z</time>
      </trkpt>
      <trkpt lat="44.23884" lon="5.63366">
        <ele>703</ele>
        <time>2019-03-19T15:13:27Z</time>
      </trkpt>
      <trkpt lat="44.23889" lon="5.63371">
        <ele>703</ele>
        <time>2019-03-19T15:13:28Z</time>
      </trkpt>
      <trkpt lat="44.23893" lon="5.63376">
        <ele>703</ele>
        <time>2019-03-19T15:13:29Z</time>
      </trkpt>
      <trkpt lat="44.23898" lon="5.63381">
        <ele>703</ele>
        <time>2019-03-19T15:13:30Z</time>
      </trkpt>
      <trkpt lat="44.23903" lon="5.63386">
        <ele>703</ele>
        <time>2019-03-19T15:13:31Z</time>
      </trkpt>
      <trkpt lat="44.23908" lon="5.63391">
        <ele>703</ele>
        <time>2019-03-19T15:13:32Z</time>
      </trkpt>
      <trkpt lat="44.23913" lon="5.63396">
        <ele>703</ele>
        <time>2019-03-19T15:13:33Z</time>
      </trkpt>
      <trkpt lat="44.23918" lon="5.63401">
        <ele>703</ele>
        <time>2019-03-19T15:13:34Z</time>
      </trkpt>
      <trkpt lat="44.23922" lon="5.63406">
        <ele>703</ele>
        <time>2019-03-19T15:13:35Z</time>
      </trkpt>
      <trkpt lat="44.23927" lon="5.63412">
        <ele>703</ele>
        <time>2019-03-19T15:13:36Z</time>
      </trkpt>
      <trkpt lat="44.23932" lon="5.63417">
        <ele>703</ele>
        <time>2019-03-19T15:13:37Z</time>
      </trkpt>
      <trkpt lat="44.23937" lon="5.63422">
        <ele>703</ele>
        <time>2019-03-19T15:13:38Z</time>
      </trkpt>
      <trkpt lat="44.23942" lon="5.63427">
        <ele>703</ele>
        <time>2019-03-19T15:13:39Z</time>
      </trkpt>
      <trkpt lat="44.23947" lon="5.63432">
        <ele>703</ele>
        <time>2019-03-19T15:13:40Z</time>
      </trkpt>
      <trkpt lat="44.23952" lon="5.63437">
        <ele>702</ele>
        <time>2019-03-19T15:13:41Z</time>
      </trkpt>
      <trkpt lat="44.23957" lon="5.63443">
        <ele>702</ele>
        <time>2019-03-19T15:13:42Z</time>
      </trkpt>
      <trkpt lat="44.23962" lon="5.63448">
        <ele>702</ele>
        <time>2019-03-19T15:13:43Z</time>
      </trkpt>
      <trkpt lat="44.23967" lon="5.63453">
        <ele>702</ele>
        <time>2019-03-19T15:13:44Z</time>
      </trkpt>
      <trkpt lat="44.23972" lon="5.63458">
        <ele>702</ele>
        <time>2019-03-19T15:13:45Z</time>
      </trkpt>
      <trkpt lat="44.23978" lon="5.63463">
        <ele>702</ele>
        <time>2019-03-19T15:13:46Z</time>
      </trkpt>
      <trkpt lat="44.23983" lon="5.63469">
        <ele>702</ele>
        <time>2019-03-19T15:13:47Z</time>
      </trkpt>
      <trkpt lat="44.23988" lon="5.63474">
        <ele>702</ele>
        <time>2019-03-19T15:13:48Z</time>
      </trkpt>
      <trkpt lat="44.23993" lon="5.63479">
        <ele>702</ele>
        <time>2019-03-19T15:13:49Z</time>
      </trkpt>
      <trkpt lat="44.23998" lon="5.63484">
        <ele>702</ele>
        <time>2019-03-19T15:13:50Z</time>
      </trkpt>
      <trkpt lat="44.24003" lon="5.63489">
        <ele>702</ele>
        <time>2019-03-19T15:13:51Z</time>
      </trkpt>
      <trkpt lat="44.24008" lon="5.63494">
        <ele>702</ele>
        <time>2019-03-19T15:13:52Z</time>
      </trkpt>
      <trkpt lat="44.24013" lon="5.635">
        <ele>702</ele>
        <time>2019-03-19T15:13:53Z</time>
      </trkpt>
      <trkpt lat="44.24018" lon="5.63505">
        <ele>702</ele>
        <time>2019-03-19T15:13:54Z</time>
      </trkpt>
      <trkpt lat="44.24023" lon="5.6351">
        <ele>702</ele>
        <time>2019-03-19T15:13:55Z</time>
      </trkpt>
      <trkpt lat="44.24028" lon="5.63515">
        <ele>702</ele>
        <time>2019-03-19T15:13:56Z</time>
      </trkpt>
      <trkpt lat="44.24033" lon="5.6352">
        <ele>701</ele>
        <time>2019-03-19T15:13:57Z</time>
      </trkpt>
      <trkpt lat="44.24038" lon="5.63525">
        <ele>701</ele>
        <time>2019-03-19T15:13:58Z</time>
      </trkpt>
      <trkpt lat="44.24042" lon="5.6353">
        <ele>701</ele>
        <time>2019-03-19T15:13:59Z</time>
      </trkpt>
      <trkpt lat="44.24047" lon="5.63535">
        <ele>701</ele>
        <time>2019-03-19T15:14:00Z</time>
      </trkpt>
      <trkpt lat="44.24052" lon="5.6354">
        <ele>701</ele>
        <time>2019-03-19T15:14:01Z</time>
      </trkpt>
      <trkpt lat="44.24057" lon="5.63545">
        <ele>701</ele>
        <time>2019-03-19T15:14:02Z</time>
      </trkpt>
      <trkpt lat="44.24062" lon="5.6355">
        <ele>701</ele>
        <time>2019-03-19T15:14:03Z</time>
      </trkpt>
      <trkpt lat="44.24067" lon="5.63555">
        <ele>701</ele>
        <time>2019-03-19T15:14:04Z</time>
      </trkpt>
      <trkpt lat="44.24071" lon="5.6356">
        <ele>701</ele>
        <time>2019-03-19T15:14:05Z</time>
      </trkpt>
      <trkpt lat="44.24076" lon="5.63565">
        <ele>701</ele>
        <time>2019-03-19T15:14:06Z</time>
      </trkpt>
      <trkpt lat="44.24081" lon="5.63569">
        <ele>701</ele>
        <time>2019-03-19T15:14:07Z</time>
      </trkpt>
      <trkpt lat="44.24085" lon="5.63574">
        <ele>701</ele>
        <time>2019-03-19T15:14:08Z</time>
      </trkpt>
      <trkpt lat="44.24089" lon="5.63579">
        <ele>701</ele>
        <time>2019-03-19T15:14:09Z</time>
      </trkpt>
      <trkpt lat="44.24094" lon="5.63583">
        <ele>701</ele>
        <time>2019-03-19T15:14:10Z</time>
      </trkpt>
      <trkpt lat="44.24098" lon="5.63588">
        <ele>701</ele>
        <time>2019-03-19T15:14:11Z</time>
      </trkpt>
      <trkpt lat="44.24102" lon="5.63592">
        <ele>701</ele>
        <time>2019-03-19T15:14:12Z</time>
      </trkpt>
      <trkpt lat="44.24106" lon="5.63597">
        <ele>701</ele>
        <time>2019-03-19T15:14:13Z</time>
      </trkpt>
      <trkpt lat="44.2411" lon="5.63602">
        <ele>701</ele>
        <time>2019-03-19T15:14:14Z</time>
      </trkpt>
      <trkpt lat="44.24113" lon="5.63607">
        <ele>701</ele>
        <time>2019-03-19T15:14:15Z</time>
      </trkpt>
      <trkpt lat="44.24117" lon="5.63613">
        <ele>701</ele>
        <time>2019-03-19T15:14:16Z</time>
      </trkpt>
      <trkpt lat="44.24121" lon="5.63619">
        <ele>701</ele>
        <time>2019-03-19T15:14:17Z</time>
      </trkpt>
      <trkpt lat="44.24124" lon="5.63624">
        <ele>701</ele>
        <time>2019-03-19T15:14:18Z</time>
      </trkpt>
      <trkpt lat="44.24128" lon="5.6363">
        <ele>701</ele>
        <time>2019-03-19T15:14:19Z</time>
      </trkpt>
      <trkpt lat="44.24131" lon="5.63637">
        <ele>701</ele>
        <time>2019-03-19T15:14:20Z</time>
      </trkpt>
      <trkpt lat="44.24134" lon="5.63644">
        <ele>701</ele>
        <time>2019-03-19T15:14:21Z</time>
      </trkpt>
      <trkpt lat="44.24137" lon="5.63651">
        <ele>701</ele>
        <time>2019-03-19T15:14:22Z</time>
      </trkpt>
      <trkpt lat="44.2414" lon="5.63658">
        <ele>701</ele>
        <time>2019-03-19T15:14:23Z</time>
      </trkpt>
      <trkpt lat="44.24142" lon="5.63665">
        <ele>701</ele>
        <time>2019-03-19T15:14:24Z</time>
      </trkpt>
      <trkpt lat="44.24145" lon="5.63672">
        <ele>701</ele>
        <time>2019-03-19T15:14:25Z</time>
      </trkpt>
      <trkpt lat="44.24147" lon="5.63679">
        <ele>701</ele>
        <time>2019-03-19T15:14:26Z</time>
      </trkpt>
      <trkpt lat="44.2415" lon="5.63686">
        <ele>701</ele>
        <time>2019-03-19T15:14:27Z</time>
      </trkpt>
      <trkpt lat="44.24152" lon="5.63693">
        <ele>701</ele>
        <time>2019-03-19T15:14:28Z</time>
      </trkpt>
      <trkpt lat="44.24155" lon="5.63699">
        <ele>701</ele>
        <time>2019-03-19T15:14:29Z</time>
      </trkpt>
      <trkpt lat="44.24157" lon="5.63706">
        <ele>701</ele>
        <time>2019-03-19T15:14:30Z</time>
      </trkpt>
      <trkpt lat="44.2416" lon="5.63713">
        <ele>701</ele>
        <time>2019-03-19T15:14:31Z</time>
      </trkpt>
      <trkpt lat="44.24162" lon="5.6372">
        <ele>701</ele>
        <time>2019-03-19T15:14:32Z</time>
      </trkpt>
      <trkpt lat="44.24165" lon="5.63727">
        <ele>701</ele>
        <time>2019-03-19T15:14:33Z</time>
      </trkpt>
      <trkpt lat="44.24168" lon="5.63734">
        <ele>701</ele>
        <time>2019-03-19T15:14:34Z</time>
      </trkpt>
      <trkpt lat="44.24171" lon="5.63742">
        <ele>701</ele>
        <time>2019-03-19T15:14:35Z</time>
      </trkpt>
      <trkpt lat="44.24173" lon="5.6375">
        <ele>701</ele>
        <time>2019-03-19T15:14:36Z</time>
      </trkpt>
      <trkpt lat="44.24176" lon="5.63758">
        <ele>701</ele>
        <time>2019-03-19T15:14:37Z</time>
      </trkpt>
      <trkpt lat="44.24179" lon="5.63765">
        <ele>701</ele>
        <time>2019-03-19T15:14:38Z</time>
      </trkpt>
      <trkpt lat="44.24182" lon="5.63773">
        <ele>701</ele>
        <time>2019-03-19T15:14:39Z</time>
      </trkpt>
      <trkpt lat="44.24185" lon="5.63781">
        <ele>701</ele>
        <time>2019-03-19T15:14:40Z</time>
      </trkpt>
      <trkpt lat="44.24188" lon="5.63789">
        <ele>701</ele>
        <time>2019-03-19T15:14:41Z</time>
      </trkpt>
      <trkpt lat="44.2419" lon="5.63797">
        <ele>701</ele>
        <time>2019-03-19T15:14:42Z</time>
      </trkpt>
      <trkpt lat="44.24192" lon="5.63804">
        <ele>701</ele>
        <time>2019-03-19T15:14:43Z</time>
      </trkpt>
      <trkpt lat="44.24194" lon="5.63812">
        <ele>701</ele>
        <time>2019-03-19T15:14:44Z</time>
      </trkpt>
      <trkpt lat="44.24196" lon="5.63821">
        <ele>700</ele>
        <time>2019-03-19T15:14:45Z</time>
      </trkpt>
      <trkpt lat="44.24197" lon="5.63829">
        <ele>700</ele>
        <time>2019-03-19T15:14:46Z</time>
      </trkpt>
      <trkpt lat="44.24198" lon="5.63838">
        <ele>700</ele>
        <time>2019-03-19T15:14:47Z</time>
      </trkpt>
      <trkpt lat="44.24198" lon="5.63846">
        <ele>700</ele>
        <time>2019-03-19T15:14:48Z</time>
      </trkpt>
      <trkpt lat="44.24198" lon="5.63855">
        <ele>699</ele>
        <time>2019-03-19T15:14:49Z</time>
      </trkpt>
      <trkpt lat="44.24197" lon="5.63864">
        <ele>699</ele>
        <time>2019-03-19T15:14:50Z</time>
      </trkpt>
      <trkpt lat="44.24195" lon="5.63873">
        <ele>699</ele>
        <time>2019-03-19T15:14:51Z</time>
      </trkpt>
      <trkpt lat="44.24193" lon="5.6388">
        <ele>699</ele>
        <time>2019-03-19T15:14:52Z</time>
      </trkpt>
      <trkpt lat="44.24191" lon="5.63887">
        <ele>699</ele>
        <time>2019-03-19T15:14:53Z</time>
      </trkpt>
      <trkpt lat="44.24188" lon="5.63895">
        <ele>699</ele>
        <time>2019-03-19T15:14:54Z</time>
      </trkpt>
      <trkpt lat="44.24185" lon="5.63901">
        <ele>698</ele>
        <time>2019-03-19T15:14:55Z</time>
      </trkpt>
      <trkpt lat="44.24181" lon="5.63907">
        <ele>698</ele>
        <time>2019-03-19T15:14:56Z</time>
      </trkpt>
      <trkpt lat="44.24178" lon="5.63914">
        <ele>698</ele>
        <time>2019-03-19T15:14:57Z</time>
      </trkpt>
      <trkpt lat="44.24174" lon="5.6392">
        <ele>698</ele>
        <time>2019-03-19T15:14:58Z</time>
      </trkpt>
      <trkpt lat="44.24169" lon="5.63926">
        <ele>697</ele>
        <time>2019-03-19T15:14:59Z</time>
      </trkpt>
      <trkpt lat="44.24164" lon="5.63933">
        <ele>697</ele>
        <time>2019-03-19T15:15:00Z</time>
      </trkpt>
      <trkpt lat="44.24159" lon="5.63939">
        <ele>697</ele>
        <time>2019-03-19T15:15:01Z</time>
      </trkpt>
      <trkpt lat="44.24155" lon="5.63945">
        <ele>697</ele>
        <time>2019-03-19T15:15:02Z</time>
      </trkpt>
      <trkpt lat="44.24151" lon="5.63951">
        <ele>697</ele>
        <time>2019-03-19T15:15:03Z</time>
      </trkpt>
      <trkpt lat="44.24147" lon="5.63958">
        <ele>697</ele>
        <time>2019-03-19T15:15:04Z</time>
      </trkpt>
      <trkpt lat="44.24142" lon="5.63964">
        <ele>697</ele>
        <time>2019-03-19T15:15:05Z</time>
      </trkpt>
      <trkpt lat="44.24138" lon="5.63971">
        <ele>697</ele>
        <time>2019-03-19T15:15:06Z</time>
      </trkpt>
      <trkpt lat="44.24133" lon="5.63978">
        <ele>697</ele>
        <time>2019-03-19T15:15:07Z</time>
      </trkpt>
      <trkpt lat="44.24128" lon="5.63985">
        <ele>697</ele>
        <time>2019-03-19T15:15:08Z</time>
      </trkpt>
      <trkpt lat="44.24124" lon="5.63993">
        <ele>697</ele>
        <time>2019-03-19T15:15:09Z</time>
      </trkpt>
      <trkpt lat="44.2412" lon="5.64001">
        <ele>697</ele>
        <time>2019-03-19T15:15:10Z</time>
      </trkpt>
      <trkpt lat="44.24117" lon="5.64009">
        <ele>697</ele>
        <time>2019-03-19T15:15:11Z</time>
      </trkpt>
      <trkpt lat="44.24114" lon="5.64017">
        <ele>697</ele>
        <time>2019-03-19T15:15:12Z</time>
      </trkpt>
      <trkpt lat="44.24111" lon="5.64025">
        <ele>697</ele>
        <time>2019-03-19T15:15:13Z</time>
      </trkpt>
      <trkpt lat="44.24108" lon="5.64033">
        <ele>696</ele>
        <time>2019-03-19T15:15:14Z</time>
      </trkpt>
      <trkpt lat="44.24105" lon="5.64042">
        <ele>696</ele>
        <time>2019-03-19T15:15:15Z</time>
      </trkpt>
      <trkpt lat="44.24102" lon="5.6405">
        <ele>696</ele>
        <time>2019-03-19T15:15:16Z</time>
      </trkpt>
      <trkpt lat="44.24099" lon="5.64059">
        <ele>695</ele>
        <time>2019-03-19T15:15:17Z</time>
      </trkpt>
      <trkpt lat="44.24097" lon="5.64067">
        <ele>695</ele>
        <time>2019-03-19T15:15:18Z</time>
      </trkpt>
      <trkpt lat="44.24094" lon="5.64075">
        <ele>694</ele>
        <time>2019-03-19T15:15:19Z</time>
      </trkpt>
      <trkpt lat="44.24091" lon="5.64084">
        <ele>694</ele>
        <time>2019-03-19T15:15:20Z</time>
      </trkpt>
      <trkpt lat="44.24088" lon="5.64092">
        <ele>693</ele>
        <time>2019-03-19T15:15:21Z</time>
      </trkpt>
      <trkpt lat="44.24085" lon="5.641">
        <ele>693</ele>
        <time>2019-03-19T15:15:22Z</time>
      </trkpt>
      <trkpt lat="44.24082" lon="5.64108">
        <ele>693</ele>
        <time>2019-03-19T15:15:23Z</time>
      </trkpt>
      <trkpt lat="44.2408" lon="5.64116">
        <ele>692</ele>
        <time>2019-03-19T15:15:24Z</time>
      </trkpt>
      <trkpt lat="44.24076" lon="5.64124">
        <ele>692</ele>
        <time>2019-03-19T15:15:25Z</time>
      </trkpt>
      <trkpt lat="44.24073" lon="5.64132">
        <ele>691</ele>
        <time>2019-03-19T15:15:26Z</time>
      </trkpt>
      <trkpt lat="44.24071" lon="5.6414">
        <ele>691</ele>
        <time>2019-03-19T15:15:27Z</time>
      </trkpt>
      <trkpt lat="44.24067" lon="5.64148">
        <ele>691</ele>
        <time>2019-03-19T15:15:28Z</time>
      </trkpt>
      <trkpt lat="44.24064" lon="5.64155">
        <ele>691</ele>
        <time>2019-03-19T15:15:29Z</time>
      </trkpt>
      <trkpt lat="44.2406" lon="5.64162">
        <ele>691</ele>
        <time>2019-03-19T15:15:30Z</time>
      </trkpt>
      <trkpt lat="44.24057" lon="5.64169">
        <ele>691</ele>
        <time>2019-03-19T15:15:31Z</time>
      </trkpt>
      <trkpt lat="44.24053" lon="5.64175">
        <ele>691</ele>
        <time>2019-03-19T15:15:32Z</time>
      </trkpt>
      <trkpt lat="44.2405" lon="5.64182">
        <ele>691</ele>
        <time>2019-03-19T15:15:33Z</time>
      </trkpt>
      <trkpt lat="44.24046" lon="5.64188">
        <ele>691</ele>
        <time>2019-03-19T15:15:34Z</time>
      </trkpt>
      <trkpt lat="44.24043" lon="5.64195">
        <ele>691</ele>
        <time>2019-03-19T15:15:35Z</time>
      </trkpt>
      <trkpt lat="44.24039" lon="5.64202">
        <ele>691</ele>
        <time>2019-03-19T15:15:36Z</time>
      </trkpt>
      <trkpt lat="44.24036" lon="5.64209">
        <ele>691</ele>
        <time>2019-03-19T15:15:37Z</time>
      </trkpt>
      <trkpt lat="44.24033" lon="5.64217">
        <ele>691</ele>
        <time>2019-03-19T15:15:38Z</time>
      </trkpt>
      <trkpt lat="44.24031" lon="5.64224">
        <ele>691</ele>
        <time>2019-03-19T15:15:39Z</time>
      </trkpt>
      <trkpt lat="44.24029" lon="5.64232">
        <ele>691</ele>
        <time>2019-03-19T15:15:40Z</time>
      </trkpt>
      <trkpt lat="44.24027" lon="5.6424">
        <ele>691</ele>
        <time>2019-03-19T15:15:41Z</time>
      </trkpt>
      <trkpt lat="44.24026" lon="5.64249">
        <ele>691</ele>
        <time>2019-03-19T15:15:42Z</time>
      </trkpt>
      <trkpt lat="44.24026" lon="5.64257">
        <ele>691</ele>
        <time>2019-03-19T15:15:43Z</time>
      </trkpt>
      <trkpt lat="44.24027" lon="5.64266">
        <ele>691</ele>
        <time>2019-03-19T15:15:44Z</time>
      </trkpt>
      <trkpt lat="44.24028" lon="5.64274">
        <ele>691</ele>
        <time>2019-03-19T15:15:45Z</time>
      </trkpt>
      <trkpt lat="44.24029" lon="5.64283">
        <ele>691</ele>
        <time>2019-03-19T15:15:46Z</time>
      </trkpt>
      <trkpt lat="44.24031" lon="5.64291">
        <ele>691</ele>
        <time>2019-03-19T15:15:47Z</time>
      </trkpt>
      <trkpt lat="44.24032" lon="5.643">
        <ele>691</ele>
        <time>2019-03-19T15:15:48Z</time>
      </trkpt>
      <trkpt lat="44.24034" lon="5.64308">
        <ele>691</ele>
        <time>2019-03-19T15:15:49Z</time>
      </trkpt>
      <trkpt lat="44.24036" lon="5.64316">
        <ele>692</ele>
        <time>2019-03-19T15:15:50Z</time>
      </trkpt>
      <trkpt lat="44.24038" lon="5.64324">
        <ele>692</ele>
        <time>2019-03-19T15:15:51Z</time>
      </trkpt>
      <trkpt lat="44.24041" lon="5.64332">
        <ele>692</ele>
        <time>2019-03-19T15:15:52Z</time>
      </trkpt>
      <trkpt lat="44.24043" lon="5.6434">
        <ele>693</ele>
        <time>2019-03-19T15:15:53Z</time>
      </trkpt>
      <trkpt lat="44.24045" lon="5.64348">
        <ele>693</ele>
        <time>2019-03-19T15:15:54Z</time>
      </trkpt>
      <trkpt lat="44.24047" lon="5.64357">
        <ele>693</ele>
        <time>2019-03-19T15:15:55Z</time>
      </trkpt>
      <trkpt lat="44.2405" lon="5.64364">
        <ele>693</ele>
        <time>2019-03-19T15:15:56Z</time>
      </trkpt>
      <trkpt lat="44.24052" lon="5.64372">
        <ele>693</ele>
        <time>2019-03-19T15:15:57Z</time>
      </trkpt>
      <trkpt lat="44.24055" lon="5.64381">
        <ele>694</ele>
        <time>2019-03-19T15:15:58Z</time>
      </trkpt>
      <trkpt lat="44.24058" lon="5.64388">
        <ele>694</ele>
        <time>2019-03-19T15:15:59Z</time>
      </trkpt>
      <trkpt lat="44.24061" lon="5.64396">
        <ele>694</ele>
        <time>2019-03-19T15:16:00Z</time>
      </trkpt>
      <trkpt lat="44.24065" lon="5.64402">
        <ele>694</ele>
        <time>2019-03-19T15:16:01Z</time>
      </trkpt>
      <trkpt lat="44.24069" lon="5.64409">
        <ele>694</ele>
        <time>2019-03-19T15:16:02Z</time>
      </trkpt>
      <trkpt lat="44.24073" lon="5.64416">
        <ele>694</ele>
        <time>2019-03-19T15:16:03Z</time>
      </trkpt>
      <trkpt lat="44.24077" lon="5.64423">
        <ele>694</ele>
        <time>2019-03-19T15:16:04Z</time>
      </trkpt>
      <trkpt lat="44.24081" lon="5.64429">
        <ele>694</ele>
        <time>2019-03-19T15:16:05Z</time>
      </trkpt>
      <trkpt lat="44.24086" lon="5.64435">
        <ele>694</ele>
        <time>2019-03-19T15:16:06Z</time>
      </trkpt>
      <trkpt lat="44.2409" lon="5.64441">
        <ele>694</ele>
        <time>2019-03-19T15:16:07Z</time>
      </trkpt>
      <trkpt lat="44.24095" lon="5.64447">
        <ele>694</ele>
        <time>2019-03-19T15:16:08Z</time>
      </trkpt>
      <trkpt lat="44.241" lon="5.64453">
        <ele>694</ele>
        <time>2019-03-19T15:16:09Z</time>
      </trkpt>
      <trkpt lat="44.24105" lon="5.64458">
        <ele>694</ele>
        <time>2019-03-19T15:16:10Z</time>
      </trkpt>
      <trkpt lat="44.2411" lon="5.64463">
        <ele>694</ele>
        <time>2019-03-19T15:16:11Z</time>
      </trkpt>
      <trkpt lat="44.24115" lon="5.64468">
        <ele>694</ele>
        <time>2019-03-19T15:16:12Z</time>
      </trkpt>
      <trkpt lat="44.2412" lon="5.64473">
        <ele>694</ele>
        <time>2019-03-19T15:16:13Z</time>
      </trkpt>
      <trkpt lat="44.24125" lon="5.64478">
        <ele>694</ele>
        <time>2019-03-19T15:16:14Z</time>
      </trkpt>
      <trkpt lat="44.2413" lon="5.64484">
        <ele>694</ele>
        <time>2019-03-19T15:16:15Z</time>
      </trkpt>
      <trkpt lat="44.24135" lon="5.6449">
        <ele>694</ele>
        <time>2019-03-19T15:16:16Z</time>
      </trkpt>
      <trkpt lat="44.2414" lon="5.64496">
        <ele>694</ele>
        <time>2019-03-19T15:16:17Z</time>
      </trkpt>
      <trkpt lat="44.24144" lon="5.64502">
        <ele>694</ele>
        <time>2019-03-19T15:16:18Z</time>
      </trkpt>
      <trkpt lat="44.24149" lon="5.64509">
        <ele>694</ele>
        <time>2019-03-19T15:16:19Z</time>
      </trkpt>
      <trkpt lat="44.24153" lon="5.64515">
        <ele>694</ele>
        <time>2019-03-19T15:16:20Z</time>
      </trkpt>
      <trkpt lat="44.24158" lon="5.64522">
        <ele>694</ele>
        <time>2019-03-19T15:16:21Z</time>
      </trkpt>
      <trkpt lat="44.24163" lon="5.64528">
        <ele>694</ele>
        <time>2019-03-19T15:16:22Z</time>
      </trkpt>
      <trkpt lat="44.24168" lon="5.64534">
        <ele>694</ele>
        <time>2019-03-19T15:16:23Z</time>
      </trkpt>
      <trkpt lat="44.24172" lon="5.64539">
        <ele>694</ele>
        <time>2019-03-19T15:16:24Z</time>
      </trkpt>
      <trkpt lat="44.24178" lon="5.64546">
        <ele>694</ele>
        <time>2019-03-19T15:16:25Z</time>
      </trkpt>
      <trkpt lat="44.24182" lon="5.64552">
        <ele>694</ele>
        <time>2019-03-19T15:16:26Z</time>
      </trkpt>
      <trkpt lat="44.24186" lon="5.64559">
        <ele>694</ele>
        <time>2019-03-19T15:16:27Z</time>
      </trkpt>
      <trkpt lat="44.24192" lon="5.64565">
        <ele>694</ele>
        <time>2019-03-19T15:16:28Z</time>
      </trkpt>
      <trkpt lat="44.24196" lon="5.64572">
        <ele>694</ele>
        <time>2019-03-19T15:16:29Z</time>
      </trkpt>
      <trkpt lat="44.24201" lon="5.64579">
        <ele>694</ele>
        <time>2019-03-19T15:16:30Z</time>
      </trkpt>
      <trkpt lat="44.24205" lon="5.64587">
        <ele>694</ele>
        <time>2019-03-19T15:16:31Z</time>
      </trkpt>
      <trkpt lat="44.24209" lon="5.64595">
        <ele>694</ele>
        <time>2019-03-19T15:16:32Z</time>
      </trkpt>
      <trkpt lat="44.24212" lon="5.64603">
        <ele>694</ele>
        <time>2019-03-19T15:16:33Z</time>
      </trkpt>
      <trkpt lat="44.24215" lon="5.64611">
        <ele>694</ele>
        <time>2019-03-19T15:16:34Z</time>
      </trkpt>
      <trkpt lat="44.24219" lon="5.64619">
        <ele>694</ele>
        <time>2019-03-19T15:16:35Z</time>
      </trkpt>
      <trkpt lat="44.24222" lon="5.64627">
        <ele>694</ele>
        <time>2019-03-19T15:16:36Z</time>
      </trkpt>
      <trkpt lat="44.24225" lon="5.64635">
        <ele>694</ele>
        <time>2019-03-19T15:16:37Z</time>
      </trkpt>
      <trkpt lat="44.24228" lon="5.64642">
        <ele>694</ele>
        <time>2019-03-19T15:16:38Z</time>
      </trkpt>
      <trkpt lat="44.24231" lon="5.6465">
        <ele>694</ele>
        <time>2019-03-19T15:16:39Z</time>
      </trkpt>
      <trkpt lat="44.24234" lon="5.64658">
        <ele>694</ele>
        <time>2019-03-19T15:16:40Z</time>
      </trkpt>
      <trkpt lat="44.24237" lon="5.64666">
        <ele>695</ele>
        <time>2019-03-19T15:16:41Z</time>
      </trkpt>
      <trkpt lat="44.2424" lon="5.64674">
        <ele>695</ele>
        <time>2019-03-19T15:16:42Z</time>
      </trkpt>
      <trkpt lat="44.24244" lon="5.64682">
        <ele>695</ele>
        <time>2019-03-19T15:16:43Z</time>
      </trkpt>
      <trkpt lat="44.24247" lon="5.64691">
        <ele>695</ele>
        <time>2019-03-19T15:16:44Z</time>
      </trkpt>
      <trkpt lat="44.24249" lon="5.64699">
        <ele>695</ele>
        <time>2019-03-19T15:16:45Z</time>
      </trkpt>
      <trkpt lat="44.2425" lon="5.64708">
        <ele>695</ele>
        <time>2019-03-19T15:16:46Z</time>
      </trkpt>
      <trkpt lat="44.24251" lon="5.64717">
        <ele>695</ele>
        <time>2019-03-19T15:16:47Z</time>
      </trkpt>
      <trkpt lat="44.24252" lon="5.64726">
        <ele>695</ele>
        <time>2019-03-19T15:16:48Z</time>
      </trkpt>
      <trkpt lat="44.24253" lon="5.64735">
        <ele>695</ele>
        <time>2019-03-19T15:16:49Z</time>
      </trkpt>
      <trkpt lat="44.24253" lon="5.64744">
        <ele>695</ele>
        <time>2019-03-19T15:16:50Z</time>
      </trkpt>
      <trkpt lat="44.24253" lon="5.64752">
        <ele>695</ele>
        <time>2019-03-19T15:16:51Z</time>
      </trkpt>
      <trkpt lat="44.24253" lon="5.64761">
        <ele>695</ele>
        <time>2019-03-19T15:16:52Z</time>
      </trkpt>
      <trkpt lat="44.24254" lon="5.6477">
        <ele>695</ele>
        <time>2019-03-19T15:16:53Z</time>
      </trkpt>
      <trkpt lat="44.24255" lon="5.64779">
        <ele>695</ele>
        <time>2019-03-19T15:16:54Z</time>
      </trkpt>
      <trkpt lat="44.24257" lon="5.64787">
        <ele>695</ele>
        <time>2019-03-19T15:16:55Z</time>
      </trkpt>
      <trkpt lat="44.24259" lon="5.64795">
        <ele>695</ele>
        <time>2019-03-19T15:16:56Z</time>
      </trkpt>
      <trkpt lat="44.24262" lon="5.64804">
        <ele>695</ele>
        <time>2019-03-19T15:16:57Z</time>
      </trkpt>
      <trkpt lat="44.24265" lon="5.64812">
        <ele>695</ele>
        <time>2019-03-19T15:16:58Z</time>
      </trkpt>
      <trkpt lat="44.24268" lon="5.6482">
        <ele>695</ele>
        <time>2019-03-19T15:16:59Z</time>
      </trkpt>
      <trkpt lat="44.24272" lon="5.64827">
        <ele>695</ele>
        <time>2019-03-19T15:17:00Z</time>
      </trkpt>
      <trkpt lat="44.24276" lon="5.64834">
        <ele>695</ele>
        <time>2019-03-19T15:17:01Z</time>
      </trkpt>
      <trkpt lat="44.2428" lon="5.64842">
        <ele>695</ele>
        <time>2019-03-19T15:17:02Z</time>
      </trkpt>
      <trkpt lat="44.24284" lon="5.64849">
        <ele>695</ele>
        <time>2019-03-19T15:17:03Z</time>
      </trkpt>
      <trkpt lat="44.24288" lon="5.64855">
        <ele>695</ele>
        <time>2019-03-19T15:17:04Z</time>
      </trkpt>
      <trkpt lat="44.24292" lon="5.64862">
        <ele>695</ele>
        <time>2019-03-19T15:17:05Z</time>
      </trkpt>
      <trkpt lat="44.24296" lon="5.6487">
        <ele>695</ele>
        <time>2019-03-19T15:17:06Z</time>
      </trkpt>
      <trkpt lat="44.243" lon="5.64878">
        <ele>695</ele>
        <time>2019-03-19T15:17:07Z</time>
      </trkpt>
      <trkpt lat="44.24303" lon="5.64887">
        <ele>695</ele>
        <time>2019-03-19T15:17:08Z</time>
      </trkpt>
      <trkpt lat="44.24306" lon="5.64895">
        <ele>695</ele>
        <time>2019-03-19T15:17:09Z</time>
      </trkpt>
      <trkpt lat="44.24309" lon="5.64904">
        <ele>695</ele>
        <time>2019-03-19T15:17:10Z</time>
      </trkpt>
      <trkpt lat="44.24312" lon="5.64912">
        <ele>695</ele>
        <time>2019-03-19T15:17:11Z</time>
      </trkpt>
      <trkpt lat="44.24315" lon="5.64921">
        <ele>695</ele>
        <time>2019-03-19T15:17:12Z</time>
      </trkpt>
      <trkpt lat="44.24318" lon="5.64929">
        <ele>695</ele>
        <time>2019-03-19T15:17:13Z</time>
      </trkpt>
      <trkpt lat="44.24321" lon="5.64937">
        <ele>695</ele>
        <time>2019-03-19T15:17:14Z</time>
      </trkpt>
      <trkpt lat="44.24324" lon="5.64945">
        <ele>695</ele>
        <time>2019-03-19T15:17:15Z</time>
      </trkpt>
      <trkpt lat="44.24326" lon="5.64953">
        <ele>695</ele>
        <time>2019-03-19T15:17:16Z</time>
      </trkpt>
      <trkpt lat="44.24329" lon="5.64961">
        <ele>695</ele>
        <time>2019-03-19T15:17:17Z</time>
      </trkpt>
      <trkpt lat="44.24332" lon="5.64969">
        <ele>695</ele>
        <time>2019-03-19T15:17:18Z</time>
      </trkpt>
      <trkpt lat="44.24335" lon="5.64977">
        <ele>695</ele>
        <time>2019-03-19T15:17:19Z</time>
      </trkpt>
      <trkpt lat="44.24338" lon="5.64985">
        <ele>695</ele>
        <time>2019-03-19T15:17:20Z</time>
      </trkpt>
      <trkpt lat="44.2434" lon="5.64993">
        <ele>695</ele>
        <time>2019-03-19T15:17:21Z</time>
      </trkpt>
      <trkpt lat="44.24342" lon="5.65001">
        <ele>695</ele>
        <time>2019-03-19T15:17:22Z</time>
      </trkpt>
      <trkpt lat="44.24345" lon="5.6501">
        <ele>695</ele>
        <time>2019-03-19T15:17:23Z</time>
      </trkpt>
      <trkpt lat="44.24347" lon="5.65019">
        <ele>695</ele>
        <time>2019-03-19T15:17:24Z</time>
      </trkpt>
      <trkpt lat="44.24349" lon="5.65027">
        <ele>695</ele>
        <time>2019-03-19T15:17:25Z</time>
      </trkpt>
      <trkpt lat="44.24351" lon="5.65036">
        <ele>695</ele>
        <time>2019-03-19T15:17:26Z</time>
      </trkpt>
      <trkpt lat="44.24352" lon="5.65045">
        <ele>695</ele>
        <time>2019-03-19T15:17:27Z</time>
      </trkpt>
      <trkpt lat="44.24354" lon="5.65054">
        <ele>695</ele>
        <time>2019-03-19T15:17:28Z</time>
      </trkpt>
      <trkpt lat="44.24355" lon="5.65063">
        <ele>695</ele>
        <time>2019-03-19T15:17:29Z</time>
      </trkpt>
      <trkpt lat="44.24356" lon="5.65072">
        <ele>695</ele>
        <time>2019-03-19T15:17:30Z</time>
      </trkpt>
      <trkpt lat="44.24356" lon="5.65081">
        <ele>695</ele>
        <time>2019-03-19T15:17:31Z</time>
      </trkpt>
      <trkpt lat="44.24356" lon="5.6509">
        <ele>695</ele>
        <time>2019-03-19T15:17:32Z</time>
      </trkpt>
      <trkpt lat="44.24356" lon="5.651">
        <ele>695</ele>
        <time>2019-03-19T15:17:33Z</time>
      </trkpt>
      <trkpt lat="44.24356" lon="5.65109">
        <ele>695</ele>
        <time>2019-03-19T15:17:34Z</time>
      </trkpt>
      <trkpt lat="44.24356" lon="5.65118">
        <ele>696</ele>
        <time>2019-03-19T15:17:35Z</time>
      </trkpt>
      <trkpt lat="44.24355" lon="5.65127">
        <ele>696</ele>
        <time>2019-03-19T15:17:36Z</time>
      </trkpt>
      <trkpt lat="44.24355" lon="5.65136">
        <ele>696</ele>
        <time>2019-03-19T15:17:37Z</time>
      </trkpt>
      <trkpt lat="44.24355" lon="5.65146">
        <ele>696</ele>
        <time>2019-03-19T15:17:38Z</time>
      </trkpt>
      <trkpt lat="44.24354" lon="5.65155">
        <ele>696</ele>
        <time>2019-03-19T15:17:39Z</time>
      </trkpt>
      <trkpt lat="44.24353" lon="5.65164">
        <ele>696</ele>
        <time>2019-03-19T15:17:40Z</time>
      </trkpt>
      <trkpt lat="44.24352" lon="5.65173">
        <ele>696</ele>
        <time>2019-03-19T15:17:41Z</time>
      </trkpt>
      <trkpt lat="44.24351" lon="5.65182">
        <ele>696</ele>
        <time>2019-03-19T15:17:42Z</time>
      </trkpt>
      <trkpt lat="44.24349" lon="5.65191">
        <ele>696</ele>
        <time>2019-03-19T15:17:43Z</time>
      </trkpt>
      <trkpt lat="44.24347" lon="5.65199">
        <ele>696</ele>
        <time>2019-03-19T15:17:44Z</time>
      </trkpt>
      <trkpt lat="44.24344" lon="5.65208">
        <ele>696</ele>
        <time>2019-03-19T15:17:45Z</time>
      </trkpt>
      <trkpt lat="44.24342" lon="5.65217">
        <ele>696</ele>
        <time>2019-03-19T15:17:46Z</time>
      </trkpt>
      <trkpt lat="44.2434" lon="5.65225">
        <ele>696</ele>
        <time>2019-03-19T15:17:47Z</time>
      </trkpt>
      <trkpt lat="44.24338" lon="5.65233">
        <ele>696</ele>
        <time>2019-03-19T15:17:48Z</time>
      </trkpt>
      <trkpt lat="44.24337" lon="5.65241">
        <ele>696</ele>
        <time>2019-03-19T15:17:49Z</time>
      </trkpt>
      <trkpt lat="44.24335" lon="5.6525">
        <ele>696</ele>
        <time>2019-03-19T15:17:50Z</time>
      </trkpt>
      <trkpt lat="44.24334" lon="5.65259">
        <ele>696</ele>
        <time>2019-03-19T15:17:51Z</time>
      </trkpt>
      <trkpt lat="44.24333" lon="5.65267">
        <ele>696</ele>
        <time>2019-03-19T15:17:52Z</time>
      </trkpt>
      <trkpt lat="44.24332" lon="5.65275">
        <ele>696</ele>
        <time>2019-03-19T15:17:53Z</time>
      </trkpt>
      <trkpt lat="44.24331" lon="5.65284">
        <ele>696</ele>
        <time>2019-03-19T15:17:54Z</time>
      </trkpt>
      <trkpt lat="44.2433" lon="5.65294">
        <ele>696</ele>
        <time>2019-03-19T15:17:55Z</time>
      </trkpt>
      <trkpt lat="44.24329" lon="5.65303">
        <ele>695</ele>
        <time>2019-03-19T15:17:56Z</time>
      </trkpt>
      <trkpt lat="44.24329" lon="5.65312">
        <ele>695</ele>
        <time>2019-03-19T15:17:57Z</time>
      </trkpt>
      <trkpt lat="44.24329" lon="5.65322">
        <ele>695</ele>
        <time>2019-03-19T15:17:58Z</time>
      </trkpt>
      <trkpt lat="44.2433" lon="5.65332">
        <ele>695</ele>
        <time>2019-03-19T15:17:59Z</time>
      </trkpt>
      <trkpt lat="44.24332" lon="5.65342">
        <ele>695</ele>
        <time>2019-03-19T15:18:00Z</time>
      </trkpt>
      <trkpt lat="44.24335" lon="5.65351">
        <ele>695</ele>
        <time>2019-03-19T15:18:01Z</time>
      </trkpt>
      <trkpt lat="44.24339" lon="5.65359">
        <ele>695</ele>
        <time>2019-03-19T15:18:02Z</time>
      </trkpt>
      <trkpt lat="44.24343" lon="5.65368">
        <ele>695</ele>
        <time>2019-03-19T15:18:03Z</time>
      </trkpt>
      <trkpt lat="44.24347" lon="5.65377">
        <ele>695</ele>
        <time>2019-03-19T15:18:04Z</time>
      </trkpt>
      <trkpt lat="44.24351" lon="5.65385">
        <ele>695</ele>
        <time>2019-03-19T15:18:05Z</time>
      </trkpt>
      <trkpt lat="44.24355" lon="5.65394">
        <ele>695</ele>
        <time>2019-03-19T15:18:06Z</time>
      </trkpt>
      <trkpt lat="44.24359" lon="5.65402">
        <ele>695</ele>
        <time>2019-03-19T15:18:07Z</time>
      </trkpt>
      <trkpt lat="44.24363" lon="5.65411">
        <ele>695</ele>
        <time>2019-03-19T15:18:08Z</time>
      </trkpt>
      <trkpt lat="44.24367" lon="5.65419">
        <ele>695</ele>
        <time>2019-03-19T15:18:09Z</time>
      </trkpt>
      <trkpt lat="44.24371" lon="5.65427">
        <ele>695</ele>
        <time>2019-03-19T15:18:10Z</time>
      </trkpt>
      <trkpt lat="44.24375" lon="5.65436">
        <ele>695</ele>
        <time>2019-03-19T15:18:11Z</time>
      </trkpt>
      <trkpt lat="44.24379" lon="5.65444">
        <ele>695</ele>
        <time>2019-03-19T15:18:12Z</time>
      </trkpt>
      <trkpt lat="44.24384" lon="5.65452">
        <ele>695</ele>
        <time>2019-03-19T15:18:13Z</time>
      </trkpt>
      <trkpt lat="44.24388" lon="5.6546">
        <ele>695</ele>
        <time>2019-03-19T15:18:14Z</time>
      </trkpt>
      <trkpt lat="44.24392" lon="5.65469">
        <ele>695</ele>
        <time>2019-03-19T15:18:15Z</time>
      </trkpt>
      <trkpt lat="44.24396" lon="5.65477">
        <ele>695</ele>
        <time>2019-03-19T15:18:16Z</time>
      </trkpt>
      <trkpt lat="44.244" lon="5.65485">
        <ele>695</ele>
        <time>2019-03-19T15:18:17Z</time>
      </trkpt>
      <trkpt lat="44.24404" lon="5.65493">
        <ele>695</ele>
        <time>2019-03-19T15:18:18Z</time>
      </trkpt>
      <trkpt lat="44.24408" lon="5.65502">
        <ele>695</ele>
        <time>2019-03-19T15:18:19Z</time>
      </trkpt>
      <trkpt lat="44.24412" lon="5.6551">
        <ele>695</ele>
        <time>2019-03-19T15:18:20Z</time>
      </trkpt>
      <trkpt lat="44.24416" lon="5.65518">
        <ele>695</ele>
        <time>2019-03-19T15:18:21Z</time>
      </trkpt>
      <trkpt lat="44.2442" lon="5.65527">
        <ele>695</ele>
        <time>2019-03-19T15:18:22Z</time>
      </trkpt>
      <trkpt lat="44.24424" lon="5.65535">
        <ele>695</ele>
        <time>2019-03-19T15:18:23Z</time>
      </trkpt>
      <trkpt lat="44.24428" lon="5.65544">
        <ele>695</ele>
        <time>2019-03-19T15:18:24Z</time>
      </trkpt>
      <trkpt lat="44.24432" lon="5.65552">
        <ele>695</ele>
        <time>2019-03-19T15:18:25Z</time>
      </trkpt>
      <trkpt lat="44.24436" lon="5.6556">
        <ele>695</ele>
        <time>2019-03-19T15:18:26Z</time>
      </trkpt>
      <trkpt lat="44.2444" lon="5.65569">
        <ele>695</ele>
        <time>2019-03-19T15:18:27Z</time>
      </trkpt>
      <trkpt lat="44.24444" lon="5.65577">
        <ele>695</ele>
        <time>2019-03-19T15:18:28Z</time>
      </trkpt>
      <trkpt lat="44.24448" lon="5.65586">
        <ele>695</ele>
        <time>2019-03-19T15:18:29Z</time>
      </trkpt>
      <trkpt lat="44.24452" lon="5.65594">
        <ele>695</ele>
        <time>2019-03-19T15:18:30Z</time>
      </trkpt>
      <trkpt lat="44.24455" lon="5.65602">
        <ele>695</ele>
        <time>2019-03-19T15:18:31Z</time>
      </trkpt>
      <trkpt lat="44.24459" lon="5.65611">
        <ele>695</ele>
        <time>2019-03-19T15:18:32Z</time>
      </trkpt>
      <trkpt lat="44.24463" lon="5.6562">
        <ele>695</ele>
        <time>2019-03-19T15:18:33Z</time>
      </trkpt>
      <trkpt lat="44.24466" lon="5.65629">
        <ele>695</ele>
        <time>2019-03-19T15:18:34Z</time>
      </trkpt>
      <trkpt lat="44.24469" lon="5.65639">
        <ele>695</ele>
        <time>2019-03-19T15:18:35Z</time>
      </trkpt>
      <trkpt lat="44.24472" lon="5.65649">
        <ele>695</ele>
        <time>2019-03-19T15:18:36Z</time>
      </trkpt>
      <trkpt lat="44.24475" lon="5.65658">
        <ele>695</ele>
        <time>2019-03-19T15:18:37Z</time>
      </trkpt>
      <trkpt lat="44.24478" lon="5.65668">
        <ele>695</ele>
        <time>2019-03-19T15:18:38Z</time>
      </trkpt>
      <trkpt lat="44.2448" lon="5.65678">
        <ele>695</ele>
        <time>2019-03-19T15:18:39Z</time>
      </trkpt>
      <trkpt lat="44.24483" lon="5.65689">
        <ele>695</ele>
        <time>2019-03-19T15:18:40Z</time>
      </trkpt>
      <trkpt lat="44.24485" lon="5.65699">
        <ele>695</ele>
        <time>2019-03-19T15:18:41Z</time>
      </trkpt>
      <trkpt lat="44.24487" lon="5.65709">
        <ele>694</ele>
        <time>2019-03-19T15:18:42Z</time>
      </trkpt>
      <trkpt lat="44.24489" lon="5.6572">
        <ele>694</ele>
        <time>2019-03-19T15:18:43Z</time>
      </trkpt>
      <trkpt lat="44.2449" lon="5.6573">
        <ele>694</ele>
        <time>2019-03-19T15:18:44Z</time>
      </trkpt>
      <trkpt lat="44.24489" lon="5.65741">
        <ele>694</ele>
        <time>2019-03-19T15:18:45Z</time>
      </trkpt>
      <trkpt lat="44.24485" lon="5.65752">
        <ele>694</ele>
        <time>2019-03-19T15:18:46Z</time>
      </trkpt>
      <trkpt lat="44.24481" lon="5.65761">
        <ele>693</ele>
        <time>2019-03-19T15:18:47Z</time>
      </trkpt>
      <trkpt lat="44.24477" lon="5.65769">
        <ele>693</ele>
        <time>2019-03-19T15:18:48Z</time>
      </trkpt>
      <trkpt lat="44.24472" lon="5.65777">
        <ele>693</ele>
        <time>2019-03-19T15:18:49Z</time>
      </trkpt>
      <trkpt lat="44.24466" lon="5.65785">
        <ele>692</ele>
        <time>2019-03-19T15:18:50Z</time>
      </trkpt>
      <trkpt lat="44.2446" lon="5.65792">
        <ele>692</ele>
        <time>2019-03-19T15:18:51Z</time>
      </trkpt>
      <trkpt lat="44.24454" lon="5.65799">
        <ele>691</ele>
        <time>2019-03-19T15:18:52Z</time>
      </trkpt>
      <trkpt lat="44.24449" lon="5.65806">
        <ele>691</ele>
        <time>2019-03-19T15:18:53Z</time>
      </trkpt>
      <trkpt lat="44.24444" lon="5.65812">
        <ele>690</ele>
        <time>2019-03-19T15:18:54Z</time>
      </trkpt>
      <trkpt lat="44.24438" lon="5.65819">
        <ele>690</ele>
        <time>2019-03-19T15:18:55Z</time>
      </trkpt>
      <trkpt lat="44.24432" lon="5.65825">
        <ele>689</ele>
        <time>2019-03-19T15:18:56Z</time>
      </trkpt>
      <trkpt lat="44.24426" lon="5.65831">
        <ele>689</ele>
        <time>2019-03-19T15:18:57Z</time>
      </trkpt>
      <trkpt lat="44.24419" lon="5.65837">
        <ele>689</ele>
        <time>2019-03-19T15:18:58Z</time>
      </trkpt>
      <trkpt lat="44.24413" lon="5.65842">
        <ele>689</ele>
        <time>2019-03-19T15:18:59Z</time>
      </trkpt>
      <trkpt lat="44.24406" lon="5.65848">
        <ele>689</ele>
        <time>2019-03-19T15:19:00Z</time>
      </trkpt>
      <trkpt lat="44.244" lon="5.65854">
        <ele>689</ele>
        <time>2019-03-19T15:19:01Z</time>
      </trkpt>
      <trkpt lat="44.24394" lon="5.6586">
        <ele>689</ele>
        <time>2019-03-19T15:19:02Z</time>
      </trkpt>
      <trkpt lat="44.24389" lon="5.65867">
        <ele>689</ele>
        <time>2019-03-19T15:19:03Z</time>
      </trkpt>
      <trkpt lat="44.24384" lon="5.65874">
        <ele>689</ele>
        <time>2019-03-19T15:19:04Z</time>
      </trkpt>
      <trkpt lat="44.24379" lon="5.65883">
        <ele>689</ele>
        <time>2019-03-19T15:19:05Z</time>
      </trkpt>
      <trkpt lat="44.24376" lon="5.65892">
        <ele>689</ele>
        <time>2019-03-19T15:19:06Z</time>
      </trkpt>
      <trkpt lat="44.24372" lon="5.65902">
        <ele>689</ele>
        <time>2019-03-19T15:19:07Z</time>
      </trkpt>
      <trkpt lat="44.2437" lon="5.65912">
        <ele>689</ele>
        <time>2019-03-19T15:19:08Z</time>
      </trkpt>
      <trkpt lat="44.24369" lon="5.65922">
        <ele>688</ele>
        <time>2019-03-19T15:19:09Z</time>
      </trkpt>
      <trkpt lat="44.24368" lon="5.65933">
        <ele>688</ele>
        <time>2019-03-19T15:19:10Z</time>
      </trkpt>
      <trkpt lat="44.24368" lon="5.65944">
        <ele>687</ele>
        <time>2019-03-19T15:19:11Z</time>
      </trkpt>
      <trkpt lat="44.24369" lon="5.65955">
        <ele>687</ele>
        <time>2019-03-19T15:19:12Z</time>
      </trkpt>
      <trkpt lat="44.24371" lon="5.65965">
        <ele>686</ele>
        <time>2019-03-19T15:19:13Z</time>
      </trkpt>
      <trkpt lat="44.24375" lon="5.65975">
        <ele>686</ele>
        <time>2019-03-19T15:19:14Z</time>
      </trkpt>
      <trkpt lat="44.24379" lon="5.65985">
        <ele>686</ele>
        <time>2019-03-19T15:19:15Z</time>
      </trkpt>
      <trkpt lat="44.24384" lon="5.65994">
        <ele>686</ele>
        <time>2019-03-19T15:19:16Z</time>
      </trkpt>
      <trkpt lat="44.24389" lon="5.66003">
        <ele>685</ele>
        <time>2019-03-19T15:19:17Z</time>
      </trkpt>
      <trkpt lat="44.24394" lon="5.66012">
        <ele>685</ele>
        <time>2019-03-19T15:19:18Z</time>
      </trkpt>
      <trkpt lat="44.244" lon="5.66021">
        <ele>685</ele>
        <time>2019-03-19T15:19:19Z</time>
      </trkpt>
      <trkpt lat="44.24404" lon="5.66031">
        <ele>684</ele>
        <time>2019-03-19T15:19:20Z</time>
      </trkpt>
      <trkpt lat="44.24409" lon="5.66041">
        <ele>684</ele>
        <time>2019-03-19T15:19:21Z</time>
      </trkpt>
      <trkpt lat="44.24413" lon="5.66052">
        <ele>684</ele>
        <time>2019-03-19T15:19:22Z</time>
      </trkpt>
      <trkpt lat="44.24416" lon="5.66063">
        <ele>684</ele>
        <time>2019-03-19T15:19:23Z</time>
      </trkpt>
      <trkpt lat="44.24418" lon="5.66074">
        <ele>684</ele>
        <time>2019-03-19T15:19:24Z</time>
      </trkpt>
      <trkpt lat="44.24419" lon="5.66085">
        <ele>684</ele>
        <time>2019-03-19T15:19:25Z</time>
      </trkpt>
      <trkpt lat="44.2442" lon="5.66097">
        <ele>684</ele>
        <time>2019-03-19T15:19:26Z</time>
      </trkpt>
      <trkpt lat="44.2442" lon="5.66108">
        <ele>684</ele>
        <time>2019-03-19T15:19:27Z</time>
      </trkpt>
      <trkpt lat="44.24421" lon="5.66119">
        <ele>684</ele>
        <time>2019-03-19T15:19:28Z</time>
      </trkpt>
      <trkpt lat="44.24421" lon="5.6613">
        <ele>684</ele>
        <time>2019-03-19T15:19:29Z</time>
      </trkpt>
      <trkpt lat="44.24422" lon="5.6614">
        <ele>684</ele>
        <time>2019-03-19T15:19:30Z</time>
      </trkpt>
      <trkpt lat="44.24423" lon="5.66151">
        <ele>684</ele>
        <time>2019-03-19T15:19:31Z</time>
      </trkpt>
      <trkpt lat="44.24424" lon="5.66161">
        <ele>684</ele>
        <time>2019-03-19T15:19:32Z</time>
      </trkpt>
      <trkpt lat="44.24426" lon="5.66171">
        <ele>684</ele>
        <time>2019-03-19T15:19:33Z</time>
      </trkpt>
      <trkpt lat="44.24428" lon="5.66181">
        <ele>684</ele>
        <time>2019-03-19T15:19:34Z</time>
      </trkpt>
      <trkpt lat="44.24431" lon="5.66189">
        <ele>684</ele>
        <time>2019-03-19T15:19:35Z</time>
      </trkpt>
      <trkpt lat="44.24435" lon="5.66198">
        <ele>684</ele>
        <time>2019-03-19T15:19:36Z</time>
      </trkpt>
      <trkpt lat="44.24439" lon="5.66206">
        <ele>684</ele>
        <time>2019-03-19T15:19:37Z</time>
      </trkpt>
      <trkpt lat="44.24443" lon="5.66214">
        <ele>684</ele>
        <time>2019-03-19T15:19:38Z</time>
      </trkpt>
      <trkpt lat="44.24448" lon="5.66222">
        <ele>684</ele>
        <time>2019-03-19T15:19:39Z</time>
      </trkpt>
      <trkpt lat="44.24452" lon="5.66229">
        <ele>684</ele>
        <time>2019-03-19T15:19:40Z</time>
      </trkpt>
      <trkpt lat="44.24456" lon="5.66237">
        <ele>684</ele>
        <time>2019-03-19T15:19:41Z</time>
      </trkpt>
      <trkpt lat="44.2446" lon="5.66245">
        <ele>684</ele>
        <time>2019-03-19T15:19:42Z</time>
      </trkpt>
      <trkpt lat="44.24464" lon="5.66253">
        <ele>684</ele>
        <time>2019-03-19T15:19:43Z</time>
      </trkpt>
      <trkpt lat="44.24469" lon="5.6626">
        <ele>684</ele>
        <time>2019-03-19T15:19:44Z</time>
      </trkpt>
      <trkpt lat="44.24474" lon="5.66267">
        <ele>684</ele>
        <time>2019-03-19T15:19:45Z</time>
      </trkpt>
      <trkpt lat="44.24477" lon="5.66275">
        <ele>684</ele>
        <time>2019-03-19T15:19:46Z</time>
      </trkpt>
      <trkpt lat="44.24482" lon="5.66283">
        <ele>684</ele>
        <time>2019-03-19T15:19:47Z</time>
      </trkpt>
      <trkpt lat="44.24486" lon="5.66291">
        <ele>684</ele>
        <time>2019-03-19T15:19:48Z</time>
      </trkpt>
      <trkpt lat="44.2449" lon="5.66298">
        <ele>684</ele>
        <time>2019-03-19T15:19:49Z</time>
      </trkpt>
      <trkpt lat="44.24495" lon="5.66306">
        <ele>684</ele>
        <time>2019-03-19T15:19:50Z</time>
      </trkpt>
      <trkpt lat="44.245" lon="5.66314">
        <ele>684</ele>
        <time>2019-03-19T15:19:51Z</time>
      </trkpt>
      <trkpt lat="44.24504" lon="5.66322">
        <ele>684</ele>
        <time>2019-03-19T15:19:52Z</time>
      </trkpt>
      <trkpt lat="44.24509" lon="5.66329">
        <ele>684</ele>
        <time>2019-03-19T15:19:53Z</time>
      </trkpt>
      <trkpt lat="44.24515" lon="5.66336">
        <ele>684</ele>
        <time>2019-03-19T15:19:54Z</time>
      </trkpt>
      <trkpt lat="44.2452" lon="5.66343">
        <ele>684</ele>
        <time>2019-03-19T15:19:55Z</time>
      </trkpt>
      <trkpt lat="44.24525" lon="5.6635">
        <ele>684</ele>
        <time>2019-03-19T15:19:56Z</time>
      </trkpt>
      <trkpt lat="44.24532" lon="5.66356">
        <ele>684</ele>
        <time>2019-03-19T15:19:57Z</time>
      </trkpt>
      <trkpt lat="44.24538" lon="5.66361">
        <ele>684</ele>
        <time>2019-03-19T15:19:58Z</time>
      </trkpt>
      <trkpt lat="44.24545" lon="5.66366">
        <ele>684</ele>
        <time>2019-03-19T15:19:59Z</time>
      </trkpt>
      <trkpt lat="44.24553" lon="5.6637">
        <ele>684</ele>
        <time>2019-03-19T15:20:00Z</time>
      </trkpt>
      <trkpt lat="44.2456" lon="5.66373">
        <ele>684</ele>
        <time>2019-03-19T15:20:01Z</time>
      </trkpt>
      <trkpt lat="44.24568" lon="5.66375">
        <ele>684</ele>
        <time>2019-03-19T15:20:02Z</time>
      </trkpt>
      <trkpt lat="44.24576" lon="5.66376">
        <ele>684</ele>
        <time>2019-03-19T15:20:03Z</time>
      </trkpt>
      <trkpt lat="44.24584" lon="5.66376">
        <ele>684</ele>
        <time>2019-03-19T15:20:04Z</time>
      </trkpt>
      <trkpt lat="44.24592" lon="5.66375">
        <ele>684</ele>
        <time>2019-03-19T15:20:05Z</time>
      </trkpt>
      <trkpt lat="44.246" lon="5.66375">
        <ele>684</ele>
        <time>2019-03-19T15:20:06Z</time>
      </trkpt>
      <trkpt lat="44.24608" lon="5.66375">
        <ele>684</ele>
        <time>2019-03-19T15:20:07Z</time>
      </trkpt>
      <trkpt lat="44.24616" lon="5.66375">
        <ele>684</ele>
        <time>2019-03-19T15:20:08Z</time>
      </trkpt>
      <trkpt lat="44.24625" lon="5.66375">
        <ele>684</ele>
        <time>2019-03-19T15:20:09Z</time>
      </trkpt>
      <trkpt lat="44.24633" lon="5.66375">
        <ele>684</ele>
        <time>2019-03-19T15:20:10Z</time>
      </trkpt>
      <trkpt lat="44.24641" lon="5.66374">
        <ele>684</ele>
        <time>2019-03-19T15:20:11Z</time>
      </trkpt>
      <trkpt lat="44.24649" lon="5.66374">
        <ele>684</ele>
        <time>2019-03-19T15:20:12Z</time>
      </trkpt>
      <trkpt lat="44.24656" lon="5.66374">
        <ele>684</ele>
        <time>2019-03-19T15:20:13Z</time>
      </trkpt>
      <trkpt lat="44.24664" lon="5.66375">
        <ele>684</ele>
        <time>2019-03-19T15:20:14Z</time>
      </trkpt>
      <trkpt lat="44.24672" lon="5.66378">
        <ele>684</ele>
        <time>2019-03-19T15:20:15Z</time>
      </trkpt>
      <trkpt lat="44.24679" lon="5.66382">
        <ele>684</ele>
        <time>2019-03-19T15:20:16Z</time>
      </trkpt>
      <trkpt lat="44.24685" lon="5.66387">
        <ele>684</ele>
        <time>2019-03-19T15:20:17Z</time>
      </trkpt>
      <trkpt lat="44.24691" lon="5.66394">
        <ele>684</ele>
        <time>2019-03-19T15:20:18Z</time>
      </trkpt>
      <trkpt lat="44.24696" lon="5.66402">
        <ele>684</ele>
        <time>2019-03-19T15:20:19Z</time>
      </trkpt>
      <trkpt lat="44.24699" lon="5.6641">
        <ele>684</ele>
        <time>2019-03-19T15:20:20Z</time>
      </trkpt>
      <trkpt lat="44.24702" lon="5.6642">
        <ele>684</ele>
        <time>2019-03-19T15:20:21Z</time>
      </trkpt>
      <trkpt lat="44.24704" lon="5.66429">
        <ele>684</ele>
        <time>2019-03-19T15:20:22Z</time>
      </trkpt>
      <trkpt lat="44.24706" lon="5.66438">
        <ele>684</ele>
        <time>2019-03-19T15:20:23Z</time>
      </trkpt>
      <trkpt lat="44.24707" lon="5.66448">
        <ele>684</ele>
        <time>2019-03-19T15:20:24Z</time>
      </trkpt>
      <trkpt lat="44.24707" lon="5.66458">
        <ele>684</ele>
        <time>2019-03-19T15:20:25Z</time>
      </trkpt>
      <trkpt lat="44.24707" lon="5.66467">
        <ele>684</ele>
        <time>2019-03-19T15:20:26Z</time>
      </trkpt>
      <trkpt lat="44.24706" lon="5.66477">
        <ele>684</ele>
        <time>2019-03-19T15:20:27Z</time>
      </trkpt>
      <trkpt lat="44.24706" lon="5.66487">
        <ele>683</ele>
        <time>2019-03-19T15:20:28Z</time>
      </trkpt>
      <trkpt lat="44.24704" lon="5.66496">
        <ele>683</ele>
        <time>2019-03-19T15:20:29Z</time>
      </trkpt>
      <trkpt lat="44.24702" lon="5.66505">
        <ele>683</ele>
        <time>2019-03-19T15:20:30Z</time>
      </trkpt>
      <trkpt lat="44.247" lon="5.66514">
        <ele>682</ele>
        <time>2019-03-19T15:20:31Z</time>
      </trkpt>
      <trkpt lat="44.24697" lon="5.66523">
        <ele>681</ele>
        <time>2019-03-19T15:20:32Z</time>
      </trkpt>
      <trkpt lat="44.24694" lon="5.66531">
        <ele>681</ele>
        <time>2019-03-19T15:20:33Z</time>
      </trkpt>
      <trkpt lat="44.2469" lon="5.66539">
        <ele>680</ele>
        <time>2019-03-19T15:20:34Z</time>
      </trkpt>
      <trkpt lat="44.24685" lon="5.66547">
        <ele>679</ele>
        <time>2019-03-19T15:20:35Z</time>
      </trkpt>
      <trkpt lat="44.2468" lon="5.66554">
        <ele>678</ele>
        <time>2019-03-19T15:20:36Z</time>
      </trkpt>
      <trkpt lat="44.24675" lon="5.66562">
        <ele>678</ele>
        <time>2019-03-19T15:20:37Z</time>
      </trkpt>
      <trkpt lat="44.2467" lon="5.66569">
        <ele>677</ele>
        <time>2019-03-19T15:20:38Z</time>
      </trkpt>
      <trkpt lat="44.24665" lon="5.66576">
        <ele>677</ele>
        <time>2019-03-19T15:20:39Z</time>
      </trkpt>
      <trkpt lat="44.2466" lon="5.66583">
        <ele>676</ele>
        <time>2019-03-19T15:20:40Z</time>
      </trkpt>
      <trkpt lat="44.24655" lon="5.6659">
        <ele>676</ele>
        <time>2019-03-19T15:20:41Z</time>
      </trkpt>
      <trkpt lat="44.2465" lon="5.66597">
        <ele>676</ele>
        <time>2019-03-19T15:20:42Z</time>
      </trkpt>
      <trkpt lat="44.24645" lon="5.66604">
        <ele>676</ele>
        <time>2019-03-19T15:20:43Z</time>
      </trkpt>
      <trkpt lat="44.24641" lon="5.66612">
        <ele>676</ele>
        <time>2019-03-19T15:20:44Z</time>
      </trkpt>
      <trkpt lat="44.24638" lon="5.6662">
        <ele>676</ele>
        <time>2019-03-19T15:20:45Z</time>
      </trkpt>
      <trkpt lat="44.24637" lon="5.6663">
        <ele>676</ele>
        <time>2019-03-19T15:20:46Z</time>
      </trkpt>
      <trkpt lat="44.24637" lon="5.6664">
        <ele>676</ele>
        <time>2019-03-19T15:20:47Z</time>
      </trkpt>
      <trkpt lat="44.2464" lon="5.66649">
        <ele>676</ele>
        <time>2019-03-19T15:20:48Z</time>
      </trkpt>
      <trkpt lat="44.24644" lon="5.66656">
        <ele>676</ele>
        <time>2019-03-19T15:20:49Z</time>
      </trkpt>
      <trkpt lat="44.24651" lon="5.66662">
        <ele>676</ele>
        <time>2019-03-19T15:20:50Z</time>
      </trkpt>
      <trkpt lat="44.24657" lon="5.66667">
        <ele>676</ele>
        <time>2019-03-19T15:20:51Z</time>
      </trkpt>
      <trkpt lat="44.24664" lon="5.66669">
        <ele>676</ele>
        <time>2019-03-19T15:20:52Z</time>
      </trkpt>
      <trkpt lat="44.24671" lon="5.66671">
        <ele>676</ele>
        <time>2019-03-19T15:20:53Z</time>
      </trkpt>
      <trkpt lat="44.24678" lon="5.66672">
        <ele>676</ele>
        <time>2019-03-19T15:20:54Z</time>
      </trkpt>
      <trkpt lat="44.24685" lon="5.66673">
        <ele>676</ele>
        <time>2019-03-19T15:20:55Z</time>
      </trkpt>
      <trkpt lat="44.24691" lon="5.66674">
        <ele>676</ele>
        <time>2019-03-19T15:20:56Z</time>
      </trkpt>
      <trkpt lat="44.24698" lon="5.66676">
        <ele>676</ele>
        <time>2019-03-19T15:20:57Z</time>
      </trkpt>
      <trkpt lat="44.24705" lon="5.66677">
        <ele>676</ele>
        <time>2019-03-19T15:20:58Z</time>
      </trkpt>
      <trkpt lat="44.24711" lon="5.66678">
        <ele>676</ele>
        <time>2019-03-19T15:20:59Z</time>
      </trkpt>
      <trkpt lat="44.24718" lon="5.66679">
        <ele>676</ele>
        <time>2019-03-19T15:21:00Z</time>
      </trkpt>
      <trkpt lat="44.24725" lon="5.6668">
        <ele>676</ele>
        <time>2019-03-19T15:21:01Z</time>
      </trkpt>
      <trkpt lat="44.24732" lon="5.66682">
        <ele>676</ele>
        <time>2019-03-19T15:21:02Z</time>
      </trkpt>
      <trkpt lat="44.24738" lon="5.66685">
        <ele>676</ele>
        <time>2019-03-19T15:21:03Z</time>
      </trkpt>
      <trkpt lat="44.24745" lon="5.66688">
        <ele>676</ele>
        <time>2019-03-19T15:21:04Z</time>
      </trkpt>
      <trkpt lat="44.24751" lon="5.66692">
        <ele>676</ele>
        <time>2019-03-19T15:21:05Z</time>
      </trkpt>
      <trkpt lat="44.24757" lon="5.66697">
        <ele>676</ele>
        <time>2019-03-19T15:21:06Z</time>
      </trkpt>
      <trkpt lat="44.24763" lon="5.66703">
        <ele>676</ele>
        <time>2019-03-19T15:21:07Z</time>
      </trkpt>
      <trkpt lat="44.24768" lon="5.66709">
        <ele>676</ele>
        <time>2019-03-19T15:21:08Z</time>
      </trkpt>
      <trkpt lat="44.24773" lon="5.66716">
        <ele>676</ele>
        <time>2019-03-19T15:21:09Z</time>
      </trkpt>
      <trkpt lat="44.24778" lon="5.66724">
        <ele>676</ele>
        <time>2019-03-19T15:21:10Z</time>
      </trkpt>
      <trkpt lat="44.24781" lon="5.66732">
        <ele>676</ele>
        <time>2019-03-19T15:21:11Z</time>
      </trkpt>
      <trkpt lat="44.24784" lon="5.66741">
        <ele>676</ele>
        <time>2019-03-19T15:21:12Z</time>
      </trkpt>
      <trkpt lat="44.24787" lon="5.66751">
        <ele>676</ele>
        <time>2019-03-19T15:21:13Z</time>
      </trkpt>
      <trkpt lat="44.24789" lon="5.6676">
        <ele>676</ele>
        <time>2019-03-19T15:21:14Z</time>
      </trkpt>
      <trkpt lat="44.2479" lon="5.6677">
        <ele>676</ele>
        <time>2019-03-19T15:21:15Z</time>
      </trkpt>
      <trkpt lat="44.24791" lon="5.6678">
        <ele>676</ele>
        <time>2019-03-19T15:21:16Z</time>
      </trkpt>
      <trkpt lat="44.24791" lon="5.6679">
        <ele>676</ele>
        <time>2019-03-19T15:21:17Z</time>
      </trkpt>
      <trkpt lat="44.2479" lon="5.668">
        <ele>676</ele>
        <time>2019-03-19T15:21:18Z</time>
      </trkpt>
      <trkpt lat="44.24789" lon="5.66811">
        <ele>676</ele>
        <time>2019-03-19T15:21:19Z</time>
      </trkpt>
      <trkpt lat="44.24786" lon="5.66821">
        <ele>676</ele>
        <time>2019-03-19T15:21:20Z</time>
      </trkpt>
      <trkpt lat="44.24784" lon="5.6683">
        <ele>676</ele>
        <time>2019-03-19T15:21:21Z</time>
      </trkpt>
      <trkpt lat="44.24782" lon="5.66839">
        <ele>676</ele>
        <time>2019-03-19T15:21:22Z</time>
      </trkpt>
      <trkpt lat="44.24779" lon="5.66848">
        <ele>676</ele>
        <time>2019-03-19T15:21:23Z</time>
      </trkpt>
      <trkpt lat="44.24776" lon="5.66857">
        <ele>676</ele>
        <time>2019-03-19T15:21:24Z</time>
      </trkpt>
      <trkpt lat="44.24773" lon="5.66866">
        <ele>676</ele>
        <time>2019-03-19T15:21:25Z</time>
      </trkpt>
      <trkpt lat="44.24769" lon="5.66874">
        <ele>675</ele>
        <time>2019-03-19T15:21:26Z</time>
      </trkpt>
      <trkpt lat="44.24766" lon="5.66883">
        <ele>675</ele>
        <time>2019-03-19T15:21:27Z</time>
      </trkpt>
      <trkpt lat="44.24762" lon="5.66891">
        <ele>674</ele>
        <time>2019-03-19T15:21:28Z</time>
      </trkpt>
      <trkpt lat="44.24759" lon="5.669">
        <ele>674</ele>
        <time>2019-03-19T15:21:29Z</time>
      </trkpt>
      <trkpt lat="44.24755" lon="5.66908">
        <ele>674</ele>
        <time>2019-03-19T15:21:30Z</time>
      </trkpt>
      <trkpt lat="44.24751" lon="5.66917">
        <ele>673</ele>
        <time>2019-03-19T15:21:31Z</time>
      </trkpt>
      <trkpt lat="44.24747" lon="5.66925">
        <ele>673</ele>
        <time>2019-03-19T15:21:32Z</time>
      </trkpt>
      <trkpt lat="44.24744" lon="5.66934">
        <ele>673</ele>
        <time>2019-03-19T15:21:33Z</time>
      </trkpt>
      <trkpt lat="44.2474" lon="5.66943">
        <ele>673</ele>
        <time>2019-03-19T15:21:34Z</time>
      </trkpt>
      <trkpt lat="44.24736" lon="5.66953">
        <ele>672</ele>
        <time>2019-03-19T15:21:35Z</time>
      </trkpt>
      <trkpt lat="44.24733" lon="5.66961">
        <ele>672</ele>
        <time>2019-03-19T15:21:36Z</time>
      </trkpt>
      <trkpt lat="44.2473" lon="5.66971">
        <ele>672</ele>
        <time>2019-03-19T15:21:37Z</time>
      </trkpt>
      <trkpt lat="44.24726" lon="5.6698">
        <ele>672</ele>
        <time>2019-03-19T15:21:38Z</time>
      </trkpt>
      <trkpt lat="44.24723" lon="5.66989">
        <ele>672</ele>
        <time>2019-03-19T15:21:39Z</time>
      </trkpt>
      <trkpt lat="44.2472" lon="5.66998">
        <ele>672</ele>
        <time>2019-03-19T15:21:40Z</time>
      </trkpt>
      <trkpt lat="44.24718" lon="5.67007">
        <ele>672</ele>
        <time>2019-03-19T15:21:41Z</time>
      </trkpt>
      <trkpt lat="44.24716" lon="5.67016">
        <ele>672</ele>
        <time>2019-03-19T15:21:42Z</time>
      </trkpt>
      <trkpt lat="44.24714" lon="5.67026">
        <ele>672</ele>
        <time>2019-03-19T15:21:43Z</time>
      </trkpt>
      <trkpt lat="44.24712" lon="5.67036">
        <ele>672</ele>
        <time>2019-03-19T15:21:44Z</time>
      </trkpt>
      <trkpt lat="44.24711" lon="5.67046">
        <ele>672</ele>
        <time>2019-03-19T15:21:45Z</time>
      </trkpt>
      <trkpt lat="44.2471" lon="5.67055">
        <ele>671</ele>
        <time>2019-03-19T15:21:46Z</time>
      </trkpt>
      <trkpt lat="44.24709" lon="5.67065">
        <ele>671</ele>
        <time>2019-03-19T15:21:47Z</time>
      </trkpt>
      <trkpt lat="44.24708" lon="5.67074">
        <ele>671</ele>
        <time>2019-03-19T15:21:48Z</time>
      </trkpt>
      <trkpt lat="44.24708" lon="5.67084">
        <ele>671</ele>
        <time>2019-03-19T15:21:49Z</time>
      </trkpt>
      <trkpt lat="44.24707" lon="5.67093">
        <ele>670</ele>
        <time>2019-03-19T15:21:50Z</time>
      </trkpt>
      <trkpt lat="44.24706" lon="5.67103">
        <ele>670</ele>
        <time>2019-03-19T15:21:51Z</time>
      </trkpt>
      <trkpt lat="44.24706" lon="5.67112">
        <ele>670</ele>
        <time>2019-03-19T15:21:52Z</time>
      </trkpt>
      <trkpt lat="44.24705" lon="5.67122">
        <ele>670</ele>
        <time>2019-03-19T15:21:53Z</time>
      </trkpt>
      <trkpt lat="44.24704" lon="5.67131">
        <ele>670</ele>
        <time>2019-03-19T15:21:54Z</time>
      </trkpt>
      <trkpt lat="44.24702" lon="5.6714">
        <ele>670</ele>
        <time>2019-03-19T15:21:55Z</time>
      </trkpt>
      <trkpt lat="44.247" lon="5.67149">
        <ele>670</ele>
        <time>2019-03-19T15:21:56Z</time>
      </trkpt>
      <trkpt lat="44.24697" lon="5.67157">
        <ele>669</ele>
        <time>2019-03-19T15:21:57Z</time>
      </trkpt>
      <trkpt lat="44.24694" lon="5.67165">
        <ele>669</ele>
        <time>2019-03-19T15:21:58Z</time>
      </trkpt>
      <trkpt lat="44.2469" lon="5.67173">
        <ele>668</ele>
        <time>2019-03-19T15:21:59Z</time>
      </trkpt>
      <trkpt lat="44.24686" lon="5.67181">
        <ele>668</ele>
        <time>2019-03-19T15:22:00Z</time>
      </trkpt>
      <trkpt lat="44.24682" lon="5.67189">
        <ele>668</ele>
        <time>2019-03-19T15:22:01Z</time>
      </trkpt>
      <trkpt lat="44.24678" lon="5.67196">
        <ele>668</ele>
        <time>2019-03-19T15:22:02Z</time>
      </trkpt>
      <trkpt lat="44.24674" lon="5.67204">
        <ele>668</ele>
        <time>2019-03-19T15:22:03Z</time>
      </trkpt>
      <trkpt lat="44.2467" lon="5.67211">
        <ele>668</ele>
        <time>2019-03-19T15:22:04Z</time>
      </trkpt>
      <trkpt lat="44.24665" lon="5.67219">
        <ele>668</ele>
        <time>2019-03-19T15:22:05Z</time>
      </trkpt>
      <trkpt lat="44.24662" lon="5.67227">
        <ele>667</ele>
        <time>2019-03-19T15:22:06Z</time>
      </trkpt>
      <trkpt lat="44.2466" lon="5.67236">
        <ele>667</ele>
        <time>2019-03-19T15:22:07Z</time>
      </trkpt>
      <trkpt lat="44.24657" lon="5.67244">
        <ele>667</ele>
        <time>2019-03-19T15:22:08Z</time>
      </trkpt>
      <trkpt lat="44.24655" lon="5.67253">
        <ele>666</ele>
        <time>2019-03-19T15:22:09Z</time>
      </trkpt>
      <trkpt lat="44.24653" lon="5.67261">
        <ele>666</ele>
        <time>2019-03-19T15:22:10Z</time>
      </trkpt>
      <trkpt lat="44.24651" lon="5.6727">
        <ele>665</ele>
        <time>2019-03-19T15:22:11Z</time>
      </trkpt>
      <trkpt lat="44.24649" lon="5.67278">
        <ele>665</ele>
        <time>2019-03-19T15:22:12Z</time>
      </trkpt>
      <trkpt lat="44.24648" lon="5.67286">
        <ele>665</ele>
        <time>2019-03-19T15:22:13Z</time>
      </trkpt>
      <trkpt lat="44.24646" lon="5.67294">
        <ele>664</ele>
        <time>2019-03-19T15:22:14Z</time>
      </trkpt>
      <trkpt lat="44.24644" lon="5.67302">
        <ele>664</ele>
        <time>2019-03-19T15:22:15Z</time>
      </trkpt>
      <trkpt lat="44.24642" lon="5.6731">
        <ele>664</ele>
        <time>2019-03-19T15:22:16Z</time>
      </trkpt>
      <trkpt lat="44.2464" lon="5.67317">
        <ele>664</ele>
        <time>2019-03-19T15:22:17Z</time>
      </trkpt>
      <trkpt lat="44.24638" lon="5.67325">
        <ele>664</ele>
        <time>2019-03-19T15:22:18Z</time>
      </trkpt>
      <trkpt lat="44.24637" lon="5.67333">
        <ele>664</ele>
        <time>2019-03-19T15:22:19Z</time>
      </trkpt>
      <trkpt lat="44.24635" lon="5.67341">
        <ele>664</ele>
        <time>2019-03-19T15:22:20Z</time>
      </trkpt>
      <trkpt lat="44.24633" lon="5.67349">
        <ele>664</ele>
        <time>2019-03-19T15:22:21Z</time>
      </trkpt>
      <trkpt lat="44.24632" lon="5.67357">
        <ele>664</ele>
        <time>2019-03-19T15:22:22Z</time>
      </trkpt>
      <trkpt lat="44.2463" lon="5.67365">
        <ele>664</ele>
        <time>2019-03-19T15:22:23Z</time>
      </trkpt>
      <trkpt lat="44.24628" lon="5.67373">
        <ele>664</ele>
        <time>2019-03-19T15:22:24Z</time>
      </trkpt>
      <trkpt lat="44.24625" lon="5.6738">
        <ele>664</ele>
        <time>2019-03-19T15:22:25Z</time>
      </trkpt>
      <trkpt lat="44.24622" lon="5.67387">
        <ele>664</ele>
        <time>2019-03-19T15:22:26Z</time>
      </trkpt>
      <trkpt lat="44.24619" lon="5.67393">
        <ele>664</ele>
        <time>2019-03-19T15:22:27Z</time>
      </trkpt>
      <trkpt lat="44.24615" lon="5.67399">
        <ele>664</ele>
        <time>2019-03-19T15:22:28Z</time>
      </trkpt>
      <trkpt lat="44.24612" lon="5.67404">
        <ele>664</ele>
        <time>2019-03-19T15:22:29Z</time>
      </trkpt>
      <trkpt lat="44.24609" lon="5.6741">
        <ele>664</ele>
        <time>2019-03-19T15:22:30Z</time>
      </trkpt>
      <trkpt lat="44.24605" lon="5.67416">
        <ele>664</ele>
        <time>2019-03-19T15:22:31Z</time>
      </trkpt>
      <trkpt lat="44.24602" lon="5.67421">
        <ele>664</ele>
        <time>2019-03-19T15:22:32Z</time>
      </trkpt>
      <trkpt lat="44.24598" lon="5.67426">
        <ele>664</ele>
        <time>2019-03-19T15:22:33Z</time>
      </trkpt>
      <trkpt lat="44.24595" lon="5.67432">
        <ele>664</ele>
        <time>2019-03-19T15:22:34Z</time>
      </trkpt>
      <trkpt lat="44.24592" lon="5.67438">
        <ele>664</ele>
        <time>2019-03-19T15:22:35Z</time>
      </trkpt>
      <trkpt lat="44.24589" lon="5.67443">
        <ele>664</ele>
        <time>2019-03-19T15:22:36Z</time>
      </trkpt>
      <trkpt lat="44.24585" lon="5.67449">
        <ele>664</ele>
        <time>2019-03-19T15:22:37Z</time>
      </trkpt>
      <trkpt lat="44.24582" lon="5.67454">
        <ele>664</ele>
        <time>2019-03-19T15:22:38Z</time>
      </trkpt>
      <trkpt lat="44.24578" lon="5.6746">
        <ele>664</ele>
        <time>2019-03-19T15:22:39Z</time>
      </trkpt>
      <trkpt lat="44.24575" lon="5.67466">
        <ele>664</ele>
        <time>2019-03-19T15:22:40Z</time>
      </trkpt>
      <trkpt lat="44.24571" lon="5.67472">
        <ele>664</ele>
        <time>2019-03-19T15:22:41Z</time>
      </trkpt>
      <trkpt lat="44.24567" lon="5.67478">
        <ele>664</ele>
        <time>2019-03-19T15:22:42Z</time>
      </trkpt>
      <trkpt lat="44.24564" lon="5.67483">
        <ele>664</ele>
        <time>2019-03-19T15:22:43Z</time>
      </trkpt>
      <trkpt lat="44.24561" lon="5.67489">
        <ele>664</ele>
        <time>2019-03-19T15:22:44Z</time>
      </trkpt>
      <trkpt lat="44.24558" lon="5.67496">
        <ele>664</ele>
        <time>2019-03-19T15:22:45Z</time>
      </trkpt>
      <trkpt lat="44.24555" lon="5.67502">
        <ele>664</ele>
        <time>2019-03-19T15:22:46Z</time>
      </trkpt>
      <trkpt lat="44.24552" lon="5.67509">
        <ele>664</ele>
        <time>2019-03-19T15:22:47Z</time>
      </trkpt>
      <trkpt lat="44.2455" lon="5.67515">
        <ele>664</ele>
        <time>2019-03-19T15:22:48Z</time>
      </trkpt>
      <trkpt lat="44.24548" lon="5.67522">
        <ele>664</ele>
        <time>2019-03-19T15:22:49Z</time>
      </trkpt>
      <trkpt lat="44.24546" lon="5.67529">
        <ele>664</ele>
        <time>2019-03-19T15:22:50Z</time>
      </trkpt>
      <trkpt lat="44.24545" lon="5.67537">
        <ele>664</ele>
        <time>2019-03-19T15:22:51Z</time>
      </trkpt>
      <trkpt lat="44.24544" lon="5.67546">
        <ele>664</ele>
        <time>2019-03-19T15:22:52Z</time>
      </trkpt>
      <trkpt lat="44.24543" lon="5.67554">
        <ele>664</ele>
        <time>2019-03-19T15:22:53Z</time>
      </trkpt>
      <trkpt lat="44.24543" lon="5.67563">
        <ele>664</ele>
        <time>2019-03-19T15:22:54Z</time>
      </trkpt>
      <trkpt lat="44.24544" lon="5.67572">
        <ele>664</ele>
        <time>2019-03-19T15:22:55Z</time>
      </trkpt>
      <trkpt lat="44.24545" lon="5.67581">
        <ele>664</ele>
        <time>2019-03-19T15:22:56Z</time>
      </trkpt>
      <trkpt lat="44.24546" lon="5.67591">
        <ele>664</ele>
        <time>2019-03-19T15:22:57Z</time>
      </trkpt>
      <trkpt lat="44.24547" lon="5.676">
        <ele>664</ele>
        <time>2019-03-19T15:22:58Z</time>
      </trkpt>
      <trkpt lat="44.24548" lon="5.6761">
        <ele>664</ele>
        <time>2019-03-19T15:22:59Z</time>
      </trkpt>
      <trkpt lat="44.24548" lon="5.67619">
        <ele>664</ele>
        <time>2019-03-19T15:23:00Z</time>
      </trkpt>
      <trkpt lat="44.24548" lon="5.67629">
        <ele>664</ele>
        <time>2019-03-19T15:23:01Z</time>
      </trkpt>
      <trkpt lat="44.24548" lon="5.67638">
        <ele>664</ele>
        <time>2019-03-19T15:23:02Z</time>
      </trkpt>
      <trkpt lat="44.24547" lon="5.67648">
        <ele>664</ele>
        <time>2019-03-19T15:23:03Z</time>
      </trkpt>
      <trkpt lat="44.24545" lon="5.67657">
        <ele>664</ele>
        <time>2019-03-19T15:23:04Z</time>
      </trkpt>
      <trkpt lat="44.24543" lon="5.67665">
        <ele>664</ele>
        <time>2019-03-19T15:23:05Z</time>
      </trkpt>
      <trkpt lat="44.24542" lon="5.67674">
        <ele>664</ele>
        <time>2019-03-19T15:23:06Z</time>
      </trkpt>
      <trkpt lat="44.2454" lon="5.67682">
        <ele>664</ele>
        <time>2019-03-19T15:23:07Z</time>
      </trkpt>
      <trkpt lat="44.24538" lon="5.67689">
        <ele>664</ele>
        <time>2019-03-19T15:23:08Z</time>
      </trkpt>
      <trkpt lat="44.24537" lon="5.67696">
        <ele>664</ele>
        <time>2019-03-19T15:23:09Z</time>
      </trkpt>
      <trkpt lat="44.24535" lon="5.67703">
        <ele>664</ele>
        <time>2019-03-19T15:23:10Z</time>
      </trkpt>
      <trkpt lat="44.24534" lon="5.6771">
        <ele>664</ele>
        <time>2019-03-19T15:23:11Z</time>
      </trkpt>
      <trkpt lat="44.24533" lon="5.67716">
        <ele>664</ele>
        <time>2019-03-19T15:23:12Z</time>
      </trkpt>
      <trkpt lat="44.24532" lon="5.67723">
        <ele>664</ele>
        <time>2019-03-19T15:23:13Z</time>
      </trkpt>
      <trkpt lat="44.24531" lon="5.67729">
        <ele>664</ele>
        <time>2019-03-19T15:23:14Z</time>
      </trkpt>
      <trkpt lat="44.2453" lon="5.67735">
        <ele>664</ele>
        <time>2019-03-19T15:23:15Z</time>
      </trkpt>
      <trkpt lat="44.24529" lon="5.67742">
        <ele>664</ele>
        <time>2019-03-19T15:23:16Z</time>
      </trkpt>
      <trkpt lat="44.24528" lon="5.67748">
        <ele>664</ele>
        <time>2019-03-19T15:23:17Z</time>
      </trkpt>
      <trkpt lat="44.24527" lon="5.67754">
        <ele>664</ele>
        <time>2019-03-19T15:23:18Z</time>
      </trkpt>
      <trkpt lat="44.24526" lon="5.67759">
        <ele>664</ele>
        <time>2019-03-19T15:23:19Z</time>
      </trkpt>
      <trkpt lat="44.24525" lon="5.67765">
        <ele>664</ele>
        <time>2019-03-19T15:23:20Z</time>
      </trkpt>
      <trkpt lat="44.24525" lon="5.6777">
        <ele>664</ele>
        <time>2019-03-19T15:23:21Z</time>
      </trkpt>
      <trkpt lat="44.24524" lon="5.67776">
        <ele>664</ele>
        <time>2019-03-19T15:23:22Z</time>
      </trkpt>
      <trkpt lat="44.24524" lon="5.67781">
        <ele>664</ele>
        <time>2019-03-19T15:23:23Z</time>
      </trkpt>
      <trkpt lat="44.24524" lon="5.67785">
        <ele>664</ele>
        <time>2019-03-19T15:23:24Z</time>
      </trkpt>
      <trkpt lat="44.24523" lon="5.6779">
        <ele>664</ele>
        <time>2019-03-19T15:23:25Z</time>
      </trkpt>
      <trkpt lat="44.24522" lon="5.67795">
        <ele>664</ele>
        <time>2019-03-19T15:23:26Z</time>
      </trkpt>
      <trkpt lat="44.24521" lon="5.67799">
        <ele>664</ele>
        <time>2019-03-19T15:23:27Z</time>
      </trkpt>
      <trkpt lat="44.24521" lon="5.67803">
        <ele>664</ele>
        <time>2019-03-19T15:23:28Z</time>
      </trkpt>
      <trkpt lat="44.2452" lon="5.67806">
        <ele>664</ele>
        <time>2019-03-19T15:23:29Z</time>
      </trkpt>
      <trkpt lat="44.2452" lon="5.6781">
        <ele>664</ele>
        <time>2019-03-19T15:23:30Z</time>
      </trkpt>
      <trkpt lat="44.2452" lon="5.67813">
        <ele>664</ele>
        <time>2019-03-19T15:23:31Z</time>
      </trkpt>
      <trkpt lat="44.2452" lon="5.67815">
        <ele>664</ele>
        <time>2019-03-19T15:23:32Z</time>
      </trkpt>
      <trkpt lat="44.24519" lon="5.67818">
        <ele>664</ele>
        <time>2019-03-19T15:23:33Z</time>
      </trkpt>
      <trkpt lat="44.24519" lon="5.6782">
        <ele>664</ele>
        <time>2019-03-19T15:23:34Z</time>
      </trkpt>
      <trkpt lat="44.24518" lon="5.67823">
        <ele>664</ele>
        <time>2019-03-19T15:23:35Z</time>
      </trkpt>
      <trkpt lat="44.24518" lon="5.67825">
        <ele>664</ele>
        <time>2019-03-19T15:23:36Z</time>
      </trkpt>
      <trkpt lat="44.24517" lon="5.67827">
        <ele>664</ele>
        <time>2019-03-19T15:23:37Z</time>
      </trkpt>
      <trkpt lat="44.24517" lon="5.67828">
        <ele>664</ele>
        <time>2019-03-19T15:23:38Z</time>
      </trkpt>
      <trkpt lat="44.24517" lon="5.67831">
        <ele>664</ele>
        <time>2019-03-19T15:23:40Z</time>
      </trkpt>
      <trkpt lat="44.24518" lon="5.67834">
        <ele>664</ele>
        <time>2019-03-19T15:23:42Z</time>
      </trkpt>
      <trkpt lat="44.24518" lon="5.67836">
        <ele>664</ele>
        <time>2019-03-19T15:23:43Z</time>
      </trkpt>
      <trkpt lat="44.24519" lon="5.67838">
        <ele>664</ele>
        <time>2019-03-19T15:23:44Z</time>
      </trkpt>
      <trkpt lat="44.24519" lon="5.6784">
        <ele>664</ele>
        <time>2019-03-19T15:23:45Z</time>
      </trkpt>
      <trkpt lat="44.2452" lon="5.67843">
        <ele>664</ele>
        <time>2019-03-19T15:23:46Z</time>
      </trkpt>
      <trkpt lat="44.2452" lon="5.67847">
        <ele>664</ele>
        <time>2019-03-19T15:23:47Z</time>
      </trkpt>
      <trkpt lat="44.2452" lon="5.67851">
        <ele>664</ele>
        <time>2019-03-19T15:23:48Z</time>
      </trkpt>
      <trkpt lat="44.2452" lon="5.67856">
        <ele>664</ele>
        <time>2019-03-19T15:23:49Z</time>
      </trkpt>
      <trkpt lat="44.2452" lon="5.67861">
        <ele>664</ele>
        <time>2019-03-19T15:23:50Z</time>
      </trkpt>
      <trkpt lat="44.24521" lon="5.67866">
        <ele>664</ele>
        <time>2019-03-19T15:23:51Z</time>
      </trkpt>
      <trkpt lat="44.24521" lon="5.67872">
        <ele>664</ele>
        <time>2019-03-19T15:23:52Z</time>
      </trkpt>
      <trkpt lat="44.24521" lon="5.67878">
        <ele>664</ele>
        <time>2019-03-19T15:23:53Z</time>
      </trkpt>
      <trkpt lat="44.24522" lon="5.67884">
        <ele>664</ele>
        <time>2019-03-19T15:23:54Z</time>
      </trkpt>
      <trkpt lat="44.24522" lon="5.67891">
        <ele>664</ele>
        <time>2019-03-19T15:23:55Z</time>
      </trkpt>
      <trkpt lat="44.24523" lon="5.67898">
        <ele>664</ele>
        <time>2019-03-19T15:23:56Z</time>
      </trkpt>
      <trkpt lat="44.24524" lon="5.67905">
        <ele>664</ele>
        <time>2019-03-19T15:23:57Z</time>
      </trkpt>
      <trkpt lat="44.24524" lon="5.67913">
        <ele>664</ele>
        <time>2019-03-19T15:23:58Z</time>
      </trkpt>
      <trkpt lat="44.24524" lon="5.6792">
        <ele>664</ele>
        <time>2019-03-19T15:23:59Z</time>
      </trkpt>
      <trkpt lat="44.24525" lon="5.67927">
        <ele>664</ele>
        <time>2019-03-19T15:24:00Z</time>
      </trkpt>
      <trkpt lat="44.24525" lon="5.67934">
        <ele>664</ele>
        <time>2019-03-19T15:24:01Z</time>
      </trkpt>
      <trkpt lat="44.24525" lon="5.67942">
        <ele>664</ele>
        <time>2019-03-19T15:24:02Z</time>
      </trkpt>
      <trkpt lat="44.24525" lon="5.67949">
        <ele>664</ele>
        <time>2019-03-19T15:24:03Z</time>
      </trkpt>
      <trkpt lat="44.24525" lon="5.67956">
        <ele>664</ele>
        <time>2019-03-19T15:24:04Z</time>
      </trkpt>
      <trkpt lat="44.24525" lon="5.67964">
        <ele>664</ele>
        <time>2019-03-19T15:24:05Z</time>
      </trkpt>
      <trkpt lat="44.24526" lon="5.67972">
        <ele>664</ele>
        <time>2019-03-19T15:24:06Z</time>
      </trkpt>
      <trkpt lat="44.24526" lon="5.67979">
        <ele>664</ele>
        <time>2019-03-19T15:24:07Z</time>
      </trkpt>
      <trkpt lat="44.24527" lon="5.67986">
        <ele>664</ele>
        <time>2019-03-19T15:24:08Z</time>
      </trkpt>
      <trkpt lat="44.24527" lon="5.67994">
        <ele>664</ele>
        <time>2019-03-19T15:24:09Z</time>
      </trkpt>
      <trkpt lat="44.24527" lon="5.68001">
        <ele>664</ele>
        <time>2019-03-19T15:24:10Z</time>
      </trkpt>
      <trkpt lat="44.24527" lon="5.68009">
        <ele>664</ele>
        <time>2019-03-19T15:24:11Z</time>
      </trkpt>
      <trkpt lat="44.24527" lon="5.68016">
        <ele>664</ele>
        <time>2019-03-19T15:24:12Z</time>
      </trkpt>
      <trkpt lat="44.24528" lon="5.68023">
        <ele>664</ele>
        <time>2019-03-19T15:24:13Z</time>
      </trkpt>
      <trkpt lat="44.24528" lon="5.68031">
        <ele>664</ele>
        <time>2019-03-19T15:24:14Z</time>
      </trkpt>
      <trkpt lat="44.24528" lon="5.68039">
        <ele>664</ele>
        <time>2019-03-19T15:24:15Z</time>
      </trkpt>
      <trkpt lat="44.24529" lon="5.68047">
        <ele>664</ele>
        <time>2019-03-19T15:24:16Z</time>
      </trkpt>
      <trkpt lat="44.2453" lon="5.68055">
        <ele>664</ele>
        <time>2019-03-19T15:24:17Z</time>
      </trkpt>
      <trkpt lat="44.2453" lon="5.68064">
        <ele>664</ele>
        <time>2019-03-19T15:24:18Z</time>
      </trkpt>
      <trkpt lat="44.24532" lon="5.68072">
        <ele>664</ele>
        <time>2019-03-19T15:24:19Z</time>
      </trkpt>
      <trkpt lat="44.24533" lon="5.6808">
        <ele>664</ele>
        <time>2019-03-19T15:24:20Z</time>
      </trkpt>
      <trkpt lat="44.24535" lon="5.68088">
        <ele>664</ele>
        <time>2019-03-19T15:24:21Z</time>
      </trkpt>
      <trkpt lat="44.24536" lon="5.68096">
        <ele>664</ele>
        <time>2019-03-19T15:24:22Z</time>
      </trkpt>
      <trkpt lat="44.24538" lon="5.68104">
        <ele>664</ele>
        <time>2019-03-19T15:24:23Z</time>
      </trkpt>
      <trkpt lat="44.2454" lon="5.68112">
        <ele>664</ele>
        <time>2019-03-19T15:24:24Z</time>
      </trkpt>
      <trkpt lat="44.24542" lon="5.6812">
        <ele>664</ele>
        <time>2019-03-19T15:24:25Z</time>
      </trkpt>
      <trkpt lat="44.24544" lon="5.68128">
        <ele>664</ele>
        <time>2019-03-19T15:24:26Z</time>
      </trkpt>
      <trkpt lat="44.24546" lon="5.68136">
        <ele>664</ele>
        <time>2019-03-19T15:24:27Z</time>
      </trkpt>
      <trkpt lat="44.24548" lon="5.68144">
        <ele>664</ele>
        <time>2019-03-19T15:24:28Z</time>
      </trkpt>
      <trkpt lat="44.2455" lon="5.68152">
        <ele>664</ele>
        <time>2019-03-19T15:24:29Z</time>
      </trkpt>
      <trkpt lat="44.24553" lon="5.6816">
        <ele>664</ele>
        <time>2019-03-19T15:24:30Z</time>
      </trkpt>
      <trkpt lat="44.24555" lon="5.68168">
        <ele>664</ele>
        <time>2019-03-19T15:24:31Z</time>
      </trkpt>
      <trkpt lat="44.24557" lon="5.68176">
        <ele>664</ele>
        <time>2019-03-19T15:24:32Z</time>
      </trkpt>
      <trkpt lat="44.24559" lon="5.68184">
        <ele>664</ele>
        <time>2019-03-19T15:24:33Z</time>
      </trkpt>
      <trkpt lat="44.24561" lon="5.68192">
        <ele>664</ele>
        <time>2019-03-19T15:24:34Z</time>
      </trkpt>
      <trkpt lat="44.24563" lon="5.682">
        <ele>664</ele>
        <time>2019-03-19T15:24:35Z</time>
      </trkpt>
      <trkpt lat="44.24565" lon="5.68208">
        <ele>664</ele>
        <time>2019-03-19T15:24:36Z</time>
      </trkpt>
      <trkpt lat="44.24567" lon="5.68216">
        <ele>664</ele>
        <time>2019-03-19T15:24:37Z</time>
      </trkpt>
      <trkpt lat="44.24569" lon="5.68224">
        <ele>664</ele>
        <time>2019-03-19T15:24:38Z</time>
      </trkpt>
      <trkpt lat="44.24571" lon="5.68232">
        <ele>664</ele>
        <time>2019-03-19T15:24:39Z</time>
      </trkpt>
      <trkpt lat="44.24573" lon="5.6824">
        <ele>664</ele>
        <time>2019-03-19T15:24:40Z</time>
      </trkpt>
      <trkpt lat="44.24575" lon="5.68249">
        <ele>664</ele>
        <time>2019-03-19T15:24:41Z</time>
      </trkpt>
      <trkpt lat="44.24576" lon="5.68257">
        <ele>664</ele>
        <time>2019-03-19T15:24:42Z</time>
      </trkpt>
      <trkpt lat="44.24578" lon="5.68265">
        <ele>664</ele>
        <time>2019-03-19T15:24:43Z</time>
      </trkpt>
      <trkpt lat="44.2458" lon="5.68273">
        <ele>664</ele>
        <time>2019-03-19T15:24:44Z</time>
      </trkpt>
      <trkpt lat="44.24582" lon="5.68282">
        <ele>664</ele>
        <time>2019-03-19T15:24:45Z</time>
      </trkpt>
      <trkpt lat="44.24584" lon="5.6829">
        <ele>664</ele>
        <time>2019-03-19T15:24:46Z</time>
      </trkpt>
      <trkpt lat="44.24586" lon="5.68299">
        <ele>664</ele>
        <time>2019-03-19T15:24:47Z</time>
      </trkpt>
      <trkpt lat="44.24588" lon="5.68307">
        <ele>664</ele>
        <time>2019-03-19T15:24:48Z</time>
      </trkpt>
      <trkpt lat="44.24589" lon="5.68316">
        <ele>664</ele>
        <time>2019-03-19T15:24:49Z</time>
      </trkpt>
      <trkpt lat="44.24591" lon="5.68324">
        <ele>664</ele>
        <time>2019-03-19T15:24:50Z</time>
      </trkpt>
      <trkpt lat="44.24593" lon="5.68332">
        <ele>664</ele>
        <time>2019-03-19T15:24:51Z</time>
      </trkpt>
      <trkpt lat="44.24594" lon="5.68341">
        <ele>664</ele>
        <time>2019-03-19T15:24:52Z</time>
      </trkpt>
      <trkpt lat="44.24596" lon="5.68349">
        <ele>664</ele>
        <time>2019-03-19T15:24:53Z</time>
      </trkpt>
      <trkpt lat="44.24598" lon="5.68357">
        <ele>664</ele>
        <time>2019-03-19T15:24:54Z</time>
      </trkpt>
      <trkpt lat="44.24599" lon="5.68365">
        <ele>664</ele>
        <time>2019-03-19T15:24:55Z</time>
      </trkpt>
      <trkpt lat="44.24601" lon="5.68373">
        <ele>664</ele>
        <time>2019-03-19T15:24:56Z</time>
      </trkpt>
      <trkpt lat="44.24603" lon="5.68381">
        <ele>664</ele>
        <time>2019-03-19T15:24:57Z</time>
      </trkpt>
      <trkpt lat="44.24604" lon="5.6839">
        <ele>664</ele>
        <time>2019-03-19T15:24:58Z</time>
      </trkpt>
      <trkpt lat="44.24606" lon="5.68398">
        <ele>664</ele>
        <time>2019-03-19T15:24:59Z</time>
      </trkpt>
      <trkpt lat="44.24608" lon="5.68406">
        <ele>664</ele>
        <time>2019-03-19T15:25:00Z</time>
      </trkpt>
      <trkpt lat="44.2461" lon="5.68415">
        <ele>664</ele>
        <time>2019-03-19T15:25:01Z</time>
      </trkpt>
      <trkpt lat="44.24612" lon="5.68423">
        <ele>664</ele>
        <time>2019-03-19T15:25:02Z</time>
      </trkpt>
      <trkpt lat="44.24614" lon="5.68431">
        <ele>664</ele>
        <time>2019-03-19T15:25:03Z</time>
      </trkpt>
      <trkpt lat="44.24616" lon="5.68439">
        <ele>664</ele>
        <time>2019-03-19T15:25:04Z</time>
      </trkpt>
      <trkpt lat="44.24617" lon="5.68447">
        <ele>664</ele>
        <time>2019-03-19T15:25:05Z</time>
      </trkpt>
      <trkpt lat="44.24619" lon="5.68455">
        <ele>664</ele>
        <time>2019-03-19T15:25:06Z</time>
      </trkpt>
      <trkpt lat="44.24619" lon="5.68463">
        <ele>664</ele>
        <time>2019-03-19T15:25:07Z</time>
      </trkpt>
      <trkpt lat="44.24619" lon="5.6847">
        <ele>664</ele>
        <time>2019-03-19T15:25:08Z</time>
      </trkpt>
      <trkpt lat="44.2462" lon="5.68477">
        <ele>664</ele>
        <time>2019-03-19T15:25:09Z</time>
      </trkpt>
      <trkpt lat="44.2462" lon="5.68484">
        <ele>664</ele>
        <time>2019-03-19T15:25:10Z</time>
      </trkpt>
      <trkpt lat="44.24621" lon="5.68491">
        <ele>664</ele>
        <time>2019-03-19T15:25:11Z</time>
      </trkpt>
      <trkpt lat="44.24621" lon="5.68498">
        <ele>664</ele>
        <time>2019-03-19T15:25:12Z</time>
      </trkpt>
      <trkpt lat="44.24622" lon="5.68504">
        <ele>664</ele>
        <time>2019-03-19T15:25:13Z</time>
      </trkpt>
      <trkpt lat="44.24622" lon="5.68511">
        <ele>664</ele>
        <time>2019-03-19T15:25:14Z</time>
      </trkpt>
      <trkpt lat="44.24623" lon="5.68518">
        <ele>664</ele>
        <time>2019-03-19T15:25:15Z</time>
      </trkpt>
      <trkpt lat="44.24623" lon="5.68525">
        <ele>664</ele>
        <time>2019-03-19T15:25:16Z</time>
      </trkpt>
      <trkpt lat="44.24623" lon="5.68531">
        <ele>664</ele>
        <time>2019-03-19T15:25:17Z</time>
      </trkpt>
      <trkpt lat="44.24624" lon="5.68537">
        <ele>664</ele>
        <time>2019-03-19T15:25:18Z</time>
      </trkpt>
      <trkpt lat="44.24624" lon="5.68543">
        <ele>664</ele>
        <time>2019-03-19T15:25:19Z</time>
      </trkpt>
      <trkpt lat="44.24625" lon="5.68549">
        <ele>664</ele>
        <time>2019-03-19T15:25:20Z</time>
      </trkpt>
      <trkpt lat="44.24625" lon="5.68556">
        <ele>664</ele>
        <time>2019-03-19T15:25:21Z</time>
      </trkpt>
      <trkpt lat="44.24625" lon="5.68562">
        <ele>664</ele>
        <time>2019-03-19T15:25:22Z</time>
      </trkpt>
      <trkpt lat="44.24625" lon="5.68568">
        <ele>664</ele>
        <time>2019-03-19T15:25:23Z</time>
      </trkpt>
      <trkpt lat="44.24625" lon="5.68573">
        <ele>664</ele>
        <time>2019-03-19T15:25:24Z</time>
      </trkpt>
      <trkpt lat="44.24626" lon="5.68578">
        <ele>664</ele>
        <time>2019-03-19T15:25:25Z</time>
      </trkpt>
      <trkpt lat="44.24626" lon="5.68583">
        <ele>664</ele>
        <time>2019-03-19T15:25:26Z</time>
      </trkpt>
      <trkpt lat="44.24626" lon="5.68588">
        <ele>664</ele>
        <time>2019-03-19T15:25:27Z</time>
      </trkpt>
      <trkpt lat="44.24626" lon="5.68593">
        <ele>664</ele>
        <time>2019-03-19T15:25:28Z</time>
      </trkpt>
      <trkpt lat="44.24626" lon="5.68596">
        <ele>664</ele>
        <time>2019-03-19T15:25:29Z</time>
      </trkpt>
      <trkpt lat="44.24626" lon="5.686">
        <ele>664</ele>
        <time>2019-03-19T15:25:30Z</time>
      </trkpt>
      <trkpt lat="44.24626" lon="5.68603">
        <ele>664</ele>
        <time>2019-03-19T15:25:31Z</time>
      </trkpt>
      <trkpt lat="44.24626" lon="5.68606">
        <ele>664</ele>
        <time>2019-03-19T15:25:32Z</time>
      </trkpt>
      <trkpt lat="44.24625" lon="5.68609">
        <ele>664</ele>
        <time>2019-03-19T15:25:33Z</time>
      </trkpt>
      <trkpt lat="44.24625" lon="5.68611">
        <ele>664</ele>
        <time>2019-03-19T15:25:34Z</time>
      </trkpt>
      <trkpt lat="44.24625" lon="5.68615">
        <ele>664</ele>
        <time>2019-03-19T15:25:35Z</time>
      </trkpt>
      <trkpt lat="44.24626" lon="5.68618">
        <ele>664</ele>
        <time>2019-03-19T15:25:36Z</time>
      </trkpt>
      <trkpt lat="44.24626" lon="5.68621">
        <ele>664</ele>
        <time>2019-03-19T15:25:37Z</time>
      </trkpt>
      <trkpt lat="44.24627" lon="5.68624">
        <ele>664</ele>
        <time>2019-03-19T15:25:38Z</time>
      </trkpt>
      <trkpt lat="44.24627" lon="5.68627">
        <ele>664</ele>
        <time>2019-03-19T15:25:39Z</time>
      </trkpt>
      <trkpt lat="44.24627" lon="5.6863">
        <ele>664</ele>
        <time>2019-03-19T15:25:40Z</time>
      </trkpt>
      <trkpt lat="44.24627" lon="5.68633">
        <ele>664</ele>
        <time>2019-03-19T15:25:41Z</time>
      </trkpt>
      <trkpt lat="44.24627" lon="5.68635">
        <ele>664</ele>
        <time>2019-03-19T15:25:42Z</time>
      </trkpt>
      <trkpt lat="44.24626" lon="5.68638">
        <ele>664</ele>
        <time>2019-03-19T15:25:43Z</time>
      </trkpt>
      <trkpt lat="44.24626" lon="5.6864">
        <ele>664</ele>
        <time>2019-03-19T15:25:44Z</time>
      </trkpt>
      <trkpt lat="44.24626" lon="5.68642">
        <ele>664</ele>
        <time>2019-03-19T15:25:45Z</time>
      </trkpt>
      <trkpt lat="44.24626" lon="5.68644">
        <ele>664</ele>
        <time>2019-03-19T15:25:46Z</time>
      </trkpt>
      <trkpt lat="44.24627" lon="5.68645">
        <ele>664</ele>
        <time>2019-03-19T15:25:47Z</time>
      </trkpt>
      <trkpt lat="44.24627" lon="5.68647">
        <ele>664</ele>
        <time>2019-03-19T15:25:49Z</time>
      </trkpt>
      <trkpt lat="44.24628" lon="5.68648">
        <ele>664</ele>
        <time>2019-03-19T15:25:53Z</time>
      </trkpt>
      <trkpt lat="44.24628" lon="5.68651">
        <ele>664</ele>
        <time>2019-03-19T15:25:56Z</time>
      </trkpt>
      <trkpt lat="44.24627" lon="5.68653">
        <ele>664</ele>
        <time>2019-03-19T15:26:01Z</time>
      </trkpt>
      <trkpt lat="44.24626" lon="5.68654">
        <ele>664</ele>
        <time>2019-03-19T15:26:05Z</time>
      </trkpt>
      <trkpt lat="44.24625" lon="5.68656">
        <ele>664</ele>
        <time>2019-03-19T15:26:10Z</time>
      </trkpt>
      <trkpt lat="44.24625" lon="5.68658">
        <ele>664</ele>
        <time>2019-03-19T15:26:13Z</time>
      </trkpt>
      <trkpt lat="44.24625" lon="5.6866">
        <ele>664</ele>
        <time>2019-03-19T15:26:15Z</time>
      </trkpt>
      <trkpt lat="44.24625" lon="5.68662">
        <ele>664</ele>
        <time>2019-03-19T15:26:19Z</time>
      </trkpt>
      <trkpt lat="44.24623" lon="5.68662">
        <ele>664</ele>
        <time>2019-03-19T15:26:23Z</time>
      </trkpt>
      <trkpt lat="44.24625" lon="5.68664">
        <ele>664</ele>
        <time>2019-03-19T15:26:29Z</time>
      </trkpt>
      <trkpt lat="44.24625" lon="5.68667">
        <ele>664</ele>
        <time>2019-03-19T15:26:31Z</time>
      </trkpt>
      <trkpt lat="44.24626" lon="5.68668">
        <ele>664</ele>
        <time>2019-03-19T15:26:35Z</time>
      </trkpt>
      <trkpt lat="44.24626" lon="5.6867">
        <ele>664</ele>
        <time>2019-03-19T15:26:39Z</time>
      </trkpt>
      <trkpt lat="44.24627" lon="5.68669">
        <ele>664</ele>
        <time>2019-03-19T15:26:51Z</time>
      </trkpt>
      <trkpt lat="44.24627" lon="5.6867">
        <ele>664</ele>
        <time>2019-03-19T15:27:00Z</time>
      </trkpt>
      <trkpt lat="44.24626" lon="5.68669">
        <ele>664</ele>
        <time>2019-03-19T15:27:04Z</time>
      </trkpt>
      <trkpt lat="44.2463" lon="5.6867">
        <ele>670</ele>
        <time>2019-03-19T15:27:13Z</time>
      </trkpt>
      <trkpt lat="44.24631" lon="5.68669">
        <ele>670</ele>
        <time>2019-03-19T15:27:14Z</time>
      </trkpt>
      <trkpt lat="44.24629" lon="5.6867">
        <ele>667</ele>
        <time>2019-03-19T15:27:25Z</time>
      </trkpt>
      <trkpt lat="44.24629" lon="5.68671">
        <ele>665</ele>
        <time>2019-03-19T15:27:30Z</time>
      </trkpt>
      <trkpt lat="44.2463" lon="5.68673">
        <ele>665</ele>
        <time>2019-03-19T15:27:35Z</time>
      </trkpt>
      <trkpt lat="44.24628" lon="5.68674">
        <ele>664</ele>
        <time>2019-03-19T15:27:37Z</time>
      </trkpt>
      <trkpt lat="44.24628" lon="5.68676">
        <ele>663</ele>
        <time>2019-03-19T15:27:39Z</time>
      </trkpt>
      <trkpt lat="44.24628" lon="5.68677">
        <ele>663</ele>
        <time>2019-03-19T15:27:40Z</time>
      </trkpt>
      <trkpt lat="44.24628" lon="5.6868">
        <ele>663</ele>
        <time>2019-03-19T15:27:42Z</time>
      </trkpt>
      <trkpt lat="44.24628" lon="5.68681">
        <ele>663</ele>
        <time>2019-03-19T15:27:43Z</time>
      </trkpt>
      <trkpt lat="44.24628" lon="5.68683">
        <ele>663</ele>
        <time>2019-03-19T15:27:44Z</time>
      </trkpt>
      <trkpt lat="44.24628" lon="5.68685">
        <ele>663</ele>
        <time>2019-03-19T15:27:45Z</time>
      </trkpt>
      <trkpt lat="44.24628" lon="5.68687">
        <ele>663</ele>
        <time>2019-03-19T15:27:46Z</time>
      </trkpt>
      <trkpt lat="44.24629" lon="5.6869">
        <ele>663</ele>
        <time>2019-03-19T15:27:47Z</time>
      </trkpt>
      <trkpt lat="44.24629" lon="5.68693">
        <ele>663</ele>
        <time>2019-03-19T15:27:48Z</time>
      </trkpt>
      <trkpt lat="44.24629" lon="5.68695">
        <ele>663</ele>
        <time>2019-03-19T15:27:49Z</time>
      </trkpt>
      <trkpt lat="44.2463" lon="5.68698">
        <ele>663</ele>
        <time>2019-03-19T15:27:50Z</time>
      </trkpt>
      <trkpt lat="44.2463" lon="5.68701">
        <ele>663</ele>
        <time>2019-03-19T15:27:51Z</time>
      </trkpt>
      <trkpt lat="44.2463" lon="5.68703">
        <ele>663</ele>
        <time>2019-03-19T15:27:52Z</time>
      </trkpt>
      <trkpt lat="44.24631" lon="5.68706">
        <ele>663</ele>
        <time>2019-03-19T15:27:53Z</time>
      </trkpt>
      <trkpt lat="44.24632" lon="5.68708">
        <ele>663</ele>
        <time>2019-03-19T15:27:54Z</time>
      </trkpt>
      <trkpt lat="44.24632" lon="5.68711">
        <ele>663</ele>
        <time>2019-03-19T15:27:55Z</time>
      </trkpt>
      <trkpt lat="44.24632" lon="5.68714">
        <ele>663</ele>
        <time>2019-03-19T15:27:56Z</time>
      </trkpt>
      <trkpt lat="44.24633" lon="5.68717">
        <ele>663</ele>
        <time>2019-03-19T15:27:57Z</time>
      </trkpt>
      <trkpt lat="44.24633" lon="5.6872">
        <ele>663</ele>
        <time>2019-03-19T15:27:58Z</time>
      </trkpt>
      <trkpt lat="44.24633" lon="5.68724">
        <ele>663</ele>
        <time>2019-03-19T15:27:59Z</time>
      </trkpt>
      <trkpt lat="44.24634" lon="5.68728">
        <ele>663</ele>
        <time>2019-03-19T15:28:00Z</time>
      </trkpt>
      <trkpt lat="44.24635" lon="5.68732">
        <ele>663</ele>
        <time>2019-03-19T15:28:01Z</time>
      </trkpt>
      <trkpt lat="44.24635" lon="5.68736">
        <ele>663</ele>
        <time>2019-03-19T15:28:02Z</time>
      </trkpt>
      <trkpt lat="44.24635" lon="5.6874">
        <ele>663</ele>
        <time>2019-03-19T15:28:03Z</time>
      </trkpt>
      <trkpt lat="44.24636" lon="5.68744">
        <ele>663</ele>
        <time>2019-03-19T15:28:04Z</time>
      </trkpt>
      <trkpt lat="44.24636" lon="5.68749">
        <ele>663</ele>
        <time>2019-03-19T15:28:05Z</time>
      </trkpt>
      <trkpt lat="44.24636" lon="5.68753">
        <ele>663</ele>
        <time>2019-03-19T15:28:06Z</time>
      </trkpt>
      <trkpt lat="44.24636" lon="5.68757">
        <ele>663</ele>
        <time>2019-03-19T15:28:07Z</time>
      </trkpt>
      <trkpt lat="44.24637" lon="5.68762">
        <ele>663</ele>
        <time>2019-03-19T15:28:08Z</time>
      </trkpt>
      <trkpt lat="44.24638" lon="5.68767">
        <ele>663</ele>
        <time>2019-03-19T15:28:09Z</time>
      </trkpt>
      <trkpt lat="44.24638" lon="5.68772">
        <ele>663</ele>
        <time>2019-03-19T15:28:10Z</time>
      </trkpt>
      <trkpt lat="44.24639" lon="5.68777">
        <ele>663</ele>
        <time>2019-03-19T15:28:11Z</time>
      </trkpt>
      <trkpt lat="44.24639" lon="5.68782">
        <ele>663</ele>
        <time>2019-03-19T15:28:12Z</time>
      </trkpt>
      <trkpt lat="44.24639" lon="5.68787">
        <ele>663</ele>
        <time>2019-03-19T15:28:13Z</time>
      </trkpt>
      <trkpt lat="44.2464" lon="5.68792">
        <ele>663</ele>
        <time>2019-03-19T15:28:14Z</time>
      </trkpt>
      <trkpt lat="44.2464" lon="5.68797">
        <ele>663</ele>
        <time>2019-03-19T15:28:15Z</time>
      </trkpt>
      <trkpt lat="44.24641" lon="5.68802">
        <ele>663</ele>
        <time>2019-03-19T15:28:16Z</time>
      </trkpt>
      <trkpt lat="44.24641" lon="5.68807">
        <ele>663</ele>
        <time>2019-03-19T15:28:17Z</time>
      </trkpt>
      <trkpt lat="44.24642" lon="5.68812">
        <ele>663</ele>
        <time>2019-03-19T15:28:18Z</time>
      </trkpt>
      <trkpt lat="44.24643" lon="5.68818">
        <ele>663</ele>
        <time>2019-03-19T15:28:19Z</time>
      </trkpt>
      <trkpt lat="44.24644" lon="5.68824">
        <ele>663</ele>
        <time>2019-03-19T15:28:20Z</time>
      </trkpt>
      <trkpt lat="44.24644" lon="5.68829">
        <ele>663</ele>
        <time>2019-03-19T15:28:21Z</time>
      </trkpt>
      <trkpt lat="44.24645" lon="5.68835">
        <ele>663</ele>
        <time>2019-03-19T15:28:22Z</time>
      </trkpt>
      <trkpt lat="44.24646" lon="5.68841">
        <ele>663</ele>
        <time>2019-03-19T15:28:23Z</time>
      </trkpt>
      <trkpt lat="44.24647" lon="5.68846">
        <ele>663</ele>
        <time>2019-03-19T15:28:24Z</time>
      </trkpt>
      <trkpt lat="44.24648" lon="5.68852">
        <ele>663</ele>
        <time>2019-03-19T15:28:25Z</time>
      </trkpt>
      <trkpt lat="44.24649" lon="5.68858">
        <ele>663</ele>
        <time>2019-03-19T15:28:26Z</time>
      </trkpt>
      <trkpt lat="44.2465" lon="5.68863">
        <ele>663</ele>
        <time>2019-03-19T15:28:27Z</time>
      </trkpt>
      <trkpt lat="44.2465" lon="5.68869">
        <ele>663</ele>
        <time>2019-03-19T15:28:28Z</time>
      </trkpt>
      <trkpt lat="44.24651" lon="5.68875">
        <ele>663</ele>
        <time>2019-03-19T15:28:29Z</time>
      </trkpt>
      <trkpt lat="44.24651" lon="5.6888">
        <ele>663</ele>
        <time>2019-03-19T15:28:30Z</time>
      </trkpt>
      <trkpt lat="44.24652" lon="5.68886">
        <ele>663</ele>
        <time>2019-03-19T15:28:31Z</time>
      </trkpt>
      <trkpt lat="44.24653" lon="5.68892">
        <ele>663</ele>
        <time>2019-03-19T15:28:32Z</time>
      </trkpt>
      <trkpt lat="44.24654" lon="5.68898">
        <ele>663</ele>
        <time>2019-03-19T15:28:33Z</time>
      </trkpt>
      <trkpt lat="44.24654" lon="5.68904">
        <ele>663</ele>
        <time>2019-03-19T15:28:34Z</time>
      </trkpt>
      <trkpt lat="44.24655" lon="5.68911">
        <ele>663</ele>
        <time>2019-03-19T15:28:35Z</time>
      </trkpt>
      <trkpt lat="44.24656" lon="5.68918">
        <ele>663</ele>
        <time>2019-03-19T15:28:36Z</time>
      </trkpt>
      <trkpt lat="44.24657" lon="5.68925">
        <ele>663</ele>
        <time>2019-03-19T15:28:37Z</time>
      </trkpt>
      <trkpt lat="44.24657" lon="5.68932">
        <ele>663</ele>
        <time>2019-03-19T15:28:38Z</time>
      </trkpt>
      <trkpt lat="44.24659" lon="5.68939">
        <ele>663</ele>
        <time>2019-03-19T15:28:39Z</time>
      </trkpt>
      <trkpt lat="44.2466" lon="5.68946">
        <ele>663</ele>
        <time>2019-03-19T15:28:40Z</time>
      </trkpt>
      <trkpt lat="44.2466" lon="5.68953">
        <ele>663</ele>
        <time>2019-03-19T15:28:41Z</time>
      </trkpt>
      <trkpt lat="44.24662" lon="5.68961">
        <ele>663</ele>
        <time>2019-03-19T15:28:42Z</time>
      </trkpt>
      <trkpt lat="44.24662" lon="5.68968">
        <ele>663</ele>
        <time>2019-03-19T15:28:43Z</time>
      </trkpt>
      <trkpt lat="44.24664" lon="5.68975">
        <ele>663</ele>
        <time>2019-03-19T15:28:44Z</time>
      </trkpt>
      <trkpt lat="44.24665" lon="5.68983">
        <ele>663</ele>
        <time>2019-03-19T15:28:45Z</time>
      </trkpt>
      <trkpt lat="44.24666" lon="5.6899">
        <ele>663</ele>
        <time>2019-03-19T15:28:46Z</time>
      </trkpt>
      <trkpt lat="44.24667" lon="5.68998">
        <ele>663</ele>
        <time>2019-03-19T15:28:47Z</time>
      </trkpt>
      <trkpt lat="44.24669" lon="5.69006">
        <ele>663</ele>
        <time>2019-03-19T15:28:48Z</time>
      </trkpt>
      <trkpt lat="44.24671" lon="5.69014">
        <ele>663</ele>
        <time>2019-03-19T15:28:49Z</time>
      </trkpt>
      <trkpt lat="44.24671" lon="5.69021">
        <ele>663</ele>
        <time>2019-03-19T15:28:50Z</time>
      </trkpt>
      <trkpt lat="44.24672" lon="5.69029">
        <ele>663</ele>
        <time>2019-03-19T15:28:51Z</time>
      </trkpt>
      <trkpt lat="44.24673" lon="5.69037">
        <ele>663</ele>
        <time>2019-03-19T15:28:52Z</time>
      </trkpt>
      <trkpt lat="44.24674" lon="5.69045">
        <ele>663</ele>
        <time>2019-03-19T15:28:53Z</time>
      </trkpt>
      <trkpt lat="44.24675" lon="5.69053">
        <ele>663</ele>
        <time>2019-03-19T15:28:54Z</time>
      </trkpt>
      <trkpt lat="44.24675" lon="5.69061">
        <ele>663</ele>
        <time>2019-03-19T15:28:55Z</time>
      </trkpt>
      <trkpt lat="44.24676" lon="5.69069">
        <ele>663</ele>
        <time>2019-03-19T15:28:56Z</time>
      </trkpt>
      <trkpt lat="44.24677" lon="5.69077">
        <ele>663</ele>
        <time>2019-03-19T15:28:57Z</time>
      </trkpt>
      <trkpt lat="44.24679" lon="5.69086">
        <ele>663</ele>
        <time>2019-03-19T15:28:58Z</time>
      </trkpt>
      <trkpt lat="44.2468" lon="5.69094">
        <ele>663</ele>
        <time>2019-03-19T15:28:59Z</time>
      </trkpt>
      <trkpt lat="44.24682" lon="5.69102">
        <ele>663</ele>
        <time>2019-03-19T15:29:00Z</time>
      </trkpt>
      <trkpt lat="44.24683" lon="5.6911">
        <ele>663</ele>
        <time>2019-03-19T15:29:01Z</time>
      </trkpt>
      <trkpt lat="44.24685" lon="5.69118">
        <ele>663</ele>
        <time>2019-03-19T15:29:02Z</time>
      </trkpt>
      <trkpt lat="44.24686" lon="5.69126">
        <ele>663</ele>
        <time>2019-03-19T15:29:03Z</time>
      </trkpt>
      <trkpt lat="44.24688" lon="5.69134">
        <ele>663</ele>
        <time>2019-03-19T15:29:04Z</time>
      </trkpt>
      <trkpt lat="44.2469" lon="5.69141">
        <ele>663</ele>
        <time>2019-03-19T15:29:05Z</time>
      </trkpt>
      <trkpt lat="44.24693" lon="5.69148">
        <ele>663</ele>
        <time>2019-03-19T15:29:06Z</time>
      </trkpt>
      <trkpt lat="44.24695" lon="5.69156">
        <ele>663</ele>
        <time>2019-03-19T15:29:07Z</time>
      </trkpt>
      <trkpt lat="44.24698" lon="5.69163">
        <ele>663</ele>
        <time>2019-03-19T15:29:08Z</time>
      </trkpt>
      <trkpt lat="44.247" lon="5.69171">
        <ele>663</ele>
        <time>2019-03-19T15:29:09Z</time>
      </trkpt>
      <trkpt lat="44.24703" lon="5.69178">
        <ele>663</ele>
        <time>2019-03-19T15:29:10Z</time>
      </trkpt>
      <trkpt lat="44.24706" lon="5.69185">
        <ele>663</ele>
        <time>2019-03-19T15:29:11Z</time>
      </trkpt>
      <trkpt lat="44.24708" lon="5.69192">
        <ele>663</ele>
        <time>2019-03-19T15:29:12Z</time>
      </trkpt>
      <trkpt lat="44.24711" lon="5.69199">
        <ele>663</ele>
        <time>2019-03-19T15:29:13Z</time>
      </trkpt>
      <trkpt lat="44.24714" lon="5.69206">
        <ele>663</ele>
        <time>2019-03-19T15:29:14Z</time>
      </trkpt>
      <trkpt lat="44.24717" lon="5.69213">
        <ele>663</ele>
        <time>2019-03-19T15:29:15Z</time>
      </trkpt>
      <trkpt lat="44.2472" lon="5.69221">
        <ele>663</ele>
        <time>2019-03-19T15:29:16Z</time>
      </trkpt>
      <trkpt lat="44.24723" lon="5.69228">
        <ele>663</ele>
        <time>2019-03-19T15:29:17Z</time>
      </trkpt>
      <trkpt lat="44.24726" lon="5.69235">
        <ele>663</ele>
        <time>2019-03-19T15:29:18Z</time>
      </trkpt>
      <trkpt lat="44.24729" lon="5.69242">
        <ele>663</ele>
        <time>2019-03-19T15:29:19Z</time>
      </trkpt>
      <trkpt lat="44.24732" lon="5.69248">
        <ele>663</ele>
        <time>2019-03-19T15:29:20Z</time>
      </trkpt>
      <trkpt lat="44.24735" lon="5.69256">
        <ele>663</ele>
        <time>2019-03-19T15:29:21Z</time>
      </trkpt>
      <trkpt lat="44.24738" lon="5.69263">
        <ele>663</ele>
        <time>2019-03-19T15:29:22Z</time>
      </trkpt>
      <trkpt lat="44.24741" lon="5.6927">
        <ele>663</ele>
        <time>2019-03-19T15:29:23Z</time>
      </trkpt>
      <trkpt lat="44.24744" lon="5.69278">
        <ele>663</ele>
        <time>2019-03-19T15:29:24Z</time>
      </trkpt>
      <trkpt lat="44.24747" lon="5.69285">
        <ele>663</ele>
        <time>2019-03-19T15:29:25Z</time>
      </trkpt>
      <trkpt lat="44.24751" lon="5.69292">
        <ele>663</ele>
        <time>2019-03-19T15:29:26Z</time>
      </trkpt>
      <trkpt lat="44.24754" lon="5.693">
        <ele>663</ele>
        <time>2019-03-19T15:29:27Z</time>
      </trkpt>
      <trkpt lat="44.24757" lon="5.69307">
        <ele>663</ele>
        <time>2019-03-19T15:29:28Z</time>
      </trkpt>
      <trkpt lat="44.2476" lon="5.69314">
        <ele>663</ele>
        <time>2019-03-19T15:29:29Z</time>
      </trkpt>
      <trkpt lat="44.24764" lon="5.69322">
        <ele>663</ele>
        <time>2019-03-19T15:29:30Z</time>
      </trkpt>
      <trkpt lat="44.24767" lon="5.69329">
        <ele>663</ele>
        <time>2019-03-19T15:29:31Z</time>
      </trkpt>
      <trkpt lat="44.2477" lon="5.69337">
        <ele>663</ele>
        <time>2019-03-19T15:29:32Z</time>
      </trkpt>
      <trkpt lat="44.24773" lon="5.69344">
        <ele>663</ele>
        <time>2019-03-19T15:29:33Z</time>
      </trkpt>
      <trkpt lat="44.24776" lon="5.69352">
        <ele>663</ele>
        <time>2019-03-19T15:29:34Z</time>
      </trkpt>
      <trkpt lat="44.24778" lon="5.6936">
        <ele>663</ele>
        <time>2019-03-19T15:29:35Z</time>
      </trkpt>
      <trkpt lat="44.24781" lon="5.69368">
        <ele>663</ele>
        <time>2019-03-19T15:29:36Z</time>
      </trkpt>
      <trkpt lat="44.24783" lon="5.69376">
        <ele>663</ele>
        <time>2019-03-19T15:29:37Z</time>
      </trkpt>
      <trkpt lat="44.24785" lon="5.69383">
        <ele>663</ele>
        <time>2019-03-19T15:29:38Z</time>
      </trkpt>
      <trkpt lat="44.24788" lon="5.69391">
        <ele>663</ele>
        <time>2019-03-19T15:29:39Z</time>
      </trkpt>
      <trkpt lat="44.2479" lon="5.69398">
        <ele>663</ele>
        <time>2019-03-19T15:29:40Z</time>
      </trkpt>
      <trkpt lat="44.24792" lon="5.69406">
        <ele>663</ele>
        <time>2019-03-19T15:29:41Z</time>
      </trkpt>
      <trkpt lat="44.24794" lon="5.69413">
        <ele>663</ele>
        <time>2019-03-19T15:29:42Z</time>
      </trkpt>
      <trkpt lat="44.24795" lon="5.6942">
        <ele>663</ele>
        <time>2019-03-19T15:29:43Z</time>
      </trkpt>
      <trkpt lat="44.24797" lon="5.69427">
        <ele>663</ele>
        <time>2019-03-19T15:29:44Z</time>
      </trkpt>
      <trkpt lat="44.24799" lon="5.69434">
        <ele>663</ele>
        <time>2019-03-19T15:29:45Z</time>
      </trkpt>
      <trkpt lat="44.248" lon="5.69442">
        <ele>663</ele>
        <time>2019-03-19T15:29:46Z</time>
      </trkpt>
      <trkpt lat="44.24802" lon="5.69449">
        <ele>663</ele>
        <time>2019-03-19T15:29:47Z</time>
      </trkpt>
      <trkpt lat="44.24802" lon="5.69455">
        <ele>663</ele>
        <time>2019-03-19T15:29:48Z</time>
      </trkpt>
      <trkpt lat="44.24802" lon="5.69463">
        <ele>663</ele>
        <time>2019-03-19T15:29:49Z</time>
      </trkpt>
      <trkpt lat="44.24803" lon="5.6947">
        <ele>663</ele>
        <time>2019-03-19T15:29:50Z</time>
      </trkpt>
      <trkpt lat="44.24803" lon="5.69478">
        <ele>663</ele>
        <time>2019-03-19T15:29:51Z</time>
      </trkpt>
      <trkpt lat="44.24803" lon="5.69485">
        <ele>663</ele>
        <time>2019-03-19T15:29:52Z</time>
      </trkpt>
      <trkpt lat="44.24802" lon="5.69493">
        <ele>663</ele>
        <time>2019-03-19T15:29:53Z</time>
      </trkpt>
      <trkpt lat="44.24801" lon="5.69502">
        <ele>663</ele>
        <time>2019-03-19T15:29:54Z</time>
      </trkpt>
      <trkpt lat="44.248" lon="5.69511">
        <ele>663</ele>
        <time>2019-03-19T15:29:55Z</time>
      </trkpt>
      <trkpt lat="44.24799" lon="5.6952">
        <ele>663</ele>
        <time>2019-03-19T15:29:56Z</time>
      </trkpt>
      <trkpt lat="44.24797" lon="5.69529">
        <ele>663</ele>
        <time>2019-03-19T15:29:57Z</time>
      </trkpt>
      <trkpt lat="44.24796" lon="5.69538">
        <ele>663</ele>
        <time>2019-03-19T15:29:58Z</time>
      </trkpt>
      <trkpt lat="44.24794" lon="5.69547">
        <ele>663</ele>
        <time>2019-03-19T15:29:59Z</time>
      </trkpt>
      <trkpt lat="44.24792" lon="5.69556">
        <ele>663</ele>
        <time>2019-03-19T15:30:00Z</time>
      </trkpt>
      <trkpt lat="44.24791" lon="5.69565">
        <ele>663</ele>
        <time>2019-03-19T15:30:01Z</time>
      </trkpt>
      <trkpt lat="44.24788" lon="5.69573">
        <ele>662</ele>
        <time>2019-03-19T15:30:02Z</time>
      </trkpt>
      <trkpt lat="44.24786" lon="5.69582">
        <ele>662</ele>
        <time>2019-03-19T15:30:03Z</time>
      </trkpt>
      <trkpt lat="44.24783" lon="5.69591">
        <ele>661</ele>
        <time>2019-03-19T15:30:04Z</time>
      </trkpt>
      <trkpt lat="44.24781" lon="5.69599">
        <ele>661</ele>
        <time>2019-03-19T15:30:05Z</time>
      </trkpt>
      <trkpt lat="44.24779" lon="5.69608">
        <ele>660</ele>
        <time>2019-03-19T15:30:06Z</time>
      </trkpt>
      <trkpt lat="44.24776" lon="5.69617">
        <ele>660</ele>
        <time>2019-03-19T15:30:07Z</time>
      </trkpt>
      <trkpt lat="44.24774" lon="5.69625">
        <ele>660</ele>
        <time>2019-03-19T15:30:08Z</time>
      </trkpt>
      <trkpt lat="44.24771" lon="5.69634">
        <ele>660</ele>
        <time>2019-03-19T15:30:09Z</time>
      </trkpt>
      <trkpt lat="44.24768" lon="5.69642">
        <ele>660</ele>
        <time>2019-03-19T15:30:10Z</time>
      </trkpt>
      <trkpt lat="44.24766" lon="5.69651">
        <ele>660</ele>
        <time>2019-03-19T15:30:11Z</time>
      </trkpt>
      <trkpt lat="44.24762" lon="5.69659">
        <ele>660</ele>
        <time>2019-03-19T15:30:12Z</time>
      </trkpt>
      <trkpt lat="44.24759" lon="5.69667">
        <ele>660</ele>
        <time>2019-03-19T15:30:13Z</time>
      </trkpt>
      <trkpt lat="44.24757" lon="5.69675">
        <ele>659</ele>
        <time>2019-03-19T15:30:14Z</time>
      </trkpt>
      <trkpt lat="44.24753" lon="5.69684">
        <ele>659</ele>
        <time>2019-03-19T15:30:15Z</time>
      </trkpt>
      <trkpt lat="44.24749" lon="5.69692">
        <ele>659</ele>
        <time>2019-03-19T15:30:16Z</time>
      </trkpt>
      <trkpt lat="44.24747" lon="5.69701">
        <ele>659</ele>
        <time>2019-03-19T15:30:17Z</time>
      </trkpt>
      <trkpt lat="44.24744" lon="5.69709">
        <ele>659</ele>
        <time>2019-03-19T15:30:18Z</time>
      </trkpt>
      <trkpt lat="44.24742" lon="5.69718">
        <ele>659</ele>
        <time>2019-03-19T15:30:19Z</time>
      </trkpt>
      <trkpt lat="44.2474" lon="5.69727">
        <ele>659</ele>
        <time>2019-03-19T15:30:20Z</time>
      </trkpt>
      <trkpt lat="44.24739" lon="5.69736">
        <ele>659</ele>
        <time>2019-03-19T15:30:21Z</time>
      </trkpt>
      <trkpt lat="44.24738" lon="5.69745">
        <ele>659</ele>
        <time>2019-03-19T15:30:22Z</time>
      </trkpt>
      <trkpt lat="44.24736" lon="5.69754">
        <ele>659</ele>
        <time>2019-03-19T15:30:23Z</time>
      </trkpt>
      <trkpt lat="44.24735" lon="5.69763">
        <ele>659</ele>
        <time>2019-03-19T15:30:24Z</time>
      </trkpt>
      <trkpt lat="44.24734" lon="5.69772">
        <ele>659</ele>
        <time>2019-03-19T15:30:25Z</time>
      </trkpt>
      <trkpt lat="44.24733" lon="5.6978">
        <ele>659</ele>
        <time>2019-03-19T15:30:26Z</time>
      </trkpt>
      <trkpt lat="44.24731" lon="5.69789">
        <ele>659</ele>
        <time>2019-03-19T15:30:27Z</time>
      </trkpt>
      <trkpt lat="44.2473" lon="5.69798">
        <ele>659</ele>
        <time>2019-03-19T15:30:28Z</time>
      </trkpt>
      <trkpt lat="44.24728" lon="5.69806">
        <ele>659</ele>
        <time>2019-03-19T15:30:29Z</time>
      </trkpt>
      <trkpt lat="44.24727" lon="5.69814">
        <ele>659</ele>
        <time>2019-03-19T15:30:30Z</time>
      </trkpt>
      <trkpt lat="44.24726" lon="5.69823">
        <ele>659</ele>
        <time>2019-03-19T15:30:31Z</time>
      </trkpt>
      <trkpt lat="44.24724" lon="5.69831">
        <ele>659</ele>
        <time>2019-03-19T15:30:32Z</time>
      </trkpt>
      <trkpt lat="44.24723" lon="5.69838">
        <ele>659</ele>
        <time>2019-03-19T15:30:33Z</time>
      </trkpt>
      <trkpt lat="44.24721" lon="5.69846">
        <ele>659</ele>
        <time>2019-03-19T15:30:34Z</time>
      </trkpt>
      <trkpt lat="44.2472" lon="5.69853">
        <ele>659</ele>
        <time>2019-03-19T15:30:35Z</time>
      </trkpt>
      <trkpt lat="44.2472" lon="5.69861">
        <ele>659</ele>
        <time>2019-03-19T15:30:36Z</time>
      </trkpt>
      <trkpt lat="44.2472" lon="5.69869">
        <ele>659</ele>
        <time>2019-03-19T15:30:37Z</time>
      </trkpt>
      <trkpt lat="44.2472" lon="5.69877">
        <ele>659</ele>
        <time>2019-03-19T15:30:38Z</time>
      </trkpt>
      <trkpt lat="44.24722" lon="5.69884">
        <ele>659</ele>
        <time>2019-03-19T15:30:39Z</time>
      </trkpt>
      <trkpt lat="44.24723" lon="5.69892">
        <ele>659</ele>
        <time>2019-03-19T15:30:40Z</time>
      </trkpt>
      <trkpt lat="44.24726" lon="5.699">
        <ele>659</ele>
        <time>2019-03-19T15:30:41Z</time>
      </trkpt>
      <trkpt lat="44.24728" lon="5.69907">
        <ele>659</ele>
        <time>2019-03-19T15:30:42Z</time>
      </trkpt>
      <trkpt lat="44.24731" lon="5.69915">
        <ele>659</ele>
        <time>2019-03-19T15:30:43Z</time>
      </trkpt>
      <trkpt lat="44.24734" lon="5.69922">
        <ele>659</ele>
        <time>2019-03-19T15:30:44Z</time>
      </trkpt>
      <trkpt lat="44.24737" lon="5.6993">
        <ele>659</ele>
        <time>2019-03-19T15:30:45Z</time>
      </trkpt>
      <trkpt lat="44.2474" lon="5.69937">
        <ele>659</ele>
        <time>2019-03-19T15:30:46Z</time>
      </trkpt>
      <trkpt lat="44.24743" lon="5.69945">
        <ele>659</ele>
        <time>2019-03-19T15:30:47Z</time>
      </trkpt>
      <trkpt lat="44.24746" lon="5.69953">
        <ele>659</ele>
        <time>2019-03-19T15:30:48Z</time>
      </trkpt>
      <trkpt lat="44.24749" lon="5.6996">
        <ele>659</ele>
        <time>2019-03-19T15:30:49Z</time>
      </trkpt>
      <trkpt lat="44.24752" lon="5.69968">
        <ele>659</ele>
        <time>2019-03-19T15:30:50Z</time>
      </trkpt>
      <trkpt lat="44.24755" lon="5.69976">
        <ele>659</ele>
        <time>2019-03-19T15:30:51Z</time>
      </trkpt>
      <trkpt lat="44.24758" lon="5.69983">
        <ele>659</ele>
        <time>2019-03-19T15:30:52Z</time>
      </trkpt>
      <trkpt lat="44.24761" lon="5.69991">
        <ele>659</ele>
        <time>2019-03-19T15:30:53Z</time>
      </trkpt>
      <trkpt lat="44.24764" lon="5.69999">
        <ele>659</ele>
        <time>2019-03-19T15:30:54Z</time>
      </trkpt>
      <trkpt lat="44.24768" lon="5.70006">
        <ele>659</ele>
        <time>2019-03-19T15:30:55Z</time>
      </trkpt>
      <trkpt lat="44.24772" lon="5.70012">
        <ele>659</ele>
        <time>2019-03-19T15:30:56Z</time>
      </trkpt>
      <trkpt lat="44.24776" lon="5.70019">
        <ele>659</ele>
        <time>2019-03-19T15:30:57Z</time>
      </trkpt>
      <trkpt lat="44.2478" lon="5.70025">
        <ele>659</ele>
        <time>2019-03-19T15:30:58Z</time>
      </trkpt>
      <trkpt lat="44.24785" lon="5.70031">
        <ele>659</ele>
        <time>2019-03-19T15:30:59Z</time>
      </trkpt>
      <trkpt lat="44.24791" lon="5.70037">
        <ele>659</ele>
        <time>2019-03-19T15:31:00Z</time>
      </trkpt>
      <trkpt lat="44.24796" lon="5.70044">
        <ele>659</ele>
        <time>2019-03-19T15:31:01Z</time>
      </trkpt>
      <trkpt lat="44.24801" lon="5.70049">
        <ele>659</ele>
        <time>2019-03-19T15:31:02Z</time>
      </trkpt>
      <trkpt lat="44.24806" lon="5.70056">
        <ele>659</ele>
        <time>2019-03-19T15:31:03Z</time>
      </trkpt>
      <trkpt lat="44.24811" lon="5.70062">
        <ele>659</ele>
        <time>2019-03-19T15:31:04Z</time>
      </trkpt>
      <trkpt lat="44.24817" lon="5.70068">
        <ele>659</ele>
        <time>2019-03-19T15:31:05Z</time>
      </trkpt>
      <trkpt lat="44.24821" lon="5.70074">
        <ele>659</ele>
        <time>2019-03-19T15:31:06Z</time>
      </trkpt>
      <trkpt lat="44.24827" lon="5.70081">
        <ele>659</ele>
        <time>2019-03-19T15:31:07Z</time>
      </trkpt>
      <trkpt lat="44.24831" lon="5.70087">
        <ele>659</ele>
        <time>2019-03-19T15:31:08Z</time>
      </trkpt>
      <trkpt lat="44.24836" lon="5.70094">
        <ele>659</ele>
        <time>2019-03-19T15:31:09Z</time>
      </trkpt>
      <trkpt lat="44.2484" lon="5.70102">
        <ele>659</ele>
        <time>2019-03-19T15:31:10Z</time>
      </trkpt>
      <trkpt lat="44.24844" lon="5.7011">
        <ele>659</ele>
        <time>2019-03-19T15:31:11Z</time>
      </trkpt>
      <trkpt lat="44.24847" lon="5.70119">
        <ele>659</ele>
        <time>2019-03-19T15:31:12Z</time>
      </trkpt>
      <trkpt lat="44.24849" lon="5.70128">
        <ele>659</ele>
        <time>2019-03-19T15:31:13Z</time>
      </trkpt>
      <trkpt lat="44.24851" lon="5.70138">
        <ele>659</ele>
        <time>2019-03-19T15:31:14Z</time>
      </trkpt>
      <trkpt lat="44.24853" lon="5.70147">
        <ele>659</ele>
        <time>2019-03-19T15:31:15Z</time>
      </trkpt>
      <trkpt lat="44.24854" lon="5.70156">
        <ele>659</ele>
        <time>2019-03-19T15:31:16Z</time>
      </trkpt>
      <trkpt lat="44.24855" lon="5.70165">
        <ele>659</ele>
        <time>2019-03-19T15:31:17Z</time>
      </trkpt>
      <trkpt lat="44.24855" lon="5.70175">
        <ele>659</ele>
        <time>2019-03-19T15:31:18Z</time>
      </trkpt>
      <trkpt lat="44.24855" lon="5.70184">
        <ele>659</ele>
        <time>2019-03-19T15:31:19Z</time>
      </trkpt>
      <trkpt lat="44.24855" lon="5.70193">
        <ele>659</ele>
        <time>2019-03-19T15:31:20Z</time>
      </trkpt>
      <trkpt lat="44.24855" lon="5.70202">
        <ele>659</ele>
        <time>2019-03-19T15:31:21Z</time>
      </trkpt>
      <trkpt lat="44.24856" lon="5.70211">
        <ele>659</ele>
        <time>2019-03-19T15:31:22Z</time>
      </trkpt>
      <trkpt lat="44.24856" lon="5.70221">
        <ele>659</ele>
        <time>2019-03-19T15:31:23Z</time>
      </trkpt>
      <trkpt lat="44.24855" lon="5.7023">
        <ele>659</ele>
        <time>2019-03-19T15:31:24Z</time>
      </trkpt>
      <trkpt lat="44.24854" lon="5.70238">
        <ele>659</ele>
        <time>2019-03-19T15:31:25Z</time>
      </trkpt>
      <trkpt lat="44.24853" lon="5.70247">
        <ele>658</ele>
        <time>2019-03-19T15:31:26Z</time>
      </trkpt>
      <trkpt lat="44.24852" lon="5.70256">
        <ele>658</ele>
        <time>2019-03-19T15:31:27Z</time>
      </trkpt>
      <trkpt lat="44.2485" lon="5.70265">
        <ele>658</ele>
        <time>2019-03-19T15:31:28Z</time>
      </trkpt>
      <trkpt lat="44.24848" lon="5.70273">
        <ele>658</ele>
        <time>2019-03-19T15:31:29Z</time>
      </trkpt>
      <trkpt lat="44.24846" lon="5.70282">
        <ele>658</ele>
        <time>2019-03-19T15:31:30Z</time>
      </trkpt>
      <trkpt lat="44.24843" lon="5.7029">
        <ele>657</ele>
        <time>2019-03-19T15:31:31Z</time>
      </trkpt>
      <trkpt lat="44.2484" lon="5.70297">
        <ele>657</ele>
        <time>2019-03-19T15:31:32Z</time>
      </trkpt>
      <trkpt lat="44.24836" lon="5.70305">
        <ele>657</ele>
        <time>2019-03-19T15:31:33Z</time>
      </trkpt>
      <trkpt lat="44.24832" lon="5.70312">
        <ele>657</ele>
        <time>2019-03-19T15:31:34Z</time>
      </trkpt>
      <trkpt lat="44.24828" lon="5.70319">
        <ele>657</ele>
        <time>2019-03-19T15:31:35Z</time>
      </trkpt>
      <trkpt lat="44.24824" lon="5.70325">
        <ele>656</ele>
        <time>2019-03-19T15:31:36Z</time>
      </trkpt>
      <trkpt lat="44.2482" lon="5.70331">
        <ele>656</ele>
        <time>2019-03-19T15:31:37Z</time>
      </trkpt>
      <trkpt lat="44.24816" lon="5.70338">
        <ele>656</ele>
        <time>2019-03-19T15:31:38Z</time>
      </trkpt>
      <trkpt lat="44.24812" lon="5.70344">
        <ele>656</ele>
        <time>2019-03-19T15:31:39Z</time>
      </trkpt>
      <trkpt lat="44.24809" lon="5.70351">
        <ele>656</ele>
        <time>2019-03-19T15:31:40Z</time>
      </trkpt>
      <trkpt lat="44.24805" lon="5.70358">
        <ele>656</ele>
        <time>2019-03-19T15:31:41Z</time>
      </trkpt>
      <trkpt lat="44.24802" lon="5.70365">
        <ele>656</ele>
        <time>2019-03-19T15:31:42Z</time>
      </trkpt>
      <trkpt lat="44.24799" lon="5.70373">
        <ele>656</ele>
        <time>2019-03-19T15:31:43Z</time>
      </trkpt>
      <trkpt lat="44.24797" lon="5.7038">
        <ele>656</ele>
        <time>2019-03-19T15:31:44Z</time>
      </trkpt>
      <trkpt lat="44.24795" lon="5.70388">
        <ele>656</ele>
        <time>2019-03-19T15:31:45Z</time>
      </trkpt>
      <trkpt lat="44.24793" lon="5.70397">
        <ele>656</ele>
        <time>2019-03-19T15:31:46Z</time>
      </trkpt>
      <trkpt lat="44.24791" lon="5.70405">
        <ele>656</ele>
        <time>2019-03-19T15:31:47Z</time>
      </trkpt>
      <trkpt lat="44.24789" lon="5.70413">
        <ele>656</ele>
        <time>2019-03-19T15:31:48Z</time>
      </trkpt>
      <trkpt lat="44.24787" lon="5.70422">
        <ele>656</ele>
        <time>2019-03-19T15:31:49Z</time>
      </trkpt>
      <trkpt lat="44.24784" lon="5.7043">
        <ele>656</ele>
        <time>2019-03-19T15:31:50Z</time>
      </trkpt>
      <trkpt lat="44.24782" lon="5.70438">
        <ele>656</ele>
        <time>2019-03-19T15:31:51Z</time>
      </trkpt>
      <trkpt lat="44.24779" lon="5.70445">
        <ele>656</ele>
        <time>2019-03-19T15:31:52Z</time>
      </trkpt>
      <trkpt lat="44.24776" lon="5.70452">
        <ele>656</ele>
        <time>2019-03-19T15:31:53Z</time>
      </trkpt>
      <trkpt lat="44.24772" lon="5.70459">
        <ele>656</ele>
        <time>2019-03-19T15:31:54Z</time>
      </trkpt>
      <trkpt lat="44.24768" lon="5.70465">
        <ele>656</ele>
        <time>2019-03-19T15:31:55Z</time>
      </trkpt>
      <trkpt lat="44.24763" lon="5.70471">
        <ele>656</ele>
        <time>2019-03-19T15:31:56Z</time>
      </trkpt>
      <trkpt lat="44.24759" lon="5.70476">
        <ele>656</ele>
        <time>2019-03-19T15:31:57Z</time>
      </trkpt>
      <trkpt lat="44.24755" lon="5.70481">
        <ele>656</ele>
        <time>2019-03-19T15:31:58Z</time>
      </trkpt>
      <trkpt lat="44.24751" lon="5.70486">
        <ele>656</ele>
        <time>2019-03-19T15:31:59Z</time>
      </trkpt>
      <trkpt lat="44.24746" lon="5.7049">
        <ele>656</ele>
        <time>2019-03-19T15:32:00Z</time>
      </trkpt>
      <trkpt lat="44.24742" lon="5.70495">
        <ele>656</ele>
        <time>2019-03-19T15:32:01Z</time>
      </trkpt>
      <trkpt lat="44.24738" lon="5.705">
        <ele>656</ele>
        <time>2019-03-19T15:32:02Z</time>
      </trkpt>
      <trkpt lat="44.24734" lon="5.70505">
        <ele>656</ele>
        <time>2019-03-19T15:32:03Z</time>
      </trkpt>
      <trkpt lat="44.2473" lon="5.70509">
        <ele>656</ele>
        <time>2019-03-19T15:32:04Z</time>
      </trkpt>
      <trkpt lat="44.24726" lon="5.70513">
        <ele>656</ele>
        <time>2019-03-19T15:32:05Z</time>
      </trkpt>
      <trkpt lat="44.24722" lon="5.70517">
        <ele>657</ele>
        <time>2019-03-19T15:32:06Z</time>
      </trkpt>
      <trkpt lat="44.24718" lon="5.70522">
        <ele>657</ele>
        <time>2019-03-19T15:32:07Z</time>
      </trkpt>
      <trkpt lat="44.24715" lon="5.70526">
        <ele>657</ele>
        <time>2019-03-19T15:32:08Z</time>
      </trkpt>
      <trkpt lat="44.24711" lon="5.7053">
        <ele>657</ele>
        <time>2019-03-19T15:32:09Z</time>
      </trkpt>
      <trkpt lat="44.24707" lon="5.70534">
        <ele>658</ele>
        <time>2019-03-19T15:32:10Z</time>
      </trkpt>
      <trkpt lat="44.24703" lon="5.70537">
        <ele>658</ele>
        <time>2019-03-19T15:32:11Z</time>
      </trkpt>
      <trkpt lat="44.24699" lon="5.70541">
        <ele>658</ele>
        <time>2019-03-19T15:32:12Z</time>
      </trkpt>
      <trkpt lat="44.24696" lon="5.70546">
        <ele>658</ele>
        <time>2019-03-19T15:32:13Z</time>
      </trkpt>
      <trkpt lat="44.24694" lon="5.70551">
        <ele>659</ele>
        <time>2019-03-19T15:32:14Z</time>
      </trkpt>
      <trkpt lat="44.24692" lon="5.70557">
        <ele>659</ele>
        <time>2019-03-19T15:32:15Z</time>
      </trkpt>
      <trkpt lat="44.24691" lon="5.70563">
        <ele>659</ele>
        <time>2019-03-19T15:32:16Z</time>
      </trkpt>
      <trkpt lat="44.24691" lon="5.70569">
        <ele>659</ele>
        <time>2019-03-19T15:32:17Z</time>
      </trkpt>
      <trkpt lat="44.24693" lon="5.70575">
        <ele>659</ele>
        <time>2019-03-19T15:32:18Z</time>
      </trkpt>
      <trkpt lat="44.24694" lon="5.7058">
        <ele>659</ele>
        <time>2019-03-19T15:32:19Z</time>
      </trkpt>
      <trkpt lat="44.24697" lon="5.70584">
        <ele>659</ele>
        <time>2019-03-19T15:32:20Z</time>
      </trkpt>
      <trkpt lat="44.24701" lon="5.70587">
        <ele>659</ele>
        <time>2019-03-19T15:32:21Z</time>
      </trkpt>
      <trkpt lat="44.24705" lon="5.7059">
        <ele>659</ele>
        <time>2019-03-19T15:32:22Z</time>
      </trkpt>
      <trkpt lat="44.24709" lon="5.70592">
        <ele>659</ele>
        <time>2019-03-19T15:32:23Z</time>
      </trkpt>
      <trkpt lat="44.24713" lon="5.70594">
        <ele>659</ele>
        <time>2019-03-19T15:32:24Z</time>
      </trkpt>
      <trkpt lat="44.24717" lon="5.70596">
        <ele>659</ele>
        <time>2019-03-19T15:32:25Z</time>
      </trkpt>
      <trkpt lat="44.24722" lon="5.70597">
        <ele>659</ele>
        <time>2019-03-19T15:32:26Z</time>
      </trkpt>
      <trkpt lat="44.24726" lon="5.706">
        <ele>659</ele>
        <time>2019-03-19T15:32:27Z</time>
      </trkpt>
      <trkpt lat="44.2473" lon="5.70603">
        <ele>659</ele>
        <time>2019-03-19T15:32:28Z</time>
      </trkpt>
      <trkpt lat="44.24733" lon="5.70607">
        <ele>659</ele>
        <time>2019-03-19T15:32:29Z</time>
      </trkpt>
      <trkpt lat="44.24736" lon="5.70612">
        <ele>659</ele>
        <time>2019-03-19T15:32:30Z</time>
      </trkpt>
      <trkpt lat="44.24738" lon="5.70617">
        <ele>659</ele>
        <time>2019-03-19T15:32:31Z</time>
      </trkpt>
      <trkpt lat="44.2474" lon="5.70623">
        <ele>659</ele>
        <time>2019-03-19T15:32:32Z</time>
      </trkpt>
      <trkpt lat="44.24742" lon="5.70629">
        <ele>659</ele>
        <time>2019-03-19T15:32:33Z</time>
      </trkpt>
      <trkpt lat="44.24744" lon="5.70635">
        <ele>659</ele>
        <time>2019-03-19T15:32:34Z</time>
      </trkpt>
      <trkpt lat="44.24746" lon="5.70641">
        <ele>660</ele>
        <time>2019-03-19T15:32:35Z</time>
      </trkpt>
      <trkpt lat="44.24749" lon="5.70646">
        <ele>660</ele>
        <time>2019-03-19T15:32:36Z</time>
      </trkpt>
      <trkpt lat="44.24751" lon="5.70651">
        <ele>660</ele>
        <time>2019-03-19T15:32:37Z</time>
      </trkpt>
      <trkpt lat="44.24752" lon="5.70656">
        <ele>660</ele>
        <time>2019-03-19T15:32:38Z</time>
      </trkpt>
      <trkpt lat="44.24753" lon="5.70662">
        <ele>660</ele>
        <time>2019-03-19T15:32:39Z</time>
      </trkpt>
      <trkpt lat="44.24753" lon="5.70668">
        <ele>660</ele>
        <time>2019-03-19T15:32:40Z</time>
      </trkpt>
      <trkpt lat="44.24751" lon="5.70673">
        <ele>660</ele>
        <time>2019-03-19T15:32:41Z</time>
      </trkpt>
      <trkpt lat="44.24749" lon="5.70677">
        <ele>660</ele>
        <time>2019-03-19T15:32:42Z</time>
      </trkpt>
      <trkpt lat="44.24745" lon="5.7068">
        <ele>660</ele>
        <time>2019-03-19T15:32:43Z</time>
      </trkpt>
      <trkpt lat="44.24741" lon="5.70682">
        <ele>660</ele>
        <time>2019-03-19T15:32:44Z</time>
      </trkpt>
      <trkpt lat="44.24737" lon="5.70683">
        <ele>660</ele>
        <time>2019-03-19T15:32:45Z</time>
      </trkpt>
      <trkpt lat="44.24733" lon="5.70684">
        <ele>661</ele>
        <time>2019-03-19T15:32:46Z</time>
      </trkpt>
      <trkpt lat="44.24728" lon="5.70685">
        <ele>661</ele>
        <time>2019-03-19T15:32:47Z</time>
      </trkpt>
      <trkpt lat="44.24724" lon="5.70685">
        <ele>661</ele>
        <time>2019-03-19T15:32:48Z</time>
      </trkpt>
      <trkpt lat="44.2472" lon="5.70686">
        <ele>662</ele>
        <time>2019-03-19T15:32:49Z</time>
      </trkpt>
      <trkpt lat="44.24716" lon="5.70686">
        <ele>662</ele>
        <time>2019-03-19T15:32:50Z</time>
      </trkpt>
      <trkpt lat="44.24712" lon="5.70686">
        <ele>663</ele>
        <time>2019-03-19T15:32:51Z</time>
      </trkpt>
      <trkpt lat="44.24708" lon="5.70687">
        <ele>663</ele>
        <time>2019-03-19T15:32:52Z</time>
      </trkpt>
      <trkpt lat="44.24705" lon="5.70687">
        <ele>664</ele>
        <time>2019-03-19T15:32:53Z</time>
      </trkpt>
      <trkpt lat="44.24701" lon="5.70688">
        <ele>664</ele>
        <time>2019-03-19T15:32:54Z</time>
      </trkpt>
      <trkpt lat="44.24698" lon="5.70688">
        <ele>664</ele>
        <time>2019-03-19T15:32:55Z</time>
      </trkpt>
      <trkpt lat="44.24694" lon="5.70689">
        <ele>665</ele>
        <time>2019-03-19T15:32:56Z</time>
      </trkpt>
      <trkpt lat="44.24691" lon="5.70689">
        <ele>665</ele>
        <time>2019-03-19T15:32:57Z</time>
      </trkpt>
      <trkpt lat="44.24687" lon="5.70689">
        <ele>665</ele>
        <time>2019-03-19T15:32:58Z</time>
      </trkpt>
      <trkpt lat="44.24683" lon="5.7069">
        <ele>666</ele>
        <time>2019-03-19T15:32:59Z</time>
      </trkpt>
      <trkpt lat="44.24679" lon="5.7069">
        <ele>666</ele>
        <time>2019-03-19T15:33:00Z</time>
      </trkpt>
      <trkpt lat="44.24675" lon="5.7069">
        <ele>667</ele>
        <time>2019-03-19T15:33:01Z</time>
      </trkpt>
      <trkpt lat="44.24671" lon="5.7069">
        <ele>667</ele>
        <time>2019-03-19T15:33:02Z</time>
      </trkpt>
      <trkpt lat="44.24667" lon="5.7069">
        <ele>667</ele>
        <time>2019-03-19T15:33:03Z</time>
      </trkpt>
      <trkpt lat="44.24664" lon="5.7069">
        <ele>668</ele>
        <time>2019-03-19T15:33:04Z</time>
      </trkpt>
      <trkpt lat="44.2466" lon="5.7069">
        <ele>668</ele>
        <time>2019-03-19T15:33:05Z</time>
      </trkpt>
      <trkpt lat="44.24656" lon="5.7069">
        <ele>668</ele>
        <time>2019-03-19T15:33:06Z</time>
      </trkpt>
      <trkpt lat="44.24652" lon="5.7069">
        <ele>669</ele>
        <time>2019-03-19T15:33:07Z</time>
      </trkpt>
      <trkpt lat="44.24649" lon="5.7069">
        <ele>669</ele>
        <time>2019-03-19T15:33:08Z</time>
      </trkpt>
      <trkpt lat="44.24645" lon="5.70691">
        <ele>669</ele>
        <time>2019-03-19T15:33:09Z</time>
      </trkpt>
      <trkpt lat="44.24642" lon="5.70691">
        <ele>669</ele>
        <time>2019-03-19T15:33:10Z</time>
      </trkpt>
      <trkpt lat="44.24638" lon="5.70692">
        <ele>670</ele>
        <time>2019-03-19T15:33:11Z</time>
      </trkpt>
      <trkpt lat="44.24635" lon="5.70692">
        <ele>670</ele>
        <time>2019-03-19T15:33:12Z</time>
      </trkpt>
      <trkpt lat="44.24631" lon="5.70693">
        <ele>670</ele>
        <time>2019-03-19T15:33:13Z</time>
      </trkpt>
      <trkpt lat="44.24628" lon="5.70694">
        <ele>670</ele>
        <time>2019-03-19T15:33:14Z</time>
      </trkpt>
      <trkpt lat="44.24625" lon="5.70695">
        <ele>671</ele>
        <time>2019-03-19T15:33:15Z</time>
      </trkpt>
      <trkpt lat="44.24622" lon="5.70698">
        <ele>671</ele>
        <time>2019-03-19T15:33:16Z</time>
      </trkpt>
      <trkpt lat="44.2462" lon="5.70701">
        <ele>671</ele>
        <time>2019-03-19T15:33:17Z</time>
      </trkpt>
      <trkpt lat="44.24619" lon="5.70705">
        <ele>671</ele>
        <time>2019-03-19T15:33:18Z</time>
      </trkpt>
      <trkpt lat="44.24618" lon="5.7071">
        <ele>671</ele>
        <time>2019-03-19T15:33:19Z</time>
      </trkpt>
      <trkpt lat="44.24619" lon="5.70714">
        <ele>671</ele>
        <time>2019-03-19T15:33:20Z</time>
      </trkpt>
      <trkpt lat="44.2462" lon="5.70719">
        <ele>671</ele>
        <time>2019-03-19T15:33:21Z</time>
      </trkpt>
      <trkpt lat="44.24622" lon="5.70724">
        <ele>671</ele>
        <time>2019-03-19T15:33:22Z</time>
      </trkpt>
      <trkpt lat="44.24624" lon="5.70728">
        <ele>671</ele>
        <time>2019-03-19T15:33:23Z</time>
      </trkpt>
      <trkpt lat="44.24627" lon="5.70733">
        <ele>671</ele>
        <time>2019-03-19T15:33:24Z</time>
      </trkpt>
      <trkpt lat="44.2463" lon="5.70737">
        <ele>671</ele>
        <time>2019-03-19T15:33:25Z</time>
      </trkpt>
      <trkpt lat="44.24632" lon="5.70741">
        <ele>671</ele>
        <time>2019-03-19T15:33:26Z</time>
      </trkpt>
      <trkpt lat="44.24634" lon="5.70745">
        <ele>671</ele>
        <time>2019-03-19T15:33:27Z</time>
      </trkpt>
      <trkpt lat="44.24636" lon="5.70749">
        <ele>671</ele>
        <time>2019-03-19T15:33:28Z</time>
      </trkpt>
      <trkpt lat="44.24638" lon="5.70753">
        <ele>672</ele>
        <time>2019-03-19T15:33:29Z</time>
      </trkpt>
      <trkpt lat="44.2464" lon="5.70757">
        <ele>672</ele>
        <time>2019-03-19T15:33:30Z</time>
      </trkpt>
      <trkpt lat="44.24642" lon="5.70762">
        <ele>672</ele>
        <time>2019-03-19T15:33:31Z</time>
      </trkpt>
      <trkpt lat="44.24644" lon="5.70766">
        <ele>672</ele>
        <time>2019-03-19T15:33:32Z</time>
      </trkpt>
      <trkpt lat="44.24646" lon="5.70771">
        <ele>672</ele>
        <time>2019-03-19T15:33:33Z</time>
      </trkpt>
      <trkpt lat="44.24648" lon="5.70775">
        <ele>672</ele>
        <time>2019-03-19T15:33:34Z</time>
      </trkpt>
      <trkpt lat="44.24649" lon="5.7078">
        <ele>672</ele>
        <time>2019-03-19T15:33:35Z</time>
      </trkpt>
      <trkpt lat="44.24651" lon="5.70784">
        <ele>672</ele>
        <time>2019-03-19T15:33:36Z</time>
      </trkpt>
      <trkpt lat="44.24653" lon="5.70788">
        <ele>672</ele>
        <time>2019-03-19T15:33:37Z</time>
      </trkpt>
      <trkpt lat="44.24655" lon="5.70792">
        <ele>672</ele>
        <time>2019-03-19T15:33:38Z</time>
      </trkpt>
      <trkpt lat="44.24657" lon="5.70796">
        <ele>672</ele>
        <time>2019-03-19T15:33:39Z</time>
      </trkpt>
      <trkpt lat="44.2466" lon="5.708">
        <ele>673</ele>
        <time>2019-03-19T15:33:40Z</time>
      </trkpt>
      <trkpt lat="44.24662" lon="5.70805">
        <ele>673</ele>
        <time>2019-03-19T15:33:41Z</time>
      </trkpt>
      <trkpt lat="44.24665" lon="5.70809">
        <ele>673</ele>
        <time>2019-03-19T15:33:42Z</time>
      </trkpt>
      <trkpt lat="44.24668" lon="5.70813">
        <ele>673</ele>
        <time>2019-03-19T15:33:43Z</time>
      </trkpt>
      <trkpt lat="44.24671" lon="5.70817">
        <ele>673</ele>
        <time>2019-03-19T15:33:44Z</time>
      </trkpt>
      <trkpt lat="44.24675" lon="5.7082">
        <ele>673</ele>
        <time>2019-03-19T15:33:45Z</time>
      </trkpt>
      <trkpt lat="44.24679" lon="5.70823">
        <ele>673</ele>
        <time>2019-03-19T15:33:46Z</time>
      </trkpt>
      <trkpt lat="44.24683" lon="5.70826">
        <ele>673</ele>
        <time>2019-03-19T15:33:47Z</time>
      </trkpt>
      <trkpt lat="44.24688" lon="5.70829">
        <ele>673</ele>
        <time>2019-03-19T15:33:48Z</time>
      </trkpt>
      <trkpt lat="44.24692" lon="5.70832">
        <ele>673</ele>
        <time>2019-03-19T15:33:49Z</time>
      </trkpt>
      <trkpt lat="44.24697" lon="5.70835">
        <ele>673</ele>
        <time>2019-03-19T15:33:50Z</time>
      </trkpt>
      <trkpt lat="44.24702" lon="5.70838">
        <ele>673</ele>
        <time>2019-03-19T15:33:51Z</time>
      </trkpt>
      <trkpt lat="44.24707" lon="5.70842">
        <ele>673</ele>
        <time>2019-03-19T15:33:52Z</time>
      </trkpt>
      <trkpt lat="44.24712" lon="5.70845">
        <ele>673</ele>
        <time>2019-03-19T15:33:53Z</time>
      </trkpt>
      <trkpt lat="44.24718" lon="5.70847">
        <ele>673</ele>
        <time>2019-03-19T15:33:54Z</time>
      </trkpt>
      <trkpt lat="44.24724" lon="5.70851">
        <ele>673</ele>
        <time>2019-03-19T15:33:55Z</time>
      </trkpt>
      <trkpt lat="44.24729" lon="5.70855">
        <ele>673</ele>
        <time>2019-03-19T15:33:56Z</time>
      </trkpt>
      <trkpt lat="44.24734" lon="5.70858">
        <ele>673</ele>
        <time>2019-03-19T15:33:57Z</time>
      </trkpt>
      <trkpt lat="44.2474" lon="5.70862">
        <ele>673</ele>
        <time>2019-03-19T15:33:58Z</time>
      </trkpt>
      <trkpt lat="44.24746" lon="5.70865">
        <ele>673</ele>
        <time>2019-03-19T15:33:59Z</time>
      </trkpt>
      <trkpt lat="44.24751" lon="5.70869">
        <ele>673</ele>
        <time>2019-03-19T15:34:00Z</time>
      </trkpt>
      <trkpt lat="44.24756" lon="5.70873">
        <ele>673</ele>
        <time>2019-03-19T15:34:01Z</time>
      </trkpt>
      <trkpt lat="44.24762" lon="5.70878">
        <ele>673</ele>
        <time>2019-03-19T15:34:02Z</time>
      </trkpt>
      <trkpt lat="44.24767" lon="5.70882">
        <ele>673</ele>
        <time>2019-03-19T15:34:03Z</time>
      </trkpt>
      <trkpt lat="44.24773" lon="5.70887">
        <ele>673</ele>
        <time>2019-03-19T15:34:04Z</time>
      </trkpt>
      <trkpt lat="44.24778" lon="5.70892">
        <ele>673</ele>
        <time>2019-03-19T15:34:05Z</time>
      </trkpt>
      <trkpt lat="44.24783" lon="5.70897">
        <ele>673</ele>
        <time>2019-03-19T15:34:06Z</time>
      </trkpt>
      <trkpt lat="44.24787" lon="5.70902">
        <ele>673</ele>
        <time>2019-03-19T15:34:07Z</time>
      </trkpt>
      <trkpt lat="44.24792" lon="5.70907">
        <ele>673</ele>
        <time>2019-03-19T15:34:08Z</time>
      </trkpt>
      <trkpt lat="44.24797" lon="5.70913">
        <ele>673</ele>
        <time>2019-03-19T15:34:09Z</time>
      </trkpt>
      <trkpt lat="44.24801" lon="5.70919">
        <ele>673</ele>
        <time>2019-03-19T15:34:10Z</time>
      </trkpt>
      <trkpt lat="44.24805" lon="5.70924">
        <ele>673</ele>
        <time>2019-03-19T15:34:11Z</time>
      </trkpt>
      <trkpt lat="44.24809" lon="5.7093">
        <ele>673</ele>
        <time>2019-03-19T15:34:12Z</time>
      </trkpt>
      <trkpt lat="44.24814" lon="5.70936">
        <ele>673</ele>
        <time>2019-03-19T15:34:13Z</time>
      </trkpt>
      <trkpt lat="44.24818" lon="5.70942">
        <ele>673</ele>
        <time>2019-03-19T15:34:14Z</time>
      </trkpt>
      <trkpt lat="44.24823" lon="5.70948">
        <ele>673</ele>
        <time>2019-03-19T15:34:15Z</time>
      </trkpt>
      <trkpt lat="44.24828" lon="5.70953">
        <ele>673</ele>
        <time>2019-03-19T15:34:16Z</time>
      </trkpt>
      <trkpt lat="44.24833" lon="5.70959">
        <ele>673</ele>
        <time>2019-03-19T15:34:17Z</time>
      </trkpt>
      <trkpt lat="44.24838" lon="5.70963">
        <ele>673</ele>
        <time>2019-03-19T15:34:18Z</time>
      </trkpt>
      <trkpt lat="44.24843" lon="5.70968">
        <ele>673</ele>
        <time>2019-03-19T15:34:19Z</time>
      </trkpt>
      <trkpt lat="44.24848" lon="5.70973">
        <ele>673</ele>
        <time>2019-03-19T15:34:20Z</time>
      </trkpt>
      <trkpt lat="44.24853" lon="5.70978">
        <ele>673</ele>
        <time>2019-03-19T15:34:21Z</time>
      </trkpt>
      <trkpt lat="44.24858" lon="5.70983">
        <ele>673</ele>
        <time>2019-03-19T15:34:22Z</time>
      </trkpt>
      <trkpt lat="44.24863" lon="5.70989">
        <ele>673</ele>
        <time>2019-03-19T15:34:23Z</time>
      </trkpt>
      <trkpt lat="44.24868" lon="5.70994">
        <ele>673</ele>
        <time>2019-03-19T15:34:24Z</time>
      </trkpt>
      <trkpt lat="44.24873" lon="5.70999">
        <ele>673</ele>
        <time>2019-03-19T15:34:25Z</time>
      </trkpt>
      <trkpt lat="44.24878" lon="5.71005">
        <ele>673</ele>
        <time>2019-03-19T15:34:26Z</time>
      </trkpt>
      <trkpt lat="44.24883" lon="5.71011">
        <ele>672</ele>
        <time>2019-03-19T15:34:27Z</time>
      </trkpt>
      <trkpt lat="44.24888" lon="5.71017">
        <ele>672</ele>
        <time>2019-03-19T15:34:28Z</time>
      </trkpt>
      <trkpt lat="44.24893" lon="5.71024">
        <ele>672</ele>
        <time>2019-03-19T15:34:29Z</time>
      </trkpt>
      <trkpt lat="44.24897" lon="5.7103">
        <ele>672</ele>
        <time>2019-03-19T15:34:30Z</time>
      </trkpt>
      <trkpt lat="44.24902" lon="5.71037">
        <ele>672</ele>
        <time>2019-03-19T15:34:31Z</time>
      </trkpt>
      <trkpt lat="44.24906" lon="5.71043">
        <ele>672</ele>
        <time>2019-03-19T15:34:32Z</time>
      </trkpt>
      <trkpt lat="44.24911" lon="5.7105">
        <ele>671</ele>
        <time>2019-03-19T15:34:33Z</time>
      </trkpt>
      <trkpt lat="44.24916" lon="5.71057">
        <ele>671</ele>
        <time>2019-03-19T15:34:34Z</time>
      </trkpt>
      <trkpt lat="44.24921" lon="5.71064">
        <ele>671</ele>
        <time>2019-03-19T15:34:35Z</time>
      </trkpt>
      <trkpt lat="44.24926" lon="5.71071">
        <ele>670</ele>
        <time>2019-03-19T15:34:36Z</time>
      </trkpt>
      <trkpt lat="44.24931" lon="5.71077">
        <ele>670</ele>
        <time>2019-03-19T15:34:37Z</time>
      </trkpt>
      <trkpt lat="44.24936" lon="5.71084">
        <ele>669</ele>
        <time>2019-03-19T15:34:38Z</time>
      </trkpt>
      <trkpt lat="44.24941" lon="5.71092">
        <ele>669</ele>
        <time>2019-03-19T15:34:39Z</time>
      </trkpt>
      <trkpt lat="44.24946" lon="5.71099">
        <ele>668</ele>
        <time>2019-03-19T15:34:40Z</time>
      </trkpt>
      <trkpt lat="44.24951" lon="5.71106">
        <ele>668</ele>
        <time>2019-03-19T15:34:41Z</time>
      </trkpt>
      <trkpt lat="44.24957" lon="5.71113">
        <ele>667</ele>
        <time>2019-03-19T15:34:42Z</time>
      </trkpt>
      <trkpt lat="44.24962" lon="5.71121">
        <ele>667</ele>
        <time>2019-03-19T15:34:43Z</time>
      </trkpt>
      <trkpt lat="44.24968" lon="5.71129">
        <ele>666</ele>
        <time>2019-03-19T15:34:44Z</time>
      </trkpt>
      <trkpt lat="44.24974" lon="5.71136">
        <ele>666</ele>
        <time>2019-03-19T15:34:45Z</time>
      </trkpt>
      <trkpt lat="44.2498" lon="5.71144">
        <ele>666</ele>
        <time>2019-03-19T15:34:46Z</time>
      </trkpt>
      <trkpt lat="44.24986" lon="5.71152">
        <ele>665</ele>
        <time>2019-03-19T15:34:47Z</time>
      </trkpt>
      <trkpt lat="44.24992" lon="5.7116">
        <ele>665</ele>
        <time>2019-03-19T15:34:48Z</time>
      </trkpt>
      <trkpt lat="44.24997" lon="5.71169">
        <ele>665</ele>
        <time>2019-03-19T15:34:49Z</time>
      </trkpt>
      <trkpt lat="44.25003" lon="5.71177">
        <ele>665</ele>
        <time>2019-03-19T15:34:50Z</time>
      </trkpt>
      <trkpt lat="44.25009" lon="5.71185">
        <ele>664</ele>
        <time>2019-03-19T15:34:51Z</time>
      </trkpt>
      <trkpt lat="44.25016" lon="5.71194">
        <ele>664</ele>
        <time>2019-03-19T15:34:52Z</time>
      </trkpt>
      <trkpt lat="44.25022" lon="5.71204">
        <ele>663</ele>
        <time>2019-03-19T15:34:53Z</time>
      </trkpt>
      <trkpt lat="44.25027" lon="5.71213">
        <ele>663</ele>
        <time>2019-03-19T15:34:54Z</time>
      </trkpt>
      <trkpt lat="44.25033" lon="5.71224">
        <ele>662</ele>
        <time>2019-03-19T15:34:55Z</time>
      </trkpt>
      <trkpt lat="44.25038" lon="5.71236">
        <ele>662</ele>
        <time>2019-03-19T15:34:56Z</time>
      </trkpt>
      <trkpt lat="44.25043" lon="5.71247">
        <ele>662</ele>
        <time>2019-03-19T15:34:57Z</time>
      </trkpt>
      <trkpt lat="44.25048" lon="5.71259">
        <ele>661</ele>
        <time>2019-03-19T15:34:58Z</time>
      </trkpt>
      <trkpt lat="44.25052" lon="5.71271">
        <ele>661</ele>
        <time>2019-03-19T15:34:59Z</time>
      </trkpt>
      <trkpt lat="44.25057" lon="5.71283">
        <ele>660</ele>
        <time>2019-03-19T15:35:00Z</time>
      </trkpt>
      <trkpt lat="44.25062" lon="5.71295">
        <ele>659</ele>
        <time>2019-03-19T15:35:01Z</time>
      </trkpt>
      <trkpt lat="44.25067" lon="5.71307">
        <ele>659</ele>
        <time>2019-03-19T15:35:02Z</time>
      </trkpt>
      <trkpt lat="44.25072" lon="5.71318">
        <ele>658</ele>
        <time>2019-03-19T15:35:03Z</time>
      </trkpt>
      <trkpt lat="44.25077" lon="5.7133">
        <ele>658</ele>
        <time>2019-03-19T15:35:04Z</time>
      </trkpt>
      <trkpt lat="44.25082" lon="5.71342">
        <ele>657</ele>
        <time>2019-03-19T15:35:05Z</time>
      </trkpt>
      <trkpt lat="44.25087" lon="5.71353">
        <ele>657</ele>
        <time>2019-03-19T15:35:06Z</time>
      </trkpt>
      <trkpt lat="44.25092" lon="5.71364">
        <ele>657</ele>
        <time>2019-03-19T15:35:07Z</time>
      </trkpt>
      <trkpt lat="44.25096" lon="5.71376">
        <ele>657</ele>
        <time>2019-03-19T15:35:08Z</time>
      </trkpt>
      <trkpt lat="44.251" lon="5.71386">
        <ele>657</ele>
        <time>2019-03-19T15:35:09Z</time>
      </trkpt>
      <trkpt lat="44.25105" lon="5.71396">
        <ele>657</ele>
        <time>2019-03-19T15:35:10Z</time>
      </trkpt>
      <trkpt lat="44.25109" lon="5.71405">
        <ele>657</ele>
        <time>2019-03-19T15:35:11Z</time>
      </trkpt>
      <trkpt lat="44.25112" lon="5.71414">
        <ele>657</ele>
        <time>2019-03-19T15:35:12Z</time>
      </trkpt>
      <trkpt lat="44.25116" lon="5.71422">
        <ele>657</ele>
        <time>2019-03-19T15:35:13Z</time>
      </trkpt>
      <trkpt lat="44.25121" lon="5.7143">
        <ele>657</ele>
        <time>2019-03-19T15:35:14Z</time>
      </trkpt>
      <trkpt lat="44.25127" lon="5.71437">
        <ele>657</ele>
        <time>2019-03-19T15:35:15Z</time>
      </trkpt>
      <trkpt lat="44.25132" lon="5.71443">
        <ele>657</ele>
        <time>2019-03-19T15:35:16Z</time>
      </trkpt>
      <trkpt lat="44.25137" lon="5.71449">
        <ele>657</ele>
        <time>2019-03-19T15:35:17Z</time>
      </trkpt>
      <trkpt lat="44.25142" lon="5.71454">
        <ele>657</ele>
        <time>2019-03-19T15:35:18Z</time>
      </trkpt>
      <trkpt lat="44.25147" lon="5.71459">
        <ele>657</ele>
        <time>2019-03-19T15:35:19Z</time>
      </trkpt>
      <trkpt lat="44.25152" lon="5.71464">
        <ele>657</ele>
        <time>2019-03-19T15:35:20Z</time>
      </trkpt>
      <trkpt lat="44.25157" lon="5.71469">
        <ele>657</ele>
        <time>2019-03-19T15:35:21Z</time>
      </trkpt>
      <trkpt lat="44.25161" lon="5.71474">
        <ele>657</ele>
        <time>2019-03-19T15:35:22Z</time>
      </trkpt>
      <trkpt lat="44.25166" lon="5.71479">
        <ele>657</ele>
        <time>2019-03-19T15:35:23Z</time>
      </trkpt>
      <trkpt lat="44.25171" lon="5.71484">
        <ele>657</ele>
        <time>2019-03-19T15:35:24Z</time>
      </trkpt>
      <trkpt lat="44.25175" lon="5.71489">
        <ele>657</ele>
        <time>2019-03-19T15:35:25Z</time>
      </trkpt>
      <trkpt lat="44.2518" lon="5.71493">
        <ele>657</ele>
        <time>2019-03-19T15:35:26Z</time>
      </trkpt>
      <trkpt lat="44.25185" lon="5.71498">
        <ele>657</ele>
        <time>2019-03-19T15:35:27Z</time>
      </trkpt>
      <trkpt lat="44.2519" lon="5.71503">
        <ele>657</ele>
        <time>2019-03-19T15:35:28Z</time>
      </trkpt>
      <trkpt lat="44.25195" lon="5.71508">
        <ele>657</ele>
        <time>2019-03-19T15:35:29Z</time>
      </trkpt>
      <trkpt lat="44.252" lon="5.71512">
        <ele>657</ele>
        <time>2019-03-19T15:35:30Z</time>
      </trkpt>
      <trkpt lat="44.25204" lon="5.71517">
        <ele>657</ele>
        <time>2019-03-19T15:35:31Z</time>
      </trkpt>
      <trkpt lat="44.25209" lon="5.71522">
        <ele>657</ele>
        <time>2019-03-19T15:35:32Z</time>
      </trkpt>
      <trkpt lat="44.25214" lon="5.71526">
        <ele>657</ele>
        <time>2019-03-19T15:35:33Z</time>
      </trkpt>
      <trkpt lat="44.25218" lon="5.71532">
        <ele>657</ele>
        <time>2019-03-19T15:35:34Z</time>
      </trkpt>
      <trkpt lat="44.25223" lon="5.71537">
        <ele>657</ele>
        <time>2019-03-19T15:35:35Z</time>
      </trkpt>
      <trkpt lat="44.25229" lon="5.71543">
        <ele>657</ele>
        <time>2019-03-19T15:35:36Z</time>
      </trkpt>
      <trkpt lat="44.25233" lon="5.71548">
        <ele>657</ele>
        <time>2019-03-19T15:35:37Z</time>
      </trkpt>
      <trkpt lat="44.25238" lon="5.71553">
        <ele>657</ele>
        <time>2019-03-19T15:35:38Z</time>
      </trkpt>
      <trkpt lat="44.25243" lon="5.71557">
        <ele>658</ele>
        <time>2019-03-19T15:35:39Z</time>
      </trkpt>
      <trkpt lat="44.25247" lon="5.71562">
        <ele>658</ele>
        <time>2019-03-19T15:35:40Z</time>
      </trkpt>
      <trkpt lat="44.25252" lon="5.71567">
        <ele>658</ele>
        <time>2019-03-19T15:35:41Z</time>
      </trkpt>
      <trkpt lat="44.25256" lon="5.71572">
        <ele>658</ele>
        <time>2019-03-19T15:35:42Z</time>
      </trkpt>
      <trkpt lat="44.25261" lon="5.71578">
        <ele>658</ele>
        <time>2019-03-19T15:35:43Z</time>
      </trkpt>
      <trkpt lat="44.25266" lon="5.71583">
        <ele>658</ele>
        <time>2019-03-19T15:35:44Z</time>
      </trkpt>
      <trkpt lat="44.25271" lon="5.71589">
        <ele>658</ele>
        <time>2019-03-19T15:35:45Z</time>
      </trkpt>
      <trkpt lat="44.25276" lon="5.71594">
        <ele>658</ele>
        <time>2019-03-19T15:35:46Z</time>
      </trkpt>
      <trkpt lat="44.25281" lon="5.716">
        <ele>658</ele>
        <time>2019-03-19T15:35:47Z</time>
      </trkpt>
      <trkpt lat="44.25286" lon="5.71606">
        <ele>658</ele>
        <time>2019-03-19T15:35:48Z</time>
      </trkpt>
      <trkpt lat="44.25291" lon="5.71612">
        <ele>658</ele>
        <time>2019-03-19T15:35:49Z</time>
      </trkpt>
      <trkpt lat="44.25296" lon="5.71618">
        <ele>658</ele>
        <time>2019-03-19T15:35:50Z</time>
      </trkpt>
      <trkpt lat="44.25301" lon="5.71624">
        <ele>658</ele>
        <time>2019-03-19T15:35:51Z</time>
      </trkpt>
      <trkpt lat="44.25306" lon="5.7163">
        <ele>658</ele>
        <time>2019-03-19T15:35:52Z</time>
      </trkpt>
      <trkpt lat="44.25312" lon="5.71636">
        <ele>658</ele>
        <time>2019-03-19T15:35:53Z</time>
      </trkpt>
      <trkpt lat="44.25317" lon="5.71642">
        <ele>658</ele>
        <time>2019-03-19T15:35:54Z</time>
      </trkpt>
      <trkpt lat="44.25322" lon="5.71649">
        <ele>658</ele>
        <time>2019-03-19T15:35:55Z</time>
      </trkpt>
      <trkpt lat="44.25327" lon="5.71655">
        <ele>658</ele>
        <time>2019-03-19T15:35:56Z</time>
      </trkpt>
      <trkpt lat="44.25332" lon="5.71661">
        <ele>658</ele>
        <time>2019-03-19T15:35:57Z</time>
      </trkpt>
      <trkpt lat="44.25338" lon="5.71666">
        <ele>658</ele>
        <time>2019-03-19T15:35:58Z</time>
      </trkpt>
      <trkpt lat="44.25343" lon="5.71671">
        <ele>658</ele>
        <time>2019-03-19T15:35:59Z</time>
      </trkpt>
      <trkpt lat="44.25348" lon="5.71676">
        <ele>658</ele>
        <time>2019-03-19T15:36:00Z</time>
      </trkpt>
      <trkpt lat="44.25354" lon="5.71682">
        <ele>658</ele>
        <time>2019-03-19T15:36:01Z</time>
      </trkpt>
      <trkpt lat="44.25359" lon="5.71687">
        <ele>658</ele>
        <time>2019-03-19T15:36:02Z</time>
      </trkpt>
      <trkpt lat="44.25365" lon="5.71691">
        <ele>658</ele>
        <time>2019-03-19T15:36:03Z</time>
      </trkpt>
      <trkpt lat="44.25371" lon="5.71696">
        <ele>658</ele>
        <time>2019-03-19T15:36:04Z</time>
      </trkpt>
      <trkpt lat="44.25377" lon="5.71699">
        <ele>658</ele>
        <time>2019-03-19T15:36:05Z</time>
      </trkpt>
      <trkpt lat="44.25383" lon="5.71703">
        <ele>658</ele>
        <time>2019-03-19T15:36:06Z</time>
      </trkpt>
      <trkpt lat="44.25389" lon="5.71706">
        <ele>658</ele>
        <time>2019-03-19T15:36:07Z</time>
      </trkpt>
      <trkpt lat="44.25395" lon="5.71708">
        <ele>658</ele>
        <time>2019-03-19T15:36:08Z</time>
      </trkpt>
      <trkpt lat="44.25401" lon="5.71711">
        <ele>658</ele>
        <time>2019-03-19T15:36:09Z</time>
      </trkpt>
      <trkpt lat="44.25407" lon="5.71714">
        <ele>658</ele>
        <time>2019-03-19T15:36:10Z</time>
      </trkpt>
      <trkpt lat="44.25412" lon="5.71718">
        <ele>658</ele>
        <time>2019-03-19T15:36:11Z</time>
      </trkpt>
      <trkpt lat="44.25418" lon="5.71721">
        <ele>658</ele>
        <time>2019-03-19T15:36:12Z</time>
      </trkpt>
      <trkpt lat="44.25423" lon="5.71725">
        <ele>658</ele>
        <time>2019-03-19T15:36:13Z</time>
      </trkpt>
      <trkpt lat="44.25429" lon="5.71729">
        <ele>658</ele>
        <time>2019-03-19T15:36:14Z</time>
      </trkpt>
      <trkpt lat="44.25435" lon="5.71733">
        <ele>658</ele>
        <time>2019-03-19T15:36:15Z</time>
      </trkpt>
      <trkpt lat="44.2544" lon="5.71736">
        <ele>658</ele>
        <time>2019-03-19T15:36:16Z</time>
      </trkpt>
      <trkpt lat="44.25446" lon="5.7174">
        <ele>658</ele>
        <time>2019-03-19T15:36:17Z</time>
      </trkpt>
      <trkpt lat="44.25451" lon="5.71744">
        <ele>658</ele>
        <time>2019-03-19T15:36:18Z</time>
      </trkpt>
      <trkpt lat="44.25457" lon="5.71748">
        <ele>658</ele>
        <time>2019-03-19T15:36:19Z</time>
      </trkpt>
      <trkpt lat="44.25462" lon="5.71751">
        <ele>658</ele>
        <time>2019-03-19T15:36:20Z</time>
      </trkpt>
      <trkpt lat="44.25467" lon="5.71755">
        <ele>658</ele>
        <time>2019-03-19T15:36:21Z</time>
      </trkpt>
      <trkpt lat="44.25472" lon="5.71759">
        <ele>658</ele>
        <time>2019-03-19T15:36:22Z</time>
      </trkpt>
      <trkpt lat="44.25478" lon="5.71762">
        <ele>658</ele>
        <time>2019-03-19T15:36:23Z</time>
      </trkpt>
      <trkpt lat="44.25484" lon="5.71766">
        <ele>658</ele>
        <time>2019-03-19T15:36:24Z</time>
      </trkpt>
      <trkpt lat="44.25489" lon="5.71769">
        <ele>658</ele>
        <time>2019-03-19T15:36:25Z</time>
      </trkpt>
      <trkpt lat="44.25494" lon="5.71772">
        <ele>658</ele>
        <time>2019-03-19T15:36:26Z</time>
      </trkpt>
      <trkpt lat="44.255" lon="5.71775">
        <ele>658</ele>
        <time>2019-03-19T15:36:27Z</time>
      </trkpt>
      <trkpt lat="44.25505" lon="5.71778">
        <ele>658</ele>
        <time>2019-03-19T15:36:28Z</time>
      </trkpt>
      <trkpt lat="44.2551" lon="5.71782">
        <ele>658</ele>
        <time>2019-03-19T15:36:29Z</time>
      </trkpt>
      <trkpt lat="44.25515" lon="5.71785">
        <ele>658</ele>
        <time>2019-03-19T15:36:30Z</time>
      </trkpt>
      <trkpt lat="44.2552" lon="5.71789">
        <ele>658</ele>
        <time>2019-03-19T15:36:31Z</time>
      </trkpt>
      <trkpt lat="44.25526" lon="5.71793">
        <ele>658</ele>
        <time>2019-03-19T15:36:32Z</time>
      </trkpt>
      <trkpt lat="44.25531" lon="5.71797">
        <ele>658</ele>
        <time>2019-03-19T15:36:33Z</time>
      </trkpt>
      <trkpt lat="44.25536" lon="5.718">
        <ele>658</ele>
        <time>2019-03-19T15:36:34Z</time>
      </trkpt>
      <trkpt lat="44.25541" lon="5.71805">
        <ele>658</ele>
        <time>2019-03-19T15:36:35Z</time>
      </trkpt>
      <trkpt lat="44.25546" lon="5.71809">
        <ele>658</ele>
        <time>2019-03-19T15:36:36Z</time>
      </trkpt>
      <trkpt lat="44.25551" lon="5.71813">
        <ele>658</ele>
        <time>2019-03-19T15:36:37Z</time>
      </trkpt>
      <trkpt lat="44.25556" lon="5.71818">
        <ele>658</ele>
        <time>2019-03-19T15:36:38Z</time>
      </trkpt>
      <trkpt lat="44.25561" lon="5.71822">
        <ele>658</ele>
        <time>2019-03-19T15:36:39Z</time>
      </trkpt>
      <trkpt lat="44.25566" lon="5.71827">
        <ele>658</ele>
        <time>2019-03-19T15:36:40Z</time>
      </trkpt>
      <trkpt lat="44.25571" lon="5.71831">
        <ele>658</ele>
        <time>2019-03-19T15:36:41Z</time>
      </trkpt>
      <trkpt lat="44.25576" lon="5.71836">
        <ele>658</ele>
        <time>2019-03-19T15:36:42Z</time>
      </trkpt>
      <trkpt lat="44.25581" lon="5.7184">
        <ele>658</ele>
        <time>2019-03-19T15:36:43Z</time>
      </trkpt>
      <trkpt lat="44.25586" lon="5.71845">
        <ele>658</ele>
        <time>2019-03-19T15:36:44Z</time>
      </trkpt>
      <trkpt lat="44.25591" lon="5.71849">
        <ele>658</ele>
        <time>2019-03-19T15:36:45Z</time>
      </trkpt>
      <trkpt lat="44.25596" lon="5.71854">
        <ele>658</ele>
        <time>2019-03-19T15:36:46Z</time>
      </trkpt>
      <trkpt lat="44.25601" lon="5.71859">
        <ele>658</ele>
        <time>2019-03-19T15:36:47Z</time>
      </trkpt>
      <trkpt lat="44.25607" lon="5.71864">
        <ele>658</ele>
        <time>2019-03-19T15:36:48Z</time>
      </trkpt>
      <trkpt lat="44.25612" lon="5.71868">
        <ele>658</ele>
        <time>2019-03-19T15:36:49Z</time>
      </trkpt>
      <trkpt lat="44.25617" lon="5.71873">
        <ele>658</ele>
        <time>2019-03-19T15:36:50Z</time>
      </trkpt>
      <trkpt lat="44.25623" lon="5.71877">
        <ele>658</ele>
        <time>2019-03-19T15:36:51Z</time>
      </trkpt>
      <trkpt lat="44.25628" lon="5.71882">
        <ele>658</ele>
        <time>2019-03-19T15:36:52Z</time>
      </trkpt>
      <trkpt lat="44.25634" lon="5.71887">
        <ele>658</ele>
        <time>2019-03-19T15:36:53Z</time>
      </trkpt>
      <trkpt lat="44.25639" lon="5.71892">
        <ele>658</ele>
        <time>2019-03-19T15:36:54Z</time>
      </trkpt>
      <trkpt lat="44.25645" lon="5.71896">
        <ele>658</ele>
        <time>2019-03-19T15:36:55Z</time>
      </trkpt>
      <trkpt lat="44.2565" lon="5.719">
        <ele>658</ele>
        <time>2019-03-19T15:36:56Z</time>
      </trkpt>
      <trkpt lat="44.25656" lon="5.71903">
        <ele>658</ele>
        <time>2019-03-19T15:36:57Z</time>
      </trkpt>
      <trkpt lat="44.25662" lon="5.71906">
        <ele>658</ele>
        <time>2019-03-19T15:36:58Z</time>
      </trkpt>
      <trkpt lat="44.25668" lon="5.71908">
        <ele>658</ele>
        <time>2019-03-19T15:36:59Z</time>
      </trkpt>
      <trkpt lat="44.25674" lon="5.7191">
        <ele>658</ele>
        <time>2019-03-19T15:37:00Z</time>
      </trkpt>
      <trkpt lat="44.2568" lon="5.71913">
        <ele>658</ele>
        <time>2019-03-19T15:37:01Z</time>
      </trkpt>
      <trkpt lat="44.25686" lon="5.71916">
        <ele>658</ele>
        <time>2019-03-19T15:37:02Z</time>
      </trkpt>
      <trkpt lat="44.25691" lon="5.71919">
        <ele>658</ele>
        <time>2019-03-19T15:37:03Z</time>
      </trkpt>
      <trkpt lat="44.25697" lon="5.71923">
        <ele>658</ele>
        <time>2019-03-19T15:37:04Z</time>
      </trkpt>
      <trkpt lat="44.25702" lon="5.71927">
        <ele>658</ele>
        <time>2019-03-19T15:37:05Z</time>
      </trkpt>
      <trkpt lat="44.25708" lon="5.71931">
        <ele>658</ele>
        <time>2019-03-19T15:37:06Z</time>
      </trkpt>
      <trkpt lat="44.25713" lon="5.71936">
        <ele>658</ele>
        <time>2019-03-19T15:37:07Z</time>
      </trkpt>
      <trkpt lat="44.25719" lon="5.71941">
        <ele>658</ele>
        <time>2019-03-19T15:37:08Z</time>
      </trkpt>
      <trkpt lat="44.25724" lon="5.71947">
        <ele>658</ele>
        <time>2019-03-19T15:37:09Z</time>
      </trkpt>
      <trkpt lat="44.25729" lon="5.71952">
        <ele>658</ele>
        <time>2019-03-19T15:37:10Z</time>
      </trkpt>
      <trkpt lat="44.25734" lon="5.71957">
        <ele>658</ele>
        <time>2019-03-19T15:37:11Z</time>
      </trkpt>
      <trkpt lat="44.25739" lon="5.71962">
        <ele>658</ele>
        <time>2019-03-19T15:37:12Z</time>
      </trkpt>
      <trkpt lat="44.25744" lon="5.71967">
        <ele>658</ele>
        <time>2019-03-19T15:37:13Z</time>
      </trkpt>
      <trkpt lat="44.25749" lon="5.71971">
        <ele>658</ele>
        <time>2019-03-19T15:37:14Z</time>
      </trkpt>
      <trkpt lat="44.25754" lon="5.71975">
        <ele>658</ele>
        <time>2019-03-19T15:37:15Z</time>
      </trkpt>
      <trkpt lat="44.2576" lon="5.71978">
        <ele>658</ele>
        <time>2019-03-19T15:37:16Z</time>
      </trkpt>
      <trkpt lat="44.25765" lon="5.71981">
        <ele>658</ele>
        <time>2019-03-19T15:37:17Z</time>
      </trkpt>
      <trkpt lat="44.25771" lon="5.71985">
        <ele>658</ele>
        <time>2019-03-19T15:37:18Z</time>
      </trkpt>
      <trkpt lat="44.25776" lon="5.71989">
        <ele>658</ele>
        <time>2019-03-19T15:37:19Z</time>
      </trkpt>
      <trkpt lat="44.25781" lon="5.71993">
        <ele>658</ele>
        <time>2019-03-19T15:37:20Z</time>
      </trkpt>
      <trkpt lat="44.25787" lon="5.71997">
        <ele>658</ele>
        <time>2019-03-19T15:37:21Z</time>
      </trkpt>
      <trkpt lat="44.25792" lon="5.72">
        <ele>658</ele>
        <time>2019-03-19T15:37:22Z</time>
      </trkpt>
      <trkpt lat="44.25798" lon="5.72004">
        <ele>658</ele>
        <time>2019-03-19T15:37:23Z</time>
      </trkpt>
      <trkpt lat="44.25803" lon="5.72008">
        <ele>658</ele>
        <time>2019-03-19T15:37:24Z</time>
      </trkpt>
      <trkpt lat="44.25809" lon="5.72012">
        <ele>657</ele>
        <time>2019-03-19T15:37:25Z</time>
      </trkpt>
      <trkpt lat="44.25814" lon="5.72015">
        <ele>657</ele>
        <time>2019-03-19T15:37:26Z</time>
      </trkpt>
      <trkpt lat="44.2582" lon="5.72019">
        <ele>657</ele>
        <time>2019-03-19T15:37:27Z</time>
      </trkpt>
      <trkpt lat="44.25825" lon="5.72023">
        <ele>657</ele>
        <time>2019-03-19T15:37:28Z</time>
      </trkpt>
      <trkpt lat="44.25831" lon="5.72027">
        <ele>657</ele>
        <time>2019-03-19T15:37:29Z</time>
      </trkpt>
      <trkpt lat="44.25836" lon="5.72031">
        <ele>657</ele>
        <time>2019-03-19T15:37:30Z</time>
      </trkpt>
      <trkpt lat="44.25842" lon="5.72035">
        <ele>657</ele>
        <time>2019-03-19T15:37:31Z</time>
      </trkpt>
      <trkpt lat="44.25847" lon="5.72039">
        <ele>657</ele>
        <time>2019-03-19T15:37:32Z</time>
      </trkpt>
      <trkpt lat="44.25853" lon="5.72043">
        <ele>657</ele>
        <time>2019-03-19T15:37:33Z</time>
      </trkpt>
      <trkpt lat="44.25858" lon="5.72047">
        <ele>657</ele>
        <time>2019-03-19T15:37:34Z</time>
      </trkpt>
      <trkpt lat="44.25864" lon="5.7205">
        <ele>657</ele>
        <time>2019-03-19T15:37:35Z</time>
      </trkpt>
      <trkpt lat="44.25869" lon="5.72054">
        <ele>657</ele>
        <time>2019-03-19T15:37:36Z</time>
      </trkpt>
      <trkpt lat="44.25874" lon="5.72058">
        <ele>657</ele>
        <time>2019-03-19T15:37:37Z</time>
      </trkpt>
      <trkpt lat="44.25879" lon="5.72062">
        <ele>657</ele>
        <time>2019-03-19T15:37:38Z</time>
      </trkpt>
      <trkpt lat="44.25885" lon="5.72066">
        <ele>657</ele>
        <time>2019-03-19T15:37:39Z</time>
      </trkpt>
      <trkpt lat="44.2589" lon="5.72071">
        <ele>657</ele>
        <time>2019-03-19T15:37:40Z</time>
      </trkpt>
      <trkpt lat="44.25895" lon="5.72076">
        <ele>657</ele>
        <time>2019-03-19T15:37:41Z</time>
      </trkpt>
      <trkpt lat="44.25899" lon="5.72081">
        <ele>656</ele>
        <time>2019-03-19T15:37:42Z</time>
      </trkpt>
      <trkpt lat="44.25904" lon="5.72086">
        <ele>656</ele>
        <time>2019-03-19T15:37:43Z</time>
      </trkpt>
      <trkpt lat="44.25908" lon="5.72092">
        <ele>656</ele>
        <time>2019-03-19T15:37:44Z</time>
      </trkpt>
      <trkpt lat="44.25912" lon="5.72097">
        <ele>656</ele>
        <time>2019-03-19T15:37:45Z</time>
      </trkpt>
      <trkpt lat="44.25915" lon="5.72103">
        <ele>656</ele>
        <time>2019-03-19T15:37:46Z</time>
      </trkpt>
      <trkpt lat="44.25919" lon="5.72109">
        <ele>656</ele>
        <time>2019-03-19T15:37:47Z</time>
      </trkpt>
      <trkpt lat="44.25922" lon="5.72115">
        <ele>656</ele>
        <time>2019-03-19T15:37:48Z</time>
      </trkpt>
      <trkpt lat="44.25925" lon="5.7212">
        <ele>656</ele>
        <time>2019-03-19T15:37:49Z</time>
      </trkpt>
      <trkpt lat="44.25928" lon="5.72125">
        <ele>656</ele>
        <time>2019-03-19T15:37:50Z</time>
      </trkpt>
      <trkpt lat="44.25932" lon="5.7213">
        <ele>656</ele>
        <time>2019-03-19T15:37:51Z</time>
      </trkpt>
      <trkpt lat="44.25935" lon="5.72136">
        <ele>656</ele>
        <time>2019-03-19T15:37:52Z</time>
      </trkpt>
      <trkpt lat="44.25938" lon="5.72141">
        <ele>656</ele>
        <time>2019-03-19T15:37:53Z</time>
      </trkpt>
      <trkpt lat="44.25941" lon="5.72147">
        <ele>656</ele>
        <time>2019-03-19T15:37:54Z</time>
      </trkpt>
      <trkpt lat="44.25944" lon="5.72152">
        <ele>656</ele>
        <time>2019-03-19T15:37:55Z</time>
      </trkpt>
      <trkpt lat="44.25947" lon="5.72158">
        <ele>656</ele>
        <time>2019-03-19T15:37:56Z</time>
      </trkpt>
      <trkpt lat="44.2595" lon="5.72164">
        <ele>656</ele>
        <time>2019-03-19T15:37:57Z</time>
      </trkpt>
      <trkpt lat="44.25953" lon="5.7217">
        <ele>656</ele>
        <time>2019-03-19T15:37:58Z</time>
      </trkpt>
      <trkpt lat="44.25956" lon="5.72176">
        <ele>656</ele>
        <time>2019-03-19T15:37:59Z</time>
      </trkpt>
      <trkpt lat="44.25959" lon="5.72182">
        <ele>656</ele>
        <time>2019-03-19T15:38:00Z</time>
      </trkpt>
      <trkpt lat="44.25961" lon="5.72187">
        <ele>656</ele>
        <time>2019-03-19T15:38:01Z</time>
      </trkpt>
      <trkpt lat="44.25964" lon="5.72193">
        <ele>656</ele>
        <time>2019-03-19T15:38:02Z</time>
      </trkpt>
      <trkpt lat="44.25967" lon="5.72198">
        <ele>656</ele>
        <time>2019-03-19T15:38:03Z</time>
      </trkpt>
      <trkpt lat="44.2597" lon="5.72203">
        <ele>656</ele>
        <time>2019-03-19T15:38:04Z</time>
      </trkpt>
      <trkpt lat="44.25973" lon="5.72209">
        <ele>656</ele>
        <time>2019-03-19T15:38:05Z</time>
      </trkpt>
      <trkpt lat="44.25976" lon="5.72215">
        <ele>656</ele>
        <time>2019-03-19T15:38:06Z</time>
      </trkpt>
      <trkpt lat="44.25978" lon="5.72221">
        <ele>656</ele>
        <time>2019-03-19T15:38:07Z</time>
      </trkpt>
      <trkpt lat="44.25982" lon="5.72227">
        <ele>656</ele>
        <time>2019-03-19T15:38:08Z</time>
      </trkpt>
      <trkpt lat="44.25985" lon="5.72233">
        <ele>656</ele>
        <time>2019-03-19T15:38:09Z</time>
      </trkpt>
      <trkpt lat="44.25988" lon="5.7224">
        <ele>656</ele>
        <time>2019-03-19T15:38:10Z</time>
      </trkpt>
      <trkpt lat="44.25991" lon="5.72246">
        <ele>656</ele>
        <time>2019-03-19T15:38:11Z</time>
      </trkpt>
      <trkpt lat="44.25994" lon="5.72253">
        <ele>656</ele>
        <time>2019-03-19T15:38:12Z</time>
      </trkpt>
      <trkpt lat="44.25997" lon="5.7226">
        <ele>656</ele>
        <time>2019-03-19T15:38:13Z</time>
      </trkpt>
      <trkpt lat="44.26001" lon="5.72266">
        <ele>656</ele>
        <time>2019-03-19T15:38:14Z</time>
      </trkpt>
      <trkpt lat="44.26004" lon="5.72272">
        <ele>656</ele>
        <time>2019-03-19T15:38:15Z</time>
      </trkpt>
      <trkpt lat="44.26007" lon="5.7228">
        <ele>656</ele>
        <time>2019-03-19T15:38:16Z</time>
      </trkpt>
      <trkpt lat="44.26011" lon="5.72287">
        <ele>656</ele>
        <time>2019-03-19T15:38:17Z</time>
      </trkpt>
      <trkpt lat="44.26014" lon="5.72293">
        <ele>656</ele>
        <time>2019-03-19T15:38:18Z</time>
      </trkpt>
      <trkpt lat="44.26017" lon="5.723">
        <ele>656</ele>
        <time>2019-03-19T15:38:19Z</time>
      </trkpt>
      <trkpt lat="44.26021" lon="5.72307">
        <ele>656</ele>
        <time>2019-03-19T15:38:20Z</time>
      </trkpt>
      <trkpt lat="44.26024" lon="5.72314">
        <ele>656</ele>
        <time>2019-03-19T15:38:21Z</time>
      </trkpt>
      <trkpt lat="44.26028" lon="5.72321">
        <ele>656</ele>
        <time>2019-03-19T15:38:22Z</time>
      </trkpt>
      <trkpt lat="44.26031" lon="5.72328">
        <ele>656</ele>
        <time>2019-03-19T15:38:23Z</time>
      </trkpt>
      <trkpt lat="44.26035" lon="5.72335">
        <ele>656</ele>
        <time>2019-03-19T15:38:24Z</time>
      </trkpt>
      <trkpt lat="44.26038" lon="5.72343">
        <ele>656</ele>
        <time>2019-03-19T15:38:25Z</time>
      </trkpt>
      <trkpt lat="44.26042" lon="5.7235">
        <ele>656</ele>
        <time>2019-03-19T15:38:26Z</time>
      </trkpt>
      <trkpt lat="44.26046" lon="5.72357">
        <ele>656</ele>
        <time>2019-03-19T15:38:27Z</time>
      </trkpt>
      <trkpt lat="44.26049" lon="5.72364">
        <ele>656</ele>
        <time>2019-03-19T15:38:28Z</time>
      </trkpt>
      <trkpt lat="44.26053" lon="5.72372">
        <ele>656</ele>
        <time>2019-03-19T15:38:29Z</time>
      </trkpt>
      <trkpt lat="44.26057" lon="5.72379">
        <ele>656</ele>
        <time>2019-03-19T15:38:30Z</time>
      </trkpt>
      <trkpt lat="44.2606" lon="5.72387">
        <ele>656</ele>
        <time>2019-03-19T15:38:31Z</time>
      </trkpt>
      <trkpt lat="44.26064" lon="5.72395">
        <ele>656</ele>
        <time>2019-03-19T15:38:32Z</time>
      </trkpt>
      <trkpt lat="44.26067" lon="5.72403">
        <ele>656</ele>
        <time>2019-03-19T15:38:33Z</time>
      </trkpt>
      <trkpt lat="44.2607" lon="5.72411">
        <ele>656</ele>
        <time>2019-03-19T15:38:34Z</time>
      </trkpt>
      <trkpt lat="44.26072" lon="5.72419">
        <ele>655</ele>
        <time>2019-03-19T15:38:35Z</time>
      </trkpt>
      <trkpt lat="44.26075" lon="5.72428">
        <ele>655</ele>
        <time>2019-03-19T15:38:36Z</time>
      </trkpt>
      <trkpt lat="44.26078" lon="5.72436">
        <ele>655</ele>
        <time>2019-03-19T15:38:37Z</time>
      </trkpt>
      <trkpt lat="44.2608" lon="5.72444">
        <ele>655</ele>
        <time>2019-03-19T15:38:38Z</time>
      </trkpt>
      <trkpt lat="44.26081" lon="5.72453">
        <ele>655</ele>
        <time>2019-03-19T15:38:39Z</time>
      </trkpt>
      <trkpt lat="44.26083" lon="5.72461">
        <ele>655</ele>
        <time>2019-03-19T15:38:40Z</time>
      </trkpt>
      <trkpt lat="44.26085" lon="5.72469">
        <ele>655</ele>
        <time>2019-03-19T15:38:41Z</time>
      </trkpt>
      <trkpt lat="44.26087" lon="5.72477">
        <ele>655</ele>
        <time>2019-03-19T15:38:42Z</time>
      </trkpt>
      <trkpt lat="44.26088" lon="5.72484">
        <ele>655</ele>
        <time>2019-03-19T15:38:43Z</time>
      </trkpt>
      <trkpt lat="44.2609" lon="5.72492">
        <ele>655</ele>
        <time>2019-03-19T15:38:44Z</time>
      </trkpt>
      <trkpt lat="44.26092" lon="5.725">
        <ele>655</ele>
        <time>2019-03-19T15:38:45Z</time>
      </trkpt>
      <trkpt lat="44.26094" lon="5.72507">
        <ele>655</ele>
        <time>2019-03-19T15:38:46Z</time>
      </trkpt>
      <trkpt lat="44.26095" lon="5.72514">
        <ele>655</ele>
        <time>2019-03-19T15:38:47Z</time>
      </trkpt>
      <trkpt lat="44.26097" lon="5.72521">
        <ele>655</ele>
        <time>2019-03-19T15:38:48Z</time>
      </trkpt>
      <trkpt lat="44.26099" lon="5.72528">
        <ele>655</ele>
        <time>2019-03-19T15:38:49Z</time>
      </trkpt>
      <trkpt lat="44.26101" lon="5.72535">
        <ele>655</ele>
        <time>2019-03-19T15:38:50Z</time>
      </trkpt>
      <trkpt lat="44.26102" lon="5.72542">
        <ele>655</ele>
        <time>2019-03-19T15:38:51Z</time>
      </trkpt>
      <trkpt lat="44.26104" lon="5.72549">
        <ele>655</ele>
        <time>2019-03-19T15:38:52Z</time>
      </trkpt>
      <trkpt lat="44.26106" lon="5.72556">
        <ele>655</ele>
        <time>2019-03-19T15:38:53Z</time>
      </trkpt>
      <trkpt lat="44.26108" lon="5.72563">
        <ele>655</ele>
        <time>2019-03-19T15:38:54Z</time>
      </trkpt>
      <trkpt lat="44.2611" lon="5.7257">
        <ele>655</ele>
        <time>2019-03-19T15:38:55Z</time>
      </trkpt>
      <trkpt lat="44.26112" lon="5.72577">
        <ele>655</ele>
        <time>2019-03-19T15:38:56Z</time>
      </trkpt>
      <trkpt lat="44.26114" lon="5.72584">
        <ele>655</ele>
        <time>2019-03-19T15:38:57Z</time>
      </trkpt>
      <trkpt lat="44.26115" lon="5.72591">
        <ele>655</ele>
        <time>2019-03-19T15:38:58Z</time>
      </trkpt>
      <trkpt lat="44.26117" lon="5.72598">
        <ele>655</ele>
        <time>2019-03-19T15:38:59Z</time>
      </trkpt>
      <trkpt lat="44.26119" lon="5.72606">
        <ele>655</ele>
        <time>2019-03-19T15:39:00Z</time>
      </trkpt>
      <trkpt lat="44.2612" lon="5.72613">
        <ele>655</ele>
        <time>2019-03-19T15:39:01Z</time>
      </trkpt>
      <trkpt lat="44.26122" lon="5.7262">
        <ele>655</ele>
        <time>2019-03-19T15:39:02Z</time>
      </trkpt>
      <trkpt lat="44.26124" lon="5.72627">
        <ele>655</ele>
        <time>2019-03-19T15:39:03Z</time>
      </trkpt>
      <trkpt lat="44.26126" lon="5.72634">
        <ele>655</ele>
        <time>2019-03-19T15:39:04Z</time>
      </trkpt>
      <trkpt lat="44.26128" lon="5.72642">
        <ele>655</ele>
        <time>2019-03-19T15:39:05Z</time>
      </trkpt>
      <trkpt lat="44.2613" lon="5.72649">
        <ele>655</ele>
        <time>2019-03-19T15:39:06Z</time>
      </trkpt>
      <trkpt lat="44.26131" lon="5.72658">
        <ele>655</ele>
        <time>2019-03-19T15:39:07Z</time>
      </trkpt>
      <trkpt lat="44.26133" lon="5.72666">
        <ele>655</ele>
        <time>2019-03-19T15:39:08Z</time>
      </trkpt>
      <trkpt lat="44.26136" lon="5.72674">
        <ele>655</ele>
        <time>2019-03-19T15:39:09Z</time>
      </trkpt>
      <trkpt lat="44.26138" lon="5.72683">
        <ele>655</ele>
        <time>2019-03-19T15:39:10Z</time>
      </trkpt>
      <trkpt lat="44.2614" lon="5.72691">
        <ele>655</ele>
        <time>2019-03-19T15:39:11Z</time>
      </trkpt>
      <trkpt lat="44.26143" lon="5.727">
        <ele>655</ele>
        <time>2019-03-19T15:39:12Z</time>
      </trkpt>
      <trkpt lat="44.26144" lon="5.72709">
        <ele>655</ele>
        <time>2019-03-19T15:39:13Z</time>
      </trkpt>
      <trkpt lat="44.26147" lon="5.72718">
        <ele>655</ele>
        <time>2019-03-19T15:39:14Z</time>
      </trkpt>
      <trkpt lat="44.26149" lon="5.72727">
        <ele>655</ele>
        <time>2019-03-19T15:39:15Z</time>
      </trkpt>
      <trkpt lat="44.26151" lon="5.72737">
        <ele>655</ele>
        <time>2019-03-19T15:39:16Z</time>
      </trkpt>
      <trkpt lat="44.26153" lon="5.72746">
        <ele>655</ele>
        <time>2019-03-19T15:39:17Z</time>
      </trkpt>
      <trkpt lat="44.26155" lon="5.72755">
        <ele>655</ele>
        <time>2019-03-19T15:39:18Z</time>
      </trkpt>
      <trkpt lat="44.26157" lon="5.72765">
        <ele>655</ele>
        <time>2019-03-19T15:39:19Z</time>
      </trkpt>
      <trkpt lat="44.26159" lon="5.72775">
        <ele>655</ele>
        <time>2019-03-19T15:39:20Z</time>
      </trkpt>
      <trkpt lat="44.2616" lon="5.72785">
        <ele>655</ele>
        <time>2019-03-19T15:39:21Z</time>
      </trkpt>
      <trkpt lat="44.26161" lon="5.72795">
        <ele>654</ele>
        <time>2019-03-19T15:39:22Z</time>
      </trkpt>
      <trkpt lat="44.26161" lon="5.72806">
        <ele>654</ele>
        <time>2019-03-19T15:39:23Z</time>
      </trkpt>
      <trkpt lat="44.26161" lon="5.72816">
        <ele>654</ele>
        <time>2019-03-19T15:39:24Z</time>
      </trkpt>
      <trkpt lat="44.26161" lon="5.72827">
        <ele>653</ele>
        <time>2019-03-19T15:39:25Z</time>
      </trkpt>
      <trkpt lat="44.2616" lon="5.72837">
        <ele>653</ele>
        <time>2019-03-19T15:39:26Z</time>
      </trkpt>
      <trkpt lat="44.2616" lon="5.72848">
        <ele>653</ele>
        <time>2019-03-19T15:39:27Z</time>
      </trkpt>
      <trkpt lat="44.2616" lon="5.72859">
        <ele>652</ele>
        <time>2019-03-19T15:39:28Z</time>
      </trkpt>
      <trkpt lat="44.2616" lon="5.7287">
        <ele>652</ele>
        <time>2019-03-19T15:39:29Z</time>
      </trkpt>
      <trkpt lat="44.2616" lon="5.72881">
        <ele>651</ele>
        <time>2019-03-19T15:39:30Z</time>
      </trkpt>
      <trkpt lat="44.26159" lon="5.72893">
        <ele>651</ele>
        <time>2019-03-19T15:39:31Z</time>
      </trkpt>
      <trkpt lat="44.26159" lon="5.72904">
        <ele>650</ele>
        <time>2019-03-19T15:39:32Z</time>
      </trkpt>
      <trkpt lat="44.26158" lon="5.72916">
        <ele>649</ele>
        <time>2019-03-19T15:39:33Z</time>
      </trkpt>
      <trkpt lat="44.26157" lon="5.72927">
        <ele>649</ele>
        <time>2019-03-19T15:39:34Z</time>
      </trkpt>
      <trkpt lat="44.26157" lon="5.72938">
        <ele>648</ele>
        <time>2019-03-19T15:39:35Z</time>
      </trkpt>
      <trkpt lat="44.26156" lon="5.7295">
        <ele>648</ele>
        <time>2019-03-19T15:39:36Z</time>
      </trkpt>
      <trkpt lat="44.26156" lon="5.72961">
        <ele>648</ele>
        <time>2019-03-19T15:39:37Z</time>
      </trkpt>
      <trkpt lat="44.26156" lon="5.72972">
        <ele>647</ele>
        <time>2019-03-19T15:39:38Z</time>
      </trkpt>
      <trkpt lat="44.26156" lon="5.72984">
        <ele>647</ele>
        <time>2019-03-19T15:39:39Z</time>
      </trkpt>
      <trkpt lat="44.26156" lon="5.72995">
        <ele>647</ele>
        <time>2019-03-19T15:39:40Z</time>
      </trkpt>
      <trkpt lat="44.26156" lon="5.73006">
        <ele>646</ele>
        <time>2019-03-19T15:39:41Z</time>
      </trkpt>
      <trkpt lat="44.26156" lon="5.73017">
        <ele>646</ele>
        <time>2019-03-19T15:39:42Z</time>
      </trkpt>
      <trkpt lat="44.26156" lon="5.73029">
        <ele>646</ele>
        <time>2019-03-19T15:39:43Z</time>
      </trkpt>
      <trkpt lat="44.26156" lon="5.7304">
        <ele>646</ele>
        <time>2019-03-19T15:39:44Z</time>
      </trkpt>
      <trkpt lat="44.26156" lon="5.73052">
        <ele>645</ele>
        <time>2019-03-19T15:39:45Z</time>
      </trkpt>
      <trkpt lat="44.26156" lon="5.73063">
        <ele>645</ele>
        <time>2019-03-19T15:39:46Z</time>
      </trkpt>
      <trkpt lat="44.26156" lon="5.73074">
        <ele>645</ele>
        <time>2019-03-19T15:39:47Z</time>
      </trkpt>
      <trkpt lat="44.26157" lon="5.73085">
        <ele>645</ele>
        <time>2019-03-19T15:39:48Z</time>
      </trkpt>
      <trkpt lat="44.26158" lon="5.73096">
        <ele>645</ele>
        <time>2019-03-19T15:39:49Z</time>
      </trkpt>
      <trkpt lat="44.26159" lon="5.73106">
        <ele>645</ele>
        <time>2019-03-19T15:39:50Z</time>
      </trkpt>
      <trkpt lat="44.26161" lon="5.73117">
        <ele>645</ele>
        <time>2019-03-19T15:39:51Z</time>
      </trkpt>
      <trkpt lat="44.26163" lon="5.73127">
        <ele>645</ele>
        <time>2019-03-19T15:39:52Z</time>
      </trkpt>
      <trkpt lat="44.26164" lon="5.73136">
        <ele>645</ele>
        <time>2019-03-19T15:39:53Z</time>
      </trkpt>
      <trkpt lat="44.26167" lon="5.73146">
        <ele>645</ele>
        <time>2019-03-19T15:39:54Z</time>
      </trkpt>
      <trkpt lat="44.2617" lon="5.73156">
        <ele>645</ele>
        <time>2019-03-19T15:39:55Z</time>
      </trkpt>
      <trkpt lat="44.26172" lon="5.73165">
        <ele>645</ele>
        <time>2019-03-19T15:39:56Z</time>
      </trkpt>
      <trkpt lat="44.26174" lon="5.73174">
        <ele>645</ele>
        <time>2019-03-19T15:39:57Z</time>
      </trkpt>
      <trkpt lat="44.26177" lon="5.73182">
        <ele>645</ele>
        <time>2019-03-19T15:39:58Z</time>
      </trkpt>
      <trkpt lat="44.2618" lon="5.73191">
        <ele>645</ele>
        <time>2019-03-19T15:39:59Z</time>
      </trkpt>
      <trkpt lat="44.26183" lon="5.73199">
        <ele>645</ele>
        <time>2019-03-19T15:40:00Z</time>
      </trkpt>
      <trkpt lat="44.26186" lon="5.73208">
        <ele>645</ele>
        <time>2019-03-19T15:40:01Z</time>
      </trkpt>
      <trkpt lat="44.26189" lon="5.73215">
        <ele>645</ele>
        <time>2019-03-19T15:40:02Z</time>
      </trkpt>
      <trkpt lat="44.26191" lon="5.73223">
        <ele>645</ele>
        <time>2019-03-19T15:40:03Z</time>
      </trkpt>
      <trkpt lat="44.26193" lon="5.7323">
        <ele>645</ele>
        <time>2019-03-19T15:40:04Z</time>
      </trkpt>
      <trkpt lat="44.26195" lon="5.73237">
        <ele>645</ele>
        <time>2019-03-19T15:40:05Z</time>
      </trkpt>
      <trkpt lat="44.26197" lon="5.73244">
        <ele>645</ele>
        <time>2019-03-19T15:40:06Z</time>
      </trkpt>
      <trkpt lat="44.262" lon="5.73251">
        <ele>645</ele>
        <time>2019-03-19T15:40:07Z</time>
      </trkpt>
      <trkpt lat="44.26204" lon="5.73257">
        <ele>645</ele>
        <time>2019-03-19T15:40:08Z</time>
      </trkpt>
      <trkpt lat="44.26207" lon="5.73263">
        <ele>645</ele>
        <time>2019-03-19T15:40:09Z</time>
      </trkpt>
      <trkpt lat="44.2621" lon="5.73269">
        <ele>645</ele>
        <time>2019-03-19T15:40:10Z</time>
      </trkpt>
      <trkpt lat="44.26212" lon="5.73276">
        <ele>645</ele>
        <time>2019-03-19T15:40:11Z</time>
      </trkpt>
      <trkpt lat="44.26213" lon="5.73282">
        <ele>645</ele>
        <time>2019-03-19T15:40:12Z</time>
      </trkpt>
      <trkpt lat="44.26216" lon="5.73288">
        <ele>645</ele>
        <time>2019-03-19T15:40:13Z</time>
      </trkpt>
      <trkpt lat="44.26218" lon="5.73294">
        <ele>645</ele>
        <time>2019-03-19T15:40:14Z</time>
      </trkpt>
      <trkpt lat="44.26221" lon="5.733">
        <ele>645</ele>
        <time>2019-03-19T15:40:15Z</time>
      </trkpt>
      <trkpt lat="44.26223" lon="5.73306">
        <ele>645</ele>
        <time>2019-03-19T15:40:16Z</time>
      </trkpt>
      <trkpt lat="44.26226" lon="5.73313">
        <ele>645</ele>
        <time>2019-03-19T15:40:17Z</time>
      </trkpt>
      <trkpt lat="44.26228" lon="5.73319">
        <ele>645</ele>
        <time>2019-03-19T15:40:18Z</time>
      </trkpt>
      <trkpt lat="44.26229" lon="5.73326">
        <ele>645</ele>
        <time>2019-03-19T15:40:19Z</time>
      </trkpt>
      <trkpt lat="44.26231" lon="5.73333">
        <ele>645</ele>
        <time>2019-03-19T15:40:20Z</time>
      </trkpt>
      <trkpt lat="44.26233" lon="5.73339">
        <ele>645</ele>
        <time>2019-03-19T15:40:21Z</time>
      </trkpt>
      <trkpt lat="44.26235" lon="5.73346">
        <ele>645</ele>
        <time>2019-03-19T15:40:22Z</time>
      </trkpt>
      <trkpt lat="44.26237" lon="5.73353">
        <ele>645</ele>
        <time>2019-03-19T15:40:23Z</time>
      </trkpt>
      <trkpt lat="44.26239" lon="5.73359">
        <ele>645</ele>
        <time>2019-03-19T15:40:24Z</time>
      </trkpt>
      <trkpt lat="44.26242" lon="5.73366">
        <ele>645</ele>
        <time>2019-03-19T15:40:25Z</time>
      </trkpt>
      <trkpt lat="44.26244" lon="5.73373">
        <ele>645</ele>
        <time>2019-03-19T15:40:26Z</time>
      </trkpt>
      <trkpt lat="44.26246" lon="5.7338">
        <ele>645</ele>
        <time>2019-03-19T15:40:27Z</time>
      </trkpt>
      <trkpt lat="44.26248" lon="5.73387">
        <ele>645</ele>
        <time>2019-03-19T15:40:28Z</time>
      </trkpt>
      <trkpt lat="44.2625" lon="5.73394">
        <ele>645</ele>
        <time>2019-03-19T15:40:29Z</time>
      </trkpt>
      <trkpt lat="44.26252" lon="5.73401">
        <ele>645</ele>
        <time>2019-03-19T15:40:30Z</time>
      </trkpt>
      <trkpt lat="44.26254" lon="5.73408">
        <ele>645</ele>
        <time>2019-03-19T15:40:31Z</time>
      </trkpt>
      <trkpt lat="44.26256" lon="5.73416">
        <ele>645</ele>
        <time>2019-03-19T15:40:32Z</time>
      </trkpt>
      <trkpt lat="44.26258" lon="5.73423">
        <ele>645</ele>
        <time>2019-03-19T15:40:33Z</time>
      </trkpt>
      <trkpt lat="44.2626" lon="5.73431">
        <ele>645</ele>
        <time>2019-03-19T15:40:34Z</time>
      </trkpt>
      <trkpt lat="44.26261" lon="5.73439">
        <ele>645</ele>
        <time>2019-03-19T15:40:35Z</time>
      </trkpt>
      <trkpt lat="44.26263" lon="5.73448">
        <ele>645</ele>
        <time>2019-03-19T15:40:36Z</time>
      </trkpt>
      <trkpt lat="44.26264" lon="5.73456">
        <ele>645</ele>
        <time>2019-03-19T15:40:37Z</time>
      </trkpt>
      <trkpt lat="44.26266" lon="5.73464">
        <ele>645</ele>
        <time>2019-03-19T15:40:38Z</time>
      </trkpt>
      <trkpt lat="44.26267" lon="5.73473">
        <ele>645</ele>
        <time>2019-03-19T15:40:39Z</time>
      </trkpt>
      <trkpt lat="44.26268" lon="5.73481">
        <ele>645</ele>
        <time>2019-03-19T15:40:40Z</time>
      </trkpt>
      <trkpt lat="44.26269" lon="5.7349">
        <ele>645</ele>
        <time>2019-03-19T15:40:41Z</time>
      </trkpt>
      <trkpt lat="44.26271" lon="5.73498">
        <ele>645</ele>
        <time>2019-03-19T15:40:42Z</time>
      </trkpt>
      <trkpt lat="44.26272" lon="5.73506">
        <ele>645</ele>
        <time>2019-03-19T15:40:43Z</time>
      </trkpt>
      <trkpt lat="44.26273" lon="5.73515">
        <ele>645</ele>
        <time>2019-03-19T15:40:44Z</time>
      </trkpt>
      <trkpt lat="44.26275" lon="5.73524">
        <ele>645</ele>
        <time>2019-03-19T15:40:45Z</time>
      </trkpt>
      <trkpt lat="44.26276" lon="5.73532">
        <ele>644</ele>
        <time>2019-03-19T15:40:46Z</time>
      </trkpt>
      <trkpt lat="44.26277" lon="5.7354">
        <ele>644</ele>
        <time>2019-03-19T15:40:47Z</time>
      </trkpt>
      <trkpt lat="44.26279" lon="5.73548">
        <ele>644</ele>
        <time>2019-03-19T15:40:48Z</time>
      </trkpt>
      <trkpt lat="44.2628" lon="5.73556">
        <ele>644</ele>
        <time>2019-03-19T15:40:49Z</time>
      </trkpt>
      <trkpt lat="44.26281" lon="5.73564">
        <ele>644</ele>
        <time>2019-03-19T15:40:50Z</time>
      </trkpt>
      <trkpt lat="44.26282" lon="5.73572">
        <ele>644</ele>
        <time>2019-03-19T15:40:51Z</time>
      </trkpt>
      <trkpt lat="44.26283" lon="5.7358">
        <ele>644</ele>
        <time>2019-03-19T15:40:52Z</time>
      </trkpt>
      <trkpt lat="44.26284" lon="5.73588">
        <ele>644</ele>
        <time>2019-03-19T15:40:53Z</time>
      </trkpt>
      <trkpt lat="44.26285" lon="5.73596">
        <ele>644</ele>
        <time>2019-03-19T15:40:54Z</time>
      </trkpt>
      <trkpt lat="44.26286" lon="5.73604">
        <ele>644</ele>
        <time>2019-03-19T15:40:55Z</time>
      </trkpt>
      <trkpt lat="44.26286" lon="5.73613">
        <ele>644</ele>
        <time>2019-03-19T15:40:56Z</time>
      </trkpt>
      <trkpt lat="44.26287" lon="5.73621">
        <ele>644</ele>
        <time>2019-03-19T15:40:57Z</time>
      </trkpt>
      <trkpt lat="44.26288" lon="5.7363">
        <ele>644</ele>
        <time>2019-03-19T15:40:58Z</time>
      </trkpt>
      <trkpt lat="44.2629" lon="5.73638">
        <ele>644</ele>
        <time>2019-03-19T15:40:59Z</time>
      </trkpt>
      <trkpt lat="44.26291" lon="5.73647">
        <ele>644</ele>
        <time>2019-03-19T15:41:00Z</time>
      </trkpt>
      <trkpt lat="44.26292" lon="5.73655">
        <ele>643</ele>
        <time>2019-03-19T15:41:01Z</time>
      </trkpt>
      <trkpt lat="44.26294" lon="5.73664">
        <ele>643</ele>
        <time>2019-03-19T15:41:02Z</time>
      </trkpt>
      <trkpt lat="44.26295" lon="5.73672">
        <ele>643</ele>
        <time>2019-03-19T15:41:03Z</time>
      </trkpt>
      <trkpt lat="44.26296" lon="5.7368">
        <ele>643</ele>
        <time>2019-03-19T15:41:04Z</time>
      </trkpt>
      <trkpt lat="44.26297" lon="5.73689">
        <ele>643</ele>
        <time>2019-03-19T15:41:05Z</time>
      </trkpt>
      <trkpt lat="44.26299" lon="5.73697">
        <ele>643</ele>
        <time>2019-03-19T15:41:06Z</time>
      </trkpt>
      <trkpt lat="44.263" lon="5.73705">
        <ele>643</ele>
        <time>2019-03-19T15:41:07Z</time>
      </trkpt>
      <trkpt lat="44.26301" lon="5.73713">
        <ele>643</ele>
        <time>2019-03-19T15:41:08Z</time>
      </trkpt>
      <trkpt lat="44.26302" lon="5.73721">
        <ele>643</ele>
        <time>2019-03-19T15:41:09Z</time>
      </trkpt>
      <trkpt lat="44.26303" lon="5.73729">
        <ele>643</ele>
        <time>2019-03-19T15:41:10Z</time>
      </trkpt>
      <trkpt lat="44.26304" lon="5.73737">
        <ele>643</ele>
        <time>2019-03-19T15:41:11Z</time>
      </trkpt>
      <trkpt lat="44.26305" lon="5.73745">
        <ele>643</ele>
        <time>2019-03-19T15:41:12Z</time>
      </trkpt>
      <trkpt lat="44.26306" lon="5.73753">
        <ele>643</ele>
        <time>2019-03-19T15:41:13Z</time>
      </trkpt>
      <trkpt lat="44.26307" lon="5.73761">
        <ele>643</ele>
        <time>2019-03-19T15:41:14Z</time>
      </trkpt>
      <trkpt lat="44.26308" lon="5.73769">
        <ele>643</ele>
        <time>2019-03-19T15:41:15Z</time>
      </trkpt>
      <trkpt lat="44.2631" lon="5.73777">
        <ele>643</ele>
        <time>2019-03-19T15:41:16Z</time>
      </trkpt>
      <trkpt lat="44.2631" lon="5.73785">
        <ele>643</ele>
        <time>2019-03-19T15:41:17Z</time>
      </trkpt>
      <trkpt lat="44.26311" lon="5.73793">
        <ele>643</ele>
        <time>2019-03-19T15:41:18Z</time>
      </trkpt>
      <trkpt lat="44.26313" lon="5.73801">
        <ele>643</ele>
        <time>2019-03-19T15:41:19Z</time>
      </trkpt>
      <trkpt lat="44.26313" lon="5.73808">
        <ele>643</ele>
        <time>2019-03-19T15:41:20Z</time>
      </trkpt>
      <trkpt lat="44.26314" lon="5.73816">
        <ele>643</ele>
        <time>2019-03-19T15:41:21Z</time>
      </trkpt>
      <trkpt lat="44.26315" lon="5.73824">
        <ele>643</ele>
        <time>2019-03-19T15:41:22Z</time>
      </trkpt>
      <trkpt lat="44.26315" lon="5.73832">
        <ele>643</ele>
        <time>2019-03-19T15:41:23Z</time>
      </trkpt>
      <trkpt lat="44.26316" lon="5.7384">
        <ele>643</ele>
        <time>2019-03-19T15:41:24Z</time>
      </trkpt>
      <trkpt lat="44.26316" lon="5.73847">
        <ele>643</ele>
        <time>2019-03-19T15:41:25Z</time>
      </trkpt>
      <trkpt lat="44.26317" lon="5.73855">
        <ele>643</ele>
        <time>2019-03-19T15:41:26Z</time>
      </trkpt>
      <trkpt lat="44.26317" lon="5.73863">
        <ele>643</ele>
        <time>2019-03-19T15:41:27Z</time>
      </trkpt>
      <trkpt lat="44.26318" lon="5.73871">
        <ele>643</ele>
        <time>2019-03-19T15:41:28Z</time>
      </trkpt>
      <trkpt lat="44.26318" lon="5.73878">
        <ele>643</ele>
        <time>2019-03-19T15:41:29Z</time>
      </trkpt>
      <trkpt lat="44.26319" lon="5.73886">
        <ele>643</ele>
        <time>2019-03-19T15:41:30Z</time>
      </trkpt>
      <trkpt lat="44.26319" lon="5.73893">
        <ele>643</ele>
        <time>2019-03-19T15:41:31Z</time>
      </trkpt>
      <trkpt lat="44.2632" lon="5.73901">
        <ele>643</ele>
        <time>2019-03-19T15:41:32Z</time>
      </trkpt>
      <trkpt lat="44.2632" lon="5.73908">
        <ele>643</ele>
        <time>2019-03-19T15:41:33Z</time>
      </trkpt>
      <trkpt lat="44.2632" lon="5.73915">
        <ele>643</ele>
        <time>2019-03-19T15:41:34Z</time>
      </trkpt>
      <trkpt lat="44.2632" lon="5.73923">
        <ele>643</ele>
        <time>2019-03-19T15:41:35Z</time>
      </trkpt>
      <trkpt lat="44.26321" lon="5.7393">
        <ele>643</ele>
        <time>2019-03-19T15:41:36Z</time>
      </trkpt>
      <trkpt lat="44.26321" lon="5.73938">
        <ele>643</ele>
        <time>2019-03-19T15:41:37Z</time>
      </trkpt>
      <trkpt lat="44.26321" lon="5.73945">
        <ele>643</ele>
        <time>2019-03-19T15:41:38Z</time>
      </trkpt>
      <trkpt lat="44.26322" lon="5.73953">
        <ele>643</ele>
        <time>2019-03-19T15:41:39Z</time>
      </trkpt>
      <trkpt lat="44.26322" lon="5.7396">
        <ele>643</ele>
        <time>2019-03-19T15:41:40Z</time>
      </trkpt>
      <trkpt lat="44.26323" lon="5.73968">
        <ele>643</ele>
        <time>2019-03-19T15:41:41Z</time>
      </trkpt>
      <trkpt lat="44.26323" lon="5.73976">
        <ele>643</ele>
        <time>2019-03-19T15:41:42Z</time>
      </trkpt>
      <trkpt lat="44.26324" lon="5.73983">
        <ele>643</ele>
        <time>2019-03-19T15:41:43Z</time>
      </trkpt>
      <trkpt lat="44.26324" lon="5.73991">
        <ele>643</ele>
        <time>2019-03-19T15:41:44Z</time>
      </trkpt>
      <trkpt lat="44.26325" lon="5.73999">
        <ele>643</ele>
        <time>2019-03-19T15:41:45Z</time>
      </trkpt>
      <trkpt lat="44.26325" lon="5.74007">
        <ele>643</ele>
        <time>2019-03-19T15:41:46Z</time>
      </trkpt>
      <trkpt lat="44.26325" lon="5.74015">
        <ele>643</ele>
        <time>2019-03-19T15:41:47Z</time>
      </trkpt>
      <trkpt lat="44.26326" lon="5.74023">
        <ele>643</ele>
        <time>2019-03-19T15:41:48Z</time>
      </trkpt>
      <trkpt lat="44.26326" lon="5.74031">
        <ele>643</ele>
        <time>2019-03-19T15:41:49Z</time>
      </trkpt>
      <trkpt lat="44.26327" lon="5.74039">
        <ele>643</ele>
        <time>2019-03-19T15:41:50Z</time>
      </trkpt>
      <trkpt lat="44.26327" lon="5.74047">
        <ele>643</ele>
        <time>2019-03-19T15:41:51Z</time>
      </trkpt>
      <trkpt lat="44.26328" lon="5.74055">
        <ele>643</ele>
        <time>2019-03-19T15:41:52Z</time>
      </trkpt>
      <trkpt lat="44.26328" lon="5.74064">
        <ele>643</ele>
        <time>2019-03-19T15:41:53Z</time>
      </trkpt>
      <trkpt lat="44.26329" lon="5.74072">
        <ele>643</ele>
        <time>2019-03-19T15:41:54Z</time>
      </trkpt>
      <trkpt lat="44.26329" lon="5.74081">
        <ele>643</ele>
        <time>2019-03-19T15:41:55Z</time>
      </trkpt>
      <trkpt lat="44.2633" lon="5.74089">
        <ele>643</ele>
        <time>2019-03-19T15:41:56Z</time>
      </trkpt>
      <trkpt lat="44.2633" lon="5.74098">
        <ele>643</ele>
        <time>2019-03-19T15:41:57Z</time>
      </trkpt>
      <trkpt lat="44.26331" lon="5.74106">
        <ele>643</ele>
        <time>2019-03-19T15:41:58Z</time>
      </trkpt>
      <trkpt lat="44.26331" lon="5.74115">
        <ele>643</ele>
        <time>2019-03-19T15:41:59Z</time>
      </trkpt>
      <trkpt lat="44.26332" lon="5.74123">
        <ele>643</ele>
        <time>2019-03-19T15:42:00Z</time>
      </trkpt>
      <trkpt lat="44.26332" lon="5.74132">
        <ele>643</ele>
        <time>2019-03-19T15:42:01Z</time>
      </trkpt>
      <trkpt lat="44.26333" lon="5.7414">
        <ele>643</ele>
        <time>2019-03-19T15:42:02Z</time>
      </trkpt>
      <trkpt lat="44.26333" lon="5.74148">
        <ele>643</ele>
        <time>2019-03-19T15:42:03Z</time>
      </trkpt>
      <trkpt lat="44.26334" lon="5.74157">
        <ele>643</ele>
        <time>2019-03-19T15:42:04Z</time>
      </trkpt>
      <trkpt lat="44.26334" lon="5.74164">
        <ele>643</ele>
        <time>2019-03-19T15:42:05Z</time>
      </trkpt>
      <trkpt lat="44.26335" lon="5.74173">
        <ele>643</ele>
        <time>2019-03-19T15:42:06Z</time>
      </trkpt>
      <trkpt lat="44.26335" lon="5.74181">
        <ele>643</ele>
        <time>2019-03-19T15:42:07Z</time>
      </trkpt>
      <trkpt lat="44.26335" lon="5.74189">
        <ele>643</ele>
        <time>2019-03-19T15:42:08Z</time>
      </trkpt>
      <trkpt lat="44.26336" lon="5.74197">
        <ele>643</ele>
        <time>2019-03-19T15:42:09Z</time>
      </trkpt>
      <trkpt lat="44.26337" lon="5.74205">
        <ele>643</ele>
        <time>2019-03-19T15:42:10Z</time>
      </trkpt>
      <trkpt lat="44.26337" lon="5.74214">
        <ele>643</ele>
        <time>2019-03-19T15:42:11Z</time>
      </trkpt>
      <trkpt lat="44.26338" lon="5.74222">
        <ele>643</ele>
        <time>2019-03-19T15:42:12Z</time>
      </trkpt>
      <trkpt lat="44.26338" lon="5.7423">
        <ele>643</ele>
        <time>2019-03-19T15:42:13Z</time>
      </trkpt>
      <trkpt lat="44.26339" lon="5.74239">
        <ele>643</ele>
        <time>2019-03-19T15:42:14Z</time>
      </trkpt>
      <trkpt lat="44.26339" lon="5.74247">
        <ele>643</ele>
        <time>2019-03-19T15:42:15Z</time>
      </trkpt>
      <trkpt lat="44.2634" lon="5.74256">
        <ele>643</ele>
        <time>2019-03-19T15:42:16Z</time>
      </trkpt>
      <trkpt lat="44.2634" lon="5.74264">
        <ele>643</ele>
        <time>2019-03-19T15:42:17Z</time>
      </trkpt>
      <trkpt lat="44.2634" lon="5.74273">
        <ele>643</ele>
        <time>2019-03-19T15:42:18Z</time>
      </trkpt>
      <trkpt lat="44.26341" lon="5.74282">
        <ele>643</ele>
        <time>2019-03-19T15:42:19Z</time>
      </trkpt>
      <trkpt lat="44.26341" lon="5.74291">
        <ele>643</ele>
        <time>2019-03-19T15:42:20Z</time>
      </trkpt>
      <trkpt lat="44.26342" lon="5.74299">
        <ele>643</ele>
        <time>2019-03-19T15:42:21Z</time>
      </trkpt>
      <trkpt lat="44.26342" lon="5.74308">
        <ele>643</ele>
        <time>2019-03-19T15:42:22Z</time>
      </trkpt>
      <trkpt lat="44.26343" lon="5.74317">
        <ele>643</ele>
        <time>2019-03-19T15:42:23Z</time>
      </trkpt>
      <trkpt lat="44.26344" lon="5.74326">
        <ele>643</ele>
        <time>2019-03-19T15:42:24Z</time>
      </trkpt>
      <trkpt lat="44.26345" lon="5.74335">
        <ele>643</ele>
        <time>2019-03-19T15:42:25Z</time>
      </trkpt>
      <trkpt lat="44.26346" lon="5.74344">
        <ele>643</ele>
        <time>2019-03-19T15:42:26Z</time>
      </trkpt>
      <trkpt lat="44.26347" lon="5.74353">
        <ele>642</ele>
        <time>2019-03-19T15:42:27Z</time>
      </trkpt>
      <trkpt lat="44.2635" lon="5.74363">
        <ele>642</ele>
        <time>2019-03-19T15:42:28Z</time>
      </trkpt>
      <trkpt lat="44.26352" lon="5.74372">
        <ele>642</ele>
        <time>2019-03-19T15:42:29Z</time>
      </trkpt>
      <trkpt lat="44.26354" lon="5.74382">
        <ele>641</ele>
        <time>2019-03-19T15:42:30Z</time>
      </trkpt>
      <trkpt lat="44.26356" lon="5.74393">
        <ele>641</ele>
        <time>2019-03-19T15:42:31Z</time>
      </trkpt>
      <trkpt lat="44.26358" lon="5.74403">
        <ele>640</ele>
        <time>2019-03-19T15:42:32Z</time>
      </trkpt>
      <trkpt lat="44.2636" lon="5.74415">
        <ele>640</ele>
        <time>2019-03-19T15:42:33Z</time>
      </trkpt>
      <trkpt lat="44.26361" lon="5.74427">
        <ele>639</ele>
        <time>2019-03-19T15:42:34Z</time>
      </trkpt>
      <trkpt lat="44.2636" lon="5.74438">
        <ele>639</ele>
        <time>2019-03-19T15:42:35Z</time>
      </trkpt>
      <trkpt lat="44.26357" lon="5.7445">
        <ele>638</ele>
        <time>2019-03-19T15:42:36Z</time>
      </trkpt>
      <trkpt lat="44.26352" lon="5.7446">
        <ele>637</ele>
        <time>2019-03-19T15:42:37Z</time>
      </trkpt>
      <trkpt lat="44.26346" lon="5.74469">
        <ele>637</ele>
        <time>2019-03-19T15:42:38Z</time>
      </trkpt>
      <trkpt lat="44.2634" lon="5.74478">
        <ele>637</ele>
        <time>2019-03-19T15:42:39Z</time>
      </trkpt>
      <trkpt lat="44.26334" lon="5.74487">
        <ele>637</ele>
        <time>2019-03-19T15:42:40Z</time>
      </trkpt>
      <trkpt lat="44.26329" lon="5.74496">
        <ele>637</ele>
        <time>2019-03-19T15:42:41Z</time>
      </trkpt>
      <trkpt lat="44.26324" lon="5.74505">
        <ele>637</ele>
        <time>2019-03-19T15:42:42Z</time>
      </trkpt>
      <trkpt lat="44.2632" lon="5.74515">
        <ele>637</ele>
        <time>2019-03-19T15:42:43Z</time>
      </trkpt>
      <trkpt lat="44.26316" lon="5.74524">
        <ele>637</ele>
        <time>2019-03-19T15:42:44Z</time>
      </trkpt>
      <trkpt lat="44.26311" lon="5.74534">
        <ele>637</ele>
        <time>2019-03-19T15:42:45Z</time>
      </trkpt>
      <trkpt lat="44.26306" lon="5.74543">
        <ele>637</ele>
        <time>2019-03-19T15:42:46Z</time>
      </trkpt>
      <trkpt lat="44.26302" lon="5.74553">
        <ele>637</ele>
        <time>2019-03-19T15:42:47Z</time>
      </trkpt>
      <trkpt lat="44.26297" lon="5.74562">
        <ele>637</ele>
        <time>2019-03-19T15:42:48Z</time>
      </trkpt>
      <trkpt lat="44.26293" lon="5.74572">
        <ele>636</ele>
        <time>2019-03-19T15:42:49Z</time>
      </trkpt>
      <trkpt lat="44.26289" lon="5.74581">
        <ele>636</ele>
        <time>2019-03-19T15:42:50Z</time>
      </trkpt>
      <trkpt lat="44.26285" lon="5.74591">
        <ele>636</ele>
        <time>2019-03-19T15:42:51Z</time>
      </trkpt>
      <trkpt lat="44.26281" lon="5.746">
        <ele>636</ele>
        <time>2019-03-19T15:42:52Z</time>
      </trkpt>
      <trkpt lat="44.26278" lon="5.74611">
        <ele>635</ele>
        <time>2019-03-19T15:42:53Z</time>
      </trkpt>
      <trkpt lat="44.26276" lon="5.74622">
        <ele>635</ele>
        <time>2019-03-19T15:42:54Z</time>
      </trkpt>
      <trkpt lat="44.26276" lon="5.74633">
        <ele>635</ele>
        <time>2019-03-19T15:42:55Z</time>
      </trkpt>
      <trkpt lat="44.26277" lon="5.74644">
        <ele>635</ele>
        <time>2019-03-19T15:42:56Z</time>
      </trkpt>
      <trkpt lat="44.26279" lon="5.74654">
        <ele>634</ele>
        <time>2019-03-19T15:42:57Z</time>
      </trkpt>
      <trkpt lat="44.26282" lon="5.74664">
        <ele>634</ele>
        <time>2019-03-19T15:42:58Z</time>
      </trkpt>
      <trkpt lat="44.26286" lon="5.74675">
        <ele>634</ele>
        <time>2019-03-19T15:42:59Z</time>
      </trkpt>
      <trkpt lat="44.2629" lon="5.74684">
        <ele>633</ele>
        <time>2019-03-19T15:43:00Z</time>
      </trkpt>
      <trkpt lat="44.26294" lon="5.74694">
        <ele>633</ele>
        <time>2019-03-19T15:43:01Z</time>
      </trkpt>
      <trkpt lat="44.26298" lon="5.74704">
        <ele>633</ele>
        <time>2019-03-19T15:43:02Z</time>
      </trkpt>
      <trkpt lat="44.26302" lon="5.74714">
        <ele>632</ele>
        <time>2019-03-19T15:43:03Z</time>
      </trkpt>
      <trkpt lat="44.26307" lon="5.74724">
        <ele>632</ele>
        <time>2019-03-19T15:43:04Z</time>
      </trkpt>
      <trkpt lat="44.26311" lon="5.74734">
        <ele>631</ele>
        <time>2019-03-19T15:43:05Z</time>
      </trkpt>
      <trkpt lat="44.26315" lon="5.74745">
        <ele>631</ele>
        <time>2019-03-19T15:43:06Z</time>
      </trkpt>
      <trkpt lat="44.26319" lon="5.74755">
        <ele>630</ele>
        <time>2019-03-19T15:43:07Z</time>
      </trkpt>
      <trkpt lat="44.26323" lon="5.74765">
        <ele>630</ele>
        <time>2019-03-19T15:43:08Z</time>
      </trkpt>
      <trkpt lat="44.26328" lon="5.74775">
        <ele>629</ele>
        <time>2019-03-19T15:43:09Z</time>
      </trkpt>
      <trkpt lat="44.26332" lon="5.74785">
        <ele>629</ele>
        <time>2019-03-19T15:43:10Z</time>
      </trkpt>
      <trkpt lat="44.26337" lon="5.74794">
        <ele>629</ele>
        <time>2019-03-19T15:43:11Z</time>
      </trkpt>
      <trkpt lat="44.26343" lon="5.74803">
        <ele>628</ele>
        <time>2019-03-19T15:43:12Z</time>
      </trkpt>
      <trkpt lat="44.26348" lon="5.74812">
        <ele>628</ele>
        <time>2019-03-19T15:43:13Z</time>
      </trkpt>
      <trkpt lat="44.26354" lon="5.74821">
        <ele>628</ele>
        <time>2019-03-19T15:43:14Z</time>
      </trkpt>
      <trkpt lat="44.2636" lon="5.7483">
        <ele>627</ele>
        <time>2019-03-19T15:43:15Z</time>
      </trkpt>
      <trkpt lat="44.26365" lon="5.74839">
        <ele>627</ele>
        <time>2019-03-19T15:43:16Z</time>
      </trkpt>
      <trkpt lat="44.2637" lon="5.74848">
        <ele>627</ele>
        <time>2019-03-19T15:43:17Z</time>
      </trkpt>
      <trkpt lat="44.26375" lon="5.74858">
        <ele>626</ele>
        <time>2019-03-19T15:43:18Z</time>
      </trkpt>
      <trkpt lat="44.2638" lon="5.74869">
        <ele>626</ele>
        <time>2019-03-19T15:43:19Z</time>
      </trkpt>
      <trkpt lat="44.26383" lon="5.74881">
        <ele>626</ele>
        <time>2019-03-19T15:43:20Z</time>
      </trkpt>
      <trkpt lat="44.26386" lon="5.74892">
        <ele>625</ele>
        <time>2019-03-19T15:43:21Z</time>
      </trkpt>
      <trkpt lat="44.26389" lon="5.74904">
        <ele>625</ele>
        <time>2019-03-19T15:43:22Z</time>
      </trkpt>
      <trkpt lat="44.26392" lon="5.74916">
        <ele>625</ele>
        <time>2019-03-19T15:43:23Z</time>
      </trkpt>
      <trkpt lat="44.26395" lon="5.74927">
        <ele>624</ele>
        <time>2019-03-19T15:43:24Z</time>
      </trkpt>
      <trkpt lat="44.26398" lon="5.74938">
        <ele>624</ele>
        <time>2019-03-19T15:43:25Z</time>
      </trkpt>
      <trkpt lat="44.26402" lon="5.7495">
        <ele>624</ele>
        <time>2019-03-19T15:43:26Z</time>
      </trkpt>
      <trkpt lat="44.26406" lon="5.7496">
        <ele>623</ele>
        <time>2019-03-19T15:43:27Z</time>
      </trkpt>
      <trkpt lat="44.26411" lon="5.7497">
        <ele>623</ele>
        <time>2019-03-19T15:43:28Z</time>
      </trkpt>
      <trkpt lat="44.26416" lon="5.7498">
        <ele>622</ele>
        <time>2019-03-19T15:43:29Z</time>
      </trkpt>
      <trkpt lat="44.26421" lon="5.7499">
        <ele>622</ele>
        <time>2019-03-19T15:43:30Z</time>
      </trkpt>
      <trkpt lat="44.26426" lon="5.74999">
        <ele>622</ele>
        <time>2019-03-19T15:43:31Z</time>
      </trkpt>
      <trkpt lat="44.26431" lon="5.75008">
        <ele>621</ele>
        <time>2019-03-19T15:43:32Z</time>
      </trkpt>
      <trkpt lat="44.26437" lon="5.75018">
        <ele>621</ele>
        <time>2019-03-19T15:43:33Z</time>
      </trkpt>
      <trkpt lat="44.26442" lon="5.75027">
        <ele>621</ele>
        <time>2019-03-19T15:43:34Z</time>
      </trkpt>
      <trkpt lat="44.26446" lon="5.75035">
        <ele>621</ele>
        <time>2019-03-19T15:43:35Z</time>
      </trkpt>
      <trkpt lat="44.26451" lon="5.75044">
        <ele>621</ele>
        <time>2019-03-19T15:43:36Z</time>
      </trkpt>
      <trkpt lat="44.26456" lon="5.75053">
        <ele>621</ele>
        <time>2019-03-19T15:43:37Z</time>
      </trkpt>
      <trkpt lat="44.26461" lon="5.75061">
        <ele>620</ele>
        <time>2019-03-19T15:43:38Z</time>
      </trkpt>
      <trkpt lat="44.26466" lon="5.7507">
        <ele>620</ele>
        <time>2019-03-19T15:43:39Z</time>
      </trkpt>
      <trkpt lat="44.2647" lon="5.75078">
        <ele>620</ele>
        <time>2019-03-19T15:43:40Z</time>
      </trkpt>
      <trkpt lat="44.26475" lon="5.75087">
        <ele>620</ele>
        <time>2019-03-19T15:43:41Z</time>
      </trkpt>
      <trkpt lat="44.2648" lon="5.75095">
        <ele>620</ele>
        <time>2019-03-19T15:43:42Z</time>
      </trkpt>
      <trkpt lat="44.26485" lon="5.75103">
        <ele>620</ele>
        <time>2019-03-19T15:43:43Z</time>
      </trkpt>
      <trkpt lat="44.2649" lon="5.75111">
        <ele>620</ele>
        <time>2019-03-19T15:43:44Z</time>
      </trkpt>
      <trkpt lat="44.26495" lon="5.75118">
        <ele>620</ele>
        <time>2019-03-19T15:43:45Z</time>
      </trkpt>
      <trkpt lat="44.265" lon="5.75126">
        <ele>620</ele>
        <time>2019-03-19T15:43:46Z</time>
      </trkpt>
      <trkpt lat="44.26505" lon="5.75134">
        <ele>620</ele>
        <time>2019-03-19T15:43:47Z</time>
      </trkpt>
      <trkpt lat="44.2651" lon="5.75141">
        <ele>620</ele>
        <time>2019-03-19T15:43:48Z</time>
      </trkpt>
      <trkpt lat="44.26515" lon="5.75149">
        <ele>620</ele>
        <time>2019-03-19T15:43:49Z</time>
      </trkpt>
      <trkpt lat="44.26521" lon="5.75156">
        <ele>620</ele>
        <time>2019-03-19T15:43:50Z</time>
      </trkpt>
      <trkpt lat="44.26525" lon="5.75164">
        <ele>620</ele>
        <time>2019-03-19T15:43:51Z</time>
      </trkpt>
      <trkpt lat="44.2653" lon="5.75172">
        <ele>620</ele>
        <time>2019-03-19T15:43:52Z</time>
      </trkpt>
      <trkpt lat="44.26535" lon="5.7518">
        <ele>620</ele>
        <time>2019-03-19T15:43:53Z</time>
      </trkpt>
      <trkpt lat="44.2654" lon="5.75188">
        <ele>620</ele>
        <time>2019-03-19T15:43:54Z</time>
      </trkpt>
      <trkpt lat="44.26545" lon="5.75196">
        <ele>620</ele>
        <time>2019-03-19T15:43:55Z</time>
      </trkpt>
      <trkpt lat="44.2655" lon="5.75204">
        <ele>620</ele>
        <time>2019-03-19T15:43:56Z</time>
      </trkpt>
      <trkpt lat="44.26554" lon="5.75213">
        <ele>620</ele>
        <time>2019-03-19T15:43:57Z</time>
      </trkpt>
      <trkpt lat="44.26559" lon="5.75221">
        <ele>620</ele>
        <time>2019-03-19T15:43:58Z</time>
      </trkpt>
      <trkpt lat="44.26564" lon="5.75229">
        <ele>620</ele>
        <time>2019-03-19T15:43:59Z</time>
      </trkpt>
      <trkpt lat="44.26568" lon="5.75238">
        <ele>620</ele>
        <time>2019-03-19T15:44:00Z</time>
      </trkpt>
      <trkpt lat="44.26572" lon="5.75247">
        <ele>620</ele>
        <time>2019-03-19T15:44:01Z</time>
      </trkpt>
      <trkpt lat="44.26576" lon="5.75257">
        <ele>619</ele>
        <time>2019-03-19T15:44:02Z</time>
      </trkpt>
      <trkpt lat="44.2658" lon="5.75267">
        <ele>619</ele>
        <time>2019-03-19T15:44:03Z</time>
      </trkpt>
      <trkpt lat="44.26583" lon="5.75276">
        <ele>619</ele>
        <time>2019-03-19T15:44:04Z</time>
      </trkpt>
      <trkpt lat="44.26586" lon="5.75286">
        <ele>619</ele>
        <time>2019-03-19T15:44:05Z</time>
      </trkpt>
      <trkpt lat="44.2659" lon="5.75295">
        <ele>619</ele>
        <time>2019-03-19T15:44:06Z</time>
      </trkpt>
      <trkpt lat="44.26593" lon="5.75305">
        <ele>619</ele>
        <time>2019-03-19T15:44:07Z</time>
      </trkpt>
      <trkpt lat="44.26596" lon="5.75314">
        <ele>619</ele>
        <time>2019-03-19T15:44:08Z</time>
      </trkpt>
      <trkpt lat="44.266" lon="5.75323">
        <ele>619</ele>
        <time>2019-03-19T15:44:09Z</time>
      </trkpt>
      <trkpt lat="44.26603" lon="5.75332">
        <ele>619</ele>
        <time>2019-03-19T15:44:10Z</time>
      </trkpt>
      <trkpt lat="44.26607" lon="5.75342">
        <ele>619</ele>
        <time>2019-03-19T15:44:11Z</time>
      </trkpt>
      <trkpt lat="44.26611" lon="5.75351">
        <ele>619</ele>
        <time>2019-03-19T15:44:12Z</time>
      </trkpt>
      <trkpt lat="44.26615" lon="5.7536">
        <ele>619</ele>
        <time>2019-03-19T15:44:13Z</time>
      </trkpt>
      <trkpt lat="44.26617" lon="5.75368">
        <ele>619</ele>
        <time>2019-03-19T15:44:14Z</time>
      </trkpt>
      <trkpt lat="44.2662" lon="5.75377">
        <ele>619</ele>
        <time>2019-03-19T15:44:15Z</time>
      </trkpt>
      <trkpt lat="44.26624" lon="5.75385">
        <ele>619</ele>
        <time>2019-03-19T15:44:16Z</time>
      </trkpt>
      <trkpt lat="44.26629" lon="5.75392">
        <ele>619</ele>
        <time>2019-03-19T15:44:17Z</time>
      </trkpt>
      <trkpt lat="44.26633" lon="5.754">
        <ele>619</ele>
        <time>2019-03-19T15:44:18Z</time>
      </trkpt>
      <trkpt lat="44.26637" lon="5.75408">
        <ele>619</ele>
        <time>2019-03-19T15:44:19Z</time>
      </trkpt>
      <trkpt lat="44.26642" lon="5.75416">
        <ele>619</ele>
        <time>2019-03-19T15:44:20Z</time>
      </trkpt>
      <trkpt lat="44.26646" lon="5.75424">
        <ele>619</ele>
        <time>2019-03-19T15:44:21Z</time>
      </trkpt>
      <trkpt lat="44.2665" lon="5.75433">
        <ele>619</ele>
        <time>2019-03-19T15:44:22Z</time>
      </trkpt>
      <trkpt lat="44.26654" lon="5.75442">
        <ele>619</ele>
        <time>2019-03-19T15:44:23Z</time>
      </trkpt>
      <trkpt lat="44.26657" lon="5.75451">
        <ele>619</ele>
        <time>2019-03-19T15:44:24Z</time>
      </trkpt>
      <trkpt lat="44.2666" lon="5.75461">
        <ele>619</ele>
        <time>2019-03-19T15:44:25Z</time>
      </trkpt>
      <trkpt lat="44.26662" lon="5.7547">
        <ele>619</ele>
        <time>2019-03-19T15:44:26Z</time>
      </trkpt>
      <trkpt lat="44.26664" lon="5.7548">
        <ele>619</ele>
        <time>2019-03-19T15:44:27Z</time>
      </trkpt>
      <trkpt lat="44.26667" lon="5.7549">
        <ele>619</ele>
        <time>2019-03-19T15:44:28Z</time>
      </trkpt>
      <trkpt lat="44.26669" lon="5.755">
        <ele>619</ele>
        <time>2019-03-19T15:44:29Z</time>
      </trkpt>
      <trkpt lat="44.2667" lon="5.7551">
        <ele>619</ele>
        <time>2019-03-19T15:44:30Z</time>
      </trkpt>
      <trkpt lat="44.26671" lon="5.75519">
        <ele>619</ele>
        <time>2019-03-19T15:44:31Z</time>
      </trkpt>
      <trkpt lat="44.26672" lon="5.75529">
        <ele>619</ele>
        <time>2019-03-19T15:44:32Z</time>
      </trkpt>
      <trkpt lat="44.26673" lon="5.75538">
        <ele>619</ele>
        <time>2019-03-19T15:44:33Z</time>
      </trkpt>
      <trkpt lat="44.26674" lon="5.75547">
        <ele>619</ele>
        <time>2019-03-19T15:44:34Z</time>
      </trkpt>
      <trkpt lat="44.26676" lon="5.75556">
        <ele>619</ele>
        <time>2019-03-19T15:44:35Z</time>
      </trkpt>
      <trkpt lat="44.26677" lon="5.75564">
        <ele>619</ele>
        <time>2019-03-19T15:44:36Z</time>
      </trkpt>
      <trkpt lat="44.26678" lon="5.75572">
        <ele>619</ele>
        <time>2019-03-19T15:44:37Z</time>
      </trkpt>
      <trkpt lat="44.2668" lon="5.75581">
        <ele>619</ele>
        <time>2019-03-19T15:44:38Z</time>
      </trkpt>
      <trkpt lat="44.26681" lon="5.75588">
        <ele>619</ele>
        <time>2019-03-19T15:44:39Z</time>
      </trkpt>
      <trkpt lat="44.26682" lon="5.75595">
        <ele>619</ele>
        <time>2019-03-19T15:44:40Z</time>
      </trkpt>
      <trkpt lat="44.26684" lon="5.75601">
        <ele>619</ele>
        <time>2019-03-19T15:44:41Z</time>
      </trkpt>
      <trkpt lat="44.26685" lon="5.75608">
        <ele>619</ele>
        <time>2019-03-19T15:44:42Z</time>
      </trkpt>
      <trkpt lat="44.26687" lon="5.75614">
        <ele>619</ele>
        <time>2019-03-19T15:44:43Z</time>
      </trkpt>
      <trkpt lat="44.2669" lon="5.7562">
        <ele>619</ele>
        <time>2019-03-19T15:44:44Z</time>
      </trkpt>
      <trkpt lat="44.26693" lon="5.75626">
        <ele>619</ele>
        <time>2019-03-19T15:44:45Z</time>
      </trkpt>
      <trkpt lat="44.26696" lon="5.75631">
        <ele>619</ele>
        <time>2019-03-19T15:44:46Z</time>
      </trkpt>
      <trkpt lat="44.267" lon="5.75634">
        <ele>619</ele>
        <time>2019-03-19T15:44:47Z</time>
      </trkpt>
      <trkpt lat="44.26704" lon="5.75638">
        <ele>619</ele>
        <time>2019-03-19T15:44:48Z</time>
      </trkpt>
      <trkpt lat="44.26708" lon="5.75643">
        <ele>619</ele>
        <time>2019-03-19T15:44:49Z</time>
      </trkpt>
      <trkpt lat="44.26712" lon="5.75646">
        <ele>619</ele>
        <time>2019-03-19T15:44:50Z</time>
      </trkpt>
      <trkpt lat="44.26715" lon="5.75651">
        <ele>619</ele>
        <time>2019-03-19T15:44:51Z</time>
      </trkpt>
      <trkpt lat="44.26719" lon="5.75656">
        <ele>619</ele>
        <time>2019-03-19T15:44:52Z</time>
      </trkpt>
      <trkpt lat="44.26719" lon="5.75663">
        <ele>619</ele>
        <time>2019-03-19T15:44:53Z</time>
      </trkpt>
      <trkpt lat="44.26718" lon="5.75669">
        <ele>619</ele>
        <time>2019-03-19T15:44:54Z</time>
      </trkpt>
      <trkpt lat="44.26715" lon="5.75675">
        <ele>619</ele>
        <time>2019-03-19T15:44:55Z</time>
      </trkpt>
      <trkpt lat="44.26712" lon="5.75679">
        <ele>619</ele>
        <time>2019-03-19T15:44:56Z</time>
      </trkpt>
      <trkpt lat="44.2671" lon="5.75683">
        <ele>619</ele>
        <time>2019-03-19T15:44:57Z</time>
      </trkpt>
      <trkpt lat="44.26709" lon="5.75687">
        <ele>619</ele>
        <time>2019-03-19T15:44:58Z</time>
      </trkpt>
      <trkpt lat="44.26707" lon="5.7569">
        <ele>619</ele>
        <time>2019-03-19T15:44:59Z</time>
      </trkpt>
      <trkpt lat="44.26706" lon="5.75694">
        <ele>619</ele>
        <time>2019-03-19T15:45:00Z</time>
      </trkpt>
      <trkpt lat="44.26704" lon="5.75699">
        <ele>619</ele>
        <time>2019-03-19T15:45:01Z</time>
      </trkpt>
      <trkpt lat="44.26702" lon="5.75703">
        <ele>619</ele>
        <time>2019-03-19T15:45:02Z</time>
      </trkpt>
      <trkpt lat="44.26699" lon="5.75708">
        <ele>619</ele>
        <time>2019-03-19T15:45:03Z</time>
      </trkpt>
      <trkpt lat="44.26696" lon="5.75714">
        <ele>619</ele>
        <time>2019-03-19T15:45:04Z</time>
      </trkpt>
      <trkpt lat="44.26694" lon="5.75721">
        <ele>619</ele>
        <time>2019-03-19T15:45:05Z</time>
      </trkpt>
      <trkpt lat="44.26691" lon="5.75729">
        <ele>619</ele>
        <time>2019-03-19T15:45:06Z</time>
      </trkpt>
      <trkpt lat="44.2669" lon="5.75737">
        <ele>619</ele>
        <time>2019-03-19T15:45:07Z</time>
      </trkpt>
      <trkpt lat="44.26689" lon="5.75746">
        <ele>619</ele>
        <time>2019-03-19T15:45:08Z</time>
      </trkpt>
      <trkpt lat="44.26689" lon="5.75755">
        <ele>619</ele>
        <time>2019-03-19T15:45:09Z</time>
      </trkpt>
      <trkpt lat="44.26688" lon="5.75765">
        <ele>619</ele>
        <time>2019-03-19T15:45:10Z</time>
      </trkpt>
      <trkpt lat="44.26688" lon="5.75774">
        <ele>619</ele>
        <time>2019-03-19T15:45:11Z</time>
      </trkpt>
      <trkpt lat="44.26689" lon="5.75783">
        <ele>619</ele>
        <time>2019-03-19T15:45:12Z</time>
      </trkpt>
      <trkpt lat="44.26689" lon="5.75793">
        <ele>619</ele>
        <time>2019-03-19T15:45:13Z</time>
      </trkpt>
      <trkpt lat="44.2669" lon="5.75801">
        <ele>619</ele>
        <time>2019-03-19T15:45:14Z</time>
      </trkpt>
      <trkpt lat="44.26691" lon="5.7581">
        <ele>619</ele>
        <time>2019-03-19T15:45:15Z</time>
      </trkpt>
      <trkpt lat="44.26692" lon="5.75819">
        <ele>619</ele>
        <time>2019-03-19T15:45:16Z</time>
      </trkpt>
      <trkpt lat="44.26693" lon="5.75828">
        <ele>619</ele>
        <time>2019-03-19T15:45:17Z</time>
      </trkpt>
      <trkpt lat="44.26695" lon="5.75837">
        <ele>619</ele>
        <time>2019-03-19T15:45:18Z</time>
      </trkpt>
      <trkpt lat="44.26697" lon="5.75845">
        <ele>619</ele>
        <time>2019-03-19T15:45:19Z</time>
      </trkpt>
      <trkpt lat="44.26699" lon="5.75854">
        <ele>619</ele>
        <time>2019-03-19T15:45:20Z</time>
      </trkpt>
      <trkpt lat="44.26702" lon="5.75864">
        <ele>619</ele>
        <time>2019-03-19T15:45:21Z</time>
      </trkpt>
      <trkpt lat="44.26704" lon="5.75872">
        <ele>619</ele>
        <time>2019-03-19T15:45:22Z</time>
      </trkpt>
      <trkpt lat="44.26707" lon="5.75881">
        <ele>619</ele>
        <time>2019-03-19T15:45:23Z</time>
      </trkpt>
      <trkpt lat="44.26709" lon="5.7589">
        <ele>619</ele>
        <time>2019-03-19T15:45:24Z</time>
      </trkpt>
      <trkpt lat="44.26712" lon="5.75898">
        <ele>619</ele>
        <time>2019-03-19T15:45:25Z</time>
      </trkpt>
      <trkpt lat="44.26714" lon="5.75907">
        <ele>619</ele>
        <time>2019-03-19T15:45:26Z</time>
      </trkpt>
      <trkpt lat="44.26717" lon="5.75915">
        <ele>619</ele>
        <time>2019-03-19T15:45:27Z</time>
      </trkpt>
      <trkpt lat="44.26721" lon="5.75923">
        <ele>619</ele>
        <time>2019-03-19T15:45:28Z</time>
      </trkpt>
      <trkpt lat="44.26724" lon="5.75932">
        <ele>619</ele>
        <time>2019-03-19T15:45:29Z</time>
      </trkpt>
      <trkpt lat="44.26728" lon="5.7594">
        <ele>619</ele>
        <time>2019-03-19T15:45:30Z</time>
      </trkpt>
      <trkpt lat="44.26731" lon="5.75948">
        <ele>619</ele>
        <time>2019-03-19T15:45:31Z</time>
      </trkpt>
      <trkpt lat="44.26736" lon="5.75956">
        <ele>619</ele>
        <time>2019-03-19T15:45:32Z</time>
      </trkpt>
      <trkpt lat="44.2674" lon="5.75963">
        <ele>619</ele>
        <time>2019-03-19T15:45:33Z</time>
      </trkpt>
      <trkpt lat="44.26744" lon="5.75971">
        <ele>619</ele>
        <time>2019-03-19T15:45:34Z</time>
      </trkpt>
      <trkpt lat="44.26749" lon="5.75979">
        <ele>619</ele>
        <time>2019-03-19T15:45:35Z</time>
      </trkpt>
      <trkpt lat="44.26754" lon="5.75987">
        <ele>619</ele>
        <time>2019-03-19T15:45:36Z</time>
      </trkpt>
      <trkpt lat="44.26759" lon="5.75994">
        <ele>619</ele>
        <time>2019-03-19T15:45:37Z</time>
      </trkpt>
      <trkpt lat="44.26765" lon="5.76001">
        <ele>619</ele>
        <time>2019-03-19T15:45:38Z</time>
      </trkpt>
      <trkpt lat="44.2677" lon="5.76008">
        <ele>619</ele>
        <time>2019-03-19T15:45:39Z</time>
      </trkpt>
      <trkpt lat="44.26776" lon="5.76015">
        <ele>619</ele>
        <time>2019-03-19T15:45:40Z</time>
      </trkpt>
      <trkpt lat="44.26782" lon="5.76021">
        <ele>619</ele>
        <time>2019-03-19T15:45:41Z</time>
      </trkpt>
      <trkpt lat="44.26788" lon="5.76028">
        <ele>619</ele>
        <time>2019-03-19T15:45:42Z</time>
      </trkpt>
      <trkpt lat="44.26794" lon="5.76034">
        <ele>619</ele>
        <time>2019-03-19T15:45:43Z</time>
      </trkpt>
      <trkpt lat="44.268" lon="5.76041">
        <ele>619</ele>
        <time>2019-03-19T15:45:44Z</time>
      </trkpt>
      <trkpt lat="44.26806" lon="5.76048">
        <ele>619</ele>
        <time>2019-03-19T15:45:45Z</time>
      </trkpt>
      <trkpt lat="44.26811" lon="5.76055">
        <ele>619</ele>
        <time>2019-03-19T15:45:46Z</time>
      </trkpt>
      <trkpt lat="44.26817" lon="5.76062">
        <ele>619</ele>
        <time>2019-03-19T15:45:47Z</time>
      </trkpt>
      <trkpt lat="44.26823" lon="5.76069">
        <ele>619</ele>
        <time>2019-03-19T15:45:48Z</time>
      </trkpt>
      <trkpt lat="44.26828" lon="5.76077">
        <ele>619</ele>
        <time>2019-03-19T15:45:49Z</time>
      </trkpt>
      <trkpt lat="44.26833" lon="5.76085">
        <ele>619</ele>
        <time>2019-03-19T15:45:50Z</time>
      </trkpt>
      <trkpt lat="44.26838" lon="5.76092">
        <ele>619</ele>
        <time>2019-03-19T15:45:51Z</time>
      </trkpt>
      <trkpt lat="44.26842" lon="5.761">
        <ele>619</ele>
        <time>2019-03-19T15:45:52Z</time>
      </trkpt>
      <trkpt lat="44.26847" lon="5.76108">
        <ele>619</ele>
        <time>2019-03-19T15:45:53Z</time>
      </trkpt>
      <trkpt lat="44.26851" lon="5.76117">
        <ele>619</ele>
        <time>2019-03-19T15:45:54Z</time>
      </trkpt>
      <trkpt lat="44.26854" lon="5.76126">
        <ele>619</ele>
        <time>2019-03-19T15:45:55Z</time>
      </trkpt>
      <trkpt lat="44.26857" lon="5.76135">
        <ele>619</ele>
        <time>2019-03-19T15:45:56Z</time>
      </trkpt>
      <trkpt lat="44.2686" lon="5.76144">
        <ele>619</ele>
        <time>2019-03-19T15:45:57Z</time>
      </trkpt>
      <trkpt lat="44.26863" lon="5.76153">
        <ele>619</ele>
        <time>2019-03-19T15:45:58Z</time>
      </trkpt>
      <trkpt lat="44.26864" lon="5.76163">
        <ele>619</ele>
        <time>2019-03-19T15:45:59Z</time>
      </trkpt>
      <trkpt lat="44.26865" lon="5.76172">
        <ele>619</ele>
        <time>2019-03-19T15:46:00Z</time>
      </trkpt>
      <trkpt lat="44.26867" lon="5.76182">
        <ele>619</ele>
        <time>2019-03-19T15:46:01Z</time>
      </trkpt>
      <trkpt lat="44.26868" lon="5.76191">
        <ele>619</ele>
        <time>2019-03-19T15:46:02Z</time>
      </trkpt>
      <trkpt lat="44.26867" lon="5.762">
        <ele>619</ele>
        <time>2019-03-19T15:46:03Z</time>
      </trkpt>
      <trkpt lat="44.26867" lon="5.76209">
        <ele>619</ele>
        <time>2019-03-19T15:46:04Z</time>
      </trkpt>
      <trkpt lat="44.26865" lon="5.76219">
        <ele>619</ele>
        <time>2019-03-19T15:46:05Z</time>
      </trkpt>
      <trkpt lat="44.26863" lon="5.76228">
        <ele>619</ele>
        <time>2019-03-19T15:46:06Z</time>
      </trkpt>
      <trkpt lat="44.26861" lon="5.76236">
        <ele>619</ele>
        <time>2019-03-19T15:46:07Z</time>
      </trkpt>
      <trkpt lat="44.26858" lon="5.76244">
        <ele>619</ele>
        <time>2019-03-19T15:46:08Z</time>
      </trkpt>
      <trkpt lat="44.26854" lon="5.76252">
        <ele>619</ele>
        <time>2019-03-19T15:46:09Z</time>
      </trkpt>
      <trkpt lat="44.2685" lon="5.76258">
        <ele>619</ele>
        <time>2019-03-19T15:46:10Z</time>
      </trkpt>
      <trkpt lat="44.26846" lon="5.76264">
        <ele>619</ele>
        <time>2019-03-19T15:46:11Z</time>
      </trkpt>
      <trkpt lat="44.26841" lon="5.7627">
        <ele>619</ele>
        <time>2019-03-19T15:46:12Z</time>
      </trkpt>
      <trkpt lat="44.26836" lon="5.76274">
        <ele>619</ele>
        <time>2019-03-19T15:46:13Z</time>
      </trkpt>
      <trkpt lat="44.26831" lon="5.76279">
        <ele>619</ele>
        <time>2019-03-19T15:46:14Z</time>
      </trkpt>
      <trkpt lat="44.26825" lon="5.76283">
        <ele>619</ele>
        <time>2019-03-19T15:46:15Z</time>
      </trkpt>
      <trkpt lat="44.2682" lon="5.76286">
        <ele>619</ele>
        <time>2019-03-19T15:46:16Z</time>
      </trkpt>
      <trkpt lat="44.26815" lon="5.76289">
        <ele>619</ele>
        <time>2019-03-19T15:46:17Z</time>
      </trkpt>
      <trkpt lat="44.26809" lon="5.76292">
        <ele>619</ele>
        <time>2019-03-19T15:46:18Z</time>
      </trkpt>
      <trkpt lat="44.26804" lon="5.76294">
        <ele>619</ele>
        <time>2019-03-19T15:46:19Z</time>
      </trkpt>
      <trkpt lat="44.26798" lon="5.76296">
        <ele>619</ele>
        <time>2019-03-19T15:46:20Z</time>
      </trkpt>
      <trkpt lat="44.26792" lon="5.76299">
        <ele>619</ele>
        <time>2019-03-19T15:46:21Z</time>
      </trkpt>
      <trkpt lat="44.26786" lon="5.763">
        <ele>619</ele>
        <time>2019-03-19T15:46:22Z</time>
      </trkpt>
      <trkpt lat="44.2678" lon="5.76302">
        <ele>619</ele>
        <time>2019-03-19T15:46:23Z</time>
      </trkpt>
      <trkpt lat="44.26775" lon="5.76304">
        <ele>619</ele>
        <time>2019-03-19T15:46:24Z</time>
      </trkpt>
      <trkpt lat="44.26768" lon="5.76306">
        <ele>619</ele>
        <time>2019-03-19T15:46:25Z</time>
      </trkpt>
      <trkpt lat="44.26763" lon="5.76307">
        <ele>619</ele>
        <time>2019-03-19T15:46:26Z</time>
      </trkpt>
      <trkpt lat="44.26757" lon="5.76309">
        <ele>619</ele>
        <time>2019-03-19T15:46:27Z</time>
      </trkpt>
      <trkpt lat="44.26751" lon="5.7631">
        <ele>619</ele>
        <time>2019-03-19T15:46:28Z</time>
      </trkpt>
      <trkpt lat="44.26746" lon="5.7631">
        <ele>619</ele>
        <time>2019-03-19T15:46:29Z</time>
      </trkpt>
      <trkpt lat="44.2674" lon="5.76312">
        <ele>619</ele>
        <time>2019-03-19T15:46:30Z</time>
      </trkpt>
      <trkpt lat="44.26734" lon="5.76314">
        <ele>619</ele>
        <time>2019-03-19T15:46:31Z</time>
      </trkpt>
      <trkpt lat="44.26728" lon="5.76316">
        <ele>619</ele>
        <time>2019-03-19T15:46:32Z</time>
      </trkpt>
      <trkpt lat="44.26722" lon="5.76319">
        <ele>619</ele>
        <time>2019-03-19T15:46:33Z</time>
      </trkpt>
      <trkpt lat="44.26716" lon="5.76322">
        <ele>618</ele>
        <time>2019-03-19T15:46:34Z</time>
      </trkpt>
      <trkpt lat="44.2671" lon="5.76326">
        <ele>618</ele>
        <time>2019-03-19T15:46:35Z</time>
      </trkpt>
      <trkpt lat="44.26704" lon="5.76329">
        <ele>618</ele>
        <time>2019-03-19T15:46:36Z</time>
      </trkpt>
      <trkpt lat="44.26699" lon="5.76332">
        <ele>618</ele>
        <time>2019-03-19T15:46:37Z</time>
      </trkpt>
      <trkpt lat="44.26693" lon="5.76334">
        <ele>618</ele>
        <time>2019-03-19T15:46:38Z</time>
      </trkpt>
      <trkpt lat="44.26687" lon="5.76337">
        <ele>618</ele>
        <time>2019-03-19T15:46:39Z</time>
      </trkpt>
      <trkpt lat="44.26682" lon="5.7634">
        <ele>618</ele>
        <time>2019-03-19T15:46:40Z</time>
      </trkpt>
      <trkpt lat="44.26676" lon="5.76343">
        <ele>618</ele>
        <time>2019-03-19T15:46:41Z</time>
      </trkpt>
      <trkpt lat="44.2667" lon="5.76346">
        <ele>618</ele>
        <time>2019-03-19T15:46:42Z</time>
      </trkpt>
      <trkpt lat="44.26664" lon="5.76349">
        <ele>618</ele>
        <time>2019-03-19T15:46:43Z</time>
      </trkpt>
      <trkpt lat="44.26658" lon="5.76352">
        <ele>618</ele>
        <time>2019-03-19T15:46:44Z</time>
      </trkpt>
      <trkpt lat="44.26652" lon="5.76354">
        <ele>618</ele>
        <time>2019-03-19T15:46:45Z</time>
      </trkpt>
      <trkpt lat="44.26646" lon="5.76357">
        <ele>618</ele>
        <time>2019-03-19T15:46:46Z</time>
      </trkpt>
      <trkpt lat="44.26639" lon="5.76359">
        <ele>618</ele>
        <time>2019-03-19T15:46:47Z</time>
      </trkpt>
      <trkpt lat="44.26633" lon="5.76362">
        <ele>618</ele>
        <time>2019-03-19T15:46:48Z</time>
      </trkpt>
      <trkpt lat="44.26626" lon="5.76364">
        <ele>618</ele>
        <time>2019-03-19T15:46:49Z</time>
      </trkpt>
      <trkpt lat="44.2662" lon="5.76366">
        <ele>618</ele>
        <time>2019-03-19T15:46:50Z</time>
      </trkpt>
      <trkpt lat="44.26613" lon="5.76369">
        <ele>618</ele>
        <time>2019-03-19T15:46:51Z</time>
      </trkpt>
      <trkpt lat="44.26606" lon="5.7637">
        <ele>618</ele>
        <time>2019-03-19T15:46:52Z</time>
      </trkpt>
      <trkpt lat="44.26599" lon="5.76372">
        <ele>618</ele>
        <time>2019-03-19T15:46:53Z</time>
      </trkpt>
      <trkpt lat="44.26593" lon="5.76374">
        <ele>618</ele>
        <time>2019-03-19T15:46:54Z</time>
      </trkpt>
      <trkpt lat="44.26586" lon="5.76376">
        <ele>618</ele>
        <time>2019-03-19T15:46:55Z</time>
      </trkpt>
      <trkpt lat="44.26579" lon="5.76379">
        <ele>618</ele>
        <time>2019-03-19T15:46:56Z</time>
      </trkpt>
      <trkpt lat="44.26573" lon="5.76383">
        <ele>618</ele>
        <time>2019-03-19T15:46:57Z</time>
      </trkpt>
      <trkpt lat="44.26567" lon="5.76388">
        <ele>618</ele>
        <time>2019-03-19T15:46:58Z</time>
      </trkpt>
      <trkpt lat="44.26562" lon="5.76395">
        <ele>618</ele>
        <time>2019-03-19T15:46:59Z</time>
      </trkpt>
      <trkpt lat="44.26558" lon="5.76401">
        <ele>618</ele>
        <time>2019-03-19T15:47:00Z</time>
      </trkpt>
      <trkpt lat="44.26554" lon="5.76408">
        <ele>618</ele>
        <time>2019-03-19T15:47:01Z</time>
      </trkpt>
      <trkpt lat="44.26551" lon="5.76416">
        <ele>618</ele>
        <time>2019-03-19T15:47:02Z</time>
      </trkpt>
      <trkpt lat="44.26548" lon="5.76423">
        <ele>618</ele>
        <time>2019-03-19T15:47:03Z</time>
      </trkpt>
      <trkpt lat="44.26545" lon="5.76431">
        <ele>618</ele>
        <time>2019-03-19T15:47:04Z</time>
      </trkpt>
      <trkpt lat="44.26542" lon="5.76439">
        <ele>618</ele>
        <time>2019-03-19T15:47:05Z</time>
      </trkpt>
      <trkpt lat="44.2654" lon="5.76447">
        <ele>618</ele>
        <time>2019-03-19T15:47:06Z</time>
      </trkpt>
      <trkpt lat="44.26538" lon="5.76455">
        <ele>618</ele>
        <time>2019-03-19T15:47:07Z</time>
      </trkpt>
      <trkpt lat="44.26538" lon="5.76464">
        <ele>618</ele>
        <time>2019-03-19T15:47:08Z</time>
      </trkpt>
      <trkpt lat="44.2654" lon="5.76472">
        <ele>618</ele>
        <time>2019-03-19T15:47:09Z</time>
      </trkpt>
      <trkpt lat="44.26545" lon="5.76478">
        <ele>618</ele>
        <time>2019-03-19T15:47:10Z</time>
      </trkpt>
      <trkpt lat="44.26551" lon="5.76483">
        <ele>618</ele>
        <time>2019-03-19T15:47:11Z</time>
      </trkpt>
      <trkpt lat="44.26557" lon="5.76487">
        <ele>618</ele>
        <time>2019-03-19T15:47:12Z</time>
      </trkpt>
      <trkpt lat="44.26564" lon="5.76491">
        <ele>618</ele>
        <time>2019-03-19T15:47:13Z</time>
      </trkpt>
      <trkpt lat="44.26571" lon="5.76495">
        <ele>618</ele>
        <time>2019-03-19T15:47:14Z</time>
      </trkpt>
      <trkpt lat="44.26577" lon="5.765">
        <ele>618</ele>
        <time>2019-03-19T15:47:15Z</time>
      </trkpt>
      <trkpt lat="44.26583" lon="5.76505">
        <ele>618</ele>
        <time>2019-03-19T15:47:16Z</time>
      </trkpt>
      <trkpt lat="44.26589" lon="5.76512">
        <ele>618</ele>
        <time>2019-03-19T15:47:17Z</time>
      </trkpt>
      <trkpt lat="44.26594" lon="5.76519">
        <ele>618</ele>
        <time>2019-03-19T15:47:18Z</time>
      </trkpt>
      <trkpt lat="44.26598" lon="5.76526">
        <ele>618</ele>
        <time>2019-03-19T15:47:19Z</time>
      </trkpt>
      <trkpt lat="44.26603" lon="5.76535">
        <ele>618</ele>
        <time>2019-03-19T15:47:20Z</time>
      </trkpt>
      <trkpt lat="44.26607" lon="5.76543">
        <ele>618</ele>
        <time>2019-03-19T15:47:21Z</time>
      </trkpt>
      <trkpt lat="44.2661" lon="5.76552">
        <ele>618</ele>
        <time>2019-03-19T15:47:22Z</time>
      </trkpt>
      <trkpt lat="44.26614" lon="5.76561">
        <ele>617</ele>
        <time>2019-03-19T15:47:23Z</time>
      </trkpt>
      <trkpt lat="44.26618" lon="5.7657">
        <ele>617</ele>
        <time>2019-03-19T15:47:24Z</time>
      </trkpt>
      <trkpt lat="44.26623" lon="5.76578">
        <ele>617</ele>
        <time>2019-03-19T15:47:25Z</time>
      </trkpt>
      <trkpt lat="44.26627" lon="5.76585">
        <ele>617</ele>
        <time>2019-03-19T15:47:26Z</time>
      </trkpt>
      <trkpt lat="44.26631" lon="5.76602">
        <ele>616</ele>
        <time>2019-03-19T15:47:28Z</time>
      </trkpt>
      <trkpt lat="44.26632" lon="5.76609">
        <ele>616</ele>
        <time>2019-03-19T15:47:29Z</time>
      </trkpt>
      <trkpt lat="44.26631" lon="5.76618">
        <ele>616</ele>
        <time>2019-03-19T15:47:30Z</time>
      </trkpt>
      <trkpt lat="44.2663" lon="5.76626">
        <ele>615</ele>
        <time>2019-03-19T15:47:31Z</time>
      </trkpt>
      <trkpt lat="44.26629" lon="5.76636">
        <ele>615</ele>
        <time>2019-03-19T15:47:32Z</time>
      </trkpt>
      <trkpt lat="44.26627" lon="5.76645">
        <ele>615</ele>
        <time>2019-03-19T15:47:33Z</time>
      </trkpt>
      <trkpt lat="44.26624" lon="5.76655">
        <ele>615</ele>
        <time>2019-03-19T15:47:34Z</time>
      </trkpt>
      <trkpt lat="44.2662" lon="5.76665">
        <ele>615</ele>
        <time>2019-03-19T15:47:35Z</time>
      </trkpt>
      <trkpt lat="44.26617" lon="5.76673">
        <ele>615</ele>
        <time>2019-03-19T15:47:36Z</time>
      </trkpt>
      <trkpt lat="44.26612" lon="5.76682">
        <ele>615</ele>
        <time>2019-03-19T15:47:37Z</time>
      </trkpt>
      <trkpt lat="44.26606" lon="5.76686">
        <ele>615</ele>
        <time>2019-03-19T15:47:38Z</time>
      </trkpt>
      <trkpt lat="44.26599" lon="5.76692">
        <ele>615</ele>
        <time>2019-03-19T15:47:39Z</time>
      </trkpt>
      <trkpt lat="44.26592" lon="5.76699">
        <ele>616</ele>
        <time>2019-03-19T15:47:40Z</time>
      </trkpt>
      <trkpt lat="44.26585" lon="5.76706">
        <ele>617</ele>
        <time>2019-03-19T15:47:41Z</time>
      </trkpt>
      <trkpt lat="44.26578" lon="5.76715">
        <ele>617</ele>
        <time>2019-03-19T15:47:42Z</time>
      </trkpt>
      <trkpt lat="44.26572" lon="5.76724">
        <ele>617</ele>
        <time>2019-03-19T15:47:43Z</time>
      </trkpt>
      <trkpt lat="44.26566" lon="5.76732">
        <ele>617</ele>
        <time>2019-03-19T15:47:44Z</time>
      </trkpt>
      <trkpt lat="44.2656" lon="5.76742">
        <ele>617</ele>
        <time>2019-03-19T15:47:45Z</time>
      </trkpt>
      <trkpt lat="44.26555" lon="5.76752">
        <ele>617</ele>
        <time>2019-03-19T15:47:46Z</time>
      </trkpt>
      <trkpt lat="44.26551" lon="5.76762">
        <ele>617</ele>
        <time>2019-03-19T15:47:47Z</time>
      </trkpt>
      <trkpt lat="44.26547" lon="5.76774">
        <ele>617</ele>
        <time>2019-03-19T15:47:48Z</time>
      </trkpt>
      <trkpt lat="44.26542" lon="5.76785">
        <ele>617</ele>
        <time>2019-03-19T15:47:49Z</time>
      </trkpt>
      <trkpt lat="44.26537" lon="5.76796">
        <ele>617</ele>
        <time>2019-03-19T15:47:50Z</time>
      </trkpt>
      <trkpt lat="44.26532" lon="5.76805">
        <ele>617</ele>
        <time>2019-03-19T15:47:51Z</time>
      </trkpt>
      <trkpt lat="44.26525" lon="5.76814">
        <ele>617</ele>
        <time>2019-03-19T15:47:52Z</time>
      </trkpt>
      <trkpt lat="44.26518" lon="5.76821">
        <ele>617</ele>
        <time>2019-03-19T15:47:53Z</time>
      </trkpt>
      <trkpt lat="44.2651" lon="5.76826">
        <ele>617</ele>
        <time>2019-03-19T15:47:54Z</time>
      </trkpt>
      <trkpt lat="44.26503" lon="5.7683">
        <ele>616</ele>
        <time>2019-03-19T15:47:55Z</time>
      </trkpt>
      <trkpt lat="44.26495" lon="5.76833">
        <ele>616</ele>
        <time>2019-03-19T15:47:56Z</time>
      </trkpt>
      <trkpt lat="44.26487" lon="5.76836">
        <ele>615</ele>
        <time>2019-03-19T15:47:57Z</time>
      </trkpt>
      <trkpt lat="44.26479" lon="5.7684">
        <ele>615</ele>
        <time>2019-03-19T15:47:58Z</time>
      </trkpt>
      <trkpt lat="44.26472" lon="5.76843">
        <ele>614</ele>
        <time>2019-03-19T15:47:59Z</time>
      </trkpt>
      <trkpt lat="44.26466" lon="5.76846">
        <ele>614</ele>
        <time>2019-03-19T15:48:00Z</time>
      </trkpt>
      <trkpt lat="44.2646" lon="5.76849">
        <ele>613</ele>
        <time>2019-03-19T15:48:01Z</time>
      </trkpt>
      <trkpt lat="44.26456" lon="5.76854">
        <ele>613</ele>
        <time>2019-03-19T15:48:02Z</time>
      </trkpt>
      <trkpt lat="44.26453" lon="5.7686">
        <ele>613</ele>
        <time>2019-03-19T15:48:03Z</time>
      </trkpt>
      <trkpt lat="44.26452" lon="5.7687">
        <ele>612</ele>
        <time>2019-03-19T15:48:04Z</time>
      </trkpt>
      <trkpt lat="44.26455" lon="5.76878">
        <ele>611</ele>
        <time>2019-03-19T15:48:05Z</time>
      </trkpt>
      <trkpt lat="44.26459" lon="5.76889">
        <ele>610</ele>
        <time>2019-03-19T15:48:07Z</time>
      </trkpt>
      <trkpt lat="44.26471" lon="5.76892">
        <ele>609</ele>
        <time>2019-03-19T15:48:08Z</time>
      </trkpt>
      <trkpt lat="44.26482" lon="5.76893">
        <ele>608</ele>
        <time>2019-03-19T15:48:09Z</time>
      </trkpt>
      <trkpt lat="44.26494" lon="5.76895">
        <ele>607</ele>
        <time>2019-03-19T15:48:10Z</time>
      </trkpt>
      <trkpt lat="44.26505" lon="5.76896">
        <ele>606</ele>
        <time>2019-03-19T15:48:11Z</time>
      </trkpt>
      <trkpt lat="44.26514" lon="5.76897">
        <ele>605</ele>
        <time>2019-03-19T15:48:12Z</time>
      </trkpt>
      <trkpt lat="44.26523" lon="5.76897">
        <ele>604</ele>
        <time>2019-03-19T15:48:13Z</time>
      </trkpt>
      <trkpt lat="44.26531" lon="5.76899">
        <ele>603</ele>
        <time>2019-03-19T15:48:14Z</time>
      </trkpt>
      <trkpt lat="44.26539" lon="5.76901">
        <ele>603</ele>
        <time>2019-03-19T15:48:15Z</time>
      </trkpt>
      <trkpt lat="44.26548" lon="5.76903">
        <ele>603</ele>
        <time>2019-03-19T15:48:16Z</time>
      </trkpt>
      <trkpt lat="44.2656" lon="5.76906">
        <ele>602</ele>
        <time>2019-03-19T15:48:17Z</time>
      </trkpt>
      <trkpt lat="44.26571" lon="5.76909">
        <ele>602</ele>
        <time>2019-03-19T15:48:18Z</time>
      </trkpt>
      <trkpt lat="44.26581" lon="5.76912">
        <ele>602</ele>
        <time>2019-03-19T15:48:19Z</time>
      </trkpt>
      <trkpt lat="44.26591" lon="5.76914">
        <ele>602</ele>
        <time>2019-03-19T15:48:20Z</time>
      </trkpt>
      <trkpt lat="44.26601" lon="5.76915">
        <ele>602</ele>
        <time>2019-03-19T15:48:21Z</time>
      </trkpt>
      <trkpt lat="44.26611" lon="5.76917">
        <ele>602</ele>
        <time>2019-03-19T15:48:22Z</time>
      </trkpt>
      <trkpt lat="44.26621" lon="5.76918">
        <ele>602</ele>
        <time>2019-03-19T15:48:23Z</time>
      </trkpt>
      <trkpt lat="44.26631" lon="5.76919">
        <ele>602</ele>
        <time>2019-03-19T15:48:24Z</time>
      </trkpt>
      <trkpt lat="44.26641" lon="5.76921">
        <ele>602</ele>
        <time>2019-03-19T15:48:25Z</time>
      </trkpt>
      <trkpt lat="44.26651" lon="5.76924">
        <ele>601</ele>
        <time>2019-03-19T15:48:26Z</time>
      </trkpt>
      <trkpt lat="44.26661" lon="5.76926">
        <ele>601</ele>
        <time>2019-03-19T15:48:27Z</time>
      </trkpt>
      <trkpt lat="44.2667" lon="5.7693">
        <ele>601</ele>
        <time>2019-03-19T15:48:28Z</time>
      </trkpt>
      <trkpt lat="44.26679" lon="5.76935">
        <ele>601</ele>
        <time>2019-03-19T15:48:29Z</time>
      </trkpt>
      <trkpt lat="44.26687" lon="5.76942">
        <ele>600</ele>
        <time>2019-03-19T15:48:30Z</time>
      </trkpt>
      <trkpt lat="44.26695" lon="5.76949">
        <ele>600</ele>
        <time>2019-03-19T15:48:31Z</time>
      </trkpt>
      <trkpt lat="44.26701" lon="5.76958">
        <ele>600</ele>
        <time>2019-03-19T15:48:32Z</time>
      </trkpt>
      <trkpt lat="44.26707" lon="5.76968">
        <ele>600</ele>
        <time>2019-03-19T15:48:33Z</time>
      </trkpt>
      <trkpt lat="44.26715" lon="5.77003">
        <ele>600</ele>
        <time>2019-03-19T15:48:36Z</time>
      </trkpt>
      <trkpt lat="44.26717" lon="5.77061">
        <ele>600</ele>
        <time>2019-03-19T15:48:42Z</time>
      </trkpt>
      <trkpt lat="44.26716" lon="5.7707">
        <ele>599</ele>
        <time>2019-03-19T15:48:43Z</time>
      </trkpt>
      <trkpt lat="44.26712" lon="5.77079">
        <ele>598</ele>
        <time>2019-03-19T15:48:44Z</time>
      </trkpt>
      <trkpt lat="44.26707" lon="5.77087">
        <ele>598</ele>
        <time>2019-03-19T15:48:45Z</time>
      </trkpt>
      <trkpt lat="44.26704" lon="5.77095">
        <ele>597</ele>
        <time>2019-03-19T15:48:46Z</time>
      </trkpt>
      <trkpt lat="44.267" lon="5.77101">
        <ele>597</ele>
        <time>2019-03-19T15:48:47Z</time>
      </trkpt>
      <trkpt lat="44.26696" lon="5.77108">
        <ele>597</ele>
        <time>2019-03-19T15:48:48Z</time>
      </trkpt>
      <trkpt lat="44.26691" lon="5.77114">
        <ele>597</ele>
        <time>2019-03-19T15:48:49Z</time>
      </trkpt>
      <trkpt lat="44.26686" lon="5.77121">
        <ele>597</ele>
        <time>2019-03-19T15:48:50Z</time>
      </trkpt>
      <trkpt lat="44.26681" lon="5.77127">
        <ele>597</ele>
        <time>2019-03-19T15:48:51Z</time>
      </trkpt>
      <trkpt lat="44.26675" lon="5.77133">
        <ele>597</ele>
        <time>2019-03-19T15:48:52Z</time>
      </trkpt>
      <trkpt lat="44.2667" lon="5.7714">
        <ele>597</ele>
        <time>2019-03-19T15:48:53Z</time>
      </trkpt>
      <trkpt lat="44.26666" lon="5.77147">
        <ele>597</ele>
        <time>2019-03-19T15:48:54Z</time>
      </trkpt>
      <trkpt lat="44.26661" lon="5.77153">
        <ele>597</ele>
        <time>2019-03-19T15:48:55Z</time>
      </trkpt>
      <trkpt lat="44.26656" lon="5.7716">
        <ele>597</ele>
        <time>2019-03-19T15:48:56Z</time>
      </trkpt>
      <trkpt lat="44.26651" lon="5.77166">
        <ele>597</ele>
        <time>2019-03-19T15:48:57Z</time>
      </trkpt>
      <trkpt lat="44.26645" lon="5.77173">
        <ele>597</ele>
        <time>2019-03-19T15:48:58Z</time>
      </trkpt>
      <trkpt lat="44.2664" lon="5.77179">
        <ele>598</ele>
        <time>2019-03-19T15:48:59Z</time>
      </trkpt>
      <trkpt lat="44.26634" lon="5.77185">
        <ele>598</ele>
        <time>2019-03-19T15:49:00Z</time>
      </trkpt>
      <trkpt lat="44.26628" lon="5.7719">
        <ele>598</ele>
        <time>2019-03-19T15:49:01Z</time>
      </trkpt>
      <trkpt lat="44.26624" lon="5.77195">
        <ele>598</ele>
        <time>2019-03-19T15:49:02Z</time>
      </trkpt>
      <trkpt lat="44.26619" lon="5.772">
        <ele>598</ele>
        <time>2019-03-19T15:49:03Z</time>
      </trkpt>
      <trkpt lat="44.26614" lon="5.77205">
        <ele>599</ele>
        <time>2019-03-19T15:49:04Z</time>
      </trkpt>
      <trkpt lat="44.26609" lon="5.7721">
        <ele>599</ele>
        <time>2019-03-19T15:49:05Z</time>
      </trkpt>
      <trkpt lat="44.26604" lon="5.77215">
        <ele>599</ele>
        <time>2019-03-19T15:49:06Z</time>
      </trkpt>
      <trkpt lat="44.26599" lon="5.77221">
        <ele>599</ele>
        <time>2019-03-19T15:49:07Z</time>
      </trkpt>
      <trkpt lat="44.26595" lon="5.77228">
        <ele>599</ele>
        <time>2019-03-19T15:49:08Z</time>
      </trkpt>
      <trkpt lat="44.26593" lon="5.77236">
        <ele>599</ele>
        <time>2019-03-19T15:49:09Z</time>
      </trkpt>
      <trkpt lat="44.26593" lon="5.77244">
        <ele>599</ele>
        <time>2019-03-19T15:49:10Z</time>
      </trkpt>
      <trkpt lat="44.26596" lon="5.77251">
        <ele>599</ele>
        <time>2019-03-19T15:49:11Z</time>
      </trkpt>
      <trkpt lat="44.26598" lon="5.77259">
        <ele>599</ele>
        <time>2019-03-19T15:49:12Z</time>
      </trkpt>
      <trkpt lat="44.26603" lon="5.77265">
        <ele>599</ele>
        <time>2019-03-19T15:49:13Z</time>
      </trkpt>
      <trkpt lat="44.26607" lon="5.77271">
        <ele>599</ele>
        <time>2019-03-19T15:49:14Z</time>
      </trkpt>
      <trkpt lat="44.26612" lon="5.77277">
        <ele>599</ele>
        <time>2019-03-19T15:49:15Z</time>
      </trkpt>
      <trkpt lat="44.26617" lon="5.77282">
        <ele>599</ele>
        <time>2019-03-19T15:49:16Z</time>
      </trkpt>
      <trkpt lat="44.26621" lon="5.77288">
        <ele>599</ele>
        <time>2019-03-19T15:49:17Z</time>
      </trkpt>
      <trkpt lat="44.26626" lon="5.77293">
        <ele>599</ele>
        <time>2019-03-19T15:49:18Z</time>
      </trkpt>
      <trkpt lat="44.26631" lon="5.77299">
        <ele>599</ele>
        <time>2019-03-19T15:49:19Z</time>
      </trkpt>
      <trkpt lat="44.26636" lon="5.77304">
        <ele>599</ele>
        <time>2019-03-19T15:49:20Z</time>
      </trkpt>
      <trkpt lat="44.26641" lon="5.7731">
        <ele>599</ele>
        <time>2019-03-19T15:49:21Z</time>
      </trkpt>
      <trkpt lat="44.26646" lon="5.77316">
        <ele>599</ele>
        <time>2019-03-19T15:49:22Z</time>
      </trkpt>
      <trkpt lat="44.26651" lon="5.77321">
        <ele>599</ele>
        <time>2019-03-19T15:49:23Z</time>
      </trkpt>
      <trkpt lat="44.26656" lon="5.77328">
        <ele>599</ele>
        <time>2019-03-19T15:49:24Z</time>
      </trkpt>
      <trkpt lat="44.2666" lon="5.77334">
        <ele>599</ele>
        <time>2019-03-19T15:49:25Z</time>
      </trkpt>
      <trkpt lat="44.26664" lon="5.77342">
        <ele>599</ele>
        <time>2019-03-19T15:49:26Z</time>
      </trkpt>
      <trkpt lat="44.26667" lon="5.77349">
        <ele>599</ele>
        <time>2019-03-19T15:49:27Z</time>
      </trkpt>
      <trkpt lat="44.2667" lon="5.77357">
        <ele>599</ele>
        <time>2019-03-19T15:49:28Z</time>
      </trkpt>
      <trkpt lat="44.26673" lon="5.77365">
        <ele>599</ele>
        <time>2019-03-19T15:49:29Z</time>
      </trkpt>
      <trkpt lat="44.26675" lon="5.77373">
        <ele>599</ele>
        <time>2019-03-19T15:49:30Z</time>
      </trkpt>
      <trkpt lat="44.26678" lon="5.77379">
        <ele>599</ele>
        <time>2019-03-19T15:49:31Z</time>
      </trkpt>
      <trkpt lat="44.26681" lon="5.77385">
        <ele>599</ele>
        <time>2019-03-19T15:49:32Z</time>
      </trkpt>
      <trkpt lat="44.26684" lon="5.77392">
        <ele>599</ele>
        <time>2019-03-19T15:49:33Z</time>
      </trkpt>
      <trkpt lat="44.26688" lon="5.77399">
        <ele>599</ele>
        <time>2019-03-19T15:49:34Z</time>
      </trkpt>
      <trkpt lat="44.26692" lon="5.77406">
        <ele>599</ele>
        <time>2019-03-19T15:49:35Z</time>
      </trkpt>
      <trkpt lat="44.26695" lon="5.77413">
        <ele>599</ele>
        <time>2019-03-19T15:49:36Z</time>
      </trkpt>
      <trkpt lat="44.26699" lon="5.77419">
        <ele>599</ele>
        <time>2019-03-19T15:49:37Z</time>
      </trkpt>
      <trkpt lat="44.26703" lon="5.77426">
        <ele>599</ele>
        <time>2019-03-19T15:49:38Z</time>
      </trkpt>
      <trkpt lat="44.26706" lon="5.77433">
        <ele>599</ele>
        <time>2019-03-19T15:49:39Z</time>
      </trkpt>
      <trkpt lat="44.26709" lon="5.77441">
        <ele>599</ele>
        <time>2019-03-19T15:49:40Z</time>
      </trkpt>
      <trkpt lat="44.26714" lon="5.77447">
        <ele>599</ele>
        <time>2019-03-19T15:49:41Z</time>
      </trkpt>
      <trkpt lat="44.26718" lon="5.77454">
        <ele>599</ele>
        <time>2019-03-19T15:49:42Z</time>
      </trkpt>
      <trkpt lat="44.26721" lon="5.77461">
        <ele>599</ele>
        <time>2019-03-19T15:49:43Z</time>
      </trkpt>
      <trkpt lat="44.26725" lon="5.77468">
        <ele>599</ele>
        <time>2019-03-19T15:49:44Z</time>
      </trkpt>
      <trkpt lat="44.26729" lon="5.77475">
        <ele>599</ele>
        <time>2019-03-19T15:49:45Z</time>
      </trkpt>
      <trkpt lat="44.26732" lon="5.77482">
        <ele>599</ele>
        <time>2019-03-19T15:49:46Z</time>
      </trkpt>
      <trkpt lat="44.26736" lon="5.77489">
        <ele>599</ele>
        <time>2019-03-19T15:49:47Z</time>
      </trkpt>
      <trkpt lat="44.2674" lon="5.77495">
        <ele>599</ele>
        <time>2019-03-19T15:49:48Z</time>
      </trkpt>
      <trkpt lat="44.26743" lon="5.77502">
        <ele>599</ele>
        <time>2019-03-19T15:49:49Z</time>
      </trkpt>
      <trkpt lat="44.26747" lon="5.77508">
        <ele>599</ele>
        <time>2019-03-19T15:49:50Z</time>
      </trkpt>
      <trkpt lat="44.26751" lon="5.77514">
        <ele>599</ele>
        <time>2019-03-19T15:49:51Z</time>
      </trkpt>
      <trkpt lat="44.26755" lon="5.7752">
        <ele>599</ele>
        <time>2019-03-19T15:49:52Z</time>
      </trkpt>
      <trkpt lat="44.26758" lon="5.77527">
        <ele>599</ele>
        <time>2019-03-19T15:49:53Z</time>
      </trkpt>
      <trkpt lat="44.26762" lon="5.77533">
        <ele>599</ele>
        <time>2019-03-19T15:49:54Z</time>
      </trkpt>
      <trkpt lat="44.26766" lon="5.7754">
        <ele>599</ele>
        <time>2019-03-19T15:49:55Z</time>
      </trkpt>
      <trkpt lat="44.2677" lon="5.77545">
        <ele>599</ele>
        <time>2019-03-19T15:49:56Z</time>
      </trkpt>
      <trkpt lat="44.26774" lon="5.7755">
        <ele>599</ele>
        <time>2019-03-19T15:49:57Z</time>
      </trkpt>
      <trkpt lat="44.26779" lon="5.77554">
        <ele>599</ele>
        <time>2019-03-19T15:49:58Z</time>
      </trkpt>
      <trkpt lat="44.26785" lon="5.77557">
        <ele>599</ele>
        <time>2019-03-19T15:49:59Z</time>
      </trkpt>
      <trkpt lat="44.26796" lon="5.77559">
        <ele>599</ele>
        <time>2019-03-19T15:50:01Z</time>
      </trkpt>
      <trkpt lat="44.26801" lon="5.77558">
        <ele>599</ele>
        <time>2019-03-19T15:50:02Z</time>
      </trkpt>
      <trkpt lat="44.26805" lon="5.77555">
        <ele>599</ele>
        <time>2019-03-19T15:50:03Z</time>
      </trkpt>
      <trkpt lat="44.2681" lon="5.77552">
        <ele>599</ele>
        <time>2019-03-19T15:50:04Z</time>
      </trkpt>
      <trkpt lat="44.26817" lon="5.77546">
        <ele>599</ele>
        <time>2019-03-19T15:50:05Z</time>
      </trkpt>
      <trkpt lat="44.26823" lon="5.77541">
        <ele>599</ele>
        <time>2019-03-19T15:50:06Z</time>
      </trkpt>
      <trkpt lat="44.2683" lon="5.77535">
        <ele>599</ele>
        <time>2019-03-19T15:50:07Z</time>
      </trkpt>
      <trkpt lat="44.26835" lon="5.77533">
        <ele>599</ele>
        <time>2019-03-19T15:50:08Z</time>
      </trkpt>
      <trkpt lat="44.2684" lon="5.77529">
        <ele>599</ele>
        <time>2019-03-19T15:50:09Z</time>
      </trkpt>
      <trkpt lat="44.26845" lon="5.77525">
        <ele>599</ele>
        <time>2019-03-19T15:50:10Z</time>
      </trkpt>
      <trkpt lat="44.26851" lon="5.77521">
        <ele>599</ele>
        <time>2019-03-19T15:50:11Z</time>
      </trkpt>
      <trkpt lat="44.26856" lon="5.77517">
        <ele>599</ele>
        <time>2019-03-19T15:50:12Z</time>
      </trkpt>
      <trkpt lat="44.26861" lon="5.77514">
        <ele>599</ele>
        <time>2019-03-19T15:50:13Z</time>
      </trkpt>
      <trkpt lat="44.26866" lon="5.7751">
        <ele>600</ele>
        <time>2019-03-19T15:50:14Z</time>
      </trkpt>
      <trkpt lat="44.26871" lon="5.77506">
        <ele>601</ele>
        <time>2019-03-19T15:50:15Z</time>
      </trkpt>
      <trkpt lat="44.26875" lon="5.77503">
        <ele>602</ele>
        <time>2019-03-19T15:50:16Z</time>
      </trkpt>
      <trkpt lat="44.26881" lon="5.77499">
        <ele>603</ele>
        <time>2019-03-19T15:50:17Z</time>
      </trkpt>
      <trkpt lat="44.26886" lon="5.77496">
        <ele>604</ele>
        <time>2019-03-19T15:50:18Z</time>
      </trkpt>
      <trkpt lat="44.26891" lon="5.77492">
        <ele>604</ele>
        <time>2019-03-19T15:50:19Z</time>
      </trkpt>
      <trkpt lat="44.26896" lon="5.77487">
        <ele>605</ele>
        <time>2019-03-19T15:50:20Z</time>
      </trkpt>
      <trkpt lat="44.269" lon="5.77483">
        <ele>606</ele>
        <time>2019-03-19T15:50:21Z</time>
      </trkpt>
      <trkpt lat="44.26905" lon="5.77479">
        <ele>606</ele>
        <time>2019-03-19T15:50:22Z</time>
      </trkpt>
      <trkpt lat="44.2691" lon="5.77475">
        <ele>606</ele>
        <time>2019-03-19T15:50:23Z</time>
      </trkpt>
      <trkpt lat="44.26916" lon="5.7747">
        <ele>607</ele>
        <time>2019-03-19T15:50:24Z</time>
      </trkpt>
      <trkpt lat="44.26921" lon="5.77467">
        <ele>607</ele>
        <time>2019-03-19T15:50:25Z</time>
      </trkpt>
      <trkpt lat="44.26926" lon="5.77463">
        <ele>607</ele>
        <time>2019-03-19T15:50:26Z</time>
      </trkpt>
      <trkpt lat="44.26931" lon="5.7746">
        <ele>607</ele>
        <time>2019-03-19T15:50:27Z</time>
      </trkpt>
      <trkpt lat="44.26936" lon="5.77457">
        <ele>607</ele>
        <time>2019-03-19T15:50:28Z</time>
      </trkpt>
      <trkpt lat="44.26942" lon="5.77453">
        <ele>607</ele>
        <time>2019-03-19T15:50:29Z</time>
      </trkpt>
      <trkpt lat="44.26947" lon="5.77451">
        <ele>607</ele>
        <time>2019-03-19T15:50:30Z</time>
      </trkpt>
      <trkpt lat="44.26953" lon="5.77449">
        <ele>607</ele>
        <time>2019-03-19T15:50:31Z</time>
      </trkpt>
      <trkpt lat="44.26959" lon="5.77448">
        <ele>607</ele>
        <time>2019-03-19T15:50:32Z</time>
      </trkpt>
      <trkpt lat="44.26965" lon="5.77446">
        <ele>607</ele>
        <time>2019-03-19T15:50:33Z</time>
      </trkpt>
      <trkpt lat="44.2697" lon="5.77443">
        <ele>607</ele>
        <time>2019-03-19T15:50:34Z</time>
      </trkpt>
      <trkpt lat="44.26976" lon="5.7744">
        <ele>607</ele>
        <time>2019-03-19T15:50:35Z</time>
      </trkpt>
      <trkpt lat="44.26981" lon="5.77437">
        <ele>607</ele>
        <time>2019-03-19T15:50:36Z</time>
      </trkpt>
      <trkpt lat="44.26987" lon="5.77433">
        <ele>607</ele>
        <time>2019-03-19T15:50:37Z</time>
      </trkpt>
      <trkpt lat="44.26993" lon="5.7743">
        <ele>607</ele>
        <time>2019-03-19T15:50:38Z</time>
      </trkpt>
      <trkpt lat="44.26999" lon="5.7743">
        <ele>607</ele>
        <time>2019-03-19T15:50:39Z</time>
      </trkpt>
      <trkpt lat="44.27005" lon="5.77432">
        <ele>607</ele>
        <time>2019-03-19T15:50:40Z</time>
      </trkpt>
      <trkpt lat="44.2701" lon="5.77437">
        <ele>607</ele>
        <time>2019-03-19T15:50:41Z</time>
      </trkpt>
      <trkpt lat="44.27016" lon="5.77442">
        <ele>607</ele>
        <time>2019-03-19T15:50:42Z</time>
      </trkpt>
      <trkpt lat="44.27021" lon="5.77447">
        <ele>607</ele>
        <time>2019-03-19T15:50:43Z</time>
      </trkpt>
      <trkpt lat="44.27026" lon="5.77452">
        <ele>607</ele>
        <time>2019-03-19T15:50:44Z</time>
      </trkpt>
      <trkpt lat="44.27031" lon="5.77457">
        <ele>607</ele>
        <time>2019-03-19T15:50:45Z</time>
      </trkpt>
      <trkpt lat="44.27036" lon="5.77464">
        <ele>607</ele>
        <time>2019-03-19T15:50:46Z</time>
      </trkpt>
      <trkpt lat="44.27039" lon="5.77471">
        <ele>607</ele>
        <time>2019-03-19T15:50:47Z</time>
      </trkpt>
      <trkpt lat="44.27043" lon="5.77476">
        <ele>607</ele>
        <time>2019-03-19T15:50:48Z</time>
      </trkpt>
      <trkpt lat="44.27046" lon="5.77482">
        <ele>607</ele>
        <time>2019-03-19T15:50:49Z</time>
      </trkpt>
      <trkpt lat="44.2705" lon="5.77487">
        <ele>607</ele>
        <time>2019-03-19T15:50:50Z</time>
      </trkpt>
      <trkpt lat="44.27053" lon="5.7749">
        <ele>607</ele>
        <time>2019-03-19T15:50:51Z</time>
      </trkpt>
      <trkpt lat="44.27064" lon="5.77498">
        <ele>606</ele>
        <time>2019-03-19T15:50:53Z</time>
      </trkpt>
      <trkpt lat="44.2707" lon="5.77502">
        <ele>606</ele>
        <time>2019-03-19T15:50:54Z</time>
      </trkpt>
      <trkpt lat="44.27076" lon="5.77506">
        <ele>606</ele>
        <time>2019-03-19T15:50:55Z</time>
      </trkpt>
      <trkpt lat="44.27081" lon="5.77511">
        <ele>606</ele>
        <time>2019-03-19T15:50:56Z</time>
      </trkpt>
      <trkpt lat="44.27085" lon="5.77519">
        <ele>606</ele>
        <time>2019-03-19T15:50:57Z</time>
      </trkpt>
      <trkpt lat="44.27089" lon="5.77526">
        <ele>606</ele>
        <time>2019-03-19T15:50:58Z</time>
      </trkpt>
      <trkpt lat="44.27093" lon="5.77534">
        <ele>606</ele>
        <time>2019-03-19T15:50:59Z</time>
      </trkpt>
      <trkpt lat="44.27097" lon="5.77542">
        <ele>606</ele>
        <time>2019-03-19T15:51:00Z</time>
      </trkpt>
      <trkpt lat="44.27101" lon="5.7755">
        <ele>606</ele>
        <time>2019-03-19T15:51:01Z</time>
      </trkpt>
      <trkpt lat="44.27105" lon="5.77558">
        <ele>606</ele>
        <time>2019-03-19T15:51:02Z</time>
      </trkpt>
      <trkpt lat="44.27113" lon="5.77575">
        <ele>606</ele>
        <time>2019-03-19T15:51:04Z</time>
      </trkpt>
      <trkpt lat="44.27115" lon="5.77585">
        <ele>606</ele>
        <time>2019-03-19T15:51:05Z</time>
      </trkpt>
      <trkpt lat="44.27116" lon="5.77595">
        <ele>606</ele>
        <time>2019-03-19T15:51:06Z</time>
      </trkpt>
      <trkpt lat="44.27118" lon="5.77601">
        <ele>605</ele>
        <time>2019-03-19T15:51:07Z</time>
      </trkpt>
      <trkpt lat="44.2712" lon="5.77609">
        <ele>604</ele>
        <time>2019-03-19T15:51:08Z</time>
      </trkpt>
      <trkpt lat="44.27122" lon="5.7762">
        <ele>603</ele>
        <time>2019-03-19T15:51:09Z</time>
      </trkpt>
      <trkpt lat="44.27123" lon="5.7763">
        <ele>602</ele>
        <time>2019-03-19T15:51:10Z</time>
      </trkpt>
      <trkpt lat="44.27124" lon="5.77641">
        <ele>601</ele>
        <time>2019-03-19T15:51:11Z</time>
      </trkpt>
      <trkpt lat="44.27126" lon="5.77652">
        <ele>600</ele>
        <time>2019-03-19T15:51:12Z</time>
      </trkpt>
      <trkpt lat="44.27127" lon="5.77663">
        <ele>599</ele>
        <time>2019-03-19T15:51:13Z</time>
      </trkpt>
      <trkpt lat="44.27131" lon="5.77671">
        <ele>598</ele>
        <time>2019-03-19T15:51:14Z</time>
      </trkpt>
      <trkpt lat="44.27135" lon="5.7768">
        <ele>598</ele>
        <time>2019-03-19T15:51:15Z</time>
      </trkpt>
      <trkpt lat="44.27139" lon="5.77689">
        <ele>598</ele>
        <time>2019-03-19T15:51:16Z</time>
      </trkpt>
      <trkpt lat="44.27144" lon="5.77696">
        <ele>597</ele>
        <time>2019-03-19T15:51:17Z</time>
      </trkpt>
      <trkpt lat="44.2715" lon="5.77702">
        <ele>597</ele>
        <time>2019-03-19T15:51:18Z</time>
      </trkpt>
      <trkpt lat="44.27156" lon="5.77708">
        <ele>596</ele>
        <time>2019-03-19T15:51:19Z</time>
      </trkpt>
      <trkpt lat="44.27163" lon="5.77713">
        <ele>596</ele>
        <time>2019-03-19T15:51:20Z</time>
      </trkpt>
      <trkpt lat="44.27169" lon="5.77718">
        <ele>596</ele>
        <time>2019-03-19T15:51:21Z</time>
      </trkpt>
      <trkpt lat="44.27176" lon="5.77723">
        <ele>595</ele>
        <time>2019-03-19T15:51:22Z</time>
      </trkpt>
      <trkpt lat="44.27182" lon="5.77728">
        <ele>595</ele>
        <time>2019-03-19T15:51:23Z</time>
      </trkpt>
      <trkpt lat="44.27189" lon="5.77732">
        <ele>595</ele>
        <time>2019-03-19T15:51:24Z</time>
      </trkpt>
      <trkpt lat="44.27195" lon="5.77736">
        <ele>594</ele>
        <time>2019-03-19T15:51:25Z</time>
      </trkpt>
      <trkpt lat="44.27202" lon="5.7774">
        <ele>594</ele>
        <time>2019-03-19T15:51:26Z</time>
      </trkpt>
      <trkpt lat="44.27209" lon="5.77744">
        <ele>594</ele>
        <time>2019-03-19T15:51:27Z</time>
      </trkpt>
      <trkpt lat="44.27216" lon="5.77749">
        <ele>594</ele>
        <time>2019-03-19T15:51:28Z</time>
      </trkpt>
      <trkpt lat="44.27223" lon="5.77752">
        <ele>594</ele>
        <time>2019-03-19T15:51:29Z</time>
      </trkpt>
      <trkpt lat="44.2723" lon="5.77753">
        <ele>594</ele>
        <time>2019-03-19T15:51:30Z</time>
      </trkpt>
      <trkpt lat="44.27237" lon="5.77754">
        <ele>594</ele>
        <time>2019-03-19T15:51:31Z</time>
      </trkpt>
      <trkpt lat="44.27244" lon="5.77751">
        <ele>594</ele>
        <time>2019-03-19T15:51:32Z</time>
      </trkpt>
      <trkpt lat="44.27251" lon="5.77748">
        <ele>594</ele>
        <time>2019-03-19T15:51:33Z</time>
      </trkpt>
      <trkpt lat="44.27258" lon="5.77744">
        <ele>594</ele>
        <time>2019-03-19T15:51:34Z</time>
      </trkpt>
      <trkpt lat="44.27265" lon="5.77741">
        <ele>594</ele>
        <time>2019-03-19T15:51:35Z</time>
      </trkpt>
      <trkpt lat="44.27272" lon="5.77739">
        <ele>594</ele>
        <time>2019-03-19T15:51:36Z</time>
      </trkpt>
      <trkpt lat="44.27279" lon="5.77739">
        <ele>594</ele>
        <time>2019-03-19T15:51:37Z</time>
      </trkpt>
      <trkpt lat="44.27285" lon="5.77738">
        <ele>594</ele>
        <time>2019-03-19T15:51:38Z</time>
      </trkpt>
      <trkpt lat="44.27291" lon="5.7774">
        <ele>594</ele>
        <time>2019-03-19T15:51:39Z</time>
      </trkpt>
      <trkpt lat="44.27296" lon="5.77745">
        <ele>594</ele>
        <time>2019-03-19T15:51:40Z</time>
      </trkpt>
      <trkpt lat="44.27301" lon="5.77753">
        <ele>594</ele>
        <time>2019-03-19T15:51:41Z</time>
      </trkpt>
      <trkpt lat="44.27302" lon="5.77762">
        <ele>594</ele>
        <time>2019-03-19T15:51:42Z</time>
      </trkpt>
      <trkpt lat="44.27302" lon="5.77771">
        <ele>594</ele>
        <time>2019-03-19T15:51:43Z</time>
      </trkpt>
      <trkpt lat="44.27302" lon="5.7778">
        <ele>594</ele>
        <time>2019-03-19T15:51:44Z</time>
      </trkpt>
      <trkpt lat="44.27303" lon="5.77789">
        <ele>594</ele>
        <time>2019-03-19T15:51:45Z</time>
      </trkpt>
      <trkpt lat="44.27305" lon="5.77798">
        <ele>594</ele>
        <time>2019-03-19T15:51:46Z</time>
      </trkpt>
      <trkpt lat="44.27309" lon="5.77805">
        <ele>594</ele>
        <time>2019-03-19T15:51:47Z</time>
      </trkpt>
      <trkpt lat="44.27313" lon="5.77811">
        <ele>594</ele>
        <time>2019-03-19T15:51:48Z</time>
      </trkpt>
      <trkpt lat="44.27317" lon="5.77816">
        <ele>594</ele>
        <time>2019-03-19T15:51:49Z</time>
      </trkpt>
      <trkpt lat="44.27322" lon="5.77822">
        <ele>594</ele>
        <time>2019-03-19T15:51:50Z</time>
      </trkpt>
      <trkpt lat="44.27328" lon="5.77827">
        <ele>594</ele>
        <time>2019-03-19T15:51:51Z</time>
      </trkpt>
      <trkpt lat="44.27333" lon="5.77833">
        <ele>594</ele>
        <time>2019-03-19T15:51:52Z</time>
      </trkpt>
      <trkpt lat="44.27339" lon="5.77838">
        <ele>594</ele>
        <time>2019-03-19T15:51:53Z</time>
      </trkpt>
      <trkpt lat="44.27345" lon="5.77843">
        <ele>594</ele>
        <time>2019-03-19T15:51:54Z</time>
      </trkpt>
      <trkpt lat="44.2735" lon="5.77848">
        <ele>594</ele>
        <time>2019-03-19T15:51:55Z</time>
      </trkpt>
      <trkpt lat="44.27356" lon="5.77855">
        <ele>594</ele>
        <time>2019-03-19T15:51:56Z</time>
      </trkpt>
      <trkpt lat="44.27361" lon="5.77861">
        <ele>594</ele>
        <time>2019-03-19T15:51:57Z</time>
      </trkpt>
      <trkpt lat="44.27367" lon="5.77867">
        <ele>594</ele>
        <time>2019-03-19T15:51:58Z</time>
      </trkpt>
      <trkpt lat="44.27372" lon="5.77873">
        <ele>593</ele>
        <time>2019-03-19T15:51:59Z</time>
      </trkpt>
      <trkpt lat="44.27377" lon="5.7788">
        <ele>593</ele>
        <time>2019-03-19T15:52:00Z</time>
      </trkpt>
      <trkpt lat="44.27382" lon="5.77886">
        <ele>593</ele>
        <time>2019-03-19T15:52:01Z</time>
      </trkpt>
      <trkpt lat="44.27387" lon="5.77893">
        <ele>592</ele>
        <time>2019-03-19T15:52:02Z</time>
      </trkpt>
      <trkpt lat="44.27393" lon="5.77901">
        <ele>592</ele>
        <time>2019-03-19T15:52:03Z</time>
      </trkpt>
      <trkpt lat="44.27398" lon="5.77908">
        <ele>591</ele>
        <time>2019-03-19T15:52:04Z</time>
      </trkpt>
      <trkpt lat="44.27403" lon="5.77916">
        <ele>591</ele>
        <time>2019-03-19T15:52:05Z</time>
      </trkpt>
      <trkpt lat="44.27406" lon="5.77925">
        <ele>591</ele>
        <time>2019-03-19T15:52:06Z</time>
      </trkpt>
      <trkpt lat="44.27409" lon="5.77935">
        <ele>591</ele>
        <time>2019-03-19T15:52:07Z</time>
      </trkpt>
      <trkpt lat="44.27411" lon="5.77945">
        <ele>591</ele>
        <time>2019-03-19T15:52:08Z</time>
      </trkpt>
      <trkpt lat="44.27411" lon="5.77955">
        <ele>591</ele>
        <time>2019-03-19T15:52:09Z</time>
      </trkpt>
      <trkpt lat="44.27411" lon="5.77966">
        <ele>591</ele>
        <time>2019-03-19T15:52:10Z</time>
      </trkpt>
      <trkpt lat="44.27411" lon="5.77976">
        <ele>591</ele>
        <time>2019-03-19T15:52:11Z</time>
      </trkpt>
      <trkpt lat="44.27411" lon="5.77985">
        <ele>591</ele>
        <time>2019-03-19T15:52:12Z</time>
      </trkpt>
      <trkpt lat="44.27411" lon="5.77995">
        <ele>591</ele>
        <time>2019-03-19T15:52:13Z</time>
      </trkpt>
      <trkpt lat="44.27412" lon="5.78005">
        <ele>590</ele>
        <time>2019-03-19T15:52:14Z</time>
      </trkpt>
      <trkpt lat="44.27412" lon="5.78015">
        <ele>590</ele>
        <time>2019-03-19T15:52:15Z</time>
      </trkpt>
      <trkpt lat="44.27413" lon="5.78024">
        <ele>590</ele>
        <time>2019-03-19T15:52:16Z</time>
      </trkpt>
      <trkpt lat="44.27417" lon="5.78032">
        <ele>590</ele>
        <time>2019-03-19T15:52:17Z</time>
      </trkpt>
      <trkpt lat="44.2742" lon="5.7804">
        <ele>590</ele>
        <time>2019-03-19T15:52:18Z</time>
      </trkpt>
      <trkpt lat="44.27425" lon="5.78048">
        <ele>590</ele>
        <time>2019-03-19T15:52:19Z</time>
      </trkpt>
      <trkpt lat="44.27429" lon="5.78055">
        <ele>590</ele>
        <time>2019-03-19T15:52:20Z</time>
      </trkpt>
      <trkpt lat="44.27434" lon="5.78061">
        <ele>590</ele>
        <time>2019-03-19T15:52:21Z</time>
      </trkpt>
      <trkpt lat="44.27439" lon="5.78067">
        <ele>590</ele>
        <time>2019-03-19T15:52:22Z</time>
      </trkpt>
      <trkpt lat="44.27445" lon="5.78074">
        <ele>590</ele>
        <time>2019-03-19T15:52:23Z</time>
      </trkpt>
      <trkpt lat="44.27451" lon="5.7808">
        <ele>590</ele>
        <time>2019-03-19T15:52:24Z</time>
      </trkpt>
      <trkpt lat="44.27457" lon="5.78086">
        <ele>590</ele>
        <time>2019-03-19T15:52:25Z</time>
      </trkpt>
      <trkpt lat="44.27462" lon="5.78092">
        <ele>590</ele>
        <time>2019-03-19T15:52:26Z</time>
      </trkpt>
      <trkpt lat="44.27468" lon="5.78098">
        <ele>590</ele>
        <time>2019-03-19T15:52:27Z</time>
      </trkpt>
      <trkpt lat="44.27474" lon="5.78104">
        <ele>590</ele>
        <time>2019-03-19T15:52:28Z</time>
      </trkpt>
      <trkpt lat="44.2748" lon="5.78111">
        <ele>590</ele>
        <time>2019-03-19T15:52:29Z</time>
      </trkpt>
      <trkpt lat="44.27486" lon="5.78118">
        <ele>590</ele>
        <time>2019-03-19T15:52:30Z</time>
      </trkpt>
      <trkpt lat="44.27491" lon="5.78124">
        <ele>590</ele>
        <time>2019-03-19T15:52:31Z</time>
      </trkpt>
      <trkpt lat="44.27497" lon="5.78131">
        <ele>590</ele>
        <time>2019-03-19T15:52:32Z</time>
      </trkpt>
      <trkpt lat="44.27503" lon="5.78138">
        <ele>590</ele>
        <time>2019-03-19T15:52:33Z</time>
      </trkpt>
      <trkpt lat="44.27508" lon="5.78145">
        <ele>590</ele>
        <time>2019-03-19T15:52:34Z</time>
      </trkpt>
      <trkpt lat="44.27514" lon="5.78151">
        <ele>590</ele>
        <time>2019-03-19T15:52:35Z</time>
      </trkpt>
      <trkpt lat="44.27519" lon="5.78158">
        <ele>590</ele>
        <time>2019-03-19T15:52:36Z</time>
      </trkpt>
      <trkpt lat="44.27525" lon="5.78165">
        <ele>590</ele>
        <time>2019-03-19T15:52:37Z</time>
      </trkpt>
      <trkpt lat="44.2753" lon="5.78172">
        <ele>590</ele>
        <time>2019-03-19T15:52:38Z</time>
      </trkpt>
      <trkpt lat="44.27535" lon="5.7818">
        <ele>590</ele>
        <time>2019-03-19T15:52:39Z</time>
      </trkpt>
      <trkpt lat="44.2754" lon="5.78188">
        <ele>590</ele>
        <time>2019-03-19T15:52:40Z</time>
      </trkpt>
      <trkpt lat="44.27544" lon="5.78197">
        <ele>590</ele>
        <time>2019-03-19T15:52:41Z</time>
      </trkpt>
      <trkpt lat="44.27547" lon="5.78206">
        <ele>590</ele>
        <time>2019-03-19T15:52:42Z</time>
      </trkpt>
      <trkpt lat="44.27551" lon="5.78216">
        <ele>590</ele>
        <time>2019-03-19T15:52:43Z</time>
      </trkpt>
      <trkpt lat="44.27552" lon="5.78225">
        <ele>590</ele>
        <time>2019-03-19T15:52:44Z</time>
      </trkpt>
      <trkpt lat="44.27553" lon="5.78235">
        <ele>590</ele>
        <time>2019-03-19T15:52:45Z</time>
      </trkpt>
      <trkpt lat="44.27552" lon="5.78245">
        <ele>590</ele>
        <time>2019-03-19T15:52:46Z</time>
      </trkpt>
      <trkpt lat="44.27551" lon="5.78254">
        <ele>590</ele>
        <time>2019-03-19T15:52:47Z</time>
      </trkpt>
      <trkpt lat="44.27549" lon="5.78264">
        <ele>590</ele>
        <time>2019-03-19T15:52:48Z</time>
      </trkpt>
      <trkpt lat="44.27544" lon="5.78272">
        <ele>590</ele>
        <time>2019-03-19T15:52:49Z</time>
      </trkpt>
      <trkpt lat="44.27539" lon="5.78278">
        <ele>590</ele>
        <time>2019-03-19T15:52:50Z</time>
      </trkpt>
      <trkpt lat="44.27533" lon="5.78284">
        <ele>590</ele>
        <time>2019-03-19T15:52:51Z</time>
      </trkpt>
      <trkpt lat="44.27526" lon="5.78288">
        <ele>590</ele>
        <time>2019-03-19T15:52:52Z</time>
      </trkpt>
      <trkpt lat="44.27519" lon="5.78292">
        <ele>590</ele>
        <time>2019-03-19T15:52:53Z</time>
      </trkpt>
      <trkpt lat="44.27512" lon="5.78296">
        <ele>590</ele>
        <time>2019-03-19T15:52:54Z</time>
      </trkpt>
      <trkpt lat="44.27505" lon="5.78301">
        <ele>590</ele>
        <time>2019-03-19T15:52:55Z</time>
      </trkpt>
      <trkpt lat="44.27499" lon="5.78306">
        <ele>590</ele>
        <time>2019-03-19T15:52:56Z</time>
      </trkpt>
      <trkpt lat="44.27493" lon="5.78312">
        <ele>590</ele>
        <time>2019-03-19T15:52:57Z</time>
      </trkpt>
      <trkpt lat="44.27488" lon="5.78318">
        <ele>590</ele>
        <time>2019-03-19T15:52:58Z</time>
      </trkpt>
      <trkpt lat="44.27482" lon="5.78325">
        <ele>590</ele>
        <time>2019-03-19T15:52:59Z</time>
      </trkpt>
      <trkpt lat="44.27477" lon="5.78332">
        <ele>590</ele>
        <time>2019-03-19T15:53:00Z</time>
      </trkpt>
      <trkpt lat="44.27472" lon="5.78339">
        <ele>590</ele>
        <time>2019-03-19T15:53:01Z</time>
      </trkpt>
      <trkpt lat="44.27469" lon="5.78348">
        <ele>590</ele>
        <time>2019-03-19T15:53:02Z</time>
      </trkpt>
      <trkpt lat="44.27468" lon="5.78358">
        <ele>590</ele>
        <time>2019-03-19T15:53:03Z</time>
      </trkpt>
      <trkpt lat="44.2747" lon="5.78368">
        <ele>590</ele>
        <time>2019-03-19T15:53:04Z</time>
      </trkpt>
      <trkpt lat="44.27473" lon="5.78377">
        <ele>590</ele>
        <time>2019-03-19T15:53:05Z</time>
      </trkpt>
      <trkpt lat="44.27479" lon="5.78385">
        <ele>589</ele>
        <time>2019-03-19T15:53:06Z</time>
      </trkpt>
      <trkpt lat="44.27485" lon="5.78393">
        <ele>589</ele>
        <time>2019-03-19T15:53:07Z</time>
      </trkpt>
      <trkpt lat="44.27492" lon="5.78399">
        <ele>589</ele>
        <time>2019-03-19T15:53:08Z</time>
      </trkpt>
      <trkpt lat="44.27498" lon="5.78404">
        <ele>589</ele>
        <time>2019-03-19T15:53:09Z</time>
      </trkpt>
      <trkpt lat="44.27506" lon="5.78409">
        <ele>589</ele>
        <time>2019-03-19T15:53:10Z</time>
      </trkpt>
      <trkpt lat="44.27513" lon="5.78414">
        <ele>589</ele>
        <time>2019-03-19T15:53:11Z</time>
      </trkpt>
      <trkpt lat="44.27521" lon="5.78417">
        <ele>588</ele>
        <time>2019-03-19T15:53:12Z</time>
      </trkpt>
      <trkpt lat="44.27528" lon="5.7842">
        <ele>588</ele>
        <time>2019-03-19T15:53:13Z</time>
      </trkpt>
      <trkpt lat="44.27537" lon="5.78421">
        <ele>588</ele>
        <time>2019-03-19T15:53:14Z</time>
      </trkpt>
      <trkpt lat="44.27545" lon="5.78422">
        <ele>588</ele>
        <time>2019-03-19T15:53:15Z</time>
      </trkpt>
      <trkpt lat="44.27553" lon="5.78421">
        <ele>588</ele>
        <time>2019-03-19T15:53:16Z</time>
      </trkpt>
      <trkpt lat="44.27561" lon="5.78419">
        <ele>588</ele>
        <time>2019-03-19T15:53:17Z</time>
      </trkpt>
      <trkpt lat="44.27569" lon="5.78415">
        <ele>588</ele>
        <time>2019-03-19T15:53:18Z</time>
      </trkpt>
      <trkpt lat="44.27577" lon="5.78411">
        <ele>588</ele>
        <time>2019-03-19T15:53:19Z</time>
      </trkpt>
      <trkpt lat="44.27584" lon="5.78406">
        <ele>588</ele>
        <time>2019-03-19T15:53:20Z</time>
      </trkpt>
      <trkpt lat="44.27592" lon="5.78401">
        <ele>588</ele>
        <time>2019-03-19T15:53:21Z</time>
      </trkpt>
      <trkpt lat="44.27599" lon="5.78396">
        <ele>588</ele>
        <time>2019-03-19T15:53:22Z</time>
      </trkpt>
      <trkpt lat="44.27607" lon="5.78391">
        <ele>588</ele>
        <time>2019-03-19T15:53:23Z</time>
      </trkpt>
      <trkpt lat="44.27614" lon="5.78386">
        <ele>588</ele>
        <time>2019-03-19T15:53:24Z</time>
      </trkpt>
      <trkpt lat="44.27621" lon="5.78381">
        <ele>588</ele>
        <time>2019-03-19T15:53:25Z</time>
      </trkpt>
      <trkpt lat="44.27628" lon="5.78375">
        <ele>588</ele>
        <time>2019-03-19T15:53:26Z</time>
      </trkpt>
      <trkpt lat="44.27635" lon="5.7837">
        <ele>588</ele>
        <time>2019-03-19T15:53:27Z</time>
      </trkpt>
      <trkpt lat="44.27642" lon="5.78364">
        <ele>588</ele>
        <time>2019-03-19T15:53:28Z</time>
      </trkpt>
      <trkpt lat="44.27649" lon="5.78358">
        <ele>588</ele>
        <time>2019-03-19T15:53:29Z</time>
      </trkpt>
      <trkpt lat="44.27656" lon="5.78353">
        <ele>588</ele>
        <time>2019-03-19T15:53:30Z</time>
      </trkpt>
      <trkpt lat="44.27663" lon="5.78347">
        <ele>588</ele>
        <time>2019-03-19T15:53:31Z</time>
      </trkpt>
      <trkpt lat="44.27671" lon="5.78343">
        <ele>588</ele>
        <time>2019-03-19T15:53:32Z</time>
      </trkpt>
      <trkpt lat="44.27678" lon="5.78338">
        <ele>588</ele>
        <time>2019-03-19T15:53:33Z</time>
      </trkpt>
      <trkpt lat="44.27684" lon="5.78333">
        <ele>588</ele>
        <time>2019-03-19T15:53:34Z</time>
      </trkpt>
      <trkpt lat="44.27691" lon="5.78327">
        <ele>588</ele>
        <time>2019-03-19T15:53:35Z</time>
      </trkpt>
      <trkpt lat="44.27697" lon="5.78321">
        <ele>588</ele>
        <time>2019-03-19T15:53:36Z</time>
      </trkpt>
      <trkpt lat="44.27703" lon="5.78314">
        <ele>588</ele>
        <time>2019-03-19T15:53:37Z</time>
      </trkpt>
      <trkpt lat="44.27709" lon="5.78307">
        <ele>588</ele>
        <time>2019-03-19T15:53:38Z</time>
      </trkpt>
      <trkpt lat="44.27715" lon="5.783">
        <ele>588</ele>
        <time>2019-03-19T15:53:39Z</time>
      </trkpt>
      <trkpt lat="44.27721" lon="5.78292">
        <ele>588</ele>
        <time>2019-03-19T15:53:40Z</time>
      </trkpt>
      <trkpt lat="44.27727" lon="5.78285">
        <ele>588</ele>
        <time>2019-03-19T15:53:41Z</time>
      </trkpt>
      <trkpt lat="44.27733" lon="5.78278">
        <ele>588</ele>
        <time>2019-03-19T15:53:42Z</time>
      </trkpt>
      <trkpt lat="44.27739" lon="5.78271">
        <ele>588</ele>
        <time>2019-03-19T15:53:43Z</time>
      </trkpt>
      <trkpt lat="44.27746" lon="5.78264">
        <ele>588</ele>
        <time>2019-03-19T15:53:44Z</time>
      </trkpt>
      <trkpt lat="44.27752" lon="5.78258">
        <ele>588</ele>
        <time>2019-03-19T15:53:45Z</time>
      </trkpt>
      <trkpt lat="44.27759" lon="5.7825">
        <ele>588</ele>
        <time>2019-03-19T15:53:46Z</time>
      </trkpt>
      <trkpt lat="44.27766" lon="5.78243">
        <ele>587</ele>
        <time>2019-03-19T15:53:47Z</time>
      </trkpt>
      <trkpt lat="44.27772" lon="5.78236">
        <ele>587</ele>
        <time>2019-03-19T15:53:48Z</time>
      </trkpt>
      <trkpt lat="44.27779" lon="5.78228">
        <ele>587</ele>
        <time>2019-03-19T15:53:49Z</time>
      </trkpt>
      <trkpt lat="44.27786" lon="5.78221">
        <ele>587</ele>
        <time>2019-03-19T15:53:50Z</time>
      </trkpt>
      <trkpt lat="44.27792" lon="5.78215">
        <ele>586</ele>
        <time>2019-03-19T15:53:51Z</time>
      </trkpt>
      <trkpt lat="44.27799" lon="5.78209">
        <ele>586</ele>
        <time>2019-03-19T15:53:52Z</time>
      </trkpt>
      <trkpt lat="44.27806" lon="5.78203">
        <ele>586</ele>
        <time>2019-03-19T15:53:53Z</time>
      </trkpt>
      <trkpt lat="44.27814" lon="5.78198">
        <ele>585</ele>
        <time>2019-03-19T15:53:54Z</time>
      </trkpt>
      <trkpt lat="44.27821" lon="5.78194">
        <ele>585</ele>
        <time>2019-03-19T15:53:55Z</time>
      </trkpt>
      <trkpt lat="44.27829" lon="5.7819">
        <ele>584</ele>
        <time>2019-03-19T15:53:56Z</time>
      </trkpt>
      <trkpt lat="44.27836" lon="5.78186">
        <ele>584</ele>
        <time>2019-03-19T15:53:57Z</time>
      </trkpt>
      <trkpt lat="44.27845" lon="5.78184">
        <ele>583</ele>
        <time>2019-03-19T15:53:58Z</time>
      </trkpt>
      <trkpt lat="44.27853" lon="5.78183">
        <ele>582</ele>
        <time>2019-03-19T15:53:59Z</time>
      </trkpt>
      <trkpt lat="44.27861" lon="5.78185">
        <ele>581</ele>
        <time>2019-03-19T15:54:00Z</time>
      </trkpt>
      <trkpt lat="44.27869" lon="5.78187">
        <ele>581</ele>
        <time>2019-03-19T15:54:01Z</time>
      </trkpt>
      <trkpt lat="44.27877" lon="5.78191">
        <ele>580</ele>
        <time>2019-03-19T15:54:02Z</time>
      </trkpt>
      <trkpt lat="44.27884" lon="5.78196">
        <ele>579</ele>
        <time>2019-03-19T15:54:03Z</time>
      </trkpt>
      <trkpt lat="44.2789" lon="5.78204">
        <ele>578</ele>
        <time>2019-03-19T15:54:04Z</time>
      </trkpt>
      <trkpt lat="44.27895" lon="5.78213">
        <ele>578</ele>
        <time>2019-03-19T15:54:05Z</time>
      </trkpt>
      <trkpt lat="44.27901" lon="5.78221">
        <ele>577</ele>
        <time>2019-03-19T15:54:06Z</time>
      </trkpt>
      <trkpt lat="44.27906" lon="5.7823">
        <ele>576</ele>
        <time>2019-03-19T15:54:07Z</time>
      </trkpt>
      <trkpt lat="44.2791" lon="5.78239">
        <ele>576</ele>
        <time>2019-03-19T15:54:08Z</time>
      </trkpt>
      <trkpt lat="44.27915" lon="5.78249">
        <ele>576</ele>
        <time>2019-03-19T15:54:09Z</time>
      </trkpt>
      <trkpt lat="44.27919" lon="5.78258">
        <ele>576</ele>
        <time>2019-03-19T15:54:10Z</time>
      </trkpt>
      <trkpt lat="44.27923" lon="5.78266">
        <ele>576</ele>
        <time>2019-03-19T15:54:11Z</time>
      </trkpt>
      <trkpt lat="44.27927" lon="5.78275">
        <ele>576</ele>
        <time>2019-03-19T15:54:12Z</time>
      </trkpt>
      <trkpt lat="44.2793" lon="5.78285">
        <ele>576</ele>
        <time>2019-03-19T15:54:13Z</time>
      </trkpt>
      <trkpt lat="44.27933" lon="5.78295">
        <ele>576</ele>
        <time>2019-03-19T15:54:14Z</time>
      </trkpt>
      <trkpt lat="44.27935" lon="5.78305">
        <ele>576</ele>
        <time>2019-03-19T15:54:15Z</time>
      </trkpt>
      <trkpt lat="44.27938" lon="5.78315">
        <ele>576</ele>
        <time>2019-03-19T15:54:16Z</time>
      </trkpt>
      <trkpt lat="44.2794" lon="5.78325">
        <ele>575</ele>
        <time>2019-03-19T15:54:17Z</time>
      </trkpt>
      <trkpt lat="44.27942" lon="5.78335">
        <ele>575</ele>
        <time>2019-03-19T15:54:18Z</time>
      </trkpt>
      <trkpt lat="44.27944" lon="5.78345">
        <ele>575</ele>
        <time>2019-03-19T15:54:19Z</time>
      </trkpt>
      <trkpt lat="44.27946" lon="5.78356">
        <ele>575</ele>
        <time>2019-03-19T15:54:20Z</time>
      </trkpt>
      <trkpt lat="44.27948" lon="5.78366">
        <ele>575</ele>
        <time>2019-03-19T15:54:21Z</time>
      </trkpt>
      <trkpt lat="44.2795" lon="5.78376">
        <ele>575</ele>
        <time>2019-03-19T15:54:22Z</time>
      </trkpt>
      <trkpt lat="44.27952" lon="5.78387">
        <ele>575</ele>
        <time>2019-03-19T15:54:23Z</time>
      </trkpt>
      <trkpt lat="44.27953" lon="5.78397">
        <ele>575</ele>
        <time>2019-03-19T15:54:24Z</time>
      </trkpt>
      <trkpt lat="44.27955" lon="5.78407">
        <ele>575</ele>
        <time>2019-03-19T15:54:25Z</time>
      </trkpt>
      <trkpt lat="44.27957" lon="5.78418">
        <ele>575</ele>
        <time>2019-03-19T15:54:26Z</time>
      </trkpt>
      <trkpt lat="44.27958" lon="5.78429">
        <ele>575</ele>
        <time>2019-03-19T15:54:27Z</time>
      </trkpt>
      <trkpt lat="44.27959" lon="5.78439">
        <ele>575</ele>
        <time>2019-03-19T15:54:28Z</time>
      </trkpt>
      <trkpt lat="44.27961" lon="5.7845">
        <ele>575</ele>
        <time>2019-03-19T15:54:29Z</time>
      </trkpt>
      <trkpt lat="44.27962" lon="5.78461">
        <ele>575</ele>
        <time>2019-03-19T15:54:30Z</time>
      </trkpt>
      <trkpt lat="44.27963" lon="5.78471">
        <ele>575</ele>
        <time>2019-03-19T15:54:31Z</time>
      </trkpt>
      <trkpt lat="44.27964" lon="5.78482">
        <ele>575</ele>
        <time>2019-03-19T15:54:32Z</time>
      </trkpt>
      <trkpt lat="44.27965" lon="5.78492">
        <ele>575</ele>
        <time>2019-03-19T15:54:33Z</time>
      </trkpt>
      <trkpt lat="44.27966" lon="5.78503">
        <ele>575</ele>
        <time>2019-03-19T15:54:34Z</time>
      </trkpt>
      <trkpt lat="44.27967" lon="5.78513">
        <ele>575</ele>
        <time>2019-03-19T15:54:35Z</time>
      </trkpt>
      <trkpt lat="44.27967" lon="5.78523">
        <ele>574</ele>
        <time>2019-03-19T15:54:36Z</time>
      </trkpt>
      <trkpt lat="44.27967" lon="5.78534">
        <ele>574</ele>
        <time>2019-03-19T15:54:37Z</time>
      </trkpt>
      <trkpt lat="44.27967" lon="5.78544">
        <ele>574</ele>
        <time>2019-03-19T15:54:38Z</time>
      </trkpt>
      <trkpt lat="44.27966" lon="5.78554">
        <ele>574</ele>
        <time>2019-03-19T15:54:39Z</time>
      </trkpt>
      <trkpt lat="44.27965" lon="5.78565">
        <ele>574</ele>
        <time>2019-03-19T15:54:40Z</time>
      </trkpt>
      <trkpt lat="44.27964" lon="5.78575">
        <ele>574</ele>
        <time>2019-03-19T15:54:41Z</time>
      </trkpt>
      <trkpt lat="44.27962" lon="5.78585">
        <ele>574</ele>
        <time>2019-03-19T15:54:42Z</time>
      </trkpt>
      <trkpt lat="44.27961" lon="5.78595">
        <ele>574</ele>
        <time>2019-03-19T15:54:43Z</time>
      </trkpt>
      <trkpt lat="44.27959" lon="5.78605">
        <ele>574</ele>
        <time>2019-03-19T15:54:44Z</time>
      </trkpt>
      <trkpt lat="44.27957" lon="5.78615">
        <ele>574</ele>
        <time>2019-03-19T15:54:45Z</time>
      </trkpt>
      <trkpt lat="44.27953" lon="5.78623">
        <ele>574</ele>
        <time>2019-03-19T15:54:46Z</time>
      </trkpt>
      <trkpt lat="44.27949" lon="5.78632">
        <ele>574</ele>
        <time>2019-03-19T15:54:47Z</time>
      </trkpt>
      <trkpt lat="44.27945" lon="5.7864">
        <ele>574</ele>
        <time>2019-03-19T15:54:48Z</time>
      </trkpt>
      <trkpt lat="44.2794" lon="5.78648">
        <ele>574</ele>
        <time>2019-03-19T15:54:49Z</time>
      </trkpt>
      <trkpt lat="44.27936" lon="5.78656">
        <ele>574</ele>
        <time>2019-03-19T15:54:50Z</time>
      </trkpt>
      <trkpt lat="44.27933" lon="5.78664">
        <ele>574</ele>
        <time>2019-03-19T15:54:51Z</time>
      </trkpt>
      <trkpt lat="44.2793" lon="5.78673">
        <ele>574</ele>
        <time>2019-03-19T15:54:52Z</time>
      </trkpt>
      <trkpt lat="44.27929" lon="5.78682">
        <ele>574</ele>
        <time>2019-03-19T15:54:53Z</time>
      </trkpt>
      <trkpt lat="44.27929" lon="5.78691">
        <ele>574</ele>
        <time>2019-03-19T15:54:54Z</time>
      </trkpt>
      <trkpt lat="44.27929" lon="5.78701">
        <ele>574</ele>
        <time>2019-03-19T15:54:55Z</time>
      </trkpt>
      <trkpt lat="44.2793" lon="5.78711">
        <ele>574</ele>
        <time>2019-03-19T15:54:56Z</time>
      </trkpt>
      <trkpt lat="44.27931" lon="5.78721">
        <ele>574</ele>
        <time>2019-03-19T15:54:57Z</time>
      </trkpt>
      <trkpt lat="44.27932" lon="5.7873">
        <ele>574</ele>
        <time>2019-03-19T15:54:58Z</time>
      </trkpt>
      <trkpt lat="44.27933" lon="5.78741">
        <ele>574</ele>
        <time>2019-03-19T15:54:59Z</time>
      </trkpt>
      <trkpt lat="44.27935" lon="5.7875">
        <ele>574</ele>
        <time>2019-03-19T15:55:00Z</time>
      </trkpt>
      <trkpt lat="44.27936" lon="5.78759">
        <ele>574</ele>
        <time>2019-03-19T15:55:01Z</time>
      </trkpt>
      <trkpt lat="44.27939" lon="5.78769">
        <ele>574</ele>
        <time>2019-03-19T15:55:02Z</time>
      </trkpt>
      <trkpt lat="44.27942" lon="5.78778">
        <ele>574</ele>
        <time>2019-03-19T15:55:03Z</time>
      </trkpt>
      <trkpt lat="44.27945" lon="5.78787">
        <ele>574</ele>
        <time>2019-03-19T15:55:04Z</time>
      </trkpt>
      <trkpt lat="44.27947" lon="5.78796">
        <ele>574</ele>
        <time>2019-03-19T15:55:05Z</time>
      </trkpt>
      <trkpt lat="44.2795" lon="5.78805">
        <ele>574</ele>
        <time>2019-03-19T15:55:06Z</time>
      </trkpt>
      <trkpt lat="44.27953" lon="5.78814">
        <ele>574</ele>
        <time>2019-03-19T15:55:07Z</time>
      </trkpt>
      <trkpt lat="44.27955" lon="5.78823">
        <ele>574</ele>
        <time>2019-03-19T15:55:08Z</time>
      </trkpt>
      <trkpt lat="44.27957" lon="5.78832">
        <ele>574</ele>
        <time>2019-03-19T15:55:09Z</time>
      </trkpt>
      <trkpt lat="44.27959" lon="5.78841">
        <ele>574</ele>
        <time>2019-03-19T15:55:10Z</time>
      </trkpt>
      <trkpt lat="44.27961" lon="5.7885">
        <ele>574</ele>
        <time>2019-03-19T15:55:11Z</time>
      </trkpt>
      <trkpt lat="44.27962" lon="5.78859">
        <ele>574</ele>
        <time>2019-03-19T15:55:12Z</time>
      </trkpt>
      <trkpt lat="44.27964" lon="5.78868">
        <ele>574</ele>
        <time>2019-03-19T15:55:13Z</time>
      </trkpt>
      <trkpt lat="44.27964" lon="5.78877">
        <ele>574</ele>
        <time>2019-03-19T15:55:14Z</time>
      </trkpt>
      <trkpt lat="44.27965" lon="5.78886">
        <ele>574</ele>
        <time>2019-03-19T15:55:15Z</time>
      </trkpt>
      <trkpt lat="44.27965" lon="5.78895">
        <ele>574</ele>
        <time>2019-03-19T15:55:16Z</time>
      </trkpt>
      <trkpt lat="44.27965" lon="5.78904">
        <ele>574</ele>
        <time>2019-03-19T15:55:17Z</time>
      </trkpt>
      <trkpt lat="44.27964" lon="5.78913">
        <ele>574</ele>
        <time>2019-03-19T15:55:18Z</time>
      </trkpt>
      <trkpt lat="44.27964" lon="5.78922">
        <ele>574</ele>
        <time>2019-03-19T15:55:19Z</time>
      </trkpt>
      <trkpt lat="44.27962" lon="5.78931">
        <ele>574</ele>
        <time>2019-03-19T15:55:20Z</time>
      </trkpt>
      <trkpt lat="44.27961" lon="5.7894">
        <ele>574</ele>
        <time>2019-03-19T15:55:21Z</time>
      </trkpt>
      <trkpt lat="44.27959" lon="5.78949">
        <ele>574</ele>
        <time>2019-03-19T15:55:22Z</time>
      </trkpt>
      <trkpt lat="44.27956" lon="5.78957">
        <ele>574</ele>
        <time>2019-03-19T15:55:23Z</time>
      </trkpt>
      <trkpt lat="44.27954" lon="5.78965">
        <ele>574</ele>
        <time>2019-03-19T15:55:24Z</time>
      </trkpt>
      <trkpt lat="44.2795" lon="5.78973">
        <ele>574</ele>
        <time>2019-03-19T15:55:25Z</time>
      </trkpt>
      <trkpt lat="44.27946" lon="5.7898">
        <ele>574</ele>
        <time>2019-03-19T15:55:26Z</time>
      </trkpt>
      <trkpt lat="44.27942" lon="5.78986">
        <ele>574</ele>
        <time>2019-03-19T15:55:27Z</time>
      </trkpt>
      <trkpt lat="44.27937" lon="5.78991">
        <ele>574</ele>
        <time>2019-03-19T15:55:28Z</time>
      </trkpt>
      <trkpt lat="44.27932" lon="5.78996">
        <ele>574</ele>
        <time>2019-03-19T15:55:29Z</time>
      </trkpt>
      <trkpt lat="44.27926" lon="5.79">
        <ele>574</ele>
        <time>2019-03-19T15:55:30Z</time>
      </trkpt>
      <trkpt lat="44.27921" lon="5.79004">
        <ele>574</ele>
        <time>2019-03-19T15:55:31Z</time>
      </trkpt>
      <trkpt lat="44.27915" lon="5.79008">
        <ele>574</ele>
        <time>2019-03-19T15:55:32Z</time>
      </trkpt>
      <trkpt lat="44.2791" lon="5.79011">
        <ele>574</ele>
        <time>2019-03-19T15:55:33Z</time>
      </trkpt>
      <trkpt lat="44.27904" lon="5.79015">
        <ele>574</ele>
        <time>2019-03-19T15:55:34Z</time>
      </trkpt>
      <trkpt lat="44.27898" lon="5.79017">
        <ele>574</ele>
        <time>2019-03-19T15:55:35Z</time>
      </trkpt>
      <trkpt lat="44.27892" lon="5.79019">
        <ele>574</ele>
        <time>2019-03-19T15:55:36Z</time>
      </trkpt>
      <trkpt lat="44.27886" lon="5.79019">
        <ele>574</ele>
        <time>2019-03-19T15:55:37Z</time>
      </trkpt>
      <trkpt lat="44.2788" lon="5.79019">
        <ele>574</ele>
        <time>2019-03-19T15:55:38Z</time>
      </trkpt>
      <trkpt lat="44.27874" lon="5.79019">
        <ele>574</ele>
        <time>2019-03-19T15:55:39Z</time>
      </trkpt>
      <trkpt lat="44.27868" lon="5.79018">
        <ele>574</ele>
        <time>2019-03-19T15:55:40Z</time>
      </trkpt>
      <trkpt lat="44.27862" lon="5.79017">
        <ele>574</ele>
        <time>2019-03-19T15:55:41Z</time>
      </trkpt>
      <trkpt lat="44.27856" lon="5.79015">
        <ele>574</ele>
        <time>2019-03-19T15:55:42Z</time>
      </trkpt>
      <trkpt lat="44.27851" lon="5.79013">
        <ele>574</ele>
        <time>2019-03-19T15:55:43Z</time>
      </trkpt>
      <trkpt lat="44.27846" lon="5.7901">
        <ele>574</ele>
        <time>2019-03-19T15:55:44Z</time>
      </trkpt>
      <trkpt lat="44.27841" lon="5.79007">
        <ele>574</ele>
        <time>2019-03-19T15:55:45Z</time>
      </trkpt>
      <trkpt lat="44.27836" lon="5.79003">
        <ele>574</ele>
        <time>2019-03-19T15:55:46Z</time>
      </trkpt>
      <trkpt lat="44.27831" lon="5.79001">
        <ele>574</ele>
        <time>2019-03-19T15:55:47Z</time>
      </trkpt>
      <trkpt lat="44.27826" lon="5.79">
        <ele>574</ele>
        <time>2019-03-19T15:55:48Z</time>
      </trkpt>
      <trkpt lat="44.27821" lon="5.78999">
        <ele>574</ele>
        <time>2019-03-19T15:55:49Z</time>
      </trkpt>
      <trkpt lat="44.27799" lon="5.79012">
        <ele>574</ele>
        <time>2019-03-19T15:55:55Z</time>
      </trkpt>
      <trkpt lat="44.27805" lon="5.79026">
        <ele>573</ele>
        <time>2019-03-19T15:55:56Z</time>
      </trkpt>
      <trkpt lat="44.27809" lon="5.79036">
        <ele>572</ele>
        <time>2019-03-19T15:55:57Z</time>
      </trkpt>
      <trkpt lat="44.27814" lon="5.79044">
        <ele>571</ele>
        <time>2019-03-19T15:55:58Z</time>
      </trkpt>
      <trkpt lat="44.27818" lon="5.79051">
        <ele>570</ele>
        <time>2019-03-19T15:55:59Z</time>
      </trkpt>
      <trkpt lat="44.27821" lon="5.79059">
        <ele>570</ele>
        <time>2019-03-19T15:56:00Z</time>
      </trkpt>
      <trkpt lat="44.27823" lon="5.79069">
        <ele>570</ele>
        <time>2019-03-19T15:56:01Z</time>
      </trkpt>
      <trkpt lat="44.27829" lon="5.79075">
        <ele>570</ele>
        <time>2019-03-19T15:56:02Z</time>
      </trkpt>
      <trkpt lat="44.27834" lon="5.7908">
        <ele>570</ele>
        <time>2019-03-19T15:56:03Z</time>
      </trkpt>
      <trkpt lat="44.27839" lon="5.79086">
        <ele>570</ele>
        <time>2019-03-19T15:56:04Z</time>
      </trkpt>
      <trkpt lat="44.27843" lon="5.79093">
        <ele>570</ele>
        <time>2019-03-19T15:56:05Z</time>
      </trkpt>
      <trkpt lat="44.27847" lon="5.79102">
        <ele>570</ele>
        <time>2019-03-19T15:56:06Z</time>
      </trkpt>
      <trkpt lat="44.27848" lon="5.7911">
        <ele>570</ele>
        <time>2019-03-19T15:56:07Z</time>
      </trkpt>
      <trkpt lat="44.2785" lon="5.7912">
        <ele>570</ele>
        <time>2019-03-19T15:56:08Z</time>
      </trkpt>
      <trkpt lat="44.27854" lon="5.79129">
        <ele>569</ele>
        <time>2019-03-19T15:56:09Z</time>
      </trkpt>
      <trkpt lat="44.27858" lon="5.79138">
        <ele>569</ele>
        <time>2019-03-19T15:56:10Z</time>
      </trkpt>
      <trkpt lat="44.27863" lon="5.79146">
        <ele>568</ele>
        <time>2019-03-19T15:56:11Z</time>
      </trkpt>
      <trkpt lat="44.27866" lon="5.79156">
        <ele>568</ele>
        <time>2019-03-19T15:56:12Z</time>
      </trkpt>
      <trkpt lat="44.27868" lon="5.79168">
        <ele>568</ele>
        <time>2019-03-19T15:56:13Z</time>
      </trkpt>
      <trkpt lat="44.27868" lon="5.79179">
        <ele>568</ele>
        <time>2019-03-19T15:56:14Z</time>
      </trkpt>
      <trkpt lat="44.2787" lon="5.79187">
        <ele>568</ele>
        <time>2019-03-19T15:56:15Z</time>
      </trkpt>
      <trkpt lat="44.27869" lon="5.792">
        <ele>567</ele>
        <time>2019-03-19T15:56:16Z</time>
      </trkpt>
      <trkpt lat="44.27866" lon="5.79212">
        <ele>567</ele>
        <time>2019-03-19T15:56:17Z</time>
      </trkpt>
      <trkpt lat="44.27863" lon="5.79223">
        <ele>567</ele>
        <time>2019-03-19T15:56:18Z</time>
      </trkpt>
      <trkpt lat="44.27859" lon="5.79234">
        <ele>567</ele>
        <time>2019-03-19T15:56:19Z</time>
      </trkpt>
      <trkpt lat="44.27854" lon="5.79243">
        <ele>567</ele>
        <time>2019-03-19T15:56:20Z</time>
      </trkpt>
      <trkpt lat="44.27849" lon="5.79253">
        <ele>567</ele>
        <time>2019-03-19T15:56:21Z</time>
      </trkpt>
      <trkpt lat="44.27844" lon="5.79263">
        <ele>567</ele>
        <time>2019-03-19T15:56:22Z</time>
      </trkpt>
      <trkpt lat="44.27839" lon="5.79273">
        <ele>567</ele>
        <time>2019-03-19T15:56:23Z</time>
      </trkpt>
      <trkpt lat="44.27834" lon="5.79283">
        <ele>567</ele>
        <time>2019-03-19T15:56:24Z</time>
      </trkpt>
      <trkpt lat="44.2783" lon="5.79292">
        <ele>567</ele>
        <time>2019-03-19T15:56:25Z</time>
      </trkpt>
      <trkpt lat="44.27826" lon="5.79301">
        <ele>567</ele>
        <time>2019-03-19T15:56:26Z</time>
      </trkpt>
      <trkpt lat="44.27821" lon="5.7931">
        <ele>567</ele>
        <time>2019-03-19T15:56:27Z</time>
      </trkpt>
      <trkpt lat="44.27816" lon="5.79318">
        <ele>567</ele>
        <time>2019-03-19T15:56:28Z</time>
      </trkpt>
      <trkpt lat="44.27809" lon="5.79326">
        <ele>567</ele>
        <time>2019-03-19T15:56:29Z</time>
      </trkpt>
      <trkpt lat="44.27801" lon="5.79331">
        <ele>567</ele>
        <time>2019-03-19T15:56:30Z</time>
      </trkpt>
      <trkpt lat="44.27793" lon="5.79334">
        <ele>567</ele>
        <time>2019-03-19T15:56:31Z</time>
      </trkpt>
      <trkpt lat="44.27785" lon="5.79335">
        <ele>567</ele>
        <time>2019-03-19T15:56:32Z</time>
      </trkpt>
      <trkpt lat="44.27776" lon="5.79336">
        <ele>567</ele>
        <time>2019-03-19T15:56:33Z</time>
      </trkpt>
      <trkpt lat="44.27769" lon="5.79338">
        <ele>567</ele>
        <time>2019-03-19T15:56:34Z</time>
      </trkpt>
      <trkpt lat="44.27761" lon="5.79341">
        <ele>567</ele>
        <time>2019-03-19T15:56:35Z</time>
      </trkpt>
      <trkpt lat="44.27755" lon="5.79345">
        <ele>567</ele>
        <time>2019-03-19T15:56:36Z</time>
      </trkpt>
      <trkpt lat="44.27747" lon="5.7935">
        <ele>567</ele>
        <time>2019-03-19T15:56:37Z</time>
      </trkpt>
      <trkpt lat="44.27741" lon="5.79357">
        <ele>567</ele>
        <time>2019-03-19T15:56:38Z</time>
      </trkpt>
      <trkpt lat="44.27735" lon="5.79366">
        <ele>567</ele>
        <time>2019-03-19T15:56:39Z</time>
      </trkpt>
      <trkpt lat="44.2773" lon="5.79375">
        <ele>567</ele>
        <time>2019-03-19T15:56:40Z</time>
      </trkpt>
      <trkpt lat="44.27725" lon="5.79384">
        <ele>567</ele>
        <time>2019-03-19T15:56:41Z</time>
      </trkpt>
      <trkpt lat="44.2772" lon="5.79393">
        <ele>567</ele>
        <time>2019-03-19T15:56:42Z</time>
      </trkpt>
      <trkpt lat="44.27715" lon="5.79404">
        <ele>567</ele>
        <time>2019-03-19T15:56:43Z</time>
      </trkpt>
      <trkpt lat="44.2771" lon="5.79415">
        <ele>567</ele>
        <time>2019-03-19T15:56:44Z</time>
      </trkpt>
      <trkpt lat="44.27705" lon="5.79427">
        <ele>567</ele>
        <time>2019-03-19T15:56:45Z</time>
      </trkpt>
      <trkpt lat="44.27701" lon="5.79438">
        <ele>567</ele>
        <time>2019-03-19T15:56:46Z</time>
      </trkpt>
      <trkpt lat="44.27698" lon="5.79451">
        <ele>567</ele>
        <time>2019-03-19T15:56:47Z</time>
      </trkpt>
      <trkpt lat="44.27695" lon="5.79463">
        <ele>567</ele>
        <time>2019-03-19T15:56:48Z</time>
      </trkpt>
      <trkpt lat="44.27692" lon="5.79474">
        <ele>567</ele>
        <time>2019-03-19T15:56:49Z</time>
      </trkpt>
      <trkpt lat="44.2769" lon="5.79486">
        <ele>567</ele>
        <time>2019-03-19T15:56:50Z</time>
      </trkpt>
      <trkpt lat="44.27688" lon="5.79499">
        <ele>567</ele>
        <time>2019-03-19T15:56:51Z</time>
      </trkpt>
      <trkpt lat="44.27686" lon="5.79512">
        <ele>567</ele>
        <time>2019-03-19T15:56:52Z</time>
      </trkpt>
      <trkpt lat="44.27684" lon="5.79524">
        <ele>567</ele>
        <time>2019-03-19T15:56:53Z</time>
      </trkpt>
      <trkpt lat="44.27683" lon="5.79537">
        <ele>567</ele>
        <time>2019-03-19T15:56:54Z</time>
      </trkpt>
      <trkpt lat="44.27681" lon="5.7955">
        <ele>567</ele>
        <time>2019-03-19T15:56:55Z</time>
      </trkpt>
      <trkpt lat="44.27679" lon="5.79563">
        <ele>567</ele>
        <time>2019-03-19T15:56:56Z</time>
      </trkpt>
      <trkpt lat="44.27678" lon="5.79576">
        <ele>566</ele>
        <time>2019-03-19T15:56:57Z</time>
      </trkpt>
      <trkpt lat="44.27677" lon="5.79589">
        <ele>565</ele>
        <time>2019-03-19T15:56:58Z</time>
      </trkpt>
      <trkpt lat="44.27676" lon="5.79602">
        <ele>565</ele>
        <time>2019-03-19T15:56:59Z</time>
      </trkpt>
      <trkpt lat="44.27675" lon="5.79614">
        <ele>564</ele>
        <time>2019-03-19T15:57:00Z</time>
      </trkpt>
      <trkpt lat="44.27673" lon="5.79627">
        <ele>563</ele>
        <time>2019-03-19T15:57:01Z</time>
      </trkpt>
      <trkpt lat="44.27673" lon="5.7964">
        <ele>563</ele>
        <time>2019-03-19T15:57:02Z</time>
      </trkpt>
      <trkpt lat="44.27673" lon="5.79653">
        <ele>562</ele>
        <time>2019-03-19T15:57:03Z</time>
      </trkpt>
      <trkpt lat="44.27672" lon="5.79665">
        <ele>562</ele>
        <time>2019-03-19T15:57:04Z</time>
      </trkpt>
      <trkpt lat="44.27672" lon="5.79679">
        <ele>562</ele>
        <time>2019-03-19T15:57:05Z</time>
      </trkpt>
      <trkpt lat="44.27672" lon="5.79692">
        <ele>561</ele>
        <time>2019-03-19T15:57:06Z</time>
      </trkpt>
      <trkpt lat="44.27671" lon="5.79705">
        <ele>561</ele>
        <time>2019-03-19T15:57:07Z</time>
      </trkpt>
      <trkpt lat="44.27672" lon="5.79718">
        <ele>561</ele>
        <time>2019-03-19T15:57:08Z</time>
      </trkpt>
      <trkpt lat="44.27672" lon="5.79731">
        <ele>561</ele>
        <time>2019-03-19T15:57:09Z</time>
      </trkpt>
      <trkpt lat="44.27672" lon="5.79744">
        <ele>561</ele>
        <time>2019-03-19T15:57:10Z</time>
      </trkpt>
      <trkpt lat="44.2767" lon="5.79756">
        <ele>561</ele>
        <time>2019-03-19T15:57:11Z</time>
      </trkpt>
      <trkpt lat="44.27667" lon="5.79767">
        <ele>561</ele>
        <time>2019-03-19T15:57:12Z</time>
      </trkpt>
      <trkpt lat="44.27662" lon="5.7978">
        <ele>561</ele>
        <time>2019-03-19T15:57:13Z</time>
      </trkpt>
      <trkpt lat="44.27658" lon="5.79791">
        <ele>561</ele>
        <time>2019-03-19T15:57:14Z</time>
      </trkpt>
      <trkpt lat="44.27656" lon="5.79801">
        <ele>561</ele>
        <time>2019-03-19T15:57:15Z</time>
      </trkpt>
      <trkpt lat="44.27653" lon="5.79812">
        <ele>561</ele>
        <time>2019-03-19T15:57:16Z</time>
      </trkpt>
      <trkpt lat="44.2765" lon="5.79823">
        <ele>561</ele>
        <time>2019-03-19T15:57:17Z</time>
      </trkpt>
      <trkpt lat="44.27647" lon="5.79834">
        <ele>561</ele>
        <time>2019-03-19T15:57:18Z</time>
      </trkpt>
      <trkpt lat="44.27644" lon="5.79844">
        <ele>561</ele>
        <time>2019-03-19T15:57:19Z</time>
      </trkpt>
      <trkpt lat="44.27641" lon="5.79855">
        <ele>561</ele>
        <time>2019-03-19T15:57:20Z</time>
      </trkpt>
      <trkpt lat="44.27637" lon="5.79865">
        <ele>561</ele>
        <time>2019-03-19T15:57:21Z</time>
      </trkpt>
      <trkpt lat="44.27634" lon="5.79876">
        <ele>561</ele>
        <time>2019-03-19T15:57:22Z</time>
      </trkpt>
      <trkpt lat="44.27631" lon="5.79887">
        <ele>561</ele>
        <time>2019-03-19T15:57:23Z</time>
      </trkpt>
      <trkpt lat="44.27629" lon="5.79899">
        <ele>561</ele>
        <time>2019-03-19T15:57:24Z</time>
      </trkpt>
      <trkpt lat="44.27627" lon="5.79912">
        <ele>561</ele>
        <time>2019-03-19T15:57:25Z</time>
      </trkpt>
      <trkpt lat="44.27624" lon="5.79924">
        <ele>561</ele>
        <time>2019-03-19T15:57:26Z</time>
      </trkpt>
      <trkpt lat="44.27621" lon="5.79936">
        <ele>561</ele>
        <time>2019-03-19T15:57:27Z</time>
      </trkpt>
      <trkpt lat="44.27619" lon="5.79949">
        <ele>561</ele>
        <time>2019-03-19T15:57:28Z</time>
      </trkpt>
      <trkpt lat="44.27616" lon="5.79961">
        <ele>560</ele>
        <time>2019-03-19T15:57:29Z</time>
      </trkpt>
      <trkpt lat="44.27613" lon="5.79972">
        <ele>560</ele>
        <time>2019-03-19T15:57:30Z</time>
      </trkpt>
      <trkpt lat="44.27609" lon="5.79982">
        <ele>559</ele>
        <time>2019-03-19T15:57:31Z</time>
      </trkpt>
      <trkpt lat="44.27605" lon="5.79992">
        <ele>559</ele>
        <time>2019-03-19T15:57:32Z</time>
      </trkpt>
      <trkpt lat="44.27602" lon="5.80002">
        <ele>559</ele>
        <time>2019-03-19T15:57:33Z</time>
      </trkpt>
      <trkpt lat="44.27598" lon="5.80013">
        <ele>559</ele>
        <time>2019-03-19T15:57:34Z</time>
      </trkpt>
      <trkpt lat="44.27593" lon="5.80023">
        <ele>559</ele>
        <time>2019-03-19T15:57:35Z</time>
      </trkpt>
      <trkpt lat="44.27589" lon="5.80033">
        <ele>559</ele>
        <time>2019-03-19T15:57:36Z</time>
      </trkpt>
      <trkpt lat="44.27583" lon="5.80044">
        <ele>559</ele>
        <time>2019-03-19T15:57:37Z</time>
      </trkpt>
      <trkpt lat="44.27578" lon="5.80054">
        <ele>559</ele>
        <time>2019-03-19T15:57:38Z</time>
      </trkpt>
      <trkpt lat="44.27573" lon="5.80064">
        <ele>559</ele>
        <time>2019-03-19T15:57:39Z</time>
      </trkpt>
      <trkpt lat="44.27568" lon="5.80075">
        <ele>559</ele>
        <time>2019-03-19T15:57:40Z</time>
      </trkpt>
      <trkpt lat="44.27564" lon="5.80085">
        <ele>559</ele>
        <time>2019-03-19T15:57:41Z</time>
      </trkpt>
      <trkpt lat="44.27559" lon="5.80096">
        <ele>558</ele>
        <time>2019-03-19T15:57:42Z</time>
      </trkpt>
      <trkpt lat="44.27554" lon="5.80107">
        <ele>558</ele>
        <time>2019-03-19T15:57:43Z</time>
      </trkpt>
      <trkpt lat="44.27548" lon="5.80118">
        <ele>558</ele>
        <time>2019-03-19T15:57:44Z</time>
      </trkpt>
      <trkpt lat="44.27543" lon="5.80128">
        <ele>558</ele>
        <time>2019-03-19T15:57:45Z</time>
      </trkpt>
      <trkpt lat="44.27536" lon="5.80139">
        <ele>558</ele>
        <time>2019-03-19T15:57:46Z</time>
      </trkpt>
      <trkpt lat="44.2753" lon="5.80149">
        <ele>558</ele>
        <time>2019-03-19T15:57:47Z</time>
      </trkpt>
      <trkpt lat="44.27523" lon="5.8016">
        <ele>558</ele>
        <time>2019-03-19T15:57:48Z</time>
      </trkpt>
      <trkpt lat="44.27516" lon="5.80171">
        <ele>558</ele>
        <time>2019-03-19T15:57:49Z</time>
      </trkpt>
      <trkpt lat="44.2751" lon="5.80182">
        <ele>558</ele>
        <time>2019-03-19T15:57:50Z</time>
      </trkpt>
      <trkpt lat="44.27503" lon="5.80192">
        <ele>557</ele>
        <time>2019-03-19T15:57:51Z</time>
      </trkpt>
      <trkpt lat="44.27496" lon="5.80204">
        <ele>557</ele>
        <time>2019-03-19T15:57:52Z</time>
      </trkpt>
      <trkpt lat="44.27489" lon="5.80215">
        <ele>557</ele>
        <time>2019-03-19T15:57:53Z</time>
      </trkpt>
      <trkpt lat="44.27482" lon="5.80226">
        <ele>557</ele>
        <time>2019-03-19T15:57:54Z</time>
      </trkpt>
      <trkpt lat="44.27476" lon="5.80237">
        <ele>556</ele>
        <time>2019-03-19T15:57:55Z</time>
      </trkpt>
      <trkpt lat="44.27471" lon="5.80249">
        <ele>556</ele>
        <time>2019-03-19T15:57:56Z</time>
      </trkpt>
      <trkpt lat="44.27466" lon="5.80262">
        <ele>556</ele>
        <time>2019-03-19T15:57:57Z</time>
      </trkpt>
      <trkpt lat="44.27461" lon="5.80274">
        <ele>556</ele>
        <time>2019-03-19T15:57:58Z</time>
      </trkpt>
      <trkpt lat="44.27456" lon="5.80286">
        <ele>556</ele>
        <time>2019-03-19T15:57:59Z</time>
      </trkpt>
      <trkpt lat="44.27451" lon="5.80298">
        <ele>555</ele>
        <time>2019-03-19T15:58:00Z</time>
      </trkpt>
      <trkpt lat="44.27446" lon="5.80311">
        <ele>555</ele>
        <time>2019-03-19T15:58:01Z</time>
      </trkpt>
      <trkpt lat="44.27441" lon="5.80324">
        <ele>554</ele>
        <time>2019-03-19T15:58:02Z</time>
      </trkpt>
      <trkpt lat="44.27437" lon="5.80337">
        <ele>553</ele>
        <time>2019-03-19T15:58:03Z</time>
      </trkpt>
      <trkpt lat="44.27433" lon="5.8035">
        <ele>553</ele>
        <time>2019-03-19T15:58:04Z</time>
      </trkpt>
      <trkpt lat="44.27428" lon="5.80364">
        <ele>552</ele>
        <time>2019-03-19T15:58:05Z</time>
      </trkpt>
      <trkpt lat="44.27425" lon="5.80377">
        <ele>552</ele>
        <time>2019-03-19T15:58:06Z</time>
      </trkpt>
      <trkpt lat="44.27421" lon="5.80391">
        <ele>552</ele>
        <time>2019-03-19T15:58:07Z</time>
      </trkpt>
      <trkpt lat="44.27417" lon="5.80404">
        <ele>551</ele>
        <time>2019-03-19T15:58:08Z</time>
      </trkpt>
      <trkpt lat="44.27413" lon="5.80416">
        <ele>551</ele>
        <time>2019-03-19T15:58:09Z</time>
      </trkpt>
      <trkpt lat="44.27409" lon="5.80429">
        <ele>550</ele>
        <time>2019-03-19T15:58:10Z</time>
      </trkpt>
      <trkpt lat="44.27405" lon="5.80441">
        <ele>550</ele>
        <time>2019-03-19T15:58:11Z</time>
      </trkpt>
      <trkpt lat="44.27401" lon="5.80452">
        <ele>550</ele>
        <time>2019-03-19T15:58:12Z</time>
      </trkpt>
      <trkpt lat="44.27396" lon="5.80463">
        <ele>549</ele>
        <time>2019-03-19T15:58:13Z</time>
      </trkpt>
      <trkpt lat="44.27391" lon="5.80474">
        <ele>549</ele>
        <time>2019-03-19T15:58:14Z</time>
      </trkpt>
      <trkpt lat="44.27386" lon="5.80484">
        <ele>549</ele>
        <time>2019-03-19T15:58:15Z</time>
      </trkpt>
      <trkpt lat="44.27381" lon="5.80495">
        <ele>549</ele>
        <time>2019-03-19T15:58:16Z</time>
      </trkpt>
      <trkpt lat="44.27376" lon="5.80505">
        <ele>549</ele>
        <time>2019-03-19T15:58:17Z</time>
      </trkpt>
      <trkpt lat="44.27371" lon="5.80515">
        <ele>549</ele>
        <time>2019-03-19T15:58:18Z</time>
      </trkpt>
      <trkpt lat="44.27366" lon="5.80524">
        <ele>549</ele>
        <time>2019-03-19T15:58:19Z</time>
      </trkpt>
      <trkpt lat="44.27361" lon="5.80533">
        <ele>549</ele>
        <time>2019-03-19T15:58:20Z</time>
      </trkpt>
      <trkpt lat="44.27356" lon="5.80543">
        <ele>549</ele>
        <time>2019-03-19T15:58:21Z</time>
      </trkpt>
      <trkpt lat="44.27351" lon="5.80552">
        <ele>549</ele>
        <time>2019-03-19T15:58:22Z</time>
      </trkpt>
      <trkpt lat="44.27346" lon="5.80561">
        <ele>549</ele>
        <time>2019-03-19T15:58:23Z</time>
      </trkpt>
      <trkpt lat="44.27341" lon="5.8057">
        <ele>549</ele>
        <time>2019-03-19T15:58:24Z</time>
      </trkpt>
      <trkpt lat="44.27337" lon="5.80579">
        <ele>549</ele>
        <time>2019-03-19T15:58:25Z</time>
      </trkpt>
      <trkpt lat="44.27332" lon="5.80589">
        <ele>549</ele>
        <time>2019-03-19T15:58:26Z</time>
      </trkpt>
      <trkpt lat="44.27329" lon="5.806">
        <ele>549</ele>
        <time>2019-03-19T15:58:27Z</time>
      </trkpt>
      <trkpt lat="44.27327" lon="5.80612">
        <ele>549</ele>
        <time>2019-03-19T15:58:28Z</time>
      </trkpt>
      <trkpt lat="44.27325" lon="5.80623">
        <ele>549</ele>
        <time>2019-03-19T15:58:29Z</time>
      </trkpt>
      <trkpt lat="44.27325" lon="5.80635">
        <ele>549</ele>
        <time>2019-03-19T15:58:30Z</time>
      </trkpt>
      <trkpt lat="44.27326" lon="5.80647">
        <ele>549</ele>
        <time>2019-03-19T15:58:31Z</time>
      </trkpt>
      <trkpt lat="44.27327" lon="5.80659">
        <ele>549</ele>
        <time>2019-03-19T15:58:32Z</time>
      </trkpt>
      <trkpt lat="44.27327" lon="5.80671">
        <ele>549</ele>
        <time>2019-03-19T15:58:33Z</time>
      </trkpt>
      <trkpt lat="44.27325" lon="5.80683">
        <ele>549</ele>
        <time>2019-03-19T15:58:34Z</time>
      </trkpt>
      <trkpt lat="44.27321" lon="5.80694">
        <ele>548</ele>
        <time>2019-03-19T15:58:35Z</time>
      </trkpt>
      <trkpt lat="44.27316" lon="5.80704">
        <ele>548</ele>
        <time>2019-03-19T15:58:36Z</time>
      </trkpt>
      <trkpt lat="44.27311" lon="5.80713">
        <ele>547</ele>
        <time>2019-03-19T15:58:37Z</time>
      </trkpt>
      <trkpt lat="44.27306" lon="5.80722">
        <ele>547</ele>
        <time>2019-03-19T15:58:38Z</time>
      </trkpt>
      <trkpt lat="44.27301" lon="5.80732">
        <ele>547</ele>
        <time>2019-03-19T15:58:39Z</time>
      </trkpt>
      <trkpt lat="44.27296" lon="5.80742">
        <ele>546</ele>
        <time>2019-03-19T15:58:40Z</time>
      </trkpt>
      <trkpt lat="44.27292" lon="5.80752">
        <ele>546</ele>
        <time>2019-03-19T15:58:41Z</time>
      </trkpt>
      <trkpt lat="44.27289" lon="5.80762">
        <ele>546</ele>
        <time>2019-03-19T15:58:42Z</time>
      </trkpt>
      <trkpt lat="44.27285" lon="5.80772">
        <ele>545</ele>
        <time>2019-03-19T15:58:43Z</time>
      </trkpt>
      <trkpt lat="44.27282" lon="5.80782">
        <ele>545</ele>
        <time>2019-03-19T15:58:44Z</time>
      </trkpt>
      <trkpt lat="44.27279" lon="5.80792">
        <ele>545</ele>
        <time>2019-03-19T15:58:45Z</time>
      </trkpt>
      <trkpt lat="44.27276" lon="5.80801">
        <ele>545</ele>
        <time>2019-03-19T15:58:46Z</time>
      </trkpt>
      <trkpt lat="44.27273" lon="5.80811">
        <ele>544</ele>
        <time>2019-03-19T15:58:47Z</time>
      </trkpt>
      <trkpt lat="44.2727" lon="5.8082">
        <ele>544</ele>
        <time>2019-03-19T15:58:48Z</time>
      </trkpt>
      <trkpt lat="44.27267" lon="5.8083">
        <ele>544</ele>
        <time>2019-03-19T15:58:49Z</time>
      </trkpt>
      <trkpt lat="44.27264" lon="5.8084">
        <ele>544</ele>
        <time>2019-03-19T15:58:50Z</time>
      </trkpt>
      <trkpt lat="44.27261" lon="5.8085">
        <ele>543</ele>
        <time>2019-03-19T15:58:51Z</time>
      </trkpt>
      <trkpt lat="44.27259" lon="5.80861">
        <ele>543</ele>
        <time>2019-03-19T15:58:52Z</time>
      </trkpt>
      <trkpt lat="44.27256" lon="5.80871">
        <ele>543</ele>
        <time>2019-03-19T15:58:53Z</time>
      </trkpt>
      <trkpt lat="44.27253" lon="5.80882">
        <ele>543</ele>
        <time>2019-03-19T15:58:54Z</time>
      </trkpt>
      <trkpt lat="44.27251" lon="5.80893">
        <ele>543</ele>
        <time>2019-03-19T15:58:55Z</time>
      </trkpt>
      <trkpt lat="44.27248" lon="5.80903">
        <ele>542</ele>
        <time>2019-03-19T15:58:56Z</time>
      </trkpt>
      <trkpt lat="44.27246" lon="5.80914">
        <ele>542</ele>
        <time>2019-03-19T15:58:57Z</time>
      </trkpt>
      <trkpt lat="44.27243" lon="5.80924">
        <ele>542</ele>
        <time>2019-03-19T15:58:58Z</time>
      </trkpt>
      <trkpt lat="44.27241" lon="5.80935">
        <ele>542</ele>
        <time>2019-03-19T15:58:59Z</time>
      </trkpt>
      <trkpt lat="44.27239" lon="5.80946">
        <ele>541</ele>
        <time>2019-03-19T15:59:00Z</time>
      </trkpt>
      <trkpt lat="44.27236" lon="5.80956">
        <ele>541</ele>
        <time>2019-03-19T15:59:01Z</time>
      </trkpt>
      <trkpt lat="44.27234" lon="5.80966">
        <ele>541</ele>
        <time>2019-03-19T15:59:02Z</time>
      </trkpt>
      <trkpt lat="44.27232" lon="5.80975">
        <ele>541</ele>
        <time>2019-03-19T15:59:03Z</time>
      </trkpt>
      <trkpt lat="44.2723" lon="5.80984">
        <ele>541</ele>
        <time>2019-03-19T15:59:04Z</time>
      </trkpt>
      <trkpt lat="44.27228" lon="5.80993">
        <ele>541</ele>
        <time>2019-03-19T15:59:05Z</time>
      </trkpt>
      <trkpt lat="44.27226" lon="5.81002">
        <ele>540</ele>
        <time>2019-03-19T15:59:06Z</time>
      </trkpt>
      <trkpt lat="44.27225" lon="5.8101">
        <ele>540</ele>
        <time>2019-03-19T15:59:07Z</time>
      </trkpt>
      <trkpt lat="44.27223" lon="5.81018">
        <ele>540</ele>
        <time>2019-03-19T15:59:08Z</time>
      </trkpt>
      <trkpt lat="44.27222" lon="5.81026">
        <ele>540</ele>
        <time>2019-03-19T15:59:09Z</time>
      </trkpt>
      <trkpt lat="44.27221" lon="5.81034">
        <ele>540</ele>
        <time>2019-03-19T15:59:10Z</time>
      </trkpt>
      <trkpt lat="44.2722" lon="5.81041">
        <ele>540</ele>
        <time>2019-03-19T15:59:11Z</time>
      </trkpt>
      <trkpt lat="44.27219" lon="5.81049">
        <ele>540</ele>
        <time>2019-03-19T15:59:12Z</time>
      </trkpt>
      <trkpt lat="44.27219" lon="5.81057">
        <ele>540</ele>
        <time>2019-03-19T15:59:13Z</time>
      </trkpt>
      <trkpt lat="44.27218" lon="5.81065">
        <ele>540</ele>
        <time>2019-03-19T15:59:14Z</time>
      </trkpt>
      <trkpt lat="44.27217" lon="5.81073">
        <ele>540</ele>
        <time>2019-03-19T15:59:15Z</time>
      </trkpt>
      <trkpt lat="44.27217" lon="5.8108">
        <ele>540</ele>
        <time>2019-03-19T15:59:16Z</time>
      </trkpt>
      <trkpt lat="44.27218" lon="5.81087">
        <ele>540</ele>
        <time>2019-03-19T15:59:17Z</time>
      </trkpt>
      <trkpt lat="44.27219" lon="5.81094">
        <ele>540</ele>
        <time>2019-03-19T15:59:18Z</time>
      </trkpt>
      <trkpt lat="44.27219" lon="5.81101">
        <ele>540</ele>
        <time>2019-03-19T15:59:19Z</time>
      </trkpt>
      <trkpt lat="44.2722" lon="5.81107">
        <ele>540</ele>
        <time>2019-03-19T15:59:20Z</time>
      </trkpt>
      <trkpt lat="44.2722" lon="5.81114">
        <ele>540</ele>
        <time>2019-03-19T15:59:21Z</time>
      </trkpt>
      <trkpt lat="44.27221" lon="5.8112">
        <ele>540</ele>
        <time>2019-03-19T15:59:22Z</time>
      </trkpt>
      <trkpt lat="44.27221" lon="5.81125">
        <ele>540</ele>
        <time>2019-03-19T15:59:23Z</time>
      </trkpt>
      <trkpt lat="44.27222" lon="5.81131">
        <ele>540</ele>
        <time>2019-03-19T15:59:24Z</time>
      </trkpt>
      <trkpt lat="44.27222" lon="5.81136">
        <ele>540</ele>
        <time>2019-03-19T15:59:25Z</time>
      </trkpt>
      <trkpt lat="44.27223" lon="5.81142">
        <ele>540</ele>
        <time>2019-03-19T15:59:26Z</time>
      </trkpt>
      <trkpt lat="44.27223" lon="5.81147">
        <ele>540</ele>
        <time>2019-03-19T15:59:27Z</time>
      </trkpt>
      <trkpt lat="44.27224" lon="5.81152">
        <ele>540</ele>
        <time>2019-03-19T15:59:28Z</time>
      </trkpt>
      <trkpt lat="44.27226" lon="5.81157">
        <ele>540</ele>
        <time>2019-03-19T15:59:29Z</time>
      </trkpt>
      <trkpt lat="44.27229" lon="5.81161">
        <ele>540</ele>
        <time>2019-03-19T15:59:30Z</time>
      </trkpt>
      <trkpt lat="44.27232" lon="5.81165">
        <ele>540</ele>
        <time>2019-03-19T15:59:31Z</time>
      </trkpt>
      <trkpt lat="44.27235" lon="5.81168">
        <ele>540</ele>
        <time>2019-03-19T15:59:32Z</time>
      </trkpt>
      <trkpt lat="44.27238" lon="5.81171">
        <ele>540</ele>
        <time>2019-03-19T15:59:33Z</time>
      </trkpt>
      <trkpt lat="44.27242" lon="5.81174">
        <ele>540</ele>
        <time>2019-03-19T15:59:34Z</time>
      </trkpt>
      <trkpt lat="44.27245" lon="5.81177">
        <ele>540</ele>
        <time>2019-03-19T15:59:35Z</time>
      </trkpt>
      <trkpt lat="44.27249" lon="5.8118">
        <ele>540</ele>
        <time>2019-03-19T15:59:36Z</time>
      </trkpt>
      <trkpt lat="44.27253" lon="5.81184">
        <ele>540</ele>
        <time>2019-03-19T15:59:37Z</time>
      </trkpt>
      <trkpt lat="44.27256" lon="5.81187">
        <ele>540</ele>
        <time>2019-03-19T15:59:38Z</time>
      </trkpt>
      <trkpt lat="44.2726" lon="5.81191">
        <ele>540</ele>
        <time>2019-03-19T15:59:39Z</time>
      </trkpt>
      <trkpt lat="44.27264" lon="5.81194">
        <ele>540</ele>
        <time>2019-03-19T15:59:40Z</time>
      </trkpt>
      <trkpt lat="44.27267" lon="5.81198">
        <ele>540</ele>
        <time>2019-03-19T15:59:41Z</time>
      </trkpt>
      <trkpt lat="44.27271" lon="5.81201">
        <ele>540</ele>
        <time>2019-03-19T15:59:42Z</time>
      </trkpt>
      <trkpt lat="44.27274" lon="5.81205">
        <ele>540</ele>
        <time>2019-03-19T15:59:43Z</time>
      </trkpt>
      <trkpt lat="44.27277" lon="5.81209">
        <ele>540</ele>
        <time>2019-03-19T15:59:44Z</time>
      </trkpt>
      <trkpt lat="44.2728" lon="5.81213">
        <ele>540</ele>
        <time>2019-03-19T15:59:45Z</time>
      </trkpt>
      <trkpt lat="44.27284" lon="5.81217">
        <ele>540</ele>
        <time>2019-03-19T15:59:46Z</time>
      </trkpt>
      <trkpt lat="44.27288" lon="5.81222">
        <ele>540</ele>
        <time>2019-03-19T15:59:47Z</time>
      </trkpt>
      <trkpt lat="44.27291" lon="5.81227">
        <ele>540</ele>
        <time>2019-03-19T15:59:48Z</time>
      </trkpt>
      <trkpt lat="44.27294" lon="5.81233">
        <ele>540</ele>
        <time>2019-03-19T15:59:49Z</time>
      </trkpt>
      <trkpt lat="44.27298" lon="5.81238">
        <ele>540</ele>
        <time>2019-03-19T15:59:50Z</time>
      </trkpt>
      <trkpt lat="44.27301" lon="5.81244">
        <ele>540</ele>
        <time>2019-03-19T15:59:51Z</time>
      </trkpt>
      <trkpt lat="44.27305" lon="5.8125">
        <ele>540</ele>
        <time>2019-03-19T15:59:52Z</time>
      </trkpt>
      <trkpt lat="44.27309" lon="5.81256">
        <ele>540</ele>
        <time>2019-03-19T15:59:53Z</time>
      </trkpt>
      <trkpt lat="44.27312" lon="5.81262">
        <ele>540</ele>
        <time>2019-03-19T15:59:54Z</time>
      </trkpt>
      <trkpt lat="44.27316" lon="5.81267">
        <ele>540</ele>
        <time>2019-03-19T15:59:55Z</time>
      </trkpt>
      <trkpt lat="44.2732" lon="5.81273">
        <ele>540</ele>
        <time>2019-03-19T15:59:56Z</time>
      </trkpt>
      <trkpt lat="44.27324" lon="5.81279">
        <ele>540</ele>
        <time>2019-03-19T15:59:57Z</time>
      </trkpt>
      <trkpt lat="44.27328" lon="5.81284">
        <ele>540</ele>
        <time>2019-03-19T15:59:58Z</time>
      </trkpt>
      <trkpt lat="44.27332" lon="5.8129">
        <ele>540</ele>
        <time>2019-03-19T15:59:59Z</time>
      </trkpt>
      <trkpt lat="44.27336" lon="5.81295">
        <ele>540</ele>
        <time>2019-03-19T16:00:00Z</time>
      </trkpt>
      <trkpt lat="44.27341" lon="5.81299">
        <ele>540</ele>
        <time>2019-03-19T16:00:01Z</time>
      </trkpt>
      <trkpt lat="44.27345" lon="5.81304">
        <ele>540</ele>
        <time>2019-03-19T16:00:02Z</time>
      </trkpt>
      <trkpt lat="44.2735" lon="5.81308">
        <ele>540</ele>
        <time>2019-03-19T16:00:03Z</time>
      </trkpt>
      <trkpt lat="44.27354" lon="5.81312">
        <ele>540</ele>
        <time>2019-03-19T16:00:04Z</time>
      </trkpt>
      <trkpt lat="44.27359" lon="5.81315">
        <ele>540</ele>
        <time>2019-03-19T16:00:05Z</time>
      </trkpt>
      <trkpt lat="44.27364" lon="5.81319">
        <ele>540</ele>
        <time>2019-03-19T16:00:06Z</time>
      </trkpt>
      <trkpt lat="44.27369" lon="5.81322">
        <ele>540</ele>
        <time>2019-03-19T16:00:07Z</time>
      </trkpt>
      <trkpt lat="44.27374" lon="5.81325">
        <ele>540</ele>
        <time>2019-03-19T16:00:08Z</time>
      </trkpt>
      <trkpt lat="44.27378" lon="5.81328">
        <ele>540</ele>
        <time>2019-03-19T16:00:09Z</time>
      </trkpt>
      <trkpt lat="44.27383" lon="5.81332">
        <ele>540</ele>
        <time>2019-03-19T16:00:10Z</time>
      </trkpt>
      <trkpt lat="44.27389" lon="5.81336">
        <ele>540</ele>
        <time>2019-03-19T16:00:11Z</time>
      </trkpt>
      <trkpt lat="44.27394" lon="5.81339">
        <ele>540</ele>
        <time>2019-03-19T16:00:12Z</time>
      </trkpt>
      <trkpt lat="44.27399" lon="5.81342">
        <ele>540</ele>
        <time>2019-03-19T16:00:13Z</time>
      </trkpt>
      <trkpt lat="44.27405" lon="5.81345">
        <ele>540</ele>
        <time>2019-03-19T16:00:14Z</time>
      </trkpt>
      <trkpt lat="44.2741" lon="5.81348">
        <ele>540</ele>
        <time>2019-03-19T16:00:15Z</time>
      </trkpt>
      <trkpt lat="44.27415" lon="5.81352">
        <ele>540</ele>
        <time>2019-03-19T16:00:16Z</time>
      </trkpt>
      <trkpt lat="44.2742" lon="5.81355">
        <ele>540</ele>
        <time>2019-03-19T16:00:17Z</time>
      </trkpt>
      <trkpt lat="44.27426" lon="5.81358">
        <ele>540</ele>
        <time>2019-03-19T16:00:18Z</time>
      </trkpt>
      <trkpt lat="44.27431" lon="5.81362">
        <ele>540</ele>
        <time>2019-03-19T16:00:19Z</time>
      </trkpt>
      <trkpt lat="44.27436" lon="5.81365">
        <ele>540</ele>
        <time>2019-03-19T16:00:20Z</time>
      </trkpt>
      <trkpt lat="44.27442" lon="5.81369">
        <ele>540</ele>
        <time>2019-03-19T16:00:21Z</time>
      </trkpt>
      <trkpt lat="44.27447" lon="5.81373">
        <ele>539</ele>
        <time>2019-03-19T16:00:22Z</time>
      </trkpt>
      <trkpt lat="44.27453" lon="5.81377">
        <ele>539</ele>
        <time>2019-03-19T16:00:23Z</time>
      </trkpt>
      <trkpt lat="44.27458" lon="5.81381">
        <ele>539</ele>
        <time>2019-03-19T16:00:24Z</time>
      </trkpt>
      <trkpt lat="44.27464" lon="5.81385">
        <ele>539</ele>
        <time>2019-03-19T16:00:25Z</time>
      </trkpt>
      <trkpt lat="44.27469" lon="5.81389">
        <ele>539</ele>
        <time>2019-03-19T16:00:26Z</time>
      </trkpt>
      <trkpt lat="44.27475" lon="5.81393">
        <ele>539</ele>
        <time>2019-03-19T16:00:27Z</time>
      </trkpt>
      <trkpt lat="44.2748" lon="5.81398">
        <ele>539</ele>
        <time>2019-03-19T16:00:28Z</time>
      </trkpt>
      <trkpt lat="44.27485" lon="5.81403">
        <ele>539</ele>
        <time>2019-03-19T16:00:29Z</time>
      </trkpt>
      <trkpt lat="44.2749" lon="5.81408">
        <ele>539</ele>
        <time>2019-03-19T16:00:30Z</time>
      </trkpt>
      <trkpt lat="44.27494" lon="5.81413">
        <ele>539</ele>
        <time>2019-03-19T16:00:31Z</time>
      </trkpt>
      <trkpt lat="44.27499" lon="5.81419">
        <ele>538</ele>
        <time>2019-03-19T16:00:32Z</time>
      </trkpt>
      <trkpt lat="44.27504" lon="5.81425">
        <ele>538</ele>
        <time>2019-03-19T16:00:33Z</time>
      </trkpt>
      <trkpt lat="44.27509" lon="5.8143">
        <ele>538</ele>
        <time>2019-03-19T16:00:34Z</time>
      </trkpt>
      <trkpt lat="44.27513" lon="5.81436">
        <ele>538</ele>
        <time>2019-03-19T16:00:35Z</time>
      </trkpt>
      <trkpt lat="44.27518" lon="5.81442">
        <ele>538</ele>
        <time>2019-03-19T16:00:36Z</time>
      </trkpt>
      <trkpt lat="44.27523" lon="5.81447">
        <ele>538</ele>
        <time>2019-03-19T16:00:37Z</time>
      </trkpt>
      <trkpt lat="44.27527" lon="5.81453">
        <ele>538</ele>
        <time>2019-03-19T16:00:38Z</time>
      </trkpt>
      <trkpt lat="44.27532" lon="5.81459">
        <ele>538</ele>
        <time>2019-03-19T16:00:39Z</time>
      </trkpt>
      <trkpt lat="44.27536" lon="5.81465">
        <ele>538</ele>
        <time>2019-03-19T16:00:40Z</time>
      </trkpt>
      <trkpt lat="44.27541" lon="5.8147">
        <ele>538</ele>
        <time>2019-03-19T16:00:41Z</time>
      </trkpt>
      <trkpt lat="44.27545" lon="5.81476">
        <ele>538</ele>
        <time>2019-03-19T16:00:42Z</time>
      </trkpt>
      <trkpt lat="44.27549" lon="5.81481">
        <ele>538</ele>
        <time>2019-03-19T16:00:43Z</time>
      </trkpt>
      <trkpt lat="44.27554" lon="5.81486">
        <ele>538</ele>
        <time>2019-03-19T16:00:44Z</time>
      </trkpt>
      <trkpt lat="44.27559" lon="5.81491">
        <ele>538</ele>
        <time>2019-03-19T16:00:45Z</time>
      </trkpt>
      <trkpt lat="44.27563" lon="5.81496">
        <ele>538</ele>
        <time>2019-03-19T16:00:46Z</time>
      </trkpt>
      <trkpt lat="44.27567" lon="5.81501">
        <ele>538</ele>
        <time>2019-03-19T16:00:47Z</time>
      </trkpt>
      <trkpt lat="44.27571" lon="5.81506">
        <ele>538</ele>
        <time>2019-03-19T16:00:48Z</time>
      </trkpt>
      <trkpt lat="44.27575" lon="5.81511">
        <ele>538</ele>
        <time>2019-03-19T16:00:49Z</time>
      </trkpt>
      <trkpt lat="44.27579" lon="5.81516">
        <ele>538</ele>
        <time>2019-03-19T16:00:50Z</time>
      </trkpt>
      <trkpt lat="44.27583" lon="5.81521">
        <ele>538</ele>
        <time>2019-03-19T16:00:51Z</time>
      </trkpt>
      <trkpt lat="44.27587" lon="5.81526">
        <ele>538</ele>
        <time>2019-03-19T16:00:52Z</time>
      </trkpt>
      <trkpt lat="44.2759" lon="5.81531">
        <ele>538</ele>
        <time>2019-03-19T16:00:53Z</time>
      </trkpt>
      <trkpt lat="44.27594" lon="5.81536">
        <ele>538</ele>
        <time>2019-03-19T16:00:54Z</time>
      </trkpt>
      <trkpt lat="44.27598" lon="5.8154">
        <ele>538</ele>
        <time>2019-03-19T16:00:55Z</time>
      </trkpt>
      <trkpt lat="44.27602" lon="5.81545">
        <ele>538</ele>
        <time>2019-03-19T16:00:56Z</time>
      </trkpt>
      <trkpt lat="44.27605" lon="5.81549">
        <ele>538</ele>
        <time>2019-03-19T16:00:57Z</time>
      </trkpt>
      <trkpt lat="44.27609" lon="5.81554">
        <ele>538</ele>
        <time>2019-03-19T16:00:58Z</time>
      </trkpt>
      <trkpt lat="44.27613" lon="5.81559">
        <ele>538</ele>
        <time>2019-03-19T16:00:59Z</time>
      </trkpt>
      <trkpt lat="44.27617" lon="5.81564">
        <ele>538</ele>
        <time>2019-03-19T16:01:00Z</time>
      </trkpt>
      <trkpt lat="44.27621" lon="5.81568">
        <ele>538</ele>
        <time>2019-03-19T16:01:01Z</time>
      </trkpt>
      <trkpt lat="44.27625" lon="5.81573">
        <ele>538</ele>
        <time>2019-03-19T16:01:02Z</time>
      </trkpt>
      <trkpt lat="44.27628" lon="5.81578">
        <ele>538</ele>
        <time>2019-03-19T16:01:03Z</time>
      </trkpt>
      <trkpt lat="44.27632" lon="5.81582">
        <ele>538</ele>
        <time>2019-03-19T16:01:04Z</time>
      </trkpt>
      <trkpt lat="44.27636" lon="5.81587">
        <ele>538</ele>
        <time>2019-03-19T16:01:05Z</time>
      </trkpt>
      <trkpt lat="44.2764" lon="5.81591">
        <ele>538</ele>
        <time>2019-03-19T16:01:06Z</time>
      </trkpt>
      <trkpt lat="44.27643" lon="5.81595">
        <ele>538</ele>
        <time>2019-03-19T16:01:07Z</time>
      </trkpt>
      <trkpt lat="44.27647" lon="5.816">
        <ele>538</ele>
        <time>2019-03-19T16:01:08Z</time>
      </trkpt>
      <trkpt lat="44.2765" lon="5.81604">
        <ele>538</ele>
        <time>2019-03-19T16:01:09Z</time>
      </trkpt>
      <trkpt lat="44.27654" lon="5.81608">
        <ele>538</ele>
        <time>2019-03-19T16:01:10Z</time>
      </trkpt>
      <trkpt lat="44.27658" lon="5.81613">
        <ele>538</ele>
        <time>2019-03-19T16:01:11Z</time>
      </trkpt>
      <trkpt lat="44.27662" lon="5.81618">
        <ele>538</ele>
        <time>2019-03-19T16:01:12Z</time>
      </trkpt>
      <trkpt lat="44.27667" lon="5.81623">
        <ele>538</ele>
        <time>2019-03-19T16:01:13Z</time>
      </trkpt>
      <trkpt lat="44.27671" lon="5.81628">
        <ele>538</ele>
        <time>2019-03-19T16:01:14Z</time>
      </trkpt>
      <trkpt lat="44.27675" lon="5.81634">
        <ele>538</ele>
        <time>2019-03-19T16:01:15Z</time>
      </trkpt>
      <trkpt lat="44.27679" lon="5.81639">
        <ele>538</ele>
        <time>2019-03-19T16:01:16Z</time>
      </trkpt>
      <trkpt lat="44.27684" lon="5.81644">
        <ele>538</ele>
        <time>2019-03-19T16:01:17Z</time>
      </trkpt>
      <trkpt lat="44.27688" lon="5.81649">
        <ele>538</ele>
        <time>2019-03-19T16:01:18Z</time>
      </trkpt>
      <trkpt lat="44.27692" lon="5.81654">
        <ele>538</ele>
        <time>2019-03-19T16:01:19Z</time>
      </trkpt>
      <trkpt lat="44.27697" lon="5.81659">
        <ele>538</ele>
        <time>2019-03-19T16:01:20Z</time>
      </trkpt>
      <trkpt lat="44.27701" lon="5.81664">
        <ele>538</ele>
        <time>2019-03-19T16:01:21Z</time>
      </trkpt>
      <trkpt lat="44.27705" lon="5.81669">
        <ele>538</ele>
        <time>2019-03-19T16:01:22Z</time>
      </trkpt>
      <trkpt lat="44.27709" lon="5.81673">
        <ele>538</ele>
        <time>2019-03-19T16:01:23Z</time>
      </trkpt>
      <trkpt lat="44.27713" lon="5.81679">
        <ele>538</ele>
        <time>2019-03-19T16:01:24Z</time>
      </trkpt>
      <trkpt lat="44.27717" lon="5.81684">
        <ele>538</ele>
        <time>2019-03-19T16:01:25Z</time>
      </trkpt>
      <trkpt lat="44.2772" lon="5.81689">
        <ele>538</ele>
        <time>2019-03-19T16:01:26Z</time>
      </trkpt>
      <trkpt lat="44.27724" lon="5.81694">
        <ele>538</ele>
        <time>2019-03-19T16:01:27Z</time>
      </trkpt>
      <trkpt lat="44.27729" lon="5.81699">
        <ele>538</ele>
        <time>2019-03-19T16:01:28Z</time>
      </trkpt>
      <trkpt lat="44.27733" lon="5.81704">
        <ele>538</ele>
        <time>2019-03-19T16:01:29Z</time>
      </trkpt>
      <trkpt lat="44.27737" lon="5.81708">
        <ele>538</ele>
        <time>2019-03-19T16:01:30Z</time>
      </trkpt>
      <trkpt lat="44.27742" lon="5.81712">
        <ele>538</ele>
        <time>2019-03-19T16:01:31Z</time>
      </trkpt>
      <trkpt lat="44.27747" lon="5.81715">
        <ele>538</ele>
        <time>2019-03-19T16:01:32Z</time>
      </trkpt>
      <trkpt lat="44.27752" lon="5.81718">
        <ele>538</ele>
        <time>2019-03-19T16:01:33Z</time>
      </trkpt>
      <trkpt lat="44.27757" lon="5.81721">
        <ele>538</ele>
        <time>2019-03-19T16:01:34Z</time>
      </trkpt>
      <trkpt lat="44.27762" lon="5.81724">
        <ele>538</ele>
        <time>2019-03-19T16:01:35Z</time>
      </trkpt>
      <trkpt lat="44.27766" lon="5.81727">
        <ele>538</ele>
        <time>2019-03-19T16:01:36Z</time>
      </trkpt>
      <trkpt lat="44.27771" lon="5.8173">
        <ele>538</ele>
        <time>2019-03-19T16:01:37Z</time>
      </trkpt>
      <trkpt lat="44.27776" lon="5.81733">
        <ele>538</ele>
        <time>2019-03-19T16:01:38Z</time>
      </trkpt>
      <trkpt lat="44.2778" lon="5.81736">
        <ele>538</ele>
        <time>2019-03-19T16:01:39Z</time>
      </trkpt>
      <trkpt lat="44.27785" lon="5.81739">
        <ele>538</ele>
        <time>2019-03-19T16:01:40Z</time>
      </trkpt>
      <trkpt lat="44.27789" lon="5.81742">
        <ele>538</ele>
        <time>2019-03-19T16:01:41Z</time>
      </trkpt>
      <trkpt lat="44.27794" lon="5.81745">
        <ele>538</ele>
        <time>2019-03-19T16:01:42Z</time>
      </trkpt>
      <trkpt lat="44.27799" lon="5.81748">
        <ele>538</ele>
        <time>2019-03-19T16:01:43Z</time>
      </trkpt>
      <trkpt lat="44.27803" lon="5.81751">
        <ele>538</ele>
        <time>2019-03-19T16:01:44Z</time>
      </trkpt>
      <trkpt lat="44.27808" lon="5.81754">
        <ele>538</ele>
        <time>2019-03-19T16:01:45Z</time>
      </trkpt>
      <trkpt lat="44.27813" lon="5.81757">
        <ele>538</ele>
        <time>2019-03-19T16:01:46Z</time>
      </trkpt>
      <trkpt lat="44.27817" lon="5.81761">
        <ele>538</ele>
        <time>2019-03-19T16:01:47Z</time>
      </trkpt>
      <trkpt lat="44.27822" lon="5.81764">
        <ele>538</ele>
        <time>2019-03-19T16:01:48Z</time>
      </trkpt>
      <trkpt lat="44.27826" lon="5.81767">
        <ele>538</ele>
        <time>2019-03-19T16:01:49Z</time>
      </trkpt>
      <trkpt lat="44.27831" lon="5.81769">
        <ele>538</ele>
        <time>2019-03-19T16:01:50Z</time>
      </trkpt>
      <trkpt lat="44.27835" lon="5.81772">
        <ele>538</ele>
        <time>2019-03-19T16:01:51Z</time>
      </trkpt>
      <trkpt lat="44.2784" lon="5.81775">
        <ele>538</ele>
        <time>2019-03-19T16:01:52Z</time>
      </trkpt>
      <trkpt lat="44.27844" lon="5.81778">
        <ele>538</ele>
        <time>2019-03-19T16:01:53Z</time>
      </trkpt>
      <trkpt lat="44.27849" lon="5.81781">
        <ele>538</ele>
        <time>2019-03-19T16:01:54Z</time>
      </trkpt>
      <trkpt lat="44.27853" lon="5.81784">
        <ele>538</ele>
        <time>2019-03-19T16:01:55Z</time>
      </trkpt>
      <trkpt lat="44.27858" lon="5.81787">
        <ele>538</ele>
        <time>2019-03-19T16:01:56Z</time>
      </trkpt>
      <trkpt lat="44.27863" lon="5.8179">
        <ele>538</ele>
        <time>2019-03-19T16:01:57Z</time>
      </trkpt>
      <trkpt lat="44.27868" lon="5.81793">
        <ele>538</ele>
        <time>2019-03-19T16:01:58Z</time>
      </trkpt>
      <trkpt lat="44.27873" lon="5.81797">
        <ele>538</ele>
        <time>2019-03-19T16:01:59Z</time>
      </trkpt>
      <trkpt lat="44.27877" lon="5.818">
        <ele>538</ele>
        <time>2019-03-19T16:02:00Z</time>
      </trkpt>
      <trkpt lat="44.27882" lon="5.81803">
        <ele>538</ele>
        <time>2019-03-19T16:02:01Z</time>
      </trkpt>
      <trkpt lat="44.27887" lon="5.81807">
        <ele>538</ele>
        <time>2019-03-19T16:02:02Z</time>
      </trkpt>
      <trkpt lat="44.27892" lon="5.8181">
        <ele>538</ele>
        <time>2019-03-19T16:02:03Z</time>
      </trkpt>
      <trkpt lat="44.27897" lon="5.81813">
        <ele>538</ele>
        <time>2019-03-19T16:02:04Z</time>
      </trkpt>
      <trkpt lat="44.27902" lon="5.81816">
        <ele>538</ele>
        <time>2019-03-19T16:02:05Z</time>
      </trkpt>
      <trkpt lat="44.27907" lon="5.81819">
        <ele>538</ele>
        <time>2019-03-19T16:02:06Z</time>
      </trkpt>
      <trkpt lat="44.27912" lon="5.81822">
        <ele>538</ele>
        <time>2019-03-19T16:02:07Z</time>
      </trkpt>
      <trkpt lat="44.27917" lon="5.81825">
        <ele>538</ele>
        <time>2019-03-19T16:02:08Z</time>
      </trkpt>
      <trkpt lat="44.27922" lon="5.81828">
        <ele>538</ele>
        <time>2019-03-19T16:02:09Z</time>
      </trkpt>
      <trkpt lat="44.27927" lon="5.81832">
        <ele>538</ele>
        <time>2019-03-19T16:02:10Z</time>
      </trkpt>
      <trkpt lat="44.27932" lon="5.81835">
        <ele>538</ele>
        <time>2019-03-19T16:02:11Z</time>
      </trkpt>
      <trkpt lat="44.27937" lon="5.81838">
        <ele>538</ele>
        <time>2019-03-19T16:02:12Z</time>
      </trkpt>
      <trkpt lat="44.27942" lon="5.81841">
        <ele>538</ele>
        <time>2019-03-19T16:02:13Z</time>
      </trkpt>
      <trkpt lat="44.27947" lon="5.81844">
        <ele>538</ele>
        <time>2019-03-19T16:02:14Z</time>
      </trkpt>
      <trkpt lat="44.27952" lon="5.81847">
        <ele>538</ele>
        <time>2019-03-19T16:02:15Z</time>
      </trkpt>
      <trkpt lat="44.27956" lon="5.8185">
        <ele>538</ele>
        <time>2019-03-19T16:02:16Z</time>
      </trkpt>
      <trkpt lat="44.27961" lon="5.81853">
        <ele>538</ele>
        <time>2019-03-19T16:02:17Z</time>
      </trkpt>
      <trkpt lat="44.27966" lon="5.81856">
        <ele>538</ele>
        <time>2019-03-19T16:02:18Z</time>
      </trkpt>
      <trkpt lat="44.27971" lon="5.8186">
        <ele>538</ele>
        <time>2019-03-19T16:02:19Z</time>
      </trkpt>
      <trkpt lat="44.27976" lon="5.81863">
        <ele>538</ele>
        <time>2019-03-19T16:02:20Z</time>
      </trkpt>
      <trkpt lat="44.27981" lon="5.81866">
        <ele>538</ele>
        <time>2019-03-19T16:02:21Z</time>
      </trkpt>
      <trkpt lat="44.27986" lon="5.81869">
        <ele>538</ele>
        <time>2019-03-19T16:02:22Z</time>
      </trkpt>
      <trkpt lat="44.27991" lon="5.81873">
        <ele>538</ele>
        <time>2019-03-19T16:02:23Z</time>
      </trkpt>
      <trkpt lat="44.27996" lon="5.81876">
        <ele>538</ele>
        <time>2019-03-19T16:02:24Z</time>
      </trkpt>
      <trkpt lat="44.28002" lon="5.81879">
        <ele>538</ele>
        <time>2019-03-19T16:02:25Z</time>
      </trkpt>
      <trkpt lat="44.28007" lon="5.81882">
        <ele>538</ele>
        <time>2019-03-19T16:02:26Z</time>
      </trkpt>
      <trkpt lat="44.28012" lon="5.81886">
        <ele>538</ele>
        <time>2019-03-19T16:02:27Z</time>
      </trkpt>
      <trkpt lat="44.28018" lon="5.81889">
        <ele>538</ele>
        <time>2019-03-19T16:02:28Z</time>
      </trkpt>
      <trkpt lat="44.28023" lon="5.81893">
        <ele>538</ele>
        <time>2019-03-19T16:02:29Z</time>
      </trkpt>
      <trkpt lat="44.28028" lon="5.81896">
        <ele>538</ele>
        <time>2019-03-19T16:02:30Z</time>
      </trkpt>
      <trkpt lat="44.28033" lon="5.81899">
        <ele>538</ele>
        <time>2019-03-19T16:02:31Z</time>
      </trkpt>
      <trkpt lat="44.28038" lon="5.81902">
        <ele>538</ele>
        <time>2019-03-19T16:02:32Z</time>
      </trkpt>
      <trkpt lat="44.28043" lon="5.81906">
        <ele>538</ele>
        <time>2019-03-19T16:02:33Z</time>
      </trkpt>
      <trkpt lat="44.28048" lon="5.81909">
        <ele>538</ele>
        <time>2019-03-19T16:02:34Z</time>
      </trkpt>
      <trkpt lat="44.28053" lon="5.81912">
        <ele>538</ele>
        <time>2019-03-19T16:02:35Z</time>
      </trkpt>
      <trkpt lat="44.28058" lon="5.81915">
        <ele>538</ele>
        <time>2019-03-19T16:02:36Z</time>
      </trkpt>
      <trkpt lat="44.28063" lon="5.81918">
        <ele>538</ele>
        <time>2019-03-19T16:02:37Z</time>
      </trkpt>
      <trkpt lat="44.28068" lon="5.81921">
        <ele>538</ele>
        <time>2019-03-19T16:02:38Z</time>
      </trkpt>
      <trkpt lat="44.28073" lon="5.81924">
        <ele>538</ele>
        <time>2019-03-19T16:02:39Z</time>
      </trkpt>
      <trkpt lat="44.28078" lon="5.81927">
        <ele>538</ele>
        <time>2019-03-19T16:02:40Z</time>
      </trkpt>
      <trkpt lat="44.28083" lon="5.8193">
        <ele>538</ele>
        <time>2019-03-19T16:02:41Z</time>
      </trkpt>
      <trkpt lat="44.28088" lon="5.81933">
        <ele>538</ele>
        <time>2019-03-19T16:02:42Z</time>
      </trkpt>
      <trkpt lat="44.28093" lon="5.81937">
        <ele>538</ele>
        <time>2019-03-19T16:02:43Z</time>
      </trkpt>
      <trkpt lat="44.28098" lon="5.8194">
        <ele>539</ele>
        <time>2019-03-19T16:02:44Z</time>
      </trkpt>
      <trkpt lat="44.28103" lon="5.81944">
        <ele>539</ele>
        <time>2019-03-19T16:02:45Z</time>
      </trkpt>
      <trkpt lat="44.28109" lon="5.81947">
        <ele>539</ele>
        <time>2019-03-19T16:02:46Z</time>
      </trkpt>
      <trkpt lat="44.28114" lon="5.8195">
        <ele>539</ele>
        <time>2019-03-19T16:02:47Z</time>
      </trkpt>
      <trkpt lat="44.28119" lon="5.81953">
        <ele>539</ele>
        <time>2019-03-19T16:02:48Z</time>
      </trkpt>
      <trkpt lat="44.28123" lon="5.81956">
        <ele>539</ele>
        <time>2019-03-19T16:02:49Z</time>
      </trkpt>
      <trkpt lat="44.28128" lon="5.8196">
        <ele>539</ele>
        <time>2019-03-19T16:02:50Z</time>
      </trkpt>
      <trkpt lat="44.28133" lon="5.81962">
        <ele>540</ele>
        <time>2019-03-19T16:02:51Z</time>
      </trkpt>
      <trkpt lat="44.28138" lon="5.81965">
        <ele>540</ele>
        <time>2019-03-19T16:02:52Z</time>
      </trkpt>
      <trkpt lat="44.28143" lon="5.81968">
        <ele>540</ele>
        <time>2019-03-19T16:02:53Z</time>
      </trkpt>
      <trkpt lat="44.28148" lon="5.81972">
        <ele>540</ele>
        <time>2019-03-19T16:02:54Z</time>
      </trkpt>
      <trkpt lat="44.28152" lon="5.81975">
        <ele>540</ele>
        <time>2019-03-19T16:02:55Z</time>
      </trkpt>
      <trkpt lat="44.28157" lon="5.81978">
        <ele>540</ele>
        <time>2019-03-19T16:02:56Z</time>
      </trkpt>
      <trkpt lat="44.28162" lon="5.81982">
        <ele>540</ele>
        <time>2019-03-19T16:02:57Z</time>
      </trkpt>
      <trkpt lat="44.28168" lon="5.81985">
        <ele>540</ele>
        <time>2019-03-19T16:02:58Z</time>
      </trkpt>
      <trkpt lat="44.28173" lon="5.81988">
        <ele>540</ele>
        <time>2019-03-19T16:02:59Z</time>
      </trkpt>
      <trkpt lat="44.28178" lon="5.81992">
        <ele>540</ele>
        <time>2019-03-19T16:03:00Z</time>
      </trkpt>
      <trkpt lat="44.28184" lon="5.81995">
        <ele>540</ele>
        <time>2019-03-19T16:03:01Z</time>
      </trkpt>
      <trkpt lat="44.28189" lon="5.81998">
        <ele>540</ele>
        <time>2019-03-19T16:03:02Z</time>
      </trkpt>
      <trkpt lat="44.28195" lon="5.82002">
        <ele>540</ele>
        <time>2019-03-19T16:03:03Z</time>
      </trkpt>
      <trkpt lat="44.282" lon="5.82005">
        <ele>540</ele>
        <time>2019-03-19T16:03:04Z</time>
      </trkpt>
      <trkpt lat="44.28205" lon="5.82009">
        <ele>540</ele>
        <time>2019-03-19T16:03:05Z</time>
      </trkpt>
      <trkpt lat="44.28211" lon="5.82012">
        <ele>540</ele>
        <time>2019-03-19T16:03:06Z</time>
      </trkpt>
      <trkpt lat="44.28216" lon="5.82014">
        <ele>540</ele>
        <time>2019-03-19T16:03:07Z</time>
      </trkpt>
      <trkpt lat="44.28222" lon="5.82017">
        <ele>540</ele>
        <time>2019-03-19T16:03:08Z</time>
      </trkpt>
      <trkpt lat="44.28227" lon="5.82019">
        <ele>540</ele>
        <time>2019-03-19T16:03:09Z</time>
      </trkpt>
      <trkpt lat="44.28232" lon="5.82022">
        <ele>540</ele>
        <time>2019-03-19T16:03:10Z</time>
      </trkpt>
      <trkpt lat="44.28238" lon="5.82024">
        <ele>540</ele>
        <time>2019-03-19T16:03:11Z</time>
      </trkpt>
      <trkpt lat="44.28243" lon="5.82025">
        <ele>540</ele>
        <time>2019-03-19T16:03:12Z</time>
      </trkpt>
      <trkpt lat="44.28248" lon="5.82027">
        <ele>540</ele>
        <time>2019-03-19T16:03:13Z</time>
      </trkpt>
      <trkpt lat="44.28254" lon="5.82027">
        <ele>540</ele>
        <time>2019-03-19T16:03:14Z</time>
      </trkpt>
      <trkpt lat="44.28259" lon="5.82028">
        <ele>540</ele>
        <time>2019-03-19T16:03:15Z</time>
      </trkpt>
      <trkpt lat="44.28264" lon="5.82028">
        <ele>541</ele>
        <time>2019-03-19T16:03:16Z</time>
      </trkpt>
      <trkpt lat="44.28269" lon="5.82029">
        <ele>541</ele>
        <time>2019-03-19T16:03:17Z</time>
      </trkpt>
      <trkpt lat="44.28275" lon="5.82029">
        <ele>541</ele>
        <time>2019-03-19T16:03:18Z</time>
      </trkpt>
      <trkpt lat="44.2828" lon="5.82029">
        <ele>541</ele>
        <time>2019-03-19T16:03:19Z</time>
      </trkpt>
      <trkpt lat="44.28285" lon="5.82029">
        <ele>541</ele>
        <time>2019-03-19T16:03:20Z</time>
      </trkpt>
      <trkpt lat="44.28291" lon="5.82029">
        <ele>541</ele>
        <time>2019-03-19T16:03:21Z</time>
      </trkpt>
      <trkpt lat="44.28296" lon="5.82029">
        <ele>541</ele>
        <time>2019-03-19T16:03:22Z</time>
      </trkpt>
      <trkpt lat="44.28302" lon="5.82029">
        <ele>541</ele>
        <time>2019-03-19T16:03:23Z</time>
      </trkpt>
      <trkpt lat="44.28307" lon="5.82029">
        <ele>542</ele>
        <time>2019-03-19T16:03:24Z</time>
      </trkpt>
      <trkpt lat="44.28313" lon="5.82028">
        <ele>542</ele>
        <time>2019-03-19T16:03:25Z</time>
      </trkpt>
      <trkpt lat="44.28319" lon="5.82028">
        <ele>542</ele>
        <time>2019-03-19T16:03:26Z</time>
      </trkpt>
      <trkpt lat="44.28325" lon="5.82028">
        <ele>543</ele>
        <time>2019-03-19T16:03:27Z</time>
      </trkpt>
      <trkpt lat="44.28331" lon="5.82029">
        <ele>543</ele>
        <time>2019-03-19T16:03:28Z</time>
      </trkpt>
      <trkpt lat="44.28337" lon="5.82029">
        <ele>543</ele>
        <time>2019-03-19T16:03:29Z</time>
      </trkpt>
      <trkpt lat="44.28342" lon="5.82028">
        <ele>543</ele>
        <time>2019-03-19T16:03:30Z</time>
      </trkpt>
      <trkpt lat="44.28348" lon="5.82028">
        <ele>544</ele>
        <time>2019-03-19T16:03:31Z</time>
      </trkpt>
      <trkpt lat="44.28354" lon="5.82027">
        <ele>544</ele>
        <time>2019-03-19T16:03:32Z</time>
      </trkpt>
      <trkpt lat="44.2836" lon="5.82027">
        <ele>544</ele>
        <time>2019-03-19T16:03:33Z</time>
      </trkpt>
      <trkpt lat="44.28366" lon="5.82026">
        <ele>545</ele>
        <time>2019-03-19T16:03:34Z</time>
      </trkpt>
      <trkpt lat="44.28371" lon="5.82027">
        <ele>545</ele>
        <time>2019-03-19T16:03:35Z</time>
      </trkpt>
      <trkpt lat="44.28377" lon="5.82027">
        <ele>546</ele>
        <time>2019-03-19T16:03:36Z</time>
      </trkpt>
      <trkpt lat="44.28382" lon="5.82028">
        <ele>546</ele>
        <time>2019-03-19T16:03:37Z</time>
      </trkpt>
      <trkpt lat="44.28387" lon="5.82028">
        <ele>547</ele>
        <time>2019-03-19T16:03:38Z</time>
      </trkpt>
      <trkpt lat="44.28393" lon="5.82029">
        <ele>547</ele>
        <time>2019-03-19T16:03:39Z</time>
      </trkpt>
      <trkpt lat="44.28399" lon="5.82029">
        <ele>547</ele>
        <time>2019-03-19T16:03:40Z</time>
      </trkpt>
      <trkpt lat="44.28404" lon="5.8203">
        <ele>547</ele>
        <time>2019-03-19T16:03:41Z</time>
      </trkpt>
      <trkpt lat="44.2841" lon="5.82031">
        <ele>547</ele>
        <time>2019-03-19T16:03:42Z</time>
      </trkpt>
      <trkpt lat="44.28415" lon="5.82033">
        <ele>547</ele>
        <time>2019-03-19T16:03:43Z</time>
      </trkpt>
      <trkpt lat="44.28421" lon="5.82034">
        <ele>547</ele>
        <time>2019-03-19T16:03:44Z</time>
      </trkpt>
      <trkpt lat="44.28426" lon="5.82036">
        <ele>547</ele>
        <time>2019-03-19T16:03:45Z</time>
      </trkpt>
      <trkpt lat="44.28431" lon="5.82037">
        <ele>547</ele>
        <time>2019-03-19T16:03:46Z</time>
      </trkpt>
      <trkpt lat="44.28437" lon="5.82039">
        <ele>547</ele>
        <time>2019-03-19T16:03:47Z</time>
      </trkpt>
      <trkpt lat="44.28442" lon="5.82041">
        <ele>547</ele>
        <time>2019-03-19T16:03:48Z</time>
      </trkpt>
      <trkpt lat="44.28447" lon="5.82043">
        <ele>547</ele>
        <time>2019-03-19T16:03:49Z</time>
      </trkpt>
      <trkpt lat="44.28453" lon="5.82045">
        <ele>547</ele>
        <time>2019-03-19T16:03:50Z</time>
      </trkpt>
      <trkpt lat="44.28458" lon="5.82047">
        <ele>547</ele>
        <time>2019-03-19T16:03:51Z</time>
      </trkpt>
      <trkpt lat="44.28463" lon="5.82049">
        <ele>547</ele>
        <time>2019-03-19T16:03:52Z</time>
      </trkpt>
      <trkpt lat="44.28468" lon="5.82051">
        <ele>547</ele>
        <time>2019-03-19T16:03:53Z</time>
      </trkpt>
      <trkpt lat="44.28472" lon="5.82054">
        <ele>547</ele>
        <time>2019-03-19T16:03:54Z</time>
      </trkpt>
      <trkpt lat="44.28477" lon="5.82056">
        <ele>547</ele>
        <time>2019-03-19T16:03:55Z</time>
      </trkpt>
      <trkpt lat="44.28482" lon="5.82058">
        <ele>547</ele>
        <time>2019-03-19T16:03:56Z</time>
      </trkpt>
      <trkpt lat="44.28487" lon="5.82061">
        <ele>547</ele>
        <time>2019-03-19T16:03:57Z</time>
      </trkpt>
      <trkpt lat="44.28492" lon="5.82064">
        <ele>547</ele>
        <time>2019-03-19T16:03:58Z</time>
      </trkpt>
      <trkpt lat="44.28497" lon="5.82066">
        <ele>547</ele>
        <time>2019-03-19T16:03:59Z</time>
      </trkpt>
      <trkpt lat="44.28502" lon="5.82069">
        <ele>547</ele>
        <time>2019-03-19T16:04:00Z</time>
      </trkpt>
      <trkpt lat="44.28507" lon="5.82071">
        <ele>547</ele>
        <time>2019-03-19T16:04:01Z</time>
      </trkpt>
      <trkpt lat="44.28512" lon="5.82074">
        <ele>547</ele>
        <time>2019-03-19T16:04:02Z</time>
      </trkpt>
      <trkpt lat="44.28517" lon="5.82077">
        <ele>547</ele>
        <time>2019-03-19T16:04:03Z</time>
      </trkpt>
      <trkpt lat="44.28522" lon="5.82079">
        <ele>547</ele>
        <time>2019-03-19T16:04:04Z</time>
      </trkpt>
      <trkpt lat="44.28527" lon="5.82082">
        <ele>547</ele>
        <time>2019-03-19T16:04:05Z</time>
      </trkpt>
      <trkpt lat="44.28532" lon="5.82085">
        <ele>547</ele>
        <time>2019-03-19T16:04:06Z</time>
      </trkpt>
      <trkpt lat="44.28537" lon="5.82087">
        <ele>547</ele>
        <time>2019-03-19T16:04:07Z</time>
      </trkpt>
      <trkpt lat="44.28541" lon="5.82089">
        <ele>548</ele>
        <time>2019-03-19T16:04:08Z</time>
      </trkpt>
      <trkpt lat="44.28546" lon="5.82092">
        <ele>548</ele>
        <time>2019-03-19T16:04:09Z</time>
      </trkpt>
      <trkpt lat="44.28551" lon="5.82094">
        <ele>548</ele>
        <time>2019-03-19T16:04:10Z</time>
      </trkpt>
      <trkpt lat="44.28556" lon="5.82097">
        <ele>548</ele>
        <time>2019-03-19T16:04:11Z</time>
      </trkpt>
      <trkpt lat="44.28561" lon="5.82099">
        <ele>548</ele>
        <time>2019-03-19T16:04:12Z</time>
      </trkpt>
      <trkpt lat="44.28565" lon="5.82101">
        <ele>548</ele>
        <time>2019-03-19T16:04:13Z</time>
      </trkpt>
      <trkpt lat="44.28569" lon="5.82103">
        <ele>549</ele>
        <time>2019-03-19T16:04:14Z</time>
      </trkpt>
      <trkpt lat="44.28574" lon="5.82105">
        <ele>549</ele>
        <time>2019-03-19T16:04:15Z</time>
      </trkpt>
      <trkpt lat="44.28578" lon="5.82108">
        <ele>549</ele>
        <time>2019-03-19T16:04:16Z</time>
      </trkpt>
      <trkpt lat="44.28582" lon="5.8211">
        <ele>549</ele>
        <time>2019-03-19T16:04:17Z</time>
      </trkpt>
      <trkpt lat="44.28587" lon="5.82112">
        <ele>550</ele>
        <time>2019-03-19T16:04:18Z</time>
      </trkpt>
      <trkpt lat="44.28591" lon="5.82114">
        <ele>550</ele>
        <time>2019-03-19T16:04:19Z</time>
      </trkpt>
      <trkpt lat="44.28595" lon="5.82116">
        <ele>550</ele>
        <time>2019-03-19T16:04:20Z</time>
      </trkpt>
      <trkpt lat="44.286" lon="5.82117">
        <ele>551</ele>
        <time>2019-03-19T16:04:21Z</time>
      </trkpt>
      <trkpt lat="44.28604" lon="5.82119">
        <ele>551</ele>
        <time>2019-03-19T16:04:22Z</time>
      </trkpt>
      <trkpt lat="44.28608" lon="5.82121">
        <ele>551</ele>
        <time>2019-03-19T16:04:23Z</time>
      </trkpt>
      <trkpt lat="44.28613" lon="5.82122">
        <ele>552</ele>
        <time>2019-03-19T16:04:24Z</time>
      </trkpt>
      <trkpt lat="44.28617" lon="5.82123">
        <ele>552</ele>
        <time>2019-03-19T16:04:25Z</time>
      </trkpt>
      <trkpt lat="44.28621" lon="5.82125">
        <ele>553</ele>
        <time>2019-03-19T16:04:26Z</time>
      </trkpt>
      <trkpt lat="44.28626" lon="5.82126">
        <ele>553</ele>
        <time>2019-03-19T16:04:27Z</time>
      </trkpt>
      <trkpt lat="44.2863" lon="5.82128">
        <ele>553</ele>
        <time>2019-03-19T16:04:28Z</time>
      </trkpt>
      <trkpt lat="44.28634" lon="5.82129">
        <ele>553</ele>
        <time>2019-03-19T16:04:29Z</time>
      </trkpt>
      <trkpt lat="44.28639" lon="5.8213">
        <ele>554</ele>
        <time>2019-03-19T16:04:30Z</time>
      </trkpt>
      <trkpt lat="44.28643" lon="5.82132">
        <ele>554</ele>
        <time>2019-03-19T16:04:31Z</time>
      </trkpt>
      <trkpt lat="44.28648" lon="5.82133">
        <ele>554</ele>
        <time>2019-03-19T16:04:32Z</time>
      </trkpt>
      <trkpt lat="44.28652" lon="5.82134">
        <ele>555</ele>
        <time>2019-03-19T16:04:33Z</time>
      </trkpt>
      <trkpt lat="44.28656" lon="5.82135">
        <ele>555</ele>
        <time>2019-03-19T16:04:34Z</time>
      </trkpt>
      <trkpt lat="44.28661" lon="5.82136">
        <ele>556</ele>
        <time>2019-03-19T16:04:35Z</time>
      </trkpt>
      <trkpt lat="44.28665" lon="5.82138">
        <ele>556</ele>
        <time>2019-03-19T16:04:36Z</time>
      </trkpt>
      <trkpt lat="44.2867" lon="5.8214">
        <ele>556</ele>
        <time>2019-03-19T16:04:37Z</time>
      </trkpt>
      <trkpt lat="44.28674" lon="5.82142">
        <ele>556</ele>
        <time>2019-03-19T16:04:38Z</time>
      </trkpt>
      <trkpt lat="44.28678" lon="5.82143">
        <ele>557</ele>
        <time>2019-03-19T16:04:39Z</time>
      </trkpt>
      <trkpt lat="44.28682" lon="5.82145">
        <ele>557</ele>
        <time>2019-03-19T16:04:40Z</time>
      </trkpt>
      <trkpt lat="44.28687" lon="5.82146">
        <ele>557</ele>
        <time>2019-03-19T16:04:41Z</time>
      </trkpt>
      <trkpt lat="44.28692" lon="5.82148">
        <ele>557</ele>
        <time>2019-03-19T16:04:42Z</time>
      </trkpt>
      <trkpt lat="44.28696" lon="5.82149">
        <ele>557</ele>
        <time>2019-03-19T16:04:43Z</time>
      </trkpt>
      <trkpt lat="44.28701" lon="5.82151">
        <ele>558</ele>
        <time>2019-03-19T16:04:44Z</time>
      </trkpt>
      <trkpt lat="44.28706" lon="5.82152">
        <ele>558</ele>
        <time>2019-03-19T16:04:45Z</time>
      </trkpt>
      <trkpt lat="44.2871" lon="5.82154">
        <ele>558</ele>
        <time>2019-03-19T16:04:46Z</time>
      </trkpt>
      <trkpt lat="44.28715" lon="5.82155">
        <ele>558</ele>
        <time>2019-03-19T16:04:47Z</time>
      </trkpt>
      <trkpt lat="44.28719" lon="5.82156">
        <ele>559</ele>
        <time>2019-03-19T16:04:48Z</time>
      </trkpt>
      <trkpt lat="44.28723" lon="5.82158">
        <ele>559</ele>
        <time>2019-03-19T16:04:49Z</time>
      </trkpt>
      <trkpt lat="44.28728" lon="5.8216">
        <ele>559</ele>
        <time>2019-03-19T16:04:50Z</time>
      </trkpt>
      <trkpt lat="44.28732" lon="5.82162">
        <ele>559</ele>
        <time>2019-03-19T16:04:51Z</time>
      </trkpt>
      <trkpt lat="44.28736" lon="5.82164">
        <ele>560</ele>
        <time>2019-03-19T16:04:52Z</time>
      </trkpt>
      <trkpt lat="44.2874" lon="5.82166">
        <ele>560</ele>
        <time>2019-03-19T16:04:53Z</time>
      </trkpt>
      <trkpt lat="44.28745" lon="5.82168">
        <ele>560</ele>
        <time>2019-03-19T16:04:54Z</time>
      </trkpt>
      <trkpt lat="44.28749" lon="5.8217">
        <ele>560</ele>
        <time>2019-03-19T16:04:55Z</time>
      </trkpt>
      <trkpt lat="44.28753" lon="5.82172">
        <ele>561</ele>
        <time>2019-03-19T16:04:56Z</time>
      </trkpt>
      <trkpt lat="44.28757" lon="5.82174">
        <ele>561</ele>
        <time>2019-03-19T16:04:57Z</time>
      </trkpt>
      <trkpt lat="44.28761" lon="5.82177">
        <ele>561</ele>
        <time>2019-03-19T16:04:58Z</time>
      </trkpt>
      <trkpt lat="44.28765" lon="5.82179">
        <ele>561</ele>
        <time>2019-03-19T16:04:59Z</time>
      </trkpt>
      <trkpt lat="44.28769" lon="5.82182">
        <ele>561</ele>
        <time>2019-03-19T16:05:00Z</time>
      </trkpt>
      <trkpt lat="44.28773" lon="5.82184">
        <ele>561</ele>
        <time>2019-03-19T16:05:01Z</time>
      </trkpt>
      <trkpt lat="44.28777" lon="5.82187">
        <ele>561</ele>
        <time>2019-03-19T16:05:02Z</time>
      </trkpt>
      <trkpt lat="44.28781" lon="5.8219">
        <ele>562</ele>
        <time>2019-03-19T16:05:03Z</time>
      </trkpt>
      <trkpt lat="44.28785" lon="5.82192">
        <ele>562</ele>
        <time>2019-03-19T16:05:04Z</time>
      </trkpt>
      <trkpt lat="44.28789" lon="5.82195">
        <ele>562</ele>
        <time>2019-03-19T16:05:05Z</time>
      </trkpt>
      <trkpt lat="44.28793" lon="5.82198">
        <ele>562</ele>
        <time>2019-03-19T16:05:06Z</time>
      </trkpt>
      <trkpt lat="44.28797" lon="5.822">
        <ele>562</ele>
        <time>2019-03-19T16:05:07Z</time>
      </trkpt>
      <trkpt lat="44.28801" lon="5.82204">
        <ele>562</ele>
        <time>2019-03-19T16:05:08Z</time>
      </trkpt>
      <trkpt lat="44.28805" lon="5.82207">
        <ele>562</ele>
        <time>2019-03-19T16:05:09Z</time>
      </trkpt>
      <trkpt lat="44.28809" lon="5.82211">
        <ele>562</ele>
        <time>2019-03-19T16:05:10Z</time>
      </trkpt>
      <trkpt lat="44.28812" lon="5.82214">
        <ele>562</ele>
        <time>2019-03-19T16:05:11Z</time>
      </trkpt>
      <trkpt lat="44.28816" lon="5.82217">
        <ele>562</ele>
        <time>2019-03-19T16:05:12Z</time>
      </trkpt>
      <trkpt lat="44.2882" lon="5.8222">
        <ele>562</ele>
        <time>2019-03-19T16:05:13Z</time>
      </trkpt>
      <trkpt lat="44.28824" lon="5.82223">
        <ele>562</ele>
        <time>2019-03-19T16:05:14Z</time>
      </trkpt>
      <trkpt lat="44.28827" lon="5.82227">
        <ele>562</ele>
        <time>2019-03-19T16:05:15Z</time>
      </trkpt>
      <trkpt lat="44.28831" lon="5.8223">
        <ele>562</ele>
        <time>2019-03-19T16:05:16Z</time>
      </trkpt>
      <trkpt lat="44.28835" lon="5.82233">
        <ele>562</ele>
        <time>2019-03-19T16:05:17Z</time>
      </trkpt>
      <trkpt lat="44.28838" lon="5.82237">
        <ele>562</ele>
        <time>2019-03-19T16:05:18Z</time>
      </trkpt>
      <trkpt lat="44.28842" lon="5.8224">
        <ele>562</ele>
        <time>2019-03-19T16:05:19Z</time>
      </trkpt>
      <trkpt lat="44.28846" lon="5.82244">
        <ele>562</ele>
        <time>2019-03-19T16:05:20Z</time>
      </trkpt>
      <trkpt lat="44.28849" lon="5.82247">
        <ele>562</ele>
        <time>2019-03-19T16:05:21Z</time>
      </trkpt>
      <trkpt lat="44.28852" lon="5.82251">
        <ele>562</ele>
        <time>2019-03-19T16:05:22Z</time>
      </trkpt>
      <trkpt lat="44.28856" lon="5.82254">
        <ele>562</ele>
        <time>2019-03-19T16:05:23Z</time>
      </trkpt>
      <trkpt lat="44.28859" lon="5.82258">
        <ele>562</ele>
        <time>2019-03-19T16:05:24Z</time>
      </trkpt>
      <trkpt lat="44.28863" lon="5.82261">
        <ele>562</ele>
        <time>2019-03-19T16:05:25Z</time>
      </trkpt>
      <trkpt lat="44.28867" lon="5.82265">
        <ele>562</ele>
        <time>2019-03-19T16:05:26Z</time>
      </trkpt>
      <trkpt lat="44.2887" lon="5.82268">
        <ele>562</ele>
        <time>2019-03-19T16:05:27Z</time>
      </trkpt>
      <trkpt lat="44.28874" lon="5.82271">
        <ele>562</ele>
        <time>2019-03-19T16:05:28Z</time>
      </trkpt>
      <trkpt lat="44.28878" lon="5.82274">
        <ele>562</ele>
        <time>2019-03-19T16:05:29Z</time>
      </trkpt>
      <trkpt lat="44.28882" lon="5.82277">
        <ele>562</ele>
        <time>2019-03-19T16:05:30Z</time>
      </trkpt>
      <trkpt lat="44.28886" lon="5.8228">
        <ele>562</ele>
        <time>2019-03-19T16:05:31Z</time>
      </trkpt>
      <trkpt lat="44.2889" lon="5.82283">
        <ele>562</ele>
        <time>2019-03-19T16:05:32Z</time>
      </trkpt>
      <trkpt lat="44.28894" lon="5.82285">
        <ele>562</ele>
        <time>2019-03-19T16:05:33Z</time>
      </trkpt>
      <trkpt lat="44.28899" lon="5.82287">
        <ele>562</ele>
        <time>2019-03-19T16:05:34Z</time>
      </trkpt>
      <trkpt lat="44.28904" lon="5.82289">
        <ele>562</ele>
        <time>2019-03-19T16:05:35Z</time>
      </trkpt>
      <trkpt lat="44.28909" lon="5.82291">
        <ele>562</ele>
        <time>2019-03-19T16:05:36Z</time>
      </trkpt>
      <trkpt lat="44.28914" lon="5.82292">
        <ele>562</ele>
        <time>2019-03-19T16:05:37Z</time>
      </trkpt>
      <trkpt lat="44.28919" lon="5.82293">
        <ele>562</ele>
        <time>2019-03-19T16:05:38Z</time>
      </trkpt>
      <trkpt lat="44.28924" lon="5.82293">
        <ele>562</ele>
        <time>2019-03-19T16:05:39Z</time>
      </trkpt>
      <trkpt lat="44.28929" lon="5.82294">
        <ele>562</ele>
        <time>2019-03-19T16:05:40Z</time>
      </trkpt>
      <trkpt lat="44.28935" lon="5.82294">
        <ele>562</ele>
        <time>2019-03-19T16:05:41Z</time>
      </trkpt>
      <trkpt lat="44.28941" lon="5.82294">
        <ele>562</ele>
        <time>2019-03-19T16:05:42Z</time>
      </trkpt>
      <trkpt lat="44.28947" lon="5.82294">
        <ele>562</ele>
        <time>2019-03-19T16:05:43Z</time>
      </trkpt>
      <trkpt lat="44.28952" lon="5.82293">
        <ele>562</ele>
        <time>2019-03-19T16:05:44Z</time>
      </trkpt>
      <trkpt lat="44.28958" lon="5.82293">
        <ele>562</ele>
        <time>2019-03-19T16:05:45Z</time>
      </trkpt>
      <trkpt lat="44.28964" lon="5.82292">
        <ele>562</ele>
        <time>2019-03-19T16:05:46Z</time>
      </trkpt>
      <trkpt lat="44.2897" lon="5.82291">
        <ele>562</ele>
        <time>2019-03-19T16:05:47Z</time>
      </trkpt>
      <trkpt lat="44.28977" lon="5.82291">
        <ele>562</ele>
        <time>2019-03-19T16:05:48Z</time>
      </trkpt>
      <trkpt lat="44.28983" lon="5.8229">
        <ele>562</ele>
        <time>2019-03-19T16:05:49Z</time>
      </trkpt>
      <trkpt lat="44.28989" lon="5.82289">
        <ele>562</ele>
        <time>2019-03-19T16:05:50Z</time>
      </trkpt>
      <trkpt lat="44.28996" lon="5.82289">
        <ele>562</ele>
        <time>2019-03-19T16:05:51Z</time>
      </trkpt>
      <trkpt lat="44.29002" lon="5.82288">
        <ele>562</ele>
        <time>2019-03-19T16:05:52Z</time>
      </trkpt>
      <trkpt lat="44.29009" lon="5.82288">
        <ele>562</ele>
        <time>2019-03-19T16:05:53Z</time>
      </trkpt>
      <trkpt lat="44.29015" lon="5.82287">
        <ele>562</ele>
        <time>2019-03-19T16:05:54Z</time>
      </trkpt>
      <trkpt lat="44.29021" lon="5.82287">
        <ele>562</ele>
        <time>2019-03-19T16:05:55Z</time>
      </trkpt>
      <trkpt lat="44.29027" lon="5.82287">
        <ele>562</ele>
        <time>2019-03-19T16:05:56Z</time>
      </trkpt>
      <trkpt lat="44.29034" lon="5.82286">
        <ele>562</ele>
        <time>2019-03-19T16:05:57Z</time>
      </trkpt>
      <trkpt lat="44.2904" lon="5.82286">
        <ele>562</ele>
        <time>2019-03-19T16:05:58Z</time>
      </trkpt>
      <trkpt lat="44.29046" lon="5.82285">
        <ele>562</ele>
        <time>2019-03-19T16:05:59Z</time>
      </trkpt>
      <trkpt lat="44.29053" lon="5.82284">
        <ele>562</ele>
        <time>2019-03-19T16:06:00Z</time>
      </trkpt>
      <trkpt lat="44.29059" lon="5.82284">
        <ele>562</ele>
        <time>2019-03-19T16:06:01Z</time>
      </trkpt>
      <trkpt lat="44.29066" lon="5.82283">
        <ele>562</ele>
        <time>2019-03-19T16:06:02Z</time>
      </trkpt>
      <trkpt lat="44.29073" lon="5.82283">
        <ele>562</ele>
        <time>2019-03-19T16:06:03Z</time>
      </trkpt>
      <trkpt lat="44.29079" lon="5.82282">
        <ele>562</ele>
        <time>2019-03-19T16:06:04Z</time>
      </trkpt>
      <trkpt lat="44.29086" lon="5.82281">
        <ele>562</ele>
        <time>2019-03-19T16:06:05Z</time>
      </trkpt>
      <trkpt lat="44.29092" lon="5.8228">
        <ele>562</ele>
        <time>2019-03-19T16:06:06Z</time>
      </trkpt>
      <trkpt lat="44.29099" lon="5.8228">
        <ele>562</ele>
        <time>2019-03-19T16:06:07Z</time>
      </trkpt>
      <trkpt lat="44.29105" lon="5.82279">
        <ele>562</ele>
        <time>2019-03-19T16:06:08Z</time>
      </trkpt>
      <trkpt lat="44.2911" lon="5.82279">
        <ele>562</ele>
        <time>2019-03-19T16:06:09Z</time>
      </trkpt>
      <trkpt lat="44.29116" lon="5.82278">
        <ele>562</ele>
        <time>2019-03-19T16:06:10Z</time>
      </trkpt>
      <trkpt lat="44.29122" lon="5.82277">
        <ele>562</ele>
        <time>2019-03-19T16:06:11Z</time>
      </trkpt>
      <trkpt lat="44.29128" lon="5.82276">
        <ele>562</ele>
        <time>2019-03-19T16:06:12Z</time>
      </trkpt>
      <trkpt lat="44.29133" lon="5.82275">
        <ele>562</ele>
        <time>2019-03-19T16:06:13Z</time>
      </trkpt>
      <trkpt lat="44.29139" lon="5.82275">
        <ele>562</ele>
        <time>2019-03-19T16:06:14Z</time>
      </trkpt>
      <trkpt lat="44.29145" lon="5.82274">
        <ele>562</ele>
        <time>2019-03-19T16:06:15Z</time>
      </trkpt>
      <trkpt lat="44.2915" lon="5.82274">
        <ele>562</ele>
        <time>2019-03-19T16:06:16Z</time>
      </trkpt>
      <trkpt lat="44.29156" lon="5.82273">
        <ele>562</ele>
        <time>2019-03-19T16:06:17Z</time>
      </trkpt>
      <trkpt lat="44.29162" lon="5.82272">
        <ele>562</ele>
        <time>2019-03-19T16:06:18Z</time>
      </trkpt>
      <trkpt lat="44.29168" lon="5.82272">
        <ele>562</ele>
        <time>2019-03-19T16:06:19Z</time>
      </trkpt>
      <trkpt lat="44.29174" lon="5.82271">
        <ele>562</ele>
        <time>2019-03-19T16:06:20Z</time>
      </trkpt>
      <trkpt lat="44.29179" lon="5.8227">
        <ele>562</ele>
        <time>2019-03-19T16:06:21Z</time>
      </trkpt>
      <trkpt lat="44.29185" lon="5.82269">
        <ele>562</ele>
        <time>2019-03-19T16:06:22Z</time>
      </trkpt>
      <trkpt lat="44.29191" lon="5.82269">
        <ele>562</ele>
        <time>2019-03-19T16:06:23Z</time>
      </trkpt>
      <trkpt lat="44.29197" lon="5.82268">
        <ele>562</ele>
        <time>2019-03-19T16:06:24Z</time>
      </trkpt>
      <trkpt lat="44.29202" lon="5.82268">
        <ele>562</ele>
        <time>2019-03-19T16:06:25Z</time>
      </trkpt>
      <trkpt lat="44.29208" lon="5.82267">
        <ele>562</ele>
        <time>2019-03-19T16:06:26Z</time>
      </trkpt>
      <trkpt lat="44.29213" lon="5.82266">
        <ele>562</ele>
        <time>2019-03-19T16:06:27Z</time>
      </trkpt>
      <trkpt lat="44.29219" lon="5.82266">
        <ele>562</ele>
        <time>2019-03-19T16:06:28Z</time>
      </trkpt>
      <trkpt lat="44.29224" lon="5.82265">
        <ele>562</ele>
        <time>2019-03-19T16:06:29Z</time>
      </trkpt>
      <trkpt lat="44.2923" lon="5.82264">
        <ele>562</ele>
        <time>2019-03-19T16:06:30Z</time>
      </trkpt>
      <trkpt lat="44.29235" lon="5.82263">
        <ele>562</ele>
        <time>2019-03-19T16:06:31Z</time>
      </trkpt>
      <trkpt lat="44.29241" lon="5.82262">
        <ele>562</ele>
        <time>2019-03-19T16:06:32Z</time>
      </trkpt>
      <trkpt lat="44.29246" lon="5.82261">
        <ele>562</ele>
        <time>2019-03-19T16:06:33Z</time>
      </trkpt>
      <trkpt lat="44.29251" lon="5.8226">
        <ele>562</ele>
        <time>2019-03-19T16:06:34Z</time>
      </trkpt>
      <trkpt lat="44.29256" lon="5.82258">
        <ele>562</ele>
        <time>2019-03-19T16:06:35Z</time>
      </trkpt>
      <trkpt lat="44.29261" lon="5.82256">
        <ele>562</ele>
        <time>2019-03-19T16:06:36Z</time>
      </trkpt>
      <trkpt lat="44.29266" lon="5.82254">
        <ele>562</ele>
        <time>2019-03-19T16:06:37Z</time>
      </trkpt>
      <trkpt lat="44.29271" lon="5.82252">
        <ele>562</ele>
        <time>2019-03-19T16:06:38Z</time>
      </trkpt>
      <trkpt lat="44.29277" lon="5.8225">
        <ele>562</ele>
        <time>2019-03-19T16:06:39Z</time>
      </trkpt>
      <trkpt lat="44.29282" lon="5.82247">
        <ele>562</ele>
        <time>2019-03-19T16:06:40Z</time>
      </trkpt>
      <trkpt lat="44.29287" lon="5.82245">
        <ele>562</ele>
        <time>2019-03-19T16:06:41Z</time>
      </trkpt>
      <trkpt lat="44.29292" lon="5.82243">
        <ele>562</ele>
        <time>2019-03-19T16:06:42Z</time>
      </trkpt>
      <trkpt lat="44.29297" lon="5.82241">
        <ele>562</ele>
        <time>2019-03-19T16:06:43Z</time>
      </trkpt>
      <trkpt lat="44.29302" lon="5.82239">
        <ele>562</ele>
        <time>2019-03-19T16:06:44Z</time>
      </trkpt>
      <trkpt lat="44.29307" lon="5.82237">
        <ele>562</ele>
        <time>2019-03-19T16:06:45Z</time>
      </trkpt>
      <trkpt lat="44.29311" lon="5.82234">
        <ele>562</ele>
        <time>2019-03-19T16:06:46Z</time>
      </trkpt>
      <trkpt lat="44.29316" lon="5.82233">
        <ele>562</ele>
        <time>2019-03-19T16:06:47Z</time>
      </trkpt>
      <trkpt lat="44.29321" lon="5.82231">
        <ele>562</ele>
        <time>2019-03-19T16:06:48Z</time>
      </trkpt>
      <trkpt lat="44.29325" lon="5.82229">
        <ele>562</ele>
        <time>2019-03-19T16:06:49Z</time>
      </trkpt>
      <trkpt lat="44.2933" lon="5.82227">
        <ele>562</ele>
        <time>2019-03-19T16:06:50Z</time>
      </trkpt>
      <trkpt lat="44.29334" lon="5.82225">
        <ele>562</ele>
        <time>2019-03-19T16:06:51Z</time>
      </trkpt>
      <trkpt lat="44.29338" lon="5.82223">
        <ele>562</ele>
        <time>2019-03-19T16:06:52Z</time>
      </trkpt>
      <trkpt lat="44.29343" lon="5.82221">
        <ele>562</ele>
        <time>2019-03-19T16:06:53Z</time>
      </trkpt>
      <trkpt lat="44.29346" lon="5.82219">
        <ele>562</ele>
        <time>2019-03-19T16:06:54Z</time>
      </trkpt>
      <trkpt lat="44.29351" lon="5.82217">
        <ele>562</ele>
        <time>2019-03-19T16:06:55Z</time>
      </trkpt>
      <trkpt lat="44.29354" lon="5.82215">
        <ele>562</ele>
        <time>2019-03-19T16:06:56Z</time>
      </trkpt>
      <trkpt lat="44.29359" lon="5.82212">
        <ele>562</ele>
        <time>2019-03-19T16:06:57Z</time>
      </trkpt>
      <trkpt lat="44.29362" lon="5.8221">
        <ele>562</ele>
        <time>2019-03-19T16:06:58Z</time>
      </trkpt>
      <trkpt lat="44.29367" lon="5.82208">
        <ele>562</ele>
        <time>2019-03-19T16:06:59Z</time>
      </trkpt>
      <trkpt lat="44.2937" lon="5.82204">
        <ele>562</ele>
        <time>2019-03-19T16:07:00Z</time>
      </trkpt>
      <trkpt lat="44.29374" lon="5.82201">
        <ele>562</ele>
        <time>2019-03-19T16:07:01Z</time>
      </trkpt>
      <trkpt lat="44.29378" lon="5.82198">
        <ele>562</ele>
        <time>2019-03-19T16:07:02Z</time>
      </trkpt>
      <trkpt lat="44.29382" lon="5.82194">
        <ele>562</ele>
        <time>2019-03-19T16:07:03Z</time>
      </trkpt>
      <trkpt lat="44.29385" lon="5.82189">
        <ele>562</ele>
        <time>2019-03-19T16:07:04Z</time>
      </trkpt>
      <trkpt lat="44.29389" lon="5.82185">
        <ele>562</ele>
        <time>2019-03-19T16:07:05Z</time>
      </trkpt>
      <trkpt lat="44.29393" lon="5.82181">
        <ele>562</ele>
        <time>2019-03-19T16:07:06Z</time>
      </trkpt>
      <trkpt lat="44.29397" lon="5.82177">
        <ele>562</ele>
        <time>2019-03-19T16:07:07Z</time>
      </trkpt>
      <trkpt lat="44.29401" lon="5.82172">
        <ele>562</ele>
        <time>2019-03-19T16:07:08Z</time>
      </trkpt>
      <trkpt lat="44.29406" lon="5.82167">
        <ele>562</ele>
        <time>2019-03-19T16:07:09Z</time>
      </trkpt>
      <trkpt lat="44.2941" lon="5.82163">
        <ele>562</ele>
        <time>2019-03-19T16:07:10Z</time>
      </trkpt>
      <trkpt lat="44.29414" lon="5.82158">
        <ele>562</ele>
        <time>2019-03-19T16:07:11Z</time>
      </trkpt>
      <trkpt lat="44.29419" lon="5.82152">
        <ele>562</ele>
        <time>2019-03-19T16:07:12Z</time>
      </trkpt>
      <trkpt lat="44.29423" lon="5.82147">
        <ele>562</ele>
        <time>2019-03-19T16:07:13Z</time>
      </trkpt>
      <trkpt lat="44.29428" lon="5.82142">
        <ele>562</ele>
        <time>2019-03-19T16:07:14Z</time>
      </trkpt>
      <trkpt lat="44.29433" lon="5.82137">
        <ele>562</ele>
        <time>2019-03-19T16:07:15Z</time>
      </trkpt>
      <trkpt lat="44.29438" lon="5.82131">
        <ele>562</ele>
        <time>2019-03-19T16:07:16Z</time>
      </trkpt>
      <trkpt lat="44.29443" lon="5.82127">
        <ele>562</ele>
        <time>2019-03-19T16:07:17Z</time>
      </trkpt>
      <trkpt lat="44.29448" lon="5.82122">
        <ele>562</ele>
        <time>2019-03-19T16:07:18Z</time>
      </trkpt>
      <trkpt lat="44.29454" lon="5.82118">
        <ele>562</ele>
        <time>2019-03-19T16:07:19Z</time>
      </trkpt>
      <trkpt lat="44.29459" lon="5.82114">
        <ele>562</ele>
        <time>2019-03-19T16:07:20Z</time>
      </trkpt>
      <trkpt lat="44.29465" lon="5.8211">
        <ele>562</ele>
        <time>2019-03-19T16:07:21Z</time>
      </trkpt>
      <trkpt lat="44.29471" lon="5.82107">
        <ele>562</ele>
        <time>2019-03-19T16:07:22Z</time>
      </trkpt>
      <trkpt lat="44.29477" lon="5.82105">
        <ele>562</ele>
        <time>2019-03-19T16:07:23Z</time>
      </trkpt>
      <trkpt lat="44.29483" lon="5.82103">
        <ele>562</ele>
        <time>2019-03-19T16:07:24Z</time>
      </trkpt>
      <trkpt lat="44.29489" lon="5.82102">
        <ele>562</ele>
        <time>2019-03-19T16:07:25Z</time>
      </trkpt>
      <trkpt lat="44.29495" lon="5.82101">
        <ele>562</ele>
        <time>2019-03-19T16:07:26Z</time>
      </trkpt>
      <trkpt lat="44.29501" lon="5.82102">
        <ele>562</ele>
        <time>2019-03-19T16:07:27Z</time>
      </trkpt>
      <trkpt lat="44.29507" lon="5.82102">
        <ele>562</ele>
        <time>2019-03-19T16:07:28Z</time>
      </trkpt>
      <trkpt lat="44.29513" lon="5.82103">
        <ele>562</ele>
        <time>2019-03-19T16:07:29Z</time>
      </trkpt>
      <trkpt lat="44.29519" lon="5.82103">
        <ele>562</ele>
        <time>2019-03-19T16:07:30Z</time>
      </trkpt>
      <trkpt lat="44.29525" lon="5.82104">
        <ele>562</ele>
        <time>2019-03-19T16:07:31Z</time>
      </trkpt>
      <trkpt lat="44.29532" lon="5.82104">
        <ele>562</ele>
        <time>2019-03-19T16:07:32Z</time>
      </trkpt>
      <trkpt lat="44.29538" lon="5.82106">
        <ele>562</ele>
        <time>2019-03-19T16:07:33Z</time>
      </trkpt>
      <trkpt lat="44.29545" lon="5.82107">
        <ele>562</ele>
        <time>2019-03-19T16:07:34Z</time>
      </trkpt>
      <trkpt lat="44.29552" lon="5.82108">
        <ele>562</ele>
        <time>2019-03-19T16:07:35Z</time>
      </trkpt>
      <trkpt lat="44.29559" lon="5.8211">
        <ele>562</ele>
        <time>2019-03-19T16:07:36Z</time>
      </trkpt>
      <trkpt lat="44.29565" lon="5.82112">
        <ele>562</ele>
        <time>2019-03-19T16:07:37Z</time>
      </trkpt>
      <trkpt lat="44.29572" lon="5.82114">
        <ele>562</ele>
        <time>2019-03-19T16:07:38Z</time>
      </trkpt>
      <trkpt lat="44.29578" lon="5.82116">
        <ele>562</ele>
        <time>2019-03-19T16:07:39Z</time>
      </trkpt>
      <trkpt lat="44.29585" lon="5.82119">
        <ele>562</ele>
        <time>2019-03-19T16:07:40Z</time>
      </trkpt>
      <trkpt lat="44.29591" lon="5.82122">
        <ele>562</ele>
        <time>2019-03-19T16:07:41Z</time>
      </trkpt>
      <trkpt lat="44.29598" lon="5.82125">
        <ele>562</ele>
        <time>2019-03-19T16:07:42Z</time>
      </trkpt>
      <trkpt lat="44.29604" lon="5.82129">
        <ele>562</ele>
        <time>2019-03-19T16:07:43Z</time>
      </trkpt>
      <trkpt lat="44.29611" lon="5.82133">
        <ele>561</ele>
        <time>2019-03-19T16:07:44Z</time>
      </trkpt>
      <trkpt lat="44.29617" lon="5.82137">
        <ele>561</ele>
        <time>2019-03-19T16:07:45Z</time>
      </trkpt>
      <trkpt lat="44.29624" lon="5.82142">
        <ele>561</ele>
        <time>2019-03-19T16:07:46Z</time>
      </trkpt>
      <trkpt lat="44.2963" lon="5.82148">
        <ele>561</ele>
        <time>2019-03-19T16:07:47Z</time>
      </trkpt>
      <trkpt lat="44.29637" lon="5.82153">
        <ele>560</ele>
        <time>2019-03-19T16:07:48Z</time>
      </trkpt>
      <trkpt lat="44.29643" lon="5.82159">
        <ele>560</ele>
        <time>2019-03-19T16:07:49Z</time>
      </trkpt>
      <trkpt lat="44.29649" lon="5.82165">
        <ele>560</ele>
        <time>2019-03-19T16:07:50Z</time>
      </trkpt>
      <trkpt lat="44.29655" lon="5.82172">
        <ele>560</ele>
        <time>2019-03-19T16:07:51Z</time>
      </trkpt>
      <trkpt lat="44.29661" lon="5.82178">
        <ele>560</ele>
        <time>2019-03-19T16:07:52Z</time>
      </trkpt>
      <trkpt lat="44.29667" lon="5.82185">
        <ele>560</ele>
        <time>2019-03-19T16:07:53Z</time>
      </trkpt>
      <trkpt lat="44.29673" lon="5.82191">
        <ele>560</ele>
        <time>2019-03-19T16:07:54Z</time>
      </trkpt>
      <trkpt lat="44.29678" lon="5.82196">
        <ele>559</ele>
        <time>2019-03-19T16:07:55Z</time>
      </trkpt>
      <trkpt lat="44.29683" lon="5.82202">
        <ele>559</ele>
        <time>2019-03-19T16:07:56Z</time>
      </trkpt>
      <trkpt lat="44.29689" lon="5.82207">
        <ele>559</ele>
        <time>2019-03-19T16:07:57Z</time>
      </trkpt>
      <trkpt lat="44.29694" lon="5.82212">
        <ele>559</ele>
        <time>2019-03-19T16:07:58Z</time>
      </trkpt>
      <trkpt lat="44.29699" lon="5.82217">
        <ele>559</ele>
        <time>2019-03-19T16:07:59Z</time>
      </trkpt>
      <trkpt lat="44.29705" lon="5.82221">
        <ele>559</ele>
        <time>2019-03-19T16:08:00Z</time>
      </trkpt>
      <trkpt lat="44.29711" lon="5.82225">
        <ele>559</ele>
        <time>2019-03-19T16:08:01Z</time>
      </trkpt>
      <trkpt lat="44.29716" lon="5.82229">
        <ele>559</ele>
        <time>2019-03-19T16:08:02Z</time>
      </trkpt>
      <trkpt lat="44.29723" lon="5.82232">
        <ele>559</ele>
        <time>2019-03-19T16:08:03Z</time>
      </trkpt>
      <trkpt lat="44.29729" lon="5.82236">
        <ele>558</ele>
        <time>2019-03-19T16:08:04Z</time>
      </trkpt>
      <trkpt lat="44.29735" lon="5.82239">
        <ele>558</ele>
        <time>2019-03-19T16:08:05Z</time>
      </trkpt>
      <trkpt lat="44.29741" lon="5.82242">
        <ele>558</ele>
        <time>2019-03-19T16:08:06Z</time>
      </trkpt>
      <trkpt lat="44.29748" lon="5.82244">
        <ele>558</ele>
        <time>2019-03-19T16:08:07Z</time>
      </trkpt>
      <trkpt lat="44.29754" lon="5.82246">
        <ele>558</ele>
        <time>2019-03-19T16:08:08Z</time>
      </trkpt>
      <trkpt lat="44.29761" lon="5.82249">
        <ele>558</ele>
        <time>2019-03-19T16:08:09Z</time>
      </trkpt>
      <trkpt lat="44.29768" lon="5.82251">
        <ele>558</ele>
        <time>2019-03-19T16:08:10Z</time>
      </trkpt>
      <trkpt lat="44.29774" lon="5.82253">
        <ele>558</ele>
        <time>2019-03-19T16:08:11Z</time>
      </trkpt>
      <trkpt lat="44.29781" lon="5.82254">
        <ele>558</ele>
        <time>2019-03-19T16:08:12Z</time>
      </trkpt>
      <trkpt lat="44.29788" lon="5.82255">
        <ele>558</ele>
        <time>2019-03-19T16:08:13Z</time>
      </trkpt>
      <trkpt lat="44.29795" lon="5.82256">
        <ele>558</ele>
        <time>2019-03-19T16:08:14Z</time>
      </trkpt>
      <trkpt lat="44.29802" lon="5.82258">
        <ele>558</ele>
        <time>2019-03-19T16:08:15Z</time>
      </trkpt>
      <trkpt lat="44.29808" lon="5.82259">
        <ele>558</ele>
        <time>2019-03-19T16:08:16Z</time>
      </trkpt>
      <trkpt lat="44.29816" lon="5.8226">
        <ele>558</ele>
        <time>2019-03-19T16:08:17Z</time>
      </trkpt>
      <trkpt lat="44.29823" lon="5.82261">
        <ele>558</ele>
        <time>2019-03-19T16:08:18Z</time>
      </trkpt>
      <trkpt lat="44.2983" lon="5.82262">
        <ele>558</ele>
        <time>2019-03-19T16:08:19Z</time>
      </trkpt>
      <trkpt lat="44.29837" lon="5.82265">
        <ele>558</ele>
        <time>2019-03-19T16:08:20Z</time>
      </trkpt>
      <trkpt lat="44.29845" lon="5.82267">
        <ele>558</ele>
        <time>2019-03-19T16:08:21Z</time>
      </trkpt>
      <trkpt lat="44.29852" lon="5.8227">
        <ele>558</ele>
        <time>2019-03-19T16:08:22Z</time>
      </trkpt>
      <trkpt lat="44.29859" lon="5.82273">
        <ele>558</ele>
        <time>2019-03-19T16:08:23Z</time>
      </trkpt>
      <trkpt lat="44.29866" lon="5.82276">
        <ele>558</ele>
        <time>2019-03-19T16:08:24Z</time>
      </trkpt>
      <trkpt lat="44.29873" lon="5.82279">
        <ele>558</ele>
        <time>2019-03-19T16:08:25Z</time>
      </trkpt>
      <trkpt lat="44.2988" lon="5.82283">
        <ele>558</ele>
        <time>2019-03-19T16:08:26Z</time>
      </trkpt>
      <trkpt lat="44.29887" lon="5.82287">
        <ele>558</ele>
        <time>2019-03-19T16:08:27Z</time>
      </trkpt>
      <trkpt lat="44.29893" lon="5.8229">
        <ele>558</ele>
        <time>2019-03-19T16:08:28Z</time>
      </trkpt>
      <trkpt lat="44.299" lon="5.82294">
        <ele>558</ele>
        <time>2019-03-19T16:08:29Z</time>
      </trkpt>
      <trkpt lat="44.29906" lon="5.82298">
        <ele>558</ele>
        <time>2019-03-19T16:08:30Z</time>
      </trkpt>
      <trkpt lat="44.29913" lon="5.82302">
        <ele>558</ele>
        <time>2019-03-19T16:08:31Z</time>
      </trkpt>
      <trkpt lat="44.29919" lon="5.82306">
        <ele>558</ele>
        <time>2019-03-19T16:08:32Z</time>
      </trkpt>
      <trkpt lat="44.29926" lon="5.82309">
        <ele>558</ele>
        <time>2019-03-19T16:08:33Z</time>
      </trkpt>
      <trkpt lat="44.29932" lon="5.82312">
        <ele>558</ele>
        <time>2019-03-19T16:08:34Z</time>
      </trkpt>
      <trkpt lat="44.29938" lon="5.82315">
        <ele>558</ele>
        <time>2019-03-19T16:08:35Z</time>
      </trkpt>
      <trkpt lat="44.29945" lon="5.82318">
        <ele>558</ele>
        <time>2019-03-19T16:08:36Z</time>
      </trkpt>
      <trkpt lat="44.29951" lon="5.8232">
        <ele>558</ele>
        <time>2019-03-19T16:08:37Z</time>
      </trkpt>
      <trkpt lat="44.29957" lon="5.82323">
        <ele>558</ele>
        <time>2019-03-19T16:08:38Z</time>
      </trkpt>
      <trkpt lat="44.29963" lon="5.82325">
        <ele>558</ele>
        <time>2019-03-19T16:08:39Z</time>
      </trkpt>
      <trkpt lat="44.29969" lon="5.82328">
        <ele>558</ele>
        <time>2019-03-19T16:08:40Z</time>
      </trkpt>
      <trkpt lat="44.29975" lon="5.8233">
        <ele>558</ele>
        <time>2019-03-19T16:08:41Z</time>
      </trkpt>
      <trkpt lat="44.29982" lon="5.82332">
        <ele>558</ele>
        <time>2019-03-19T16:08:42Z</time>
      </trkpt>
      <trkpt lat="44.29988" lon="5.82335">
        <ele>558</ele>
        <time>2019-03-19T16:08:43Z</time>
      </trkpt>
      <trkpt lat="44.29994" lon="5.82337">
        <ele>558</ele>
        <time>2019-03-19T16:08:44Z</time>
      </trkpt>
      <trkpt lat="44.30001" lon="5.82338">
        <ele>558</ele>
        <time>2019-03-19T16:08:45Z</time>
      </trkpt>
      <trkpt lat="44.30007" lon="5.8234">
        <ele>558</ele>
        <time>2019-03-19T16:08:46Z</time>
      </trkpt>
      <trkpt lat="44.30013" lon="5.82341">
        <ele>558</ele>
        <time>2019-03-19T16:08:47Z</time>
      </trkpt>
      <trkpt lat="44.30019" lon="5.82343">
        <ele>558</ele>
        <time>2019-03-19T16:08:48Z</time>
      </trkpt>
      <trkpt lat="44.30025" lon="5.82344">
        <ele>558</ele>
        <time>2019-03-19T16:08:49Z</time>
      </trkpt>
      <trkpt lat="44.30032" lon="5.82345">
        <ele>558</ele>
        <time>2019-03-19T16:08:50Z</time>
      </trkpt>
      <trkpt lat="44.30038" lon="5.82346">
        <ele>558</ele>
        <time>2019-03-19T16:08:51Z</time>
      </trkpt>
      <trkpt lat="44.30044" lon="5.82347">
        <ele>558</ele>
        <time>2019-03-19T16:08:52Z</time>
      </trkpt>
      <trkpt lat="44.3005" lon="5.82348">
        <ele>558</ele>
        <time>2019-03-19T16:08:53Z</time>
      </trkpt>
      <trkpt lat="44.30056" lon="5.82349">
        <ele>558</ele>
        <time>2019-03-19T16:08:54Z</time>
      </trkpt>
      <trkpt lat="44.30062" lon="5.8235">
        <ele>558</ele>
        <time>2019-03-19T16:08:55Z</time>
      </trkpt>
      <trkpt lat="44.30068" lon="5.8235">
        <ele>558</ele>
        <time>2019-03-19T16:08:56Z</time>
      </trkpt>
      <trkpt lat="44.30075" lon="5.82351">
        <ele>558</ele>
        <time>2019-03-19T16:08:57Z</time>
      </trkpt>
      <trkpt lat="44.30081" lon="5.82351">
        <ele>558</ele>
        <time>2019-03-19T16:08:58Z</time>
      </trkpt>
      <trkpt lat="44.30088" lon="5.82351">
        <ele>558</ele>
        <time>2019-03-19T16:08:59Z</time>
      </trkpt>
      <trkpt lat="44.30094" lon="5.82352">
        <ele>558</ele>
        <time>2019-03-19T16:09:00Z</time>
      </trkpt>
      <trkpt lat="44.301" lon="5.82352">
        <ele>558</ele>
        <time>2019-03-19T16:09:01Z</time>
      </trkpt>
      <trkpt lat="44.30107" lon="5.82352">
        <ele>558</ele>
        <time>2019-03-19T16:09:02Z</time>
      </trkpt>
      <trkpt lat="44.30113" lon="5.82352">
        <ele>558</ele>
        <time>2019-03-19T16:09:03Z</time>
      </trkpt>
      <trkpt lat="44.3012" lon="5.82352">
        <ele>558</ele>
        <time>2019-03-19T16:09:04Z</time>
      </trkpt>
      <trkpt lat="44.30126" lon="5.82353">
        <ele>558</ele>
        <time>2019-03-19T16:09:05Z</time>
      </trkpt>
      <trkpt lat="44.30133" lon="5.82353">
        <ele>558</ele>
        <time>2019-03-19T16:09:06Z</time>
      </trkpt>
      <trkpt lat="44.30139" lon="5.82353">
        <ele>558</ele>
        <time>2019-03-19T16:09:07Z</time>
      </trkpt>
      <trkpt lat="44.30146" lon="5.82353">
        <ele>558</ele>
        <time>2019-03-19T16:09:08Z</time>
      </trkpt>
      <trkpt lat="44.30152" lon="5.82354">
        <ele>558</ele>
        <time>2019-03-19T16:09:09Z</time>
      </trkpt>
      <trkpt lat="44.30159" lon="5.82354">
        <ele>558</ele>
        <time>2019-03-19T16:09:10Z</time>
      </trkpt>
      <trkpt lat="44.30165" lon="5.82354">
        <ele>558</ele>
        <time>2019-03-19T16:09:11Z</time>
      </trkpt>
      <trkpt lat="44.30171" lon="5.82355">
        <ele>558</ele>
        <time>2019-03-19T16:09:12Z</time>
      </trkpt>
      <trkpt lat="44.30177" lon="5.82356">
        <ele>558</ele>
        <time>2019-03-19T16:09:13Z</time>
      </trkpt>
      <trkpt lat="44.30183" lon="5.82356">
        <ele>558</ele>
        <time>2019-03-19T16:09:14Z</time>
      </trkpt>
      <trkpt lat="44.30189" lon="5.82357">
        <ele>558</ele>
        <time>2019-03-19T16:09:15Z</time>
      </trkpt>
      <trkpt lat="44.30195" lon="5.82357">
        <ele>558</ele>
        <time>2019-03-19T16:09:16Z</time>
      </trkpt>
      <trkpt lat="44.30201" lon="5.82357">
        <ele>558</ele>
        <time>2019-03-19T16:09:17Z</time>
      </trkpt>
      <trkpt lat="44.30207" lon="5.82358">
        <ele>558</ele>
        <time>2019-03-19T16:09:18Z</time>
      </trkpt>
      <trkpt lat="44.30214" lon="5.82358">
        <ele>558</ele>
        <time>2019-03-19T16:09:19Z</time>
      </trkpt>
      <trkpt lat="44.3022" lon="5.82357">
        <ele>558</ele>
        <time>2019-03-19T16:09:20Z</time>
      </trkpt>
      <trkpt lat="44.30226" lon="5.82357">
        <ele>558</ele>
        <time>2019-03-19T16:09:21Z</time>
      </trkpt>
      <trkpt lat="44.30232" lon="5.82357">
        <ele>558</ele>
        <time>2019-03-19T16:09:22Z</time>
      </trkpt>
      <trkpt lat="44.30238" lon="5.82356">
        <ele>558</ele>
        <time>2019-03-19T16:09:23Z</time>
      </trkpt>
      <trkpt lat="44.30244" lon="5.82356">
        <ele>558</ele>
        <time>2019-03-19T16:09:24Z</time>
      </trkpt>
      <trkpt lat="44.3025" lon="5.82355">
        <ele>558</ele>
        <time>2019-03-19T16:09:25Z</time>
      </trkpt>
      <trkpt lat="44.30256" lon="5.82354">
        <ele>558</ele>
        <time>2019-03-19T16:09:26Z</time>
      </trkpt>
      <trkpt lat="44.30262" lon="5.82353">
        <ele>558</ele>
        <time>2019-03-19T16:09:27Z</time>
      </trkpt>
      <trkpt lat="44.30268" lon="5.82352">
        <ele>558</ele>
        <time>2019-03-19T16:09:28Z</time>
      </trkpt>
      <trkpt lat="44.30274" lon="5.82351">
        <ele>558</ele>
        <time>2019-03-19T16:09:29Z</time>
      </trkpt>
      <trkpt lat="44.3028" lon="5.8235">
        <ele>558</ele>
        <time>2019-03-19T16:09:30Z</time>
      </trkpt>
      <trkpt lat="44.30286" lon="5.82348">
        <ele>558</ele>
        <time>2019-03-19T16:09:31Z</time>
      </trkpt>
      <trkpt lat="44.30292" lon="5.82347">
        <ele>558</ele>
        <time>2019-03-19T16:09:32Z</time>
      </trkpt>
      <trkpt lat="44.30298" lon="5.82346">
        <ele>558</ele>
        <time>2019-03-19T16:09:33Z</time>
      </trkpt>
      <trkpt lat="44.30304" lon="5.82345">
        <ele>558</ele>
        <time>2019-03-19T16:09:34Z</time>
      </trkpt>
      <trkpt lat="44.3031" lon="5.82344">
        <ele>558</ele>
        <time>2019-03-19T16:09:35Z</time>
      </trkpt>
      <trkpt lat="44.30315" lon="5.82342">
        <ele>558</ele>
        <time>2019-03-19T16:09:36Z</time>
      </trkpt>
      <trkpt lat="44.30321" lon="5.82341">
        <ele>558</ele>
        <time>2019-03-19T16:09:37Z</time>
      </trkpt>
      <trkpt lat="44.30327" lon="5.8234">
        <ele>558</ele>
        <time>2019-03-19T16:09:38Z</time>
      </trkpt>
      <trkpt lat="44.30333" lon="5.82339">
        <ele>558</ele>
        <time>2019-03-19T16:09:39Z</time>
      </trkpt>
      <trkpt lat="44.30339" lon="5.82338">
        <ele>558</ele>
        <time>2019-03-19T16:09:40Z</time>
      </trkpt>
      <trkpt lat="44.30344" lon="5.82337">
        <ele>558</ele>
        <time>2019-03-19T16:09:41Z</time>
      </trkpt>
      <trkpt lat="44.3035" lon="5.82335">
        <ele>558</ele>
        <time>2019-03-19T16:09:42Z</time>
      </trkpt>
      <trkpt lat="44.30356" lon="5.82334">
        <ele>558</ele>
        <time>2019-03-19T16:09:43Z</time>
      </trkpt>
      <trkpt lat="44.30362" lon="5.82333">
        <ele>558</ele>
        <time>2019-03-19T16:09:44Z</time>
      </trkpt>
      <trkpt lat="44.30368" lon="5.82332">
        <ele>558</ele>
        <time>2019-03-19T16:09:45Z</time>
      </trkpt>
      <trkpt lat="44.30373" lon="5.82331">
        <ele>558</ele>
        <time>2019-03-19T16:09:46Z</time>
      </trkpt>
      <trkpt lat="44.30379" lon="5.8233">
        <ele>558</ele>
        <time>2019-03-19T16:09:47Z</time>
      </trkpt>
      <trkpt lat="44.30385" lon="5.82329">
        <ele>558</ele>
        <time>2019-03-19T16:09:48Z</time>
      </trkpt>
      <trkpt lat="44.3039" lon="5.82328">
        <ele>558</ele>
        <time>2019-03-19T16:09:49Z</time>
      </trkpt>
      <trkpt lat="44.30396" lon="5.82327">
        <ele>558</ele>
        <time>2019-03-19T16:09:50Z</time>
      </trkpt>
      <trkpt lat="44.30401" lon="5.82327">
        <ele>558</ele>
        <time>2019-03-19T16:09:51Z</time>
      </trkpt>
      <trkpt lat="44.30407" lon="5.82326">
        <ele>558</ele>
        <time>2019-03-19T16:09:52Z</time>
      </trkpt>
      <trkpt lat="44.30412" lon="5.82326">
        <ele>558</ele>
        <time>2019-03-19T16:09:53Z</time>
      </trkpt>
      <trkpt lat="44.30417" lon="5.82325">
        <ele>558</ele>
        <time>2019-03-19T16:09:54Z</time>
      </trkpt>
      <trkpt lat="44.30422" lon="5.82325">
        <ele>558</ele>
        <time>2019-03-19T16:09:55Z</time>
      </trkpt>
      <trkpt lat="44.30428" lon="5.82325">
        <ele>558</ele>
        <time>2019-03-19T16:09:56Z</time>
      </trkpt>
      <trkpt lat="44.30433" lon="5.82324">
        <ele>558</ele>
        <time>2019-03-19T16:09:57Z</time>
      </trkpt>
      <trkpt lat="44.30439" lon="5.82324">
        <ele>558</ele>
        <time>2019-03-19T16:09:58Z</time>
      </trkpt>
      <trkpt lat="44.30444" lon="5.82324">
        <ele>558</ele>
        <time>2019-03-19T16:09:59Z</time>
      </trkpt>
      <trkpt lat="44.3045" lon="5.82324">
        <ele>558</ele>
        <time>2019-03-19T16:10:00Z</time>
      </trkpt>
      <trkpt lat="44.30456" lon="5.82324">
        <ele>558</ele>
        <time>2019-03-19T16:10:01Z</time>
      </trkpt>
      <trkpt lat="44.30461" lon="5.82324">
        <ele>558</ele>
        <time>2019-03-19T16:10:02Z</time>
      </trkpt>
      <trkpt lat="44.30467" lon="5.82324">
        <ele>558</ele>
        <time>2019-03-19T16:10:03Z</time>
      </trkpt>
      <trkpt lat="44.30473" lon="5.82324">
        <ele>558</ele>
        <time>2019-03-19T16:10:04Z</time>
      </trkpt>
      <trkpt lat="44.30478" lon="5.82324">
        <ele>558</ele>
        <time>2019-03-19T16:10:05Z</time>
      </trkpt>
      <trkpt lat="44.30484" lon="5.82324">
        <ele>558</ele>
        <time>2019-03-19T16:10:06Z</time>
      </trkpt>
      <trkpt lat="44.30489" lon="5.82323">
        <ele>558</ele>
        <time>2019-03-19T16:10:07Z</time>
      </trkpt>
      <trkpt lat="44.30495" lon="5.82323">
        <ele>558</ele>
        <time>2019-03-19T16:10:08Z</time>
      </trkpt>
      <trkpt lat="44.305" lon="5.82323">
        <ele>558</ele>
        <time>2019-03-19T16:10:09Z</time>
      </trkpt>
      <trkpt lat="44.30506" lon="5.82323">
        <ele>558</ele>
        <time>2019-03-19T16:10:10Z</time>
      </trkpt>
      <trkpt lat="44.30511" lon="5.82322">
        <ele>558</ele>
        <time>2019-03-19T16:10:11Z</time>
      </trkpt>
      <trkpt lat="44.30517" lon="5.82322">
        <ele>558</ele>
        <time>2019-03-19T16:10:12Z</time>
      </trkpt>
      <trkpt lat="44.30523" lon="5.82321">
        <ele>558</ele>
        <time>2019-03-19T16:10:13Z</time>
      </trkpt>
      <trkpt lat="44.30528" lon="5.8232">
        <ele>558</ele>
        <time>2019-03-19T16:10:14Z</time>
      </trkpt>
      <trkpt lat="44.30534" lon="5.82319">
        <ele>558</ele>
        <time>2019-03-19T16:10:15Z</time>
      </trkpt>
      <trkpt lat="44.30539" lon="5.82319">
        <ele>558</ele>
        <time>2019-03-19T16:10:16Z</time>
      </trkpt>
      <trkpt lat="44.30545" lon="5.82318">
        <ele>558</ele>
        <time>2019-03-19T16:10:17Z</time>
      </trkpt>
      <trkpt lat="44.3055" lon="5.82317">
        <ele>558</ele>
        <time>2019-03-19T16:10:18Z</time>
      </trkpt>
      <trkpt lat="44.30555" lon="5.82316">
        <ele>558</ele>
        <time>2019-03-19T16:10:19Z</time>
      </trkpt>
      <trkpt lat="44.30561" lon="5.82315">
        <ele>558</ele>
        <time>2019-03-19T16:10:20Z</time>
      </trkpt>
      <trkpt lat="44.30566" lon="5.82314">
        <ele>558</ele>
        <time>2019-03-19T16:10:21Z</time>
      </trkpt>
      <trkpt lat="44.30571" lon="5.82313">
        <ele>558</ele>
        <time>2019-03-19T16:10:22Z</time>
      </trkpt>
      <trkpt lat="44.30577" lon="5.82312">
        <ele>558</ele>
        <time>2019-03-19T16:10:23Z</time>
      </trkpt>
      <trkpt lat="44.30582" lon="5.82311">
        <ele>558</ele>
        <time>2019-03-19T16:10:24Z</time>
      </trkpt>
      <trkpt lat="44.30587" lon="5.82311">
        <ele>558</ele>
        <time>2019-03-19T16:10:25Z</time>
      </trkpt>
      <trkpt lat="44.30592" lon="5.8231">
        <ele>558</ele>
        <time>2019-03-19T16:10:26Z</time>
      </trkpt>
      <trkpt lat="44.30597" lon="5.82309">
        <ele>559</ele>
        <time>2019-03-19T16:10:27Z</time>
      </trkpt>
      <trkpt lat="44.30603" lon="5.82309">
        <ele>559</ele>
        <time>2019-03-19T16:10:28Z</time>
      </trkpt>
      <trkpt lat="44.30608" lon="5.82307">
        <ele>559</ele>
        <time>2019-03-19T16:10:29Z</time>
      </trkpt>
      <trkpt lat="44.30613" lon="5.82306">
        <ele>559</ele>
        <time>2019-03-19T16:10:30Z</time>
      </trkpt>
      <trkpt lat="44.30618" lon="5.82305">
        <ele>559</ele>
        <time>2019-03-19T16:10:31Z</time>
      </trkpt>
      <trkpt lat="44.30623" lon="5.82303">
        <ele>559</ele>
        <time>2019-03-19T16:10:32Z</time>
      </trkpt>
      <trkpt lat="44.30628" lon="5.82301">
        <ele>559</ele>
        <time>2019-03-19T16:10:33Z</time>
      </trkpt>
      <trkpt lat="44.30633" lon="5.82299">
        <ele>560</ele>
        <time>2019-03-19T16:10:34Z</time>
      </trkpt>
      <trkpt lat="44.30638" lon="5.82297">
        <ele>560</ele>
        <time>2019-03-19T16:10:35Z</time>
      </trkpt>
      <trkpt lat="44.30642" lon="5.82294">
        <ele>560</ele>
        <time>2019-03-19T16:10:36Z</time>
      </trkpt>
      <trkpt lat="44.30647" lon="5.82291">
        <ele>560</ele>
        <time>2019-03-19T16:10:37Z</time>
      </trkpt>
      <trkpt lat="44.30652" lon="5.82288">
        <ele>560</ele>
        <time>2019-03-19T16:10:38Z</time>
      </trkpt>
      <trkpt lat="44.30656" lon="5.82285">
        <ele>560</ele>
        <time>2019-03-19T16:10:39Z</time>
      </trkpt>
      <trkpt lat="44.30661" lon="5.82282">
        <ele>560</ele>
        <time>2019-03-19T16:10:40Z</time>
      </trkpt>
      <trkpt lat="44.30665" lon="5.82278">
        <ele>560</ele>
        <time>2019-03-19T16:10:41Z</time>
      </trkpt>
      <trkpt lat="44.30669" lon="5.82274">
        <ele>560</ele>
        <time>2019-03-19T16:10:42Z</time>
      </trkpt>
      <trkpt lat="44.30673" lon="5.82271">
        <ele>560</ele>
        <time>2019-03-19T16:10:43Z</time>
      </trkpt>
      <trkpt lat="44.30676" lon="5.82267">
        <ele>560</ele>
        <time>2019-03-19T16:10:44Z</time>
      </trkpt>
      <trkpt lat="44.3068" lon="5.82264">
        <ele>560</ele>
        <time>2019-03-19T16:10:45Z</time>
      </trkpt>
      <trkpt lat="44.30683" lon="5.8226">
        <ele>560</ele>
        <time>2019-03-19T16:10:46Z</time>
      </trkpt>
      <trkpt lat="44.30686" lon="5.82256">
        <ele>560</ele>
        <time>2019-03-19T16:10:47Z</time>
      </trkpt>
      <trkpt lat="44.3069" lon="5.82252">
        <ele>560</ele>
        <time>2019-03-19T16:10:48Z</time>
      </trkpt>
      <trkpt lat="44.30693" lon="5.82247">
        <ele>560</ele>
        <time>2019-03-19T16:10:49Z</time>
      </trkpt>
      <trkpt lat="44.30695" lon="5.82243">
        <ele>560</ele>
        <time>2019-03-19T16:10:50Z</time>
      </trkpt>
      <trkpt lat="44.30698" lon="5.82239">
        <ele>560</ele>
        <time>2019-03-19T16:10:51Z</time>
      </trkpt>
      <trkpt lat="44.30701" lon="5.82234">
        <ele>560</ele>
        <time>2019-03-19T16:10:52Z</time>
      </trkpt>
      <trkpt lat="44.30704" lon="5.82229">
        <ele>560</ele>
        <time>2019-03-19T16:10:53Z</time>
      </trkpt>
      <trkpt lat="44.30707" lon="5.82224">
        <ele>560</ele>
        <time>2019-03-19T16:10:54Z</time>
      </trkpt>
      <trkpt lat="44.3071" lon="5.82219">
        <ele>560</ele>
        <time>2019-03-19T16:10:55Z</time>
      </trkpt>
      <trkpt lat="44.30713" lon="5.82213">
        <ele>560</ele>
        <time>2019-03-19T16:10:56Z</time>
      </trkpt>
      <trkpt lat="44.30716" lon="5.82208">
        <ele>560</ele>
        <time>2019-03-19T16:10:57Z</time>
      </trkpt>
      <trkpt lat="44.30718" lon="5.82202">
        <ele>560</ele>
        <time>2019-03-19T16:10:58Z</time>
      </trkpt>
      <trkpt lat="44.30721" lon="5.82197">
        <ele>560</ele>
        <time>2019-03-19T16:10:59Z</time>
      </trkpt>
      <trkpt lat="44.30724" lon="5.82191">
        <ele>560</ele>
        <time>2019-03-19T16:11:00Z</time>
      </trkpt>
      <trkpt lat="44.30726" lon="5.82184">
        <ele>560</ele>
        <time>2019-03-19T16:11:01Z</time>
      </trkpt>
      <trkpt lat="44.30729" lon="5.82178">
        <ele>560</ele>
        <time>2019-03-19T16:11:02Z</time>
      </trkpt>
      <trkpt lat="44.30731" lon="5.82171">
        <ele>560</ele>
        <time>2019-03-19T16:11:03Z</time>
      </trkpt>
      <trkpt lat="44.30734" lon="5.82164">
        <ele>560</ele>
        <time>2019-03-19T16:11:04Z</time>
      </trkpt>
      <trkpt lat="44.30736" lon="5.82157">
        <ele>560</ele>
        <time>2019-03-19T16:11:05Z</time>
      </trkpt>
      <trkpt lat="44.30738" lon="5.82151">
        <ele>560</ele>
        <time>2019-03-19T16:11:06Z</time>
      </trkpt>
      <trkpt lat="44.30741" lon="5.82143">
        <ele>560</ele>
        <time>2019-03-19T16:11:07Z</time>
      </trkpt>
      <trkpt lat="44.30743" lon="5.82137">
        <ele>560</ele>
        <time>2019-03-19T16:11:08Z</time>
      </trkpt>
      <trkpt lat="44.30745" lon="5.8213">
        <ele>560</ele>
        <time>2019-03-19T16:11:09Z</time>
      </trkpt>
      <trkpt lat="44.30748" lon="5.82123">
        <ele>560</ele>
        <time>2019-03-19T16:11:10Z</time>
      </trkpt>
      <trkpt lat="44.30751" lon="5.82116">
        <ele>560</ele>
        <time>2019-03-19T16:11:11Z</time>
      </trkpt>
      <trkpt lat="44.30754" lon="5.8211">
        <ele>560</ele>
        <time>2019-03-19T16:11:12Z</time>
      </trkpt>
      <trkpt lat="44.30757" lon="5.82104">
        <ele>560</ele>
        <time>2019-03-19T16:11:13Z</time>
      </trkpt>
      <trkpt lat="44.30761" lon="5.82099">
        <ele>560</ele>
        <time>2019-03-19T16:11:14Z</time>
      </trkpt>
      <trkpt lat="44.30765" lon="5.82094">
        <ele>560</ele>
        <time>2019-03-19T16:11:15Z</time>
      </trkpt>
      <trkpt lat="44.30769" lon="5.8209">
        <ele>560</ele>
        <time>2019-03-19T16:11:16Z</time>
      </trkpt>
      <trkpt lat="44.30773" lon="5.82087">
        <ele>560</ele>
        <time>2019-03-19T16:11:17Z</time>
      </trkpt>
      <trkpt lat="44.30778" lon="5.82083">
        <ele>560</ele>
        <time>2019-03-19T16:11:18Z</time>
      </trkpt>
      <trkpt lat="44.30782" lon="5.82081">
        <ele>560</ele>
        <time>2019-03-19T16:11:19Z</time>
      </trkpt>
      <trkpt lat="44.30786" lon="5.82079">
        <ele>560</ele>
        <time>2019-03-19T16:11:20Z</time>
      </trkpt>
      <trkpt lat="44.30791" lon="5.82077">
        <ele>560</ele>
        <time>2019-03-19T16:11:21Z</time>
      </trkpt>
      <trkpt lat="44.30796" lon="5.82076">
        <ele>560</ele>
        <time>2019-03-19T16:11:22Z</time>
      </trkpt>
      <trkpt lat="44.308" lon="5.82074">
        <ele>560</ele>
        <time>2019-03-19T16:11:23Z</time>
      </trkpt>
      <trkpt lat="44.30805" lon="5.82073">
        <ele>560</ele>
        <time>2019-03-19T16:11:24Z</time>
      </trkpt>
      <trkpt lat="44.3081" lon="5.82072">
        <ele>560</ele>
        <time>2019-03-19T16:11:25Z</time>
      </trkpt>
      <trkpt lat="44.30815" lon="5.82071">
        <ele>560</ele>
        <time>2019-03-19T16:11:26Z</time>
      </trkpt>
      <trkpt lat="44.3082" lon="5.82069">
        <ele>560</ele>
        <time>2019-03-19T16:11:27Z</time>
      </trkpt>
      <trkpt lat="44.30825" lon="5.82068">
        <ele>560</ele>
        <time>2019-03-19T16:11:28Z</time>
      </trkpt>
      <trkpt lat="44.3083" lon="5.82067">
        <ele>560</ele>
        <time>2019-03-19T16:11:29Z</time>
      </trkpt>
      <trkpt lat="44.30835" lon="5.82066">
        <ele>560</ele>
        <time>2019-03-19T16:11:30Z</time>
      </trkpt>
      <trkpt lat="44.30841" lon="5.82065">
        <ele>560</ele>
        <time>2019-03-19T16:11:32Z</time>
      </trkpt>
      <trkpt lat="44.30846" lon="5.82063">
        <ele>560</ele>
        <time>2019-03-19T16:11:32Z</time>
      </trkpt>
      <trkpt lat="44.30851" lon="5.82062">
        <ele>560</ele>
        <time>2019-03-19T16:11:33Z</time>
      </trkpt>
      <trkpt lat="44.30856" lon="5.8206">
        <ele>560</ele>
        <time>2019-03-19T16:11:34Z</time>
      </trkpt>
      <trkpt lat="44.30862" lon="5.82057">
        <ele>560</ele>
        <time>2019-03-19T16:11:35Z</time>
      </trkpt>
      <trkpt lat="44.30867" lon="5.82055">
        <ele>560</ele>
        <time>2019-03-19T16:11:36Z</time>
      </trkpt>
      <trkpt lat="44.30873" lon="5.82054">
        <ele>560</ele>
        <time>2019-03-19T16:11:37Z</time>
      </trkpt>
      <trkpt lat="44.30879" lon="5.82051">
        <ele>560</ele>
        <time>2019-03-19T16:11:38Z</time>
      </trkpt>
      <trkpt lat="44.30885" lon="5.82049">
        <ele>560</ele>
        <time>2019-03-19T16:11:39Z</time>
      </trkpt>
      <trkpt lat="44.30891" lon="5.82047">
        <ele>560</ele>
        <time>2019-03-19T16:11:40Z</time>
      </trkpt>
      <trkpt lat="44.30897" lon="5.82044">
        <ele>560</ele>
        <time>2019-03-19T16:11:41Z</time>
      </trkpt>
      <trkpt lat="44.30903" lon="5.82042">
        <ele>560</ele>
        <time>2019-03-19T16:11:42Z</time>
      </trkpt>
      <trkpt lat="44.30909" lon="5.82041">
        <ele>560</ele>
        <time>2019-03-19T16:11:43Z</time>
      </trkpt>
      <trkpt lat="44.30916" lon="5.8204">
        <ele>560</ele>
        <time>2019-03-19T16:11:44Z</time>
      </trkpt>
      <trkpt lat="44.30922" lon="5.8204">
        <ele>560</ele>
        <time>2019-03-19T16:11:45Z</time>
      </trkpt>
      <trkpt lat="44.30929" lon="5.8204">
        <ele>560</ele>
        <time>2019-03-19T16:11:46Z</time>
      </trkpt>
      <trkpt lat="44.30935" lon="5.82041">
        <ele>560</ele>
        <time>2019-03-19T16:11:47Z</time>
      </trkpt>
      <trkpt lat="44.30942" lon="5.82043">
        <ele>559</ele>
        <time>2019-03-19T16:11:48Z</time>
      </trkpt>
      <trkpt lat="44.30948" lon="5.82045">
        <ele>559</ele>
        <time>2019-03-19T16:11:49Z</time>
      </trkpt>
      <trkpt lat="44.30954" lon="5.82047">
        <ele>559</ele>
        <time>2019-03-19T16:11:50Z</time>
      </trkpt>
      <trkpt lat="44.30959" lon="5.82051">
        <ele>558</ele>
        <time>2019-03-19T16:11:51Z</time>
      </trkpt>
      <trkpt lat="44.30965" lon="5.82054">
        <ele>558</ele>
        <time>2019-03-19T16:11:52Z</time>
      </trkpt>
      <trkpt lat="44.3097" lon="5.82058">
        <ele>558</ele>
        <time>2019-03-19T16:11:53Z</time>
      </trkpt>
      <trkpt lat="44.30976" lon="5.82061">
        <ele>557</ele>
        <time>2019-03-19T16:11:54Z</time>
      </trkpt>
      <trkpt lat="44.30981" lon="5.82066">
        <ele>557</ele>
        <time>2019-03-19T16:11:55Z</time>
      </trkpt>
      <trkpt lat="44.30986" lon="5.8207">
        <ele>556</ele>
        <time>2019-03-19T16:11:56Z</time>
      </trkpt>
      <trkpt lat="44.30991" lon="5.82075">
        <ele>556</ele>
        <time>2019-03-19T16:11:57Z</time>
      </trkpt>
      <trkpt lat="44.30996" lon="5.8208">
        <ele>556</ele>
        <time>2019-03-19T16:11:58Z</time>
      </trkpt>
      <trkpt lat="44.31" lon="5.82085">
        <ele>555</ele>
        <time>2019-03-19T16:11:59Z</time>
      </trkpt>
      <trkpt lat="44.31004" lon="5.82091">
        <ele>555</ele>
        <time>2019-03-19T16:12:00Z</time>
      </trkpt>
      <trkpt lat="44.31009" lon="5.82096">
        <ele>555</ele>
        <time>2019-03-19T16:12:01Z</time>
      </trkpt>
      <trkpt lat="44.31013" lon="5.82102">
        <ele>555</ele>
        <time>2019-03-19T16:12:02Z</time>
      </trkpt>
      <trkpt lat="44.31017" lon="5.82107">
        <ele>555</ele>
        <time>2019-03-19T16:12:03Z</time>
      </trkpt>
      <trkpt lat="44.31021" lon="5.82113">
        <ele>555</ele>
        <time>2019-03-19T16:12:04Z</time>
      </trkpt>
      <trkpt lat="44.31025" lon="5.82119">
        <ele>555</ele>
        <time>2019-03-19T16:12:05Z</time>
      </trkpt>
      <trkpt lat="44.3103" lon="5.82125">
        <ele>555</ele>
        <time>2019-03-19T16:12:06Z</time>
      </trkpt>
      <trkpt lat="44.31034" lon="5.8213">
        <ele>555</ele>
        <time>2019-03-19T16:12:07Z</time>
      </trkpt>
      <trkpt lat="44.31038" lon="5.82135">
        <ele>555</ele>
        <time>2019-03-19T16:12:08Z</time>
      </trkpt>
      <trkpt lat="44.31043" lon="5.82141">
        <ele>555</ele>
        <time>2019-03-19T16:12:09Z</time>
      </trkpt>
      <trkpt lat="44.31047" lon="5.82146">
        <ele>555</ele>
        <time>2019-03-19T16:12:10Z</time>
      </trkpt>
      <trkpt lat="44.31051" lon="5.82151">
        <ele>555</ele>
        <time>2019-03-19T16:12:11Z</time>
      </trkpt>
      <trkpt lat="44.31055" lon="5.82157">
        <ele>555</ele>
        <time>2019-03-19T16:12:12Z</time>
      </trkpt>
      <trkpt lat="44.31059" lon="5.82162">
        <ele>555</ele>
        <time>2019-03-19T16:12:13Z</time>
      </trkpt>
      <trkpt lat="44.31062" lon="5.82166">
        <ele>555</ele>
        <time>2019-03-19T16:12:14Z</time>
      </trkpt>
      <trkpt lat="44.31066" lon="5.82171">
        <ele>555</ele>
        <time>2019-03-19T16:12:15Z</time>
      </trkpt>
      <trkpt lat="44.3107" lon="5.82176">
        <ele>555</ele>
        <time>2019-03-19T16:12:16Z</time>
      </trkpt>
      <trkpt lat="44.31073" lon="5.8218">
        <ele>555</ele>
        <time>2019-03-19T16:12:17Z</time>
      </trkpt>
      <trkpt lat="44.31076" lon="5.82184">
        <ele>555</ele>
        <time>2019-03-19T16:12:18Z</time>
      </trkpt>
      <trkpt lat="44.31079" lon="5.82189">
        <ele>555</ele>
        <time>2019-03-19T16:12:19Z</time>
      </trkpt>
      <trkpt lat="44.31083" lon="5.82193">
        <ele>555</ele>
        <time>2019-03-19T16:12:20Z</time>
      </trkpt>
      <trkpt lat="44.31086" lon="5.82197">
        <ele>555</ele>
        <time>2019-03-19T16:12:21Z</time>
      </trkpt>
      <trkpt lat="44.31089" lon="5.82201">
        <ele>555</ele>
        <time>2019-03-19T16:12:22Z</time>
      </trkpt>
      <trkpt lat="44.31092" lon="5.82205">
        <ele>555</ele>
        <time>2019-03-19T16:12:23Z</time>
      </trkpt>
      <trkpt lat="44.31094" lon="5.82209">
        <ele>555</ele>
        <time>2019-03-19T16:12:24Z</time>
      </trkpt>
      <trkpt lat="44.31097" lon="5.82214">
        <ele>555</ele>
        <time>2019-03-19T16:12:25Z</time>
      </trkpt>
      <trkpt lat="44.311" lon="5.82219">
        <ele>555</ele>
        <time>2019-03-19T16:12:26Z</time>
      </trkpt>
      <trkpt lat="44.31102" lon="5.82223">
        <ele>555</ele>
        <time>2019-03-19T16:12:27Z</time>
      </trkpt>
      <trkpt lat="44.31105" lon="5.82227">
        <ele>555</ele>
        <time>2019-03-19T16:12:28Z</time>
      </trkpt>
      <trkpt lat="44.31108" lon="5.82231">
        <ele>555</ele>
        <time>2019-03-19T16:12:29Z</time>
      </trkpt>
      <trkpt lat="44.31111" lon="5.82235">
        <ele>555</ele>
        <time>2019-03-19T16:12:30Z</time>
      </trkpt>
      <trkpt lat="44.31114" lon="5.82239">
        <ele>555</ele>
        <time>2019-03-19T16:12:31Z</time>
      </trkpt>
      <trkpt lat="44.31118" lon="5.82243">
        <ele>555</ele>
        <time>2019-03-19T16:12:32Z</time>
      </trkpt>
      <trkpt lat="44.31121" lon="5.82247">
        <ele>554</ele>
        <time>2019-03-19T16:12:33Z</time>
      </trkpt>
      <trkpt lat="44.31123" lon="5.82251">
        <ele>554</ele>
        <time>2019-03-19T16:12:34Z</time>
      </trkpt>
      <trkpt lat="44.31126" lon="5.82255">
        <ele>554</ele>
        <time>2019-03-19T16:12:35Z</time>
      </trkpt>
      <trkpt lat="44.31129" lon="5.82259">
        <ele>554</ele>
        <time>2019-03-19T16:12:36Z</time>
      </trkpt>
      <trkpt lat="44.31131" lon="5.82262">
        <ele>554</ele>
        <time>2019-03-19T16:12:37Z</time>
      </trkpt>
      <trkpt lat="44.31134" lon="5.82265">
        <ele>554</ele>
        <time>2019-03-19T16:12:38Z</time>
      </trkpt>
      <trkpt lat="44.31137" lon="5.82267">
        <ele>554</ele>
        <time>2019-03-19T16:12:39Z</time>
      </trkpt>
      <trkpt lat="44.31139" lon="5.8227">
        <ele>554</ele>
        <time>2019-03-19T16:12:40Z</time>
      </trkpt>
      <trkpt lat="44.31142" lon="5.82273">
        <ele>554</ele>
        <time>2019-03-19T16:12:41Z</time>
      </trkpt>
      <trkpt lat="44.31144" lon="5.82277">
        <ele>554</ele>
        <time>2019-03-19T16:12:42Z</time>
      </trkpt>
      <trkpt lat="44.31146" lon="5.82281">
        <ele>554</ele>
        <time>2019-03-19T16:12:43Z</time>
      </trkpt>
      <trkpt lat="44.31147" lon="5.82286">
        <ele>554</ele>
        <time>2019-03-19T16:12:44Z</time>
      </trkpt>
      <trkpt lat="44.31148" lon="5.82291">
        <ele>554</ele>
        <time>2019-03-19T16:12:45Z</time>
      </trkpt>
      <trkpt lat="44.31147" lon="5.82296">
        <ele>554</ele>
        <time>2019-03-19T16:12:46Z</time>
      </trkpt>
      <trkpt lat="44.31145" lon="5.82301">
        <ele>554</ele>
        <time>2019-03-19T16:12:47Z</time>
      </trkpt>
      <trkpt lat="44.31143" lon="5.82306">
        <ele>554</ele>
        <time>2019-03-19T16:12:48Z</time>
      </trkpt>
      <trkpt lat="44.31141" lon="5.8231">
        <ele>554</ele>
        <time>2019-03-19T16:12:49Z</time>
      </trkpt>
      <trkpt lat="44.31137" lon="5.82315">
        <ele>554</ele>
        <time>2019-03-19T16:12:50Z</time>
      </trkpt>
      <trkpt lat="44.31134" lon="5.82319">
        <ele>554</ele>
        <time>2019-03-19T16:12:51Z</time>
      </trkpt>
      <trkpt lat="44.31131" lon="5.82323">
        <ele>554</ele>
        <time>2019-03-19T16:12:52Z</time>
      </trkpt>
      <trkpt lat="44.31128" lon="5.82328">
        <ele>554</ele>
        <time>2019-03-19T16:12:53Z</time>
      </trkpt>
      <trkpt lat="44.31125" lon="5.82332">
        <ele>554</ele>
        <time>2019-03-19T16:12:54Z</time>
      </trkpt>
      <trkpt lat="44.31121" lon="5.82337">
        <ele>554</ele>
        <time>2019-03-19T16:12:55Z</time>
      </trkpt>
      <trkpt lat="44.31118" lon="5.82342">
        <ele>554</ele>
        <time>2019-03-19T16:12:56Z</time>
      </trkpt>
      <trkpt lat="44.31115" lon="5.82347">
        <ele>554</ele>
        <time>2019-03-19T16:12:57Z</time>
      </trkpt>
      <trkpt lat="44.31111" lon="5.82353">
        <ele>554</ele>
        <time>2019-03-19T16:12:58Z</time>
      </trkpt>
      <trkpt lat="44.31108" lon="5.82358">
        <ele>554</ele>
        <time>2019-03-19T16:12:59Z</time>
      </trkpt>
      <trkpt lat="44.31106" lon="5.82364">
        <ele>554</ele>
        <time>2019-03-19T16:13:00Z</time>
      </trkpt>
      <trkpt lat="44.31105" lon="5.82371">
        <ele>554</ele>
        <time>2019-03-19T16:13:01Z</time>
      </trkpt>
      <trkpt lat="44.31104" lon="5.82378">
        <ele>554</ele>
        <time>2019-03-19T16:13:02Z</time>
      </trkpt>
      <trkpt lat="44.31104" lon="5.82384">
        <ele>554</ele>
        <time>2019-03-19T16:13:03Z</time>
      </trkpt>
      <trkpt lat="44.31104" lon="5.82391">
        <ele>554</ele>
        <time>2019-03-19T16:13:04Z</time>
      </trkpt>
      <trkpt lat="44.31104" lon="5.82398">
        <ele>554</ele>
        <time>2019-03-19T16:13:05Z</time>
      </trkpt>
      <trkpt lat="44.31103" lon="5.82405">
        <ele>554</ele>
        <time>2019-03-19T16:13:06Z</time>
      </trkpt>
      <trkpt lat="44.31101" lon="5.82411">
        <ele>554</ele>
        <time>2019-03-19T16:13:07Z</time>
      </trkpt>
      <trkpt lat="44.31099" lon="5.82417">
        <ele>554</ele>
        <time>2019-03-19T16:13:08Z</time>
      </trkpt>
      <trkpt lat="44.31097" lon="5.82423">
        <ele>554</ele>
        <time>2019-03-19T16:13:09Z</time>
      </trkpt>
      <trkpt lat="44.31094" lon="5.82429">
        <ele>554</ele>
        <time>2019-03-19T16:13:10Z</time>
      </trkpt>
      <trkpt lat="44.31092" lon="5.82434">
        <ele>554</ele>
        <time>2019-03-19T16:13:11Z</time>
      </trkpt>
      <trkpt lat="44.3109" lon="5.82439">
        <ele>554</ele>
        <time>2019-03-19T16:13:12Z</time>
      </trkpt>
      <trkpt lat="44.31088" lon="5.82444">
        <ele>554</ele>
        <time>2019-03-19T16:13:13Z</time>
      </trkpt>
      <trkpt lat="44.31087" lon="5.82449">
        <ele>554</ele>
        <time>2019-03-19T16:13:14Z</time>
      </trkpt>
      <trkpt lat="44.31085" lon="5.82453">
        <ele>554</ele>
        <time>2019-03-19T16:13:15Z</time>
      </trkpt>
      <trkpt lat="44.31083" lon="5.82459">
        <ele>554</ele>
        <time>2019-03-19T16:13:16Z</time>
      </trkpt>
      <trkpt lat="44.31081" lon="5.82464">
        <ele>554</ele>
        <time>2019-03-19T16:13:17Z</time>
      </trkpt>
      <trkpt lat="44.31078" lon="5.8247">
        <ele>554</ele>
        <time>2019-03-19T16:13:18Z</time>
      </trkpt>
      <trkpt lat="44.31076" lon="5.82476">
        <ele>554</ele>
        <time>2019-03-19T16:13:19Z</time>
      </trkpt>
      <trkpt lat="44.31074" lon="5.82483">
        <ele>554</ele>
        <time>2019-03-19T16:13:20Z</time>
      </trkpt>
      <trkpt lat="44.31073" lon="5.8249">
        <ele>554</ele>
        <time>2019-03-19T16:13:21Z</time>
      </trkpt>
      <trkpt lat="44.31073" lon="5.82498">
        <ele>554</ele>
        <time>2019-03-19T16:13:22Z</time>
      </trkpt>
      <trkpt lat="44.31073" lon="5.82506">
        <ele>554</ele>
        <time>2019-03-19T16:13:23Z</time>
      </trkpt>
      <trkpt lat="44.31075" lon="5.82514">
        <ele>554</ele>
        <time>2019-03-19T16:13:24Z</time>
      </trkpt>
      <trkpt lat="44.31078" lon="5.8252">
        <ele>554</ele>
        <time>2019-03-19T16:13:25Z</time>
      </trkpt>
      <trkpt lat="44.31082" lon="5.82526">
        <ele>554</ele>
        <time>2019-03-19T16:13:26Z</time>
      </trkpt>
      <trkpt lat="44.31086" lon="5.82531">
        <ele>554</ele>
        <time>2019-03-19T16:13:27Z</time>
      </trkpt>
      <trkpt lat="44.3109" lon="5.82535">
        <ele>554</ele>
        <time>2019-03-19T16:13:28Z</time>
      </trkpt>
      <trkpt lat="44.31095" lon="5.82538">
        <ele>554</ele>
        <time>2019-03-19T16:13:29Z</time>
      </trkpt>
      <trkpt lat="44.311" lon="5.82542">
        <ele>554</ele>
        <time>2019-03-19T16:13:30Z</time>
      </trkpt>
      <trkpt lat="44.31106" lon="5.82545">
        <ele>554</ele>
        <time>2019-03-19T16:13:31Z</time>
      </trkpt>
      <trkpt lat="44.31111" lon="5.82548">
        <ele>554</ele>
        <time>2019-03-19T16:13:32Z</time>
      </trkpt>
      <trkpt lat="44.31116" lon="5.8255">
        <ele>554</ele>
        <time>2019-03-19T16:13:33Z</time>
      </trkpt>
      <trkpt lat="44.31122" lon="5.82553">
        <ele>554</ele>
        <time>2019-03-19T16:13:34Z</time>
      </trkpt>
      <trkpt lat="44.31127" lon="5.82556">
        <ele>554</ele>
        <time>2019-03-19T16:13:35Z</time>
      </trkpt>
      <trkpt lat="44.31131" lon="5.82558">
        <ele>554</ele>
        <time>2019-03-19T16:13:36Z</time>
      </trkpt>
      <trkpt lat="44.31136" lon="5.82561">
        <ele>554</ele>
        <time>2019-03-19T16:13:37Z</time>
      </trkpt>
      <trkpt lat="44.31141" lon="5.82564">
        <ele>554</ele>
        <time>2019-03-19T16:13:38Z</time>
      </trkpt>
      <trkpt lat="44.31146" lon="5.82567">
        <ele>554</ele>
        <time>2019-03-19T16:13:39Z</time>
      </trkpt>
      <trkpt lat="44.31151" lon="5.8257">
        <ele>554</ele>
        <time>2019-03-19T16:13:40Z</time>
      </trkpt>
      <trkpt lat="44.31156" lon="5.82572">
        <ele>554</ele>
        <time>2019-03-19T16:13:41Z</time>
      </trkpt>
      <trkpt lat="44.31162" lon="5.82575">
        <ele>554</ele>
        <time>2019-03-19T16:13:42Z</time>
      </trkpt>
      <trkpt lat="44.31167" lon="5.82578">
        <ele>554</ele>
        <time>2019-03-19T16:13:43Z</time>
      </trkpt>
      <trkpt lat="44.31172" lon="5.82581">
        <ele>554</ele>
        <time>2019-03-19T16:13:44Z</time>
      </trkpt>
      <trkpt lat="44.31177" lon="5.82584">
        <ele>554</ele>
        <time>2019-03-19T16:13:45Z</time>
      </trkpt>
      <trkpt lat="44.31182" lon="5.82587">
        <ele>554</ele>
        <time>2019-03-19T16:13:46Z</time>
      </trkpt>
      <trkpt lat="44.31187" lon="5.8259">
        <ele>554</ele>
        <time>2019-03-19T16:13:47Z</time>
      </trkpt>
      <trkpt lat="44.31192" lon="5.82592">
        <ele>554</ele>
        <time>2019-03-19T16:13:48Z</time>
      </trkpt>
      <trkpt lat="44.31196" lon="5.82594">
        <ele>554</ele>
        <time>2019-03-19T16:13:49Z</time>
      </trkpt>
      <trkpt lat="44.31201" lon="5.82597">
        <ele>554</ele>
        <time>2019-03-19T16:13:50Z</time>
      </trkpt>
      <trkpt lat="44.31205" lon="5.82599">
        <ele>554</ele>
        <time>2019-03-19T16:13:51Z</time>
      </trkpt>
      <trkpt lat="44.3121" lon="5.82602">
        <ele>554</ele>
        <time>2019-03-19T16:13:52Z</time>
      </trkpt>
      <trkpt lat="44.31214" lon="5.82605">
        <ele>554</ele>
        <time>2019-03-19T16:13:53Z</time>
      </trkpt>
      <trkpt lat="44.31218" lon="5.82607">
        <ele>554</ele>
        <time>2019-03-19T16:13:54Z</time>
      </trkpt>
      <trkpt lat="44.31223" lon="5.8261">
        <ele>554</ele>
        <time>2019-03-19T16:13:55Z</time>
      </trkpt>
      <trkpt lat="44.31227" lon="5.82612">
        <ele>554</ele>
        <time>2019-03-19T16:13:56Z</time>
      </trkpt>
      <trkpt lat="44.31232" lon="5.82615">
        <ele>554</ele>
        <time>2019-03-19T16:13:57Z</time>
      </trkpt>
      <trkpt lat="44.31236" lon="5.82617">
        <ele>554</ele>
        <time>2019-03-19T16:13:58Z</time>
      </trkpt>
      <trkpt lat="44.31241" lon="5.8262">
        <ele>554</ele>
        <time>2019-03-19T16:13:59Z</time>
      </trkpt>
      <trkpt lat="44.31245" lon="5.82622">
        <ele>554</ele>
        <time>2019-03-19T16:14:00Z</time>
      </trkpt>
      <trkpt lat="44.31249" lon="5.82624">
        <ele>554</ele>
        <time>2019-03-19T16:14:01Z</time>
      </trkpt>
      <trkpt lat="44.31254" lon="5.82626">
        <ele>554</ele>
        <time>2019-03-19T16:14:02Z</time>
      </trkpt>
      <trkpt lat="44.31258" lon="5.82629">
        <ele>554</ele>
        <time>2019-03-19T16:14:03Z</time>
      </trkpt>
      <trkpt lat="44.31262" lon="5.82631">
        <ele>554</ele>
        <time>2019-03-19T16:14:04Z</time>
      </trkpt>
      <trkpt lat="44.31265" lon="5.82633">
        <ele>554</ele>
        <time>2019-03-19T16:14:05Z</time>
      </trkpt>
      <trkpt lat="44.31269" lon="5.82635">
        <ele>554</ele>
        <time>2019-03-19T16:14:06Z</time>
      </trkpt>
      <trkpt lat="44.31273" lon="5.82637">
        <ele>554</ele>
        <time>2019-03-19T16:14:07Z</time>
      </trkpt>
      <trkpt lat="44.31276" lon="5.82639">
        <ele>554</ele>
        <time>2019-03-19T16:14:08Z</time>
      </trkpt>
      <trkpt lat="44.31279" lon="5.82641">
        <ele>554</ele>
        <time>2019-03-19T16:14:09Z</time>
      </trkpt>
      <trkpt lat="44.31283" lon="5.82643">
        <ele>554</ele>
        <time>2019-03-19T16:14:10Z</time>
      </trkpt>
      <trkpt lat="44.31286" lon="5.82645">
        <ele>554</ele>
        <time>2019-03-19T16:14:11Z</time>
      </trkpt>
      <trkpt lat="44.31289" lon="5.82648">
        <ele>554</ele>
        <time>2019-03-19T16:14:12Z</time>
      </trkpt>
      <trkpt lat="44.31292" lon="5.8265">
        <ele>554</ele>
        <time>2019-03-19T16:14:13Z</time>
      </trkpt>
      <trkpt lat="44.31295" lon="5.82652">
        <ele>554</ele>
        <time>2019-03-19T16:14:14Z</time>
      </trkpt>
      <trkpt lat="44.31298" lon="5.82654">
        <ele>554</ele>
        <time>2019-03-19T16:14:15Z</time>
      </trkpt>
      <trkpt lat="44.313" lon="5.82656">
        <ele>554</ele>
        <time>2019-03-19T16:14:16Z</time>
      </trkpt>
      <trkpt lat="44.31303" lon="5.82658">
        <ele>554</ele>
        <time>2019-03-19T16:14:17Z</time>
      </trkpt>
      <trkpt lat="44.31305" lon="5.8266">
        <ele>554</ele>
        <time>2019-03-19T16:14:18Z</time>
      </trkpt>
      <trkpt lat="44.31308" lon="5.82661">
        <ele>554</ele>
        <time>2019-03-19T16:14:19Z</time>
      </trkpt>
      <trkpt lat="44.3131" lon="5.82662">
        <ele>554</ele>
        <time>2019-03-19T16:14:20Z</time>
      </trkpt>
      <trkpt lat="44.31312" lon="5.82664">
        <ele>555</ele>
        <time>2019-03-19T16:14:21Z</time>
      </trkpt>
      <trkpt lat="44.31314" lon="5.82666">
        <ele>555</ele>
        <time>2019-03-19T16:14:22Z</time>
      </trkpt>
      <trkpt lat="44.31316" lon="5.82667">
        <ele>555</ele>
        <time>2019-03-19T16:14:23Z</time>
      </trkpt>
      <trkpt lat="44.31318" lon="5.82669">
        <ele>555</ele>
        <time>2019-03-19T16:14:24Z</time>
      </trkpt>
      <trkpt lat="44.31319" lon="5.8267">
        <ele>556</ele>
        <time>2019-03-19T16:14:25Z</time>
      </trkpt>
      <trkpt lat="44.31321" lon="5.82671">
        <ele>556</ele>
        <time>2019-03-19T16:14:26Z</time>
      </trkpt>
      <trkpt lat="44.31323" lon="5.82671">
        <ele>556</ele>
        <time>2019-03-19T16:14:27Z</time>
      </trkpt>
      <trkpt lat="44.31325" lon="5.82672">
        <ele>556</ele>
        <time>2019-03-19T16:14:28Z</time>
      </trkpt>
      <trkpt lat="44.31326" lon="5.82673">
        <ele>557</ele>
        <time>2019-03-19T16:14:29Z</time>
      </trkpt>
      <trkpt lat="44.31328" lon="5.82674">
        <ele>557</ele>
        <time>2019-03-19T16:14:30Z</time>
      </trkpt>
      <trkpt lat="44.3133" lon="5.82675">
        <ele>557</ele>
        <time>2019-03-19T16:14:31Z</time>
      </trkpt>
      <trkpt lat="44.31332" lon="5.82676">
        <ele>557</ele>
        <time>2019-03-19T16:14:32Z</time>
      </trkpt>
      <trkpt lat="44.31333" lon="5.82677">
        <ele>557</ele>
        <time>2019-03-19T16:14:33Z</time>
      </trkpt>
      <trkpt lat="44.31335" lon="5.82678">
        <ele>557</ele>
        <time>2019-03-19T16:14:34Z</time>
      </trkpt>
      <trkpt lat="44.31337" lon="5.82678">
        <ele>557</ele>
        <time>2019-03-19T16:14:35Z</time>
      </trkpt>
      <trkpt lat="44.31339" lon="5.82679">
        <ele>557</ele>
        <time>2019-03-19T16:14:36Z</time>
      </trkpt>
      <trkpt lat="44.3134" lon="5.8268">
        <ele>557</ele>
        <time>2019-03-19T16:14:37Z</time>
      </trkpt>
      <trkpt lat="44.31342" lon="5.82681">
        <ele>557</ele>
        <time>2019-03-19T16:14:38Z</time>
      </trkpt>
      <trkpt lat="44.31344" lon="5.82681">
        <ele>557</ele>
        <time>2019-03-19T16:14:39Z</time>
      </trkpt>
      <trkpt lat="44.31346" lon="5.82682">
        <ele>557</ele>
        <time>2019-03-19T16:14:40Z</time>
      </trkpt>
      <trkpt lat="44.31348" lon="5.82682">
        <ele>557</ele>
        <time>2019-03-19T16:14:41Z</time>
      </trkpt>
      <trkpt lat="44.31349" lon="5.82684">
        <ele>557</ele>
        <time>2019-03-19T16:14:42Z</time>
      </trkpt>
      <trkpt lat="44.3135" lon="5.82685">
        <ele>557</ele>
        <time>2019-03-19T16:14:43Z</time>
      </trkpt>
      <trkpt lat="44.31352" lon="5.82687">
        <ele>557</ele>
        <time>2019-03-19T16:14:44Z</time>
      </trkpt>
      <trkpt lat="44.31353" lon="5.82689">
        <ele>558</ele>
        <time>2019-03-19T16:14:45Z</time>
      </trkpt>
      <trkpt lat="44.31353" lon="5.82691">
        <ele>558</ele>
        <time>2019-03-19T16:14:46Z</time>
      </trkpt>
      <trkpt lat="44.31352" lon="5.82692">
        <ele>559</ele>
        <time>2019-03-19T16:14:47Z</time>
      </trkpt>
      <trkpt lat="44.31353" lon="5.82694">
        <ele>561</ele>
        <time>2019-03-19T16:14:51Z</time>
      </trkpt>
      <trkpt lat="44.31353" lon="5.82696">
        <ele>562</ele>
        <time>2019-03-19T16:14:53Z</time>
      </trkpt>
      <trkpt lat="44.31354" lon="5.82698">
        <ele>562</ele>
        <time>2019-03-19T16:14:54Z</time>
      </trkpt>
      <trkpt lat="44.31355" lon="5.827">
        <ele>562</ele>
        <time>2019-03-19T16:14:55Z</time>
      </trkpt>
      <trkpt lat="44.31356" lon="5.82702">
        <ele>563</ele>
        <time>2019-03-19T16:14:56Z</time>
      </trkpt>
      <trkpt lat="44.31358" lon="5.82704">
        <ele>563</ele>
        <time>2019-03-19T16:14:57Z</time>
      </trkpt>
      <trkpt lat="44.3136" lon="5.82708">
        <ele>563</ele>
        <time>2019-03-19T16:14:58Z</time>
      </trkpt>
      <trkpt lat="44.31363" lon="5.82711">
        <ele>563</ele>
        <time>2019-03-19T16:14:59Z</time>
      </trkpt>
      <trkpt lat="44.31367" lon="5.82715">
        <ele>563</ele>
        <time>2019-03-19T16:15:00Z</time>
      </trkpt>
      <trkpt lat="44.3137" lon="5.82721">
        <ele>563</ele>
        <time>2019-03-19T16:15:01Z</time>
      </trkpt>
      <trkpt lat="44.31372" lon="5.82727">
        <ele>563</ele>
        <time>2019-03-19T16:15:02Z</time>
      </trkpt>
      <trkpt lat="44.31372" lon="5.82734">
        <ele>563</ele>
        <time>2019-03-19T16:15:03Z</time>
      </trkpt>
      <trkpt lat="44.31372" lon="5.8274">
        <ele>563</ele>
        <time>2019-03-19T16:15:04Z</time>
      </trkpt>
      <trkpt lat="44.31372" lon="5.82747">
        <ele>563</ele>
        <time>2019-03-19T16:15:05Z</time>
      </trkpt>
      <trkpt lat="44.31372" lon="5.82754">
        <ele>563</ele>
        <time>2019-03-19T16:15:06Z</time>
      </trkpt>
      <trkpt lat="44.31372" lon="5.82761">
        <ele>563</ele>
        <time>2019-03-19T16:15:07Z</time>
      </trkpt>
      <trkpt lat="44.31372" lon="5.82768">
        <ele>563</ele>
        <time>2019-03-19T16:15:08Z</time>
      </trkpt>
      <trkpt lat="44.31372" lon="5.82775">
        <ele>563</ele>
        <time>2019-03-19T16:15:09Z</time>
      </trkpt>
      <trkpt lat="44.31372" lon="5.82781">
        <ele>563</ele>
        <time>2019-03-19T16:15:10Z</time>
      </trkpt>
      <trkpt lat="44.31373" lon="5.82788">
        <ele>563</ele>
        <time>2019-03-19T16:15:11Z</time>
      </trkpt>
      <trkpt lat="44.31372" lon="5.82795">
        <ele>563</ele>
        <time>2019-03-19T16:15:12Z</time>
      </trkpt>
      <trkpt lat="44.31372" lon="5.82801">
        <ele>563</ele>
        <time>2019-03-19T16:15:13Z</time>
      </trkpt>
      <trkpt lat="44.31372" lon="5.82808">
        <ele>563</ele>
        <time>2019-03-19T16:15:14Z</time>
      </trkpt>
      <trkpt lat="44.31372" lon="5.82814">
        <ele>563</ele>
        <time>2019-03-19T16:15:15Z</time>
      </trkpt>
      <trkpt lat="44.31372" lon="5.82821">
        <ele>563</ele>
        <time>2019-03-19T16:15:16Z</time>
      </trkpt>
      <trkpt lat="44.31371" lon="5.82827">
        <ele>563</ele>
        <time>2019-03-19T16:15:17Z</time>
      </trkpt>
      <trkpt lat="44.3137" lon="5.82833">
        <ele>563</ele>
        <time>2019-03-19T16:15:18Z</time>
      </trkpt>
      <trkpt lat="44.3137" lon="5.82839">
        <ele>563</ele>
        <time>2019-03-19T16:15:19Z</time>
      </trkpt>
      <trkpt lat="44.3137" lon="5.82845">
        <ele>563</ele>
        <time>2019-03-19T16:15:20Z</time>
      </trkpt>
      <trkpt lat="44.31369" lon="5.82852">
        <ele>563</ele>
        <time>2019-03-19T16:15:21Z</time>
      </trkpt>
      <trkpt lat="44.31368" lon="5.82858">
        <ele>563</ele>
        <time>2019-03-19T16:15:22Z</time>
      </trkpt>
      <trkpt lat="44.31368" lon="5.82864">
        <ele>563</ele>
        <time>2019-03-19T16:15:23Z</time>
      </trkpt>
      <trkpt lat="44.31367" lon="5.8287">
        <ele>563</ele>
        <time>2019-03-19T16:15:24Z</time>
      </trkpt>
      <trkpt lat="44.31367" lon="5.82877">
        <ele>563</ele>
        <time>2019-03-19T16:15:25Z</time>
      </trkpt>
      <trkpt lat="44.31367" lon="5.82883">
        <ele>563</ele>
        <time>2019-03-19T16:15:26Z</time>
      </trkpt>
      <trkpt lat="44.31366" lon="5.8289">
        <ele>563</ele>
        <time>2019-03-19T16:15:27Z</time>
      </trkpt>
      <trkpt lat="44.31366" lon="5.82896">
        <ele>563</ele>
        <time>2019-03-19T16:15:28Z</time>
      </trkpt>
      <trkpt lat="44.31366" lon="5.82902">
        <ele>563</ele>
        <time>2019-03-19T16:15:29Z</time>
      </trkpt>
      <trkpt lat="44.31365" lon="5.82908">
        <ele>563</ele>
        <time>2019-03-19T16:15:30Z</time>
      </trkpt>
      <trkpt lat="44.31365" lon="5.82914">
        <ele>563</ele>
        <time>2019-03-19T16:15:31Z</time>
      </trkpt>
      <trkpt lat="44.31364" lon="5.8292">
        <ele>563</ele>
        <time>2019-03-19T16:15:32Z</time>
      </trkpt>
      <trkpt lat="44.31363" lon="5.82926">
        <ele>563</ele>
        <time>2019-03-19T16:15:33Z</time>
      </trkpt>
      <trkpt lat="44.31361" lon="5.82932">
        <ele>563</ele>
        <time>2019-03-19T16:15:34Z</time>
      </trkpt>
      <trkpt lat="44.3136" lon="5.82938">
        <ele>563</ele>
        <time>2019-03-19T16:15:35Z</time>
      </trkpt>
      <trkpt lat="44.31359" lon="5.82944">
        <ele>563</ele>
        <time>2019-03-19T16:15:36Z</time>
      </trkpt>
      <trkpt lat="44.31358" lon="5.8295">
        <ele>563</ele>
        <time>2019-03-19T16:15:37Z</time>
      </trkpt>
      <trkpt lat="44.31358" lon="5.82956">
        <ele>563</ele>
        <time>2019-03-19T16:15:38Z</time>
      </trkpt>
      <trkpt lat="44.31357" lon="5.82961">
        <ele>563</ele>
        <time>2019-03-19T16:15:39Z</time>
      </trkpt>
      <trkpt lat="44.31356" lon="5.82967">
        <ele>563</ele>
        <time>2019-03-19T16:15:40Z</time>
      </trkpt>
      <trkpt lat="44.31355" lon="5.82973">
        <ele>563</ele>
        <time>2019-03-19T16:15:41Z</time>
      </trkpt>
      <trkpt lat="44.31354" lon="5.82978">
        <ele>563</ele>
        <time>2019-03-19T16:15:42Z</time>
      </trkpt>
      <trkpt lat="44.31353" lon="5.82984">
        <ele>563</ele>
        <time>2019-03-19T16:15:43Z</time>
      </trkpt>
      <trkpt lat="44.31353" lon="5.82989">
        <ele>563</ele>
        <time>2019-03-19T16:15:44Z</time>
      </trkpt>
      <trkpt lat="44.31352" lon="5.82995">
        <ele>563</ele>
        <time>2019-03-19T16:15:45Z</time>
      </trkpt>
      <trkpt lat="44.31352" lon="5.83">
        <ele>563</ele>
        <time>2019-03-19T16:15:46Z</time>
      </trkpt>
      <trkpt lat="44.31351" lon="5.83005">
        <ele>563</ele>
        <time>2019-03-19T16:15:47Z</time>
      </trkpt>
      <trkpt lat="44.3135" lon="5.8301">
        <ele>563</ele>
        <time>2019-03-19T16:15:48Z</time>
      </trkpt>
      <trkpt lat="44.3135" lon="5.83016">
        <ele>563</ele>
        <time>2019-03-19T16:15:49Z</time>
      </trkpt>
      <trkpt lat="44.31349" lon="5.83021">
        <ele>563</ele>
        <time>2019-03-19T16:15:50Z</time>
      </trkpt>
      <trkpt lat="44.31348" lon="5.83027">
        <ele>563</ele>
        <time>2019-03-19T16:15:51Z</time>
      </trkpt>
      <trkpt lat="44.31347" lon="5.83032">
        <ele>563</ele>
        <time>2019-03-19T16:15:52Z</time>
      </trkpt>
      <trkpt lat="44.31346" lon="5.83038">
        <ele>563</ele>
        <time>2019-03-19T16:15:53Z</time>
      </trkpt>
      <trkpt lat="44.31345" lon="5.83044">
        <ele>563</ele>
        <time>2019-03-19T16:15:54Z</time>
      </trkpt>
      <trkpt lat="44.31345" lon="5.8305">
        <ele>563</ele>
        <time>2019-03-19T16:15:55Z</time>
      </trkpt>
      <trkpt lat="44.31344" lon="5.83056">
        <ele>563</ele>
        <time>2019-03-19T16:15:56Z</time>
      </trkpt>
      <trkpt lat="44.31344" lon="5.83062">
        <ele>563</ele>
        <time>2019-03-19T16:15:57Z</time>
      </trkpt>
      <trkpt lat="44.31343" lon="5.83069">
        <ele>563</ele>
        <time>2019-03-19T16:15:58Z</time>
      </trkpt>
      <trkpt lat="44.31343" lon="5.83075">
        <ele>563</ele>
        <time>2019-03-19T16:15:59Z</time>
      </trkpt>
      <trkpt lat="44.31342" lon="5.83081">
        <ele>563</ele>
        <time>2019-03-19T16:16:00Z</time>
      </trkpt>
      <trkpt lat="44.31342" lon="5.83087">
        <ele>563</ele>
        <time>2019-03-19T16:16:01Z</time>
      </trkpt>
      <trkpt lat="44.31343" lon="5.83093">
        <ele>563</ele>
        <time>2019-03-19T16:16:02Z</time>
      </trkpt>
      <trkpt lat="44.31344" lon="5.83098">
        <ele>563</ele>
        <time>2019-03-19T16:16:03Z</time>
      </trkpt>
      <trkpt lat="44.31347" lon="5.83102">
        <ele>563</ele>
        <time>2019-03-19T16:16:04Z</time>
      </trkpt>
      <trkpt lat="44.31351" lon="5.83104">
        <ele>563</ele>
        <time>2019-03-19T16:16:05Z</time>
      </trkpt>
      <trkpt lat="44.31355" lon="5.83103">
        <ele>563</ele>
        <time>2019-03-19T16:16:06Z</time>
      </trkpt>
      <trkpt lat="44.31359" lon="5.83102">
        <ele>563</ele>
        <time>2019-03-19T16:16:07Z</time>
      </trkpt>
      <trkpt lat="44.31361" lon="5.83098">
        <ele>563</ele>
        <time>2019-03-19T16:16:08Z</time>
      </trkpt>
      <trkpt lat="44.31363" lon="5.83093">
        <ele>563</ele>
        <time>2019-03-19T16:16:09Z</time>
      </trkpt>
      <trkpt lat="44.31364" lon="5.83088">
        <ele>563</ele>
        <time>2019-03-19T16:16:10Z</time>
      </trkpt>
      <trkpt lat="44.31365" lon="5.83083">
        <ele>563</ele>
        <time>2019-03-19T16:16:11Z</time>
      </trkpt>
      <trkpt lat="44.31367" lon="5.83078">
        <ele>563</ele>
        <time>2019-03-19T16:16:12Z</time>
      </trkpt>
      <trkpt lat="44.31369" lon="5.83073">
        <ele>563</ele>
        <time>2019-03-19T16:16:13Z</time>
      </trkpt>
      <trkpt lat="44.31371" lon="5.83069">
        <ele>563</ele>
        <time>2019-03-19T16:16:14Z</time>
      </trkpt>
      <trkpt lat="44.31373" lon="5.83064">
        <ele>563</ele>
        <time>2019-03-19T16:16:15Z</time>
      </trkpt>
      <trkpt lat="44.31376" lon="5.8306">
        <ele>563</ele>
        <time>2019-03-19T16:16:16Z</time>
      </trkpt>
      <trkpt lat="44.31378" lon="5.83055">
        <ele>563</ele>
        <time>2019-03-19T16:16:17Z</time>
      </trkpt>
      <trkpt lat="44.3138" lon="5.8305">
        <ele>563</ele>
        <time>2019-03-19T16:16:18Z</time>
      </trkpt>
      <trkpt lat="44.31383" lon="5.83045">
        <ele>563</ele>
        <time>2019-03-19T16:16:19Z</time>
      </trkpt>
      <trkpt lat="44.31386" lon="5.83041">
        <ele>563</ele>
        <time>2019-03-19T16:16:20Z</time>
      </trkpt>
      <trkpt lat="44.31389" lon="5.83036">
        <ele>563</ele>
        <time>2019-03-19T16:16:21Z</time>
      </trkpt>
      <trkpt lat="44.31393" lon="5.83032">
        <ele>563</ele>
        <time>2019-03-19T16:16:22Z</time>
      </trkpt>
      <trkpt lat="44.31396" lon="5.83027">
        <ele>563</ele>
        <time>2019-03-19T16:16:23Z</time>
      </trkpt>
      <trkpt lat="44.31399" lon="5.83023">
        <ele>563</ele>
        <time>2019-03-19T16:16:24Z</time>
      </trkpt>
      <trkpt lat="44.31401" lon="5.83018">
        <ele>563</ele>
        <time>2019-03-19T16:16:25Z</time>
      </trkpt>
      <trkpt lat="44.31404" lon="5.83014">
        <ele>563</ele>
        <time>2019-03-19T16:16:26Z</time>
      </trkpt>
      <trkpt lat="44.31407" lon="5.8301">
        <ele>563</ele>
        <time>2019-03-19T16:16:27Z</time>
      </trkpt>
      <trkpt lat="44.3141" lon="5.83006">
        <ele>563</ele>
        <time>2019-03-19T16:16:28Z</time>
      </trkpt>
      <trkpt lat="44.31413" lon="5.83002">
        <ele>563</ele>
        <time>2019-03-19T16:16:29Z</time>
      </trkpt>
      <trkpt lat="44.31416" lon="5.82997">
        <ele>563</ele>
        <time>2019-03-19T16:16:30Z</time>
      </trkpt>
      <trkpt lat="44.31419" lon="5.82993">
        <ele>563</ele>
        <time>2019-03-19T16:16:31Z</time>
      </trkpt>
      <trkpt lat="44.31422" lon="5.82989">
        <ele>563</ele>
        <time>2019-03-19T16:16:32Z</time>
      </trkpt>
      <trkpt lat="44.31425" lon="5.82984">
        <ele>563</ele>
        <time>2019-03-19T16:16:33Z</time>
      </trkpt>
      <trkpt lat="44.31428" lon="5.8298">
        <ele>563</ele>
        <time>2019-03-19T16:16:34Z</time>
      </trkpt>
      <trkpt lat="44.31431" lon="5.82975">
        <ele>563</ele>
        <time>2019-03-19T16:16:35Z</time>
      </trkpt>
      <trkpt lat="44.31434" lon="5.82971">
        <ele>563</ele>
        <time>2019-03-19T16:16:36Z</time>
      </trkpt>
      <trkpt lat="44.31437" lon="5.82967">
        <ele>563</ele>
        <time>2019-03-19T16:16:37Z</time>
      </trkpt>
      <trkpt lat="44.3144" lon="5.82963">
        <ele>563</ele>
        <time>2019-03-19T16:16:38Z</time>
      </trkpt>
      <trkpt lat="44.31443" lon="5.82959">
        <ele>563</ele>
        <time>2019-03-19T16:16:39Z</time>
      </trkpt>
      <trkpt lat="44.31445" lon="5.82955">
        <ele>563</ele>
        <time>2019-03-19T16:16:40Z</time>
      </trkpt>
      <trkpt lat="44.31448" lon="5.8295">
        <ele>563</ele>
        <time>2019-03-19T16:16:41Z</time>
      </trkpt>
      <trkpt lat="44.31451" lon="5.82946">
        <ele>563</ele>
        <time>2019-03-19T16:16:42Z</time>
      </trkpt>
      <trkpt lat="44.31453" lon="5.82942">
        <ele>563</ele>
        <time>2019-03-19T16:16:43Z</time>
      </trkpt>
      <trkpt lat="44.31456" lon="5.82938">
        <ele>563</ele>
        <time>2019-03-19T16:16:44Z</time>
      </trkpt>
      <trkpt lat="44.31458" lon="5.82934">
        <ele>563</ele>
        <time>2019-03-19T16:16:45Z</time>
      </trkpt>
      <trkpt lat="44.31461" lon="5.8293">
        <ele>563</ele>
        <time>2019-03-19T16:16:46Z</time>
      </trkpt>
      <trkpt lat="44.31464" lon="5.82926">
        <ele>563</ele>
        <time>2019-03-19T16:16:47Z</time>
      </trkpt>
      <trkpt lat="44.31467" lon="5.82923">
        <ele>563</ele>
        <time>2019-03-19T16:16:48Z</time>
      </trkpt>
      <trkpt lat="44.31469" lon="5.82919">
        <ele>563</ele>
        <time>2019-03-19T16:16:49Z</time>
      </trkpt>
      <trkpt lat="44.31471" lon="5.82915">
        <ele>563</ele>
        <time>2019-03-19T16:16:50Z</time>
      </trkpt>
      <trkpt lat="44.31474" lon="5.82911">
        <ele>563</ele>
        <time>2019-03-19T16:16:51Z</time>
      </trkpt>
      <trkpt lat="44.31476" lon="5.82907">
        <ele>563</ele>
        <time>2019-03-19T16:16:52Z</time>
      </trkpt>
      <trkpt lat="44.31479" lon="5.82903">
        <ele>563</ele>
        <time>2019-03-19T16:16:53Z</time>
      </trkpt>
      <trkpt lat="44.31481" lon="5.82899">
        <ele>563</ele>
        <time>2019-03-19T16:16:54Z</time>
      </trkpt>
      <trkpt lat="44.31484" lon="5.82894">
        <ele>563</ele>
        <time>2019-03-19T16:16:55Z</time>
      </trkpt>
      <trkpt lat="44.31487" lon="5.8289">
        <ele>563</ele>
        <time>2019-03-19T16:16:56Z</time>
      </trkpt>
      <trkpt lat="44.31489" lon="5.82886">
        <ele>563</ele>
        <time>2019-03-19T16:16:57Z</time>
      </trkpt>
      <trkpt lat="44.31492" lon="5.82881">
        <ele>563</ele>
        <time>2019-03-19T16:16:58Z</time>
      </trkpt>
      <trkpt lat="44.31495" lon="5.82877">
        <ele>563</ele>
        <time>2019-03-19T16:16:59Z</time>
      </trkpt>
      <trkpt lat="44.31498" lon="5.82874">
        <ele>563</ele>
        <time>2019-03-19T16:17:00Z</time>
      </trkpt>
      <trkpt lat="44.31502" lon="5.82872">
        <ele>563</ele>
        <time>2019-03-19T16:17:01Z</time>
      </trkpt>
      <trkpt lat="44.31505" lon="5.8287">
        <ele>563</ele>
        <time>2019-03-19T16:17:02Z</time>
      </trkpt>
      <trkpt lat="44.31509" lon="5.8287">
        <ele>563</ele>
        <time>2019-03-19T16:17:03Z</time>
      </trkpt>
      <trkpt lat="44.31512" lon="5.82872">
        <ele>563</ele>
        <time>2019-03-19T16:17:04Z</time>
      </trkpt>
      <trkpt lat="44.31515" lon="5.82875">
        <ele>563</ele>
        <time>2019-03-19T16:17:05Z</time>
      </trkpt>
      <trkpt lat="44.31518" lon="5.82878">
        <ele>563</ele>
        <time>2019-03-19T16:17:06Z</time>
      </trkpt>
      <trkpt lat="44.31521" lon="5.82881">
        <ele>563</ele>
        <time>2019-03-19T16:17:07Z</time>
      </trkpt>
      <trkpt lat="44.31524" lon="5.82885">
        <ele>563</ele>
        <time>2019-03-19T16:17:08Z</time>
      </trkpt>
      <trkpt lat="44.31526" lon="5.82889">
        <ele>563</ele>
        <time>2019-03-19T16:17:09Z</time>
      </trkpt>
      <trkpt lat="44.31529" lon="5.82892">
        <ele>563</ele>
        <time>2019-03-19T16:17:10Z</time>
      </trkpt>
      <trkpt lat="44.31532" lon="5.82896">
        <ele>563</ele>
        <time>2019-03-19T16:17:11Z</time>
      </trkpt>
      <trkpt lat="44.31534" lon="5.82899">
        <ele>563</ele>
        <time>2019-03-19T16:17:12Z</time>
      </trkpt>
      <trkpt lat="44.31537" lon="5.82901">
        <ele>563</ele>
        <time>2019-03-19T16:17:13Z</time>
      </trkpt>
      <trkpt lat="44.3154" lon="5.82903">
        <ele>563</ele>
        <time>2019-03-19T16:17:14Z</time>
      </trkpt>
      <trkpt lat="44.31542" lon="5.82905">
        <ele>563</ele>
        <time>2019-03-19T16:17:15Z</time>
      </trkpt>
      <trkpt lat="44.31544" lon="5.82908">
        <ele>563</ele>
        <time>2019-03-19T16:17:16Z</time>
      </trkpt>
      <trkpt lat="44.31548" lon="5.82911">
        <ele>563</ele>
        <time>2019-03-19T16:17:17Z</time>
      </trkpt>
      <trkpt lat="44.3155" lon="5.82913">
        <ele>563</ele>
        <time>2019-03-19T16:17:18Z</time>
      </trkpt>
      <trkpt lat="44.31553" lon="5.82915">
        <ele>563</ele>
        <time>2019-03-19T16:17:19Z</time>
      </trkpt>
      <trkpt lat="44.31555" lon="5.82917">
        <ele>563</ele>
        <time>2019-03-19T16:17:20Z</time>
      </trkpt>
      <trkpt lat="44.31557" lon="5.82919">
        <ele>563</ele>
        <time>2019-03-19T16:17:21Z</time>
      </trkpt>
      <trkpt lat="44.3156" lon="5.82921">
        <ele>563</ele>
        <time>2019-03-19T16:17:22Z</time>
      </trkpt>
      <trkpt lat="44.31563" lon="5.82923">
        <ele>563</ele>
        <time>2019-03-19T16:17:23Z</time>
      </trkpt>
      <trkpt lat="44.31566" lon="5.82925">
        <ele>563</ele>
        <time>2019-03-19T16:17:24Z</time>
      </trkpt>
      <trkpt lat="44.31569" lon="5.82927">
        <ele>563</ele>
        <time>2019-03-19T16:17:25Z</time>
      </trkpt>
      <trkpt lat="44.31571" lon="5.82929">
        <ele>563</ele>
        <time>2019-03-19T16:17:26Z</time>
      </trkpt>
      <trkpt lat="44.31574" lon="5.82931">
        <ele>563</ele>
        <time>2019-03-19T16:17:27Z</time>
      </trkpt>
      <trkpt lat="44.31576" lon="5.82932">
        <ele>563</ele>
        <time>2019-03-19T16:17:28Z</time>
      </trkpt>
      <trkpt lat="44.31578" lon="5.82933">
        <ele>563</ele>
        <time>2019-03-19T16:17:29Z</time>
      </trkpt>
      <trkpt lat="44.31581" lon="5.82935">
        <ele>563</ele>
        <time>2019-03-19T16:17:30Z</time>
      </trkpt>
      <trkpt lat="44.31583" lon="5.82937">
        <ele>563</ele>
        <time>2019-03-19T16:17:31Z</time>
      </trkpt>
      <trkpt lat="44.31585" lon="5.82939">
        <ele>563</ele>
        <time>2019-03-19T16:17:32Z</time>
      </trkpt>
      <trkpt lat="44.31587" lon="5.82941">
        <ele>563</ele>
        <time>2019-03-19T16:17:33Z</time>
      </trkpt>
      <trkpt lat="44.31589" lon="5.82942">
        <ele>563</ele>
        <time>2019-03-19T16:17:34Z</time>
      </trkpt>
      <trkpt lat="44.31591" lon="5.82943">
        <ele>563</ele>
        <time>2019-03-19T16:17:35Z</time>
      </trkpt>
      <trkpt lat="44.31593" lon="5.82945">
        <ele>563</ele>
        <time>2019-03-19T16:17:36Z</time>
      </trkpt>
      <trkpt lat="44.31594" lon="5.82946">
        <ele>563</ele>
        <time>2019-03-19T16:17:37Z</time>
      </trkpt>
      <trkpt lat="44.31595" lon="5.82947">
        <ele>563</ele>
        <time>2019-03-19T16:17:38Z</time>
      </trkpt>
      <trkpt lat="44.31597" lon="5.82947">
        <ele>563</ele>
        <time>2019-03-19T16:17:39Z</time>
      </trkpt>
      <trkpt lat="44.31596" lon="5.82945">
        <ele>563</ele>
        <time>2019-03-19T16:17:43Z</time>
      </trkpt>
      <trkpt lat="44.31598" lon="5.82943">
        <ele>564</ele>
        <time>2019-03-19T16:17:48Z</time>
      </trkpt>
      <trkpt lat="44.31599" lon="5.82943">
        <ele>565</ele>
        <time>2019-03-19T16:17:51Z</time>
      </trkpt>
      <trkpt lat="44.316" lon="5.82942">
        <ele>566</ele>
        <time>2019-03-19T16:17:59Z</time>
      </trkpt>
      <trkpt lat="44.31598" lon="5.82941">
        <ele>568</ele>
        <time>2019-03-19T16:18:05Z</time>
      </trkpt>
      <trkpt lat="44.316" lon="5.8294">
        <ele>571</ele>
        <time>2019-03-19T16:18:09Z</time>
      </trkpt>
      <trkpt lat="44.31597" lon="5.82941">
        <ele>571</ele>
        <time>2019-03-19T16:18:13Z</time>
      </trkpt>
      <trkpt lat="44.31597" lon="5.82941">
        <ele>571</ele>
        <time>2019-03-19T16:18:14Z</time>
      </trkpt>
    </trkseg>
  </trk>
</gpx>